<?xml version="1.0" encoding="UTF-8" standalone="no" ?><gpx xmlns="http://www.topografix.com/GPX/1/1" xmlns:gpxx="http://www.garmin.com/xmlschemas/GpxExtensions/v3" xmlns:wptx1="http://www.garmin.com/xmlschemas/WaypointExtension/v1" xmlns:gpxtpx="http://www.garmin.com/xmlschemas/TrackPointExtension/v1" creator="GuideVTT.com" version="1.1" xmlns:xsi="http://www.w3.org/2001/XMLSchema-instance" xsi:schemaLocation="http://www.topografix.com/GPX/1/1 http://www.topografix.com/GPX/1/1/gpx.xsd http://www.garmin.com/xmlschemas/GpxExtensions/v3 http://www8.garmin.com/xmlschemas/GpxExtensionsv3.xsd http://www.garmin.com/xmlschemas/WaypointExtension/v1 http://www8.garmin.com/xmlschemas/WaypointExtensionv1.xsd http://www.garmin.com/xmlschemas/TrackPointExtension/v1 http://www.garmin.com/xmlschemas/TrackPointExtensionv1.xsd">
<metadata><link href="http://www.garmin.com"><text>Garmin International</text></link><time>2013-06-22T15:13:50Z</time></metadata>
<trk><name>bulle-saint_saturnin_les_apt_2012.gpx</name><extensions><gpxx:TrackExtension><gpxx:DisplayColor>Cyan</gpxx:DisplayColor></gpxx:TrackExtension></extensions><trkseg>
<trkpt lat="46.615500943735242" lon="7.052878998219967"><ele></ele><time>2015-2-4T5:58:28Z</time></trkpt>
<trkpt lat="46.61536892876029" lon="7.052199980244041"><ele></ele><time>2015-2-4T5:58:31Z</time></trkpt>
<trkpt lat="46.61523699760437" lon="7.051545940339565"><ele></ele><time>2015-2-4T5:58:34Z</time></trkpt>
<trkpt lat="46.614984953776002" lon="7.050390997901559"><ele></ele><time>2015-2-4T5:58:37Z</time></trkpt>
<trkpt lat="46.614817986264825" lon="7.049547946080566"><ele></ele><time>2015-2-4T5:58:40Z</time></trkpt>
<trkpt lat="46.61467993631959" lon="7.048880998045206"><ele></ele><time>2015-2-4T5:58:43Z</time></trkpt>
<trkpt lat="46.614462928846478" lon="7.047783974558115"><ele></ele><time>2015-2-4T5:58:46Z</time></trkpt>
<trkpt lat="46.614188924431801" lon="7.046443959698081"><ele></ele><time>2015-2-4T5:58:49Z</time></trkpt>
<trkpt lat="46.614033943042159" lon="7.04566796310246"><ele></ele><time>2015-2-4T5:58:52Z</time></trkpt>
<trkpt lat="46.613789945840836" lon="7.044513942673802"><ele></ele><time>2015-2-4T5:58:55Z</time></trkpt>
<trkpt lat="46.613654997199774" lon="7.043836936354637"><ele></ele><time>2015-2-4T5:58:58Z</time></trkpt>
<trkpt lat="46.613488951697946" lon="7.042694985866547"><ele></ele><time>2015-2-4T5:59:1Z</time></trkpt>
<trkpt lat="46.613437989726663" lon="7.041537947952747"><ele></ele><time>2015-2-4T5:59:4Z</time></trkpt>
<trkpt lat="46.61337093450129" lon="7.04042499884963"><ele></ele><time>2015-2-4T5:59:7Z</time></trkpt>
<trkpt lat="46.613407982513309" lon="7.039423948153853"><ele></ele><time>2015-2-4T5:59:10Z</time></trkpt>
<trkpt lat="46.613587941974401" lon="7.038137996569276"><ele></ele><time>2015-2-4T5:59:13Z</time></trkpt>
<trkpt lat="46.61375692114234" lon="7.037469958886504"><ele></ele><time>2015-2-4T5:59:16Z</time></trkpt>
<trkpt lat="46.613853983581066" lon="7.036313926801086"><ele></ele><time>2015-2-4T5:59:19Z</time></trkpt>
<trkpt lat="46.613942999392748" lon="7.035670951008797"><ele></ele><time>2015-2-4T5:59:22Z</time></trkpt>
<trkpt lat="46.61409798078239" lon="7.034548949450254"><ele></ele><time>2015-2-4T5:59:25Z</time></trkpt>
<trkpt lat="46.6142269782722" lon="7.033859957009554"><ele></ele><time>2015-2-4T5:59:28Z</time></trkpt>
<trkpt lat="46.614540964365005" lon="7.032966949045658"><ele></ele><time>2015-2-4T5:59:31Z</time></trkpt>
<trkpt lat="46.615031976252794" lon="7.032079976052046"><ele></ele><time>2015-2-4T5:59:34Z</time></trkpt>
<trkpt lat="46.615744940936565" lon="7.030729986727238"><ele></ele><time>2015-2-4T5:59:37Z</time></trkpt>
<trkpt lat="46.616176944226027" lon="7.029696917161346"><ele></ele><time>2015-2-4T5:59:40Z</time></trkpt>
<trkpt lat="46.616543987765908" lon="7.028713971376419"><ele></ele><time>2015-2-4T5:59:43Z</time></trkpt>
<trkpt lat="46.617162991315126" lon="7.027733959257603"><ele></ele><time>2015-2-4T5:59:46Z</time></trkpt>
<trkpt lat="46.617631958797574" lon="7.027314947918057"><ele></ele><time>2015-2-4T5:59:49Z</time></trkpt>
<trkpt lat="46.618130933493376" lon="7.026748917996883"><ele></ele><time>2015-2-4T5:59:52Z</time></trkpt>
<trkpt lat="46.618121964856982" lon="7.025697994977236"><ele></ele><time>2015-2-4T5:59:55Z</time></trkpt>
<trkpt lat="46.618047952651978" lon="7.024680934846401"><ele></ele><time>2015-2-4T5:59:58Z</time></trkpt>
<trkpt lat="46.617839997634292" lon="7.024005940183997"><ele></ele><time>2015-2-4T6:0:1Z</time></trkpt>
<trkpt lat="46.617649979889393" lon="7.022569952532649"><ele></ele><time>2015-2-4T6:0:4Z</time></trkpt>
<trkpt lat="46.617641933262348" lon="7.021764954552054"><ele></ele><time>2015-2-4T6:0:7Z</time></trkpt>
<trkpt lat="46.617723992094398" lon="7.02098392881453"><ele></ele><time>2015-2-4T6:0:10Z</time></trkpt>
<trkpt lat="46.617618966847658" lon="7.020071977749467"><ele></ele><time>2015-2-4T6:0:13Z</time></trkpt>
<trkpt lat="46.617356948554516" lon="7.019408969208598"><ele></ele><time>2015-2-4T6:0:16Z</time></trkpt>
<trkpt lat="46.617432972416282" lon="7.018655939027667"><ele></ele><time>2015-2-4T6:0:19Z</time></trkpt>
<trkpt lat="46.618132945150137" lon="7.018227959051728"><ele></ele><time>2015-2-4T6:0:22Z</time></trkpt>
<trkpt lat="46.61865396425128" lon="7.017735941335559"><ele></ele><time>2015-2-4T6:0:25Z</time></trkpt>
<trkpt lat="46.619019918143749" lon="7.017073938623071"><ele></ele><time>2015-2-4T6:0:28Z</time></trkpt>
<trkpt lat="46.61893299780786" lon="7.015811959281564"><ele></ele><time>2015-2-4T6:0:31Z</time></trkpt>
<trkpt lat="46.618871977552772" lon="7.014890955761075"><ele></ele><time>2015-2-4T6:0:34Z</time></trkpt>
<trkpt lat="46.618815986439586" lon="7.014119988307357"><ele></ele><time>2015-2-4T6:0:37Z</time></trkpt>
<trkpt lat="46.618694951757789" lon="7.013164954259992"><ele></ele><time>2015-2-4T6:0:40Z</time></trkpt>
<trkpt lat="46.61859193816781" lon="7.012140937149525"><ele></ele><time>2015-2-4T6:0:43Z</time></trkpt>
<trkpt lat="46.618546927347779" lon="7.011431995779276"><ele></ele><time>2015-2-4T6:0:46Z</time></trkpt>
<trkpt lat="46.618392951786518" lon="7.010711990296841"><ele></ele><time>2015-2-4T6:0:49Z</time></trkpt>
<trkpt lat="46.618349952623248" lon="7.009769948199391"><ele></ele><time>2015-2-4T6:0:52Z</time></trkpt>
<trkpt lat="46.618834929540753" lon="7.0089699793607"><ele></ele><time>2015-2-4T6:0:55Z</time></trkpt>
<trkpt lat="46.61914799362421" lon="7.008426999673247"><ele></ele><time>2015-2-4T6:0:58Z</time></trkpt>
<trkpt lat="46.619444964453578" lon="7.007243977859616"><ele></ele><time>2015-2-4T6:1:1Z</time></trkpt>
<trkpt lat="46.619458962231874" lon="7.006031954661012"><ele></ele><time>2015-2-4T6:1:4Z</time></trkpt>
<trkpt lat="46.61931999027729" lon="7.005069963634014"><ele></ele><time>2015-2-4T6:1:7Z</time></trkpt>
<trkpt lat="46.61925595253706" lon="7.004381977021694"><ele></ele><time>2015-2-4T6:1:10Z</time></trkpt>
<trkpt lat="46.619395930320024" lon="7.003094935789704"><ele></ele><time>2015-2-4T6:1:13Z</time></trkpt>
<trkpt lat="46.619268944486976" lon="7.002007970586419"><ele></ele><time>2015-2-4T6:1:16Z</time></trkpt>
<trkpt lat="46.61914698779583" lon="7.001245971769095"><ele></ele><time>2015-2-4T6:1:19Z</time></trkpt>
<trkpt lat="46.619239943102002" lon="6.999907968565822"><ele></ele><time>2015-2-4T6:1:22Z</time></trkpt>
<trkpt lat="46.619370952248573" lon="6.999124931171536"><ele></ele><time>2015-2-4T6:1:25Z</time></trkpt>
<trkpt lat="46.619476983323693" lon="6.998372990638018"><ele></ele><time>2015-2-4T6:1:28Z</time></trkpt>
<trkpt lat="46.61979298107326" lon="6.99760596267879"><ele></ele><time>2015-2-4T6:1:31Z</time></trkpt>
<trkpt lat="46.620239987969398" lon="6.997008919715881"><ele></ele><time>2015-2-4T6:1:34Z</time></trkpt>
<trkpt lat="46.62056596018374" lon="6.996421935036779"><ele></ele><time>2015-2-4T6:1:37Z</time></trkpt>
<trkpt lat="46.620704932138324" lon="6.995707964524627"><ele></ele><time>2015-2-4T6:1:40Z</time></trkpt>
<trkpt lat="46.620679954066873" lon="6.994852926582098"><ele></ele><time>2015-2-4T6:1:43Z</time></trkpt>
<trkpt lat="46.620622957125306" lon="6.994143985211849"><ele></ele><time>2015-2-4T6:1:46Z</time></trkpt>
<trkpt lat="46.620613988488913" lon="6.993435965850949"><ele></ele><time>2015-2-4T6:1:49Z</time></trkpt>
<trkpt lat="46.620907941833138" lon="6.99253692291677"><ele></ele><time>2015-2-4T6:1:52Z</time></trkpt>
<trkpt lat="46.621109945699573" lon="6.991617931053042"><ele></ele><time>2015-2-4T6:1:55Z</time></trkpt>
<trkpt lat="46.621054960414767" lon="6.990479920059443"><ele></ele><time>2015-2-4T6:1:58Z</time></trkpt>
<trkpt lat="46.620656987652183" lon="6.989557994529605"><ele></ele><time>2015-2-4T6:2:1Z</time></trkpt>
<trkpt lat="46.62092998623848" lon="6.989014931023121"><ele></ele><time>2015-2-4T6:2:4Z</time></trkpt>
<trkpt lat="46.62142694927752" lon="6.989091960713267"><ele></ele><time>2015-2-4T6:2:7Z</time></trkpt>
<trkpt lat="46.621410939842463" lon="6.989005962386727"><ele></ele><time>2015-2-4T6:2:10Z</time></trkpt>
<trkpt lat="46.621116986498237" lon="6.987819923087955"><ele></ele><time>2015-2-4T6:2:13Z</time></trkpt>
<trkpt lat="46.621006932109594" lon="6.987130930647254"><ele></ele><time>2015-2-4T6:2:16Z</time></trkpt>
<trkpt lat="46.620893944054842" lon="6.986416960135102"><ele></ele><time>2015-2-4T6:2:19Z</time></trkpt>
<trkpt lat="46.620685989037156" lon="6.985116926953197"><ele></ele><time>2015-2-4T6:2:22Z</time></trkpt>
<trkpt lat="46.620563948526978" lon="6.984372949227691"><ele></ele><time>2015-2-4T6:2:25Z</time></trkpt>
<trkpt lat="46.620419947430491" lon="6.983465943485498"><ele></ele><time>2015-2-4T6:2:28Z</time></trkpt>
<trkpt lat="46.620304947718978" lon="6.98260897770524"><ele></ele><time>2015-2-4T6:2:31Z</time></trkpt>
<trkpt lat="46.620418941602111" lon="6.981600970029831"><ele></ele><time>2015-2-4T6:2:34Z</time></trkpt>
<trkpt lat="46.620329925790429" lon="6.980705950409174"><ele></ele><time>2015-2-4T6:2:37Z</time></trkpt>
<trkpt lat="46.619959948584437" lon="6.979899946600199"><ele></ele><time>2015-2-4T6:2:40Z</time></trkpt>
<trkpt lat="46.619733972474933" lon="6.979301981627941"><ele></ele><time>2015-2-4T6:2:43Z</time></trkpt>
<trkpt lat="46.619544960558414" lon="6.978673925623298"><ele></ele><time>2015-2-4T6:2:46Z</time></trkpt>
<trkpt lat="46.619348991662264" lon="6.977983927354217"><ele></ele><time>2015-2-4T6:2:49Z</time></trkpt>
<trkpt lat="46.619262993335724" lon="6.977206924930215"><ele></ele><time>2015-2-4T6:2:52Z</time></trkpt>
<trkpt lat="46.619613943621516" lon="6.976511981338263"><ele></ele><time>2015-2-4T6:2:55Z</time></trkpt>
<trkpt lat="46.62007394246757" lon="6.976164970546961"><ele></ele><time>2015-2-4T6:2:58Z</time></trkpt>
<trkpt lat="46.620375942438841" lon="6.975445970892906"><ele></ele><time>2015-2-4T6:3:1Z</time></trkpt>
<trkpt lat="46.620031949132681" lon="6.974243922159076"><ele></ele><time>2015-2-4T6:3:4Z</time></trkpt>
<trkpt lat="46.619760962203145" lon="6.973522994667292"><ele></ele><time>2015-2-4T6:3:7Z</time></trkpt>
<trkpt lat="46.619465919211507" lon="6.972715985029936"><ele></ele><time>2015-2-4T6:3:10Z</time></trkpt>
<trkpt lat="46.619243966415524" lon="6.972130928188562"><ele></ele><time>2015-2-4T6:3:13Z</time></trkpt>
<trkpt lat="46.618945989757776" lon="6.971324924379587"><ele></ele><time>2015-2-4T6:3:16Z</time></trkpt>
<trkpt lat="46.618674919009209" lon="6.970595950260758"><ele></ele><time>2015-2-4T6:3:19Z</time></trkpt>
<trkpt lat="46.618232941254973" lon="6.969400942325592"><ele></ele><time>2015-2-4T6:3:22Z</time></trkpt>
<trkpt lat="46.617807978764176" lon="6.968737933784723"><ele></ele><time>2015-2-4T6:3:25Z</time></trkpt>
<trkpt lat="46.617567921057343" lon="6.96774291805923"><ele></ele><time>2015-2-4T6:3:28Z</time></trkpt>
<trkpt lat="46.617247983813286" lon="6.966656958684325"><ele></ele><time>2015-2-4T6:3:31Z</time></trkpt>
<trkpt lat="46.616509957239032" lon="6.965618943795562"><ele></ele><time>2015-2-4T6:3:34Z</time></trkpt>
<trkpt lat="46.616044929251075" lon="6.965002957731485"><ele></ele><time>2015-2-4T6:3:37Z</time></trkpt>
<trkpt lat="46.615655925124884" lon="6.964486967772245"><ele></ele><time>2015-2-4T6:3:40Z</time></trkpt>
<trkpt lat="46.615254934877157" lon="6.963968966156244"><ele></ele><time>2015-2-4T6:3:43Z</time></trkpt>
<trkpt lat="46.614457983523607" lon="6.96331299841404"><ele></ele><time>2015-2-4T6:3:46Z</time></trkpt>
<trkpt lat="46.614082977175713" lon="6.962951989844441"><ele></ele><time>2015-2-4T6:3:49Z</time></trkpt>
<trkpt lat="46.613785922527313" lon="6.962453937157989"><ele></ele><time>2015-2-4T6:3:52Z</time></trkpt>
<trkpt lat="46.61349699832499" lon="6.961850943043828"><ele></ele><time>2015-2-4T6:3:55Z</time></trkpt>
<trkpt lat="46.613208996132016" lon="6.961262952536345"><ele></ele><time>2015-2-4T6:3:58Z</time></trkpt>
<trkpt lat="46.6129179764539" lon="6.960666999220848"><ele></ele><time>2015-2-4T6:4:1Z</time></trkpt>
<trkpt lat="46.612426964566112" lon="6.959670977666974"><ele></ele><time>2015-2-4T6:4:4Z</time></trkpt>
<trkpt lat="46.612128987908363" lon="6.959060942754149"><ele></ele><time>2015-2-4T6:4:7Z</time></trkpt>
<trkpt lat="46.61180293187499" lon="6.958358958363533"><ele></ele><time>2015-2-4T6:4:10Z</time></trkpt>
<trkpt lat="46.611253917217255" lon="6.957267969846726"><ele></ele><time>2015-2-4T6:4:13Z</time></trkpt>
<trkpt lat="46.610889974981546" lon="6.956530949100852"><ele></ele><time>2015-2-4T6:4:16Z</time></trkpt>
<trkpt lat="46.610540952533484" lon="6.955807926133275"><ele></ele><time>2015-2-4T6:4:19Z</time></trkpt>
<trkpt lat="46.610179943963885" lon="6.955144917592406"><ele></ele><time>2015-2-4T6:4:22Z</time></trkpt>
<trkpt lat="46.609832933172584" lon="6.954561956226826"><ele></ele><time>2015-2-4T6:4:25Z</time></trkpt>
<trkpt lat="46.60937394015491" lon="6.953793922439218"><ele></ele><time>2015-2-4T6:4:28Z</time></trkpt>
<trkpt lat="46.609152993187308" lon="6.953191934153438"><ele></ele><time>2015-2-4T6:4:31Z</time></trkpt>
<trkpt lat="46.608663992956281" lon="6.952261961996555"><ele></ele><time>2015-2-4T6:4:34Z</time></trkpt>
<trkpt lat="46.608279934152961" lon="6.951577998697758"><ele></ele><time>2015-2-4T6:4:37Z</time></trkpt>
<trkpt lat="46.607880955561996" lon="6.950891939923167"><ele></ele><time>2015-2-4T6:4:40Z</time></trkpt>
<trkpt lat="46.607531933113933" lon="6.950301937758923"><ele></ele><time>2015-2-4T6:4:43Z</time></trkpt>
<trkpt lat="46.607173942029476" lon="6.949591990560293"><ele></ele><time>2015-2-4T6:4:46Z</time></trkpt>
<trkpt lat="46.606854926794767" lon="6.948931999504566"><ele></ele><time>2015-2-4T6:4:49Z</time></trkpt>
<trkpt lat="46.606571953743696" lon="6.948344931006432"><ele></ele><time>2015-2-4T6:4:52Z</time></trkpt>
<trkpt lat="46.606209939345717" lon="6.947552924975753"><ele></ele><time>2015-2-4T6:4:55Z</time></trkpt>
<trkpt lat="46.605916991829872" lon="6.946807941421866"><ele></ele><time>2015-2-4T6:4:58Z</time></trkpt>
<trkpt lat="46.605577943846583" lon="6.945911999791861"><ele></ele><time>2015-2-4T6:5:1Z</time></trkpt>
<trkpt lat="46.605337969958782" lon="6.945285955443978"><ele></ele><time>2015-2-4T6:5:4Z</time></trkpt>
<trkpt lat="46.605067988857627" lon="6.944589922204614"><ele></ele><time>2015-2-4T6:5:7Z</time></trkpt>
<trkpt lat="46.604786943644285" lon="6.943712923675776"><ele></ele><time>2015-2-4T6:5:10Z</time></trkpt>
<trkpt lat="46.604613941162825" lon="6.942767947912216"><ele></ele><time>2015-2-4T6:5:13Z</time></trkpt>
<trkpt lat="46.604500953108072" lon="6.942093959078193"><ele></ele><time>2015-2-4T6:5:16Z</time></trkpt>
<trkpt lat="46.604357957839966" lon="6.941261971369386"><ele></ele><time>2015-2-4T6:5:19Z</time></trkpt>
<trkpt lat="46.604189984500408" lon="6.94032596424222"><ele></ele><time>2015-2-4T6:5:22Z</time></trkpt>
<trkpt lat="46.603965936228633" lon="6.939700925722718"><ele></ele><time>2015-2-4T6:5:25Z</time></trkpt>
<trkpt lat="46.603447934612632" lon="6.939776949584484"><ele></ele><time>2015-2-4T6:5:28Z</time></trkpt>
<trkpt lat="46.60284292884171" lon="6.939315944910049"><ele></ele><time>2015-2-4T6:5:31Z</time></trkpt>
<trkpt lat="46.602180926129222" lon="6.938581941649318"><ele></ele><time>2015-2-4T6:5:34Z</time></trkpt>
<trkpt lat="46.601327983662486" lon="6.937994956970215"><ele></ele><time>2015-2-4T6:5:37Z</time></trkpt>
<trkpt lat="46.600835965946317" lon="6.937727993354201"><ele></ele><time>2015-2-4T6:5:40Z</time></trkpt>
<trkpt lat="46.600247975438833" lon="6.937012933194637"><ele></ele><time>2015-2-4T6:5:43Z</time></trkpt>
<trkpt lat="46.599829969927669" lon="6.936463918536902"><ele></ele><time>2015-2-4T6:5:46Z</time></trkpt>
<trkpt lat="46.599016925320029" lon="6.935412995517254"><ele></ele><time>2015-2-4T6:5:49Z</time></trkpt>
<trkpt lat="46.598504958674312" lon="6.934748981148005"><ele></ele><time>2015-2-4T6:5:52Z</time></trkpt>
<trkpt lat="46.59798595122993" lon="6.934069963172078"><ele></ele><time>2015-2-4T6:5:55Z</time></trkpt>
<trkpt lat="46.597600970417261" lon="6.933582974597812"><ele></ele><time>2015-2-4T6:5:58Z</time></trkpt>
<trkpt lat="46.597099984064698" lon="6.932930946350098"><ele></ele><time>2015-2-4T6:6:1Z</time></trkpt>
<trkpt lat="46.59639498218894" lon="6.93201195448637"><ele></ele><time>2015-2-4T6:6:4Z</time></trkpt>
<trkpt lat="46.596021987497807" lon="6.931400997564197"><ele></ele><time>2015-2-4T6:6:7Z</time></trkpt>
<trkpt lat="46.59568595699966" lon="6.930664982646704"><ele></ele><time>2015-2-4T6:6:10Z</time></trkpt>
<trkpt lat="46.59525697119534" lon="6.929703997448087"><ele></ele><time>2015-2-4T6:6:13Z</time></trkpt>
<trkpt lat="46.59495597705245" lon="6.929042916744947"><ele></ele><time>2015-2-4T6:6:16Z</time></trkpt>
<trkpt lat="46.594577953219414" lon="6.928225932642818"><ele></ele><time>2015-2-4T6:6:19Z</time></trkpt>
<trkpt lat="46.594319958239794" lon="6.927643977105618"><ele></ele><time>2015-2-4T6:6:22Z</time></trkpt>
<trkpt lat="46.594056934118271" lon="6.927019944414496"><ele></ele><time>2015-2-4T6:6:25Z</time></trkpt>
<trkpt lat="46.593734985217452" lon="6.926357941702008"><ele></ele><time>2015-2-4T6:6:28Z</time></trkpt>
<trkpt lat="46.593401972204447" lon="6.925622932612896"><ele></ele><time>2015-2-4T6:6:31Z</time></trkpt>
<trkpt lat="46.59302394837141" lon="6.924760937690735"><ele></ele><time>2015-2-4T6:6:34Z</time></trkpt>
<trkpt lat="46.592665957286954" lon="6.923762988299131"><ele></ele><time>2015-2-4T6:6:37Z</time></trkpt>
<trkpt lat="46.592238983139396" lon="6.922587929293513"><ele></ele><time>2015-2-4T6:6:40Z</time></trkpt>
<trkpt lat="46.591813936829567" lon="6.921958951279521"><ele></ele><time>2015-2-4T6:6:43Z</time></trkpt>
<trkpt lat="46.591328959912062" lon="6.92163398489356"><ele></ele><time>2015-2-4T6:6:46Z</time></trkpt>
<trkpt lat="46.590855969116092" lon="6.921395938843489"><ele></ele><time>2015-2-4T6:6:49Z</time></trkpt>
<trkpt lat="46.5899299364537" lon="6.921382946893573"><ele></ele><time>2015-2-4T6:6:52Z</time></trkpt>
<trkpt lat="46.589240944013" lon="6.921572964638472"><ele></ele><time>2015-2-4T6:6:55Z</time></trkpt>
<trkpt lat="46.588931987062097" lon="6.922294981777668"><ele></ele><time>2015-2-4T6:6:58Z</time></trkpt>
<trkpt lat="46.588557986542583" lon="6.923151947557926"><ele></ele><time>2015-2-4T6:7:1Z</time></trkpt>
<trkpt lat="46.588200917467475" lon="6.923897936940193"><ele></ele><time>2015-2-4T6:7:4Z</time></trkpt>
<trkpt lat="46.587952980771661" lon="6.92444795742631"><ele></ele><time>2015-2-4T6:7:7Z</time></trkpt>
<trkpt lat="46.58760798163712" lon="6.924777952954173"><ele></ele><time>2015-2-4T6:7:10Z</time></trkpt>
<trkpt lat="46.586721930652857" lon="6.92451492883265"><ele></ele><time>2015-2-4T6:7:13Z</time></trkpt>
<trkpt lat="46.586272995918989" lon="6.92457695491612"><ele></ele><time>2015-2-4T6:7:16Z</time></trkpt>
<trkpt lat="46.585633959621191" lon="6.924664964899421"><ele></ele><time>2015-2-4T6:7:19Z</time></trkpt>
<trkpt lat="46.584848994389176" lon="6.924114944413304"><ele></ele><time>2015-2-4T6:7:22Z</time></trkpt>
<trkpt lat="46.584349935874343" lon="6.923755947500467"><ele></ele><time>2015-2-4T6:7:25Z</time></trkpt>
<trkpt lat="46.583636971190572" lon="6.923256972804666"><ele></ele><time>2015-2-4T6:7:28Z</time></trkpt>
<trkpt lat="46.583172949030995" lon="6.922955978661776"><ele></ele><time>2015-2-4T6:7:31Z</time></trkpt>
<trkpt lat="46.582501977682114" lon="6.922615924850106"><ele></ele><time>2015-2-4T6:7:34Z</time></trkpt>
<trkpt lat="46.581990933045745" lon="6.922303950414062"><ele></ele><time>2015-2-4T6:7:37Z</time></trkpt>
<trkpt lat="46.581465974450111" lon="6.921952916309238"><ele></ele><time>2015-2-4T6:7:40Z</time></trkpt>
<trkpt lat="46.580945961177349" lon="6.921545974910259"><ele></ele><time>2015-2-4T6:7:43Z</time></trkpt>
<trkpt lat="46.580450925976038" lon="6.921054963022471"><ele></ele><time>2015-2-4T6:7:46Z</time></trkpt>
<trkpt lat="46.579944994300604" lon="6.920551965013146"><ele></ele><time>2015-2-4T6:7:49Z</time></trkpt>
<trkpt lat="46.579503938555717" lon="6.92010797560215"><ele></ele><time>2015-2-4T6:7:52Z</time></trkpt>
<trkpt lat="46.579002952203155" lon="6.919626938179135"><ele></ele><time>2015-2-4T6:7:55Z</time></trkpt>
<trkpt lat="46.578557956963778" lon="6.919190995395184"><ele></ele><time>2015-2-4T6:7:58Z</time></trkpt>
<trkpt lat="46.578087983652949" lon="6.91873099654913"><ele></ele><time>2015-2-4T6:8:1Z</time></trkpt>
<trkpt lat="46.577613987028599" lon="6.918269991874695"><ele></ele><time>2015-2-4T6:8:4Z</time></trkpt>
<trkpt lat="46.577198999002576" lon="6.917859949171543"><ele></ele><time>2015-2-4T6:8:7Z</time></trkpt>
<trkpt lat="46.576768923550844" lon="6.917442949488759"><ele></ele><time>2015-2-4T6:8:10Z</time></trkpt>
<trkpt lat="46.576290987432003" lon="6.916948920115829"><ele></ele><time>2015-2-4T6:8:13Z</time></trkpt>
<trkpt lat="46.575948921963573" lon="6.917587956413627"><ele></ele><time>2015-2-4T6:8:16Z</time></trkpt>
<trkpt lat="46.575671983882785" lon="6.91871096380055"><ele></ele><time>2015-2-4T6:8:19Z</time></trkpt>
<trkpt lat="46.57490998506546" lon="6.918704928830266"><ele></ele><time>2015-2-4T6:8:22Z</time></trkpt>
<trkpt lat="46.574384942650795" lon="6.918431930243969"><ele></ele><time>2015-2-4T6:8:25Z</time></trkpt>
<trkpt lat="46.57394397072494" lon="6.918215928599238"><ele></ele><time>2015-2-4T6:8:28Z</time></trkpt>
<trkpt lat="46.5733209438622" lon="6.917913928627968"><ele></ele><time>2015-2-4T6:8:31Z</time></trkpt>
<trkpt lat="46.572811994701624" lon="6.917654927819967"><ele></ele><time>2015-2-4T6:8:34Z</time></trkpt>
<trkpt lat="46.572278989478946" lon="6.917408918961883"><ele></ele><time>2015-2-4T6:8:37Z</time></trkpt>
<trkpt lat="46.571681946516037" lon="6.917121922597289"><ele></ele><time>2015-2-4T6:8:40Z</time></trkpt>
<trkpt lat="46.571028996258974" lon="6.916802991181612"><ele></ele><time>2015-2-4T6:8:43Z</time></trkpt>
<trkpt lat="46.570364981889725" lon="6.916486993432045"><ele></ele><time>2015-2-4T6:8:46Z</time></trkpt>
<trkpt lat="46.569703985005617" lon="6.916170995682478"><ele></ele><time>2015-2-4T6:8:49Z</time></trkpt>
<trkpt lat="46.5691729914397" lon="6.915902942419052"><ele></ele><time>2015-2-4T6:8:52Z</time></trkpt>
<trkpt lat="46.568716932088137" lon="6.91568098962307"><ele></ele><time>2015-2-4T6:8:55Z</time></trkpt>
<trkpt lat="46.568240923807025" lon="6.915463982149959"><ele></ele><time>2015-2-4T6:8:58Z</time></trkpt>
<trkpt lat="46.567743960767984" lon="6.915232976898551"><ele></ele><time>2015-2-4T6:9:1Z</time></trkpt>
<trkpt lat="46.567612951621413" lon="6.915690964087844"><ele></ele><time>2015-2-4T6:9:4Z</time></trkpt>
<trkpt lat="46.567804981023073" lon="6.916288929060102"><ele></ele><time>2015-2-4T6:9:7Z</time></trkpt>
<trkpt lat="46.568030957132578" lon="6.916956966742873"><ele></ele><time>2015-2-4T6:9:10Z</time></trkpt>
<trkpt lat="46.568285934627056" lon="6.917729945853353"><ele></ele><time>2015-2-4T6:9:13Z</time></trkpt>
<trkpt lat="46.568604949861765" lon="6.918688919395208"><ele></ele><time>2015-2-4T6:9:16Z</time></trkpt>
<trkpt lat="46.568926982581615" lon="6.919708997011185"><ele></ele><time>2015-2-4T6:9:19Z</time></trkpt>
<trkpt lat="46.569289918988943" lon="6.92081892862916"><ele></ele><time>2015-2-4T6:9:22Z</time></trkpt>
<trkpt lat="46.569505920633674" lon="6.92146198824048"><ele></ele><time>2015-2-4T6:9:25Z</time></trkpt>
<trkpt lat="46.569756958633661" lon="6.922254916280508"><ele></ele><time>2015-2-4T6:9:28Z</time></trkpt>
<trkpt lat="46.570682991296053" lon="6.925124963745475"><ele></ele><time>2015-2-4T6:9:31Z</time></trkpt>
<trkpt lat="46.569649921730161" lon="6.924536973237991"><ele></ele><time>2015-2-4T6:9:34Z</time></trkpt>
<trkpt lat="46.569153964519501" lon="6.924136988818646"><ele></ele><time>2015-2-4T6:9:37Z</time></trkpt>
<trkpt lat="46.568455919623375" lon="6.92356894724071"><ele></ele><time>2015-2-4T6:9:40Z</time></trkpt>
<trkpt lat="46.5677759796381" lon="6.923025967553258"><ele></ele><time>2015-2-4T6:9:43Z</time></trkpt>
<trkpt lat="46.567120933905244" lon="6.922504948452115"><ele></ele><time>2015-2-4T6:9:46Z</time></trkpt>
<trkpt lat="46.566697983071208" lon="6.922157937660813"><ele></ele><time>2015-2-4T6:9:49Z</time></trkpt>
<trkpt lat="46.565901953727007" lon="6.921251937747002"><ele></ele><time>2015-2-4T6:9:52Z</time></trkpt>
<trkpt lat="46.565291918814182" lon="6.920568980276585"><ele></ele><time>2015-2-4T6:9:55Z</time></trkpt>
<trkpt lat="46.564833931624889" lon="6.920098923146725"><ele></ele><time>2015-2-4T6:9:58Z</time></trkpt>
<trkpt lat="46.564298998564482" lon="6.919558960944414"><ele></ele><time>2015-2-4T6:10:1Z</time></trkpt>
<trkpt lat="46.563412947580218" lon="6.91873493604362"><ele></ele><time>2015-2-4T6:10:4Z</time></trkpt>
<trkpt lat="46.562728984281421" lon="6.918170917779207"><ele></ele><time>2015-2-4T6:10:7Z</time></trkpt>
<trkpt lat="46.562093971297145" lon="6.917795995250344"><ele></ele><time>2015-2-4T6:10:10Z</time></trkpt>
<trkpt lat="46.561465999111533" lon="6.917558955028653"><ele></ele><time>2015-2-4T6:10:13Z</time></trkpt>
<trkpt lat="46.560796955600381" lon="6.91735896281898"><ele></ele><time>2015-2-4T6:10:16Z</time></trkpt>
<trkpt lat="46.560296975076199" lon="6.917181937023997"><ele></ele><time>2015-2-4T6:10:19Z</time></trkpt>
<trkpt lat="46.55976296402514" lon="6.916874991729856"><ele></ele><time>2015-2-4T6:10:22Z</time></trkpt>
<trkpt lat="46.559346970170736" lon="6.916553964838386"><ele></ele><time>2015-2-4T6:10:25Z</time></trkpt>
<trkpt lat="46.558966934680939" lon="6.916194967925549"><ele></ele><time>2015-2-4T6:10:28Z</time></trkpt>
<trkpt lat="46.558283977210522" lon="6.915491977706552"><ele></ele><time>2015-2-4T6:10:31Z</time></trkpt>
<trkpt lat="46.557839987799525" lon="6.915044970810413"><ele></ele><time>2015-2-4T6:10:34Z</time></trkpt>
<trkpt lat="46.557345958426595" lon="6.914537949487567"><ele></ele><time>2015-2-4T6:10:37Z</time></trkpt>
<trkpt lat="46.556839942932129" lon="6.914017936214805"><ele></ele><time>2015-2-4T6:10:40Z</time></trkpt>
<trkpt lat="46.55615396797657" lon="6.913322992622852"><ele></ele><time>2015-2-4T6:10:43Z</time></trkpt>
<trkpt lat="46.555522978305817" lon="6.9126729760319"><ele></ele><time>2015-2-4T6:10:46Z</time></trkpt>
<trkpt lat="46.554841948673129" lon="6.911976942792535"><ele></ele><time>2015-2-4T6:10:49Z</time></trkpt>
<trkpt lat="46.55430693179369" lon="6.911422982811928"><ele></ele><time>2015-2-4T6:10:52Z</time></trkpt>
<trkpt lat="46.55355398543179" lon="6.910757962614298"><ele></ele><time>2015-2-4T6:10:55Z</time></trkpt>
<trkpt lat="46.553044952452183" lon="6.910395948216319"><ele></ele><time>2015-2-4T6:10:58Z</time></trkpt>
<trkpt lat="46.552422931417823" lon="6.910061929374933"><ele></ele><time>2015-2-4T6:11:1Z</time></trkpt>
<trkpt lat="46.551735950633883" lon="6.90981893800199"><ele></ele><time>2015-2-4T6:11:4Z</time></trkpt>
<trkpt lat="46.551095992326736" lon="6.909693963825703"><ele></ele><time>2015-2-4T6:11:7Z</time></trkpt>
<trkpt lat="46.550536919385195" lon="6.909636966884136"><ele></ele><time>2015-2-4T6:11:10Z</time></trkpt>
<trkpt lat="46.550019923597574" lon="6.909633949398994"><ele></ele><time>2015-2-4T6:11:13Z</time></trkpt>
<trkpt lat="46.549380971118808" lon="6.909626992419362"><ele></ele><time>2015-2-4T6:11:16Z</time></trkpt>
<trkpt lat="46.548691978678107" lon="6.909609977155924"><ele></ele><time>2015-2-4T6:11:19Z</time></trkpt>
<trkpt lat="46.548022935166955" lon="6.909578964114189"><ele></ele><time>2015-2-4T6:11:22Z</time></trkpt>
<trkpt lat="46.547390939667821" lon="6.909513920545578"><ele></ele><time>2015-2-4T6:11:25Z</time></trkpt>
<trkpt lat="46.546930940821767" lon="6.909433957189322"><ele></ele><time>2015-2-4T6:11:28Z</time></trkpt>
<trkpt lat="46.546222921460867" lon="6.90927897579968"><ele></ele><time>2015-2-4T6:11:31Z</time></trkpt>
<trkpt lat="46.545489924028516" lon="6.909111924469471"><ele></ele><time>2015-2-4T6:11:34Z</time></trkpt>
<trkpt lat="46.544804954901338" lon="6.908946968615055"><ele></ele><time>2015-2-4T6:11:37Z</time></trkpt>
<trkpt lat="46.544208917766809" lon="6.908790981397033"><ele></ele><time>2015-2-4T6:11:40Z</time></trkpt>
<trkpt lat="46.543538952246308" lon="6.908640945330262"><ele></ele><time>2015-2-4T6:11:43Z</time></trkpt>
<trkpt lat="46.542884996160865" lon="6.90848495811224"><ele></ele><time>2015-2-4T6:11:46Z</time></trkpt>
<trkpt lat="46.541983941569924" lon="6.908154962584376"><ele></ele><time>2015-2-4T6:11:49Z</time></trkpt>
<trkpt lat="46.5413289796561" lon="6.907837959006429"><ele></ele><time>2015-2-4T6:11:52Z</time></trkpt>
<trkpt lat="46.540839979425073" lon="6.907610977068543"><ele></ele><time>2015-2-4T6:11:55Z</time></trkpt>
<trkpt lat="46.539839934557676" lon="6.907230941578746"><ele></ele><time>2015-2-4T6:11:58Z</time></trkpt>
<trkpt lat="46.539358980953693" lon="6.907142931595445"><ele></ele><time>2015-2-4T6:12:1Z</time></trkpt>
<trkpt lat="46.538372933864594" lon="6.907057939097285"><ele></ele><time>2015-2-4T6:12:4Z</time></trkpt>
<trkpt lat="46.537691988050938" lon="6.907003959640861"><ele></ele><time>2015-2-4T6:12:7Z</time></trkpt>
<trkpt lat="46.536813983693719" lon="6.906929947435856"><ele></ele><time>2015-2-4T6:12:10Z</time></trkpt>
<trkpt lat="46.536119962111115" lon="6.90687395632267"><ele></ele><time>2015-2-4T6:12:13Z</time></trkpt>
<trkpt lat="46.534867957234383" lon="6.906777983531356"><ele></ele><time>2015-2-4T6:12:16Z</time></trkpt>
<trkpt lat="46.534059941768646" lon="6.906706988811493"><ele></ele><time>2015-2-4T6:12:19Z</time></trkpt>
<trkpt lat="46.533307917416096" lon="6.906720986589789"><ele></ele><time>2015-2-4T6:12:22Z</time></trkpt>
<trkpt lat="46.532636946067214" lon="6.906756944954395"><ele></ele><time>2015-2-4T6:12:25Z</time></trkpt>
<trkpt lat="46.531955916434526" lon="6.906804973259568"><ele></ele><time>2015-2-4T6:12:28Z</time></trkpt>
<trkpt lat="46.531264996156096" lon="6.906661977991462"><ele></ele><time>2015-2-4T6:12:31Z</time></trkpt>
<trkpt lat="46.530787982046604" lon="6.905919928103685"><ele></ele><time>2015-2-4T6:12:34Z</time></trkpt>
<trkpt lat="46.530744982883334" lon="6.9051559176296"><ele></ele><time>2015-2-4T6:12:37Z</time></trkpt>
<trkpt lat="46.53067197650671" lon="6.904325941577554"><ele></ele><time>2015-2-4T6:12:40Z</time></trkpt>
<trkpt lat="46.530061941593885" lon="6.903418935835362"><ele></ele><time>2015-2-4T6:12:43Z</time></trkpt>
<trkpt lat="46.529330955818295" lon="6.902849972248077"><ele></ele><time>2015-2-4T6:12:46Z</time></trkpt>
<trkpt lat="46.528900964185596" lon="6.902627935633063"><ele></ele><time>2015-2-4T6:12:49Z</time></trkpt>
<trkpt lat="46.528475917875767" lon="6.902362983673811"><ele></ele><time>2015-2-4T6:12:52Z</time></trkpt>
<trkpt lat="46.528025977313519" lon="6.90197791904211"><ele></ele><time>2015-2-4T6:12:55Z</time></trkpt>
<trkpt lat="46.527571929618716" lon="6.901617916300893"><ele></ele><time>2015-2-4T6:12:58Z</time></trkpt>
<trkpt lat="46.527139926329255" lon="6.901370985433459"><ele></ele><time>2015-2-4T6:13:1Z</time></trkpt>
<trkpt lat="46.526751928031445" lon="6.900854995474219"><ele></ele><time>2015-2-4T6:13:4Z</time></trkpt>
<trkpt lat="46.526191933080554" lon="6.900438917800784"><ele></ele><time>2015-2-4T6:13:7Z</time></trkpt>
<trkpt lat="46.525400932878256" lon="6.900207996368408"><ele></ele><time>2015-2-4T6:13:10Z</time></trkpt>
<trkpt lat="46.524707917124033" lon="6.899970956146717"><ele></ele><time>2015-2-4T6:13:13Z</time></trkpt>
<trkpt lat="46.524147922173142" lon="6.899742968380451"><ele></ele><time>2015-2-4T6:13:16Z</time></trkpt>
<trkpt lat="46.523600919172168" lon="6.89946192316711"><ele></ele><time>2015-2-4T6:13:19Z</time></trkpt>
<trkpt lat="46.52308895252645" lon="6.899112984538078"><ele></ele><time>2015-2-4T6:13:22Z</time></trkpt>
<trkpt lat="46.52233399450779" lon="6.8980429507792"><ele></ele><time>2015-2-4T6:13:25Z</time></trkpt>
<trkpt lat="46.521870978176594" lon="6.897369967773557"><ele></ele><time>2015-2-4T6:13:28Z</time></trkpt>
<trkpt lat="46.521450961008668" lon="6.896939976140857"><ele></ele><time>2015-2-4T6:13:31Z</time></trkpt>
<trkpt lat="46.520867999643087" lon="6.896476959809661"><ele></ele><time>2015-2-4T6:13:34Z</time></trkpt>
<trkpt lat="46.52021094225347" lon="6.895965998992324"><ele></ele><time>2015-2-4T6:13:37Z</time></trkpt>
<trkpt lat="46.519786985591054" lon="6.895632985979319"><ele></ele><time>2015-2-4T6:13:40Z</time></trkpt>
<trkpt lat="46.519079972058535" lon="6.895163934677839"><ele></ele><time>2015-2-4T6:13:43Z</time></trkpt>
<trkpt lat="46.518436996266246" lon="6.89492798410356"><ele></ele><time>2015-2-4T6:13:46Z</time></trkpt>
<trkpt lat="46.517966939136386" lon="6.894854977726936"><ele></ele><time>2015-2-4T6:13:49Z</time></trkpt>
<trkpt lat="46.517365956678987" lon="6.894773924723268"><ele></ele><time>2015-2-4T6:13:52Z</time></trkpt>
<trkpt lat="46.516610998660326" lon="6.894646938890219"><ele></ele><time>2015-2-4T6:13:55Z</time></trkpt>
<trkpt lat="46.515661999583244" lon="6.894471924751997"><ele></ele><time>2015-2-4T6:13:58Z</time></trkpt>
<trkpt lat="46.51470797136426" lon="6.893965993076563"><ele></ele><time>2015-2-4T6:14:1Z</time></trkpt>
<trkpt lat="46.513900961726904" lon="6.8931869789958"><ele></ele><time>2015-2-4T6:14:4Z</time></trkpt>
<trkpt lat="46.513210963457823" lon="6.89265095628798"><ele></ele><time>2015-2-4T6:14:7Z</time></trkpt>
<trkpt lat="46.512789940461516" lon="6.892361948266625"><ele></ele><time>2015-2-4T6:14:10Z</time></trkpt>
<trkpt lat="46.512391967698932" lon="6.89200596883893"><ele></ele><time>2015-2-4T6:14:13Z</time></trkpt>
<trkpt lat="46.511960970237851" lon="6.891245981678367"><ele></ele><time>2015-2-4T6:14:16Z</time></trkpt>
<trkpt lat="46.511235935613513" lon="6.890590935945511"><ele></ele><time>2015-2-4T6:14:19Z</time></trkpt>
<trkpt lat="46.510739978402853" lon="6.890448946505785"><ele></ele><time>2015-2-4T6:14:22Z</time></trkpt>
<trkpt lat="46.510094990953803" lon="6.890352973714471"><ele></ele><time>2015-2-4T6:14:25Z</time></trkpt>
<trkpt lat="46.509132999926805" lon="6.890420950949192"><ele></ele><time>2015-2-4T6:14:28Z</time></trkpt>
<trkpt lat="46.508554983884096" lon="6.89007394015789"><ele></ele><time>2015-2-4T6:14:31Z</time></trkpt>
<trkpt lat="46.507851993665099" lon="6.889036931097508"><ele></ele><time>2015-2-4T6:14:34Z</time></trkpt>
<trkpt lat="46.507362993434072" lon="6.887655928730965"><ele></ele><time>2015-2-4T6:14:37Z</time></trkpt>
<trkpt lat="46.507031992077827" lon="6.886885967105627"><ele></ele><time>2015-2-4T6:14:40Z</time></trkpt>
<trkpt lat="46.5066759288311" lon="6.88629194162786"><ele></ele><time>2015-2-4T6:14:43Z</time></trkpt>
<trkpt lat="46.506249960511923" lon="6.885805958881974"><ele></ele><time>2015-2-4T6:14:46Z</time></trkpt>
<trkpt lat="46.505730953067541" lon="6.885287957265973"><ele></ele><time>2015-2-4T6:14:49Z</time></trkpt>
<trkpt lat="46.505242958664894" lon="6.884969947859645"><ele></ele><time>2015-2-4T6:14:52Z</time></trkpt>
<trkpt lat="46.504884967580438" lon="6.884478935971856"><ele></ele><time>2015-2-4T6:14:55Z</time></trkpt>
<trkpt lat="46.504671983420849" lon="6.883836966007948"><ele></ele><time>2015-2-4T6:14:58Z</time></trkpt>
<trkpt lat="46.504193963482976" lon="6.882677916437388"><ele></ele><time>2015-2-4T6:15:1Z</time></trkpt>
<trkpt lat="46.50375097990036" lon="6.881696982309222"><ele></ele><time>2015-2-4T6:15:4Z</time></trkpt>
<trkpt lat="46.503403969109058" lon="6.880915956571698"><ele></ele><time>2015-2-4T6:15:7Z</time></trkpt>
<trkpt lat="46.502926954999566" lon="6.879858998581767"><ele></ele><time>2015-2-4T6:15:10Z</time></trkpt>
<trkpt lat="46.50259293615818" lon="6.879196995869279"><ele></ele><time>2015-2-4T6:15:13Z</time></trkpt>
<trkpt lat="46.502171996980906" lon="6.878651920706034"><ele></ele><time>2015-2-4T6:15:16Z</time></trkpt>
<trkpt lat="46.501758936792612" lon="6.878314968198538"><ele></ele><time>2015-2-4T6:15:19Z</time></trkpt>
<trkpt lat="46.501330956816673" lon="6.877992935478687"><ele></ele><time>2015-2-4T6:15:22Z</time></trkpt>
<trkpt lat="46.500707929953933" lon="6.877528997138143"><ele></ele><time>2015-2-4T6:15:25Z</time></trkpt>
<trkpt lat="46.50018498301506" lon="6.877147955819964"><ele></ele><time>2015-2-4T6:15:28Z</time></trkpt>
<trkpt lat="46.499575953930616" lon="6.876993980258703"><ele></ele><time>2015-2-4T6:15:31Z</time></trkpt>
<trkpt lat="46.499145962297916" lon="6.876677982509136"><ele></ele><time>2015-2-4T6:15:34Z</time></trkpt>
<trkpt lat="46.498898947611451" lon="6.876124944537878"><ele></ele><time>2015-2-4T6:15:37Z</time></trkpt>
<trkpt lat="46.498484965413809" lon="6.875264961272478"><ele></ele><time>2015-2-4T6:15:40Z</time></trkpt>
<trkpt lat="46.497898986563087" lon="6.875018952414393"><ele></ele><time>2015-2-4T6:15:43Z</time></trkpt>
<trkpt lat="46.497314935550094" lon="6.874292995780706"><ele></ele><time>2015-2-4T6:15:46Z</time></trkpt>
<trkpt lat="46.496686963364482" lon="6.873333938419819"><ele></ele><time>2015-2-4T6:15:49Z</time></trkpt>
<trkpt lat="46.496185977011919" lon="6.872618962079287"><ele></ele><time>2015-2-4T6:15:52Z</time></trkpt>
<trkpt lat="46.495789932087064" lon="6.872052932158113"><ele></ele><time>2015-2-4T6:15:55Z</time></trkpt>
<trkpt lat="46.495317947119474" lon="6.871445998549461"><ele></ele><time>2015-2-4T6:15:58Z</time></trkpt>
<trkpt lat="46.494883932173252" lon="6.871107956394553"><ele></ele><time>2015-2-4T6:16:1Z</time></trkpt>
<trkpt lat="46.493897968903184" lon="6.870892960578203"><ele></ele><time>2015-2-4T6:16:4Z</time></trkpt>
<trkpt lat="46.493361946195364" lon="6.870745941996574"><ele></ele><time>2015-2-4T6:16:7Z</time></trkpt>
<trkpt lat="46.492313956841826" lon="6.869924934580922"><ele></ele><time>2015-2-4T6:16:10Z</time></trkpt>
<trkpt lat="46.491748932749033" lon="6.869243988767266"><ele></ele><time>2015-2-4T6:16:13Z</time></trkpt>
<trkpt lat="46.491563944146037" lon="6.868378976359963"><ele></ele><time>2015-2-4T6:16:16Z</time></trkpt>
<trkpt lat="46.491250963881612" lon="6.867734994739294"><ele></ele><time>2015-2-4T6:16:19Z</time></trkpt>
<trkpt lat="46.490870928391814" lon="6.867112973704934"><ele></ele><time>2015-2-4T6:16:22Z</time></trkpt>
<trkpt lat="46.490467926487327" lon="6.866427920758724"><ele></ele><time>2015-2-4T6:16:25Z</time></trkpt>
<trkpt lat="46.489907931536436" lon="6.865504989400506"><ele></ele><time>2015-2-4T6:16:28Z</time></trkpt>
<trkpt lat="46.488993968814611" lon="6.864453982561827"><ele></ele><time>2015-2-4T6:16:31Z</time></trkpt>
<trkpt lat="46.488621979951859" lon="6.863848976790905"><ele></ele><time>2015-2-4T6:16:34Z</time></trkpt>
<trkpt lat="46.488222917541862" lon="6.863103993237019"><ele></ele><time>2015-2-4T6:16:37Z</time></trkpt>
<trkpt lat="46.487833997234702" lon="6.862375941127539"><ele></ele><time>2015-2-4T6:16:40Z</time></trkpt>
<trkpt lat="46.487492937594652" lon="6.86160396784544"><ele></ele><time>2015-2-4T6:16:43Z</time></trkpt>
<trkpt lat="46.487063951790333" lon="6.860070917755365"><ele></ele><time>2015-2-4T6:16:46Z</time></trkpt>
<trkpt lat="46.486837975680828" lon="6.859295926988125"><ele></ele><time>2015-2-4T6:16:49Z</time></trkpt>
<trkpt lat="46.486309999600053" lon="6.858178954571486"><ele></ele><time>2015-2-4T6:16:52Z</time></trkpt>
<trkpt lat="46.485907919704914" lon="6.857596999034286"><ele></ele><time>2015-2-4T6:16:55Z</time></trkpt>
<trkpt lat="46.485144998878241" lon="6.85653492808342"><ele></ele><time>2015-2-4T6:16:58Z</time></trkpt>
<trkpt lat="46.484580980613828" lon="6.855723978951573"><ele></ele><time>2015-2-4T6:17:1Z</time></trkpt>
<trkpt lat="46.483971951529384" lon="6.854862989857793"><ele></ele><time>2015-2-4T6:17:4Z</time></trkpt>
<trkpt lat="46.483486974611878" lon="6.853926982730627"><ele></ele><time>2015-2-4T6:17:7Z</time></trkpt>
<trkpt lat="46.483496949076653" lon="6.852333918213844"><ele></ele><time>2015-2-4T6:17:10Z</time></trkpt>
<trkpt lat="46.483529973775148" lon="6.851011924445629"><ele></ele><time>2015-2-4T6:17:13Z</time></trkpt>
<trkpt lat="46.483387984335423" lon="6.849893946200609"><ele></ele><time>2015-2-4T6:17:16Z</time></trkpt>
<trkpt lat="46.482966961339116" lon="6.848201975226402"><ele></ele><time>2015-2-4T6:17:19Z</time></trkpt>
<trkpt lat="46.482638977468014" lon="6.846871934831142"><ele></ele><time>2015-2-4T6:17:22Z</time></trkpt>
<trkpt lat="46.482322979718447" lon="6.846289979293943"><ele></ele><time>2015-2-4T6:17:25Z</time></trkpt>
<trkpt lat="46.481840936467052" lon="6.845973981544375"><ele></ele><time>2015-2-4T6:17:28Z</time></trkpt>
<trkpt lat="46.481637926772237" lon="6.845331927761436"><ele></ele><time>2015-2-4T6:17:31Z</time></trkpt>
<trkpt lat="46.482250979170203" lon="6.844034995883703"><ele></ele><time>2015-2-4T6:17:34Z</time></trkpt>
<trkpt lat="46.482303952798247" lon="6.8433409743011"><ele></ele><time>2015-2-4T6:17:37Z</time></trkpt>
<trkpt lat="46.481775976717472" lon="6.843436947092414"><ele></ele><time>2015-2-4T6:17:40Z</time></trkpt>
<trkpt lat="46.481276918202639" lon="6.843438958749175"><ele></ele><time>2015-2-4T6:17:43Z</time></trkpt>
<trkpt lat="46.480774926021695" lon="6.843210970982909"><ele></ele><time>2015-2-4T6:17:46Z</time></trkpt>
<trkpt lat="46.480275951325893" lon="6.842923974618316"><ele></ele><time>2015-2-4T6:17:49Z</time></trkpt>
<trkpt lat="46.479681925848126" lon="6.84239792637527"><ele></ele><time>2015-2-4T6:17:52Z</time></trkpt>
<trkpt lat="46.479394929483533" lon="6.841663923114538"><ele></ele><time>2015-2-4T6:17:55Z</time></trkpt>
<trkpt lat="46.479123942553997" lon="6.841119937598705"><ele></ele><time>2015-2-4T6:17:58Z</time></trkpt>
<trkpt lat="46.478792941197753" lon="6.840572934597731"><ele></ele><time>2015-2-4T6:18:1Z</time></trkpt>
<trkpt lat="46.478370996192098" lon="6.839876985177398"><ele></ele><time>2015-2-4T6:18:4Z</time></trkpt>
<trkpt lat="46.477791974321008" lon="6.838865960016847"><ele></ele><time>2015-2-4T6:18:7Z</time></trkpt>
<trkpt lat="46.477330969646573" lon="6.837781928479672"><ele></ele><time>2015-2-4T6:18:10Z</time></trkpt>
<trkpt lat="46.477160984650254" lon="6.836979947984219"><ele></ele><time>2015-2-4T6:18:13Z</time></trkpt>
<trkpt lat="46.477116979658604" lon="6.836285926401615"><ele></ele><time>2015-2-4T6:18:16Z</time></trkpt>
<trkpt lat="46.47711094468832" lon="6.835293928161264"><ele></ele><time>2015-2-4T6:18:19Z</time></trkpt>
<trkpt lat="46.4770239405334" lon="6.834167987108231"><ele></ele><time>2015-2-4T6:18:22Z</time></trkpt>
<trkpt lat="46.476889997720718" lon="6.833029976114631"><ele></ele><time>2015-2-4T6:18:25Z</time></trkpt>
<trkpt lat="46.476831994950771" lon="6.832071924582124"><ele></ele><time>2015-2-4T6:18:28Z</time></trkpt>
<trkpt lat="46.476790923625231" lon="6.831173971295357"><ele></ele><time>2015-2-4T6:18:31Z</time></trkpt>
<trkpt lat="46.47670391947031" lon="6.830309964716435"><ele></ele><time>2015-2-4T6:18:34Z</time></trkpt>
<trkpt lat="46.476491941139102" lon="6.829155944287777"><ele></ele><time>2015-2-4T6:18:37Z</time></trkpt>
<trkpt lat="46.476247943937778" lon="6.82834692299366"><ele></ele><time>2015-2-4T6:18:40Z</time></trkpt>
<trkpt lat="46.476080976426601" lon="6.827606968581677"><ele></ele><time>2015-2-4T6:18:43Z</time></trkpt>
<trkpt lat="46.476047951728106" lon="6.826069978997111"><ele></ele><time>2015-2-4T6:18:46Z</time></trkpt>
<trkpt lat="46.475963965058327" lon="6.825051996856928"><ele></ele><time>2015-2-4T6:18:49Z</time></trkpt>
<trkpt lat="46.476123975589871" lon="6.823979951441288"><ele></ele><time>2015-2-4T6:18:52Z</time></trkpt>
<trkpt lat="46.47605599835515" lon="6.822968926280737"><ele></ele><time>2015-2-4T6:18:55Z</time></trkpt>
<trkpt lat="46.476126993075013" lon="6.821889923885465"><ele></ele><time>2015-2-4T6:18:58Z</time></trkpt>
<trkpt lat="46.476222965866327" lon="6.821216940879822"><ele></ele><time>2015-2-4T6:19:1Z</time></trkpt>
<trkpt lat="46.476266970857978" lon="6.819939957931638"><ele></ele><time>2015-2-4T6:19:4Z</time></trkpt>
<trkpt lat="46.476289937272668" lon="6.818915940821171"><ele></ele><time>2015-2-4T6:19:7Z</time></trkpt>
<trkpt lat="46.476301923394203" lon="6.818143967539072"><ele></ele><time>2015-2-4T6:19:10Z</time></trkpt>
<trkpt lat="46.476327991113067" lon="6.816877964884043"><ele></ele><time>2015-2-4T6:19:13Z</time></trkpt>
<trkpt lat="46.476340983062983" lon="6.816199952736497"><ele></ele><time>2015-2-4T6:19:16Z</time></trkpt>
<trkpt lat="46.476351963356137" lon="6.815321948379278"><ele></ele><time>2015-2-4T6:19:19Z</time></trkpt>
<trkpt lat="46.476213997229934" lon="6.81399199180305"><ele></ele><time>2015-2-4T6:19:22Z</time></trkpt>
<trkpt lat="46.476108971983194" lon="6.81311197578907"><ele></ele><time>2015-2-4T6:19:25Z</time></trkpt>
<trkpt lat="46.4759929664433" lon="6.812043953686953"><ele></ele><time>2015-2-4T6:19:28Z</time></trkpt>
<trkpt lat="46.475911997258663" lon="6.811237949877977"><ele></ele><time>2015-2-4T6:19:31Z</time></trkpt>
<trkpt lat="46.475811917334795" lon="6.809942945837975"><ele></ele><time>2015-2-4T6:19:34Z</time></trkpt>
<trkpt lat="46.475736983120441" lon="6.808986989781261"><ele></ele><time>2015-2-4T6:19:37Z</time></trkpt>
<trkpt lat="46.475681997835636" lon="6.808265978470445"><ele></ele><time>2015-2-4T6:19:40Z</time></trkpt>
<trkpt lat="46.475625922903419" lon="6.807542955502868"><ele></ele><time>2015-2-4T6:19:43Z</time></trkpt>
<trkpt lat="46.475572949275374" lon="6.806804928928614"><ele></ele><time>2015-2-4T6:19:46Z</time></trkpt>
<trkpt lat="46.475692978128791" lon="6.805367935448885"><ele></ele><time>2015-2-4T6:19:49Z</time></trkpt>
<trkpt lat="46.476007970049977" lon="6.804268984124064"><ele></ele><time>2015-2-4T6:19:52Z</time></trkpt>
<trkpt lat="46.476201927289367" lon="6.803591977804899"><ele></ele><time>2015-2-4T6:19:55Z</time></trkpt>
<trkpt lat="46.476501999422908" lon="6.801934959366918"><ele></ele><time>2015-2-4T6:19:58Z</time></trkpt>
<trkpt lat="46.476648934185505" lon="6.801052931696177"><ele></ele><time>2015-2-4T6:20:1Z</time></trkpt>
<trkpt lat="46.476760916411877" lon="6.800268972292543"><ele></ele><time>2015-2-4T6:20:4Z</time></trkpt>
<trkpt lat="46.476778937503695" lon="6.799524994567037"><ele></ele><time>2015-2-4T6:20:7Z</time></trkpt>
<trkpt lat="46.476774998009205" lon="6.798531990498304"><ele></ele><time>2015-2-4T6:20:10Z</time></trkpt>
<trkpt lat="46.477052941918373" lon="6.797404959797859"><ele></ele><time>2015-2-4T6:20:13Z</time></trkpt>
<trkpt lat="46.477385954931378" lon="6.796713955700398"><ele></ele><time>2015-2-4T6:20:16Z</time></trkpt>
<trkpt lat="46.47766892798245" lon="6.796172987669706"><ele></ele><time>2015-2-4T6:20:19Z</time></trkpt>
<trkpt lat="46.478163963183761" lon="6.795227928087115"><ele></ele><time>2015-2-4T6:20:22Z</time></trkpt>
<trkpt lat="46.478542992845178" lon="6.794503983110189"><ele></ele><time>2015-2-4T6:20:25Z</time></trkpt>
<trkpt lat="46.478865947574377" lon="6.793829994276166"><ele></ele><time>2015-2-4T6:20:28Z</time></trkpt>
<trkpt lat="46.479081949219108" lon="6.792632974684238"><ele></ele><time>2015-2-4T6:20:31Z</time></trkpt>
<trkpt lat="46.479461984708905" lon="6.791566964238882"><ele></ele><time>2015-2-4T6:20:34Z</time></trkpt>
<trkpt lat="46.480176961049438" lon="6.790285957977176"><ele></ele><time>2015-2-4T6:20:37Z</time></trkpt>
<trkpt lat="46.480502933263779" lon="6.789582967758179"><ele></ele><time>2015-2-4T6:20:40Z</time></trkpt>
<trkpt lat="46.480769980698824" lon="6.788725918158889"><ele></ele><time>2015-2-4T6:20:43Z</time></trkpt>
<trkpt lat="46.480873916298151" lon="6.788037931546569"><ele></ele><time>2015-2-4T6:20:46Z</time></trkpt>
<trkpt lat="46.480847932398319" lon="6.787318931892514"><ele></ele><time>2015-2-4T6:20:49Z</time></trkpt>
<trkpt lat="46.480753971263766" lon="6.786192990839481"><ele></ele><time>2015-2-4T6:20:52Z</time></trkpt>
<trkpt lat="46.480648946017027" lon="6.784832943230867"><ele></ele><time>2015-2-4T6:20:55Z</time></trkpt>
<trkpt lat="46.480756988748908" lon="6.783995926380158"><ele></ele><time>2015-2-4T6:20:58Z</time></trkpt>
<trkpt lat="46.481242971494794" lon="6.783040976151824"><ele></ele><time>2015-2-4T6:21:1Z</time></trkpt>
<trkpt lat="46.481517981737852" lon="6.782272942364216"><ele></ele><time>2015-2-4T6:21:4Z</time></trkpt>
<trkpt lat="46.481531979516149" lon="6.781499963253737"><ele></ele><time>2015-2-4T6:21:7Z</time></trkpt>
<trkpt lat="46.481788968667388" lon="6.780689936131239"><ele></ele><time>2015-2-4T6:21:10Z</time></trkpt>
<trkpt lat="46.482086945325136" lon="6.780031956732273"><ele></ele><time>2015-2-4T6:21:13Z</time></trkpt>
<trkpt lat="46.482109995558858" lon="6.778916995972395"><ele></ele><time>2015-2-4T6:21:16Z</time></trkpt>
<trkpt lat="46.481828950345516" lon="6.778343925252557"><ele></ele><time>2015-2-4T6:21:19Z</time></trkpt>
<trkpt lat="46.48160096257925" lon="6.777504980564117"><ele></ele><time>2015-2-4T6:21:22Z</time></trkpt>
<trkpt lat="46.48190095089376" lon="6.776616917923093"><ele></ele><time>2015-2-4T6:21:25Z</time></trkpt>
<trkpt lat="46.48226598277688" lon="6.776186926290393"><ele></ele><time>2015-2-4T6:21:28Z</time></trkpt>
<trkpt lat="46.482137991115451" lon="6.775305988267064"><ele></ele><time>2015-2-4T6:21:31Z</time></trkpt>
<trkpt lat="46.48177295923233" lon="6.774698970839381"><ele></ele><time>2015-2-4T6:21:34Z</time></trkpt>
<trkpt lat="46.481323940679431" lon="6.77390294149518"><ele></ele><time>2015-2-4T6:21:37Z</time></trkpt>
<trkpt lat="46.480870982632041" lon="6.773622985929251"><ele></ele><time>2015-2-4T6:21:40Z</time></trkpt>
<trkpt lat="46.480370918288827" lon="6.77381694316864"><ele></ele><time>2015-2-4T6:21:43Z</time></trkpt>
<trkpt lat="46.480091968551278" lon="6.773266922682524"><ele></ele><time>2015-2-4T6:21:46Z</time></trkpt>
<trkpt lat="46.480229934677482" lon="6.772037968039513"><ele></ele><time>2015-2-4T6:21:49Z</time></trkpt>
<trkpt lat="46.480300929397345" lon="6.771237999200821"><ele></ele><time>2015-2-4T6:21:52Z</time></trkpt>
<trkpt lat="46.480402937158942" lon="6.77048597484827"><ele></ele><time>2015-2-4T6:21:55Z</time></trkpt>
<trkpt lat="46.48048298433423" lon="6.769055938348174"><ele></ele><time>2015-2-4T6:21:58Z</time></trkpt>
<trkpt lat="46.48048197850585" lon="6.768074920400977"><ele></ele><time>2015-2-4T6:22:1Z</time></trkpt>
<trkpt lat="46.480318950489163" lon="6.767276963219047"><ele></ele><time>2015-2-4T6:22:4Z</time></trkpt>
<trkpt lat="46.480577951297164" lon="6.766302986070514"><ele></ele><time>2015-2-4T6:22:7Z</time></trkpt>
<trkpt lat="46.480839969590306" lon="6.76571398973465"><ele></ele><time>2015-2-4T6:22:10Z</time></trkpt>
<trkpt lat="46.481323940679431" lon="6.764487968757749"><ele></ele><time>2015-2-4T6:22:13Z</time></trkpt>
<trkpt lat="46.481627952307463" lon="6.763720940798521"><ele></ele><time>2015-2-4T6:22:16Z</time></trkpt>
<trkpt lat="46.482487935572863" lon="6.761979935690761"><ele></ele><time>2015-2-4T6:22:19Z</time></trkpt>
<trkpt lat="46.482990933582187" lon="6.761170998215675"><ele></ele><time>2015-2-4T6:22:22Z</time></trkpt>
<trkpt lat="46.483508935198188" lon="6.760357953608036"><ele></ele><time>2015-2-4T6:22:25Z</time></trkpt>
<trkpt lat="46.483955942094326" lon="6.759712966158986"><ele></ele><time>2015-2-4T6:22:28Z</time></trkpt>
<trkpt lat="46.484730932861567" lon="6.758804954588413"><ele></ele><time>2015-2-4T6:22:31Z</time></trkpt>
<trkpt lat="46.485140975564718" lon="6.758136916905642"><ele></ele><time>2015-2-4T6:22:34Z</time></trkpt>
<trkpt lat="46.485994923859835" lon="6.756802937015891"><ele></ele><time>2015-2-4T6:22:37Z</time></trkpt>
<trkpt lat="46.486746948212385" lon="6.755511956289411"><ele></ele><time>2015-2-4T6:22:40Z</time></trkpt>
<trkpt lat="46.48720795288682" lon="6.754895970225334"><ele></ele><time>2015-2-4T6:22:43Z</time></trkpt>
<trkpt lat="46.487814970314503" lon="6.75413397140801"><ele></ele><time>2015-2-4T6:22:46Z</time></trkpt>
<trkpt lat="46.488267928361893" lon="6.753262924030423"><ele></ele><time>2015-2-4T6:22:49Z</time></trkpt>
<trkpt lat="46.488740919157863" lon="6.752427918836474"><ele></ele><time>2015-2-4T6:22:52Z</time></trkpt>
<trkpt lat="46.48918298073113" lon="6.752026928588748"><ele></ele><time>2015-2-4T6:22:55Z</time></trkpt>
<trkpt lat="46.489461930468678" lon="6.751281945034862"><ele></ele><time>2015-2-4T6:22:58Z</time></trkpt>
<trkpt lat="46.489663934335113" lon="6.750486921519041"><ele></ele><time>2015-2-4T6:23:1Z</time></trkpt>
<trkpt lat="46.490005999803543" lon="6.750050978735089"><ele></ele><time>2015-2-4T6:23:4Z</time></trkpt>
<trkpt lat="46.490242956206203" lon="6.749278921633959"><ele></ele><time>2015-2-4T6:23:7Z</time></trkpt>
<trkpt lat="46.490523917600513" lon="6.748702917248011"><ele></ele><time>2015-2-4T6:23:10Z</time></trkpt>
<trkpt lat="46.491222968325019" lon="6.748244930058718"><ele></ele><time>2015-2-4T6:23:13Z</time></trkpt>
<trkpt lat="46.491709956899285" lon="6.747380923479796"><ele></ele><time>2015-2-4T6:23:16Z</time></trkpt>
<trkpt lat="46.491822944954038" lon="6.746724955737591"><ele></ele><time>2015-2-4T6:23:19Z</time></trkpt>
<trkpt lat="46.491948924958706" lon="6.74596999771893"><ele></ele><time>2015-2-4T6:23:22Z</time></trkpt>
<trkpt lat="46.492383945733309" lon="6.745246974751353"><ele></ele><time>2015-2-4T6:23:25Z</time></trkpt>
<trkpt lat="46.492481930181384" lon="6.744499979540706"><ele></ele><time>2015-2-4T6:23:28Z</time></trkpt>
<trkpt lat="46.492326948791742" lon="6.743827918544412"><ele></ele><time>2015-2-4T6:23:31Z</time></trkpt>
<trkpt lat="46.492548985406756" lon="6.743146972730756"><ele></ele><time>2015-2-4T6:23:34Z</time></trkpt>
<trkpt lat="46.492630960419774" lon="6.742497961968184"><ele></ele><time>2015-2-4T6:23:37Z</time></trkpt>
<trkpt lat="46.492610927671194" lon="6.74160797148943"><ele></ele><time>2015-2-4T6:23:40Z</time></trkpt>
<trkpt lat="46.492747971788049" lon="6.740981927141547"><ele></ele><time>2015-2-4T6:23:43Z</time></trkpt>
<trkpt lat="46.49285894818604" lon="6.739898985251784"><ele></ele><time>2015-2-4T6:23:46Z</time></trkpt>
<trkpt lat="46.49281594902277" lon="6.738953925669193"><ele></ele><time>2015-2-4T6:23:49Z</time></trkpt>
<trkpt lat="46.492939917370677" lon="6.738296952098608"><ele></ele><time>2015-2-4T6:23:52Z</time></trkpt>
<trkpt lat="46.49320394732058" lon="6.737579964101315"><ele></ele><time>2015-2-4T6:23:55Z</time></trkpt>
<trkpt lat="46.493377955630422" lon="6.736370958387852"><ele></ele><time>2015-2-4T6:23:58Z</time></trkpt>
<trkpt lat="46.493403939530253" lon="6.735546933487058"><ele></ele><time>2015-2-4T6:24:1Z</time></trkpt>
<trkpt lat="46.493430929258466" lon="6.734764985740185"><ele></ele><time>2015-2-4T6:24:4Z</time></trkpt>
<trkpt lat="46.493699988350272" lon="6.734066940844059"><ele></ele><time>2015-2-4T6:24:7Z</time></trkpt>
<trkpt lat="46.493048965930939" lon="6.733587998896837"><ele></ele><time>2015-2-4T6:24:10Z</time></trkpt>
<trkpt lat="46.492456952109933" lon="6.732982993125916"><ele></ele><time>2015-2-4T6:24:13Z</time></trkpt>
<trkpt lat="46.492005921900272" lon="6.732193920761347"><ele></ele><time>2015-2-4T6:24:16Z</time></trkpt>
<trkpt lat="46.491521950811148" lon="6.7313829716295"><ele></ele><time>2015-2-4T6:24:19Z</time></trkpt>
<trkpt lat="46.491218945011497" lon="6.730354931205511"><ele></ele><time>2015-2-4T6:24:22Z</time></trkpt>
<trkpt lat="46.490230970084667" lon="6.729486985132098"><ele></ele><time>2015-2-4T6:24:25Z</time></trkpt>
<trkpt lat="46.489686984568834" lon="6.728757927194238"><ele></ele><time>2015-2-4T6:24:28Z</time></trkpt>
<trkpt lat="46.489438964053988" lon="6.727260919287801"><ele></ele><time>2015-2-4T6:24:31Z</time></trkpt>
<trkpt lat="46.489190943539143" lon="6.726695979014039"><ele></ele><time>2015-2-4T6:24:34Z</time></trkpt>
<trkpt lat="46.488707978278399" lon="6.726702935993671"><ele></ele><time>2015-2-4T6:24:37Z</time></trkpt>
<trkpt lat="46.488659949973226" lon="6.72605493105948"><ele></ele><time>2015-2-4T6:24:40Z</time></trkpt>
<trkpt lat="46.488487953320146" lon="6.725319921970367"><ele></ele><time>2015-2-4T6:24:43Z</time></trkpt>
<trkpt lat="46.488401954993606" lon="6.72424896620214"><ele></ele><time>2015-2-4T6:24:46Z</time></trkpt>
<trkpt lat="46.488264994695783" lon="6.723514962941408"><ele></ele><time>2015-2-4T6:24:49Z</time></trkpt>
<trkpt lat="46.488224929198623" lon="6.722432943060994"><ele></ele><time>2015-2-4T6:24:52Z</time></trkpt>
<trkpt lat="46.488185953348875" lon="6.721745962277055"><ele></ele><time>2015-2-4T6:24:55Z</time></trkpt>
<trkpt lat="46.488256948068738" lon="6.720921937376261"><ele></ele><time>2015-2-4T6:24:58Z</time></trkpt>
<trkpt lat="46.488532964140177" lon="6.720190951600671"><ele></ele><time>2015-2-4T6:25:1Z</time></trkpt>
<trkpt lat="46.488868994638324" lon="6.719604972749949"><ele></ele><time>2015-2-4T6:25:4Z</time></trkpt>
<trkpt lat="46.489338967949152" lon="6.718780947849155"><ele></ele><time>2015-2-4T6:25:7Z</time></trkpt>
<trkpt lat="46.489754961803555" lon="6.718087932094932"><ele></ele><time>2015-2-4T6:25:10Z</time></trkpt>
<trkpt lat="46.490223929286003" lon="6.717612929642201"><ele></ele><time>2015-2-4T6:25:13Z</time></trkpt>
<trkpt lat="46.490733968093991" lon="6.717068944126368"><ele></ele><time>2015-2-4T6:25:16Z</time></trkpt>
<trkpt lat="46.491121966391802" lon="6.716466955840588"><ele></ele><time>2015-2-4T6:25:19Z</time></trkpt>
<trkpt lat="46.491490937769413" lon="6.715843928977847"><ele></ele><time>2015-2-4T6:25:22Z</time></trkpt>
<trkpt lat="46.491804923862219" lon="6.7150969337672"><ele></ele><time>2015-2-4T6:25:25Z</time></trkpt>
<trkpt lat="46.491981949657202" lon="6.714407941326499"><ele></ele><time>2015-2-4T6:25:28Z</time></trkpt>
<trkpt lat="46.492026960477233" lon="6.713508982211351"><ele></ele><time>2015-2-4T6:25:31Z</time></trkpt>
<trkpt lat="46.492339940741658" lon="6.712656961753964"><ele></ele><time>2015-2-4T6:25:34Z</time></trkpt>
<trkpt lat="46.492913933470845" lon="6.712011974304915"><ele></ele><time>2015-2-4T6:25:37Z</time></trkpt>
<trkpt lat="46.493373932316899" lon="6.711170934140682"><ele></ele><time>2015-2-4T6:25:40Z</time></trkpt>
<trkpt lat="46.493922946974635" lon="6.710632983595133"><ele></ele><time>2015-2-4T6:25:43Z</time></trkpt>
<trkpt lat="46.494414964690804" lon="6.710288990288973"><ele></ele><time>2015-2-4T6:25:46Z</time></trkpt>
<trkpt lat="46.494829952716827" lon="6.709635956212878"><ele></ele><time>2015-2-4T6:25:49Z</time></trkpt>
<trkpt lat="46.495183920487761" lon="6.709030950441957"><ele></ele><time>2015-2-4T6:25:52Z</time></trkpt>
<trkpt lat="46.495568985119462" lon="6.708079939708114"><ele></ele><time>2015-2-4T6:25:55Z</time></trkpt>
<trkpt lat="46.49565196596086" lon="6.70738591812551"><ele></ele><time>2015-2-4T6:25:58Z</time></trkpt>
<trkpt lat="46.495944997295737" lon="6.706859953701496"><ele></ele><time>2015-2-4T6:26:1Z</time></trkpt>
<trkpt lat="46.495957989245653" lon="6.706140954047442"><ele></ele><time>2015-2-4T6:26:4Z</time></trkpt>
<trkpt lat="46.496283961459994" lon="6.705352971330285"><ele></ele><time>2015-2-4T6:26:7Z</time></trkpt>
<trkpt lat="46.496687969192863" lon="6.704584937542677"><ele></ele><time>2015-2-4T6:26:10Z</time></trkpt>
<trkpt lat="46.497060963883996" lon="6.703849928453565"><ele></ele><time>2015-2-4T6:26:13Z</time></trkpt>
<trkpt lat="46.497312923893332" lon="6.703230924904347"><ele></ele><time>2015-2-4T6:26:16Z</time></trkpt>
<trkpt lat="46.497680973261595" lon="6.702277986332774"><ele></ele><time>2015-2-4T6:26:19Z</time></trkpt>
<trkpt lat="46.497963946312666" lon="6.70173391699791"><ele></ele><time>2015-2-4T6:26:22Z</time></trkpt>
<trkpt lat="46.498340964317322" lon="6.701184986159205"><ele></ele><time>2015-2-4T6:26:25Z</time></trkpt>
<trkpt lat="46.498614968731999" lon="6.700640916824341"><ele></ele><time>2015-2-4T6:26:28Z</time></trkpt>
<trkpt lat="46.498807920143008" lon="6.700027948245406"><ele></ele><time>2015-2-4T6:26:31Z</time></trkpt>
<trkpt lat="46.49898293428123" lon="6.699169976636767"><ele></ele><time>2015-2-4T6:26:34Z</time></trkpt>
<trkpt lat="46.499269930645823" lon="6.698341928422451"><ele></ele><time>2015-2-4T6:26:37Z</time></trkpt>
<trkpt lat="46.499638985842466" lon="6.697354959324002"><ele></ele><time>2015-2-4T6:26:40Z</time></trkpt>
<trkpt lat="46.49999194778502" lon="6.696416940540075"><ele></ele><time>2015-2-4T6:26:43Z</time></trkpt>
<trkpt lat="46.500256983563304" lon="6.695622922852635"><ele></ele><time>2015-2-4T6:26:46Z</time></trkpt>
<trkpt lat="46.500439960509539" lon="6.694711977615953"><ele></ele><time>2015-2-4T6:26:49Z</time></trkpt>
<trkpt lat="46.500575998798013" lon="6.693788962438703"><ele></ele><time>2015-2-4T6:26:52Z</time></trkpt>
<trkpt lat="46.500621931627393" lon="6.692902995273471"><ele></ele><time>2015-2-4T6:26:55Z</time></trkpt>
<trkpt lat="46.500706924125552" lon="6.6917859390378"><ele></ele><time>2015-2-4T6:26:58Z</time></trkpt>
<trkpt lat="46.500892918556929" lon="6.690981946885586"><ele></ele><time>2015-2-4T6:27:1Z</time></trkpt>
<trkpt lat="46.501335985958576" lon="6.690005958080292"><ele></ele><time>2015-2-4T6:27:4Z</time></trkpt>
<trkpt lat="46.501659946516156" lon="6.689478987827897"><ele></ele><time>2015-2-4T6:27:7Z</time></trkpt>
<trkpt lat="46.50203394703567" lon="6.68873593211174"><ele></ele><time>2015-2-4T6:27:10Z</time></trkpt>
<trkpt lat="46.502241985872388" lon="6.687750974670053"><ele></ele><time>2015-2-4T6:27:13Z</time></trkpt>
<trkpt lat="46.502149952575564" lon="6.686749923974276"><ele></ele><time>2015-2-4T6:27:16Z</time></trkpt>
<trkpt lat="46.502245925366879" lon="6.68592095375061"><ele></ele><time>2015-2-4T6:27:19Z</time></trkpt>
<trkpt lat="46.502364948391914" lon="6.685259956866503"><ele></ele><time>2015-2-4T6:27:22Z</time></trkpt>
<trkpt lat="46.502579944208264" lon="6.684674983844161"><ele></ele><time>2015-2-4T6:27:25Z</time></trkpt>
<trkpt lat="46.502789994701743" lon="6.684019938111305"><ele></ele><time>2015-2-4T6:27:28Z</time></trkpt>
<trkpt lat="46.503051929175854" lon="6.683304961770773"><ele></ele><time>2015-2-4T6:27:31Z</time></trkpt>
<trkpt lat="46.503548976033926" lon="6.682209949940443"><ele></ele><time>2015-2-4T6:27:34Z</time></trkpt>
<trkpt lat="46.50390294380486" lon="6.681303950026631"><ele></ele><time>2015-2-4T6:27:37Z</time></trkpt>
<trkpt lat="46.503957929089665" lon="6.679863939061761"><ele></ele><time>2015-2-4T6:27:40Z</time></trkpt>
<trkpt lat="46.504063960164785" lon="6.678760964423418"><ele></ele><time>2015-2-4T6:27:43Z</time></trkpt>
<trkpt lat="46.504259929060936" lon="6.677551958709955"><ele></ele><time>2015-2-4T6:27:46Z</time></trkpt>
<trkpt lat="46.504406947642565" lon="6.67676598764956"><ele></ele><time>2015-2-4T6:27:49Z</time></trkpt>
<trkpt lat="46.504570981487632" lon="6.675979932770133"><ele></ele><time>2015-2-4T6:27:52Z</time></trkpt>
<trkpt lat="46.504772985354066" lon="6.675274930894375"><ele></ele><time>2015-2-4T6:27:55Z</time></trkpt>
<trkpt lat="46.504904916509986" lon="6.674592979252338"><ele></ele><time>2015-2-4T6:27:58Z</time></trkpt>
<trkpt lat="46.504991920664907" lon="6.673822933807969"><ele></ele><time>2015-2-4T6:28:1Z</time></trkpt>
<trkpt lat="46.505114967003465" lon="6.672805957496166"><ele></ele><time>2015-2-4T6:28:4Z</time></trkpt>
<trkpt lat="46.505274977535009" lon="6.672134986147285"><ele></ele><time>2015-2-4T6:28:7Z</time></trkpt>
<trkpt lat="46.505650989711285" lon="6.671249940991402"><ele></ele><time>2015-2-4T6:28:10Z</time></trkpt>
<trkpt lat="46.506088944151998" lon="6.670349976047874"><ele></ele><time>2015-2-4T6:28:13Z</time></trkpt>
<trkpt lat="46.506285918876529" lon="6.669605998322368"><ele></ele><time>2015-2-4T6:28:16Z</time></trkpt>
<trkpt lat="46.506361942738295" lon="6.668955981731415"><ele></ele><time>2015-2-4T6:28:19Z</time></trkpt>
<trkpt lat="46.506509967148304" lon="6.668140925467014"><ele></ele><time>2015-2-4T6:28:22Z</time></trkpt>
<trkpt lat="46.506841974332929" lon="6.667116992175579"><ele></ele><time>2015-2-4T6:28:25Z</time></trkpt>
<trkpt lat="46.507075997069478" lon="6.666419953107834"><ele></ele><time>2015-2-4T6:28:28Z</time></trkpt>
<trkpt lat="46.507272971794009" lon="6.664955969899893"><ele></ele><time>2015-2-4T6:28:31Z</time></trkpt>
<trkpt lat="46.507085971534252" lon="6.663508918136358"><ele></ele><time>2015-2-4T6:28:34Z</time></trkpt>
<trkpt lat="46.50693099014461" lon="6.662686988711357"><ele></ele><time>2015-2-4T6:28:37Z</time></trkpt>
<trkpt lat="46.506748935207725" lon="6.661671940237284"><ele></ele><time>2015-2-4T6:28:40Z</time></trkpt>
<trkpt lat="46.506727980449796" lon="6.660754960030317"><ele></ele><time>2015-2-4T6:28:43Z</time></trkpt>
<trkpt lat="46.506783971562982" lon="6.660101925954223"><ele></ele><time>2015-2-4T6:28:46Z</time></trkpt>
<trkpt lat="46.506871981546283" lon="6.658934997394681"><ele></ele><time>2015-2-4T6:28:49Z</time></trkpt>
<trkpt lat="46.506815990433097" lon="6.658251956105232"><ele></ele><time>2015-2-4T6:28:52Z</time></trkpt>
<trkpt lat="46.50673896074295" lon="6.657507978379726"><ele></ele><time>2015-2-4T6:28:55Z</time></trkpt>
<trkpt lat="46.506643993780017" lon="6.656263936311007"><ele></ele><time>2015-2-4T6:28:58Z</time></trkpt>
<trkpt lat="46.506507955491543" lon="6.654676990583539"><ele></ele><time>2015-2-4T6:29:1Z</time></trkpt>
<trkpt lat="46.506455987691879" lon="6.65388397872448"><ele></ele><time>2015-2-4T6:29:4Z</time></trkpt>
<trkpt lat="46.50645799934864" lon="6.652442961931229"><ele></ele><time>2015-2-4T6:29:7Z</time></trkpt>
<trkpt lat="46.50646093301475" lon="6.651390949264169"><ele></ele><time>2015-2-4T6:29:10Z</time></trkpt>
<trkpt lat="46.506474930793047" lon="6.650531971827149"><ele></ele><time>2015-2-4T6:29:13Z</time></trkpt>
<trkpt lat="46.506494963541627" lon="6.649388931691647"><ele></ele><time>2015-2-4T6:29:16Z</time></trkpt>
<trkpt lat="46.506509967148304" lon="6.648445967584848"><ele></ele><time>2015-2-4T6:29:19Z</time></trkpt>
<trkpt lat="46.506521953269839" lon="6.647563939914107"><ele></ele><time>2015-2-4T6:29:22Z</time></trkpt>
<trkpt lat="46.506536956876516" lon="6.646696999669075"><ele></ele><time>2015-2-4T6:29:25Z</time></trkpt>
<trkpt lat="46.506541986018419" lon="6.645696954801679"><ele></ele><time>2015-2-4T6:29:28Z</time></trkpt>
<trkpt lat="46.506580961868167" lon="6.645008968189359"><ele></ele><time>2015-2-4T6:29:31Z</time></trkpt>
<trkpt lat="46.506572999060154" lon="6.644121995195746"><ele></ele><time>2015-2-4T6:29:34Z</time></trkpt>
<trkpt lat="46.506570987403393" lon="6.643440965563059"><ele></ele><time>2015-2-4T6:29:37Z</time></trkpt>
<trkpt lat="46.506587918847799" lon="6.642680978402495"><ele></ele><time>2015-2-4T6:29:40Z</time></trkpt>
<trkpt lat="46.505937986075878" lon="6.642135987058282"><ele></ele><time>2015-2-4T6:29:43Z</time></trkpt>
<trkpt lat="46.505401963368058" lon="6.641703983768821"><ele></ele><time>2015-2-4T6:29:46Z</time></trkpt>
<trkpt lat="46.505307918414474" lon="6.640937961637974"><ele></ele><time>2015-2-4T6:29:49Z</time></trkpt>
<trkpt lat="46.505622994154692" lon="6.639721998944879"><ele></ele><time>2015-2-4T6:29:52Z</time></trkpt>
<trkpt lat="46.505902949720621" lon="6.638688929378986"><ele></ele><time>2015-2-4T6:29:55Z</time></trkpt>
<trkpt lat="46.506160944700241" lon="6.637711934745312"><ele></ele><time>2015-2-4T6:29:58Z</time></trkpt>
<trkpt lat="46.506428997963667" lon="6.636724965646863"><ele></ele><time>2015-2-4T6:30:1Z</time></trkpt>
<trkpt lat="46.506677940487862" lon="6.635758951306343"><ele></ele><time>2015-2-4T6:30:4Z</time></trkpt>
<trkpt lat="46.506917998194695" lon="6.634796960279346"><ele></ele><time>2015-2-4T6:30:7Z</time></trkpt>
<trkpt lat="46.507206922397017" lon="6.63375592790544"><ele></ele><time>2015-2-4T6:30:10Z</time></trkpt>
<trkpt lat="46.507368944585323" lon="6.63300096988678"><ele></ele><time>2015-2-4T6:30:13Z</time></trkpt>
<trkpt lat="46.507405992597342" lon="6.632330920547247"><ele></ele><time>2015-2-4T6:30:16Z</time></trkpt>
<trkpt lat="46.507194936275482" lon="6.631003981456161"><ele></ele><time>2015-2-4T6:30:19Z</time></trkpt>
<trkpt lat="46.507008941844106" lon="6.630284981802106"><ele></ele><time>2015-2-4T6:30:22Z</time></trkpt>
<trkpt lat="46.506966948509216" lon="6.629357943311334"><ele></ele><time>2015-2-4T6:30:25Z</time></trkpt>
<trkpt lat="46.507024951279163" lon="6.62848899140954"><ele></ele><time>2015-2-4T6:30:28Z</time></trkpt>
<trkpt lat="46.507100975140929" lon="6.627636970952153"><ele></ele><time>2015-2-4T6:30:31Z</time></trkpt>
<trkpt lat="46.506979940459132" lon="6.626694928854704"><ele></ele><time>2015-2-4T6:30:34Z</time></trkpt>
<trkpt lat="46.507174987345934" lon="6.626057988032699"><ele></ele><time>2015-2-4T6:30:37Z</time></trkpt>
<trkpt lat="46.50753297843039" lon="6.625243937596679"><ele></ele><time>2015-2-4T6:30:40Z</time></trkpt>
<trkpt lat="46.507990965619683" lon="6.624351935461164"><ele></ele><time>2015-2-4T6:30:43Z</time></trkpt>
<trkpt lat="46.50828299112618" lon="6.623686999082565"><ele></ele><time>2015-2-4T6:30:46Z</time></trkpt>
<trkpt lat="46.508550960570574" lon="6.622835984453559"><ele></ele><time>2015-2-4T6:30:49Z</time></trkpt>
<trkpt lat="46.508868969976902" lon="6.621834933757782"><ele></ele><time>2015-2-4T6:30:52Z</time></trkpt>
<trkpt lat="46.509200977161527" lon="6.621108977124095"><ele></ele><time>2015-2-4T6:30:55Z</time></trkpt>
<trkpt lat="46.509662987664342" lon="6.620385954156518"><ele></ele><time>2015-2-4T6:30:58Z</time></trkpt>
<trkpt lat="46.510137990117073" lon="6.619640970602632"><ele></ele><time>2015-2-4T6:31:1Z</time></trkpt>
<trkpt lat="46.5105199534446" lon="6.619057925418019"><ele></ele><time>2015-2-4T6:31:4Z</time></trkpt>
<trkpt lat="46.511114984750748" lon="6.618154942989349"><ele></ele><time>2015-2-4T6:31:7Z</time></trkpt>
<trkpt lat="46.511599961668253" lon="6.617415994405747"><ele></ele><time>2015-2-4T6:31:10Z</time></trkpt>
<trkpt lat="46.511926939710975" lon="6.616910984739661"><ele></ele><time>2015-2-4T6:31:13Z</time></trkpt>
<trkpt lat="46.512307981029153" lon="6.616209922358394"><ele></ele><time>2015-2-4T6:31:16Z</time></trkpt>
<trkpt lat="46.512734955176711" lon="6.615069983527064"><ele></ele><time>2015-2-4T6:31:19Z</time></trkpt>
<trkpt lat="46.51290594600141" lon="6.614439999684691"><ele></ele><time>2015-2-4T6:31:22Z</time></trkpt>
<trkpt lat="46.513083977624774" lon="6.613755952566862"><ele></ele><time>2015-2-4T6:31:25Z</time></trkpt>
<trkpt lat="46.513283969834447" lon="6.613128986209631"><ele></ele><time>2015-2-4T6:31:28Z</time></trkpt>
<trkpt lat="46.513766935095191" lon="6.612276965752244"><ele></ele><time>2015-2-4T6:31:31Z</time></trkpt>
<trkpt lat="46.514182928949594" lon="6.61162493750453"><ele></ele><time>2015-2-4T6:31:34Z</time></trkpt>
<trkpt lat="46.514567993581295" lon="6.611074917018414"><ele></ele><time>2015-2-4T6:31:37Z</time></trkpt>
<trkpt lat="46.515003936365247" lon="6.610252987593412"><ele></ele><time>2015-2-4T6:31:40Z</time></trkpt>
<trkpt lat="46.51537693105638" lon="6.608973992988467"><ele></ele><time>2015-2-4T6:31:43Z</time></trkpt>
<trkpt lat="46.51554892770946" lon="6.608134964480996"><ele></ele><time>2015-2-4T6:31:46Z</time></trkpt>
<trkpt lat="46.515226978808641" lon="6.607741937041283"><ele></ele><time>2015-2-4T6:31:49Z</time></trkpt>
<trkpt lat="46.514695985242724" lon="6.607312951236963"><ele></ele><time>2015-2-4T6:31:52Z</time></trkpt>
<trkpt lat="46.514482917264104" lon="6.606497978791595"><ele></ele><time>2015-2-4T6:31:55Z</time></trkpt>
<trkpt lat="46.514640999957919" lon="6.605365918949246"><ele></ele><time>2015-2-4T6:31:58Z</time></trkpt>
<trkpt lat="46.515030926093459" lon="6.604543989524245"><ele></ele><time>2015-2-4T6:32:1Z</time></trkpt>
<trkpt lat="46.515350947156549" lon="6.603941917419434"><ele></ele><time>2015-2-4T6:32:4Z</time></trkpt>
<trkpt lat="46.515492936596274" lon="6.603100961074233"><ele></ele><time>2015-2-4T6:32:7Z</time></trkpt>
<trkpt lat="46.51548195630312" lon="6.602388918399811"><ele></ele><time>2015-2-4T6:32:10Z</time></trkpt>
<trkpt lat="46.516006998717785" lon="6.602456979453564"><ele></ele><time>2015-2-4T6:32:13Z</time></trkpt>
<trkpt lat="46.516610998660326" lon="6.602519927546382"><ele></ele><time>2015-2-4T6:32:16Z</time></trkpt>
<trkpt lat="46.51711399666965" lon="6.60174292512238"><ele></ele><time>2015-2-4T6:32:19Z</time></trkpt>
<trkpt lat="46.51737492531538" lon="6.600673981010914"><ele></ele><time>2015-2-4T6:32:22Z</time></trkpt>
<trkpt lat="46.517544994130731" lon="6.599421976134181"><ele></ele><time>2015-2-4T6:32:25Z</time></trkpt>
<trkpt lat="46.517742974683642" lon="6.598553946241736"><ele></ele><time>2015-2-4T6:32:28Z</time></trkpt>
<trkpt lat="46.51808294467628" lon="6.59772296436131"><ele></ele><time>2015-2-4T6:32:31Z</time></trkpt>
<trkpt lat="46.518395924940705" lon="6.597145954146981"><ele></ele><time>2015-2-4T6:32:34Z</time></trkpt>
<trkpt lat="46.51872499845922" lon="6.596495937556028"><ele></ele><time>2015-2-4T6:32:37Z</time></trkpt>
<trkpt lat="46.519052982330322" lon="6.595739973708987"><ele></ele><time>2015-2-4T6:32:40Z</time></trkpt>
<trkpt lat="46.519024986773729" lon="6.595047963783145"><ele></ele><time>2015-2-4T6:32:43Z</time></trkpt>
<trkpt lat="46.51864193379879" lon="6.594417979940772"><ele></ele><time>2015-2-4T6:32:46Z</time></trkpt>
<trkpt lat="46.518969917669892" lon="6.593479961156845"><ele></ele><time>2015-2-4T6:32:49Z</time></trkpt>
<trkpt lat="46.519228918477893" lon="6.59288895316422"><ele></ele><time>2015-2-4T6:32:52Z</time></trkpt>
<trkpt lat="46.519487919285893" lon="6.592210941016674"><ele></ele><time>2015-2-4T6:32:55Z</time></trkpt>
<trkpt lat="46.519728982821107" lon="6.591398986056447"><ele></ele><time>2015-2-4T6:32:58Z</time></trkpt>
<trkpt lat="46.5200159791857" lon="6.590341944247484"><ele></ele><time>2015-2-4T6:33:1Z</time></trkpt>
<trkpt lat="46.52029593475163" lon="6.58923695795238"><ele></ele><time>2015-2-4T6:33:4Z</time></trkpt>
<trkpt lat="46.520612938329577" lon="6.588070951402187"><ele></ele><time>2015-2-4T6:33:7Z</time></trkpt>
<trkpt lat="46.520739924162626" lon="6.587439961731434"><ele></ele><time>2015-2-4T6:33:10Z</time></trkpt>
<trkpt lat="46.520926924422383" lon="6.586673939600587"><ele></ele><time>2015-2-4T6:33:13Z</time></trkpt>
<trkpt lat="46.521084923297167" lon="6.58599098213017"><ele></ele><time>2015-2-4T6:33:16Z</time></trkpt>
<trkpt lat="46.520993979647756" lon="6.584824975579977"><ele></ele><time>2015-2-4T6:33:19Z</time></trkpt>
<trkpt lat="46.520755933597684" lon="6.583936996757984"><ele></ele><time>2015-2-4T6:33:22Z</time></trkpt>
<trkpt lat="46.520536998286843" lon="6.582961929962039"><ele></ele><time>2015-2-4T6:33:25Z</time></trkpt>
<trkpt lat="46.520398948341608" lon="6.582308979704976"><ele></ele><time>2015-2-4T6:33:28Z</time></trkpt>
<trkpt lat="46.520196944475174" lon="6.581214973703027"><ele></ele><time>2015-2-4T6:33:31Z</time></trkpt>
<trkpt lat="46.519991923123598" lon="6.580056929960847"><ele></ele><time>2015-2-4T6:33:34Z</time></trkpt>
<trkpt lat="46.519879940897226" lon="6.579423928633332"><ele></ele><time>2015-2-4T6:33:37Z</time></trkpt>
<trkpt lat="46.519668968394399" lon="6.578201930969954"><ele></ele><time>2015-2-4T6:33:40Z</time></trkpt>
<trkpt lat="46.519384989514947" lon="6.576972976326942"><ele></ele><time>2015-2-4T6:33:43Z</time></trkpt>
<trkpt lat="46.519203940406442" lon="6.576285995543003"><ele></ele><time>2015-2-4T6:33:46Z</time></trkpt>
<trkpt lat="46.519004954025149" lon="6.575590968132019"><ele></ele><time>2015-2-4T6:33:49Z</time></trkpt>
<trkpt lat="46.518624918535352" lon="6.574264951050282"><ele></ele><time>2015-2-4T6:33:52Z</time></trkpt>
<trkpt lat="46.518414951860905" lon="6.573585933074355"><ele></ele><time>2015-2-4T6:33:55Z</time></trkpt>
<trkpt lat="46.518221916630864" lon="6.572990985587239"><ele></ele><time>2015-2-4T6:33:58Z</time></trkpt>
<trkpt lat="46.517942966893315" lon="6.57224097289145"><ele></ele><time>2015-2-4T6:34:1Z</time></trkpt>
<trkpt lat="46.517617916688323" lon="6.571024926379323"><ele></ele><time>2015-2-4T6:34:4Z</time></trkpt>
<trkpt lat="46.517449943348765" lon="6.570334928110242"><ele></ele><time>2015-2-4T6:34:7Z</time></trkpt>
<trkpt lat="46.517538959160447" lon="6.56974894925952"><ele></ele><time>2015-2-4T6:34:10Z</time></trkpt>
<trkpt lat="46.517426976934075" lon="6.568589983507991"><ele></ele><time>2015-2-4T6:34:13Z</time></trkpt>
<trkpt lat="46.517262943089008" lon="6.567182997241616"><ele></ele><time>2015-2-4T6:34:16Z</time></trkpt>
<trkpt lat="46.517151966691017" lon="6.566309938207269"><ele></ele><time>2015-2-4T6:34:19Z</time></trkpt>
<trkpt lat="46.517111985012889" lon="6.565413996577263"><ele></ele><time>2015-2-4T6:34:22Z</time></trkpt>
<trkpt lat="46.516823982819915" lon="6.564217982813716"><ele></ele><time>2015-2-4T6:34:25Z</time></trkpt>
<trkpt lat="46.516571938991547" lon="6.563439974561334"><ele></ele><time>2015-2-4T6:34:28Z</time></trkpt>
<trkpt lat="46.516348980367184" lon="6.562801944091916"><ele></ele><time>2015-2-4T6:34:31Z</time></trkpt>
<trkpt lat="46.51601797901094" lon="6.562088979408145"><ele></ele><time>2015-2-4T6:34:34Z</time></trkpt>
<trkpt lat="46.515701981261373" lon="6.561408955603838"><ele></ele><time>2015-2-4T6:34:37Z</time></trkpt>
<trkpt lat="46.515120947733521" lon="6.560200955718756"><ele></ele><time>2015-2-4T6:34:40Z</time></trkpt>
<trkpt lat="46.514866976067424" lon="6.559597961604595"><ele></ele><time>2015-2-4T6:34:43Z</time></trkpt>
<trkpt lat="46.51464493945241" lon="6.55902698636055"><ele></ele><time>2015-2-4T6:34:46Z</time></trkpt>
<trkpt lat="46.514389961957932" lon="6.558368923142552"><ele></ele><time>2015-2-4T6:34:49Z</time></trkpt>
<trkpt lat="46.514014955610037" lon="6.55735194683075"><ele></ele><time>2015-2-4T6:34:52Z</time></trkpt>
<trkpt lat="46.5138079226017" lon="6.556138917803764"><ele></ele><time>2015-2-4T6:34:55Z</time></trkpt>
<trkpt lat="46.51382795535028" lon="6.554993949830532"><ele></ele><time>2015-2-4T6:34:58Z</time></trkpt>
<trkpt lat="46.513855950906873" lon="6.554222982376814"><ele></ele><time>2015-2-4T6:35:1Z</time></trkpt>
<trkpt lat="46.513882940635085" lon="6.553231989964843"><ele></ele><time>2015-2-4T6:35:4Z</time></trkpt>
<trkpt lat="46.513881934806705" lon="6.552167991176248"><ele></ele><time>2015-2-4T6:35:7Z</time></trkpt>
<trkpt lat="46.513874977827072" lon="6.550931995734572"><ele></ele><time>2015-2-4T6:35:10Z</time></trkpt>
<trkpt lat="46.513854945078492" lon="6.549939997494221"><ele></ele><time>2015-2-4T6:35:13Z</time></trkpt>
<trkpt lat="46.513782944530249" lon="6.549089988693595"><ele></ele><time>2015-2-4T6:35:16Z</time></trkpt>
<trkpt lat="46.513654952868819" lon="6.548024984076619"><ele></ele><time>2015-2-4T6:35:19Z</time></trkpt>
<trkpt lat="46.513555962592363" lon="6.547175981104374"><ele></ele><time>2015-2-4T6:35:22Z</time></trkpt>
<trkpt lat="46.513481950387359" lon="6.546399984508753"><ele></ele><time>2015-2-4T6:35:25Z</time></trkpt>
<trkpt lat="46.513386983424425" lon="6.545435981824994"><ele></ele><time>2015-2-4T6:35:28Z</time></trkpt>
<trkpt lat="46.51331196539104" lon="6.544737936928868"><ele></ele><time>2015-2-4T6:35:31Z</time></trkpt>
<trkpt lat="46.513293944299221" lon="6.544043999165297"><ele></ele><time>2015-2-4T6:35:34Z</time></trkpt>
<trkpt lat="46.51335597038269" lon="6.543266996741295"><ele></ele><time>2015-2-4T6:35:37Z</time></trkpt>
<trkpt lat="46.513537941500545" lon="6.542474990710616"><ele></ele><time>2015-2-4T6:35:40Z</time></trkpt>
<trkpt lat="46.513731982558966" lon="6.541868979111314"><ele></ele><time>2015-2-4T6:35:43Z</time></trkpt>
<trkpt lat="46.51414898224175" lon="6.540649998933077"><ele></ele><time>2015-2-4T6:35:46Z</time></trkpt>
<trkpt lat="46.51434394530952" lon="6.53990694321692"><ele></ele><time>2015-2-4T6:35:49Z</time></trkpt>
<trkpt lat="46.514599928632379" lon="6.538999937474728"><ele></ele><time>2015-2-4T6:35:52Z</time></trkpt>
<trkpt lat="46.51481794193387" lon="6.53822997584939"><ele></ele><time>2015-2-4T6:35:55Z</time></trkpt>
<trkpt lat="46.51507493108511" lon="6.537269996479154"><ele></ele><time>2015-2-4T6:35:58Z</time></trkpt>
<trkpt lat="46.515393946319818" lon="6.536131985485554"><ele></ele><time>2015-2-4T6:36:1Z</time></trkpt>
<trkpt lat="46.515645990148187" lon="6.535361940041184"><ele></ele><time>2015-2-4T6:36:4Z</time></trkpt>
<trkpt lat="46.515772975981236" lon="6.534479996189475"><ele></ele><time>2015-2-4T6:36:7Z</time></trkpt>
<trkpt lat="46.515958970412612" lon="6.533606937155128"><ele></ele><time>2015-2-4T6:36:10Z</time></trkpt>
<trkpt lat="46.516162985935807" lon="6.532726921141148"><ele></ele><time>2015-2-4T6:36:13Z</time></trkpt>
<trkpt lat="46.516378987580538" lon="6.531758978962898"><ele></ele><time>2015-2-4T6:36:16Z</time></trkpt>
<trkpt lat="46.516568921506405" lon="6.530805956572294"><ele></ele><time>2015-2-4T6:36:19Z</time></trkpt>
<trkpt lat="46.516737984493375" lon="6.529849916696549"><ele></ele><time>2015-2-4T6:36:22Z</time></trkpt>
<trkpt lat="46.516954991966486" lon="6.528702937066555"><ele></ele><time>2015-2-4T6:36:25Z</time></trkpt>
<trkpt lat="46.517137968912721" lon="6.527741951867938"><ele></ele><time>2015-2-4T6:36:28Z</time></trkpt>
<trkpt lat="46.517318934202194" lon="6.526819942519069"><ele></ele><time>2015-2-4T6:36:31Z</time></trkpt>
<trkpt lat="46.517473999410868" lon="6.525980997830629"><ele></ele><time>2015-2-4T6:36:34Z</time></trkpt>
<trkpt lat="46.517651947215199" lon="6.525179939344525"><ele></ele><time>2015-2-4T6:36:37Z</time></trkpt>
<trkpt lat="46.51771598495543" lon="6.524053998291493"><ele></ele><time>2015-2-4T6:36:40Z</time></trkpt>
<trkpt lat="46.5177589841187" lon="6.523095946758986"><ele></ele><time>2015-2-4T6:36:43Z</time></trkpt>
<trkpt lat="46.517807934433222" lon="6.521989954635501"><ele></ele><time>2015-2-4T6:36:46Z</time></trkpt>
<trkpt lat="46.517836935818195" lon="6.521333986893296"><ele></ele><time>2015-2-4T6:36:49Z</time></trkpt>
<trkpt lat="46.517896950244904" lon="6.519939992576838"><ele></ele><time>2015-2-4T6:36:52Z</time></trkpt>
<trkpt lat="46.517945984378457" lon="6.518705924972892"><ele></ele><time>2015-2-4T6:36:55Z</time></trkpt>
<trkpt lat="46.517885969951749" lon="6.517845941707492"><ele></ele><time>2015-2-4T6:36:58Z</time></trkpt>
<trkpt lat="46.517711961641908" lon="6.516354968771339"><ele></ele><time>2015-2-4T6:37:1Z</time></trkpt>
<trkpt lat="46.517595956102014" lon="6.515342937782407"><ele></ele><time>2015-2-4T6:37:4Z</time></trkpt>
<trkpt lat="46.517451955005527" lon="6.514049945399165"><ele></ele><time>2015-2-4T6:37:7Z</time></trkpt>
<trkpt lat="46.517344918102026" lon="6.51313497684896"><ele></ele><time>2015-2-4T6:37:10Z</time></trkpt>
<trkpt lat="46.517218938097358" lon="6.512155970558524"><ele></ele><time>2015-2-4T6:37:13Z</time></trkpt>
<trkpt lat="46.51713696308434" lon="6.511511988937855"><ele></ele><time>2015-2-4T6:37:16Z</time></trkpt>
<trkpt lat="46.517037972807884" lon="6.510680923238397"><ele></ele><time>2015-2-4T6:37:19Z</time></trkpt>
<trkpt lat="46.516929930076003" lon="6.50976293720305"><ele></ele><time>2015-2-4T6:37:22Z</time></trkpt>
<trkpt lat="46.516848960891366" lon="6.508671948686242"><ele></ele><time>2015-2-4T6:37:25Z</time></trkpt>
<trkpt lat="46.516639916226268" lon="6.507347943261266"><ele></ele><time>2015-2-4T6:37:28Z</time></trkpt>
<trkpt lat="46.516456939280033" lon="6.506676971912384"><ele></ele><time>2015-2-4T6:37:31Z</time></trkpt>
<trkpt lat="46.516135996207595" lon="6.505791926756501"><ele></ele><time>2015-2-4T6:37:34Z</time></trkpt>
<trkpt lat="46.51584992185235" lon="6.505019953474402"><ele></ele><time>2015-2-4T6:37:37Z</time></trkpt>
<trkpt lat="46.515599973499775" lon="6.504398938268423"><ele></ele><time>2015-2-4T6:37:40Z</time></trkpt>
<trkpt lat="46.515291938558221" lon="6.50383098050952"><ele></ele><time>2015-2-4T6:37:43Z</time></trkpt>
<trkpt lat="46.514758933335543" lon="6.503184987232089"><ele></ele><time>2015-2-4T6:37:46Z</time></trkpt>
<trkpt lat="46.514310920611024" lon="6.502636978402734"><ele></ele><time>2015-2-4T6:37:49Z</time></trkpt>
<trkpt lat="46.513733994215727" lon="6.50196298956871"><ele></ele><time>2015-2-4T6:37:52Z</time></trkpt>
<trkpt lat="46.513093952089548" lon="6.501229992136359"><ele></ele><time>2015-2-4T6:37:55Z</time></trkpt>
<trkpt lat="46.512675946578383" lon="6.500762952491641"><ele></ele><time>2015-2-4T6:37:58Z</time></trkpt>
<trkpt lat="46.512019978836179" lon="6.500108996406198"><ele></ele><time>2015-2-4T6:38:1Z</time></trkpt>
<trkpt lat="46.511563919484615" lon="6.499932976439595"><ele></ele><time>2015-2-4T6:38:4Z</time></trkpt>
<trkpt lat="46.511017922312021" lon="6.49979492649436"><ele></ele><time>2015-2-4T6:38:7Z</time></trkpt>
<trkpt lat="46.510555995628238" lon="6.499936999753118"><ele></ele><time>2015-2-4T6:38:10Z</time></trkpt>
<trkpt lat="46.510374946519732" lon="6.500558936968446"><ele></ele><time>2015-2-4T6:38:13Z</time></trkpt>
<trkpt lat="46.510144947096705" lon="6.501225968822837"><ele></ele><time>2015-2-4T6:38:16Z</time></trkpt>
<trkpt lat="46.509644966572523" lon="6.501122955232859"><ele></ele><time>2015-2-4T6:38:19Z</time></trkpt>
<trkpt lat="46.509130988270044" lon="6.500793965533376"><ele></ele><time>2015-2-4T6:38:22Z</time></trkpt>
<trkpt lat="46.508601922541857" lon="6.50030798278749"><ele></ele><time>2015-2-4T6:38:25Z</time></trkpt>
<trkpt lat="46.508375946432352" lon="6.499952925369144"><ele></ele><time>2015-2-4T6:38:28Z</time></trkpt>
<trkpt lat="46.508181989192963" lon="6.499693924561143"><ele></ele><time>2015-2-4T6:38:31Z</time></trkpt>
<trkpt lat="46.507824920117855" lon="6.499130995944142"><ele></ele><time>2015-2-4T6:38:34Z</time></trkpt>
<trkpt lat="46.507435999810696" lon="6.498397998511791"><ele></ele><time>2015-2-4T6:38:37Z</time></trkpt>
<trkpt lat="46.507091922685504" lon="6.49783599190414"><ele></ele><time>2015-2-4T6:38:40Z</time></trkpt>
<trkpt lat="46.506606945767999" lon="6.497294940054417"><ele></ele><time>2015-2-4T6:38:43Z</time></trkpt>
<trkpt lat="46.506118951365352" lon="6.496773920953274"><ele></ele><time>2015-2-4T6:38:46Z</time></trkpt>
<trkpt lat="46.505734976381063" lon="6.496387934312224"><ele></ele><time>2015-2-4T6:38:49Z</time></trkpt>
<trkpt lat="46.505389977246523" lon="6.495821988210082"><ele></ele><time>2015-2-4T6:38:52Z</time></trkpt>
<trkpt lat="46.505041960626841" lon="6.495166942477226"><ele></ele><time>2015-2-4T6:38:55Z</time></trkpt>
<trkpt lat="46.504904916509986" lon="6.494556991383433"><ele></ele><time>2015-2-4T6:38:58Z</time></trkpt>
<trkpt lat="46.504760999232531" lon="6.493712933734059"><ele></ele><time>2015-2-4T6:39:1Z</time></trkpt>
<trkpt lat="46.504589924588799" lon="6.492815986275673"><ele></ele><time>2015-2-4T6:39:4Z</time></trkpt>
<trkpt lat="46.504489928483963" lon="6.492002941668034"><ele></ele><time>2015-2-4T6:39:7Z</time></trkpt>
<trkpt lat="46.504462938755751" lon="6.491208923980594"><ele></ele><time>2015-2-4T6:39:10Z</time></trkpt>
<trkpt lat="46.504979934543371" lon="6.491105994209647"><ele></ele><time>2015-2-4T6:39:13Z</time></trkpt>
<trkpt lat="46.505124941468239" lon="6.490523954853416"><ele></ele><time>2015-2-4T6:39:16Z</time></trkpt>
<trkpt lat="46.504879938438535" lon="6.489605968818069"><ele></ele><time>2015-2-4T6:39:19Z</time></trkpt>
<trkpt lat="46.504661925137043" lon="6.489024935290217"><ele></ele><time>2015-2-4T6:39:22Z</time></trkpt>
<trkpt lat="46.504539968445897" lon="6.488404925912619"><ele></ele><time>2015-2-4T6:39:25Z</time></trkpt>
<trkpt lat="46.503998916596174" lon="6.487917937338352"><ele></ele><time>2015-2-4T6:39:28Z</time></trkpt>
<trkpt lat="46.5035589504987" lon="6.487639993429184"><ele></ele><time>2015-2-4T6:39:31Z</time></trkpt>
<trkpt lat="46.503049917519093" lon="6.487155938521028"><ele></ele><time>2015-2-4T6:39:34Z</time></trkpt>
<trkpt lat="46.50258899666369" lon="6.486825942993164"><ele></ele><time>2015-2-4T6:39:37Z</time></trkpt>
<trkpt lat="46.501912996172905" lon="6.486255973577499"><ele></ele><time>2015-2-4T6:39:40Z</time></trkpt>
<trkpt lat="46.501897992566228" lon="6.485651973634958"><ele></ele><time>2015-2-4T6:39:43Z</time></trkpt>
<trkpt lat="46.501295920461416" lon="6.485073957592249"><ele></ele><time>2015-2-4T6:39:46Z</time></trkpt>
<trkpt lat="46.500517996028066" lon="6.484307935461402"><ele></ele><time>2015-2-4T6:39:49Z</time></trkpt>
<trkpt lat="46.500102924183011" lon="6.483944999054074"><ele></ele><time>2015-2-4T6:39:52Z</time></trkpt>
<trkpt lat="46.499639991670847" lon="6.483522970229387"><ele></ele><time>2015-2-4T6:39:55Z</time></trkpt>
<trkpt lat="46.499093994498253" lon="6.483006980270147"><ele></ele><time>2015-2-4T6:39:58Z</time></trkpt>
<trkpt lat="46.498559983447194" lon="6.482505993917584"><ele></ele><time>2015-2-4T6:40:1Z</time></trkpt>
<trkpt lat="46.49809998460114" lon="6.48209192790091"><ele></ele><time>2015-2-4T6:40:4Z</time></trkpt>
<trkpt lat="46.497675944119692" lon="6.481807949021459"><ele></ele><time>2015-2-4T6:40:7Z</time></trkpt>
<trkpt lat="46.496829958632588" lon="6.48159597069025"><ele></ele><time>2015-2-4T6:40:10Z</time></trkpt>
<trkpt lat="46.496090926229954" lon="6.48103597573936"><ele></ele><time>2015-2-4T6:40:13Z</time></trkpt>
<trkpt lat="46.495773922652006" lon="6.480541946366429"><ele></ele><time>2015-2-4T6:40:16Z</time></trkpt>
<trkpt lat="46.495491955429316" lon="6.479925960302353"><ele></ele><time>2015-2-4T6:40:19Z</time></trkpt>
<trkpt lat="46.495223985984921" lon="6.479217940941453"><ele></ele><time>2015-2-4T6:40:22Z</time></trkpt>
<trkpt lat="46.494961967691779" lon="6.478469939902425"><ele></ele><time>2015-2-4T6:40:25Z</time></trkpt>
<trkpt lat="46.494594924151897" lon="6.477411976084113"><ele></ele><time>2015-2-4T6:40:28Z</time></trkpt>
<trkpt lat="46.494177924469113" lon="6.476214956492186"><ele></ele><time>2015-2-4T6:40:31Z</time></trkpt>
<trkpt lat="46.493802918121219" lon="6.475133942440152"><ele></ele><time>2015-2-4T6:40:34Z</time></trkpt>
<trkpt lat="46.493497984483838" lon="6.474239928647876"><ele></ele><time>2015-2-4T6:40:37Z</time></trkpt>
<trkpt lat="46.493122978135943" lon="6.473168972879648"><ele></ele><time>2015-2-4T6:40:40Z</time></trkpt>
<trkpt lat="46.492882920429111" lon="6.472476962953806"><ele></ele><time>2015-2-4T6:40:43Z</time></trkpt>
<trkpt lat="46.492633977904916" lon="6.471752934157848"><ele></ele><time>2015-2-4T6:40:46Z</time></trkpt>
<trkpt lat="46.492286967113614" lon="6.470778957009316"><ele></ele><time>2015-2-4T6:40:49Z</time></trkpt>
<trkpt lat="46.492075994610786" lon="6.470177974551916"><ele></ele><time>2015-2-4T6:40:52Z</time></trkpt>
<trkpt lat="46.491596968844533" lon="6.468959916383028"><ele></ele><time>2015-2-4T6:40:55Z</time></trkpt>
<trkpt lat="46.491281976923347" lon="6.468296991661191"><ele></ele><time>2015-2-4T6:40:58Z</time></trkpt>
<trkpt lat="46.490673953667283" lon="6.467227963730693"><ele></ele><time>2015-2-4T6:41:1Z</time></trkpt>
<trkpt lat="46.490270951762795" lon="6.466609966009855"><ele></ele><time>2015-2-4T6:41:4Z</time></trkpt>
<trkpt lat="46.48974297568202" lon="6.465841932222247"><ele></ele><time>2015-2-4T6:41:7Z</time></trkpt>
<trkpt lat="46.489274930208921" lon="6.465153945609927"><ele></ele><time>2015-2-4T6:41:10Z</time></trkpt>
<trkpt lat="46.488874945789576" lon="6.46455698646605"><ele></ele><time>2015-2-4T6:41:13Z</time></trkpt>
<trkpt lat="46.48851896636188" lon="6.464028926566243"><ele></ele><time>2015-2-4T6:41:16Z</time></trkpt>
<trkpt lat="46.488155946135521" lon="6.463487958535552"><ele></ele><time>2015-2-4T6:41:19Z</time></trkpt>
<trkpt lat="46.487492937594652" lon="6.46245195530355"><ele></ele><time>2015-2-4T6:41:22Z</time></trkpt>
<trkpt lat="46.487076943740249" lon="6.461831945925951"><ele></ele><time>2015-2-4T6:41:25Z</time></trkpt>
<trkpt lat="46.486653992906213" lon="6.461326936259866"><ele></ele><time>2015-2-4T6:41:28Z</time></trkpt>
<trkpt lat="46.486211931332946" lon="6.460973974317312"><ele></ele><time>2015-2-4T6:41:31Z</time></trkpt>
<trkpt lat="46.485817981883883" lon="6.460634926334024"><ele></ele><time>2015-2-4T6:41:34Z</time></trkpt>
<trkpt lat="46.485201995819807" lon="6.460137963294983"><ele></ele><time>2015-2-4T6:41:37Z</time></trkpt>
<trkpt lat="46.484675947576761" lon="6.459712916985154"><ele></ele><time>2015-2-4T6:41:40Z</time></trkpt>
<trkpt lat="46.484191976487637" lon="6.45931595005095"><ele></ele><time>2015-2-4T6:41:43Z</time></trkpt>
<trkpt lat="46.483719991520047" lon="6.458929963409901"><ele></ele><time>2015-2-4T6:41:46Z</time></trkpt>
<trkpt lat="46.483208946883678" lon="6.458430988714099"><ele></ele><time>2015-2-4T6:41:49Z</time></trkpt>
<trkpt lat="46.482675941661" lon="6.458081966266036"><ele></ele><time>2015-2-4T6:41:52Z</time></trkpt>
<trkpt lat="46.481983931735158" lon="6.457502944394946"><ele></ele><time>2015-2-4T6:41:55Z</time></trkpt>
<trkpt lat="46.481601968407631" lon="6.457142941653729"><ele></ele><time>2015-2-4T6:41:58Z</time></trkpt>
<trkpt lat="46.480973996222019" lon="6.456448920071125"><ele></ele><time>2015-2-4T6:42:1Z</time></trkpt>
<trkpt lat="46.480563953518867" lon="6.45533999428153"><ele></ele><time>2015-2-4T6:42:4Z</time></trkpt>
<trkpt lat="46.480250973254442" lon="6.454261997714639"><ele></ele><time>2015-2-4T6:42:7Z</time></trkpt>
<trkpt lat="46.480005970224738" lon="6.453432943671942"><ele></ele><time>2015-2-4T6:42:10Z</time></trkpt>
<trkpt lat="46.479781921952963" lon="6.452693995088339"><ele></ele><time>2015-2-4T6:42:13Z</time></trkpt>
<trkpt lat="46.479572961106896" lon="6.451991926878691"><ele></ele><time>2015-2-4T6:42:16Z</time></trkpt>
<trkpt lat="46.479329969733953" lon="6.451160944998264"><ele></ele><time>2015-2-4T6:42:19Z</time></trkpt>
<trkpt lat="46.47908597253263" lon="6.4502939209342"><ele></ele><time>2015-2-4T6:42:22Z</time></trkpt>
<trkpt lat="46.478791935369372" lon="6.449301922693849"><ele></ele><time>2015-2-4T6:42:25Z</time></trkpt>
<trkpt lat="46.478579957038164" lon="6.44852994941175"><ele></ele><time>2015-2-4T6:42:28Z</time></trkpt>
<trkpt lat="46.478343922644854" lon="6.447693938389421"><ele></ele><time>2015-2-4T6:42:31Z</time></trkpt>
<trkpt lat="46.478075953200459" lon="6.446779975667596"><ele></ele><time>2015-2-4T6:42:34Z</time></trkpt>
<trkpt lat="46.47779599763453" lon="6.445783954113722"><ele></ele><time>2015-2-4T6:42:37Z</time></trkpt>
<trkpt lat="46.477481927722692" lon="6.444698916748166"><ele></ele><time>2015-2-4T6:42:40Z</time></trkpt>
<trkpt lat="46.477192919701338" lon="6.443761987611651"><ele></ele><time>2015-2-4T6:42:43Z</time></trkpt>
<trkpt lat="46.476962920278311" lon="6.44300895743072"><ele></ele><time>2015-2-4T6:42:46Z</time></trkpt>
<trkpt lat="46.476761922240257" lon="6.442346954718232"><ele></ele><time>2015-2-4T6:42:49Z</time></trkpt>
<trkpt lat="46.476525971665978" lon="6.441559977829456"><ele></ele><time>2015-2-4T6:42:52Z</time></trkpt>
<trkpt lat="46.47627392783761" lon="6.440718937665224"><ele></ele><time>2015-2-4T6:42:55Z</time></trkpt>
<trkpt lat="46.476056920364499" lon="6.439986946061254"><ele></ele><time>2015-2-4T6:42:58Z</time></trkpt>
<trkpt lat="46.475763972848654" lon="6.439000982791185"><ele></ele><time>2015-2-4T6:43:1Z</time></trkpt>
<trkpt lat="46.475445963442326" lon="6.437930949032307"><ele></ele><time>2015-2-4T6:43:4Z</time></trkpt>
<trkpt lat="46.475179921835661" lon="6.437024949118495"><ele></ele><time>2015-2-4T6:43:7Z</time></trkpt>
<trkpt lat="46.474974984303117" lon="6.436332939192653"><ele></ele><time>2015-2-4T6:43:10Z</time></trkpt>
<trkpt lat="46.474707936868072" lon="6.435331972315908"><ele></ele><time>2015-2-4T6:43:13Z</time></trkpt>
<trkpt lat="46.474603917449713" lon="6.434601992368698"><ele></ele><time>2015-2-4T6:43:16Z</time></trkpt>
<trkpt lat="46.474557984620333" lon="6.433497928082943"><ele></ele><time>2015-2-4T6:43:19Z</time></trkpt>
<trkpt lat="46.47453292272985" lon="6.432305937632918"><ele></ele><time>2015-2-4T6:43:22Z</time></trkpt>
<trkpt lat="46.474517919123173" lon="6.43151493743062"><ele></ele><time>2015-2-4T6:43:25Z</time></trkpt>
<trkpt lat="46.474505933001637" lon="6.43056895583868"><ele></ele><time>2015-2-4T6:43:28Z</time></trkpt>
<trkpt lat="46.474481960758567" lon="6.429519960656762"><ele></ele><time>2015-2-4T6:43:31Z</time></trkpt>
<trkpt lat="46.474456982687116" lon="6.428415980190039"><ele></ele><time>2015-2-4T6:43:34Z</time></trkpt>
<trkpt lat="46.474427981302142" lon="6.427484918385744"><ele></ele><time>2015-2-4T6:43:37Z</time></trkpt>
<trkpt lat="46.474448936060071" lon="6.426695929840207"><ele></ele><time>2015-2-4T6:43:40Z</time></trkpt>
<trkpt lat="46.474410966038704" lon="6.425527995452285"><ele></ele><time>2015-2-4T6:43:43Z</time></trkpt>
<trkpt lat="46.47438196465373" lon="6.424457961693406"><ele></ele><time>2015-2-4T6:43:46Z</time></trkpt>
<trkpt lat="46.474362937733531" lon="6.423681965097785"><ele></ele><time>2015-2-4T6:43:49Z</time></trkpt>
<trkpt lat="46.474334942176938" lon="6.422565998509526"><ele></ele><time>2015-2-4T6:43:52Z</time></trkpt>
<trkpt lat="46.474308958277106" lon="6.421446930617094"><ele></ele><time>2015-2-4T6:43:55Z</time></trkpt>
<trkpt lat="46.474276939406991" lon="6.420414950698614"><ele></ele><time>2015-2-4T6:43:58Z</time></trkpt>
<trkpt lat="46.474258918315172" lon="6.419725958257914"><ele></ele><time>2015-2-4T6:44:1Z</time></trkpt>
<trkpt lat="46.474264953285456" lon="6.41898499801755"><ele></ele><time>2015-2-4T6:44:4Z</time></trkpt>
<trkpt lat="46.47422899492085" lon="6.418261975049973"><ele></ele><time>2015-2-4T6:44:7Z</time></trkpt>
<trkpt lat="46.47420896217227" lon="6.417454965412617"><ele></ele><time>2015-2-4T6:44:10Z</time></trkpt>
<trkpt lat="46.47418599575758" lon="6.416619960218668"><ele></ele><time>2015-2-4T6:44:13Z</time></trkpt>
<trkpt lat="46.474167974665761" lon="6.41565696336329"><ele></ele><time>2015-2-4T6:44:16Z</time></trkpt>
<trkpt lat="46.474149953573942" lon="6.414874931797385"><ele></ele><time>2015-2-4T6:44:19Z</time></trkpt>
<trkpt lat="46.474127992987633" lon="6.413992987945676"><ele></ele><time>2015-2-4T6:44:22Z</time></trkpt>
<trkpt lat="46.474091950803995" lon="6.413326961919665"><ele></ele><time>2015-2-4T6:44:25Z</time></trkpt>
<trkpt lat="46.474065966904163" lon="6.412310991436243"><ele></ele><time>2015-2-4T6:44:28Z</time></trkpt>
<trkpt lat="46.474048951640725" lon="6.411567935720086"><ele></ele><time>2015-2-4T6:44:31Z</time></trkpt>
<trkpt lat="46.474018944427371" lon="6.410667970776558"><ele></ele><time>2015-2-4T6:44:34Z</time></trkpt>
<trkpt lat="46.473988937214017" lon="6.409775968641043"><ele></ele><time>2015-2-4T6:44:37Z</time></trkpt>
<trkpt lat="46.473954990506172" lon="6.408860916271806"><ele></ele><time>2015-2-4T6:44:40Z</time></trkpt>
<trkpt lat="46.473894976079464" lon="6.408117944374681"><ele></ele><time>2015-2-4T6:44:43Z</time></trkpt>
<trkpt lat="46.473707975819707" lon="6.407377989962697"><ele></ele><time>2015-2-4T6:44:46Z</time></trkpt>
<trkpt lat="46.473396923393011" lon="6.406710958108306"><ele></ele><time>2015-2-4T6:44:49Z</time></trkpt>
<trkpt lat="46.473036920651793" lon="6.405890956521034"><ele></ele><time>2015-2-4T6:44:52Z</time></trkpt>
<trkpt lat="46.47253199480474" lon="6.404878925532103"><ele></ele><time>2015-2-4T6:44:55Z</time></trkpt>
<trkpt lat="46.472039977088571" lon="6.404133941978216"><ele></ele><time>2015-2-4T6:44:58Z</time></trkpt>
<trkpt lat="46.471450980752707" lon="6.403437992557883"><ele></ele><time>2015-2-4T6:45:1Z</time></trkpt>
<trkpt lat="46.47085695527494" lon="6.402891995385289"><ele></ele><time>2015-2-4T6:45:4Z</time></trkpt>
<trkpt lat="46.470387987792492" lon="6.40246594324708"><ele></ele><time>2015-2-4T6:45:7Z</time></trkpt>
<trkpt lat="46.469929916784167" lon="6.401976943016052"><ele></ele><time>2015-2-4T6:45:10Z</time></trkpt>
<trkpt lat="46.469571925699711" lon="6.401517949998379"><ele></ele><time>2015-2-4T6:45:13Z</time></trkpt>
<trkpt lat="46.469260957092047" lon="6.401006989181042"><ele></ele><time>2015-2-4T6:45:16Z</time></trkpt>
<trkpt lat="46.46911695599556" lon="6.400204924866557"><ele></ele><time>2015-2-4T6:45:19Z</time></trkpt>
<trkpt lat="46.469345949590206" lon="6.399311916902661"><ele></ele><time>2015-2-4T6:45:22Z</time></trkpt>
<trkpt lat="46.469622971490026" lon="6.398418992757797"><ele></ele><time>2015-2-4T6:45:25Z</time></trkpt>
<trkpt lat="46.469828998669982" lon="6.397345941513777"><ele></ele><time>2015-2-4T6:45:28Z</time></trkpt>
<trkpt lat="46.469713998958468" lon="6.396333994343877"><ele></ele><time>2015-2-4T6:45:31Z</time></trkpt>
<trkpt lat="46.469516940414906" lon="6.395544921979308"><ele></ele><time>2015-2-4T6:45:34Z</time></trkpt>
<trkpt lat="46.469368999823928" lon="6.394845955073834"><ele></ele><time>2015-2-4T6:45:37Z</time></trkpt>
<trkpt lat="46.469115950167179" lon="6.393590932711959"><ele></ele><time>2015-2-4T6:45:40Z</time></trkpt>
<trkpt lat="46.468851920217276" lon="6.392261981964111"><ele></ele><time>2015-2-4T6:45:43Z</time></trkpt>
<trkpt lat="46.468584956601262" lon="6.390907969325781"><ele></ele><time>2015-2-4T6:45:46Z</time></trkpt>
<trkpt lat="46.468238951638341" lon="6.38914399780333"><ele></ele><time>2015-2-4T6:45:49Z</time></trkpt>
<trkpt lat="46.467900993302464" lon="6.387418918311596"><ele></ele><time>2015-2-4T6:45:52Z</time></trkpt>
<trkpt lat="46.467685997486115" lon="6.386319966986775"><ele></ele><time>2015-2-4T6:45:55Z</time></trkpt>
<trkpt lat="46.467444933950901" lon="6.385091934353113"><ele></ele><time>2015-2-4T6:45:58Z</time></trkpt>
<trkpt lat="46.467193979769945" lon="6.383820986375213"><ele></ele><time>2015-2-4T6:46:1Z</time></trkpt>
<trkpt lat="46.466938918456435" lon="6.382550960406661"><ele></ele><time>2015-2-4T6:46:4Z</time></trkpt>
<trkpt lat="46.466750996187329" lon="6.381624927744269"><ele></ele><time>2015-2-4T6:46:7Z</time></trkpt>
<trkpt lat="46.466552931815386" lon="6.380578950047493"><ele></ele><time>2015-2-4T6:46:10Z</time></trkpt>
<trkpt lat="46.466409936547279" lon="6.37962693348527"><ele></ele><time>2015-2-4T6:46:13Z</time></trkpt>
<trkpt lat="46.466288985684514" lon="6.378439972177148"><ele></ele><time>2015-2-4T6:46:16Z</time></trkpt>
<trkpt lat="46.466205921024084" lon="6.377611923962832"><ele></ele><time>2015-2-4T6:46:19Z</time></trkpt>
<trkpt lat="46.466103997081518" lon="6.376608945429325"><ele></ele><time>2015-2-4T6:46:22Z</time></trkpt>
<trkpt lat="46.465990925207734" lon="6.375502953305841"><ele></ele><time>2015-2-4T6:46:25Z</time></trkpt>
<trkpt lat="46.465889923274517" lon="6.374437948688865"><ele></ele><time>2015-2-4T6:46:28Z</time></trkpt>
<trkpt lat="46.465778946876526" lon="6.37335391715169"><ele></ele><time>2015-2-4T6:46:31Z</time></trkpt>
<trkpt lat="46.465655984356999" lon="6.372391926124692"><ele></ele><time>2015-2-4T6:46:34Z</time></trkpt>
<trkpt lat="46.465443922206759" lon="6.371322982013226"><ele></ele><time>2015-2-4T6:46:37Z</time></trkpt>
<trkpt lat="46.465241918340325" lon="6.370299970731139"><ele></ele><time>2015-2-4T6:46:40Z</time></trkpt>
<trkpt lat="46.465092971920967" lon="6.369512993842363"><ele></ele><time>2015-2-4T6:46:43Z</time></trkpt>
<trkpt lat="46.464917957782745" lon="6.368599953129888"><ele></ele><time>2015-2-4T6:46:46Z</time></trkpt>
<trkpt lat="46.464762976393104" lon="6.367777939885855"><ele></ele><time>2015-2-4T6:46:49Z</time></trkpt>
<trkpt lat="46.464549992233515" lon="6.366667924448848"><ele></ele><time>2015-2-4T6:46:52Z</time></trkpt>
<trkpt lat="46.464310940355062" lon="6.365482974797487"><ele></ele><time>2015-2-4T6:46:55Z</time></trkpt>
<trkpt lat="46.464159982278943" lon="6.364579992368817"><ele></ele><time>2015-2-4T6:46:58Z</time></trkpt>
<trkpt lat="46.464031990617514" lon="6.363719925284386"><ele></ele><time>2015-2-4T6:47:1Z</time></trkpt>
<trkpt lat="46.463936939835548" lon="6.362704960629344"><ele></ele><time>2015-2-4T6:47:4Z</time></trkpt>
<trkpt lat="46.46385295316577" lon="6.361495954915881"><ele></ele><time>2015-2-4T6:47:7Z</time></trkpt>
<trkpt lat="46.463778940960765" lon="6.360493982210755"><ele></ele><time>2015-2-4T6:47:10Z</time></trkpt>
<trkpt lat="46.463690930977464" lon="6.35930391959846"><ele></ele><time>2015-2-4T6:47:13Z</time></trkpt>
<trkpt lat="46.463606944307685" lon="6.358182923868299"><ele></ele><time>2015-2-4T6:47:16Z</time></trkpt>
<trkpt lat="46.463514994829893" lon="6.356952963396907"><ele></ele><time>2015-2-4T6:47:19Z</time></trkpt>
<trkpt lat="46.463419944047928" lon="6.355700958520174"><ele></ele><time>2015-2-4T6:47:22Z</time></trkpt>
<trkpt lat="46.463311985135078" lon="6.354253990575671"><ele></ele><time>2015-2-4T6:47:25Z</time></trkpt>
<trkpt lat="46.463240990415215" lon="6.353299962356687"><ele></ele><time>2015-2-4T6:47:28Z</time></trkpt>
<trkpt lat="46.463168989866972" lon="6.352273933589459"><ele></ele><time>2015-2-4T6:47:31Z</time></trkpt>
<trkpt lat="46.46310294046998" lon="6.351188980042934"><ele></ele><time>2015-2-4T6:47:34Z</time></trkpt>
<trkpt lat="46.463038986548781" lon="6.350357998162508"><ele></ele><time>2015-2-4T6:47:37Z</time></trkpt>
<trkpt lat="46.462966986000538" lon="6.349377986043692"><ele></ele><time>2015-2-4T6:47:40Z</time></trkpt>
<trkpt lat="46.462911916896701" lon="6.348618920892477"><ele></ele><time>2015-2-4T6:47:43Z</time></trkpt>
<trkpt lat="46.462834971025586" lon="6.347665982320905"><ele></ele><time>2015-2-4T6:47:46Z</time></trkpt>
<trkpt lat="46.462744949385524" lon="6.346759982407093"><ele></ele><time>2015-2-4T6:47:49Z</time></trkpt>
<trkpt lat="46.462673954665661" lon="6.345875943079591"><ele></ele><time>2015-2-4T6:47:52Z</time></trkpt>
<trkpt lat="46.462604971602559" lon="6.34501495398581"><ele></ele><time>2015-2-4T6:47:55Z</time></trkpt>
<trkpt lat="46.46252391859889" lon="6.34417693130672"><ele></ele><time>2015-2-4T6:47:58Z</time></trkpt>
<trkpt lat="46.462323926389217" lon="6.343549964949489"><ele></ele><time>2015-2-4T6:48:1Z</time></trkpt>
<trkpt lat="46.461712969467044" lon="6.342787966132164"><ele></ele><time>2015-2-4T6:48:4Z</time></trkpt>
<trkpt lat="46.461071921512485" lon="6.342044994235039"><ele></ele><time>2015-2-4T6:48:7Z</time></trkpt>
<trkpt lat="46.460476974025369" lon="6.341380979865789"><ele></ele><time>2015-2-4T6:48:10Z</time></trkpt>
<trkpt lat="46.459970958530903" lon="6.340721994638443"><ele></ele><time>2015-2-4T6:48:13Z</time></trkpt>
<trkpt lat="46.459395959973335" lon="6.340107936412096"><ele></ele><time>2015-2-4T6:48:16Z</time></trkpt>
<trkpt lat="46.458987928926945" lon="6.339635951444507"><ele></ele><time>2015-2-4T6:48:19Z</time></trkpt>
<trkpt lat="46.458564978092909" lon="6.339231943711639"><ele></ele><time>2015-2-4T6:48:22Z</time></trkpt>
<trkpt lat="46.458031972870231" lon="6.338606989011169"><ele></ele><time>2015-2-4T6:48:25Z</time></trkpt>
<trkpt lat="46.457639951258898" lon="6.33813894353807"><ele></ele><time>2015-2-4T6:48:28Z</time></trkpt>
<trkpt lat="46.457005944103003" lon="6.337386919185519"><ele></ele><time>2015-2-4T6:48:31Z</time></trkpt>
<trkpt lat="46.456592967733741" lon="6.336921975016594"><ele></ele><time>2015-2-4T6:48:34Z</time></trkpt>
<trkpt lat="46.455937922000885" lon="6.336293919011951"><ele></ele><time>2015-2-4T6:48:37Z</time></trkpt>
<trkpt lat="46.455402988940477" lon="6.335917990654707"><ele></ele><time>2015-2-4T6:48:40Z</time></trkpt>
<trkpt lat="46.454867972061038" lon="6.335553964599967"><ele></ele><time>2015-2-4T6:48:43Z</time></trkpt>
<trkpt lat="46.454031961038709" lon="6.33497997187078"><ele></ele><time>2015-2-4T6:48:46Z</time></trkpt>
<trkpt lat="46.45354094915092" lon="6.334642935544252"><ele></ele><time>2015-2-4T6:48:49Z</time></trkpt>
<trkpt lat="46.452792948111892" lon="6.334000965580344"><ele></ele><time>2015-2-4T6:48:52Z</time></trkpt>
<trkpt lat="46.452446943148971" lon="6.333461925387383"><ele></ele><time>2015-2-4T6:48:55Z</time></trkpt>
<trkpt lat="46.451853923499584" lon="6.332429945468903"><ele></ele><time>2015-2-4T6:48:58Z</time></trkpt>
<trkpt lat="46.45149894990027" lon="6.331834997981787"><ele></ele><time>2015-2-4T6:49:1Z</time></trkpt>
<trkpt lat="46.451125955209136" lon="6.331208953633905"><ele></ele><time>2015-2-4T6:49:4Z</time></trkpt>
<trkpt lat="46.450807945802808" lon="6.330671925097704"><ele></ele><time>2015-2-4T6:49:7Z</time></trkpt>
<trkpt lat="46.450431933626533" lon="6.330040935426951"><ele></ele><time>2015-2-4T6:49:10Z</time></trkpt>
<trkpt lat="46.450069919228554" lon="6.329436935484409"><ele></ele><time>2015-2-4T6:49:13Z</time></trkpt>
<trkpt lat="46.449489975348115" lon="6.328426999971271"><ele></ele><time>2015-2-4T6:49:16Z</time></trkpt>
<trkpt lat="46.449115974828601" lon="6.327791986986995"><ele></ele><time>2015-2-4T6:49:19Z</time></trkpt>
<trkpt lat="46.44849194213748" lon="6.326737962663174"><ele></ele><time>2015-2-4T6:49:22Z</time></trkpt>
<trkpt lat="46.448115929961205" lon="6.326108984649181"><ele></ele><time>2015-2-4T6:49:25Z</time></trkpt>
<trkpt lat="46.447800938040018" lon="6.325591988861561"><ele></ele><time>2015-2-4T6:49:28Z</time></trkpt>
<trkpt lat="46.447391984984279" lon="6.324888998642564"><ele></ele><time>2015-2-4T6:49:31Z</time></trkpt>
<trkpt lat="46.447097947821021" lon="6.324377954006195"><ele></ele><time>2015-2-4T6:49:34Z</time></trkpt>
<trkpt lat="46.446584975346923" lon="6.323525933548808"><ele></ele><time>2015-2-4T6:49:37Z</time></trkpt>
<trkpt lat="46.446227990090847" lon="6.322928974404931"><ele></ele><time>2015-2-4T6:49:40Z</time></trkpt>
<trkpt lat="46.445753993466496" lon="6.322130933403969"><ele></ele><time>2015-2-4T6:49:43Z</time></trkpt>
<trkpt lat="46.445445958524942" lon="6.321605974808335"><ele></ele><time>2015-2-4T6:49:46Z</time></trkpt>
<trkpt lat="46.44505494274199" lon="6.32092896848917"><ele></ele><time>2015-2-4T6:49:49Z</time></trkpt>
<trkpt lat="46.444670967757702" lon="6.32026294246316"><ele></ele><time>2015-2-4T6:49:52Z</time></trkpt>
<trkpt lat="46.444219937548041" lon="6.31950999610126"><ele></ele><time>2015-2-4T6:49:55Z</time></trkpt>
<trkpt lat="46.443855995312333" lon="6.318890992552042"><ele></ele><time>2015-2-4T6:49:58Z</time></trkpt>
<trkpt lat="46.443410916253924" lon="6.318243993446231"><ele></ele><time>2015-2-4T6:50:1Z</time></trkpt>
<trkpt lat="46.443024929612875" lon="6.317737977951765"><ele></ele><time>2015-2-4T6:50:4Z</time></trkpt>
<trkpt lat="46.442613964900374" lon="6.317202961072326"><ele></ele><time>2015-2-4T6:50:7Z</time></trkpt>
<trkpt lat="46.44221599213779" lon="6.316676996648312"><ele></ele><time>2015-2-4T6:50:10Z</time></trkpt>
<trkpt lat="46.441845931112766" lon="6.316189924255014"><ele></ele><time>2015-2-4T6:50:13Z</time></trkpt>
<trkpt lat="46.441277973353863" lon="6.315456926822662"><ele></ele><time>2015-2-4T6:50:16Z</time></trkpt>
<trkpt lat="46.440867930650711" lon="6.314908917993307"><ele></ele><time>2015-2-4T6:50:19Z</time></trkpt>
<trkpt lat="46.44043299369514" lon="6.314341966062784"><ele></ele><time>2015-2-4T6:50:22Z</time></trkpt>
<trkpt lat="46.43996293656528" lon="6.31372899748385"><ele></ele><time>2015-2-4T6:50:25Z</time></trkpt>
<trkpt lat="46.439594971016049" lon="6.313250977545977"><ele></ele><time>2015-2-4T6:50:28Z</time></trkpt>
<trkpt lat="46.439141929149628" lon="6.312663992866874"><ele></ele><time>2015-2-4T6:50:31Z</time></trkpt>
<trkpt lat="46.438702968880534" lon="6.312087988480926"><ele></ele><time>2015-2-4T6:50:34Z</time></trkpt>
<trkpt lat="46.437905933707952" lon="6.311048967763782"><ele></ele><time>2015-2-4T6:50:37Z</time></trkpt>
<trkpt lat="46.437558922916651" lon="6.310594920068979"><ele></ele><time>2015-2-4T6:50:40Z</time></trkpt>
<trkpt lat="46.437077969312668" lon="6.309968959540129"><ele></ele><time>2015-2-4T6:50:43Z</time></trkpt>
<trkpt lat="46.436684941872954" lon="6.309462944045663"><ele></ele><time>2015-2-4T6:50:46Z</time></trkpt>
<trkpt lat="46.435983963310719" lon="6.308560967445374"><ele></ele><time>2015-2-4T6:50:49Z</time></trkpt>
<trkpt lat="46.435476941987872" lon="6.307903993874788"><ele></ele><time>2015-2-4T6:50:52Z</time></trkpt>
<trkpt lat="46.434935973957181" lon="6.307199997827411"><ele></ele><time>2015-2-4T6:50:55Z</time></trkpt>
<trkpt lat="46.434382935985923" lon="6.306483931839466"><ele></ele><time>2015-2-4T6:50:58Z</time></trkpt>
<trkpt lat="46.433845991268754" lon="6.305786976590753"><ele></ele><time>2015-2-4T6:51:1Z</time></trkpt>
<trkpt lat="46.433375934138894" lon="6.30517995916307"><ele></ele><time>2015-2-4T6:51:4Z</time></trkpt>
<trkpt lat="46.432755924761295" lon="6.304371943697333"><ele></ele><time>2015-2-4T6:51:7Z</time></trkpt>
<trkpt lat="46.432388965040445" lon="6.30389291793108"><ele></ele><time>2015-2-4T6:51:10Z</time></trkpt>
<trkpt lat="46.432018987834454" lon="6.303412970155478"><ele></ele><time>2015-2-4T6:51:13Z</time></trkpt>
<trkpt lat="46.431401995941997" lon="6.302616940811276"><ele></ele><time>2015-2-4T6:51:16Z</time></trkpt>
<trkpt lat="46.430967980995774" lon="6.302056945860386"><ele></ele><time>2015-2-4T6:51:19Z</time></trkpt>
<trkpt lat="46.430626921355724" lon="6.301609938964248"><ele></ele><time>2015-2-4T6:51:22Z</time></trkpt>
<trkpt lat="46.430261973291636" lon="6.301149940118194"><ele></ele><time>2015-2-4T6:51:25Z</time></trkpt>
<trkpt lat="46.429889984428883" lon="6.300696982070804"><ele></ele><time>2015-2-4T6:51:28Z</time></trkpt>
<trkpt lat="46.429544985294342" lon="6.300238994881511"><ele></ele><time>2015-2-4T6:51:31Z</time></trkpt>
<trkpt lat="46.429055985063314" lon="6.299600964412093"><ele></ele><time>2015-2-4T6:51:34Z</time></trkpt>
<trkpt lat="46.428640997037292" lon="6.299067959189415"><ele></ele><time>2015-2-4T6:51:37Z</time></trkpt>
<trkpt lat="46.428196923807263" lon="6.298483991995454"><ele></ele><time>2015-2-4T6:51:40Z</time></trkpt>
<trkpt lat="46.427803980186582" lon="6.297837998718023"><ele></ele><time>2015-2-4T6:51:43Z</time></trkpt>
<trkpt lat="46.427506925538182" lon="6.29716794937849"><ele></ele><time>2015-2-4T6:51:46Z</time></trkpt>
<trkpt lat="46.427190927788615" lon="6.296387929469347"><ele></ele><time>2015-2-4T6:51:49Z</time></trkpt>
<trkpt lat="46.426959922537208" lon="6.295814942568541"><ele></ele><time>2015-2-4T6:51:52Z</time></trkpt>
<trkpt lat="46.426723971962929" lon="6.295251930132508"><ele></ele><time>2015-2-4T6:51:55Z</time></trkpt>
<trkpt lat="46.426402945071459" lon="6.294490937143564"><ele></ele><time>2015-2-4T6:51:58Z</time></trkpt>
<trkpt lat="46.426066998392344" lon="6.293645957484841"><ele></ele><time>2015-2-4T6:52:1Z</time></trkpt>
<trkpt lat="46.42573993653059" lon="6.292890999466181"><ele></ele><time>2015-2-4T6:52:4Z</time></trkpt>
<trkpt lat="46.425423938781023" lon="6.292250957340002"><ele></ele><time>2015-2-4T6:52:7Z</time></trkpt>
<trkpt lat="46.424955977126956" lon="6.291457945480943"><ele></ele><time>2015-2-4T6:52:10Z</time></trkpt>
<trkpt lat="46.424412997439504" lon="6.290594944730401"><ele></ele><time>2015-2-4T6:52:13Z</time></trkpt>
<trkpt lat="46.423868928104639" lon="6.289737978950143"><ele></ele><time>2015-2-4T6:52:16Z</time></trkpt>
<trkpt lat="46.423293929547071" lon="6.288828961551189"><ele></ele><time>2015-2-4T6:52:19Z</time></trkpt>
<trkpt lat="46.422644918784499" lon="6.287810979411006"><ele></ele><time>2015-2-4T6:52:22Z</time></trkpt>
<trkpt lat="46.422134963795543" lon="6.287063984200358"><ele></ele><time>2015-2-4T6:52:25Z</time></trkpt>
<trkpt lat="46.42174294218421" lon="6.286578923463821"><ele></ele><time>2015-2-4T6:52:28Z</time></trkpt>
<trkpt lat="46.421305993571877" lon="6.286071985960007"><ele></ele><time>2015-2-4T6:52:31Z</time></trkpt>
<trkpt lat="46.420849934220314" lon="6.285545937716961"><ele></ele><time>2015-2-4T6:52:34Z</time></trkpt>
<trkpt lat="46.420370992273092" lon="6.284970939159393"><ele></ele><time>2015-2-4T6:52:37Z</time></trkpt>
<trkpt lat="46.41991694457829" lon="6.284327963367105"><ele></ele><time>2015-2-4T6:52:40Z</time></trkpt>
<trkpt lat="46.419493993744254" lon="6.283905934542418"><ele></ele><time>2015-2-4T6:52:43Z</time></trkpt>
<trkpt lat="46.419071964919567" lon="6.283411988988519"><ele></ele><time>2015-2-4T6:52:46Z</time></trkpt>
<trkpt lat="46.418655971065164" lon="6.282930951565504"><ele></ele><time>2015-2-4T6:52:49Z</time></trkpt>
<trkpt lat="46.41828297637403" lon="6.282492997124791"><ele></ele><time>2015-2-4T6:52:52Z</time></trkpt>
<trkpt lat="46.417861953377724" lon="6.282006930559874"><ele></ele><time>2015-2-4T6:52:55Z</time></trkpt>
<trkpt lat="46.417366918176413" lon="6.281434949487448"><ele></ele><time>2015-2-4T6:52:58Z</time></trkpt>
<trkpt lat="46.41697296872735" lon="6.280975956469774"><ele></ele><time>2015-2-4T6:53:1Z</time></trkpt>
<trkpt lat="46.416461924090981" lon="6.280344966799021"><ele></ele><time>2015-2-4T6:53:4Z</time></trkpt>
<trkpt lat="46.416031932458282" lon="6.279843980446458"><ele></ele><time>2015-2-4T6:53:7Z</time></trkpt>
<trkpt lat="46.415672935545444" lon="6.279436955228448"><ele></ele><time>2015-2-4T6:53:10Z</time></trkpt>
<trkpt lat="46.415071953088045" lon="6.278767995536327"><ele></ele><time>2015-2-4T6:53:13Z</time></trkpt>
<trkpt lat="46.41467297449708" lon="6.278307996690273"><ele></ele><time>2015-2-4T6:53:16Z</time></trkpt>
<trkpt lat="46.414081966504455" lon="6.277607940137386"><ele></ele><time>2015-2-4T6:53:19Z</time></trkpt>
<trkpt lat="46.413590954616666" lon="6.276917941868305"><ele></ele><time>2015-2-4T6:53:22Z</time></trkpt>
<trkpt lat="46.413088962435722" lon="6.276333974674344"><ele></ele><time>2015-2-4T6:53:25Z</time></trkpt>
<trkpt lat="46.412703981623054" lon="6.275934996083379"><ele></ele><time>2015-2-4T6:53:28Z</time></trkpt>
<trkpt lat="46.411876939237118" lon="6.275080963969231"><ele></ele><time>2015-2-4T6:53:31Z</time></trkpt>
<trkpt lat="46.411291966214776" lon="6.274454919621348"><ele></ele><time>2015-2-4T6:53:34Z</time></trkpt>
<trkpt lat="46.410669945180416" lon="6.273692920804024"><ele></ele><time>2015-2-4T6:53:37Z</time></trkpt>
<trkpt lat="46.410109950229526" lon="6.273062936961651"><ele></ele><time>2015-2-4T6:53:40Z</time></trkpt>
<trkpt lat="46.409526988863945" lon="6.272409986704588"><ele></ele><time>2015-2-4T6:53:43Z</time></trkpt>
<trkpt lat="46.40895894728601" lon="6.271753935143352"><ele></ele><time>2015-2-4T6:53:46Z</time></trkpt>
<trkpt lat="46.408308930695057" lon="6.270995959639549"><ele></ele><time>2015-2-4T6:53:49Z</time></trkpt>
<trkpt lat="46.407719934359193" lon="6.270306967198849"><ele></ele><time>2015-2-4T6:53:52Z</time></trkpt>
<trkpt lat="46.407193969935179" lon="6.269692992791534"><ele></ele><time>2015-2-4T6:53:55Z</time></trkpt>
<trkpt lat="46.406780993565917" lon="6.269215978682041"><ele></ele><time>2015-2-4T6:53:58Z</time></trkpt>
<trkpt lat="46.406379919499159" lon="6.268889922648668"><ele></ele><time>2015-2-4T6:54:1Z</time></trkpt>
<trkpt lat="46.405844986438751" lon="6.2686119787395"><ele></ele><time>2015-2-4T6:54:4Z</time></trkpt>
<trkpt lat="46.40537291765213" lon="6.26843897625804"><ele></ele><time>2015-2-4T6:54:7Z</time></trkpt>
<trkpt lat="46.404568925499916" lon="6.268127923831344"><ele></ele><time>2015-2-4T6:54:10Z</time></trkpt>
<trkpt lat="46.404053941369057" lon="6.267815949395299"><ele></ele><time>2015-2-4T6:54:13Z</time></trkpt>
<trkpt lat="46.403640964999795" lon="6.267484948039055"><ele></ele><time>2015-2-4T6:54:16Z</time></trkpt>
<trkpt lat="46.40319999307394" lon="6.267010951414704"><ele></ele><time>2015-2-4T6:54:19Z</time></trkpt>
<trkpt lat="46.402627928182483" lon="6.26629195176065"><ele></ele><time>2015-2-4T6:54:22Z</time></trkpt>
<trkpt lat="46.402020994573832" lon="6.265526935458183"><ele></ele><time>2015-2-4T6:54:25Z</time></trkpt>
<trkpt lat="46.401414982974529" lon="6.264763930812478"><ele></ele><time>2015-2-4T6:54:28Z</time></trkpt>
<trkpt lat="46.400852976366878" lon="6.264056917279959"><ele></ele><time>2015-2-4T6:54:31Z</time></trkpt>
<trkpt lat="46.400295998901129" lon="6.263349987566471"><ele></ele><time>2015-2-4T6:54:34Z</time></trkpt>
<trkpt lat="46.399719994515181" lon="6.262627970427275"><ele></ele><time>2015-2-4T6:54:37Z</time></trkpt>
<trkpt lat="46.399156982079148" lon="6.26188893802464"><ele></ele><time>2015-2-4T6:54:40Z</time></trkpt>
<trkpt lat="46.398548958823085" lon="6.261125933378935"><ele></ele><time>2015-2-4T6:54:43Z</time></trkpt>
<trkpt lat="46.397992987185717" lon="6.26042696647346"><ele></ele><time>2015-2-4T6:54:46Z</time></trkpt>
<trkpt lat="46.39746299944818" lon="6.259764963760972"><ele></ele><time>2015-2-4T6:54:49Z</time></trkpt>
<trkpt lat="46.396986991167068" lon="6.259163981303573"><ele></ele><time>2015-2-4T6:54:52Z</time></trkpt>
<trkpt lat="46.396497990936041" lon="6.258538942784071"><ele></ele><time>2015-2-4T6:54:55Z</time></trkpt>
<trkpt lat="46.39591695740819" lon="6.257802927866578"><ele></ele><time>2015-2-4T6:54:58Z</time></trkpt>
<trkpt lat="46.395306922495365" lon="6.257027937099338"><ele></ele><time>2015-2-4T6:55:1Z</time></trkpt>
<trkpt lat="46.394832925871015" lon="6.256435923278332"><ele></ele><time>2015-2-4T6:55:4Z</time></trkpt>
<trkpt lat="46.394384996965528" lon="6.25587391667068"><ele></ele><time>2015-2-4T6:55:7Z</time></trkpt>
<trkpt lat="46.393718970939517" lon="6.255041928961873"><ele></ele><time>2015-2-4T6:55:10Z</time></trkpt>
<trkpt lat="46.393239945173264" lon="6.254438934847713"><ele></ele><time>2015-2-4T6:55:13Z</time></trkpt>
<trkpt lat="46.392597975209355" lon="6.253634942695499"><ele></ele><time>2015-2-4T6:55:16Z</time></trkpt>
<trkpt lat="46.39213495887816" lon="6.253042928874493"><ele></ele><time>2015-2-4T6:55:19Z</time></trkpt>
<trkpt lat="46.39168493449688" lon="6.252474971115589"><ele></ele><time>2015-2-4T6:55:22Z</time></trkpt>
<trkpt lat="46.391096943989396" lon="6.251739962026477"><ele></ele><time>2015-2-4T6:55:25Z</time></trkpt>
<trkpt lat="46.39045899733901" lon="6.250967988744378"><ele></ele><time>2015-2-4T6:55:28Z</time></trkpt>
<trkpt lat="46.389789953827858" lon="6.250131977722049"><ele></ele><time>2015-2-4T6:55:31Z</time></trkpt>
<trkpt lat="46.389047987759113" lon="6.249191947281361"><ele></ele><time>2015-2-4T6:55:34Z</time></trkpt>
<trkpt lat="46.388461925089359" lon="6.24845894984901"><ele></ele><time>2015-2-4T6:55:37Z</time></trkpt>
<trkpt lat="46.387823978438973" lon="6.247640959918499"><ele></ele><time>2015-2-4T6:55:40Z</time></trkpt>
<trkpt lat="46.387171950191259" lon="6.24689094722271"><ele></ele><time>2015-2-4T6:55:43Z</time></trkpt>
<trkpt lat="46.38674296438694" lon="6.246598921716213"><ele></ele><time>2015-2-4T6:55:46Z</time></trkpt>
<trkpt lat="46.386172994971275" lon="6.246368922293186"><ele></ele><time>2015-2-4T6:55:49Z</time></trkpt>
<trkpt lat="46.38545491732657" lon="6.24609399586916"><ele></ele><time>2015-2-4T6:55:52Z</time></trkpt>
<trkpt lat="46.384858964011073" lon="6.245809933170676"><ele></ele><time>2015-2-4T6:55:55Z</time></trkpt>
<trkpt lat="46.384403994306922" lon="6.245395950973034"><ele></ele><time>2015-2-4T6:55:58Z</time></trkpt>
<trkpt lat="46.383702931925654" lon="6.244300939142704"><ele></ele><time>2015-2-4T6:56:1Z</time></trkpt>
<trkpt lat="46.383309988304973" lon="6.243842951953411"><ele></ele><time>2015-2-4T6:56:4Z</time></trkpt>
<trkpt lat="46.382528962567449" lon="6.24336794950068"><ele></ele><time>2015-2-4T6:56:7Z</time></trkpt>
<trkpt lat="46.381727987900376" lon="6.242830920964479"><ele></ele><time>2015-2-4T6:56:10Z</time></trkpt>
<trkpt lat="46.381314927712083" lon="6.242437977343798"><ele></ele><time>2015-2-4T6:56:13Z</time></trkpt>
<trkpt lat="46.380774965509772" lon="6.241938918828964"><ele></ele><time>2015-2-4T6:56:16Z</time></trkpt>
<trkpt lat="46.380286971107125" lon="6.241168957203627"><ele></ele><time>2015-2-4T6:56:19Z</time></trkpt>
<trkpt lat="46.379905929788947" lon="6.240388937294483"><ele></ele><time>2015-2-4T6:56:22Z</time></trkpt>
<trkpt lat="46.379520948976278" lon="6.239850986748934"><ele></ele><time>2015-2-4T6:56:25Z</time></trkpt>
<trkpt lat="46.379117947071791" lon="6.239303983747959"><ele></ele><time>2015-2-4T6:56:28Z</time></trkpt>
<trkpt lat="46.378744952380657" lon="6.23879293911159"><ele></ele><time>2015-2-4T6:56:31Z</time></trkpt>
<trkpt lat="46.378432977944613" lon="6.238266974687576"><ele></ele><time>2015-2-4T6:56:34Z</time></trkpt>
<trkpt lat="46.378066940233111" lon="6.237689964473248"><ele></ele><time>2015-2-4T6:56:37Z</time></trkpt>
<trkpt lat="46.37772093527019" lon="6.237039947882295"><ele></ele><time>2015-2-4T6:56:40Z</time></trkpt>
<trkpt lat="46.377382976934314" lon="6.236326983198524"><ele></ele><time>2015-2-4T6:56:43Z</time></trkpt>
<trkpt lat="46.376957930624485" lon="6.235464988276362"><ele></ele><time>2015-2-4T6:56:46Z</time></trkpt>
<trkpt lat="46.376619972288609" lon="6.234997948631644"><ele></ele><time>2015-2-4T6:56:49Z</time></trkpt>
<trkpt lat="46.376015972346067" lon="6.234523952007294"><ele></ele><time>2015-2-4T6:56:52Z</time></trkpt>
<trkpt lat="46.37544197961688" lon="6.234072921797633"><ele></ele><time>2015-2-4T6:56:55Z</time></trkpt>
<trkpt lat="46.374936969950795" lon="6.233686935156584"><ele></ele><time>2015-2-4T6:56:58Z</time></trkpt>
<trkpt lat="46.374304974451661" lon="6.233146972954273"><ele></ele><time>2015-2-4T6:57:1Z</time></trkpt>
<trkpt lat="46.373560996726155" lon="6.232523946091533"><ele></ele><time>2015-2-4T6:57:4Z</time></trkpt>
<trkpt lat="46.372970994561911" lon="6.231881976127625"><ele></ele><time>2015-2-4T6:57:7Z</time></trkpt>
<trkpt lat="46.372357942163944" lon="6.231195917353034"><ele></ele><time>2015-2-4T6:57:10Z</time></trkpt>
<trkpt lat="46.371915964409709" lon="6.230697948485613"><ele></ele><time>2015-2-4T6:57:13Z</time></trkpt>
<trkpt lat="46.371303917840123" lon="6.229930920526385"><ele></ele><time>2015-2-4T6:57:16Z</time></trkpt>
<trkpt lat="46.370678963139653" lon="6.228953925892711"><ele></ele><time>2015-2-4T6:57:19Z</time></trkpt>
<trkpt lat="46.370327929034829" lon="6.228308938443661"><ele></ele><time>2015-2-4T6:57:22Z</time></trkpt>
<trkpt lat="46.369988964870572" lon="6.227550962939858"><ele></ele><time>2015-2-4T6:57:25Z</time></trkpt>
<trkpt lat="46.369551932439208" lon="6.226711934432387"><ele></ele><time>2015-2-4T6:57:28Z</time></trkpt>
<trkpt lat="46.369197964668274" lon="6.225988995283842"><ele></ele><time>2015-2-4T6:57:31Z</time></trkpt>
<trkpt lat="46.368791945278645" lon="6.225198917090893"><ele></ele><time>2015-2-4T6:57:34Z</time></trkpt>
<trkpt lat="46.368364971131086" lon="6.224489975720644"><ele></ele><time>2015-2-4T6:57:37Z</time></trkpt>
<trkpt lat="46.367878988385201" lon="6.223781956359744"><ele></ele><time>2015-2-4T6:57:40Z</time></trkpt>
<trkpt lat="46.367340954020619" lon="6.223146943375468"><ele></ele><time>2015-2-4T6:57:43Z</time></trkpt>
<trkpt lat="46.366886990144849" lon="6.222685938701034"><ele></ele><time>2015-2-4T6:57:46Z</time></trkpt>
<trkpt lat="46.366434954106808" lon="6.222292995080352"><ele></ele><time>2015-2-4T6:57:49Z</time></trkpt>
<trkpt lat="46.36590295471251" lon="6.221890999004245"><ele></ele><time>2015-2-4T6:57:52Z</time></trkpt>
<trkpt lat="46.365474974736571" lon="6.221591932699084"><ele></ele><time>2015-2-4T6:57:55Z</time></trkpt>
<trkpt lat="46.365059986710548" lon="6.221297979354858"><ele></ele><time>2015-2-4T6:57:58Z</time></trkpt>
<trkpt lat="46.364531926810741" lon="6.220927918329835"><ele></ele><time>2015-2-4T6:58:1Z</time></trkpt>
<trkpt lat="46.363888951018453" lon="6.2204859405756"><ele></ele><time>2015-2-4T6:58:4Z</time></trkpt>
<trkpt lat="46.363347982987761" lon="6.22009894810617"><ele></ele><time>2015-2-4T6:58:7Z</time></trkpt>
<trkpt lat="46.362761920318007" lon="6.219679936766625"><ele></ele><time>2015-2-4T6:58:10Z</time></trkpt>
<trkpt lat="46.362231932580471" lon="6.219270983710885"><ele></ele><time>2015-2-4T6:58:13Z</time></trkpt>
<trkpt lat="46.36171393096447" lon="6.21883294545114"><ele></ele><time>2015-2-4T6:58:16Z</time></trkpt>
<trkpt lat="46.361142955720425" lon="6.218305975198746"><ele></ele><time>2015-2-4T6:58:19Z</time></trkpt>
<trkpt lat="46.360649932175875" lon="6.217809934169054"><ele></ele><time>2015-2-4T6:58:22Z</time></trkpt>
<trkpt lat="46.360126985237002" lon="6.217242982238531"><ele></ele><time>2015-2-4T6:58:25Z</time></trkpt>
<trkpt lat="46.359633961692452" lon="6.216700924560428"><ele></ele><time>2015-2-4T6:58:28Z</time></trkpt>
<trkpt lat="46.359144961461425" lon="6.216137995943427"><ele></ele><time>2015-2-4T6:58:31Z</time></trkpt>
<trkpt lat="46.358580943197012" lon="6.21558696962893"><ele></ele><time>2015-2-4T6:58:34Z</time></trkpt>
<trkpt lat="46.357685923576355" lon="6.214627996087074"><ele></ele><time>2015-2-4T6:58:37Z</time></trkpt>
<trkpt lat="46.35720094665885" lon="6.21417093090713"><ele></ele><time>2015-2-4T6:58:40Z</time></trkpt>
<trkpt lat="46.35677196085453" lon="6.213751919567585"><ele></ele><time>2015-2-4T6:58:43Z</time></trkpt>
<trkpt lat="46.356294946745038" lon="6.21328798122704"><ele></ele><time>2015-2-4T6:58:46Z</time></trkpt>
<trkpt lat="46.35560997761786" lon="6.212628995999694"><ele></ele><time>2015-2-4T6:58:49Z</time></trkpt>
<trkpt lat="46.354915956035256" lon="6.211963975802064"><ele></ele><time>2015-2-4T6:58:52Z</time></trkpt>
<trkpt lat="46.354323942214251" lon="6.211399957537651"><ele></ele><time>2015-2-4T6:58:55Z</time></trkpt>
<trkpt lat="46.353861931711435" lon="6.210946999490261"><ele></ele><time>2015-2-4T6:58:58Z</time></trkpt>
<trkpt lat="46.353468988090754" lon="6.210550954565406"><ele></ele><time>2015-2-4T6:59:1Z</time></trkpt>
<trkpt lat="46.353047965094447" lon="6.210148958489299"><ele></ele><time>2015-2-4T6:59:4Z</time></trkpt>
<trkpt lat="46.352655943483114" lon="6.209770934656262"><ele></ele><time>2015-2-4T6:59:7Z</time></trkpt>
<trkpt lat="46.352145988494158" lon="6.209278916940093"><ele></ele><time>2015-2-4T6:59:10Z</time></trkpt>
<trkpt lat="46.351695964112878" lon="6.208857977762818"><ele></ele><time>2015-2-4T6:59:13Z</time></trkpt>
<trkpt lat="46.35118592530489" lon="6.208402924239636"><ele></ele><time>2015-2-4T6:59:16Z</time></trkpt>
<trkpt lat="46.350291995331645" lon="6.207716949284077"><ele></ele><time>2015-2-4T6:59:19Z</time></trkpt>
<trkpt lat="46.349676931276917" lon="6.207354934886098"><ele></ele><time>2015-2-4T6:59:22Z</time></trkpt>
<trkpt lat="46.349022975191474" lon="6.207045977935195"><ele></ele><time>2015-2-4T6:59:25Z</time></trkpt>
<trkpt lat="46.348294923081994" lon="6.206760993227363"><ele></ele><time>2015-2-4T6:59:28Z</time></trkpt>
<trkpt lat="46.347821932286024" lon="6.20662696659565"><ele></ele><time>2015-2-4T6:59:31Z</time></trkpt>
<trkpt lat="46.346929930150509" lon="6.206402918323875"><ele></ele><time>2015-2-4T6:59:34Z</time></trkpt>
<trkpt lat="46.346353925764561" lon="6.206271992996335"><ele></ele><time>2015-2-4T6:59:37Z</time></trkpt>
<trkpt lat="46.345785968005657" lon="6.206141989678145"><ele></ele><time>2015-2-4T6:59:40Z</time></trkpt>
<trkpt lat="46.345298979431391" lon="6.206022966653109"><ele></ele><time>2015-2-4T6:59:43Z</time></trkpt>
<trkpt lat="46.344818947836757" lon="6.205904949456453"><ele></ele><time>2015-2-4T6:59:46Z</time></trkpt>
<trkpt lat="46.344188963994384" lon="6.205760948359966"><ele></ele><time>2015-2-4T6:59:49Z</time></trkpt>
<trkpt lat="46.343510951846838" lon="6.205605966970325"><ele></ele><time>2015-2-4T6:59:52Z</time></trkpt>
<trkpt lat="46.34291298687458" lon="6.205481998622417"><ele></ele><time>2015-2-4T6:59:55Z</time></trkpt>
<trkpt lat="46.342385932803154" lon="6.205346966162324"><ele></ele><time>2015-2-4T6:59:58Z</time></trkpt>
<trkpt lat="46.341742957010865" lon="6.205184943974018"><ele></ele><time>2015-2-4T7:0:1Z</time></trkpt>
<trkpt lat="46.341189919039607" lon="6.205010935664177"><ele></ele><time>2015-2-4T7:0:4Z</time></trkpt>
<trkpt lat="46.340365977957845" lon="6.204658979550004"><ele></ele><time>2015-2-4T7:0:7Z</time></trkpt>
<trkpt lat="46.339724930003285" lon="6.204252960160375"><ele></ele><time>2015-2-4T7:0:10Z</time></trkpt>
<trkpt lat="46.338775930926204" lon="6.203573942184448"><ele></ele><time>2015-2-4T7:0:13Z</time></trkpt>
<trkpt lat="46.337793990969658" lon="6.203011935576797"><ele></ele><time>2015-2-4T7:0:16Z</time></trkpt>
<trkpt lat="46.33713492192328" lon="6.20273994281888"><ele></ele><time>2015-2-4T7:0:19Z</time></trkpt>
<trkpt lat="46.336521953344345" lon="6.202546991407871"><ele></ele><time>2015-2-4T7:0:22Z</time></trkpt>
<trkpt lat="46.335987942293286" lon="6.202424950897694"><ele></ele><time>2015-2-4T7:0:25Z</time></trkpt>
<trkpt lat="46.335400957614183" lon="6.202344987541437"><ele></ele><time>2015-2-4T7:0:28Z</time></trkpt>
<trkpt lat="46.334933917969465" lon="6.202321937307715"><ele></ele><time>2015-2-4T7:0:31Z</time></trkpt>
<trkpt lat="46.334385992959142" lon="6.202341970056295"><ele></ele><time>2015-2-4T7:0:34Z</time></trkpt>
<trkpt lat="46.333730947226286" lon="6.202353956177831"><ele></ele><time>2015-2-4T7:0:37Z</time></trkpt>
<trkpt lat="46.333159971982241" lon="6.202357979491353"><ele></ele><time>2015-2-4T7:0:40Z</time></trkpt>
<trkpt lat="46.332522947341204" lon="6.202334929257631"><ele></ele><time>2015-2-4T7:0:43Z</time></trkpt>
<trkpt lat="46.33167595602572" lon="6.202208949252963"><ele></ele><time>2015-2-4T7:0:46Z</time></trkpt>
<trkpt lat="46.331138927489519" lon="6.202037958428264"><ele></ele><time>2015-2-4T7:0:49Z</time></trkpt>
<trkpt lat="46.330474996939301" lon="6.20175096206367"><ele></ele><time>2015-2-4T7:0:52Z</time></trkpt>
<trkpt lat="46.329964958131313" lon="6.201488943770528"><ele></ele><time>2015-2-4T7:0:55Z</time></trkpt>
<trkpt lat="46.32942097261548" lon="6.201155930757523"><ele></ele><time>2015-2-4T7:0:58Z</time></trkpt>
<trkpt lat="46.328888973221183" lon="6.200753934681416"><ele></ele><time>2015-2-4T7:1:1Z</time></trkpt>
<trkpt lat="46.328325960785151" lon="6.200252948328853"><ele></ele><time>2015-2-4T7:1:4Z</time></trkpt>
<trkpt lat="46.327599920332432" lon="6.199620952829719"><ele></ele><time>2015-2-4T7:1:7Z</time></trkpt>
<trkpt lat="46.326972953975201" lon="6.199225997552276"><ele></ele><time>2015-2-4T7:1:10Z</time></trkpt>
<trkpt lat="46.326505998149514" lon="6.198956938460469"><ele></ele><time>2015-2-4T7:1:13Z</time></trkpt>
<trkpt lat="46.325954971835017" lon="6.198694920167327"><ele></ele><time>2015-2-4T7:1:16Z</time></trkpt>
<trkpt lat="46.325501929968596" lon="6.198469949886203"><ele></ele><time>2015-2-4T7:1:19Z</time></trkpt>
<trkpt lat="46.324697937816381" lon="6.198124950751662"><ele></ele><time>2015-2-4T7:1:22Z</time></trkpt>
<trkpt lat="46.323707951232791" lon="6.197649948298931"><ele></ele><time>2015-2-4T7:1:25Z</time></trkpt>
<trkpt lat="46.322971936315298" lon="6.197268990799785"><ele></ele><time>2015-2-4T7:1:28Z</time></trkpt>
<trkpt lat="46.321995947510004" lon="6.19672492146492"><ele></ele><time>2015-2-4T7:1:31Z</time></trkpt>
<trkpt lat="46.321301925927401" lon="6.196332983672619"><ele></ele><time>2015-2-4T7:1:34Z</time></trkpt>
<trkpt lat="46.320338929072022" lon="6.195789920166135"><ele></ele><time>2015-2-4T7:1:37Z</time></trkpt>
<trkpt lat="46.319669969379902" lon="6.195420948788524"><ele></ele><time>2015-2-4T7:1:40Z</time></trkpt>
<trkpt lat="46.319099999964237" lon="6.195105956867337"><ele></ele><time>2015-2-4T7:1:43Z</time></trkpt>
<trkpt lat="46.318597923964262" lon="6.194824995473027"><ele></ele><time>2015-2-4T7:1:46Z</time></trkpt>
<trkpt lat="46.317922929301858" lon="6.194448983296752"><ele></ele><time>2015-2-4T7:1:49Z</time></trkpt>
<trkpt lat="46.317441975697875" lon="6.194189982488751"><ele></ele><time>2015-2-4T7:1:52Z</time></trkpt>
<trkpt lat="46.317019946873188" lon="6.193923940882087"><ele></ele><time>2015-2-4T7:1:55Z</time></trkpt>
<trkpt lat="46.316324919462204" lon="6.193354977294803"><ele></ele><time>2015-2-4T7:1:58Z</time></trkpt>
<trkpt lat="46.315826950594783" lon="6.19283496402204"><ele></ele><time>2015-2-4T7:2:1Z</time></trkpt>
<trkpt lat="46.315503995865583" lon="6.192301958799362"><ele></ele><time>2015-2-4T7:2:4Z</time></trkpt>
<trkpt lat="46.315137958154082" lon="6.191561920568347"><ele></ele><time>2015-2-4T7:2:7Z</time></trkpt>
<trkpt lat="46.314776949584484" lon="6.190820960327983"><ele></ele><time>2015-2-4T7:2:10Z</time></trkpt>
<trkpt lat="46.314299935474992" lon="6.18995594792068"><ele></ele><time>2015-2-4T7:2:13Z</time></trkpt>
<trkpt lat="46.313796937465668" lon="6.189013989642263"><ele></ele><time>2015-2-4T7:2:16Z</time></trkpt>
<trkpt lat="46.313312966376543" lon="6.188209997490048"><ele></ele><time>2015-2-4T7:2:19Z</time></trkpt>
<trkpt lat="46.312820948660374" lon="6.187649918720126"><ele></ele><time>2015-2-4T7:2:22Z</time></trkpt>
<trkpt lat="46.312175961211324" lon="6.187149938195944"><ele></ele><time>2015-2-4T7:2:25Z</time></trkpt>
<trkpt lat="46.311026969924569" lon="6.186099937185645"><ele></ele><time>2015-2-4T7:2:28Z</time></trkpt>
<trkpt lat="46.31029698997736" lon="6.185426954180002"><ele></ele><time>2015-2-4T7:2:31Z</time></trkpt>
<trkpt lat="46.309671951457858" lon="6.184844998642802"><ele></ele><time>2015-2-4T7:2:34Z</time></trkpt>
<trkpt lat="46.308952951803803" lon="6.184180984273553"><ele></ele><time>2015-2-4T7:2:37Z</time></trkpt>
<trkpt lat="46.308314921334386" lon="6.183481933549047"><ele></ele><time>2015-2-4T7:2:40Z</time></trkpt>
<trkpt lat="46.307835979387164" lon="6.183023946359754"><ele></ele><time>2015-2-4T7:2:43Z</time></trkpt>
<trkpt lat="46.307279923930764" lon="6.18252094835043"><ele></ele><time>2015-2-4T7:2:46Z</time></trkpt>
<trkpt lat="46.30673099309206" lon="6.182003952562809"><ele></ele><time>2015-2-4T7:2:49Z</time></trkpt>
<trkpt lat="46.306077959015965" lon="6.181390983983874"><ele></ele><time>2015-2-4T7:2:52Z</time></trkpt>
<trkpt lat="46.305288970470428" lon="6.180646922439337"><ele></ele><time>2015-2-4T7:2:55Z</time></trkpt>
<trkpt lat="46.304729981347919" lon="6.180063961073756"><ele></ele><time>2015-2-4T7:2:58Z</time></trkpt>
<trkpt lat="46.30423997528851" lon="6.179529950022697"><ele></ele><time>2015-2-4T7:3:1Z</time></trkpt>
<trkpt lat="46.303756926208735" lon="6.178957968950272"><ele></ele><time>2015-2-4T7:3:4Z</time></trkpt>
<trkpt lat="46.303270943462849" lon="6.178343994542956"><ele></ele><time>2015-2-4T7:3:7Z</time></trkpt>
<trkpt lat="46.30282393656671" lon="6.177743934094906"><ele></ele><time>2015-2-4T7:3:10Z</time></trkpt>
<trkpt lat="46.302454965189099" lon="6.177217969670892"><ele></ele><time>2015-2-4T7:3:13Z</time></trkpt>
<trkpt lat="46.302095968276262" lon="6.176658980548382"><ele></ele><time>2015-2-4T7:3:16Z</time></trkpt>
<trkpt lat="46.301737977191806" lon="6.176092950627208"><ele></ele><time>2015-2-4T7:3:19Z</time></trkpt>
<trkpt lat="46.301386943086982" lon="6.175506971776485"><ele></ele><time>2015-2-4T7:3:22Z</time></trkpt>
<trkpt lat="46.300820996984839" lon="6.174506926909089"><ele></ele><time>2015-2-4T7:3:25Z</time></trkpt>
<trkpt lat="46.30039494484663" lon="6.173669993877411"><ele></ele><time>2015-2-4T7:3:28Z</time></trkpt>
<trkpt lat="46.300021950155497" lon="6.172909922897816"><ele></ele><time>2015-2-4T7:3:31Z</time></trkpt>
<trkpt lat="46.299509983509779" lon="6.171865956857801"><ele></ele><time>2015-2-4T7:3:34Z</time></trkpt>
<trkpt lat="46.29912693053484" lon="6.171124996617436"><ele></ele><time>2015-2-4T7:3:37Z</time></trkpt>
<trkpt lat="46.298619993031025" lon="6.170283956453204"><ele></ele><time>2015-2-4T7:3:40Z</time></trkpt>
<trkpt lat="46.298070978373289" lon="6.169487927109003"><ele></ele><time>2015-2-4T7:3:43Z</time></trkpt>
<trkpt lat="46.297804936766624" lon="6.168937990441918"><ele></ele><time>2015-2-4T7:3:46Z</time></trkpt>
<trkpt lat="46.297337980940938" lon="6.16855694912374"><ele></ele><time>2015-2-4T7:3:49Z</time></trkpt>
<trkpt lat="46.296313963830471" lon="6.167704928666353"><ele></ele><time>2015-2-4T7:3:52Z</time></trkpt>
<trkpt lat="46.295480970293283" lon="6.167165972292423"><ele></ele><time>2015-2-4T7:3:55Z</time></trkpt>
<trkpt lat="46.294933967292309" lon="6.166870929300785"><ele></ele><time>2015-2-4T7:3:58Z</time></trkpt>
<trkpt lat="46.294335918501019" lon="6.166505981236696"><ele></ele><time>2015-2-4T7:4:1Z</time></trkpt>
<trkpt lat="46.29366796463728" lon="6.166138937696815"><ele></ele><time>2015-2-4T7:4:4Z</time></trkpt>
<trkpt lat="46.293090954422951" lon="6.165836937725544"><ele></ele><time>2015-2-4T7:4:7Z</time></trkpt>
<trkpt lat="46.292274976149201" lon="6.165648931637406"><ele></ele><time>2015-2-4T7:4:10Z</time></trkpt>
<trkpt lat="46.291743982583284" lon="6.165648931637406"><ele></ele><time>2015-2-4T7:4:13Z</time></trkpt>
<trkpt lat="46.290842927992344" lon="6.165686985477805"><ele></ele><time>2015-2-4T7:4:16Z</time></trkpt>
<trkpt lat="46.290249992161989" lon="6.165681956335902"><ele></ele><time>2015-2-4T7:4:19Z</time></trkpt>
<trkpt lat="46.289618918672204" lon="6.165696959942579"><ele></ele><time>2015-2-4T7:4:22Z</time></trkpt>
<trkpt lat="46.289043920114636" lon="6.16572093218565"><ele></ele><time>2015-2-4T7:4:25Z</time></trkpt>
<trkpt lat="46.288381917402148" lon="6.16574096493423"><ele></ele><time>2015-2-4T7:4:28Z</time></trkpt>
<trkpt lat="46.287893922999501" lon="6.165742976590991"><ele></ele><time>2015-2-4T7:4:31Z</time></trkpt>
<trkpt lat="46.287399977445602" lon="6.165744988247752"><ele></ele><time>2015-2-4T7:4:34Z</time></trkpt>
<trkpt lat="46.286580981686711" lon="6.165761919692159"><ele></ele><time>2015-2-4T7:4:37Z</time></trkpt>
<trkpt lat="46.285498961806297" lon="6.165831992402673"><ele></ele><time>2015-2-4T7:4:40Z</time></trkpt>
<trkpt lat="46.284933937713504" lon="6.16584699600935"><ele></ele><time>2015-2-4T7:4:43Z</time></trkpt>
<trkpt lat="46.284323986619711" lon="6.16584699600935"><ele></ele><time>2015-2-4T7:4:46Z</time></trkpt>
<trkpt lat="46.2838289514184" lon="6.165864933282137"><ele></ele><time>2015-2-4T7:4:49Z</time></trkpt>
<trkpt lat="46.283153956755996" lon="6.165853952988982"><ele></ele><time>2015-2-4T7:4:52Z</time></trkpt>
<trkpt lat="46.282453984022141" lon="6.165877925232053"><ele></ele><time>2015-2-4T7:4:55Z</time></trkpt>
<trkpt lat="46.281881919130683" lon="6.166099961847067"><ele></ele><time>2015-2-4T7:4:58Z</time></trkpt>
<trkpt lat="46.281100977212191" lon="6.166628943756223"><ele></ele><time>2015-2-4T7:5:1Z</time></trkpt>
<trkpt lat="46.280013928189874" lon="6.16726697422564"><ele></ele><time>2015-2-4T7:5:4Z</time></trkpt>
<trkpt lat="46.279584942385554" lon="6.167550953105092"><ele></ele><time>2015-2-4T7:5:7Z</time></trkpt>
<trkpt lat="46.278919922187924" lon="6.167975999414921"><ele></ele><time>2015-2-4T7:5:10Z</time></trkpt>
<trkpt lat="46.27847895026207" lon="6.168241957202554"><ele></ele><time>2015-2-4T7:5:13Z</time></trkpt>
<trkpt lat="46.278004953637719" lon="6.168530965223908"><ele></ele><time>2015-2-4T7:5:16Z</time></trkpt>
<trkpt lat="46.277509918436408" lon="6.168843945488334"><ele></ele><time>2015-2-4T7:5:19Z</time></trkpt>
<trkpt lat="46.277011949568987" lon="6.1691789701581"><ele></ele><time>2015-2-4T7:5:22Z</time></trkpt>
<trkpt lat="46.276514986529946" lon="6.169529920443893"><ele></ele><time>2015-2-4T7:5:25Z</time></trkpt>
<trkpt lat="46.275828927755356" lon="6.169389942660928"><ele></ele><time>2015-2-4T7:5:28Z</time></trkpt>
<trkpt lat="46.275403965264559" lon="6.168994987383485"><ele></ele><time>2015-2-4T7:5:31Z</time></trkpt>
<trkpt lat="46.274789990857244" lon="6.168444966897368"><ele></ele><time>2015-2-4T7:5:34Z</time></trkpt>
<trkpt lat="46.274406937882304" lon="6.16782495751977"><ele></ele><time>2015-2-4T7:5:37Z</time></trkpt>
<trkpt lat="46.273957919329405" lon="6.167362947016954"><ele></ele><time>2015-2-4T7:5:40Z</time></trkpt>
<trkpt lat="46.273384932428598" lon="6.167147951200604"><ele></ele><time>2015-2-4T7:5:43Z</time></trkpt>
<trkpt lat="46.272803982719779" lon="6.166874952614307"><ele></ele><time>2015-2-4T7:5:46Z</time></trkpt>
<trkpt lat="46.27218397334218" lon="6.166551997885108"><ele></ele><time>2015-2-4T7:5:49Z</time></trkpt>
<trkpt lat="46.271588942036033" lon="6.166206998750567"><ele></ele><time>2015-2-4T7:5:52Z</time></trkpt>
<trkpt lat="46.271055936813354" lon="6.165923941880465"><ele></ele><time>2015-2-4T7:5:55Z</time></trkpt>
<trkpt lat="46.270534917712212" lon="6.165628982707858"><ele></ele><time>2015-2-4T7:5:58Z</time></trkpt>
<trkpt lat="46.269881967455149" lon="6.165245929732919"><ele></ele><time>2015-2-4T7:6:1Z</time></trkpt>
<trkpt lat="46.269094990566373" lon="6.164757935330272"><ele></ele><time>2015-2-4T7:6:4Z</time></trkpt>
<trkpt lat="46.268531978130341" lon="6.164396926760674"><ele></ele><time>2015-2-4T7:6:7Z</time></trkpt>
<trkpt lat="46.268055969849229" lon="6.164088975638151"><ele></ele><time>2015-2-4T7:6:10Z</time></trkpt>
<trkpt lat="46.267503937706351" lon="6.16374297067523"><ele></ele><time>2015-2-4T7:6:13Z</time></trkpt>
<trkpt lat="46.266822991892695" lon="6.16331297904253"><ele></ele><time>2015-2-4T7:6:16Z</time></trkpt>
<trkpt lat="46.266287975013256" lon="6.162975942716003"><ele></ele><time>2015-2-4T7:6:19Z</time></trkpt>
<trkpt lat="46.265820935368538" lon="6.162682995200157"><ele></ele><time>2015-2-4T7:6:22Z</time></trkpt>
<trkpt lat="46.265335958451033" lon="6.162376971915364"><ele></ele><time>2015-2-4T7:6:25Z</time></trkpt>
<trkpt lat="46.26453791745007" lon="6.161879925057292"><ele></ele><time>2015-2-4T7:6:28Z</time></trkpt>
<trkpt lat="46.263989992439747" lon="6.161535931751132"><ele></ele><time>2015-2-4T7:6:31Z</time></trkpt>
<trkpt lat="46.26346193253994" lon="6.161173917353153"><ele></ele><time>2015-2-4T7:6:34Z</time></trkpt>
<trkpt lat="46.263049961999059" lon="6.160858925431967"><ele></ele><time>2015-2-4T7:6:37Z</time></trkpt>
<trkpt lat="46.262624999508262" lon="6.160503951832652"><ele></ele><time>2015-2-4T7:6:40Z</time></trkpt>
<trkpt lat="46.262184949591756" lon="6.16013397462666"><ele></ele><time>2015-2-4T7:6:43Z</time></trkpt>
<trkpt lat="46.261476930230856" lon="6.159544978290796"><ele></ele><time>2015-2-4T7:6:46Z</time></trkpt>
<trkpt lat="46.26090394333005" lon="6.159068970009685"><ele></ele><time>2015-2-4T7:6:49Z</time></trkpt>
<trkpt lat="46.260296925902367" lon="6.15856496617198"><ele></ele><time>2015-2-4T7:6:52Z</time></trkpt>
<trkpt lat="46.259767943993211" lon="6.158125922083855"><ele></ele><time>2015-2-4T7:6:55Z</time></trkpt>
<trkpt lat="46.259002927690744" lon="6.157478922978044"><ele></ele><time>2015-2-4T7:6:58Z</time></trkpt>
<trkpt lat="46.258517950773239" lon="6.157067958265543"><ele></ele><time>2015-2-4T7:7:1Z</time></trkpt>
<trkpt lat="46.258087959140539" lon="6.156693957746029"><ele></ele><time>2015-2-4T7:7:4Z</time></trkpt>
<trkpt lat="46.257730973884463" lon="6.156304953619838"><ele></ele><time>2015-2-4T7:7:7Z</time></trkpt>
<trkpt lat="46.257105935364962" lon="6.15626497194171"><ele></ele><time>2015-2-4T7:7:10Z</time></trkpt>
<trkpt lat="46.256511993706226" lon="6.156156929209828"><ele></ele><time>2015-2-4T7:7:13Z</time></trkpt>
<trkpt lat="46.255994997918606" lon="6.15604997612536"><ele></ele><time>2015-2-4T7:7:16Z</time></trkpt>
<trkpt lat="46.255536926910281" lon="6.1557059828192"><ele></ele><time>2015-2-4T7:7:19Z</time></trkpt>
<trkpt lat="46.254847934469581" lon="6.154879946261644"><ele></ele><time>2015-2-4T7:7:22Z</time></trkpt>
<trkpt lat="46.254461947828531" lon="6.154411984607577"><ele></ele><time>2015-2-4T7:7:25Z</time></trkpt>
<trkpt lat="46.254046959802508" lon="6.153919966891408"><ele></ele><time>2015-2-4T7:7:28Z</time></trkpt>
<trkpt lat="46.253647981211543" lon="6.153425937518477"><ele></ele><time>2015-2-4T7:7:31Z</time></trkpt>
<trkpt lat="46.25301799736917" lon="6.152647929266095"><ele></ele><time>2015-2-4T7:7:34Z</time></trkpt>
<trkpt lat="46.252497984096408" lon="6.15201098844409"><ele></ele><time>2015-2-4T7:7:37Z</time></trkpt>
<trkpt lat="46.252096993848681" lon="6.151546966284514"><ele></ele><time>2015-2-4T7:7:40Z</time></trkpt>
<trkpt lat="46.251263916492462" lon="6.151055954396725"><ele></ele><time>2015-2-4T7:7:43Z</time></trkpt>
<trkpt lat="46.250652959570289" lon="6.150927962735295"><ele></ele><time>2015-2-4T7:7:46Z</time></trkpt>
<trkpt lat="46.250190949067473" lon="6.150776920840144"><ele></ele><time>2015-2-4T7:7:49Z</time></trkpt>
<trkpt lat="46.249520983546972" lon="6.150669967755675"><ele></ele><time>2015-2-4T7:7:52Z</time></trkpt>
<trkpt lat="46.248847916722298" lon="6.150600984692574"><ele></ele><time>2015-2-4T7:7:55Z</time></trkpt>
<trkpt lat="46.247929930686951" lon="6.150798965245485"><ele></ele><time>2015-2-4T7:7:58Z</time></trkpt>
<trkpt lat="46.247379994019866" lon="6.151006920263171"><ele></ele><time>2015-2-4T7:8:1Z</time></trkpt>
<trkpt lat="46.246672980487347" lon="6.151217976585031"><ele></ele><time>2015-2-4T7:8:4Z</time></trkpt>
<trkpt lat="46.245940988883376" lon="6.151322918012738"><ele></ele><time>2015-2-4T7:8:7Z</time></trkpt>
<trkpt lat="46.245224922895432" lon="6.151111945509911"><ele></ele><time>2015-2-4T7:8:10Z</time></trkpt>
<trkpt lat="46.244334932416677" lon="6.151364995166659"><ele></ele><time>2015-2-4T7:8:13Z</time></trkpt>
<trkpt lat="46.243322985246778" lon="6.151349991559982"><ele></ele><time>2015-2-4T7:8:16Z</time></trkpt>
<trkpt lat="46.242845971137285" lon="6.151234991848469"><ele></ele><time>2015-2-4T7:8:19Z</time></trkpt>
<trkpt lat="46.242329981178045" lon="6.151019996032119"><ele></ele><time>2015-2-4T7:8:22Z</time></trkpt>
<trkpt lat="46.241876939311624" lon="6.150787984952331"><ele></ele><time>2015-2-4T7:8:25Z</time></trkpt>
<trkpt lat="46.241341922432184" lon="6.150546921417117"><ele></ele><time>2015-2-4T7:8:28Z</time></trkpt>
<trkpt lat="46.240453943610191" lon="6.150007965043187"><ele></ele><time>2015-2-4T7:8:31Z</time></trkpt>
<trkpt lat="46.239945916458964" lon="6.14969096146524"><ele></ele><time>2015-2-4T7:8:34Z</time></trkpt>
<trkpt lat="46.239466974511743" lon="6.149448975920677"><ele></ele><time>2015-2-4T7:8:37Z</time></trkpt>
<trkpt lat="46.239028936251998" lon="6.149226939305663"><ele></ele><time>2015-2-4T7:8:40Z</time></trkpt>
<trkpt lat="46.238475982099771" lon="6.149028958752751"><ele></ele><time>2015-2-4T7:8:43Z</time></trkpt>
<trkpt lat="46.237759999930859" lon="6.148875989019871"><ele></ele><time>2015-2-4T7:8:46Z</time></trkpt>
<trkpt lat="46.237287931144238" lon="6.14885495044291"><ele></ele><time>2015-2-4T7:8:49Z</time></trkpt>
<trkpt lat="46.236754925921559" lon="6.148894932121038"><ele></ele><time>2015-2-4T7:8:52Z</time></trkpt>
<trkpt lat="46.235886979848146" lon="6.148975985124707"><ele></ele><time>2015-2-4T7:8:55Z</time></trkpt>
<trkpt lat="46.235357997938991" lon="6.14902594126761"><ele></ele><time>2015-2-4T7:8:58Z</time></trkpt>
<trkpt lat="46.234744945541024" lon="6.149094924330711"><ele></ele><time>2015-2-4T7:9:1Z</time></trkpt>
<trkpt lat="46.233684970065951" lon="6.149207996204495"><ele></ele><time>2015-2-4T7:9:4Z</time></trkpt>
<trkpt lat="46.232958929613233" lon="6.149305980652571"><ele></ele><time>2015-2-4T7:9:7Z</time></trkpt>
<trkpt lat="46.232430953532457" lon="6.149367922917008"><ele></ele><time>2015-2-4T7:9:10Z</time></trkpt>
<trkpt lat="46.231753947213292" lon="6.149371946230531"><ele></ele><time>2015-2-4T7:9:13Z</time></trkpt>
<trkpt lat="46.231271987780929" lon="6.149406982585788"><ele></ele><time>2015-2-4T7:9:16Z</time></trkpt>
<trkpt lat="46.230630939826369" lon="6.149358954280615"><ele></ele><time>2015-2-4T7:9:19Z</time></trkpt>
<trkpt lat="46.230083936825395" lon="6.149285947903991"><ele></ele><time>2015-2-4T7:9:22Z</time></trkpt>
<trkpt lat="46.229626955464482" lon="6.149179916828871"><ele></ele><time>2015-2-4T7:9:25Z</time></trkpt>
<trkpt lat="46.229036953300238" lon="6.149062989279628"><ele></ele><time>2015-2-4T7:9:28Z</time></trkpt>
<trkpt lat="46.228284928947687" lon="6.148863919079304"><ele></ele><time>2015-2-4T7:9:31Z</time></trkpt>
<trkpt lat="46.227576993405819" lon="6.148597961291671"><ele></ele><time>2015-2-4T7:9:34Z</time></trkpt>
<trkpt lat="46.226856987923384" lon="6.148291938006878"><ele></ele><time>2015-2-4T7:9:37Z</time></trkpt>
<trkpt lat="46.226168917492032" lon="6.147987926378846"><ele></ele><time>2015-2-4T7:9:40Z</time></trkpt>
<trkpt lat="46.225175997242332" lon="6.147849960252643"><ele></ele><time>2015-2-4T7:9:43Z</time></trkpt>
<trkpt lat="46.224709963425994" lon="6.147965965792537"><ele></ele><time>2015-2-4T7:9:46Z</time></trkpt>
<trkpt lat="46.224271925166249" lon="6.148194959387183"><ele></ele><time>2015-2-4T7:9:49Z</time></trkpt>
<trkpt lat="46.223763981834054" lon="6.148450942710042"><ele></ele><time>2015-2-4T7:9:52Z</time></trkpt>
<trkpt lat="46.223032996058464" lon="6.149051925167441"><ele></ele><time>2015-2-4T7:9:55Z</time></trkpt>
<trkpt lat="46.222406951710582" lon="6.149439923465252"><ele></ele><time>2015-2-4T7:9:58Z</time></trkpt>
<trkpt lat="46.22134898789227" lon="6.149857928976417"><ele></ele><time>2015-2-4T7:10:1Z</time></trkpt>
<trkpt lat="46.220773989334702" lon="6.149981981143355"><ele></ele><time>2015-2-4T7:10:4Z</time></trkpt>
<trkpt lat="46.220035962760448" lon="6.14962499588728"><ele></ele><time>2015-2-4T7:10:7Z</time></trkpt>
<trkpt lat="46.219584932550788" lon="6.14928393624723"><ele></ele><time>2015-2-4T7:10:10Z</time></trkpt>
<trkpt lat="46.21909492649138" lon="6.149034993723035"><ele></ele><time>2015-2-4T7:10:13Z</time></trkpt>
<trkpt lat="46.218745987862349" lon="6.148651940748096"><ele></ele><time>2015-2-4T7:10:16Z</time></trkpt>
<trkpt lat="46.21814995072782" lon="6.148264948278666"><ele></ele><time>2015-2-4T7:10:19Z</time></trkpt>
<trkpt lat="46.217600936070085" lon="6.148053975775838"><ele></ele><time>2015-2-4T7:10:22Z</time></trkpt>
<trkpt lat="46.217034989967942" lon="6.148157995194197"><ele></ele><time>2015-2-4T7:10:25Z</time></trkpt>
<trkpt lat="46.216247929260135" lon="6.14784199744463"><ele></ele><time>2015-2-4T7:10:28Z</time></trkpt>
<trkpt lat="46.215787930414081" lon="6.14758693613112"><ele></ele><time>2015-2-4T7:10:31Z</time></trkpt>
<trkpt lat="46.215173956006765" lon="6.147143952548504"><ele></ele><time>2015-2-4T7:10:34Z</time></trkpt>
<trkpt lat="46.214755950495601" lon="6.146766934543848"><ele></ele><time>2015-2-4T7:10:37Z</time></trkpt>
<trkpt lat="46.214279942214489" lon="6.146421935409308"><ele></ele><time>2015-2-4T7:10:40Z</time></trkpt>
<trkpt lat="46.213746936991811" lon="6.14608196541667"><ele></ele><time>2015-2-4T7:10:43Z</time></trkpt>
<trkpt lat="46.213112929835916" lon="6.145660942420363"><ele></ele><time>2015-2-4T7:10:46Z</time></trkpt>
<trkpt lat="46.212198967114091" lon="6.145121986046433"><ele></ele><time>2015-2-4T7:10:49Z</time></trkpt>
<trkpt lat="46.21170393191278" lon="6.14485795609653"><ele></ele><time>2015-2-4T7:10:52Z</time></trkpt>
<trkpt lat="46.21099297888577" lon="6.144432993605733"><ele></ele><time>2015-2-4T7:10:55Z</time></trkpt>
<trkpt lat="46.210610931739211" lon="6.14395497366786"><ele></ele><time>2015-2-4T7:10:58Z</time></trkpt>
<trkpt lat="46.210074992850423" lon="6.143135977908969"><ele></ele><time>2015-2-4T7:11:1Z</time></trkpt>
<trkpt lat="46.209620945155621" lon="6.142567936331034"><ele></ele><time>2015-2-4T7:11:4Z</time></trkpt>
<trkpt lat="46.209266977384686" lon="6.142029985785484"><ele></ele><time>2015-2-4T7:11:7Z</time></trkpt>
<trkpt lat="46.208637999370694" lon="6.141391955316067"><ele></ele><time>2015-2-4T7:11:10Z</time></trkpt>
<trkpt lat="46.208248995244503" lon="6.140973949804902"><ele></ele><time>2015-2-4T7:11:13Z</time></trkpt>
<trkpt lat="46.207874994724989" lon="6.140537923201919"><ele></ele><time>2015-2-4T7:11:16Z</time></trkpt>
<trkpt lat="46.207429999485612" lon="6.14002394489944"><ele></ele><time>2015-2-4T7:11:19Z</time></trkpt>
<trkpt lat="46.20703998953104" lon="6.13968095742166"><ele></ele><time>2015-2-4T7:11:22Z</time></trkpt>
<trkpt lat="46.20669892989099" lon="6.139450957998633"><ele></ele><time>2015-2-4T7:11:25Z</time></trkpt>
<trkpt lat="46.206283941864967" lon="6.139022978022695"><ele></ele><time>2015-2-4T7:11:28Z</time></trkpt>
<trkpt lat="46.206325935199857" lon="6.138480920344591"><ele></ele><time>2015-2-4T7:11:31Z</time></trkpt>
<trkpt lat="46.205753954127431" lon="6.138064926490188"><ele></ele><time>2015-2-4T7:11:34Z</time></trkpt>
<trkpt lat="46.205464946106076" lon="6.137537956237793"><ele></ele><time>2015-2-4T7:11:37Z</time></trkpt>
<trkpt lat="46.205464946106076" lon="6.136333979666233"><ele></ele><time>2015-2-4T7:11:40Z</time></trkpt>
<trkpt lat="46.205157916992903" lon="6.135565945878625"><ele></ele><time>2015-2-4T7:11:43Z</time></trkpt>
<trkpt lat="46.204779976978898" lon="6.135134948417544"><ele></ele><time>2015-2-4T7:11:46Z</time></trkpt>
<trkpt lat="46.204315954819322" lon="6.134563973173499"><ele></ele><time>2015-2-4T7:11:49Z</time></trkpt>
<trkpt lat="46.203865930438042" lon="6.133483964949846"><ele></ele><time>2015-2-4T7:11:52Z</time></trkpt>
<trkpt lat="46.203643977642059" lon="6.132628927007318"><ele></ele><time>2015-2-4T7:11:55Z</time></trkpt>
<trkpt lat="46.203457983210683" lon="6.131885955110192"><ele></ele><time>2015-2-4T7:11:58Z</time></trkpt>
<trkpt lat="46.202991949394345" lon="6.131657967343926"><ele></ele><time>2015-2-4T7:12:1Z</time></trkpt>
<trkpt lat="46.202469924464822" lon="6.131337946280837"><ele></ele><time>2015-2-4T7:12:4Z</time></trkpt>
<trkpt lat="46.201764922589064" lon="6.130895968526602"><ele></ele><time>2015-2-4T7:12:7Z</time></trkpt>
<trkpt lat="46.201417995616794" lon="6.130307978019118"><ele></ele><time>2015-2-4T7:12:10Z</time></trkpt>
<trkpt lat="46.200880967080593" lon="6.129811936989427"><ele></ele><time>2015-2-4T7:12:13Z</time></trkpt>
<trkpt lat="46.200360953807831" lon="6.129510942846537"><ele></ele><time>2015-2-4T7:12:16Z</time></trkpt>
<trkpt lat="46.199723929166794" lon="6.128735952079296"><ele></ele><time>2015-2-4T7:12:19Z</time></trkpt>
<trkpt lat="46.199365938082337" lon="6.128257932141423"><ele></ele><time>2015-2-4T7:12:22Z</time></trkpt>
<trkpt lat="46.198608968406916" lon="6.127698943018913"><ele></ele><time>2015-2-4T7:12:25Z</time></trkpt>
<trkpt lat="46.197664998471737" lon="6.127503979951143"><ele></ele><time>2015-2-4T7:12:28Z</time></trkpt>
<trkpt lat="46.196933928877115" lon="6.127198962494731"><ele></ele><time>2015-2-4T7:12:31Z</time></trkpt>
<trkpt lat="46.196238985285163" lon="6.12700492143631"><ele></ele><time>2015-2-4T7:12:34Z</time></trkpt>
<trkpt lat="46.195752918720245" lon="6.126867961138487"><ele></ele><time>2015-2-4T7:12:37Z</time></trkpt>
<trkpt lat="46.195303983986378" lon="6.126671992242336"><ele></ele><time>2015-2-4T7:12:40Z</time></trkpt>
<trkpt lat="46.194851947948337" lon="6.126319952309132"><ele></ele><time>2015-2-4T7:12:43Z</time></trkpt>
<trkpt lat="46.19455698877573" lon="6.125680999830365"><ele></ele><time>2015-2-4T7:12:46Z</time></trkpt>
<trkpt lat="46.194137977436185" lon="6.124516921117902"><ele></ele><time>2015-2-4T7:12:49Z</time></trkpt>
<trkpt lat="46.193714942783117" lon="6.123711923137307"><ele></ele><time>2015-2-4T7:12:52Z</time></trkpt>
<trkpt lat="46.193209933117032" lon="6.123030977323651"><ele></ele><time>2015-2-4T7:12:55Z</time></trkpt>
<trkpt lat="46.192837944254279" lon="6.122603919357061"><ele></ele><time>2015-2-4T7:12:58Z</time></trkpt>
<trkpt lat="46.192337963730097" lon="6.122271995991468"><ele></ele><time>2015-2-4T7:13:1Z</time></trkpt>
<trkpt lat="46.191999921575189" lon="6.121438918635249"><ele></ele><time>2015-2-4T7:13:4Z</time></trkpt>
<trkpt lat="46.191459959372878" lon="6.12068697810173"><ele></ele><time>2015-2-4T7:13:7Z</time></trkpt>
<trkpt lat="46.19103591889143" lon="6.120108962059021"><ele></ele><time>2015-2-4T7:13:10Z</time></trkpt>
<trkpt lat="46.190662924200296" lon="6.119607975706458"><ele></ele><time>2015-2-4T7:13:13Z</time></trkpt>
<trkpt lat="46.190286995843053" lon="6.119169937446713"><ele></ele><time>2015-2-4T7:13:16Z</time></trkpt>
<trkpt lat="46.189900925382972" lon="6.118073919788003"><ele></ele><time>2015-2-4T7:13:19Z</time></trkpt>
<trkpt lat="46.189570929855108" lon="6.117233969271183"><ele></ele><time>2015-2-4T7:13:22Z</time></trkpt>
<trkpt lat="46.189207993447781" lon="6.116166952997446"><ele></ele><time>2015-2-4T7:13:25Z</time></trkpt>
<trkpt lat="46.188861988484859" lon="6.115258941426873"><ele></ele><time>2015-2-4T7:13:28Z</time></trkpt>
<trkpt lat="46.188668953254819" lon="6.114536924287677"><ele></ele><time>2015-2-4T7:13:31Z</time></trkpt>
<trkpt lat="46.188487987965345" lon="6.113911969587207"><ele></ele><time>2015-2-4T7:13:34Z</time></trkpt>
<trkpt lat="46.188129996880889" lon="6.112875966355205"><ele></ele><time>2015-2-4T7:13:37Z</time></trkpt>
<trkpt lat="46.187776951119304" lon="6.111818924546242"><ele></ele><time>2015-2-4T7:13:40Z</time></trkpt>
<trkpt lat="46.187536977231503" lon="6.1110819876194"><ele></ele><time>2015-2-4T7:13:43Z</time></trkpt>
<trkpt lat="46.187118971720338" lon="6.109815984964371"><ele></ele><time>2015-2-4T7:13:46Z</time></trkpt>
<trkpt lat="46.186924930661917" lon="6.109226988628507"><ele></ele><time>2015-2-4T7:13:49Z</time></trkpt>
<trkpt lat="46.186546990647912" lon="6.108204983174801"><ele></ele><time>2015-2-4T7:13:52Z</time></trkpt>
<trkpt lat="46.186316991224885" lon="6.107443990185857"><ele></ele><time>2015-2-4T7:13:55Z</time></trkpt>
<trkpt lat="46.185986995697021" lon="6.106434976682067"><ele></ele><time>2015-2-4T7:13:58Z</time></trkpt>
<trkpt lat="46.185676949098706" lon="6.105455970391631"><ele></ele><time>2015-2-4T7:14:1Z</time></trkpt>
<trkpt lat="46.185486931353807" lon="6.104860939085484"><ele></ele><time>2015-2-4T7:14:4Z</time></trkpt>
<trkpt lat="46.185287944972515" lon="6.10424998216331"><ele></ele><time>2015-2-4T7:14:7Z</time></trkpt>
<trkpt lat="46.184870945289731" lon="6.103075928986073"><ele></ele><time>2015-2-4T7:14:10Z</time></trkpt>
<trkpt lat="46.184622924774885" lon="6.102427924051881"><ele></ele><time>2015-2-4T7:14:13Z</time></trkpt>
<trkpt lat="46.184369958937168" lon="6.101845968514681"><ele></ele><time>2015-2-4T7:14:16Z</time></trkpt>
<trkpt lat="46.183905936777592" lon="6.100942986086011"><ele></ele><time>2015-2-4T7:14:19Z</time></trkpt>
<trkpt lat="46.183516932651401" lon="6.100187944248319"><ele></ele><time>2015-2-4T7:14:22Z</time></trkpt>
<trkpt lat="46.183159947395325" lon="6.099575981497765"><ele></ele><time>2015-2-4T7:14:25Z</time></trkpt>
<trkpt lat="46.182634988799691" lon="6.098691942170262"><ele></ele><time>2015-2-4T7:14:28Z</time></trkpt>
<trkpt lat="46.182155963033438" lon="6.097796922549605"><ele></ele><time>2015-2-4T7:14:31Z</time></trkpt>
<trkpt lat="46.181598985567689" lon="6.096469983458519"><ele></ele><time>2015-2-4T7:14:34Z</time></trkpt>
<trkpt lat="46.181269995868206" lon="6.095687951892614"><ele></ele><time>2015-2-4T7:14:37Z</time></trkpt>
<trkpt lat="46.18097797036171" lon="6.094990996643901"><ele></ele><time>2015-2-4T7:14:40Z</time></trkpt>
<trkpt lat="46.180754927918315" lon="6.094415998086333"><ele></ele><time>2015-2-4T7:14:43Z</time></trkpt>
<trkpt lat="46.18042292073369" lon="6.093634972348809"><ele></ele><time>2015-2-4T7:14:46Z</time></trkpt>
<trkpt lat="46.179923946037889" lon="6.092494949698448"><ele></ele><time>2015-2-4T7:14:49Z</time></trkpt>
<trkpt lat="46.179566960781813" lon="6.091650975868106"><ele></ele><time>2015-2-4T7:14:52Z</time></trkpt>
<trkpt lat="46.179270995780826" lon="6.090913955122232"><ele></ele><time>2015-2-4T7:14:55Z</time></trkpt>
<trkpt lat="46.178946951404214" lon="6.089822966605425"><ele></ele><time>2015-2-4T7:14:58Z</time></trkpt>
<trkpt lat="46.17876498028636" lon="6.08916993252933"><ele></ele><time>2015-2-4T7:15:1Z</time></trkpt>
<trkpt lat="46.178610920906067" lon="6.088531985878944"><ele></ele><time>2015-2-4T7:15:4Z</time></trkpt>
<trkpt lat="46.178586948662996" lon="6.087294984608889"><ele></ele><time>2015-2-4T7:15:7Z</time></trkpt>
<trkpt lat="46.178672946989536" lon="6.086590988561511"><ele></ele><time>2015-2-4T7:15:10Z</time></trkpt>
<trkpt lat="46.178855923935771" lon="6.085566971451044"><ele></ele><time>2015-2-4T7:15:13Z</time></trkpt>
<trkpt lat="46.179012916982174" lon="6.084858952090144"><ele></ele><time>2015-2-4T7:15:16Z</time></trkpt>
<trkpt lat="46.178562976419926" lon="6.084769936278462"><ele></ele><time>2015-2-4T7:15:19Z</time></trkpt>
<trkpt lat="46.178470943123102" lon="6.084085972979665"><ele></ele><time>2015-2-4T7:15:22Z</time></trkpt>
<trkpt lat="46.178410928696394" lon="6.083425981923938"><ele></ele><time>2015-2-4T7:15:25Z</time></trkpt>
<trkpt lat="46.178363990038633" lon="6.082662977278233"><ele></ele><time>2015-2-4T7:15:28Z</time></trkpt>
<trkpt lat="46.178270950913429" lon="6.081388927996159"><ele></ele><time>2015-2-4T7:15:31Z</time></trkpt>
<trkpt lat="46.178112952038646" lon="6.080298945307732"><ele></ele><time>2015-2-4T7:15:34Z</time></trkpt>
<trkpt lat="46.177860992029309" lon="6.079309964552522"><ele></ele><time>2015-2-4T7:15:37Z</time></trkpt>
<trkpt lat="46.177699975669384" lon="6.078619966283441"><ele></ele><time>2015-2-4T7:15:40Z</time></trkpt>
<trkpt lat="46.177361933514476" lon="6.07808293774724"><ele></ele><time>2015-2-4T7:15:43Z</time></trkpt>
<trkpt lat="46.177192954346538" lon="6.077208956703544"><ele></ele><time>2015-2-4T7:15:46Z</time></trkpt>
<trkpt lat="46.177126988768578" lon="6.076376968994737"><ele></ele><time>2015-2-4T7:15:49Z</time></trkpt>
<trkpt lat="46.176676964387298" lon="6.075791995972395"><ele></ele><time>2015-2-4T7:15:52Z</time></trkpt>
<trkpt lat="46.176297934725881" lon="6.07496696524322"><ele></ele><time>2015-2-4T7:15:55Z</time></trkpt>
<trkpt lat="46.175857968628407" lon="6.073960969224572"><ele></ele><time>2015-2-4T7:15:58Z</time></trkpt>
<trkpt lat="46.17549997754395" lon="6.07346098870039"><ele></ele><time>2015-2-4T7:16:1Z</time></trkpt>
<trkpt lat="46.17500594817102" lon="6.072798985987902"><ele></ele><time>2015-2-4T7:16:4Z</time></trkpt>
<trkpt lat="46.17463999427855" lon="6.071668937802315"><ele></ele><time>2015-2-4T7:16:7Z</time></trkpt>
<trkpt lat="46.174418963491917" lon="6.070555988699198"><ele></ele><time>2015-2-4T7:16:10Z</time></trkpt>
<trkpt lat="46.174288960173726" lon="6.069930950179696"><ele></ele><time>2015-2-4T7:16:13Z</time></trkpt>
<trkpt lat="46.17408293299377" lon="6.069316975772381"><ele></ele><time>2015-2-4T7:16:16Z</time></trkpt>
<trkpt lat="46.174130961298943" lon="6.069533983245492"><ele></ele><time>2015-2-4T7:16:19Z</time></trkpt>
<trkpt lat="46.173929963260889" lon="6.068923948332667"><ele></ele><time>2015-2-4T7:16:22Z</time></trkpt>
<trkpt lat="46.173916971310973" lon="6.068037981167436"><ele></ele><time>2015-2-4T7:16:25Z</time></trkpt>
<trkpt lat="46.173882940784097" lon="6.066457992419601"><ele></ele><time>2015-2-4T7:16:28Z</time></trkpt>
<trkpt lat="46.173832984641194" lon="6.065557943657041"><ele></ele><time>2015-2-4T7:16:31Z</time></trkpt>
<trkpt lat="46.173745980486274" lon="6.064894935116172"><ele></ele><time>2015-2-4T7:16:34Z</time></trkpt>
<trkpt lat="46.17361094802618" lon="6.064214995130897"><ele></ele><time>2015-2-4T7:16:37Z</time></trkpt>
<trkpt lat="46.173255974426866" lon="6.06306198053062"><ele></ele><time>2015-2-4T7:16:40Z</time></trkpt>
<trkpt lat="46.172954980283976" lon="6.062269974499941"><ele></ele><time>2015-2-4T7:16:43Z</time></trkpt>
<trkpt lat="46.172500932589173" lon="6.061161970719695"><ele></ele><time>2015-2-4T7:16:46Z</time></trkpt>
<trkpt lat="46.171731976792216" lon="6.060351943597198"><ele></ele><time>2015-2-4T7:16:49Z</time></trkpt>
<trkpt lat="46.170909963548183" lon="6.059695975854993"><ele></ele><time>2015-2-4T7:16:52Z</time></trkpt>
<trkpt lat="46.170607963576913" lon="6.059141932055354"><ele></ele><time>2015-2-4T7:16:55Z</time></trkpt>
<trkpt lat="46.169823920354247" lon="6.058815959841013"><ele></ele><time>2015-2-4T7:16:58Z</time></trkpt>
<trkpt lat="46.169310947880149" lon="6.058398960158229"><ele></ele><time>2015-2-4T7:17:1Z</time></trkpt>
<trkpt lat="46.168759921565652" lon="6.057947929948568"><ele></ele><time>2015-2-4T7:17:4Z</time></trkpt>
<trkpt lat="46.168203949928284" lon="6.057494971901178"><ele></ele><time>2015-2-4T7:17:7Z</time></trkpt>
<trkpt lat="46.16757195442915" lon="6.0569809935987"><ele></ele><time>2015-2-4T7:17:10Z</time></trkpt>
<trkpt lat="46.166839962825179" lon="6.056383950635791"><ele></ele><time>2015-2-4T7:17:13Z</time></trkpt>
<trkpt lat="46.166186928749084" lon="6.055819932371378"><ele></ele><time>2015-2-4T7:17:16Z</time></trkpt>
<trkpt lat="46.165747968479991" lon="6.055323975160718"><ele></ele><time>2015-2-4T7:17:19Z</time></trkpt>
<trkpt lat="46.165450997650623" lon="6.054817959666252"><ele></ele><time>2015-2-4T7:17:22Z</time></trkpt>
<trkpt lat="46.16512494161725" lon="6.054109940305352"><ele></ele><time>2015-2-4T7:17:25Z</time></trkpt>
<trkpt lat="46.164864934980869" lon="6.053421953693032"><ele></ele><time>2015-2-4T7:17:28Z</time></trkpt>
<trkpt lat="46.164563940837979" lon="6.052574962377548"><ele></ele><time>2015-2-4T7:17:31Z</time></trkpt>
<trkpt lat="46.164248948916793" lon="6.051652953028679"><ele></ele><time>2015-2-4T7:17:34Z</time></trkpt>
<trkpt lat="46.163926916196942" lon="6.050766985863447"><ele></ele><time>2015-2-4T7:17:37Z</time></trkpt>
<trkpt lat="46.163611924275756" lon="6.049906918779016"><ele></ele><time>2015-2-4T7:17:40Z</time></trkpt>
<trkpt lat="46.163263991475105" lon="6.04892891831696"><ele></ele><time>2015-2-4T7:17:43Z</time></trkpt>
<trkpt lat="46.162894936278462" lon="6.047898950055242"><ele></ele><time>2015-2-4T7:17:46Z</time></trkpt>
<trkpt lat="46.162512972950935" lon="6.046823970973492"><ele></ele><time>2015-2-4T7:17:49Z</time></trkpt>
<trkpt lat="46.162210972979665" lon="6.045985948294401"><ele></ele><time>2015-2-4T7:17:52Z</time></trkpt>
<trkpt lat="46.161915929988027" lon="6.045164940878749"><ele></ele><time>2015-2-4T7:17:55Z</time></trkpt>
<trkpt lat="46.161605967208743" lon="6.044299928471446"><ele></ele><time>2015-2-4T7:17:58Z</time></trkpt>
<trkpt lat="46.161352917551994" lon="6.043564919382334"><ele></ele><time>2015-2-4T7:18:1Z</time></trkpt>
<trkpt lat="46.160925943404436" lon="6.042422968894243"><ele></ele><time>2015-2-4T7:18:4Z</time></trkpt>
<trkpt lat="46.160662919282913" lon="6.041690977290273"><ele></ele><time>2015-2-4T7:18:7Z</time></trkpt>
<trkpt lat="46.160417916253209" lon="6.041013970971108"><ele></ele><time>2015-2-4T7:18:10Z</time></trkpt>
<trkpt lat="46.159976944327354" lon="6.039800941944122"><ele></ele><time>2015-2-4T7:18:13Z</time></trkpt>
<trkpt lat="46.15973093546927" lon="6.039114966988564"><ele></ele><time>2015-2-4T7:18:16Z</time></trkpt>
<trkpt lat="46.159434970468283" lon="6.038358919322491"><ele></ele><time>2015-2-4T7:18:19Z</time></trkpt>
<trkpt lat="46.159009924158454" lon="6.03743196465075"><ele></ele><time>2015-2-4T7:18:22Z</time></trkpt>
<trkpt lat="46.158603988587856" lon="6.036683963611722"><ele></ele><time>2015-2-4T7:18:25Z</time></trkpt>
<trkpt lat="46.158214984461665" lon="6.036084992811084"><ele></ele><time>2015-2-4T7:18:28Z</time></trkpt>
<trkpt lat="46.157565973699093" lon="6.035316959023476"><ele></ele><time>2015-2-4T7:18:31Z</time></trkpt>
<trkpt lat="46.157115949317813" lon="6.034696949645877"><ele></ele><time>2015-2-4T7:18:34Z</time></trkpt>
<trkpt lat="46.156706996262074" lon="6.034240974113345"><ele></ele><time>2015-2-4T7:18:37Z</time></trkpt>
<trkpt lat="46.156181953847408" lon="6.033454919233918"><ele></ele><time>2015-2-4T7:18:40Z</time></trkpt>
<trkpt lat="46.155697982758284" lon="6.032776990905404"><ele></ele><time>2015-2-4T7:18:43Z</time></trkpt>
<trkpt lat="46.155343931168318" lon="6.032267957925797"><ele></ele><time>2015-2-4T7:18:46Z</time></trkpt>
<trkpt lat="46.154929948970675" lon="6.031805947422981"><ele></ele><time>2015-2-4T7:18:49Z</time></trkpt>
<trkpt lat="46.154457964003086" lon="6.032248931005597"><ele></ele><time>2015-2-4T7:18:52Z</time></trkpt>
<trkpt lat="46.154098967090249" lon="6.032691998407245"><ele></ele><time>2015-2-4T7:18:55Z</time></trkpt>
<trkpt lat="46.153554981574416" lon="6.033080918714404"><ele></ele><time>2015-2-4T7:18:58Z</time></trkpt>
<trkpt lat="46.153052989393473" lon="6.033330950886011"><ele></ele><time>2015-2-4T7:19:1Z</time></trkpt>
<trkpt lat="46.152305994182825" lon="6.033875942230225"><ele></ele><time>2015-2-4T7:19:4Z</time></trkpt>
<trkpt lat="46.151723954826593" lon="6.034539956599474"><ele></ele><time>2015-2-4T7:19:7Z</time></trkpt>
<trkpt lat="46.151105957105756" lon="6.035066926851869"><ele></ele><time>2015-2-4T7:19:10Z</time></trkpt>
<trkpt lat="46.150683928281069" lon="6.035402957350016"><ele></ele><time>2015-2-4T7:19:13Z</time></trkpt>
<trkpt lat="46.150258965790272" lon="6.035737982019782"><ele></ele><time>2015-2-4T7:19:16Z</time></trkpt>
<trkpt lat="46.14973995834589" lon="6.03616495616734"><ele></ele><time>2015-2-4T7:19:19Z</time></trkpt>
<trkpt lat="46.149256993085146" lon="6.036490928381681"><ele></ele><time>2015-2-4T7:19:22Z</time></trkpt>
<trkpt lat="46.14877293817699" lon="6.036697961390019"><ele></ele><time>2015-2-4T7:19:25Z</time></trkpt>
<trkpt lat="46.148164998739958" lon="6.037162989377976"><ele></ele><time>2015-2-4T7:19:28Z</time></trkpt>
<trkpt lat="46.147446921095252" lon="6.038054991513491"><ele></ele><time>2015-2-4T7:19:31Z</time></trkpt>
<trkpt lat="46.146957920864224" lon="6.038701990619302"><ele></ele><time>2015-2-4T7:19:34Z</time></trkpt>
<trkpt lat="46.146500939503312" lon="6.039858944714069"><ele></ele><time>2015-2-4T7:19:37Z</time></trkpt>
<trkpt lat="46.146246967837214" lon="6.040526982396841"><ele></ele><time>2015-2-4T7:19:40Z</time></trkpt>
<trkpt lat="46.145862992852926" lon="6.041225949302316"><ele></ele><time>2015-2-4T7:19:43Z</time></trkpt>
<trkpt lat="46.145469965413213" lon="6.041927933692932"><ele></ele><time>2015-2-4T7:19:46Z</time></trkpt>
<trkpt lat="46.145109962671995" lon="6.042592953890562"><ele></ele><time>2015-2-4T7:19:49Z</time></trkpt>
<trkpt lat="46.144616939127445" lon="6.043521920219064"><ele></ele><time>2015-2-4T7:19:52Z</time></trkpt>
<trkpt lat="46.144263977184892" lon="6.044014943763614"><ele></ele><time>2015-2-4T7:19:55Z</time></trkpt>
<trkpt lat="46.143712950870395" lon="6.044738972559571"><ele></ele><time>2015-2-4T7:19:58Z</time></trkpt>
<trkpt lat="46.143254963681102" lon="6.044966960325837"><ele></ele><time>2015-2-4T7:20:1Z</time></trkpt>
<trkpt lat="46.142904935404658" lon="6.044084932655096"><ele></ele><time>2015-2-4T7:20:4Z</time></trkpt>
<trkpt lat="46.142558930441737" lon="6.043364927172661"><ele></ele><time>2015-2-4T7:20:7Z</time></trkpt>
<trkpt lat="46.141979992389679" lon="6.042624972760677"><ele></ele><time>2015-2-4T7:20:10Z</time></trkpt>
<trkpt lat="46.141283959150314" lon="6.042345939204097"><ele></ele><time>2015-2-4T7:20:13Z</time></trkpt>
<trkpt lat="46.14071499556303" lon="6.041823998093605"><ele></ele><time>2015-2-4T7:20:16Z</time></trkpt>
<trkpt lat="46.140058944001794" lon="6.041037943214178"><ele></ele><time>2015-2-4T7:20:19Z</time></trkpt>
<trkpt lat="46.139901950955391" lon="6.039911918342114"><ele></ele><time>2015-2-4T7:20:22Z</time></trkpt>
<trkpt lat="46.139584947377443" lon="6.039028968662024"><ele></ele><time>2015-2-4T7:20:25Z</time></trkpt>
<trkpt lat="46.139100976288319" lon="6.038436954841018"><ele></ele><time>2015-2-4T7:20:28Z</time></trkpt>
<trkpt lat="46.138662938028574" lon="6.03788391686976"><ele></ele><time>2015-2-4T7:20:31Z</time></trkpt>
<trkpt lat="46.138250967487693" lon="6.037295926362276"><ele></ele><time>2015-2-4T7:20:34Z</time></trkpt>
<trkpt lat="46.137655936181545" lon="6.036664936691523"><ele></ele><time>2015-2-4T7:20:37Z</time></trkpt>
<trkpt lat="46.137124942615628" lon="6.036271993070841"><ele></ele><time>2015-2-4T7:20:40Z</time></trkpt>
<trkpt lat="46.136511974036694" lon="6.03596898727119"><ele></ele><time>2015-2-4T7:20:43Z</time></trkpt>
<trkpt lat="46.13388491794467" lon="6.034918986260891"><ele></ele><time>2015-2-4T7:20:46Z</time></trkpt>
<trkpt lat="46.133301956579089" lon="6.034324960783124"><ele></ele><time>2015-2-4T7:20:49Z</time></trkpt>
<trkpt lat="46.132642971351743" lon="6.033584922552109"><ele></ele><time>2015-2-4T7:20:52Z</time></trkpt>
<trkpt lat="46.132286991924047" lon="6.033045966178179"><ele></ele><time>2015-2-4T7:20:55Z</time></trkpt>
<trkpt lat="46.131834955886006" lon="6.032203920185566"><ele></ele><time>2015-2-4T7:20:58Z</time></trkpt>
<trkpt lat="46.131337992846966" lon="6.031272942200303"><ele></ele><time>2015-2-4T7:21:1Z</time></trkpt>
<trkpt lat="46.130964998155832" lon="6.030581938102841"><ele></ele><time>2015-2-4T7:21:4Z</time></trkpt>
<trkpt lat="46.130631985142827" lon="6.029969975352287"><ele></ele><time>2015-2-4T7:21:7Z</time></trkpt>
<trkpt lat="46.130112977698445" lon="6.02918098680675"><ele></ele><time>2015-2-4T7:21:10Z</time></trkpt>
<trkpt lat="46.129704946652055" lon="6.02873096242547"><ele></ele><time>2015-2-4T7:21:13Z</time></trkpt>
<trkpt lat="46.129144951701164" lon="6.028110953047872"><ele></ele><time>2015-2-4T7:21:16Z</time></trkpt>
<trkpt lat="46.128579927608371" lon="6.027487926185131"><ele></ele><time>2015-2-4T7:21:19Z</time></trkpt>
<trkpt lat="46.128028985112906" lon="6.027211993932724"><ele></ele><time>2015-2-4T7:21:22Z</time></trkpt>
<trkpt lat="46.127455998212099" lon="6.027478957548738"><ele></ele><time>2015-2-4T7:21:25Z</time></trkpt>
<trkpt lat="46.126863984391093" lon="6.028261994943023"><ele></ele><time>2015-2-4T7:21:28Z</time></trkpt>
<trkpt lat="46.126393927261233" lon="6.028794916346669"><ele></ele><time>2015-2-4T7:21:31Z</time></trkpt>
<trkpt lat="46.125735947862267" lon="6.029402939602733"><ele></ele><time>2015-2-4T7:21:34Z</time></trkpt>
<trkpt lat="46.125286929309368" lon="6.02980493567884"><ele></ele><time>2015-2-4T7:21:37Z</time></trkpt>
<trkpt lat="46.1248829215765" lon="6.030240962281823"><ele></ele><time>2015-2-4T7:21:40Z</time></trkpt>
<trkpt lat="46.124427951872349" lon="6.030990974977613"><ele></ele><time>2015-2-4T7:21:43Z</time></trkpt>
<trkpt lat="46.123926965519786" lon="6.031820951029658"><ele></ele><time>2015-2-4T7:21:46Z</time></trkpt>
<trkpt lat="46.123585989698768" lon="6.032371977344155"><ele></ele><time>2015-2-4T7:21:49Z</time></trkpt>
<trkpt lat="46.123237973079085" lon="6.032976983115077"><ele></ele><time>2015-2-4T7:21:52Z</time></trkpt>
<trkpt lat="46.122963968664408" lon="6.033572936430574"><ele></ele><time>2015-2-4T7:21:55Z</time></trkpt>
<trkpt lat="46.122463988140225" lon="6.034625954926014"><ele></ele><time>2015-2-4T7:21:58Z</time></trkpt>
<trkpt lat="46.122064925730228" lon="6.035183938220143"><ele></ele><time>2015-2-4T7:22:1Z</time></trkpt>
<trkpt lat="46.1216139793396" lon="6.035772934556007"><ele></ele><time>2015-2-4T7:22:4Z</time></trkpt>
<trkpt lat="46.121161943301558" lon="6.036338964477181"><ele></ele><time>2015-2-4T7:22:7Z</time></trkpt>
<trkpt lat="46.120416959747672" lon="6.036884961649776"><ele></ele><time>2015-2-4T7:22:10Z</time></trkpt>
<trkpt lat="46.119653955101967" lon="6.037403969094157"><ele></ele><time>2015-2-4T7:22:13Z</time></trkpt>
<trkpt lat="46.119049955159426" lon="6.037910990417004"><ele></ele><time>2015-2-4T7:22:16Z</time></trkpt>
<trkpt lat="46.118448972702026" lon="6.038368977606297"><ele></ele><time>2015-2-4T7:22:19Z</time></trkpt>
<trkpt lat="46.117876991629601" lon="6.038250960409641"><ele></ele><time>2015-2-4T7:22:22Z</time></trkpt>
<trkpt lat="46.117437947541475" lon="6.037900932133198"><ele></ele><time>2015-2-4T7:22:25Z</time></trkpt>
<trkpt lat="46.116922963410616" lon="6.037593986839056"><ele></ele><time>2015-2-4T7:22:28Z</time></trkpt>
<trkpt lat="46.116449972614646" lon="6.037842929363251"><ele></ele><time>2015-2-4T7:22:31Z</time></trkpt>
<trkpt lat="46.116104973480105" lon="6.038400996476412"><ele></ele><time>2015-2-4T7:22:34Z</time></trkpt>
<trkpt lat="46.115783946588635" lon="6.038932995870709"><ele></ele><time>2015-2-4T7:22:37Z</time></trkpt>
<trkpt lat="46.115404916927218" lon="6.039527943357825"><ele></ele><time>2015-2-4T7:22:40Z</time></trkpt>
<trkpt lat="46.114900996908545" lon="6.040015937760472"><ele></ele><time>2015-2-4T7:22:43Z</time></trkpt>
<trkpt lat="46.114294985309243" lon="6.040244931355119"><ele></ele><time>2015-2-4T7:22:46Z</time></trkpt>
<trkpt lat="46.113604987040162" lon="6.040224982425571"><ele></ele><time>2015-2-4T7:22:49Z</time></trkpt>
<trkpt lat="46.112937955185771" lon="6.040186928585172"><ele></ele><time>2015-2-4T7:22:52Z</time></trkpt>
<trkpt lat="46.112398998811841" lon="6.040058936923742"><ele></ele><time>2015-2-4T7:22:55Z</time></trkpt>
<trkpt lat="46.11186096444726" lon="6.039600949734449"><ele></ele><time>2015-2-4T7:22:58Z</time></trkpt>
<trkpt lat="46.111323935911059" lon="6.039117984473705"><ele></ele><time>2015-2-4T7:23:1Z</time></trkpt>
<trkpt lat="46.110813980922103" lon="6.038659997284412"><ele></ele><time>2015-2-4T7:23:4Z</time></trkpt>
<trkpt lat="46.110130939632654" lon="6.038059936836362"><ele></ele><time>2015-2-4T7:23:7Z</time></trkpt>
<trkpt lat="46.109555941075087" lon="6.037556938827038"><ele></ele><time>2015-2-4T7:23:10Z</time></trkpt>
<trkpt lat="46.109085967764258" lon="6.037141950801015"><ele></ele><time>2015-2-4T7:23:13Z</time></trkpt>
<trkpt lat="46.108554974198341" lon="6.036664936691523"><ele></ele><time>2015-2-4T7:23:16Z</time></trkpt>
<trkpt lat="46.10801693983376" lon="6.036170991137624"><ele></ele><time>2015-2-4T7:23:19Z</time></trkpt>
<trkpt lat="46.107458956539631" lon="6.035674950107932"><ele></ele><time>2015-2-4T7:23:22Z</time></trkpt>
<trkpt lat="46.106784967705607" lon="6.035076985135675"><ele></ele><time>2015-2-4T7:23:25Z</time></trkpt>
<trkpt lat="46.106409961357713" lon="6.0349599737674"><ele></ele><time>2015-2-4T7:23:28Z</time></trkpt>
<trkpt lat="46.105997990816832" lon="6.034433925524354"><ele></ele><time>2015-2-4T7:23:31Z</time></trkpt>
<trkpt lat="46.105619966983795" lon="6.034054979681969"><ele></ele><time>2015-2-4T7:23:34Z</time></trkpt>
<trkpt lat="46.105095930397511" lon="6.033579977229238"><ele></ele><time>2015-2-4T7:23:37Z</time></trkpt>
<trkpt lat="46.104713967069983" lon="6.033231960609555"><ele></ele><time>2015-2-4T7:23:40Z</time></trkpt>
<trkpt lat="46.10408297739923" lon="6.032649921253324"><ele></ele><time>2015-2-4T7:23:43Z</time></trkpt>
<trkpt lat="46.103456933051348" lon="6.032070983201265"><ele></ele><time>2015-2-4T7:23:46Z</time></trkpt>
<trkpt lat="46.102667944505811" lon="6.031351983547211"><ele></ele><time>2015-2-4T7:23:49Z</time></trkpt>
<trkpt lat="46.102140974253416" lon="6.030869940295816"><ele></ele><time>2015-2-4T7:23:52Z</time></trkpt>
<trkpt lat="46.101474948227406" lon="6.030261917039752"><ele></ele><time>2015-2-4T7:23:55Z</time></trkpt>
<trkpt lat="46.100703980773687" lon="6.029558926820755"><ele></ele><time>2015-2-4T7:23:58Z</time></trkpt>
<trkpt lat="46.100013982504606" lon="6.028926931321621"><ele></ele><time>2015-2-4T7:24:1Z</time></trkpt>
<trkpt lat="46.099551972001791" lon="6.028505992144346"><ele></ele><time>2015-2-4T7:24:4Z</time></trkpt>
<trkpt lat="46.099167997017503" lon="6.028152946382761"><ele></ele><time>2015-2-4T7:24:7Z</time></trkpt>
<trkpt lat="46.098726941272616" lon="6.027754973620176"><ele></ele><time>2015-2-4T7:24:10Z</time></trkpt>
<trkpt lat="46.098046917468309" lon="6.027133958414197"><ele></ele><time>2015-2-4T7:24:13Z</time></trkpt>
<trkpt lat="46.097544925287366" lon="6.026675971224904"><ele></ele><time>2015-2-4T7:24:16Z</time></trkpt>
<trkpt lat="46.097113927826285" lon="6.026283949613571"><ele></ele><time>2015-2-4T7:24:19Z</time></trkpt>
<trkpt lat="46.096442956477404" lon="6.025674920529127"><ele></ele><time>2015-2-4T7:24:22Z</time></trkpt>
<trkpt lat="46.095818923786283" lon="6.025107968598604"><ele></ele><time>2015-2-4T7:24:25Z</time></trkpt>
<trkpt lat="46.095237974077463" lon="6.024570940062404"><ele></ele><time>2015-2-4T7:24:28Z</time></trkpt>
<trkpt lat="46.09467294998467" lon="6.024048998951912"><ele></ele><time>2015-2-4T7:24:31Z</time></trkpt>
<trkpt lat="46.094097951427102" lon="6.023545917123556"><ele></ele><time>2015-2-4T7:24:34Z</time></trkpt>
<trkpt lat="46.093474924564362" lon="6.023002937436104"><ele></ele><time>2015-2-4T7:24:37Z</time></trkpt>
<trkpt lat="46.092854999005795" lon="6.022441936656833"><ele></ele><time>2015-2-4T7:24:40Z</time></trkpt>
<trkpt lat="46.092364992946386" lon="6.022015968337655"><ele></ele><time>2015-2-4T7:24:43Z</time></trkpt>
<trkpt lat="46.091805920004845" lon="6.021517999470234"><ele></ele><time>2015-2-4T7:24:46Z</time></trkpt>
<trkpt lat="46.091272998601198" lon="6.021034950390458"><ele></ele><time>2015-2-4T7:24:49Z</time></trkpt>
<trkpt lat="46.090866979211569" lon="6.020668996497989"><ele></ele><time>2015-2-4T7:24:52Z</time></trkpt>
<trkpt lat="46.090394994243979" lon="6.020240932703018"><ele></ele><time>2015-2-4T7:24:55Z</time></trkpt>
<trkpt lat="46.089853942394257" lon="6.019753944128752"><ele></ele><time>2015-2-4T7:24:58Z</time></trkpt>
<trkpt lat="46.089301994070411" lon="6.019249940291047"><ele></ele><time>2015-2-4T7:25:1Z</time></trkpt>
<trkpt lat="46.088836966082454" lon="6.018821960315108"><ele></ele><time>2015-2-4T7:25:4Z</time></trkpt>
<trkpt lat="46.088303960859776" lon="6.018338995054364"><ele></ele><time>2015-2-4T7:25:7Z</time></trkpt>
<trkpt lat="46.087895929813385" lon="6.01796499453485"><ele></ele><time>2015-2-4T7:25:10Z</time></trkpt>
<trkpt lat="46.087508937343955" lon="6.017613960430026"><ele></ele><time>2015-2-4T7:25:13Z</time></trkpt>
<trkpt lat="46.086825979873538" lon="6.017004931345582"><ele></ele><time>2015-2-4T7:25:16Z</time></trkpt>
<trkpt lat="46.086271936073899" lon="6.0165049508214"><ele></ele><time>2015-2-4T7:25:19Z</time></trkpt>
<trkpt lat="46.085673971101642" lon="6.01596892811358"><ele></ele><time>2015-2-4T7:25:22Z</time></trkpt>
<trkpt lat="46.085055973380804" lon="6.015399964526296"><ele></ele><time>2015-2-4T7:25:25Z</time></trkpt>
<trkpt lat="46.084333956241608" lon="6.014738967642188"><ele></ele><time>2015-2-4T7:25:28Z</time></trkpt>
<trkpt lat="46.083913939073682" lon="6.014364967122674"><ele></ele><time>2015-2-4T7:25:31Z</time></trkpt>
<trkpt lat="46.083417981863022" lon="6.013918966054916"><ele></ele><time>2015-2-4T7:25:34Z</time></trkpt>
<trkpt lat="46.082776933908463" lon="6.013338938355446"><ele></ele><time>2015-2-4T7:25:37Z</time></trkpt>
<trkpt lat="46.082125995308161" lon="6.012752959504724"><ele></ele><time>2015-2-4T7:25:40Z</time></trkpt>
<trkpt lat="46.081720981746912" lon="6.012393962591887"><ele></ele><time>2015-2-4T7:25:43Z</time></trkpt>
<trkpt lat="46.081288978457451" lon="6.011997917667031"><ele></ele><time>2015-2-4T7:25:46Z</time></trkpt>
<trkpt lat="46.080741975456476" lon="6.011502966284752"><ele></ele><time>2015-2-4T7:25:49Z</time></trkpt>
<trkpt lat="46.080265967175364" lon="6.011071968823671"><ele></ele><time>2015-2-4T7:25:52Z</time></trkpt>
<trkpt lat="46.079666996374726" lon="6.010524965822697"><ele></ele><time>2015-2-4T7:25:55Z</time></trkpt>
<trkpt lat="46.079238932579756" lon="6.01012397557497"><ele></ele><time>2015-2-4T7:25:58Z</time></trkpt>
<trkpt lat="46.07877298258245" lon="6.009679986163974"><ele></ele><time>2015-2-4T7:26:1Z</time></trkpt>
<trkpt lat="46.078196978196502" lon="6.009190985932946"><ele></ele><time>2015-2-4T7:26:4Z</time></trkpt>
<trkpt lat="46.077640922740102" lon="6.008690921589732"><ele></ele><time>2015-2-4T7:26:7Z</time></trkpt>
<trkpt lat="46.077015968039632" lon="6.008130926638842"><ele></ele><time>2015-2-4T7:26:10Z</time></trkpt>
<trkpt lat="46.076184986159205" lon="6.007262980565429"><ele></ele><time>2015-2-4T7:26:13Z</time></trkpt>
<trkpt lat="46.075473949313164" lon="6.006458988413215"><ele></ele><time>2015-2-4T7:26:16Z</time></trkpt>
<trkpt lat="46.074621928855777" lon="6.005505966022611"><ele></ele><time>2015-2-4T7:26:19Z</time></trkpt>
<trkpt lat="46.074228985235095" lon="6.005071951076388"><ele></ele><time>2015-2-4T7:26:22Z</time></trkpt>
<trkpt lat="46.073487941175699" lon="6.004228983074427"><ele></ele><time>2015-2-4T7:26:25Z</time></trkpt>
<trkpt lat="46.072611948475242" lon="6.003240924328566"><ele></ele><time>2015-2-4T7:26:28Z</time></trkpt>
<trkpt lat="46.071790941059589" lon="6.00234498269856"><ele></ele><time>2015-2-4T7:26:31Z</time></trkpt>
<trkpt lat="46.071271933615208" lon="6.001721955835819"><ele></ele><time>2015-2-4T7:26:34Z</time></trkpt>
<trkpt lat="46.070923916995525" lon="6.001102952286601"><ele></ele><time>2015-2-4T7:26:37Z</time></trkpt>
<trkpt lat="46.070538936182857" lon="6.000194940716028"><ele></ele><time>2015-2-4T7:26:40Z</time></trkpt>
<trkpt lat="46.070263925939798" lon="5.999493962153792"><ele></ele><time>2015-2-4T7:26:43Z</time></trkpt>
<trkpt lat="46.070190919563174" lon="5.998822990804911"><ele></ele><time>2015-2-4T7:26:46Z</time></trkpt>
<trkpt lat="46.070510940626264" lon="5.997262950986624"><ele></ele><time>2015-2-4T7:26:49Z</time></trkpt>
<trkpt lat="46.070741945877671" lon="5.99669692106545"><ele></ele><time>2015-2-4T7:26:52Z</time></trkpt>
<trkpt lat="46.071149976924062" lon="5.995874991640449"><ele></ele><time>2015-2-4T7:26:55Z</time></trkpt>
<trkpt lat="46.071561947464943" lon="5.994930937886238"><ele></ele><time>2015-2-4T7:26:58Z</time></trkpt>
<trkpt lat="46.071810973808169" lon="5.994249992072582"><ele></ele><time>2015-2-4T7:27:1Z</time></trkpt>
<trkpt lat="46.072100987657905" lon="5.993406940251589"><ele></ele><time>2015-2-4T7:27:4Z</time></trkpt>
<trkpt lat="46.072254963219166" lon="5.992568917572498"><ele></ele><time>2015-2-4T7:27:7Z</time></trkpt>
<trkpt lat="46.072115991264582" lon="5.992002971470356"><ele></ele><time>2015-2-4T7:27:10Z</time></trkpt>
<trkpt lat="46.071876939386129" lon="5.991362929344177"><ele></ele><time>2015-2-4T7:27:13Z</time></trkpt>
<trkpt lat="46.071136984974146" lon="5.990534964948893"><ele></ele><time>2015-2-4T7:27:16Z</time></trkpt>
<trkpt lat="46.070634992793202" lon="5.990153923630714"><ele></ele><time>2015-2-4T7:27:19Z</time></trkpt>
<trkpt lat="46.07015797868371" lon="5.989681938663125"><ele></ele><time>2015-2-4T7:27:22Z</time></trkpt>
<trkpt lat="46.069787917658687" lon="5.989274997264147"><ele></ele><time>2015-2-4T7:27:25Z</time></trkpt>
<trkpt lat="46.069354992359877" lon="5.988929998129606"><ele></ele><time>2015-2-4T7:27:28Z</time></trkpt>
<trkpt lat="46.068819975480437" lon="5.988580975681543"><ele></ele><time>2015-2-4T7:27:31Z</time></trkpt>
<trkpt lat="46.068198960274458" lon="5.988570917397738"><ele></ele><time>2015-2-4T7:27:34Z</time></trkpt>
<trkpt lat="46.067704930901527" lon="5.989095959812403"><ele></ele><time>2015-2-4T7:27:37Z</time></trkpt>
<trkpt lat="46.06650891713798" lon="5.988907953724265"><ele></ele><time>2015-2-4T7:27:40Z</time></trkpt>
<trkpt lat="46.065267976373434" lon="5.988630931824446"><ele></ele><time>2015-2-4T7:27:43Z</time></trkpt>
<trkpt lat="46.064564986154437" lon="5.988146960735321"><ele></ele><time>2015-2-4T7:27:46Z</time></trkpt>
<trkpt lat="46.064183944836259" lon="5.987321930006146"><ele></ele><time>2015-2-4T7:27:49Z</time></trkpt>
<trkpt lat="46.063866941258311" lon="5.986488936468959"><ele></ele><time>2015-2-4T7:27:52Z</time></trkpt>
<trkpt lat="46.063436949625611" lon="5.98586892709136"><ele></ele><time>2015-2-4T7:27:55Z</time></trkpt>
<trkpt lat="46.062935963273048" lon="5.985745964571834"><ele></ele><time>2015-2-4T7:27:58Z</time></trkpt>
<trkpt lat="46.062433971092105" lon="5.985968923196197"><ele></ele><time>2015-2-4T7:28:1Z</time></trkpt>
<trkpt lat="46.061955951154232" lon="5.98625591956079"><ele></ele><time>2015-2-4T7:28:4Z</time></trkpt>
<trkpt lat="46.061168974265456" lon="5.986647941172123"><ele></ele><time>2015-2-4T7:28:7Z</time></trkpt>
<trkpt lat="46.060647955164313" lon="5.986636960878968"><ele></ele><time>2015-2-4T7:28:10Z</time></trkpt>
<trkpt lat="46.060143951326609" lon="5.986428922042251"><ele></ele><time>2015-2-4T7:28:13Z</time></trkpt>
<trkpt lat="46.059662997722626" lon="5.986121976748109"><ele></ele><time>2015-2-4T7:28:16Z</time></trkpt>
<trkpt lat="46.0589649528265" lon="5.985469948500395"><ele></ele><time>2015-2-4T7:28:19Z</time></trkpt>
<trkpt lat="46.058548958972096" lon="5.984631925821304"><ele></ele><time>2015-2-4T7:28:22Z</time></trkpt>
<trkpt lat="46.058421973139048" lon="5.983505984768271"><ele></ele><time>2015-2-4T7:28:25Z</time></trkpt>
<trkpt lat="46.058262968435884" lon="5.982500994578004"><ele></ele><time>2015-2-4T7:28:28Z</time></trkpt>
<trkpt lat="46.057986952364445" lon="5.981344962492585"><ele></ele><time>2015-2-4T7:28:31Z</time></trkpt>
<trkpt lat="46.057700961828232" lon="5.980450948700309"><ele></ele><time>2015-2-4T7:28:34Z</time></trkpt>
<trkpt lat="46.057242974638939" lon="5.979827921837568"><ele></ele><time>2015-2-4T7:28:37Z</time></trkpt>
<trkpt lat="46.056627994403243" lon="5.980170993134379"><ele></ele><time>2015-2-4T7:28:40Z</time></trkpt>
<trkpt lat="46.056181993335485" lon="5.980329997837544"><ele></ele><time>2015-2-4T7:28:43Z</time></trkpt>
<trkpt lat="46.055262917652726" lon="5.980000924319029"><ele></ele><time>2015-2-4T7:28:46Z</time></trkpt>
<trkpt lat="46.054781964048743" lon="5.980048952624202"><ele></ele><time>2015-2-4T7:28:49Z</time></trkpt>
<trkpt lat="46.054082997143269" lon="5.980385988950729"><ele></ele><time>2015-2-4T7:28:52Z</time></trkpt>
<trkpt lat="46.053607994690537" lon="5.980340978130698"><ele></ele><time>2015-2-4T7:28:55Z</time></trkpt>
<trkpt lat="46.053041964769363" lon="5.980067979544401"><ele></ele><time>2015-2-4T7:28:58Z</time></trkpt>
<trkpt lat="46.052405945956707" lon="5.980381965637207"><ele></ele><time>2015-2-4T7:29:1Z</time></trkpt>
<trkpt lat="46.051833964884281" lon="5.981148993596435"><ele></ele><time>2015-2-4T7:29:4Z</time></trkpt>
<trkpt lat="46.051141954958439" lon="5.981306992471218"><ele></ele><time>2015-2-4T7:29:7Z</time></trkpt>
<trkpt lat="46.049721976742148" lon="5.980942966416478"><ele></ele><time>2015-2-4T7:29:10Z</time></trkpt>
<trkpt lat="46.04854691773653" lon="5.980634931474924"><ele></ele><time>2015-2-4T7:29:13Z</time></trkpt>
<trkpt lat="46.047580987215042" lon="5.980345923453569"><ele></ele><time>2015-2-4T7:29:16Z</time></trkpt>
<trkpt lat="46.046987967565656" lon="5.980228995904326"><ele></ele><time>2015-2-4T7:29:19Z</time></trkpt>
<trkpt lat="46.046088924631476" lon="5.980082983151078"><ele></ele><time>2015-2-4T7:29:22Z</time></trkpt>
<trkpt lat="46.045370930805802" lon="5.979856923222542"><ele></ele><time>2015-2-4T7:29:25Z</time></trkpt>
<trkpt lat="46.044809930026531" lon="5.979728931561112"><ele></ele><time>2015-2-4T7:29:28Z</time></trkpt>
<trkpt lat="46.044309949502349" lon="5.979607980698347"><ele></ele><time>2015-2-4T7:29:31Z</time></trkpt>
<trkpt lat="46.04388196952641" lon="5.979193998500705"><ele></ele><time>2015-2-4T7:29:34Z</time></trkpt>
<trkpt lat="46.043454995378852" lon="5.978400986641645"><ele></ele><time>2015-2-4T7:29:37Z</time></trkpt>
<trkpt lat="46.043026931583881" lon="5.977525999769568"><ele></ele><time>2015-2-4T7:29:40Z</time></trkpt>
<trkpt lat="46.042689979076385" lon="5.976864919066429"><ele></ele><time>2015-2-4T7:29:43Z</time></trkpt>
<trkpt lat="46.042298963293433" lon="5.976239964365959"><ele></ele><time>2015-2-4T7:29:46Z</time></trkpt>
<trkpt lat="46.041687922552228" lon="5.975356930866838"><ele></ele><time>2015-2-4T7:29:49Z</time></trkpt>
<trkpt lat="46.041313922032714" lon="5.974819986149669"><ele></ele><time>2015-2-4T7:29:52Z</time></trkpt>
<trkpt lat="46.040929947048426" lon="5.974286980926991"><ele></ele><time>2015-2-4T7:29:55Z</time></trkpt>
<trkpt lat="46.040564998984337" lon="5.973773924633861"><ele></ele><time>2015-2-4T7:29:58Z</time></trkpt>
<trkpt lat="46.039961921051145" lon="5.972929950803518"><ele></ele><time>2015-2-4T7:30:1Z</time></trkpt>
<trkpt lat="46.039379965513945" lon="5.972087988629937"><ele></ele><time>2015-2-4T7:30:4Z</time></trkpt>
<trkpt lat="46.038719974458218" lon="5.971138989552856"><ele></ele><time>2015-2-4T7:30:7Z</time></trkpt>
<trkpt lat="46.038188980892301" lon="5.970717966556549"><ele></ele><time>2015-2-4T7:30:10Z</time></trkpt>
<trkpt lat="46.037324974313378" lon="5.970629956573248"><ele></ele><time>2015-2-4T7:30:13Z</time></trkpt>
<trkpt lat="46.036875955760479" lon="5.970595926046372"><ele></ele><time>2015-2-4T7:30:16Z</time></trkpt>
<trkpt lat="46.03601798415184" lon="5.970533983781934"><ele></ele><time>2015-2-4T7:30:19Z</time></trkpt>
<trkpt lat="46.035468969494104" lon="5.970475981011987"><ele></ele><time>2015-2-4T7:30:22Z</time></trkpt>
<trkpt lat="46.034873938187957" lon="5.970137938857079"><ele></ele><time>2015-2-4T7:30:25Z</time></trkpt>
<trkpt lat="46.034724991768599" lon="5.968788955360651"><ele></ele><time>2015-2-4T7:30:28Z</time></trkpt>
<trkpt lat="46.034680986776948" lon="5.967978928238154"><ele></ele><time>2015-2-4T7:30:31Z</time></trkpt>
<trkpt lat="46.034494992345572" lon="5.967279961332679"><ele></ele><time>2015-2-4T7:30:34Z</time></trkpt>
<trkpt lat="46.03395695798099" lon="5.966886933892965"><ele></ele><time>2015-2-4T7:30:37Z</time></trkpt>
<trkpt lat="46.033045928925276" lon="5.966324927285314"><ele></ele><time>2015-2-4T7:30:40Z</time></trkpt>
<trkpt lat="46.032498925924301" lon="5.965966936200857"><ele></ele><time>2015-2-4T7:30:43Z</time></trkpt>
<trkpt lat="46.032059965655208" lon="5.965661918744445"><ele></ele><time>2015-2-4T7:30:46Z</time></trkpt>
<trkpt lat="46.030941987410188" lon="5.964880976825953"><ele></ele><time>2015-2-4T7:30:49Z</time></trkpt>
<trkpt lat="46.030155932530761" lon="5.964349983260036"><ele></ele><time>2015-2-4T7:30:52Z</time></trkpt>
<trkpt lat="46.02965896949172" lon="5.964031973853707"><ele></ele><time>2015-2-4T7:30:55Z</time></trkpt>
<trkpt lat="46.029161922633648" lon="5.963554959744215"><ele></ele><time>2015-2-4T7:30:58Z</time></trkpt>
<trkpt lat="46.028984980657697" lon="5.962759936228395"><ele></ele><time>2015-2-4T7:31:1Z</time></trkpt>
<trkpt lat="46.028803931549191" lon="5.961698954924941"><ele></ele><time>2015-2-4T7:31:4Z</time></trkpt>
<trkpt lat="46.028947932645679" lon="5.960895968601108"><ele></ele><time>2015-2-4T7:31:7Z</time></trkpt>
<trkpt lat="46.029269965365529" lon="5.960378972813487"><ele></ele><time>2015-2-4T7:31:10Z</time></trkpt>
<trkpt lat="46.029660981148481" lon="5.959981922060251"><ele></ele><time>2015-2-4T7:31:13Z</time></trkpt>
<trkpt lat="46.029992988333106" lon="5.959157980978489"><ele></ele><time>2015-2-4T7:31:16Z</time></trkpt>
<trkpt lat="46.030266992747784" lon="5.958263967186213"><ele></ele><time>2015-2-4T7:31:19Z</time></trkpt>
<trkpt lat="46.030168924480677" lon="5.957427956163883"><ele></ele><time>2015-2-4T7:31:22Z</time></trkpt>
<trkpt lat="46.030139923095703" lon="5.956328921020031"><ele></ele><time>2015-2-4T7:31:25Z</time></trkpt>
<trkpt lat="46.030123997479677" lon="5.955583937466145"><ele></ele><time>2015-2-4T7:31:28Z</time></trkpt>
<trkpt lat="46.030118968337774" lon="5.954803917557001"><ele></ele><time>2015-2-4T7:31:31Z</time></trkpt>
<trkpt lat="46.030062977224588" lon="5.953917950391769"><ele></ele><time>2015-2-4T7:31:34Z</time></trkpt>
<trkpt lat="46.030000951141119" lon="5.953112952411175"><ele></ele><time>2015-2-4T7:31:37Z</time></trkpt>
<trkpt lat="46.029928950592875" lon="5.952087929472327"><ele></ele><time>2015-2-4T7:31:40Z</time></trkpt>
<trkpt lat="46.029625944793224" lon="5.950565943494439"><ele></ele><time>2015-2-4T7:31:43Z</time></trkpt>
<trkpt lat="46.029240963980556" lon="5.950039979070425"><ele></ele><time>2015-2-4T7:31:46Z</time></trkpt>
<trkpt lat="46.028276961296797" lon="5.949975941330195"><ele></ele><time>2015-2-4T7:31:49Z</time></trkpt>
<trkpt lat="46.02781193330884" lon="5.949862953275442"><ele></ele><time>2015-2-4T7:31:52Z</time></trkpt>
<trkpt lat="46.027228971943259" lon="5.949646951630712"><ele></ele><time>2015-2-4T7:31:55Z</time></trkpt>
<trkpt lat="46.026460938155651" lon="5.949349980801344"><ele></ele><time>2015-2-4T7:31:58Z</time></trkpt>
<trkpt lat="46.025955928489566" lon="5.949135990813375"><ele></ele><time>2015-2-4T7:32:1Z</time></trkpt>
<trkpt lat="46.025606989860535" lon="5.948573984205723"><ele></ele><time>2015-2-4T7:32:4Z</time></trkpt>
<trkpt lat="46.025416972115636" lon="5.947411917150021"><ele></ele><time>2015-2-4T7:32:7Z</time></trkpt>
<trkpt lat="46.025236928835511" lon="5.946259992197156"><ele></ele><time>2015-2-4T7:32:10Z</time></trkpt>
<trkpt lat="46.024814983829856" lon="5.945746935904026"><ele></ele><time>2015-2-4T7:32:13Z</time></trkpt>
<trkpt lat="46.024197991937399" lon="5.94571097753942"><ele></ele><time>2015-2-4T7:32:16Z</time></trkpt>
<trkpt lat="46.023425934836268" lon="5.945789935067296"><ele></ele><time>2015-2-4T7:32:19Z</time></trkpt>
<trkpt lat="46.022925954312086" lon="5.945578962564468"><ele></ele><time>2015-2-4T7:32:22Z</time></trkpt>
<trkpt lat="46.02261196821928" lon="5.944531979039311"><ele></ele><time>2015-2-4T7:32:25Z</time></trkpt>
<trkpt lat="46.022406946867704" lon="5.943905934691429"><ele></ele><time>2015-2-4T7:32:28Z</time></trkpt>
<trkpt lat="46.02198894135654" lon="5.944182956591249"><ele></ele><time>2015-2-4T7:32:31Z</time></trkpt>
<trkpt lat="46.022027917206287" lon="5.944854933768511"><ele></ele><time>2015-2-4T7:32:34Z</time></trkpt>
<trkpt lat="46.021672943606973" lon="5.945004969835281"><ele></ele><time>2015-2-4T7:32:37Z</time></trkpt>
<trkpt lat="46.021189978346229" lon="5.944277923554182"><ele></ele><time>2015-2-4T7:32:40Z</time></trkpt>
<trkpt lat="46.020794939249754" lon="5.943944994360209"><ele></ele><time>2015-2-4T7:32:43Z</time></trkpt>
<trkpt lat="46.019995976239443" lon="5.943249966949225"><ele></ele><time>2015-2-4T7:32:46Z</time></trkpt>
<trkpt lat="46.019769916310906" lon="5.942453937605023"><ele></ele><time>2015-2-4T7:32:49Z</time></trkpt>
<trkpt lat="46.019757930189371" lon="5.940889958292246"><ele></ele><time>2015-2-4T7:32:52Z</time></trkpt>
<trkpt lat="46.019750973209739" lon="5.939074940979481"><ele></ele><time>2015-2-4T7:32:55Z</time></trkpt>
<trkpt lat="46.019683917984366" lon="5.938198948279023"><ele></ele><time>2015-2-4T7:32:58Z</time></trkpt>
<trkpt lat="46.019648965448141" lon="5.937298983335495"><ele></ele><time>2015-2-4T7:33:1Z</time></trkpt>
<trkpt lat="46.019730940461159" lon="5.935756964609027"><ele></ele><time>2015-2-4T7:33:4Z</time></trkpt>
<trkpt lat="46.019793972373009" lon="5.934201953932643"><ele></ele><time>2015-2-4T7:33:7Z</time></trkpt>
<trkpt lat="46.019745944067836" lon="5.933326967060566"><ele></ele><time>2015-2-4T7:33:10Z</time></trkpt>
<trkpt lat="46.019654916599393" lon="5.932117961347103"><ele></ele><time>2015-2-4T7:33:13Z</time></trkpt>
<trkpt lat="46.019521979615092" lon="5.931218918412924"><ele></ele><time>2015-2-4T7:33:16Z</time></trkpt>
<trkpt lat="46.019422989338636" lon="5.930568985641003"><ele></ele><time>2015-2-4T7:33:19Z</time></trkpt>
<trkpt lat="46.019059969112277" lon="5.929667931050062"><ele></ele><time>2015-2-4T7:33:22Z</time></trkpt>
<trkpt lat="46.018887972459197" lon="5.928872991353273"><ele></ele><time>2015-2-4T7:33:25Z</time></trkpt>
<trkpt lat="46.018738942220807" lon="5.927726933732629"><ele></ele><time>2015-2-4T7:33:28Z</time></trkpt>
<trkpt lat="46.018665935844183" lon="5.926966946572065"><ele></ele><time>2015-2-4T7:33:31Z</time></trkpt>
<trkpt lat="46.018580943346024" lon="5.92622397467494"><ele></ele><time>2015-2-4T7:33:34Z</time></trkpt>
<trkpt lat="46.018510954454541" lon="5.925466921180487"><ele></ele><time>2015-2-4T7:33:37Z</time></trkpt>
<trkpt lat="46.018441971391439" lon="5.924795949831605"><ele></ele><time>2015-2-4T7:33:40Z</time></trkpt>
<trkpt lat="46.018353961408138" lon="5.92392398044467"><ele></ele><time>2015-2-4T7:33:43Z</time></trkpt>
<trkpt lat="46.018289923667908" lon="5.923026949167252"><ele></ele><time>2015-2-4T7:33:46Z</time></trkpt>
<trkpt lat="46.018424956128001" lon="5.922204935923219"><ele></ele><time>2015-2-4T7:33:49Z</time></trkpt>
<trkpt lat="46.018689991906285" lon="5.921514937654138"><ele></ele><time>2015-2-4T7:33:52Z</time></trkpt>
<trkpt lat="46.019033985212445" lon="5.920412968844175"><ele></ele><time>2015-2-4T7:33:55Z</time></trkpt>
<trkpt lat="46.019244957715273" lon="5.919601935893297"><ele></ele><time>2015-2-4T7:33:58Z</time></trkpt>
<trkpt lat="46.019316958263516" lon="5.918953930959106"><ele></ele><time>2015-2-4T7:34:1Z</time></trkpt>
<trkpt lat="46.019344953820109" lon="5.918158991262317"><ele></ele><time>2015-2-4T7:34:4Z</time></trkpt>
<trkpt lat="46.019371943548322" lon="5.917403949424624"><ele></ele><time>2015-2-4T7:34:7Z</time></trkpt>
<trkpt lat="46.019415948539972" lon="5.91640792787075"><ele></ele><time>2015-2-4T7:34:10Z</time></trkpt>
<trkpt lat="46.019444949924946" lon="5.915596978738904"><ele></ele><time>2015-2-4T7:34:13Z</time></trkpt>
<trkpt lat="46.019495995715261" lon="5.914569944143295"><ele></ele><time>2015-2-4T7:34:16Z</time></trkpt>
<trkpt lat="46.019600937142968" lon="5.913863936439157"><ele></ele><time>2015-2-4T7:34:19Z</time></trkpt>
<trkpt lat="46.019854992628098" lon="5.913091963157058"><ele></ele><time>2015-2-4T7:34:22Z</time></trkpt>
<trkpt lat="46.020155986770988" lon="5.912270955741406"><ele></ele><time>2015-2-4T7:34:25Z</time></trkpt>
<trkpt lat="46.020494950935245" lon="5.911417929455638"><ele></ele><time>2015-2-4T7:34:28Z</time></trkpt>
<trkpt lat="46.021061986684799" lon="5.910837985575199"><ele></ele><time>2015-2-4T7:34:31Z</time></trkpt>
<trkpt lat="46.021509999409318" lon="5.910693984478712"><ele></ele><time>2015-2-4T7:34:34Z</time></trkpt>
<trkpt lat="46.022417927160859" lon="5.910483933985233"><ele></ele><time>2015-2-4T7:34:37Z</time></trkpt>
<trkpt lat="46.022985968738794" lon="5.910315960645676"><ele></ele><time>2015-2-4T7:34:40Z</time></trkpt>
<trkpt lat="46.023589968681335" lon="5.909584974870086"><ele></ele><time>2015-2-4T7:34:43Z</time></trkpt>
<trkpt lat="46.023731958121061" lon="5.908555928617716"><ele></ele><time>2015-2-4T7:34:46Z</time></trkpt>
<trkpt lat="46.023508999496698" lon="5.907378941774368"><ele></ele><time>2015-2-4T7:34:49Z</time></trkpt>
<trkpt lat="46.023309929296374" lon="5.906389961019158"><ele></ele><time>2015-2-4T7:34:52Z</time></trkpt>
<trkpt lat="46.023137932643294" lon="5.905527966096997"><ele></ele><time>2015-2-4T7:34:55Z</time></trkpt>
<trkpt lat="46.022968953475356" lon="5.904621966183186"><ele></ele><time>2015-2-4T7:34:58Z</time></trkpt>
<trkpt lat="46.023079929873347" lon="5.903543969616294"><ele></ele><time>2015-2-4T7:35:1Z</time></trkpt>
<trkpt lat="46.023591980338097" lon="5.902829999104142"><ele></ele><time>2015-2-4T7:35:4Z</time></trkpt>
<trkpt lat="46.024581966921687" lon="5.90211795642972"><ele></ele><time>2015-2-4T7:35:7Z</time></trkpt>
<trkpt lat="46.025390988215804" lon="5.901506999507546"><ele></ele><time>2015-2-4T7:35:10Z</time></trkpt>
<trkpt lat="46.025889962911606" lon="5.901048928499222"><ele></ele><time>2015-2-4T7:35:13Z</time></trkpt>
<trkpt lat="46.026315931230783" lon="5.900040920823813"><ele></ele><time>2015-2-4T7:35:16Z</time></trkpt>
<trkpt lat="46.026276955381036" lon="5.898757986724377"><ele></ele><time>2015-2-4T7:35:19Z</time></trkpt>
<trkpt lat="46.026093978434801" lon="5.897529954090715"><ele></ele><time>2015-2-4T7:35:22Z</time></trkpt>
<trkpt lat="46.025933967903256" lon="5.896441983059049"><ele></ele><time>2015-2-4T7:35:25Z</time></trkpt>
<trkpt lat="46.025757947936654" lon="5.8950509224087"><ele></ele><time>2015-2-4T7:35:28Z</time></trkpt>
<trkpt lat="46.025996999815106" lon="5.893923975527287"><ele></ele><time>2015-2-4T7:35:31Z</time></trkpt>
<trkpt lat="46.026321966201067" lon="5.8932239189744"><ele></ele><time>2015-2-4T7:35:34Z</time></trkpt>
<trkpt lat="46.026733936741948" lon="5.892376927658916"><ele></ele><time>2015-2-4T7:35:37Z</time></trkpt>
<trkpt lat="46.027076924219728" lon="5.891618952155113"><ele></ele><time>2015-2-4T7:35:40Z</time></trkpt>
<trkpt lat="46.027324944734573" lon="5.891002966091037"><ele></ele><time>2015-2-4T7:35:43Z</time></trkpt>
<trkpt lat="46.027499958872795" lon="5.89036594145"><ele></ele><time>2015-2-4T7:35:46Z</time></trkpt>
<trkpt lat="46.027373978868127" lon="5.889838971197605"><ele></ele><time>2015-2-4T7:35:49Z</time></trkpt>
<trkpt lat="46.027538934722543" lon="5.889218961820006"><ele></ele><time>2015-2-4T7:35:52Z</time></trkpt>
<trkpt lat="46.027271971106529" lon="5.888512954115868"><ele></ele><time>2015-2-4T7:35:55Z</time></trkpt>
<trkpt lat="46.026669982820749" lon="5.887726983055472"><ele></ele><time>2015-2-4T7:35:58Z</time></trkpt>
<trkpt lat="46.026254994794726" lon="5.887207975611091"><ele></ele><time>2015-2-4T7:36:1Z</time></trkpt>
<trkpt lat="46.025849981233478" lon="5.886736996471882"><ele></ele><time>2015-2-4T7:36:4Z</time></trkpt>
<trkpt lat="46.025321921333671" lon="5.886084968224168"><ele></ele><time>2015-2-4T7:36:7Z</time></trkpt>
<trkpt lat="46.024662936106324" lon="5.885268989950419"><ele></ele><time>2015-2-4T7:36:10Z</time></trkpt>
<trkpt lat="46.024206960573792" lon="5.884568933397532"><ele></ele><time>2015-2-4T7:36:13Z</time></trkpt>
<trkpt lat="46.023713937029243" lon="5.883383983746171"><ele></ele><time>2015-2-4T7:36:16Z</time></trkpt>
<trkpt lat="46.023431969806552" lon="5.882386956363916"><ele></ele><time>2015-2-4T7:36:19Z</time></trkpt>
<trkpt lat="46.023046988993883" lon="5.881004948168993"><ele></ele><time>2015-2-4T7:36:22Z</time></trkpt>
<trkpt lat="46.022785976529121" lon="5.880066929385066"><ele></ele><time>2015-2-4T7:36:25Z</time></trkpt>
<trkpt lat="46.022529993206263" lon="5.879154978320003"><ele></ele><time>2015-2-4T7:36:28Z</time></trkpt>
<trkpt lat="46.02224693633616" lon="5.878128949552774"><ele></ele><time>2015-2-4T7:36:31Z</time></trkpt>
<trkpt lat="46.021900931373239" lon="5.876915920525789"><ele></ele><time>2015-2-4T7:36:34Z</time></trkpt>
<trkpt lat="46.021605972200632" lon="5.875924928113818"><ele></ele><time>2015-2-4T7:36:37Z</time></trkpt>
<trkpt lat="46.021256949752569" lon="5.875077936798334"><ele></ele><time>2015-2-4T7:36:40Z</time></trkpt>
<trkpt lat="46.020799968391657" lon="5.874217953532934"><ele></ele><time>2015-2-4T7:36:43Z</time></trkpt>
<trkpt lat="46.020402917638421" lon="5.873505994677544"><ele></ele><time>2015-2-4T7:36:46Z</time></trkpt>
<trkpt lat="46.020036963745952" lon="5.872855978086591"><ele></ele><time>2015-2-4T7:36:49Z</time></trkpt>
<trkpt lat="46.019643936306238" lon="5.872167991474271"><ele></ele><time>2015-2-4T7:36:52Z</time></trkpt>
<trkpt lat="46.019261972978711" lon="5.871507916599512"><ele></ele><time>2015-2-4T7:36:55Z</time></trkpt>
<trkpt lat="46.018901970237494" lon="5.870851948857307"><ele></ele><time>2015-2-4T7:36:58Z</time></trkpt>
<trkpt lat="46.018414981663227" lon="5.869999928399921"><ele></ele><time>2015-2-4T7:37:1Z</time></trkpt>
<trkpt lat="46.017770916223526" lon="5.869692983105779"><ele></ele><time>2015-2-4T7:37:4Z</time></trkpt>
<trkpt lat="46.017296919599175" lon="5.869790967553854"><ele></ele><time>2015-2-4T7:37:7Z</time></trkpt>
<trkpt lat="46.016468955203891" lon="5.869907978922129"><ele></ele><time>2015-2-4T7:37:10Z</time></trkpt>
<trkpt lat="46.016027983278036" lon="5.869718967005611"><ele></ele><time>2015-2-4T7:37:13Z</time></trkpt>
<trkpt lat="46.015589945018291" lon="5.869249999523163"><ele></ele><time>2015-2-4T7:37:16Z</time></trkpt>
<trkpt lat="46.015179986134171" lon="5.868816990405321"><ele></ele><time>2015-2-4T7:37:19Z</time></trkpt>
<trkpt lat="46.014654943719506" lon="5.86838498711586"><ele></ele><time>2015-2-4T7:37:22Z</time></trkpt>
<trkpt lat="46.01403996348381" lon="5.86799799464643"><ele></ele><time>2015-2-4T7:37:25Z</time></trkpt>
<trkpt lat="46.013448955491185" lon="5.867756931111217"><ele></ele><time>2015-2-4T7:37:28Z</time></trkpt>
<trkpt lat="46.012753928080201" lon="5.86756699718535"><ele></ele><time>2015-2-4T7:37:31Z</time></trkpt>
<trkpt lat="46.012166943401098" lon="5.867405980825424"><ele></ele><time>2015-2-4T7:37:34Z</time></trkpt>
<trkpt lat="46.011538971215487" lon="5.867019994184375"><ele></ele><time>2015-2-4T7:37:37Z</time></trkpt>
<trkpt lat="46.011063968762755" lon="5.866724951192737"><ele></ele><time>2015-2-4T7:37:40Z</time></trkpt>
<trkpt lat="46.010397942736745" lon="5.866275932639837"><ele></ele><time>2015-2-4T7:37:43Z</time></trkpt>
<trkpt lat="46.009904919192195" lon="5.866005951538682"><ele></ele><time>2015-2-4T7:37:46Z</time></trkpt>
<trkpt lat="46.009475933387876" lon="5.865773940458894"><ele></ele><time>2015-2-4T7:37:49Z</time></trkpt>
<trkpt lat="46.009027920663357" lon="5.865510916337371"><ele></ele><time>2015-2-4T7:37:52Z</time></trkpt>
<trkpt lat="46.008562976494431" lon="5.865237917751074"><ele></ele><time>2015-2-4T7:37:55Z</time></trkpt>
<trkpt lat="46.008081939071417" lon="5.864967936649919"><ele></ele><time>2015-2-4T7:37:58Z</time></trkpt>
<trkpt lat="46.007651947438717" lon="5.864723939448595"><ele></ele><time>2015-2-4T7:38:1Z</time></trkpt>
<trkpt lat="46.007105950266123" lon="5.864417999982834"><ele></ele><time>2015-2-4T7:38:4Z</time></trkpt>
<trkpt lat="46.006646957248449" lon="5.864184983074665"><ele></ele><time>2015-2-4T7:38:7Z</time></trkpt>
<trkpt lat="46.00600297562778" lon="5.863696988672018"><ele></ele><time>2015-2-4T7:38:10Z</time></trkpt>
<trkpt lat="46.005442980676889" lon="5.863004978746176"><ele></ele><time>2015-2-4T7:38:13Z</time></trkpt>
<trkpt lat="46.00475599989295" lon="5.862237950786948"><ele></ele><time>2015-2-4T7:38:16Z</time></trkpt>
<trkpt lat="46.004233974963427" lon="5.861680973321199"><ele></ele><time>2015-2-4T7:38:19Z</time></trkpt>
<trkpt lat="46.003773976117373" lon="5.861143944784999"><ele></ele><time>2015-2-4T7:38:22Z</time></trkpt>
<trkpt lat="46.003106944262981" lon="5.860379934310913"><ele></ele><time>2015-2-4T7:38:25Z</time></trkpt>
<trkpt lat="46.002550972625613" lon="5.859738970175386"><ele></ele><time>2015-2-4T7:38:28Z</time></trkpt>
<trkpt lat="46.002116957679391" lon="5.859236977994442"><ele></ele><time>2015-2-4T7:38:31Z</time></trkpt>
<trkpt lat="46.00131799466908" lon="5.858311951160431"><ele></ele><time>2015-2-4T7:38:34Z</time></trkpt>
<trkpt lat="46.000728998333216" lon="5.857637962326407"><ele></ele><time>2015-2-4T7:38:37Z</time></trkpt>
<trkpt lat="46.000216947868466" lon="5.85704393684864"><ele></ele><time>2015-2-4T7:38:40Z</time></trkpt>
<trkpt lat="45.999590987339616" lon="5.856313956901431"><ele></ele><time>2015-2-4T7:38:43Z</time></trkpt>
<trkpt lat="45.999057982116938" lon="5.855690930038691"><ele></ele><time>2015-2-4T7:38:46Z</time></trkpt>
<trkpt lat="45.998610975220799" lon="5.855176951736212"><ele></ele><time>2015-2-4T7:38:49Z</time></trkpt>
<trkpt lat="45.998122980818152" lon="5.854610921815038"><ele></ele><time>2015-2-4T7:38:52Z</time></trkpt>
<trkpt lat="45.997405992820859" lon="5.853780945762992"><ele></ele><time>2015-2-4T7:38:55Z</time></trkpt>
<trkpt lat="45.996749941259623" lon="5.853012995794416"><ele></ele><time>2015-2-4T7:38:58Z</time></trkpt>
<trkpt lat="45.995992971584201" lon="5.852110935375094"><ele></ele><time>2015-2-4T7:39:1Z</time></trkpt>
<trkpt lat="45.995588963851333" lon="5.851727966219187"><ele></ele><time>2015-2-4T7:39:4Z</time></trkpt>
<trkpt lat="45.994912963360548" lon="5.851593939587474"><ele></ele><time>2015-2-4T7:39:7Z</time></trkpt>
<trkpt lat="45.994166973978281" lon="5.852078916504979"><ele></ele><time>2015-2-4T7:39:10Z</time></trkpt>
<trkpt lat="45.993618965148926" lon="5.852494994178414"><ele></ele><time>2015-2-4T7:39:13Z</time></trkpt>
<trkpt lat="45.993113955482841" lon="5.852869916707277"><ele></ele><time>2015-2-4T7:39:16Z</time></trkpt>
<trkpt lat="45.99253392778337" lon="5.853272918611765"><ele></ele><time>2015-2-4T7:39:19Z</time></trkpt>
<trkpt lat="45.991964964196086" lon="5.853360928595066"><ele></ele><time>2015-2-4T7:39:22Z</time></trkpt>
<trkpt lat="45.99126398563385" lon="5.852794982492924"><ele></ele><time>2015-2-4T7:39:25Z</time></trkpt>
<trkpt lat="45.990728968754411" lon="5.852312939241529"><ele></ele><time>2015-2-4T7:39:28Z</time></trkpt>
<trkpt lat="45.990212978795171" lon="5.851847995072603"><ele></ele><time>2015-2-4T7:39:31Z</time></trkpt>
<trkpt lat="45.989699922502041" lon="5.851399982348084"><ele></ele><time>2015-2-4T7:39:34Z</time></trkpt>
<trkpt lat="45.989297926425934" lon="5.850957920774818"><ele></ele><time>2015-2-4T7:39:37Z</time></trkpt>
<trkpt lat="45.98870993591845" lon="5.850010933354497"><ele></ele><time>2015-2-4T7:39:40Z</time></trkpt>
<trkpt lat="45.988345993682742" lon="5.849318923428655"><ele></ele><time>2015-2-4T7:39:43Z</time></trkpt>
<trkpt lat="45.987827992066741" lon="5.848572934046388"><ele></ele><time>2015-2-4T7:39:46Z</time></trkpt>
<trkpt lat="45.9873569291085" lon="5.848333965986967"><ele></ele><time>2015-2-4T7:39:49Z</time></trkpt>
<trkpt lat="45.986878992989659" lon="5.848273951560259"><ele></ele><time>2015-2-4T7:39:52Z</time></trkpt>
<trkpt lat="45.986060919240117" lon="5.848220977932215"><ele></ele><time>2015-2-4T7:39:55Z</time></trkpt>
<trkpt lat="45.985445939004421" lon="5.848171943798661"><ele></ele><time>2015-2-4T7:39:58Z</time></trkpt>
<trkpt lat="45.984758958220482" lon="5.848117964342237"><ele></ele><time>2015-2-4T7:40:1Z</time></trkpt>
<trkpt lat="45.984100978821516" lon="5.848026936873794"><ele></ele><time>2015-2-4T7:40:4Z</time></trkpt>
<trkpt lat="45.983307966962457" lon="5.847514970228076"><ele></ele><time>2015-2-4T7:40:7Z</time></trkpt>
<trkpt lat="45.982983922585845" lon="5.847059916704893"><ele></ele><time>2015-2-4T7:40:10Z</time></trkpt>
<trkpt lat="45.982677983120084" lon="5.846411995589733"><ele></ele><time>2015-2-4T7:40:13Z</time></trkpt>
<trkpt lat="45.982310939580202" lon="5.845562992617488"><ele></ele><time>2015-2-4T7:40:16Z</time></trkpt>
<trkpt lat="45.981950936838984" lon="5.844719940796495"><ele></ele><time>2015-2-4T7:40:19Z</time></trkpt>
<trkpt lat="45.981601998209953" lon="5.843929946422577"><ele></ele><time>2015-2-4T7:40:22Z</time></trkpt>
<trkpt lat="45.981308966875076" lon="5.843268949538469"><ele></ele><time>2015-2-4T7:40:25Z</time></trkpt>
<trkpt lat="45.980657944455743" lon="5.842478955164552"><ele></ele><time>2015-2-4T7:40:28Z</time></trkpt>
<trkpt lat="45.979723948985338" lon="5.842230934649706"><ele></ele><time>2015-2-4T7:40:31Z</time></trkpt>
<trkpt lat="45.979142999276519" lon="5.842169998213649"><ele></ele><time>2015-2-4T7:40:34Z</time></trkpt>
<trkpt lat="45.978355938568711" lon="5.841671945527196"><ele></ele><time>2015-2-4T7:40:37Z</time></trkpt>
<trkpt lat="45.977831985801458" lon="5.840703919529915"><ele></ele><time>2015-2-4T7:40:40Z</time></trkpt>
<trkpt lat="45.977524956688285" lon="5.839856928214431"><ele></ele><time>2015-2-4T7:40:43Z</time></trkpt>
<trkpt lat="45.976985916495323" lon="5.838999962434173"><ele></ele><time>2015-2-4T7:40:46Z</time></trkpt>
<trkpt lat="45.97650496289134" lon="5.838596960529685"><ele></ele><time>2015-2-4T7:40:49Z</time></trkpt>
<trkpt lat="45.975907919928432" lon="5.838100919499993"><ele></ele><time>2015-2-4T7:40:52Z</time></trkpt>
<trkpt lat="45.975467953830957" lon="5.837792968377471"><ele></ele><time>2015-2-4T7:40:55Z</time></trkpt>
<trkpt lat="45.974926985800266" lon="5.837584929540753"><ele></ele><time>2015-2-4T7:40:58Z</time></trkpt>
<trkpt lat="45.974421976134181" lon="5.837516952306032"><ele></ele><time>2015-2-4T7:41:1Z</time></trkpt>
<trkpt lat="45.973783945664763" lon="5.837551988661289"><ele></ele><time>2015-2-4T7:41:4Z</time></trkpt>
<trkpt lat="45.973112974315882" lon="5.837438916787505"><ele></ele><time>2015-2-4T7:41:7Z</time></trkpt>
<trkpt lat="45.972557924687862" lon="5.836944971233606"><ele></ele><time>2015-2-4T7:41:10Z</time></trkpt>
<trkpt lat="45.972129944711924" lon="5.836255978792906"><ele></ele><time>2015-2-4T7:41:13Z</time></trkpt>
<trkpt lat="45.97149794921279" lon="5.835702940821648"><ele></ele><time>2015-2-4T7:41:16Z</time></trkpt>
<trkpt lat="45.971032921224833" lon="5.83562096580863"><ele></ele><time>2015-2-4T7:41:19Z</time></trkpt>
<trkpt lat="45.970245944336057" lon="5.835649967193604"><ele></ele><time>2015-2-4T7:41:22Z</time></trkpt>
<trkpt lat="45.969654936343431" lon="5.835631946101785"><ele></ele><time>2015-2-4T7:41:25Z</time></trkpt>
<trkpt lat="45.969099970534444" lon="5.835574949160218"><ele></ele><time>2015-2-4T7:41:28Z</time></trkpt>
<trkpt lat="45.968244932591915" lon="5.835495991632342"><ele></ele><time>2015-2-4T7:41:31Z</time></trkpt>
<trkpt lat="45.967652918770909" lon="5.835463972762227"><ele></ele><time>2015-2-4T7:41:34Z</time></trkpt>
<trkpt lat="45.967160984873772" lon="5.835452992469072"><ele></ele><time>2015-2-4T7:41:37Z</time></trkpt>
<trkpt lat="45.966561930254102" lon="5.835456931963563"><ele></ele><time>2015-2-4T7:41:40Z</time></trkpt>
<trkpt lat="45.965555934235454" lon="5.835332963615656"><ele></ele><time>2015-2-4T7:41:43Z</time></trkpt>
<trkpt lat="45.964731993153691" lon="5.835237996652722"><ele></ele><time>2015-2-4T7:41:46Z</time></trkpt>
<trkpt lat="45.964282974600792" lon="5.835266998037696"><ele></ele><time>2015-2-4T7:41:49Z</time></trkpt>
<trkpt lat="45.963811995461583" lon="5.835203966125846"><ele></ele><time>2015-2-4T7:41:52Z</time></trkpt>
<trkpt lat="45.96329097636044" lon="5.835204971954227"><ele></ele><time>2015-2-4T7:41:55Z</time></trkpt>
<trkpt lat="45.962659986689687" lon="5.835590958595276"><ele></ele><time>2015-2-4T7:41:58Z</time></trkpt>
<trkpt lat="45.962170986458659" lon="5.835736971348524"><ele></ele><time>2015-2-4T7:42:1Z</time></trkpt>
<trkpt lat="45.961652984842658" lon="5.835906956344843"><ele></ele><time>2015-2-4T7:42:4Z</time></trkpt>
<trkpt lat="45.96111997961998" lon="5.836006952449679"><ele></ele><time>2015-2-4T7:42:7Z</time></trkpt>
<trkpt lat="45.960602983832359" lon="5.836177943274379"><ele></ele><time>2015-2-4T7:42:10Z</time></trkpt>
<trkpt lat="45.960146924480796" lon="5.836072918027639"><ele></ele><time>2015-2-4T7:42:13Z</time></trkpt>
<trkpt lat="45.959553988650441" lon="5.835571931675077"><ele></ele><time>2015-2-4T7:42:16Z</time></trkpt>
<trkpt lat="45.959092983976007" lon="5.835052924230695"><ele></ele><time>2015-2-4T7:42:19Z</time></trkpt>
<trkpt lat="45.958763994276524" lon="5.834506927058101"><ele></ele><time>2015-2-4T7:42:22Z</time></trkpt>
<trkpt lat="45.95852293074131" lon="5.833936957642436"><ele></ele><time>2015-2-4T7:42:25Z</time></trkpt>
<trkpt lat="45.958517985418439" lon="5.833211923018098"><ele></ele><time>2015-2-4T7:42:28Z</time></trkpt>
<trkpt lat="45.958638936281204" lon="5.83222696557641"><ele></ele><time>2015-2-4T7:42:31Z</time></trkpt>
<trkpt lat="45.957923959940672" lon="5.832043988630176"><ele></ele><time>2015-2-4T7:42:34Z</time></trkpt>
<trkpt lat="45.957152992486954" lon="5.831950949504972"><ele></ele><time>2015-2-4T7:42:37Z</time></trkpt>
<trkpt lat="45.956614958122373" lon="5.831860927864909"><ele></ele><time>2015-2-4T7:42:40Z</time></trkpt>
<trkpt lat="45.95573091879487" lon="5.831687925383449"><ele></ele><time>2015-2-4T7:42:43Z</time></trkpt>
<trkpt lat="45.955295981839299" lon="5.831485921517015"><ele></ele><time>2015-2-4T7:42:46Z</time></trkpt>
<trkpt lat="45.954456953331828" lon="5.831555994227529"><ele></ele><time>2015-2-4T7:42:49Z</time></trkpt>
<trkpt lat="45.953601999208331" lon="5.832065949216485"><ele></ele><time>2015-2-4T7:42:52Z</time></trkpt>
<trkpt lat="45.953091960400343" lon="5.83175296895206"><ele></ele><time>2015-2-4T7:42:55Z</time></trkpt>
<trkpt lat="45.952765988186002" lon="5.831012930721045"><ele></ele><time>2015-2-4T7:42:58Z</time></trkpt>
<trkpt lat="45.9524189773947" lon="5.830126963555813"><ele></ele><time>2015-2-4T7:43:1Z</time></trkpt>
<trkpt lat="45.952068949118257" lon="5.829231943935156"><ele></ele><time>2015-2-4T7:43:4Z</time></trkpt>
<trkpt lat="45.95168991945684" lon="5.828362992033362"><ele></ele><time>2015-2-4T7:43:7Z</time></trkpt>
<trkpt lat="45.951314996927977" lon="5.827832920476794"><ele></ele><time>2015-2-4T7:43:10Z</time></trkpt>
<trkpt lat="45.950777968391776" lon="5.827362947165966"><ele></ele><time>2015-2-4T7:43:13Z</time></trkpt>
<trkpt lat="45.950375972315669" lon="5.827045943588018"><ele></ele><time>2015-2-4T7:43:16Z</time></trkpt>
<trkpt lat="45.94994992017746" lon="5.826600948348641"><ele></ele><time>2015-2-4T7:43:19Z</time></trkpt>
<trkpt lat="45.949547924101353" lon="5.826077917590737"><ele></ele><time>2015-2-4T7:43:22Z</time></trkpt>
<trkpt lat="45.94913293607533" lon="5.825434941798449"><ele></ele><time>2015-2-4T7:43:25Z</time></trkpt>
<trkpt lat="45.948844933882356" lon="5.824636984616518"><ele></ele><time>2015-2-4T7:43:28Z</time></trkpt>
<trkpt lat="45.948630943894386" lon="5.823985962197185"><ele></ele><time>2015-2-4T7:43:31Z</time></trkpt>
<trkpt lat="45.948409996926785" lon="5.823346925899386"><ele></ele><time>2015-2-4T7:43:34Z</time></trkpt>
<trkpt lat="45.948079917579889" lon="5.822569923475385"><ele></ele><time>2015-2-4T7:43:37Z</time></trkpt>
<trkpt lat="45.947836926206946" lon="5.821906998753548"><ele></ele><time>2015-2-4T7:43:40Z</time></trkpt>
<trkpt lat="45.947566945105791" lon="5.821144999936223"><ele></ele><time>2015-2-4T7:43:43Z</time></trkpt>
<trkpt lat="45.947317918762565" lon="5.820438992232084"><ele></ele><time>2015-2-4T7:43:46Z</time></trkpt>
<trkpt lat="45.947101917117834" lon="5.819716975092888"><ele></ele><time>2015-2-4T7:43:49Z</time></trkpt>
<trkpt lat="45.946779968217015" lon="5.819139964878559"><ele></ele><time>2015-2-4T7:43:52Z</time></trkpt>
<trkpt lat="45.946652982383966" lon="5.818504951894283"><ele></ele><time>2015-2-4T7:43:55Z</time></trkpt>
<trkpt lat="45.946372942999005" lon="5.817591995000839"><ele></ele><time>2015-2-4T7:43:58Z</time></trkpt>
<trkpt lat="45.945980921387672" lon="5.81652095541358"><ele></ele><time>2015-2-4T7:44:1Z</time></trkpt>
<trkpt lat="45.945708928629756" lon="5.815803967416287"><ele></ele><time>2015-2-4T7:44:4Z</time></trkpt>
<trkpt lat="45.94524197280407" lon="5.815114974975586"><ele></ele><time>2015-2-4T7:44:7Z</time></trkpt>
<trkpt lat="45.944661945104599" lon="5.814725970849395"><ele></ele><time>2015-2-4T7:44:10Z</time></trkpt>
<trkpt lat="45.944056939333677" lon="5.814441991969943"><ele></ele><time>2015-2-4T7:44:13Z</time></trkpt>
<trkpt lat="45.943428967148066" lon="5.814109984785318"><ele></ele><time>2015-2-4T7:44:16Z</time></trkpt>
<trkpt lat="45.942983971908689" lon="5.813928935676813"><ele></ele><time>2015-2-4T7:44:19Z</time></trkpt>
<trkpt lat="45.942135974764824" lon="5.813640933483839"><ele></ele><time>2015-2-4T7:44:22Z</time></trkpt>
<trkpt lat="45.941686956211925" lon="5.813424931839109"><ele></ele><time>2015-2-4T7:44:25Z</time></trkpt>
<trkpt lat="45.941056972369552" lon="5.813134917989373"><ele></ele><time>2015-2-4T7:44:28Z</time></trkpt>
<trkpt lat="45.940559925511479" lon="5.812878934666514"><ele></ele><time>2015-2-4T7:44:31Z</time></trkpt>
<trkpt lat="45.939971935003996" lon="5.812595961615443"><ele></ele><time>2015-2-4T7:44:34Z</time></trkpt>
<trkpt lat="45.939530963078141" lon="5.812462940812111"><ele></ele><time>2015-2-4T7:44:37Z</time></trkpt>
<trkpt lat="45.938423965126276" lon="5.812228918075562"><ele></ele><time>2015-2-4T7:44:40Z</time></trkpt>
<trkpt lat="45.9378079790622" lon="5.812012916430831"><ele></ele><time>2015-2-4T7:44:43Z</time></trkpt>
<trkpt lat="45.937203979119658" lon="5.811873944476247"><ele></ele><time>2015-2-4T7:44:46Z</time></trkpt>
<trkpt lat="45.936701986938715" lon="5.811926918104291"><ele></ele><time>2015-2-4T7:44:49Z</time></trkpt>
<trkpt lat="45.936161940917373" lon="5.811933958902955"><ele></ele><time>2015-2-4T7:44:52Z</time></trkpt>
<trkpt lat="45.935624996200204" lon="5.811841925606132"><ele></ele><time>2015-2-4T7:44:55Z</time></trkpt>
<trkpt lat="45.934834918007255" lon="5.811712928116322"><ele></ele><time>2015-2-4T7:44:58Z</time></trkpt>
<trkpt lat="45.934117930009961" lon="5.811662971973419"><ele></ele><time>2015-2-4T7:45:1Z</time></trkpt>
<trkpt lat="45.93366296030581" lon="5.811566999182105"><ele></ele><time>2015-2-4T7:45:4Z</time></trkpt>
<trkpt lat="45.933237997815013" lon="5.811327947303653"><ele></ele><time>2015-2-4T7:45:7Z</time></trkpt>
<trkpt lat="45.932702980935574" lon="5.811013961210847"><ele></ele><time>2015-2-4T7:45:10Z</time></trkpt>
<trkpt lat="45.932264942675829" lon="5.810786979272962"><ele></ele><time>2015-2-4T7:45:13Z</time></trkpt>
<trkpt lat="45.931763956323266" lon="5.810617916285992"><ele></ele><time>2015-2-4T7:45:16Z</time></trkpt>
<trkpt lat="45.931287948042154" lon="5.810573995113373"><ele></ele><time>2015-2-4T7:45:19Z</time></trkpt>
<trkpt lat="45.930538941174746" lon="5.81054599955678"><ele></ele><time>2015-2-4T7:45:22Z</time></trkpt>
<trkpt lat="45.93005295842886" lon="5.810452960431576"><ele></ele><time>2015-2-4T7:45:25Z</time></trkpt>
<trkpt lat="45.929479971528053" lon="5.810167975723743"><ele></ele><time>2015-2-4T7:45:28Z</time></trkpt>
<trkpt lat="45.92874395661056" lon="5.809765979647636"><ele></ele><time>2015-2-4T7:45:31Z</time></trkpt>
<trkpt lat="45.928239952772856" lon="5.809629941359162"><ele></ele><time>2015-2-4T7:45:34Z</time></trkpt>
<trkpt lat="45.927609968930483" lon="5.809577973559499"><ele></ele><time>2015-2-4T7:45:37Z</time></trkpt>
<trkpt lat="45.926963975653052" lon="5.809607980772853"><ele></ele><time>2015-2-4T7:45:40Z</time></trkpt>
<trkpt lat="45.926260985434055" lon="5.809679981321096"><ele></ele><time>2015-2-4T7:45:43Z</time></trkpt>
<trkpt lat="45.925769973546267" lon="5.809847954660654"><ele></ele><time>2015-2-4T7:45:46Z</time></trkpt>
<trkpt lat="45.925237974151969" lon="5.809896988794208"><ele></ele><time>2015-2-4T7:45:49Z</time></trkpt>
<trkpt lat="45.92438293620944" lon="5.809792969375849"><ele></ele><time>2015-2-4T7:45:52Z</time></trkpt>
<trkpt lat="45.923748929053545" lon="5.809700936079025"><ele></ele><time>2015-2-4T7:45:55Z</time></trkpt>
<trkpt lat="45.922861956059933" lon="5.809594988822937"><ele></ele><time>2015-2-4T7:45:58Z</time></trkpt>
<trkpt lat="45.922303972765803" lon="5.809535980224609"><ele></ele><time>2015-2-4T7:46:1Z</time></trkpt>
<trkpt lat="45.921714976429939" lon="5.809511924162507"><ele></ele><time>2015-2-4T7:46:4Z</time></trkpt>
<trkpt lat="45.921108964830637" lon="5.809412933886051"><ele></ele><time>2015-2-4T7:46:7Z</time></trkpt>
<trkpt lat="45.920391976833344" lon="5.809199949726462"><ele></ele><time>2015-2-4T7:46:10Z</time></trkpt>
<trkpt lat="45.919908927753568" lon="5.809061983600259"><ele></ele><time>2015-2-4T7:46:13Z</time></trkpt>
<trkpt lat="45.919445995241404" lon="5.808931980282068"><ele></ele><time>2015-2-4T7:46:16Z</time></trkpt>
<trkpt lat="45.918964957818389" lon="5.808862997218967"><ele></ele><time>2015-2-4T7:46:19Z</time></trkpt>
<trkpt lat="45.918123917654157" lon="5.808844976127148"><ele></ele><time>2015-2-4T7:46:22Z</time></trkpt>
<trkpt lat="45.917664924636483" lon="5.808890992775559"><ele></ele><time>2015-2-4T7:46:25Z</time></trkpt>
<trkpt lat="45.916981967166066" lon="5.808971961960197"><ele></ele><time>2015-2-4T7:46:28Z</time></trkpt>
<trkpt lat="45.916268918663263" lon="5.80902392975986"><ele></ele><time>2015-2-4T7:46:31Z</time></trkpt>
<trkpt lat="45.915731973946095" lon="5.809079920873046"><ele></ele><time>2015-2-4T7:46:34Z</time></trkpt>
<trkpt lat="45.91469194740057" lon="5.809110933914781"><ele></ele><time>2015-2-4T7:46:37Z</time></trkpt>
<trkpt lat="45.913996919989586" lon="5.80906399525702"><ele></ele><time>2015-2-4T7:46:40Z</time></trkpt>
<trkpt lat="45.913506997749209" lon="5.808988977223635"><ele></ele><time>2015-2-4T7:46:43Z</time></trkpt>
<trkpt lat="45.913042975589633" lon="5.808897949755192"><ele></ele><time>2015-2-4T7:46:46Z</time></trkpt>
<trkpt lat="45.912594962865114" lon="5.808727964758873"><ele></ele><time>2015-2-4T7:46:49Z</time></trkpt>
<trkpt lat="45.91211199760437" lon="5.808583963662386"><ele></ele><time>2015-2-4T7:46:52Z</time></trkpt>
<trkpt lat="45.911463992670178" lon="5.808418923988938"><ele></ele><time>2015-2-4T7:46:55Z</time></trkpt>
<trkpt lat="45.91033092699945" lon="5.80885193310678"><ele></ele><time>2015-2-4T7:46:58Z</time></trkpt>
<trkpt lat="45.909657943993807" lon="5.809114957228303"><ele></ele><time>2015-2-4T7:47:1Z</time></trkpt>
<trkpt lat="45.908865937963128" lon="5.809191986918449"><ele></ele><time>2015-2-4T7:47:4Z</time></trkpt>
<trkpt lat="45.90835296548903" lon="5.809124931693077"><ele></ele><time>2015-2-4T7:47:7Z</time></trkpt>
<trkpt lat="45.907691968604922" lon="5.808879928663373"><ele></ele><time>2015-2-4T7:47:10Z</time></trkpt>
<trkpt lat="45.906846988946199" lon="5.808531995862722"><ele></ele><time>2015-2-4T7:47:13Z</time></trkpt>
<trkpt lat="45.90592497959733" lon="5.808345917612314"><ele></ele><time>2015-2-4T7:47:16Z</time></trkpt>
<trkpt lat="45.905472943559289" lon="5.808108961209655"><ele></ele><time>2015-2-4T7:47:19Z</time></trkpt>
<trkpt lat="45.904971957206726" lon="5.807813918218017"><ele></ele><time>2015-2-4T7:47:22Z</time></trkpt>
<trkpt lat="45.904542971402407" lon="5.807597916573286"><ele></ele><time>2015-2-4T7:47:25Z</time></trkpt>
<trkpt lat="45.904022958129644" lon="5.807328941300511"><ele></ele><time>2015-2-4T7:47:28Z</time></trkpt>
<trkpt lat="45.903325919061899" lon="5.806964999064803"><ele></ele><time>2015-2-4T7:47:31Z</time></trkpt>
<trkpt lat="45.902852928265929" lon="5.806858967989683"><ele></ele><time>2015-2-4T7:47:34Z</time></trkpt>
<trkpt lat="45.90205798856914" lon="5.806902972981334"><ele></ele><time>2015-2-4T7:47:37Z</time></trkpt>
<trkpt lat="45.901064984500408" lon="5.806960975751281"><ele></ele><time>2015-2-4T7:47:40Z</time></trkpt>
<trkpt lat="45.900247916579247" lon="5.807017972692847"><ele></ele><time>2015-2-4T7:47:43Z</time></trkpt>
<trkpt lat="45.899688927456737" lon="5.807059966027737"><ele></ele><time>2015-2-4T7:47:46Z</time></trkpt>
<trkpt lat="45.899141924455762" lon="5.807093996554613"><ele></ele><time>2015-2-4T7:47:49Z</time></trkpt>
<trkpt lat="45.898104999214411" lon="5.807128949090838"><ele></ele><time>2015-2-4T7:47:52Z</time></trkpt>
<trkpt lat="45.897079976275563" lon="5.807168930768967"><ele></ele><time>2015-2-4T7:47:55Z</time></trkpt>
<trkpt lat="45.896536996588111" lon="5.807299939915538"><ele></ele><time>2015-2-4T7:47:58Z</time></trkpt>
<trkpt lat="45.89591296389699" lon="5.808022962883115"><ele></ele><time>2015-2-4T7:48:1Z</time></trkpt>
<trkpt lat="45.895279962569475" lon="5.808555968105793"><ele></ele><time>2015-2-4T7:48:4Z</time></trkpt>
<trkpt lat="45.894519975408912" lon="5.808411967009306"><ele></ele><time>2015-2-4T7:48:7Z</time></trkpt>
<trkpt lat="45.893997950479388" lon="5.808239970356226"><ele></ele><time>2015-2-4T7:48:10Z</time></trkpt>
<trkpt lat="45.893456982448697" lon="5.808068979531527"><ele></ele><time>2015-2-4T7:48:13Z</time></trkpt>
<trkpt lat="45.892863962799311" lon="5.807878961786628"><ele></ele><time>2015-2-4T7:48:16Z</time></trkpt>
<trkpt lat="45.89211193844676" lon="5.80754091963172"><ele></ele><time>2015-2-4T7:48:19Z</time></trkpt>
<trkpt lat="45.891683958470821" lon="5.807245960459113"><ele></ele><time>2015-2-4T7:48:22Z</time></trkpt>
<trkpt lat="45.890785921365023" lon="5.806851927191019"><ele></ele><time>2015-2-4T7:48:25Z</time></trkpt>
<trkpt lat="45.890222992748022" lon="5.806683953851461"><ele></ele><time>2015-2-4T7:48:28Z</time></trkpt>
<trkpt lat="45.889247925952077" lon="5.806781938299537"><ele></ele><time>2015-2-4T7:48:31Z</time></trkpt>
<trkpt lat="45.888790944591165" lon="5.806890986859798"><ele></ele><time>2015-2-4T7:48:34Z</time></trkpt>
<trkpt lat="45.888227932155132" lon="5.807010931894183"><ele></ele><time>2015-2-4T7:48:37Z</time></trkpt>
<trkpt lat="45.88748998939991" lon="5.807136995717883"><ele></ele><time>2015-2-4T7:48:40Z</time></trkpt>
<trkpt lat="45.886717932298779" lon="5.807228945195675"><ele></ele><time>2015-2-4T7:48:43Z</time></trkpt>
<trkpt lat="45.886127930134535" lon="5.807169936597347"><ele></ele><time>2015-2-4T7:48:46Z</time></trkpt>
<trkpt lat="45.885558966547251" lon="5.807015961036086"><ele></ele><time>2015-2-4T7:48:49Z</time></trkpt>
<trkpt lat="45.885065943002701" lon="5.806877994909883"><ele></ele><time>2015-2-4T7:48:52Z</time></trkpt>
<trkpt lat="45.884507959708571" lon="5.806717984378338"><ele></ele><time>2015-2-4T7:48:55Z</time></trkpt>
<trkpt lat="45.884065981954336" lon="5.806588986888528"><ele></ele><time>2015-2-4T7:48:58Z</time></trkpt>
<trkpt lat="45.883428957313299" lon="5.806431993842125"><ele></ele><time>2015-2-4T7:49:1Z</time></trkpt>
<trkpt lat="45.88269897736609" lon="5.806281957775354"><ele></ele><time>2015-2-4T7:49:4Z</time></trkpt>
<trkpt lat="45.881774956360459" lon="5.806214986369014"><ele></ele><time>2015-2-4T7:49:7Z</time></trkpt>
<trkpt lat="45.881312945857644" lon="5.806194953620434"><ele></ele><time>2015-2-4T7:49:10Z</time></trkpt>
<trkpt lat="45.880403928458691" lon="5.806177938356996"><ele></ele><time>2015-2-4T7:49:13Z</time></trkpt>
<trkpt lat="45.87988693267107" lon="5.806132927536964"><ele></ele><time>2015-2-4T7:49:16Z</time></trkpt>
<trkpt lat="45.879236999899149" lon="5.805986998602748"><ele></ele><time>2015-2-4T7:49:19Z</time></trkpt>
<trkpt lat="45.878506936132908" lon="5.805791951715946"><ele></ele><time>2015-2-4T7:49:22Z</time></trkpt>
<trkpt lat="45.877576963976026" lon="5.805510990321636"><ele></ele><time>2015-2-4T7:49:25Z</time></trkpt>
<trkpt lat="45.87696592323482" lon="5.805404959246516"><ele></ele><time>2015-2-4T7:49:28Z</time></trkpt>
<trkpt lat="45.876321941614151" lon="5.805249977856875"><ele></ele><time>2015-2-4T7:49:31Z</time></trkpt>
<trkpt lat="45.875500934198499" lon="5.805018972605467"><ele></ele><time>2015-2-4T7:49:34Z</time></trkpt>
<trkpt lat="45.874888971447945" lon="5.804834989830852"><ele></ele><time>2015-2-4T7:49:37Z</time></trkpt>
<trkpt lat="45.874201990664005" lon="5.804727952927351"><ele></ele><time>2015-2-4T7:49:40Z</time></trkpt>
<trkpt lat="45.873494977131486" lon="5.8046839479357"><ele></ele><time>2015-2-4T7:49:43Z</time></trkpt>
<trkpt lat="45.872559975832701" lon="5.804472975432873"><ele></ele><time>2015-2-4T7:49:46Z</time></trkpt>
<trkpt lat="45.871985983103514" lon="5.804274994879961"><ele></ele><time>2015-2-4T7:49:49Z</time></trkpt>
<trkpt lat="45.871387934312224" lon="5.804021945223212"><ele></ele><time>2015-2-4T7:49:52Z</time></trkpt>
<trkpt lat="45.870638927444816" lon="5.803681975230575"><ele></ele><time>2015-2-4T7:49:55Z</time></trkpt>
<trkpt lat="45.87013391777873" lon="5.803459938615561"><ele></ele><time>2015-2-4T7:49:58Z</time></trkpt>
<trkpt lat="45.869706943631172" lon="5.803196998313069"><ele></ele><time>2015-2-4T7:50:1Z</time></trkpt>
<trkpt lat="45.869065979495645" lon="5.802455954253674"><ele></ele><time>2015-2-4T7:50:4Z</time></trkpt>
<trkpt lat="45.868241954594851" lon="5.80210299231112"><ele></ele><time>2015-2-4T7:50:7Z</time></trkpt>
<trkpt lat="45.86755296215415" lon="5.801639975979924"><ele></ele><time>2015-2-4T7:50:10Z</time></trkpt>
<trkpt lat="45.866975951939821" lon="5.800715954974294"><ele></ele><time>2015-2-4T7:50:13Z</time></trkpt>
<trkpt lat="45.866591976955533" lon="5.80027598887682"><ele></ele><time>2015-2-4T7:50:16Z</time></trkpt>
<trkpt lat="45.865889992564917" lon="5.800001984462142"><ele></ele><time>2015-2-4T7:50:19Z</time></trkpt>
<trkpt lat="45.865088934078813" lon="5.800105920061469"><ele></ele><time>2015-2-4T7:50:22Z</time></trkpt>
<trkpt lat="45.864325929433107" lon="5.799866952002049"><ele></ele><time>2015-2-4T7:50:25Z</time></trkpt>
<trkpt lat="45.863691922277212" lon="5.79941893927753"><ele></ele><time>2015-2-4T7:50:28Z</time></trkpt>
<trkpt lat="45.862816935405135" lon="5.799337970092893"><ele></ele><time>2015-2-4T7:50:31Z</time></trkpt>
<trkpt lat="45.86231192573905" lon="5.799454981461167"><ele></ele><time>2015-2-4T7:50:34Z</time></trkpt>
<trkpt lat="45.861635925248265" lon="5.799454981461167"><ele></ele><time>2015-2-4T7:50:37Z</time></trkpt>
<trkpt lat="45.861178943887353" lon="5.799344927072525"><ele></ele><time>2015-2-4T7:50:40Z</time></trkpt>
<trkpt lat="45.860278978943825" lon="5.7991389837116"><ele></ele><time>2015-2-4T7:50:43Z</time></trkpt>
<trkpt lat="45.859329979866743" lon="5.799294970929623"><ele></ele><time>2015-2-4T7:50:46Z</time></trkpt>
<trkpt lat="45.858749952167273" lon="5.799345932900906"><ele></ele><time>2015-2-4T7:50:49Z</time></trkpt>
<trkpt lat="45.858223987743258" lon="5.799360936507583"><ele></ele><time>2015-2-4T7:50:52Z</time></trkpt>
<trkpt lat="45.857579922303557" lon="5.799361942335963"><ele></ele><time>2015-2-4T7:50:55Z</time></trkpt>
<trkpt lat="45.85711095482111" lon="5.799301927909255"><ele></ele><time>2015-2-4T7:50:58Z</time></trkpt>
<trkpt lat="45.856112921610475" lon="5.798765989020467"><ele></ele><time>2015-2-4T7:51:1Z</time></trkpt>
<trkpt lat="45.855504982173443" lon="5.798425935208798"><ele></ele><time>2015-2-4T7:51:4Z</time></trkpt>
<trkpt lat="45.855025956407189" lon="5.798144973814488"><ele></ele><time>2015-2-4T7:51:7Z</time></trkpt>
<trkpt lat="45.854477947577834" lon="5.797811960801482"><ele></ele><time>2015-2-4T7:51:10Z</time></trkpt>
<trkpt lat="45.854059942066669" lon="5.7974639441818"><ele></ele><time>2015-2-4T7:51:13Z</time></trkpt>
<trkpt lat="45.853704968467355" lon="5.797025989741087"><ele></ele><time>2015-2-4T7:51:16Z</time></trkpt>
<trkpt lat="45.853343959897757" lon="5.796449985355139"><ele></ele><time>2015-2-4T7:51:19Z</time></trkpt>
<trkpt lat="45.852796956896782" lon="5.795688992366195"><ele></ele><time>2015-2-4T7:51:22Z</time></trkpt>
<trkpt lat="45.852225981652737" lon="5.795018943026662"><ele></ele><time>2015-2-4T7:51:25Z</time></trkpt>
<trkpt lat="45.851762965321541" lon="5.794787937775254"><ele></ele><time>2015-2-4T7:51:28Z</time></trkpt>
<trkpt lat="45.851403968408704" lon="5.794308995828033"><ele></ele><time>2015-2-4T7:51:31Z</time></trkpt>
<trkpt lat="45.85107397288084" lon="5.794599931687117"><ele></ele><time>2015-2-4T7:51:34Z</time></trkpt>
<trkpt lat="45.850720927119255" lon="5.795545997098088"><ele></ele><time>2015-2-4T7:51:37Z</time></trkpt>
<trkpt lat="45.850480953231454" lon="5.796112949028611"><ele></ele><time>2015-2-4T7:51:40Z</time></trkpt>
<trkpt lat="45.849962951615453" lon="5.797298988327384"><ele></ele><time>2015-2-4T7:51:43Z</time></trkpt>
<trkpt lat="45.849641924723983" lon="5.797791928052902"><ele></ele><time>2015-2-4T7:51:46Z</time></trkpt>
<trkpt lat="45.848503997549415" lon="5.797542985528708"><ele></ele><time>2015-2-4T7:51:49Z</time></trkpt>
<trkpt lat="45.84780796431005" lon="5.797256994992495"><ele></ele><time>2015-2-4T7:51:52Z</time></trkpt>
<trkpt lat="45.847188960760832" lon="5.796998916193843"><ele></ele><time>2015-2-4T7:51:55Z</time></trkpt>
<trkpt lat="45.846376921981573" lon="5.79666699282825"><ele></ele><time>2015-2-4T7:51:58Z</time></trkpt>
<trkpt lat="45.845787925645709" lon="5.796397933736444"><ele></ele><time>2015-2-4T7:52:1Z</time></trkpt>
<trkpt lat="45.845053922384977" lon="5.796015970408917"><ele></ele><time>2015-2-4T7:52:4Z</time></trkpt>
<trkpt lat="45.844420921057463" lon="5.795672982931137"><ele></ele><time>2015-2-4T7:52:7Z</time></trkpt>
<trkpt lat="45.843917923048139" lon="5.795455975458026"><ele></ele><time>2015-2-4T7:52:10Z</time></trkpt>
<trkpt lat="45.843307971954346" lon="5.795214995741844"><ele></ele><time>2015-2-4T7:52:13Z</time></trkpt>
<trkpt lat="45.842476990073919" lon="5.79488298855722"><ele></ele><time>2015-2-4T7:52:16Z</time></trkpt>
<trkpt lat="45.841805934906006" lon="5.794607978314161"><ele></ele><time>2015-2-4T7:52:19Z</time></trkpt>
<trkpt lat="45.841017952188849" lon="5.794287957251072"><ele></ele><time>2015-2-4T7:52:22Z</time></trkpt>
<trkpt lat="45.840281937271357" lon="5.793996937572956"><ele></ele><time>2015-2-4T7:52:25Z</time></trkpt>
<trkpt lat="45.839644996449351" lon="5.793836927041411"><ele></ele><time>2015-2-4T7:52:28Z</time></trkpt>
<trkpt lat="45.838963966816664" lon="5.793654955923557"><ele></ele><time>2015-2-4T7:52:31Z</time></trkpt>
<trkpt lat="45.838368935510516" lon="5.79342395067215"><ele></ele><time>2015-2-4T7:52:34Z</time></trkpt>
<trkpt lat="45.83783995360136" lon="5.793204931542277"><ele></ele><time>2015-2-4T7:52:37Z</time></trkpt>
<trkpt lat="45.837184991687536" lon="5.792935956269503"><ele></ele><time>2015-2-4T7:52:40Z</time></trkpt>
<trkpt lat="45.836586942896247" lon="5.792697994038463"><ele></ele><time>2015-2-4T7:52:43Z</time></trkpt>
<trkpt lat="45.835986966267228" lon="5.792463971301913"><ele></ele><time>2015-2-4T7:52:46Z</time></trkpt>
<trkpt lat="45.835303924977779" lon="5.792178986594081"><ele></ele><time>2015-2-4T7:52:49Z</time></trkpt>
<trkpt lat="45.834559947252274" lon="5.791885955259204"><ele></ele><time>2015-2-4T7:52:52Z</time></trkpt>
<trkpt lat="45.833717985078692" lon="5.791545985266566"><ele></ele><time>2015-2-4T7:52:55Z</time></trkpt>
<trkpt lat="45.832835957407951" lon="5.791180953383446"><ele></ele><time>2015-2-4T7:52:58Z</time></trkpt>
<trkpt lat="45.832398924976587" lon="5.7909329328686"><ele></ele><time>2015-2-4T7:53:1Z</time></trkpt>
<trkpt lat="45.83178193308413" lon="5.790248969569802"><ele></ele><time>2015-2-4T7:53:4Z</time></trkpt>
<trkpt lat="45.831322940066457" lon="5.789659973233938"><ele></ele><time>2015-2-4T7:53:7Z</time></trkpt>
<trkpt lat="45.830567982047796" lon="5.788704939186573"><ele></ele><time>2015-2-4T7:53:10Z</time></trkpt>
<trkpt lat="45.830221977084875" lon="5.788271930068731"><ele></ele><time>2015-2-4T7:53:13Z</time></trkpt>
<trkpt lat="45.829808916896582" lon="5.787739930674434"><ele></ele><time>2015-2-4T7:53:16Z</time></trkpt>
<trkpt lat="45.829398958012462" lon="5.78721396625042"><ele></ele><time>2015-2-4T7:53:19Z</time></trkpt>
<trkpt lat="45.828720945864916" lon="5.786389941349626"><ele></ele><time>2015-2-4T7:53:22Z</time></trkpt>
<trkpt lat="45.828273938968778" lon="5.785972941666842"><ele></ele><time>2015-2-4T7:53:25Z</time></trkpt>
<trkpt lat="45.827727941796184" lon="5.785593995824456"><ele></ele><time>2015-2-4T7:53:28Z</time></trkpt>
<trkpt lat="45.82720298320055" lon="5.785358967259526"><ele></ele><time>2015-2-4T7:53:31Z</time></trkpt>
<trkpt lat="45.82651499658823" lon="5.78517297282815"><ele></ele><time>2015-2-4T7:53:34Z</time></trkpt>
<trkpt lat="45.825852993875742" lon="5.784987984225154"><ele></ele><time>2015-2-4T7:53:37Z</time></trkpt>
<trkpt lat="45.82522694952786" lon="5.784814981743693"><ele></ele><time>2015-2-4T7:53:40Z</time></trkpt>
<trkpt lat="45.824553966522217" lon="5.784629993140698"><ele></ele><time>2015-2-4T7:53:43Z</time></trkpt>
<trkpt lat="45.823890957981348" lon="5.784447938203812"><ele></ele><time>2015-2-4T7:53:46Z</time></trkpt>
<trkpt lat="45.823091994971037" lon="5.784231936559081"><ele></ele><time>2015-2-4T7:53:49Z</time></trkpt>
<trkpt lat="45.822524959221482" lon="5.784078966826201"><ele></ele><time>2015-2-4T7:53:52Z</time></trkpt>
<trkpt lat="45.822036964818835" lon="5.783940916880965"><ele></ele><time>2015-2-4T7:53:55Z</time></trkpt>
<trkpt lat="45.821426929906011" lon="5.783755928277969"><ele></ele><time>2015-2-4T7:53:58Z</time></trkpt>
<trkpt lat="45.820804992690682" lon="5.783585943281651"><ele></ele><time>2015-2-4T7:54:1Z</time></trkpt>
<trkpt lat="45.820196969434619" lon="5.783393997699022"><ele></ele><time>2015-2-4T7:54:4Z</time></trkpt>
<trkpt lat="45.819621970877051" lon="5.783113958314061"><ele></ele><time>2015-2-4T7:54:7Z</time></trkpt>
<trkpt lat="45.819074967876077" lon="5.782742975279689"><ele></ele><time>2015-2-4T7:54:10Z</time></trkpt>
<trkpt lat="45.818504998460412" lon="5.782300997525454"><ele></ele><time>2015-2-4T7:54:13Z</time></trkpt>
<trkpt lat="45.817827992141247" lon="5.78180193901062"><ele></ele><time>2015-2-4T7:54:16Z</time></trkpt>
<trkpt lat="45.817112931981683" lon="5.781445959582925"><ele></ele><time>2015-2-4T7:54:19Z</time></trkpt>
<trkpt lat="45.816626949235797" lon="5.78143497928977"><ele></ele><time>2015-2-4T7:54:22Z</time></trkpt>
<trkpt lat="45.81667598336935" lon="5.781452916562557"><ele></ele><time>2015-2-4T7:54:25Z</time></trkpt>
<trkpt lat="45.816900953650475" lon="5.78214199282229"><ele></ele><time>2015-2-4T7:54:28Z</time></trkpt>
<trkpt lat="45.816807998344302" lon="5.782750938087702"><ele></ele><time>2015-2-4T7:54:31Z</time></trkpt>
<trkpt lat="45.816844962537289" lon="5.782090947031975"><ele></ele><time>2015-2-4T7:54:34Z</time></trkpt>
<trkpt lat="45.816711941733956" lon="5.781459957361221"><ele></ele><time>2015-2-4T7:54:37Z</time></trkpt>
<trkpt lat="45.81723497249186" lon="5.781555930152535"><ele></ele><time>2015-2-4T7:54:40Z</time></trkpt>
<trkpt lat="45.817702934145927" lon="5.781810991466045"><ele></ele><time>2015-2-4T7:54:43Z</time></trkpt>
<trkpt lat="45.818468956276774" lon="5.782367968931794"><ele></ele><time>2015-2-4T7:54:46Z</time></trkpt>
<trkpt lat="45.819052923470736" lon="5.782825956121087"><ele></ele><time>2015-2-4T7:54:49Z</time></trkpt>
<trkpt lat="45.81966195255518" lon="5.783234992995858"><ele></ele><time>2015-2-4T7:54:52Z</time></trkpt>
<trkpt lat="45.82009194418788" lon="5.783448982983828"><ele></ele><time>2015-2-4T7:54:55Z</time></trkpt>
<trkpt lat="45.820719916373491" lon="5.783663978800178"><ele></ele><time>2015-2-4T7:54:58Z</time></trkpt>
<trkpt lat="45.821380997076631" lon="5.783841926604509"><ele></ele><time>2015-2-4T7:55:1Z</time></trkpt>
<trkpt lat="45.822183983400464" lon="5.784063963219523"><ele></ele><time>2015-2-4T7:55:4Z</time></trkpt>
<trkpt lat="45.822913963347673" lon="5.784265967085958"><ele></ele><time>2015-2-4T7:55:7Z</time></trkpt>
<trkpt lat="45.823516957461834" lon="5.784426983445883"><ele></ele><time>2015-2-4T7:55:10Z</time></trkpt>
<trkpt lat="45.824064966291189" lon="5.784576935693622"><ele></ele><time>2015-2-4T7:55:13Z</time></trkpt>
<trkpt lat="45.824809949845076" lon="5.784779945388436"><ele></ele><time>2015-2-4T7:55:16Z</time></trkpt>
<trkpt lat="45.825564991682768" lon="5.784986978396773"><ele></ele><time>2015-2-4T7:55:19Z</time></trkpt>
<trkpt lat="45.826269993558526" lon="5.785180935636163"><ele></ele><time>2015-2-4T7:55:22Z</time></trkpt>
<trkpt lat="45.82696795463562" lon="5.785372965037823"><ele></ele><time>2015-2-4T7:55:25Z</time></trkpt>
<trkpt lat="45.82765594124794" lon="5.785644957795739"><ele></ele><time>2015-2-4T7:55:28Z</time></trkpt>
<trkpt lat="45.828137984499335" lon="5.785961961373687"><ele></ele><time>2015-2-4T7:55:31Z</time></trkpt>
<trkpt lat="45.828517936170101" lon="5.786307966336608"><ele></ele><time>2015-2-4T7:55:34Z</time></trkpt>
<trkpt lat="45.828955974429846" lon="5.786821944639087"><ele></ele><time>2015-2-4T7:55:37Z</time></trkpt>
<trkpt lat="45.82956894300878" lon="5.787610933184624"><ele></ele><time>2015-2-4T7:55:40Z</time></trkpt>
<trkpt lat="45.830006981268525" lon="5.788163971155882"><ele></ele><time>2015-2-4T7:55:43Z</time></trkpt>
<trkpt lat="45.830443929880857" lon="5.788716925308108"><ele></ele><time>2015-2-4T7:55:46Z</time></trkpt>
<trkpt lat="45.83092094399035" lon="5.789329977706075"><ele></ele><time>2015-2-4T7:55:49Z</time></trkpt>
<trkpt lat="45.831405920907855" lon="5.789957949891686"><ele></ele><time>2015-2-4T7:55:52Z</time></trkpt>
<trkpt lat="45.831901961937547" lon="5.790577959269285"><ele></ele><time>2015-2-4T7:55:55Z</time></trkpt>
<trkpt lat="45.832692962139845" lon="5.791194951161742"><ele></ele><time>2015-2-4T7:55:58Z</time></trkpt>
<trkpt lat="45.833204928785563" lon="5.791412964463234"><ele></ele><time>2015-2-4T7:56:1Z</time></trkpt>
<trkpt lat="45.833845976740122" lon="5.791672971099615"><ele></ele><time>2015-2-4T7:56:4Z</time></trkpt>
<trkpt lat="45.834624990820885" lon="5.791979916393757"><ele></ele><time>2015-2-4T7:56:7Z</time></trkpt>
<trkpt lat="45.835199989378452" lon="5.792212933301926"><ele></ele><time>2015-2-4T7:56:10Z</time></trkpt>
<trkpt lat="45.836096936836839" lon="5.792582994326949"><ele></ele><time>2015-2-4T7:56:13Z</time></trkpt>
<trkpt lat="45.836609993129969" lon="5.792790949344635"><ele></ele><time>2015-2-4T7:56:16Z</time></trkpt>
<trkpt lat="45.837376937270164" lon="5.793097978457809"><ele></ele><time>2015-2-4T7:56:19Z</time></trkpt>
<trkpt lat="45.837953947484493" lon="5.793331917375326"><ele></ele><time>2015-2-4T7:56:22Z</time></trkpt>
<trkpt lat="45.83850497379899" lon="5.793563928455114"><ele></ele><time>2015-2-4T7:56:25Z</time></trkpt>
<trkpt lat="45.839157924056053" lon="5.793826952576637"><ele></ele><time>2015-2-4T7:56:28Z</time></trkpt>
<trkpt lat="45.839832918718457" lon="5.794013952836394"><ele></ele><time>2015-2-4T7:56:31Z</time></trkpt>
<trkpt lat="45.840554935857654" lon="5.794203970581293"><ele></ele><time>2015-2-4T7:56:34Z</time></trkpt>
<trkpt lat="45.841191960498691" lon="5.794453918933868"><ele></ele><time>2015-2-4T7:56:37Z</time></trkpt>
<trkpt lat="45.84170694462955" lon="5.794663969427347"><ele></ele><time>2015-2-4T7:56:40Z</time></trkpt>
<trkpt lat="45.842550918459892" lon="5.795009974390268"><ele></ele><time>2015-2-4T7:56:43Z</time></trkpt>
<trkpt lat="45.843290956690907" lon="5.795303927734494"><ele></ele><time>2015-2-4T7:56:46Z</time></trkpt>
<trkpt lat="45.84396293386817" lon="5.795583967119455"><ele></ele><time>2015-2-4T7:56:49Z</time></trkpt>
<trkpt lat="45.84471495822072" lon="5.795946987345815"><ele></ele><time>2015-2-4T7:56:52Z</time></trkpt>
<trkpt lat="45.845440998673439" lon="5.796335991472006"><ele></ele><time>2015-2-4T7:56:55Z</time></trkpt>
<trkpt lat="45.846104929223657" lon="5.796656934544444"><ele></ele><time>2015-2-4T7:56:58Z</time></trkpt>
<trkpt lat="45.846887966617942" lon="5.796976955607534"><ele></ele><time>2015-2-4T7:57:1Z</time></trkpt>
<trkpt lat="45.847450979053974" lon="5.797199998050928"><ele></ele><time>2015-2-4T7:57:4Z</time></trkpt>
<trkpt lat="45.848256982862949" lon="5.797523958608508"><ele></ele><time>2015-2-4T7:57:7Z</time></trkpt>
<trkpt lat="45.848865928128362" lon="5.797771979123354"><ele></ele><time>2015-2-4T7:57:10Z</time></trkpt>
<trkpt lat="45.849283933639526" lon="5.798130976036191"><ele></ele><time>2015-2-4T7:57:13Z</time></trkpt>
<trkpt lat="45.849460959434509" lon="5.798904960975051"><ele></ele><time>2015-2-4T7:57:16Z</time></trkpt>
<trkpt lat="45.849315952509642" lon="5.800274983048439"><ele></ele><time>2015-2-4T7:57:19Z</time></trkpt>
<trkpt lat="45.849242946133018" lon="5.800942936912179"><ele></ele><time>2015-2-4T7:57:22Z</time></trkpt>
<trkpt lat="45.849130963906646" lon="5.801898976787925"><ele></ele><time>2015-2-4T7:57:25Z</time></trkpt>
<trkpt lat="45.849041948094964" lon="5.802638931199908"><ele></ele><time>2015-2-4T7:57:28Z</time></trkpt>
<trkpt lat="45.848910938948393" lon="5.803767973557115"><ele></ele><time>2015-2-4T7:57:31Z</time></trkpt>
<trkpt lat="45.848824940621853" lon="5.8045319840312"><ele></ele><time>2015-2-4T7:57:34Z</time></trkpt>
<trkpt lat="45.848715975880623" lon="5.805398924276233"><ele></ele><time>2015-2-4T7:57:37Z</time></trkpt>
<trkpt lat="45.848607933148742" lon="5.806306935846806"><ele></ele><time>2015-2-4T7:57:40Z</time></trkpt>
<trkpt lat="45.848540961742401" lon="5.806967932730913"><ele></ele><time>2015-2-4T7:57:43Z</time></trkpt>
<trkpt lat="45.847706962376833" lon="5.807512924075127"><ele></ele><time>2015-2-4T7:57:46Z</time></trkpt>
<trkpt lat="45.847217962145805" lon="5.807665977627039"><ele></ele><time>2015-2-4T7:57:49Z</time></trkpt>
<trkpt lat="45.84664598107338" lon="5.807858929038048"><ele></ele><time>2015-2-4T7:57:52Z</time></trkpt>
<trkpt lat="45.846006944775581" lon="5.808071997016668"><ele></ele><time>2015-2-4T7:57:55Z</time></trkpt>
<trkpt lat="45.84544594399631" lon="5.808270983397961"><ele></ele><time>2015-2-4T7:57:58Z</time></trkpt>
<trkpt lat="45.844945963472128" lon="5.80852696672082"><ele></ele><time>2015-2-4T7:58:1Z</time></trkpt>
<trkpt lat="45.844367947429419" lon="5.808987971395254"><ele></ele><time>2015-2-4T7:58:4Z</time></trkpt>
<trkpt lat="45.843892944976687" lon="5.809318972751498"><ele></ele><time>2015-2-4T7:58:7Z</time></trkpt>
<trkpt lat="45.843325993046165" lon="5.809558946639299"><ele></ele><time>2015-2-4T7:58:10Z</time></trkpt>
<trkpt lat="45.84267295897007" lon="5.809681992977858"><ele></ele><time>2015-2-4T7:58:13Z</time></trkpt>
<trkpt lat="45.842075999826193" lon="5.809657936915755"><ele></ele><time>2015-2-4T7:58:16Z</time></trkpt>
<trkpt lat="45.841412991285324" lon="5.809608986601234"><ele></ele><time>2015-2-4T7:58:19Z</time></trkpt>
<trkpt lat="45.840541943907738" lon="5.809555929154158"><ele></ele><time>2015-2-4T7:58:22Z</time></trkpt>
<trkpt lat="45.839885976165533" lon="5.809593982994556"><ele></ele><time>2015-2-4T7:58:25Z</time></trkpt>
<trkpt lat="45.839242916554213" lon="5.809767991304398"><ele></ele><time>2015-2-4T7:58:28Z</time></trkpt>
<trkpt lat="45.838624918833375" lon="5.810043923556805"><ele></ele><time>2015-2-4T7:58:31Z</time></trkpt>
<trkpt lat="45.837822938337922" lon="5.810399986803532"><ele></ele><time>2015-2-4T7:58:34Z</time></trkpt>
<trkpt lat="45.836746953427792" lon="5.810382971540093"><ele></ele><time>2015-2-4T7:58:37Z</time></trkpt>
<trkpt lat="45.835875989869237" lon="5.810638954862952"><ele></ele><time>2015-2-4T7:58:40Z</time></trkpt>
<trkpt lat="45.835285987704992" lon="5.810972973704338"><ele></ele><time>2015-2-4T7:58:43Z</time></trkpt>
<trkpt lat="45.834828922525048" lon="5.811227951198816"><ele></ele><time>2015-2-4T7:58:46Z</time></trkpt>
<trkpt lat="45.834225928410888" lon="5.811569932848215"><ele></ele><time>2015-2-4T7:58:49Z</time></trkpt>
<trkpt lat="45.833383966237307" lon="5.811968995258212"><ele></ele><time>2015-2-4T7:58:52Z</time></trkpt>
<trkpt lat="45.832715928554535" lon="5.812132945284247"><ele></ele><time>2015-2-4T7:58:55Z</time></trkpt>
<trkpt lat="45.832047974690795" lon="5.812272923067212"><ele></ele><time>2015-2-4T7:58:58Z</time></trkpt>
<trkpt lat="45.831580935046077" lon="5.812262948602438"><ele></ele><time>2015-2-4T7:59:1Z</time></trkpt>
<trkpt lat="45.830999985337257" lon="5.812070919200778"><ele></ele><time>2015-2-4T7:59:4Z</time></trkpt>
<trkpt lat="45.829999940469861" lon="5.812088940292597"><ele></ele><time>2015-2-4T7:59:7Z</time></trkpt>
<trkpt lat="45.82943893969059" lon="5.812134956941009"><ele></ele><time>2015-2-4T7:59:10Z</time></trkpt>
<trkpt lat="45.828924961388111" lon="5.812176950275898"><ele></ele><time>2015-2-4T7:59:13Z</time></trkpt>
<trkpt lat="45.828863941133022" lon="5.813373969867826"><ele></ele><time>2015-2-4T7:59:16Z</time></trkpt>
<trkpt lat="45.828897971659899" lon="5.814531929790974"><ele></ele><time>2015-2-4T7:59:19Z</time></trkpt>
<trkpt lat="45.828918926417828" lon="5.815890971571207"><ele></ele><time>2015-2-4T7:59:22Z</time></trkpt>
<trkpt lat="45.828937953338027" lon="5.816935943439603"><ele></ele><time>2015-2-4T7:59:25Z</time></trkpt>
<trkpt lat="45.828951951116323" lon="5.817987956106663"><ele></ele><time>2015-2-4T7:59:28Z</time></trkpt>
<trkpt lat="45.828967960551381" lon="5.819116998463869"><ele></ele><time>2015-2-4T7:59:31Z</time></trkpt>
<trkpt lat="45.828980952501297" lon="5.82015099003911"><ele></ele><time>2015-2-4T7:59:34Z</time></trkpt>
<trkpt lat="45.8289859816432" lon="5.82101097330451"><ele></ele><time>2015-2-4T7:59:37Z</time></trkpt>
<trkpt lat="45.829006936401129" lon="5.822539916262031"><ele></ele><time>2015-2-4T7:59:40Z</time></trkpt>
<trkpt lat="45.829014983028173" lon="5.823369976133108"><ele></ele><time>2015-2-4T7:59:43Z</time></trkpt>
<trkpt lat="45.829022945836186" lon="5.824123928323388"><ele></ele><time>2015-2-4T7:59:46Z</time></trkpt>
<trkpt lat="45.829035937786102" lon="5.825042920187116"><ele></ele><time>2015-2-4T7:59:49Z</time></trkpt>
<trkpt lat="45.829039961099625" lon="5.825948920100927"><ele></ele><time>2015-2-4T7:59:52Z</time></trkpt>
<trkpt lat="45.829048929736018" lon="5.826944941654801"><ele></ele><time>2015-2-4T7:59:55Z</time></trkpt>
<trkpt lat="45.829055970534682" lon="5.827955966815352"><ele></ele><time>2015-2-4T7:59:58Z</time></trkpt>
<trkpt lat="45.829060999676585" lon="5.828968919813633"><ele></ele><time>2015-2-4T8:0:1Z</time></trkpt>
<trkpt lat="45.829063933342695" lon="5.829894952476025"><ele></ele><time>2015-2-4T8:0:4Z</time></trkpt>
<trkpt lat="45.829067956656218" lon="5.830988958477974"><ele></ele><time>2015-2-4T8:0:7Z</time></trkpt>
<trkpt lat="45.829097963869572" lon="5.831966958940029"><ele></ele><time>2015-2-4T8:0:10Z</time></trkpt>
<trkpt lat="45.829206928610802" lon="5.832616975530982"><ele></ele><time>2015-2-4T8:0:13Z</time></trkpt>
<trkpt lat="45.829447992146015" lon="5.833178982138634"><ele></ele><time>2015-2-4T8:0:16Z</time></trkpt>
<trkpt lat="45.829680925235152" lon="5.833785999566317"><ele></ele><time>2015-2-4T8:0:19Z</time></trkpt>
<trkpt lat="45.829875972121954" lon="5.835293987765908"><ele></ele><time>2015-2-4T8:0:22Z</time></trkpt>
<trkpt lat="45.830005975440145" lon="5.836083982139826"><ele></ele><time>2015-2-4T8:0:25Z</time></trkpt>
<trkpt lat="45.830200938507915" lon="5.837041949853301"><ele></ele><time>2015-2-4T8:0:28Z</time></trkpt>
<trkpt lat="45.830242931842804" lon="5.838217930868268"><ele></ele><time>2015-2-4T8:0:31Z</time></trkpt>
<trkpt lat="45.830191969871521" lon="5.83914396353066"><ele></ele><time>2015-2-4T8:0:34Z</time></trkpt>
<trkpt lat="45.830151988193393" lon="5.840276945382357"><ele></ele><time>2015-2-4T8:0:37Z</time></trkpt>
<trkpt lat="45.83012793213129" lon="5.841020923107863"><ele></ele><time>2015-2-4T8:0:40Z</time></trkpt>
<trkpt lat="45.830111922696233" lon="5.841671945527196"><ele></ele><time>2015-2-4T8:0:43Z</time></trkpt>
<trkpt lat="45.830068923532963" lon="5.842703925445676"><ele></ele><time>2015-2-4T8:0:46Z</time></trkpt>
<trkpt lat="45.829398958012462" lon="5.842747930437326"><ele></ele><time>2015-2-4T8:0:49Z</time></trkpt>
<trkpt lat="45.828940970823169" lon="5.842722952365875"><ele></ele><time>2015-2-4T8:0:52Z</time></trkpt>
<trkpt lat="45.828417940065265" lon="5.842691939324141"><ele></ele><time>2015-2-4T8:0:55Z</time></trkpt>
<trkpt lat="45.827678991481662" lon="5.842987988144159"><ele></ele><time>2015-2-4T8:0:58Z</time></trkpt>
<trkpt lat="45.82692495547235" lon="5.843493919819593"><ele></ele><time>2015-2-4T8:1:1Z</time></trkpt>
<trkpt lat="45.82613093778491" lon="5.843794997781515"><ele></ele><time>2015-2-4T8:1:4Z</time></trkpt>
<trkpt lat="45.825549988076091" lon="5.84400094114244"><ele></ele><time>2015-2-4T8:1:7Z</time></trkpt>
<trkpt lat="45.824880944564939" lon="5.844399919733405"><ele></ele><time>2015-2-4T8:1:10Z</time></trkpt>
<trkpt lat="45.824312986806035" lon="5.845048930495977"><ele></ele><time>2015-2-4T8:1:13Z</time></trkpt>
<trkpt lat="45.823869919404387" lon="5.845552934333682"><ele></ele><time>2015-2-4T8:1:16Z</time></trkpt>
<trkpt lat="45.82340195775032" lon="5.846169926226139"><ele></ele><time>2015-2-4T8:1:19Z</time></trkpt>
<trkpt lat="45.822967942804098" lon="5.846603941172361"><ele></ele><time>2015-2-4T8:1:22Z</time></trkpt>
<trkpt lat="45.822483971714973" lon="5.846974924206734"><ele></ele><time>2015-2-4T8:1:25Z</time></trkpt>
<trkpt lat="45.821735970675945" lon="5.847319923341274"><ele></ele><time>2015-2-4T8:1:28Z</time></trkpt>
<trkpt lat="45.820927955210209" lon="5.847446992993355"><ele></ele><time>2015-2-4T8:1:31Z</time></trkpt>
<trkpt lat="45.820430992171168" lon="5.847631981596351"><ele></ele><time>2015-2-4T8:1:34Z</time></trkpt>
<trkpt lat="45.819785920903087" lon="5.847878996282816"><ele></ele><time>2015-2-4T8:1:37Z</time></trkpt>
<trkpt lat="45.8193189650774" lon="5.848005982115865"><ele></ele><time>2015-2-4T8:1:40Z</time></trkpt>
<trkpt lat="45.818579932674766" lon="5.848385933786631"><ele></ele><time>2015-2-4T8:1:43Z</time></trkpt>
<trkpt lat="45.81798498518765" lon="5.848867977038026"><ele></ele><time>2015-2-4T8:1:46Z</time></trkpt>
<trkpt lat="45.816879998892546" lon="5.849299980327487"><ele></ele><time>2015-2-4T8:1:49Z</time></trkpt>
<trkpt lat="45.816362919285893" lon="5.849507935345173"><ele></ele><time>2015-2-4T8:1:52Z</time></trkpt>
<trkpt lat="45.815309984609485" lon="5.849448926746845"><ele></ele><time>2015-2-4T8:1:55Z</time></trkpt>
<trkpt lat="45.814864989370108" lon="5.849357983097434"><ele></ele><time>2015-2-4T8:1:58Z</time></trkpt>
<trkpt lat="45.814284961670637" lon="5.849354965612292"><ele></ele><time>2015-2-4T8:2:1Z</time></trkpt>
<trkpt lat="45.813380973413587" lon="5.849544983357191"><ele></ele><time>2015-2-4T8:2:4Z</time></trkpt>
<trkpt lat="45.81281092017889" lon="5.849673980847001"><ele></ele><time>2015-2-4T8:2:7Z</time></trkpt>
<trkpt lat="45.811943979933858" lon="5.849878918379545"><ele></ele><time>2015-2-4T8:2:10Z</time></trkpt>
<trkpt lat="45.811466965824366" lon="5.850053932517767"><ele></ele><time>2015-2-4T8:2:13Z</time></trkpt>
<trkpt lat="45.811062958091497" lon="5.850383928045631"><ele></ele><time>2015-2-4T8:2:16Z</time></trkpt>
<trkpt lat="45.81051092594862" lon="5.850592972710729"><ele></ele><time>2015-2-4T8:2:19Z</time></trkpt>
<trkpt lat="45.809881947934628" lon="5.851501990109682"><ele></ele><time>2015-2-4T8:2:22Z</time></trkpt>
<trkpt lat="45.809319941326976" lon="5.8519949298352"><ele></ele><time>2015-2-4T8:2:25Z</time></trkpt>
<trkpt lat="45.80861896276474" lon="5.852643940597773"><ele></ele><time>2015-2-4T8:2:28Z</time></trkpt>
<trkpt lat="45.807968946173787" lon="5.853185998275876"><ele></ele><time>2015-2-4T8:2:31Z</time></trkpt>
<trkpt lat="45.806747954338789" lon="5.853483974933624"><ele></ele><time>2015-2-4T8:2:34Z</time></trkpt>
<trkpt lat="45.806196928024292" lon="5.853674998506904"><ele></ele><time>2015-2-4T8:2:37Z</time></trkpt>
<trkpt lat="45.80541699193418" lon="5.854387963190675"><ele></ele><time>2015-2-4T8:2:40Z</time></trkpt>
<trkpt lat="45.804986916482449" lon="5.854600947350264"><ele></ele><time>2015-2-4T8:2:43Z</time></trkpt>
<trkpt lat="45.804269928485155" lon="5.854923985898495"><ele></ele><time>2015-2-4T8:2:46Z</time></trkpt>
<trkpt lat="45.803769947960973" lon="5.855208970606327"><ele></ele><time>2015-2-4T8:2:49Z</time></trkpt>
<trkpt lat="45.803115991875529" lon="5.855783969163895"><ele></ele><time>2015-2-4T8:2:52Z</time></trkpt>
<trkpt lat="45.802525989711285" lon="5.856552924960852"><ele></ele><time>2015-2-4T8:2:55Z</time></trkpt>
<trkpt lat="45.801832973957062" lon="5.856918962672353"><ele></ele><time>2015-2-4T8:2:58Z</time></trkpt>
<trkpt lat="45.801213970407844" lon="5.857154997065663"><ele></ele><time>2015-2-4T8:3:1Z</time></trkpt>
<trkpt lat="45.800426993519068" lon="5.857600998133421"><ele></ele><time>2015-2-4T8:3:4Z</time></trkpt>
<trkpt lat="45.799845959991217" lon="5.857941973954439"><ele></ele><time>2015-2-4T8:3:7Z</time></trkpt>
<trkpt lat="45.799282947555184" lon="5.858256965875626"><ele></ele><time>2015-2-4T8:3:10Z</time></trkpt>
<trkpt lat="45.798860918730497" lon="5.858535999432206"><ele></ele><time>2015-2-4T8:3:13Z</time></trkpt>
<trkpt lat="45.798318944871426" lon="5.858858954161406"><ele></ele><time>2015-2-4T8:3:16Z</time></trkpt>
<trkpt lat="45.79772399738431" lon="5.859032962471247"><ele></ele><time>2015-2-4T8:3:19Z</time></trkpt>
<trkpt lat="45.797224938869476" lon="5.859154919162393"><ele></ele><time>2015-2-4T8:3:22Z</time></trkpt>
<trkpt lat="45.796593949198723" lon="5.859320964664221"><ele></ele><time>2015-2-4T8:3:25Z</time></trkpt>
<trkpt lat="45.796056920662522" lon="5.85949195548892"><ele></ele><time>2015-2-4T8:3:28Z</time></trkpt>
<trkpt lat="45.795365916565061" lon="5.859700916334987"><ele></ele><time>2015-2-4T8:3:31Z</time></trkpt>
<trkpt lat="45.794575922191143" lon="5.859884982928634"><ele></ele><time>2015-2-4T8:3:34Z</time></trkpt>
<trkpt lat="45.794101925566792" lon="5.859957989305258"><ele></ele><time>2015-2-4T8:3:37Z</time></trkpt>
<trkpt lat="45.793367922306061" lon="5.860062930732966"><ele></ele><time>2015-2-4T8:3:40Z</time></trkpt>
<trkpt lat="45.79246292822063" lon="5.860212966799736"><ele></ele><time>2015-2-4T8:3:43Z</time></trkpt>
<trkpt lat="45.791628928855062" lon="5.860335929319263"><ele></ele><time>2015-2-4T8:3:46Z</time></trkpt>
<trkpt lat="45.790918981656432" lon="5.860435925424099"><ele></ele><time>2015-2-4T8:3:49Z</time></trkpt>
<trkpt lat="45.790361920371652" lon="5.860520917922258"><ele></ele><time>2015-2-4T8:3:52Z</time></trkpt>
<trkpt lat="45.789775941520929" lon="5.860604988411069"><ele></ele><time>2015-2-4T8:3:55Z</time></trkpt>
<trkpt lat="45.789191974326968" lon="5.86069199256599"><ele></ele><time>2015-2-4T8:3:58Z</time></trkpt>
<trkpt lat="45.788447996601462" lon="5.860794922336936"><ele></ele><time>2015-2-4T8:4:1Z</time></trkpt>
<trkpt lat="45.787524981424212" lon="5.860923919826746"><ele></ele><time>2015-2-4T8:4:4Z</time></trkpt>
<trkpt lat="45.78683297149837" lon="5.861026933416724"><ele></ele><time>2015-2-4T8:4:7Z</time></trkpt>
<trkpt lat="45.786023950204253" lon="5.861419960856438"><ele></ele><time>2015-2-4T8:4:10Z</time></trkpt>
<trkpt lat="45.785150974988937" lon="5.861936956644058"><ele></ele><time>2015-2-4T8:4:13Z</time></trkpt>
<trkpt lat="45.784374978393316" lon="5.862413970753551"><ele></ele><time>2015-2-4T8:4:16Z</time></trkpt>
<trkpt lat="45.783621948212385" lon="5.863046972081065"><ele></ele><time>2015-2-4T8:4:19Z</time></trkpt>
<trkpt lat="45.783228920772672" lon="5.863374955952168"><ele></ele><time>2015-2-4T8:4:22Z</time></trkpt>
<trkpt lat="45.782172968611121" lon="5.863651977851987"><ele></ele><time>2015-2-4T8:4:25Z</time></trkpt>
<trkpt lat="45.781558994203806" lon="5.863932939246297"><ele></ele><time>2015-2-4T8:4:28Z</time></trkpt>
<trkpt lat="45.781055996194482" lon="5.864224964752793"><ele></ele><time>2015-2-4T8:4:31Z</time></trkpt>
<trkpt lat="45.780193917453289" lon="5.864573987200856"><ele></ele><time>2015-2-4T8:4:34Z</time></trkpt>
<trkpt lat="45.779744982719421" lon="5.864665936678648"><ele></ele><time>2015-2-4T8:4:37Z</time></trkpt>
<trkpt lat="45.779211977496743" lon="5.864634923636913"><ele></ele><time>2015-2-4T8:4:40Z</time></trkpt>
<trkpt lat="45.778526924550533" lon="5.864671971648932"><ele></ele><time>2015-2-4T8:4:43Z</time></trkpt>
<trkpt lat="45.777921918779612" lon="5.864897947758436"><ele></ele><time>2015-2-4T8:4:46Z</time></trkpt>
<trkpt lat="45.777155980467796" lon="5.865253927186132"><ele></ele><time>2015-2-4T8:4:49Z</time></trkpt>
<trkpt lat="45.776242939755321" lon="5.865729935467243"><ele></ele><time>2015-2-4T8:4:52Z</time></trkpt>
<trkpt lat="45.775254964828491" lon="5.866245925426483"><ele></ele><time>2015-2-4T8:4:55Z</time></trkpt>
<trkpt lat="45.774441920220852" lon="5.866695949807763"><ele></ele><time>2015-2-4T8:4:58Z</time></trkpt>
<trkpt lat="45.773837920278311" lon="5.867099957540631"><ele></ele><time>2015-2-4T8:5:1Z</time></trkpt>
<trkpt lat="45.773341963067651" lon="5.86735594086349"><ele></ele><time>2015-2-4T8:5:4Z</time></trkpt>
<trkpt lat="45.772541994228959" lon="5.867650983855128"><ele></ele><time>2015-2-4T8:5:7Z</time></trkpt>
<trkpt lat="45.771876974031329" lon="5.867941919714212"><ele></ele><time>2015-2-4T8:5:10Z</time></trkpt>
<trkpt lat="45.771077927201986" lon="5.868360931053758"><ele></ele><time>2015-2-4T8:5:13Z</time></trkpt>
<trkpt lat="45.770572917535901" lon="5.868698973208666"><ele></ele><time>2015-2-4T8:5:16Z</time></trkpt>
<trkpt lat="45.769937988370657" lon="5.868924949318171"><ele></ele><time>2015-2-4T8:5:19Z</time></trkpt>
<trkpt lat="45.769412945955992" lon="5.869260979816318"><ele></ele><time>2015-2-4T8:5:22Z</time></trkpt>
<trkpt lat="45.768646923825145" lon="5.869620982557535"><ele></ele><time>2015-2-4T8:5:25Z</time></trkpt>
<trkpt lat="45.768113918602467" lon="5.869886940345168"><ele></ele><time>2015-2-4T8:5:28Z</time></trkpt>
<trkpt lat="45.767400953918695" lon="5.870146946981549"><ele></ele><time>2015-2-4T8:5:31Z</time></trkpt>
<trkpt lat="45.766683965921402" lon="5.870310980826616"><ele></ele><time>2015-2-4T8:5:34Z</time></trkpt>
<trkpt lat="45.765975946560502" lon="5.870380969718099"><ele></ele><time>2015-2-4T8:5:37Z</time></trkpt>
<trkpt lat="45.765511924400926" lon="5.87036294862628"><ele></ele><time>2015-2-4T8:5:40Z</time></trkpt>
<trkpt lat="45.764696951955557" lon="5.870326990261674"><ele></ele><time>2015-2-4T8:5:43Z</time></trkpt>
<trkpt lat="45.763906957581639" lon="5.870287930592895"><ele></ele><time>2015-2-4T8:5:46Z</time></trkpt>
<trkpt lat="45.763240931555629" lon="5.870305951684713"><ele></ele><time>2015-2-4T8:5:49Z</time></trkpt>
<trkpt lat="45.762618994340301" lon="5.870389938354492"><ele></ele><time>2015-2-4T8:5:52Z</time></trkpt>
<trkpt lat="45.761854983866215" lon="5.870518935844302"><ele></ele><time>2015-2-4T8:5:55Z</time></trkpt>
<trkpt lat="45.761398924514651" lon="5.870562940835953"><ele></ele><time>2015-2-4T8:5:58Z</time></trkpt>
<trkpt lat="45.760774975642562" lon="5.870754970237613"><ele></ele><time>2015-2-4T8:6:1Z</time></trkpt>
<trkpt lat="45.759834945201874" lon="5.870734937489033"><ele></ele><time>2015-2-4T8:6:4Z</time></trkpt>
<trkpt lat="45.759299928322434" lon="5.870638964697719"><ele></ele><time>2015-2-4T8:6:7Z</time></trkpt>
<trkpt lat="45.758820986375213" lon="5.871147997677326"><ele></ele><time>2015-2-4T8:6:10Z</time></trkpt>
<trkpt lat="45.758200976997614" lon="5.871698940172792"><ele></ele><time>2015-2-4T8:6:13Z</time></trkpt>
<trkpt lat="45.757840974256396" lon="5.872859917581081"><ele></ele><time>2015-2-4T8:6:16Z</time></trkpt>
<trkpt lat="45.757689932361245" lon="5.873636920005083"><ele></ele><time>2015-2-4T8:6:19Z</time></trkpt>
<trkpt lat="45.7571189571172" lon="5.874814996495843"><ele></ele><time>2015-2-4T8:6:22Z</time></trkpt>
<trkpt lat="45.756744956597686" lon="5.875246999785304"><ele></ele><time>2015-2-4T8:6:25Z</time></trkpt>
<trkpt lat="45.756351929157972" lon="5.875641955062747"><ele></ele><time>2015-2-4T8:6:28Z</time></trkpt>
<trkpt lat="45.756034925580025" lon="5.876155933365226"><ele></ele><time>2015-2-4T8:6:31Z</time></trkpt>
<trkpt lat="45.755711970850825" lon="5.876812990754843"><ele></ele><time>2015-2-4T8:6:34Z</time></trkpt>
<trkpt lat="45.755431931465864" lon="5.877423947677016"><ele></ele><time>2015-2-4T8:6:37Z</time></trkpt>
<trkpt lat="45.755222970619798" lon="5.87807597592473"><ele></ele><time>2015-2-4T8:6:40Z</time></trkpt>
<trkpt lat="45.75505793094635" lon="5.878747953101993"><ele></ele><time>2015-2-4T8:6:43Z</time></trkpt>
<trkpt lat="45.754413949325681" lon="5.879655964672566"><ele></ele><time>2015-2-4T8:6:46Z</time></trkpt>
<trkpt lat="45.753483977168798" lon="5.880074976012111"><ele></ele><time>2015-2-4T8:6:49Z</time></trkpt>
<trkpt lat="45.752815939486027" lon="5.880286954343319"><ele></ele><time>2015-2-4T8:6:52Z</time></trkpt>
<trkpt lat="45.752144968137145" lon="5.880682999268174"><ele></ele><time>2015-2-4T8:6:55Z</time></trkpt>
<trkpt lat="45.751693937927485" lon="5.880941916257143"><ele></ele><time>2015-2-4T8:6:58Z</time></trkpt>
<trkpt lat="45.751054985448718" lon="5.881317928433418"><ele></ele><time>2015-2-4T8:7:1Z</time></trkpt>
<trkpt lat="45.750430952757597" lon="5.881719924509525"><ele></ele><time>2015-2-4T8:7:4Z</time></trkpt>
<trkpt lat="45.749971959739923" lon="5.882044974714518"><ele></ele><time>2015-2-4T8:7:7Z</time></trkpt>
<trkpt lat="45.749396961182356" lon="5.882493993267417"><ele></ele><time>2015-2-4T8:7:10Z</time></trkpt>
<trkpt lat="45.748814921826124" lon="5.882950974628329"><ele></ele><time>2015-2-4T8:7:13Z</time></trkpt>
<trkpt lat="45.74817999266088" lon="5.883492948487401"><ele></ele><time>2015-2-4T8:7:16Z</time></trkpt>
<trkpt lat="45.747606921941042" lon="5.883953953161836"><ele></ele><time>2015-2-4T8:7:19Z</time></trkpt>
<trkpt lat="45.747102918103337" lon="5.884203985333443"><ele></ele><time>2015-2-4T8:7:22Z</time></trkpt>
<trkpt lat="45.746546946465969" lon="5.88473891839385"><ele></ele><time>2015-2-4T8:7:25Z</time></trkpt>
<trkpt lat="45.745864994823933" lon="5.885156923905015"><ele></ele><time>2015-2-4T8:7:28Z</time></trkpt>
<trkpt lat="45.745140966027975" lon="5.885775927454233"><ele></ele><time>2015-2-4T8:7:31Z</time></trkpt>
<trkpt lat="45.744682978838682" lon="5.886386968195438"><ele></ele><time>2015-2-4T8:7:34Z</time></trkpt>
<trkpt lat="45.744250975549221" lon="5.8869709353894"><ele></ele><time>2015-2-4T8:7:37Z</time></trkpt>
<trkpt lat="45.743852918967605" lon="5.887336973100901"><ele></ele><time>2015-2-4T8:7:40Z</time></trkpt>
<trkpt lat="45.743332989513874" lon="5.888197962194681"><ele></ele><time>2015-2-4T8:7:43Z</time></trkpt>
<trkpt lat="45.742609966546297" lon="5.888821994885802"><ele></ele><time>2015-2-4T8:7:46Z</time></trkpt>
<trkpt lat="45.742157930508256" lon="5.88916196487844"><ele></ele><time>2015-2-4T8:7:49Z</time></trkpt>
<trkpt lat="45.741716958582401" lon="5.889559937641025"><ele></ele><time>2015-2-4T8:7:52Z</time></trkpt>
<trkpt lat="45.741191999986768" lon="5.889975931495428"><ele></ele><time>2015-2-4T8:7:55Z</time></trkpt>
<trkpt lat="45.740210982039571" lon="5.891064992174506"><ele></ele><time>2015-2-4T8:7:58Z</time></trkpt>
<trkpt lat="45.739712929353118" lon="5.891396999359131"><ele></ele><time>2015-2-4T8:8:1Z</time></trkpt>
<trkpt lat="45.739331971853971" lon="5.891816932708025"><ele></ele><time>2015-2-4T8:8:4Z</time></trkpt>
<trkpt lat="45.738470982760191" lon="5.892258994281292"><ele></ele><time>2015-2-4T8:8:7Z</time></trkpt>
<trkpt lat="45.737790958955884" lon="5.89257893152535"><ele></ele><time>2015-2-4T8:8:10Z</time></trkpt>
<trkpt lat="45.737113952636719" lon="5.892808930948377"><ele></ele><time>2015-2-4T8:8:13Z</time></trkpt>
<trkpt lat="45.7365139760077" lon="5.892936922609806"><ele></ele><time>2015-2-4T8:8:16Z</time></trkpt>
<trkpt lat="45.735722975805402" lon="5.892662918195128"><ele></ele><time>2015-2-4T8:8:19Z</time></trkpt>
<trkpt lat="45.734947985038161" lon="5.891650971025229"><ele></ele><time>2015-2-4T8:8:22Z</time></trkpt>
<trkpt lat="45.734587982296944" lon="5.891197929158807"><ele></ele><time>2015-2-4T8:8:25Z</time></trkpt>
<trkpt lat="45.734062939882278" lon="5.890695936977863"><ele></ele><time>2015-2-4T8:8:28Z</time></trkpt>
<trkpt lat="45.733575951308012" lon="5.890234932303429"><ele></ele><time>2015-2-4T8:8:31Z</time></trkpt>
<trkpt lat="45.733078988268971" lon="5.88969798758626"><ele></ele><time>2015-2-4T8:8:34Z</time></trkpt>
<trkpt lat="45.732764918357134" lon="5.888939928263426"><ele></ele><time>2015-2-4T8:8:37Z</time></trkpt>
<trkpt lat="45.73256392031908" lon="5.888025965541601"><ele></ele><time>2015-2-4T8:8:40Z</time></trkpt>
<trkpt lat="45.732571966946125" lon="5.887067997828126"><ele></ele><time>2015-2-4T8:8:43Z</time></trkpt>
<trkpt lat="45.733041940256953" lon="5.886038951575756"><ele></ele><time>2015-2-4T8:8:46Z</time></trkpt>
<trkpt lat="45.733560947701335" lon="5.884897923097014"><ele></ele><time>2015-2-4T8:8:49Z</time></trkpt>
<trkpt lat="45.73369899764657" lon="5.883909948170185"><ele></ele><time>2015-2-4T8:8:52Z</time></trkpt>
<trkpt lat="45.733584919944406" lon="5.883267978206277"><ele></ele><time>2015-2-4T8:8:55Z</time></trkpt>
<trkpt lat="45.733632948249578" lon="5.882510924711824"><ele></ele><time>2015-2-4T8:8:58Z</time></trkpt>
<trkpt lat="45.734226973727345" lon="5.881662927567959"><ele></ele><time>2015-2-4T8:9:1Z</time></trkpt>
<trkpt lat="45.73436594568193" lon="5.880977958440781"><ele></ele><time>2015-2-4T8:9:4Z</time></trkpt>
<trkpt lat="45.733964955434203" lon="5.880653997883201"><ele></ele><time>2015-2-4T8:9:7Z</time></trkpt>
<trkpt lat="45.733280992135406" lon="5.880834963172674"><ele></ele><time>2015-2-4T8:9:10Z</time></trkpt>
<trkpt lat="45.732773970812559" lon="5.88073899038136"><ele></ele><time>2015-2-4T8:9:13Z</time></trkpt>
<trkpt lat="45.732187991961837" lon="5.880190981552005"><ele></ele><time>2015-2-4T8:9:16Z</time></trkpt>
<trkpt lat="45.731494976207614" lon="5.879883952438831"><ele></ele><time>2015-2-4T8:9:19Z</time></trkpt>
<trkpt lat="45.730775976553559" lon="5.880104983225465"><ele></ele><time>2015-2-4T8:9:22Z</time></trkpt>
<trkpt lat="45.730130989104509" lon="5.88035199791193"><ele></ele><time>2015-2-4T8:9:25Z</time></trkpt>
<trkpt lat="45.729409977793694" lon="5.880626924335957"><ele></ele><time>2015-2-4T8:9:28Z</time></trkpt>
<trkpt lat="45.728937992826104" lon="5.880830939859152"><ele></ele><time>2015-2-4T8:9:31Z</time></trkpt>
<trkpt lat="45.728450920432806" lon="5.881106955930591"><ele></ele><time>2015-2-4T8:9:34Z</time></trkpt>
<trkpt lat="45.727764945477247" lon="5.881525967270136"><ele></ele><time>2015-2-4T8:9:37Z</time></trkpt>
<trkpt lat="45.727290948852897" lon="5.881805922836065"><ele></ele><time>2015-2-4T8:9:40Z</time></trkpt>
<trkpt lat="45.726614948362112" lon="5.882197944447398"><ele></ele><time>2015-2-4T8:9:43Z</time></trkpt>
<trkpt lat="45.725862924009562" lon="5.882367929443717"><ele></ele><time>2015-2-4T8:9:46Z</time></trkpt>
<trkpt lat="45.725307958200574" lon="5.882418975234032"><ele></ele><time>2015-2-4T8:9:49Z</time></trkpt>
<trkpt lat="45.724814934656024" lon="5.882473960518837"><ele></ele><time>2015-2-4T8:9:52Z</time></trkpt>
<trkpt lat="45.724329957738519" lon="5.882505979388952"><ele></ele><time>2015-2-4T8:9:55Z</time></trkpt>
<trkpt lat="45.723800975829363" lon="5.882434984669089"><ele></ele><time>2015-2-4T8:9:58Z</time></trkpt>
<trkpt lat="45.722851976752281" lon="5.88185696862638"><ele></ele><time>2015-2-4T8:10:1Z</time></trkpt>
<trkpt lat="45.722317965701222" lon="5.881484979763627"><ele></ele><time>2015-2-4T8:10:4Z</time></trkpt>
<trkpt lat="45.721897948533297" lon="5.881674997508526"><ele></ele><time>2015-2-4T8:10:7Z</time></trkpt>
<trkpt lat="45.721341976895928" lon="5.882784929126501"><ele></ele><time>2015-2-4T8:10:10Z</time></trkpt>
<trkpt lat="45.721051963046193" lon="5.883368980139494"><ele></ele><time>2015-2-4T8:10:13Z</time></trkpt>
<trkpt lat="45.720620965585113" lon="5.884194932878017"><ele></ele><time>2015-2-4T8:10:16Z</time></trkpt>
<trkpt lat="45.720127942040563" lon="5.884934971109033"><ele></ele><time>2015-2-4T8:10:19Z</time></trkpt>
<trkpt lat="45.719506926834583" lon="5.885693952441216"><ele></ele><time>2015-2-4T8:10:22Z</time></trkpt>
<trkpt lat="45.71906897239387" lon="5.886093936860561"><ele></ele><time>2015-2-4T8:10:25Z</time></trkpt>
<trkpt lat="45.71863898076117" lon="5.886417981237173"><ele></ele><time>2015-2-4T8:10:28Z</time></trkpt>
<trkpt lat="45.718130953609943" lon="5.886708917096257"><ele></ele><time>2015-2-4T8:10:31Z</time></trkpt>
<trkpt lat="45.717283962294459" lon="5.887189954519272"><ele></ele><time>2015-2-4T8:10:34Z</time></trkpt>
<trkpt lat="45.716829998418689" lon="5.887437975034118"><ele></ele><time>2015-2-4T8:10:37Z</time></trkpt>
<trkpt lat="45.716243935748935" lon="5.887774927541614"><ele></ele><time>2015-2-4T8:10:40Z</time></trkpt>
<trkpt lat="45.715643959119916" lon="5.888533992692828"><ele></ele><time>2015-2-4T8:10:43Z</time></trkpt>
<trkpt lat="45.71528596803546" lon="5.889096921309829"><ele></ele><time>2015-2-4T8:10:46Z</time></trkpt>
<trkpt lat="45.714911967515945" lon="5.889605954289436"><ele></ele><time>2015-2-4T8:10:49Z</time></trkpt>
<trkpt lat="45.714529920369387" lon="5.890048937872052"><ele></ele><time>2015-2-4T8:10:52Z</time></trkpt>
<trkpt lat="45.714089954271913" lon="5.890549924224615"><ele></ele><time>2015-2-4T8:10:55Z</time></trkpt>
<trkpt lat="45.713535994291306" lon="5.891231959685683"><ele></ele><time>2015-2-4T8:10:58Z</time></trkpt>
<trkpt lat="45.713265929371119" lon="5.892102923244238"><ele></ele><time>2015-2-4T8:11:1Z</time></trkpt>
<trkpt lat="45.713196946308017" lon="5.892912950366736"><ele></ele><time>2015-2-4T8:11:4Z</time></trkpt>
<trkpt lat="45.712958984076977" lon="5.89341695420444"><ele></ele><time>2015-2-4T8:11:7Z</time></trkpt>
<trkpt lat="45.712239984422922" lon="5.893216961994767"><ele></ele><time>2015-2-4T8:11:10Z</time></trkpt>
<trkpt lat="45.711751990020275" lon="5.893124928697944"><ele></ele><time>2015-2-4T8:11:13Z</time></trkpt>
<trkpt lat="45.711081940680742" lon="5.89326691813767"><ele></ele><time>2015-2-4T8:11:16Z</time></trkpt>
<trkpt lat="45.71032396517694" lon="5.89354494586587"><ele></ele><time>2015-2-4T8:11:19Z</time></trkpt>
<trkpt lat="45.709842927753925" lon="5.893567996099591"><ele></ele><time>2015-2-4T8:11:22Z</time></trkpt>
<trkpt lat="45.709367925301194" lon="5.893593979999423"><ele></ele><time>2015-2-4T8:11:25Z</time></trkpt>
<trkpt lat="45.70860592648387" lon="5.893903942778707"><ele></ele><time>2015-2-4T8:11:28Z</time></trkpt>
<trkpt lat="45.707718953490257" lon="5.893948953598738"><ele></ele><time>2015-2-4T8:11:31Z</time></trkpt>
<trkpt lat="45.707157952710986" lon="5.893970998004079"><ele></ele><time>2015-2-4T8:11:34Z</time></trkpt>
<trkpt lat="45.706593934446573" lon="5.894044926390052"><ele></ele><time>2015-2-4T8:11:37Z</time></trkpt>
<trkpt lat="45.705660944804549" lon="5.894372994080186"><ele></ele><time>2015-2-4T8:11:40Z</time></trkpt>
<trkpt lat="45.705056944862008" lon="5.894499979913235"><ele></ele><time>2015-2-4T8:11:43Z</time></trkpt>
<trkpt lat="45.704576997086406" lon="5.894611962139607"><ele></ele><time>2015-2-4T8:11:46Z</time></trkpt>
<trkpt lat="45.704467948526144" lon="5.893603954464197"><ele></ele><time>2015-2-4T8:11:49Z</time></trkpt>
<trkpt lat="45.704553946852684" lon="5.892558982595801"><ele></ele><time>2015-2-4T8:11:52Z</time></trkpt>
<trkpt lat="45.704612955451012" lon="5.89182891882956"><ele></ele><time>2015-2-4T8:11:55Z</time></trkpt>
<trkpt lat="45.704660983756185" lon="5.891112936660647"><ele></ele><time>2015-2-4T8:11:58Z</time></trkpt>
<trkpt lat="45.704031921923161" lon="5.890899952501059"><ele></ele><time>2015-2-4T8:12:1Z</time></trkpt>
<trkpt lat="45.703517943620682" lon="5.891043953597546"><ele></ele><time>2015-2-4T8:12:4Z</time></trkpt>
<trkpt lat="45.702991979196668" lon="5.891204969957471"><ele></ele><time>2015-2-4T8:12:7Z</time></trkpt>
<trkpt lat="45.70243894122541" lon="5.891371937468648"><ele></ele><time>2015-2-4T8:12:10Z</time></trkpt>
<trkpt lat="45.701982965692878" lon="5.891464976593852"><ele></ele><time>2015-2-4T8:12:13Z</time></trkpt>
<trkpt lat="45.701170926913619" lon="5.891766976565123"><ele></ele><time>2015-2-4T8:12:16Z</time></trkpt>
<trkpt lat="45.700428960844874" lon="5.891990941017866"><ele></ele><time>2015-2-4T8:12:19Z</time></trkpt>
<trkpt lat="45.699922945350409" lon="5.892156986519694"><ele></ele><time>2015-2-4T8:12:22Z</time></trkpt>
<trkpt lat="45.699310982599854" lon="5.89240794070065"><ele></ele><time>2015-2-4T8:12:25Z</time></trkpt>
<trkpt lat="45.698708994314075" lon="5.892606927081943"><ele></ele><time>2015-2-4T8:12:28Z</time></trkpt>
<trkpt lat="45.697960993275046" lon="5.89380394667387"><ele></ele><time>2015-2-4T8:12:31Z</time></trkpt>
<trkpt lat="45.697456989437342" lon="5.894674994051457"><ele></ele><time>2015-2-4T8:12:34Z</time></trkpt>
<trkpt lat="45.697142919525504" lon="5.89522291906178"><ele></ele><time>2015-2-4T8:12:37Z</time></trkpt>
<trkpt lat="45.696717957034707" lon="5.895533971488476"><ele></ele><time>2015-2-4T8:12:40Z</time></trkpt>
<trkpt lat="45.696040950715542" lon="5.895707979798317"><ele></ele><time>2015-2-4T8:12:43Z</time></trkpt>
<trkpt lat="45.695403926074505" lon="5.895947953686118"><ele></ele><time>2015-2-4T8:12:46Z</time></trkpt>
<trkpt lat="45.69461795501411" lon="5.896041998639703"><ele></ele><time>2015-2-4T8:12:49Z</time></trkpt>
<trkpt lat="45.694005992263556" lon="5.896088937297463"><ele></ele><time>2015-2-4T8:12:52Z</time></trkpt>
<trkpt lat="45.693540964275599" lon="5.895894980058074"><ele></ele><time>2015-2-4T8:12:55Z</time></trkpt>
<trkpt lat="45.69311298429966" lon="5.895978966727853"><ele></ele><time>2015-2-4T8:12:58Z</time></trkpt>
<trkpt lat="45.692301951348782" lon="5.895896991714835"><ele></ele><time>2015-2-4T8:13:1Z</time></trkpt>
<trkpt lat="45.69171697832644" lon="5.895787943154573"><ele></ele><time>2015-2-4T8:13:4Z</time></trkpt>
<trkpt lat="45.690777953714132" lon="5.895648971199989"><ele></ele><time>2015-2-4T8:13:7Z</time></trkpt>
<trkpt lat="45.690115951001644" lon="5.895602954551578"><ele></ele><time>2015-2-4T8:13:10Z</time></trkpt>
<trkpt lat="45.689375996589661" lon="5.895601948723197"><ele></ele><time>2015-2-4T8:13:13Z</time></trkpt>
<trkpt lat="45.688738971948624" lon="5.895558949559927"><ele></ele><time>2015-2-4T8:13:16Z</time></trkpt>
<trkpt lat="45.688163973391056" lon="5.895468927919865"><ele></ele><time>2015-2-4T8:13:19Z</time></trkpt>
<trkpt lat="45.687516974285245" lon="5.895365998148918"><ele></ele><time>2015-2-4T8:13:22Z</time></trkpt>
<trkpt lat="45.686717927455902" lon="5.895227948203683"><ele></ele><time>2015-2-4T8:13:25Z</time></trkpt>
<trkpt lat="45.685987947508693" lon="5.895105991512537"><ele></ele><time>2015-2-4T8:13:28Z</time></trkpt>
<trkpt lat="45.685179932042956" lon="5.894960984587669"><ele></ele><time>2015-2-4T8:13:31Z</time></trkpt>
<trkpt lat="45.684475935995579" lon="5.894837938249111"><ele></ele><time>2015-2-4T8:13:34Z</time></trkpt>
<trkpt lat="45.68385299295187" lon="5.89472696185112"><ele></ele><time>2015-2-4T8:13:37Z</time></trkpt>
<trkpt lat="45.683306995779276" lon="5.894614979624748"><ele></ele><time>2015-2-4T8:13:40Z</time></trkpt>
<trkpt lat="45.682566957548261" lon="5.894485982134938"><ele></ele><time>2015-2-4T8:13:43Z</time></trkpt>
<trkpt lat="45.681710997596383" lon="5.894325971603394"><ele></ele><time>2015-2-4T8:13:46Z</time></trkpt>
<trkpt lat="45.681013958528638" lon="5.89416696690023"><ele></ele><time>2015-2-4T8:13:49Z</time></trkpt>
<trkpt lat="45.680294958874583" lon="5.894007962197065"><ele></ele><time>2015-2-4T8:13:52Z</time></trkpt>
<trkpt lat="45.679735969752073" lon="5.893983989953995"><ele></ele><time>2015-2-4T8:13:55Z</time></trkpt>
<trkpt lat="45.678787976503372" lon="5.894019948318601"><ele></ele><time>2015-2-4T8:13:58Z</time></trkpt>
<trkpt lat="45.678057996556163" lon="5.894011985510588"><ele></ele><time>2015-2-4T8:14:1Z</time></trkpt>
<trkpt lat="45.677188960835338" lon="5.893937973305583"><ele></ele><time>2015-2-4T8:14:4Z</time></trkpt>
<trkpt lat="45.676621925085783" lon="5.893892962485552"><ele></ele><time>2015-2-4T8:14:7Z</time></trkpt>
<trkpt lat="45.675851963460445" lon="5.893827918916941"><ele></ele><time>2015-2-4T8:14:10Z</time></trkpt>
<trkpt lat="45.674933977425098" lon="5.893726916983724"><ele></ele><time>2015-2-4T8:14:13Z</time></trkpt>
<trkpt lat="45.674019930884242" lon="5.89363094419241"><ele></ele><time>2015-2-4T8:14:16Z</time></trkpt>
<trkpt lat="45.673234965652227" lon="5.893589956685901"><ele></ele><time>2015-2-4T8:14:19Z</time></trkpt>
<trkpt lat="45.672365929931402" lon="5.893513932824135"><ele></ele><time>2015-2-4T8:14:22Z</time></trkpt>
<trkpt lat="45.671697976067662" lon="5.893453918397427"><ele></ele><time>2015-2-4T8:14:25Z</time></trkpt>
<trkpt lat="45.670960955321789" lon="5.893412930890918"><ele></ele><time>2015-2-4T8:14:28Z</time></trkpt>
<trkpt lat="45.670244973152876" lon="5.893506975844502"><ele></ele><time>2015-2-4T8:14:31Z</time></trkpt>
<trkpt lat="45.669696964323521" lon="5.893765976652503"><ele></ele><time>2015-2-4T8:14:34Z</time></trkpt>
<trkpt lat="45.669171921908855" lon="5.894346926361322"><ele></ele><time>2015-2-4T8:14:37Z</time></trkpt>
<trkpt lat="45.66821395419538" lon="5.894770966842771"><ele></ele><time>2015-2-4T8:14:40Z</time></trkpt>
<trkpt lat="45.667685978114605" lon="5.894699972122908"><ele></ele><time>2015-2-4T8:14:43Z</time></trkpt>
<trkpt lat="45.66707594320178" lon="5.895061986520886"><ele></ele><time>2015-2-4T8:14:46Z</time></trkpt>
<trkpt lat="45.665939943864942" lon="5.895661963149905"><ele></ele><time>2015-2-4T8:14:49Z</time></trkpt>
<trkpt lat="45.665159923955798" lon="5.895939990878105"><ele></ele><time>2015-2-4T8:14:52Z</time></trkpt>
<trkpt lat="45.66458098590374" lon="5.896018948405981"><ele></ele><time>2015-2-4T8:14:55Z</time></trkpt>
<trkpt lat="45.663860980421305" lon="5.896032946184278"><ele></ele><time>2015-2-4T8:14:58Z</time></trkpt>
<trkpt lat="45.663215992972255" lon="5.895989947021008"><ele></ele><time>2015-2-4T8:15:1Z</time></trkpt>
<trkpt lat="45.66211293451488" lon="5.895622987300158"><ele></ele><time>2015-2-4T8:15:4Z</time></trkpt>
<trkpt lat="45.661371974274516" lon="5.895264996215701"><ele></ele><time>2015-2-4T8:15:7Z</time></trkpt>
<trkpt lat="45.660556918010116" lon="5.894909938797355"><ele></ele><time>2015-2-4T8:15:10Z</time></trkpt>
<trkpt lat="45.659871948882937" lon="5.894664935767651"><ele></ele><time>2015-2-4T8:15:13Z</time></trkpt>
<trkpt lat="45.65905898809433" lon="5.894502997398377"><ele></ele><time>2015-2-4T8:15:16Z</time></trkpt>
<trkpt lat="45.658285925164819" lon="5.894431918859482"><ele></ele><time>2015-2-4T8:15:19Z</time></trkpt>
<trkpt lat="45.657411944121122" lon="5.894386991858482"><ele></ele><time>2015-2-4T8:15:22Z</time></trkpt>
<trkpt lat="45.65695496276021" lon="5.894512971863151"><ele></ele><time>2015-2-4T8:15:25Z</time></trkpt>
<trkpt lat="45.65650393255055" lon="5.894590923562646"><ele></ele><time>2015-2-4T8:15:28Z</time></trkpt>
<trkpt lat="45.655657947063446" lon="5.894350949674845"><ele></ele><time>2015-2-4T8:15:31Z</time></trkpt>
<trkpt lat="45.654942970722914" lon="5.893634967505932"><ele></ele><time>2015-2-4T8:15:34Z</time></trkpt>
<trkpt lat="45.653811916708946" lon="5.893340930342674"><ele></ele><time>2015-2-4T8:15:37Z</time></trkpt>
<trkpt lat="45.653327945619822" lon="5.893300948664546"><ele></ele><time>2015-2-4T8:15:40Z</time></trkpt>
<trkpt lat="45.652669966220856" lon="5.893240934237838"><ele></ele><time>2015-2-4T8:15:43Z</time></trkpt>
<trkpt lat="45.651831943541765" lon="5.89318091981113"><ele></ele><time>2015-2-4T8:15:46Z</time></trkpt>
<trkpt lat="45.651342943310738" lon="5.893144961446524"><ele></ele><time>2015-2-4T8:15:49Z</time></trkpt>
<trkpt lat="45.650705918669701" lon="5.893090981990099"><ele></ele><time>2015-2-4T8:15:52Z</time></trkpt>
<trkpt lat="45.649726996198297" lon="5.893035996705294"><ele></ele><time>2015-2-4T8:15:55Z</time></trkpt>
<trkpt lat="45.648996932432055" lon="5.89300598949194"><ele></ele><time>2015-2-4T8:15:58Z</time></trkpt>
<trkpt lat="45.648269969969988" lon="5.89300892315805"><ele></ele><time>2015-2-4T8:16:1Z</time></trkpt>
<trkpt lat="45.647919941693544" lon="5.892502991482616"><ele></ele><time>2015-2-4T8:16:4Z</time></trkpt>
<trkpt lat="45.64816796220839" lon="5.891786925494671"><ele></ele><time>2015-2-4T8:16:7Z</time></trkpt>
<trkpt lat="45.648223953321576" lon="5.891154929995537"><ele></ele><time>2015-2-4T8:16:10Z</time></trkpt>
<trkpt lat="45.648220935836434" lon="5.890281954780221"><ele></ele><time>2015-2-4T8:16:13Z</time></trkpt>
<trkpt lat="45.648220935836434" lon="5.889519955962896"><ele></ele><time>2015-2-4T8:16:16Z</time></trkpt>
<trkpt lat="45.64823099412024" lon="5.888687968254089"><ele></ele><time>2015-2-4T8:16:19Z</time></trkpt>
<trkpt lat="45.648242980241776" lon="5.887843994423747"><ele></ele><time>2015-2-4T8:16:22Z</time></trkpt>
<trkpt lat="45.648251948878169" lon="5.887095993384719"><ele></ele><time>2015-2-4T8:16:25Z</time></trkpt>
<trkpt lat="45.648198975250125" lon="5.886129979044199"><ele></ele><time>2015-2-4T8:16:28Z</time></trkpt>
<trkpt lat="45.648224959149957" lon="5.885150972753763"><ele></ele><time>2015-2-4T8:16:31Z</time></trkpt>
<trkpt lat="45.648243986070156" lon="5.884227957576513"><ele></ele><time>2015-2-4T8:16:34Z</time></trkpt>
<trkpt lat="45.64825396053493" lon="5.883371997624636"><ele></ele><time>2015-2-4T8:16:37Z</time></trkpt>
<trkpt lat="45.648270975798368" lon="5.882580997422338"><ele></ele><time>2015-2-4T8:16:40Z</time></trkpt>
<trkpt lat="45.648277932778001" lon="5.88185696862638"><ele></ele><time>2015-2-4T8:16:43Z</time></trkpt>
<trkpt lat="45.648284973576665" lon="5.881102932617068"><ele></ele><time>2015-2-4T8:16:46Z</time></trkpt>
<trkpt lat="45.648294948041439" lon="5.880255941301584"><ele></ele><time>2015-2-4T8:16:49Z</time></trkpt>
<trkpt lat="45.648303916677833" lon="5.879491930827498"><ele></ele><time>2015-2-4T8:16:52Z</time></trkpt>
<trkpt lat="45.648312969133258" lon="5.87843899615109"><ele></ele><time>2015-2-4T8:16:55Z</time></trkpt>
<trkpt lat="45.648324955254793" lon="5.877650929614902"><ele></ele><time>2015-2-4T8:16:58Z</time></trkpt>
<trkpt lat="45.648325961083174" lon="5.876673934981227"><ele></ele><time>2015-2-4T8:17:1Z</time></trkpt>
<trkpt lat="45.648336941376328" lon="5.875476999208331"><ele></ele><time>2015-2-4T8:17:4Z</time></trkpt>
<trkpt lat="45.648345993831754" lon="5.874824970960617"><ele></ele><time>2015-2-4T8:17:7Z</time></trkpt>
<trkpt lat="45.64831892028451" lon="5.874147964641452"><ele></ele><time>2015-2-4T8:17:10Z</time></trkpt>
<trkpt lat="45.648354962468147" lon="5.873506916686893"><ele></ele><time>2015-2-4T8:17:13Z</time></trkpt>
<trkpt lat="45.648281956091523" lon="5.872262958437204"><ele></ele><time>2015-2-4T8:17:16Z</time></trkpt>
<trkpt lat="45.648249937221408" lon="5.871475981548429"><ele></ele><time>2015-2-4T8:17:19Z</time></trkpt>
<trkpt lat="45.648214984685183" lon="5.870497981086373"><ele></ele><time>2015-2-4T8:17:22Z</time></trkpt>
<trkpt lat="45.648159999400377" lon="5.869714943692088"><ele></ele><time>2015-2-4T8:17:25Z</time></trkpt>
<trkpt lat="45.648138960823417" lon="5.869014970958233"><ele></ele><time>2015-2-4T8:17:28Z</time></trkpt>
<trkpt lat="45.648108953610063" lon="5.868127997964621"><ele></ele><time>2015-2-4T8:17:31Z</time></trkpt>
<trkpt lat="45.648067966103554" lon="5.867333980277181"><ele></ele><time>2015-2-4T8:17:34Z</time></trkpt>
<trkpt lat="45.648051956668496" lon="5.866380957886577"><ele></ele><time>2015-2-4T8:17:37Z</time></trkpt>
<trkpt lat="45.648106941953301" lon="5.865452997386456"><ele></ele><time>2015-2-4T8:17:40Z</time></trkpt>
<trkpt lat="45.647849952802062" lon="5.865124929696322"><ele></ele><time>2015-2-4T8:17:43Z</time></trkpt>
<trkpt lat="45.647275960072875" lon="5.864715976640582"><ele></ele><time>2015-2-4T8:17:46Z</time></trkpt>
<trkpt lat="45.646774973720312" lon="5.865147979930043"><ele></ele><time>2015-2-4T8:17:49Z</time></trkpt>
<trkpt lat="45.646369960159063" lon="5.865484932437539"><ele></ele><time>2015-2-4T8:17:52Z</time></trkpt>
<trkpt lat="45.64599696546793" lon="5.865286951884627"><ele></ele><time>2015-2-4T8:17:55Z</time></trkpt>
<trkpt lat="45.645386930555105" lon="5.865887934342027"><ele></ele><time>2015-2-4T8:17:58Z</time></trkpt>
<trkpt lat="45.644461987540126" lon="5.866139978170395"><ele></ele><time>2015-2-4T8:18:1Z</time></trkpt>
<trkpt lat="45.644055968150496" lon="5.86629998870194"><ele></ele><time>2015-2-4T8:18:4Z</time></trkpt>
<trkpt lat="45.643746927380562" lon="5.86681597866118"><ele></ele><time>2015-2-4T8:18:7Z</time></trkpt>
<trkpt lat="45.643064975738525" lon="5.86715997196734"><ele></ele><time>2015-2-4T8:18:10Z</time></trkpt>
<trkpt lat="45.642506992444396" lon="5.867445962503552"><ele></ele><time>2015-2-4T8:18:13Z</time></trkpt>
<trkpt lat="45.641815988346934" lon="5.867800936102867"><ele></ele><time>2015-2-4T8:18:16Z</time></trkpt>
<trkpt lat="45.641200924292207" lon="5.868199998512864"><ele></ele><time>2015-2-4T8:18:19Z</time></trkpt>
<trkpt lat="45.640750983729959" lon="5.868463944643736"><ele></ele><time>2015-2-4T8:18:22Z</time></trkpt>
<trkpt lat="45.64030397683382" lon="5.868711965158582"><ele></ele><time>2015-2-4T8:18:25Z</time></trkpt>
<trkpt lat="45.639859987422824" lon="5.868842974305153"><ele></ele><time>2015-2-4T8:18:28Z</time></trkpt>
<trkpt lat="45.63931692391634" lon="5.868877926841378"><ele></ele><time>2015-2-4T8:18:31Z</time></trkpt>
<trkpt lat="45.638962956145406" lon="5.869354940950871"><ele></ele><time>2015-2-4T8:18:34Z</time></trkpt>
<trkpt lat="45.638426933437586" lon="5.869638919830322"><ele></ele><time>2015-2-4T8:18:37Z</time></trkpt>
<trkpt lat="45.637608943507075" lon="5.869725923985243"><ele></ele><time>2015-2-4T8:18:40Z</time></trkpt>
<trkpt lat="45.637031933292747" lon="5.869784932583571"><ele></ele><time>2015-2-4T8:18:43Z</time></trkpt>
<trkpt lat="45.636547962203622" lon="5.869919965043664"><ele></ele><time>2015-2-4T8:18:46Z</time></trkpt>
<trkpt lat="45.635935999453068" lon="5.870046950876713"><ele></ele><time>2015-2-4T8:18:49Z</time></trkpt>
<trkpt lat="45.635487986728549" lon="5.870161950588226"><ele></ele><time>2015-2-4T8:18:52Z</time></trkpt>
<trkpt lat="45.635049948468804" lon="5.870361942797899"><ele></ele><time>2015-2-4T8:18:55Z</time></trkpt>
<trkpt lat="45.634592967107892" lon="5.870699984952807"><ele></ele><time>2015-2-4T8:18:58Z</time></trkpt>
<trkpt lat="45.633760979399085" lon="5.870877932757139"><ele></ele><time>2015-2-4T8:19:1Z</time></trkpt>
<trkpt lat="45.63327893614769" lon="5.870957979932427"><ele></ele><time>2015-2-4T8:19:4Z</time></trkpt>
<trkpt lat="45.632659932598472" lon="5.871015982702375"><ele></ele><time>2015-2-4T8:19:7Z</time></trkpt>
<trkpt lat="45.632144948467612" lon="5.871280934661627"><ele></ele><time>2015-2-4T8:19:10Z</time></trkpt>
<trkpt lat="45.631512952968478" lon="5.871723918244243"><ele></ele><time>2015-2-4T8:19:13Z</time></trkpt>
<trkpt lat="45.630844999104738" lon="5.871985936537385"><ele></ele><time>2015-2-4T8:19:16Z</time></trkpt>
<trkpt lat="45.630201939493418" lon="5.872018961235881"><ele></ele><time>2015-2-4T8:19:19Z</time></trkpt>
<trkpt lat="45.629773959517479" lon="5.872345939278603"><ele></ele><time>2015-2-4T8:19:22Z</time></trkpt>
<trkpt lat="45.62909091822803" lon="5.873050941154361"><ele></ele><time>2015-2-4T8:19:25Z</time></trkpt>
<trkpt lat="45.628694957122207" lon="5.87349995970726"><ele></ele><time>2015-2-4T8:19:28Z</time></trkpt>
<trkpt lat="45.628158934414387" lon="5.873668938875198"><ele></ele><time>2015-2-4T8:19:31Z</time></trkpt>
<trkpt lat="45.627340944483876" lon="5.873341960832477"><ele></ele><time>2015-2-4T8:19:34Z</time></trkpt>
<trkpt lat="45.626710960641503" lon="5.873169964179397"><ele></ele><time>2015-2-4T8:19:37Z</time></trkpt>
<trkpt lat="45.625942926853895" lon="5.873291920870543"><ele></ele><time>2015-2-4T8:19:40Z</time></trkpt>
<trkpt lat="45.625266926363111" lon="5.873697940260172"><ele></ele><time>2015-2-4T8:19:43Z</time></trkpt>
<trkpt lat="45.624849926680326" lon="5.874067917466164"><ele></ele><time>2015-2-4T8:19:46Z</time></trkpt>
<trkpt lat="45.624272916465998" lon="5.87453193962574"><ele></ele><time>2015-2-4T8:19:49Z</time></trkpt>
<trkpt lat="45.623504966497421" lon="5.87528295814991"><ele></ele><time>2015-2-4T8:19:52Z</time></trkpt>
<trkpt lat="45.623024934902787" lon="5.875840941444039"><ele></ele><time>2015-2-4T8:19:55Z</time></trkpt>
<trkpt lat="45.622630985453725" lon="5.876256935298443"><ele></ele><time>2015-2-4T8:19:58Z</time></trkpt>
<trkpt lat="45.622088927775621" lon="5.876793963834643"><ele></ele><time>2015-2-4T8:20:1Z</time></trkpt>
<trkpt lat="45.62167695723474" lon="5.877292938530445"><ele></ele><time>2015-2-4T8:20:4Z</time></trkpt>
<trkpt lat="45.621132971718907" lon="5.877824937924743"><ele></ele><time>2015-2-4T8:20:7Z</time></trkpt>
<trkpt lat="45.620559984818101" lon="5.878364983946085"><ele></ele><time>2015-2-4T8:20:10Z</time></trkpt>
<trkpt lat="45.619861939921975" lon="5.879017934203148"><ele></ele><time>2015-2-4T8:20:13Z</time></trkpt>
<trkpt lat="45.619451981037855" lon="5.879443986341357"><ele></ele><time>2015-2-4T8:20:16Z</time></trkpt>
<trkpt lat="45.619053924456239" lon="5.879823938012123"><ele></ele><time>2015-2-4T8:20:19Z</time></trkpt>
<trkpt lat="45.618649916723371" lon="5.880240937694907"><ele></ele><time>2015-2-4T8:20:22Z</time></trkpt>
<trkpt lat="45.617986992001534" lon="5.880879973992705"><ele></ele><time>2015-2-4T8:20:25Z</time></trkpt>
<trkpt lat="45.617456920444965" lon="5.881693940609694"><ele></ele><time>2015-2-4T8:20:28Z</time></trkpt>
<trkpt lat="45.617158943787217" lon="5.882204985246062"><ele></ele><time>2015-2-4T8:20:31Z</time></trkpt>
<trkpt lat="45.616512950509787" lon="5.882959943264723"><ele></ele><time>2015-2-4T8:20:34Z</time></trkpt>
<trkpt lat="45.616070972755551" lon="5.88323294185102"><ele></ele><time>2015-2-4T8:20:37Z</time></trkpt>
<trkpt lat="45.615148963406682" lon="5.883309971541166"><ele></ele><time>2015-2-4T8:20:40Z</time></trkpt>
<trkpt lat="45.614589974284172" lon="5.883337967097759"><ele></ele><time>2015-2-4T8:20:43Z</time></trkpt>
<trkpt lat="45.614021932706237" lon="5.883332937955856"><ele></ele><time>2015-2-4T8:20:46Z</time></trkpt>
<trkpt lat="45.613555982708931" lon="5.883328998461366"><ele></ele><time>2015-2-4T8:20:49Z</time></trkpt>
<trkpt lat="45.61297494918108" lon="5.883323969319463"><ele></ele><time>2015-2-4T8:20:52Z</time></trkpt>
<trkpt lat="45.61239399947226" lon="5.883374931290746"><ele></ele><time>2015-2-4T8:20:55Z</time></trkpt>
<trkpt lat="45.611874992027879" lon="5.883443998172879"><ele></ele><time>2015-2-4T8:20:58Z</time></trkpt>
<trkpt lat="45.611281972378492" lon="5.883579952642322"><ele></ele><time>2015-2-4T8:21:1Z</time></trkpt>
<trkpt lat="45.610696999356151" lon="5.883737951517105"><ele></ele><time>2015-2-4T8:21:4Z</time></trkpt>
<trkpt lat="45.610179919749498" lon="5.883926963433623"><ele></ele><time>2015-2-4T8:21:7Z</time></trkpt>
<trkpt lat="45.609663929790258" lon="5.884184958413243"><ele></ele><time>2015-2-4T8:21:10Z</time></trkpt>
<trkpt lat="45.608895979821682" lon="5.884524928405881"><ele></ele><time>2015-2-4T8:21:13Z</time></trkpt>
<trkpt lat="45.608132975175977" lon="5.884880991652608"><ele></ele><time>2015-2-4T8:21:16Z</time></trkpt>
<trkpt lat="45.607106946408749" lon="5.885365968570113"><ele></ele><time>2015-2-4T8:21:19Z</time></trkpt>
<trkpt lat="45.606224918738008" lon="5.885778944939375"><ele></ele><time>2015-2-4T8:21:22Z</time></trkpt>
<trkpt lat="45.605787970125675" lon="5.886042974889278"><ele></ele><time>2015-2-4T8:21:25Z</time></trkpt>
<trkpt lat="45.605323947966099" lon="5.88619695045054"><ele></ele><time>2015-2-4T8:21:28Z</time></trkpt>
<trkpt lat="45.604764958843589" lon="5.886558964848518"><ele></ele><time>2015-2-4T8:21:31Z</time></trkpt>
<trkpt lat="45.604149978607893" lon="5.887164976447821"><ele></ele><time>2015-2-4T8:21:34Z</time></trkpt>
<trkpt lat="45.603492921218276" lon="5.887891938909888"><ele></ele><time>2015-2-4T8:21:37Z</time></trkpt>
<trkpt lat="45.603132918477058" lon="5.888320924714208"><ele></ele><time>2015-2-4T8:21:40Z</time></trkpt>
<trkpt lat="45.602706950157881" lon="5.888804979622364"><ele></ele><time>2015-2-4T8:21:43Z</time></trkpt>
<trkpt lat="45.602228930220008" lon="5.888784946873784"><ele></ele><time>2015-2-4T8:21:46Z</time></trkpt>
<trkpt lat="45.601615961641073" lon="5.889559937641025"><ele></ele><time>2015-2-4T8:21:49Z</time></trkpt>
<trkpt lat="45.601186975836754" lon="5.890083974227309"><ele></ele><time>2015-2-4T8:21:52Z</time></trkpt>
<trkpt lat="45.600586999207735" lon="5.890637934207916"><ele></ele><time>2015-2-4T8:21:55Z</time></trkpt>
<trkpt lat="45.600032955408096" lon="5.890934988856316"><ele></ele><time>2015-2-4T8:21:58Z</time></trkpt>
<trkpt lat="45.599348992109299" lon="5.891221985220909"><ele></ele><time>2015-2-4T8:22:1Z</time></trkpt>
<trkpt lat="45.598565954715014" lon="5.891509987413883"><ele></ele><time>2015-2-4T8:22:4Z</time></trkpt>
<trkpt lat="45.598113918676972" lon="5.891752978786826"><ele></ele><time>2015-2-4T8:22:7Z</time></trkpt>
<trkpt lat="45.597306992858648" lon="5.892163943499327"><ele></ele><time>2015-2-4T8:22:10Z</time></trkpt>
<trkpt lat="45.596533929929137" lon="5.892451945692301"><ele></ele><time>2015-2-4T8:22:13Z</time></trkpt>
<trkpt lat="45.595395918935537" lon="5.892660990357399"><ele></ele><time>2015-2-4T8:22:16Z</time></trkpt>
<trkpt lat="45.594848999753594" lon="5.892911944538355"><ele></ele><time>2015-2-4T8:22:19Z</time></trkpt>
<trkpt lat="45.594177944585681" lon="5.893434975296259"><ele></ele><time>2015-2-4T8:22:22Z</time></trkpt>
<trkpt lat="45.593811990693212" lon="5.893870918080211"><ele></ele><time>2015-2-4T8:22:25Z</time></trkpt>
<trkpt lat="45.593446958810091" lon="5.894349943846464"><ele></ele><time>2015-2-4T8:22:28Z</time></trkpt>
<trkpt lat="45.592917976900935" lon="5.895089982077479"><ele></ele><time>2015-2-4T8:22:31Z</time></trkpt>
<trkpt lat="45.592517992481589" lon="5.895652994513512"><ele></ele><time>2015-2-4T8:22:34Z</time></trkpt>
<trkpt lat="45.592146925628185" lon="5.896170996129513"><ele></ele><time>2015-2-4T8:22:37Z</time></trkpt>
<trkpt lat="45.591535968706012" lon="5.897034918889403"><ele></ele><time>2015-2-4T8:22:40Z</time></trkpt>
<trkpt lat="45.590926939621568" lon="5.897701950743794"><ele></ele><time>2015-2-4T8:22:43Z</time></trkpt>
<trkpt lat="45.590301984921098" lon="5.898564951494336"><ele></ele><time>2015-2-4T8:22:46Z</time></trkpt>
<trkpt lat="45.589678958058357" lon="5.899401968345046"><ele></ele><time>2015-2-4T8:22:49Z</time></trkpt>
<trkpt lat="45.58936296030879" lon="5.899863978847861"><ele></ele><time>2015-2-4T8:22:52Z</time></trkpt>
<trkpt lat="45.589057942852378" lon="5.900455992668867"><ele></ele><time>2015-2-4T8:22:55Z</time></trkpt>
<trkpt lat="45.588606996461749" lon="5.900911968201399"><ele></ele><time>2015-2-4T8:22:58Z</time></trkpt>
<trkpt lat="45.588215980678797" lon="5.901407925412059"><ele></ele><time>2015-2-4T8:23:1Z</time></trkpt>
<trkpt lat="45.587760927155614" lon="5.901987953111529"><ele></ele><time>2015-2-4T8:23:4Z</time></trkpt>
<trkpt lat="45.587103953585029" lon="5.902876937761903"><ele></ele><time>2015-2-4T8:23:7Z</time></trkpt>
<trkpt lat="45.586706986650825" lon="5.903426958248019"><ele></ele><time>2015-2-4T8:23:10Z</time></trkpt>
<trkpt lat="45.586310941725969" lon="5.904004974290729"><ele></ele><time>2015-2-4T8:23:13Z</time></trkpt>
<trkpt lat="45.585631923750043" lon="5.904691955074668"><ele></ele><time>2015-2-4T8:23:16Z</time></trkpt>
<trkpt lat="45.585224982351065" lon="5.905054975301027"><ele></ele><time>2015-2-4T8:23:19Z</time></trkpt>
<trkpt lat="45.584841929376125" lon="5.905602984130383"><ele></ele><time>2015-2-4T8:23:22Z</time></trkpt>
<trkpt lat="45.584431970492005" lon="5.906210923567414"><ele></ele><time>2015-2-4T8:23:25Z</time></trkpt>
<trkpt lat="45.583934923633933" lon="5.906490962952375"><ele></ele><time>2015-2-4T8:23:28Z</time></trkpt>
<trkpt lat="45.583230927586555" lon="5.906701935455203"><ele></ele><time>2015-2-4T8:23:31Z</time></trkpt>
<trkpt lat="45.582769922912121" lon="5.906796986237168"><ele></ele><time>2015-2-4T8:23:34Z</time></trkpt>
<trkpt lat="45.582192996516824" lon="5.907039977610111"><ele></ele><time>2015-2-4T8:23:37Z</time></trkpt>
<trkpt lat="45.581522947177291" lon="5.907437950372696"><ele></ele><time>2015-2-4T8:23:40Z</time></trkpt>
<trkpt lat="45.580812999978662" lon="5.907685970887542"><ele></ele><time>2015-2-4T8:23:43Z</time></trkpt>
<trkpt lat="45.580009929835796" lon="5.908000962808728"><ele></ele><time>2015-2-4T8:23:46Z</time></trkpt>
<trkpt lat="45.579387992620468" lon="5.908061983063817"><ele></ele><time>2015-2-4T8:23:49Z</time></trkpt>
<trkpt lat="45.578758930787444" lon="5.907999956980348"><ele></ele><time>2015-2-4T8:23:52Z</time></trkpt>
<trkpt lat="45.57829893194139" lon="5.907875988632441"><ele></ele><time>2015-2-4T8:23:55Z</time></trkpt>
<trkpt lat="45.577687975019217" lon="5.907524954527617"><ele></ele><time>2015-2-4T8:23:58Z</time></trkpt>
<trkpt lat="45.57717994786799" lon="5.90723292902112"><ele></ele><time>2015-2-4T8:24:1Z</time></trkpt>
<trkpt lat="45.576582988724113" lon="5.906895976513624"><ele></ele><time>2015-2-4T8:24:4Z</time></trkpt>
<trkpt lat="45.576106980443001" lon="5.906644938513637"><ele></ele><time>2015-2-4T8:24:7Z</time></trkpt>
<trkpt lat="45.575820989906788" lon="5.907073924317956"><ele></ele><time>2015-2-4T8:24:10Z</time></trkpt>
<trkpt lat="45.575648993253708" lon="5.908013954758644"><ele></ele><time>2015-2-4T8:24:13Z</time></trkpt>
<trkpt lat="45.575437936931849" lon="5.909215919673443"><ele></ele><time>2015-2-4T8:24:16Z</time></trkpt>
<trkpt lat="45.575324948877096" lon="5.909858979284763"><ele></ele><time>2015-2-4T8:24:19Z</time></trkpt>
<trkpt lat="45.575254959985614" lon="5.910535985603929"><ele></ele><time>2015-2-4T8:24:22Z</time></trkpt>
<trkpt lat="45.575187988579273" lon="5.911191953346133"><ele></ele><time>2015-2-4T8:24:25Z</time></trkpt>
<trkpt lat="45.575023954734206" lon="5.912381932139397"><ele></ele><time>2015-2-4T8:24:28Z</time></trkpt>
<trkpt lat="45.574518945068121" lon="5.912981992587447"><ele></ele><time>2015-2-4T8:24:31Z</time></trkpt>
<trkpt lat="45.573993986472487" lon="5.91339698061347"><ele></ele><time>2015-2-4T8:24:34Z</time></trkpt>
<trkpt lat="45.57333592325449" lon="5.914039956405759"><ele></ele><time>2015-2-4T8:24:37Z</time></trkpt>
<trkpt lat="45.572938956320286" lon="5.914369951933622"><ele></ele><time>2015-2-4T8:24:40Z</time></trkpt>
<trkpt lat="45.572236971929669" lon="5.91503094881773"><ele></ele><time>2015-2-4T8:24:43Z</time></trkpt>
<trkpt lat="45.571734979748726" lon="5.915482984855771"><ele></ele><time>2015-2-4T8:24:46Z</time></trkpt>
<trkpt lat="45.571217983961105" lon="5.915875928476453"><ele></ele><time>2015-2-4T8:24:49Z</time></trkpt>
<trkpt lat="45.570818921551108" lon="5.916239954531193"><ele></ele><time>2015-2-4T8:24:52Z</time></trkpt>
<trkpt lat="45.570409968495369" lon="5.916593922302127"><ele></ele><time>2015-2-4T8:24:55Z</time></trkpt>
<trkpt lat="45.570501917973161" lon="5.917517943307757"><ele></ele><time>2015-2-4T8:24:58Z</time></trkpt>
<trkpt lat="45.569829940795898" lon="5.918201990425587"><ele></ele><time>2015-2-4T8:25:1Z</time></trkpt>
<trkpt lat="45.569414952769876" lon="5.918524945154786"><ele></ele><time>2015-2-4T8:25:4Z</time></trkpt>
<trkpt lat="45.568930981680751" lon="5.919189965352416"><ele></ele><time>2015-2-4T8:25:7Z</time></trkpt>
<trkpt lat="45.568699976429343" lon="5.9200559835881"><ele></ele><time>2015-2-4T8:25:10Z</time></trkpt>
<trkpt lat="45.568465953692794" lon="5.92085394077003"><ele></ele><time>2015-2-4T8:25:13Z</time></trkpt>
<trkpt lat="45.568267973139882" lon="5.921551985666156"><ele></ele><time>2015-2-4T8:25:16Z</time></trkpt>
<trkpt lat="45.567908976227045" lon="5.922440970316529"><ele></ele><time>2015-2-4T8:25:19Z</time></trkpt>
<trkpt lat="45.567610999569297" lon="5.923124933615327"><ele></ele><time>2015-2-4T8:25:22Z</time></trkpt>
<trkpt lat="45.567440930753946" lon="5.923899924382567"><ele></ele><time>2015-2-4T8:25:25Z</time></trkpt>
<trkpt lat="45.567464986816049" lon="5.924596963450313"><ele></ele><time>2015-2-4T8:25:28Z</time></trkpt>
<trkpt lat="45.567464986816049" lon="5.925245974212885"><ele></ele><time>2015-2-4T8:25:31Z</time></trkpt>
<trkpt lat="45.567491976544261" lon="5.926101934164763"><ele></ele><time>2015-2-4T8:25:34Z</time></trkpt>
<trkpt lat="45.567505974322557" lon="5.926776928827167"><ele></ele><time>2015-2-4T8:25:37Z</time></trkpt>
<trkpt lat="45.567413941025734" lon="5.927471956238151"><ele></ele><time>2015-2-4T8:25:40Z</time></trkpt>
<trkpt lat="45.567311933264136" lon="5.928121972829104"><ele></ele><time>2015-2-4T8:25:43Z</time></trkpt>
<trkpt lat="45.567191988229752" lon="5.928999977186322"><ele></ele><time>2015-2-4T8:25:46Z</time></trkpt>
<trkpt lat="45.567092997953296" lon="5.929676983505487"><ele></ele><time>2015-2-4T8:25:49Z</time></trkpt>
<trkpt lat="45.566557981073856" lon="5.929720988497138"><ele></ele><time>2015-2-4T8:25:52Z</time></trkpt>
<trkpt lat="45.566336950287223" lon="5.930675938725472"><ele></ele><time>2015-2-4T8:25:55Z</time></trkpt>
<trkpt lat="45.566307948902249" lon="5.931491916999221"><ele></ele><time>2015-2-4T8:25:58Z</time></trkpt>
<trkpt lat="45.566269978880882" lon="5.932340919971466"><ele></ele><time>2015-2-4T8:26:1Z</time></trkpt>
<trkpt lat="45.566206946969032" lon="5.933329984545708"><ele></ele><time>2015-2-4T8:26:4Z</time></trkpt>
<trkpt lat="45.566264949738979" lon="5.933694932609797"><ele></ele><time>2015-2-4T8:26:7Z</time></trkpt>
<trkpt lat="45.566040985286236" lon="5.93451795168221"><ele></ele><time>2015-2-4T8:26:10Z</time></trkpt>
<trkpt lat="45.565701937302947" lon="5.935339964926243"><ele></ele><time>2015-2-4T8:26:13Z</time></trkpt>
<trkpt lat="45.565422987565398" lon="5.936015965417028"><ele></ele><time>2015-2-4T8:26:16Z</time></trkpt>
<trkpt lat="45.565284937620163" lon="5.936564980074763"><ele></ele><time>2015-2-4T8:26:19Z</time></trkpt>
<trkpt lat="45.564924934878945" lon="5.937387999147177"><ele></ele><time>2015-2-4T8:26:22Z</time></trkpt>
<trkpt lat="45.564585970714688" lon="5.938171958550811"><ele></ele><time>2015-2-4T8:26:25Z</time></trkpt>
<trkpt lat="45.564148938283324" lon="5.938745951279998"><ele></ele><time>2015-2-4T8:26:28Z</time></trkpt>
<trkpt lat="45.563762951642275" lon="5.939333941787481"><ele></ele><time>2015-2-4T8:26:31Z</time></trkpt>
<trkpt lat="45.563245955854654" lon="5.93973794952035"><ele></ele><time>2015-2-4T8:26:34Z</time></trkpt>
<trkpt lat="45.562817975878716" lon="5.939970966428518"><ele></ele><time>2015-2-4T8:26:37Z</time></trkpt>
<trkpt lat="45.562279941514134" lon="5.940336920320988"><ele></ele><time>2015-2-4T8:26:40Z</time></trkpt>
<trkpt lat="45.561847938224673" lon="5.94068493694067"><ele></ele><time>2015-2-4T8:26:43Z</time></trkpt>
<trkpt lat="45.561309987679124" lon="5.941281979903579"><ele></ele><time>2015-2-4T8:26:46Z</time></trkpt>
<trkpt lat="45.56117495521903" lon="5.94214498065412"><ele></ele><time>2015-2-4T8:26:49Z</time></trkpt>
<trkpt lat="45.561101948842406" lon="5.943384999409318"><ele></ele><time>2015-2-4T8:26:52Z</time></trkpt>
<trkpt lat="45.560963982716203" lon="5.944410944357514"><ele></ele><time>2015-2-4T8:26:55Z</time></trkpt>
<trkpt lat="45.560745969414711" lon="5.945164980366826"><ele></ele><time>2015-2-4T8:26:58Z</time></trkpt>
<trkpt lat="45.559959998354316" lon="5.945528922602534"><ele></ele><time>2015-2-4T8:27:1Z</time></trkpt>
<trkpt lat="45.559448953717947" lon="5.945845926180482"><ele></ele><time>2015-2-4T8:27:4Z</time></trkpt>
<trkpt lat="45.558986943215132" lon="5.946767935529351"><ele></ele><time>2015-2-4T8:27:7Z</time></trkpt>
<trkpt lat="45.558781921863556" lon="5.947488946840167"><ele></ele><time>2015-2-4T8:27:10Z</time></trkpt>
<trkpt lat="45.558151938021183" lon="5.948176933452487"><ele></ele><time>2015-2-4T8:27:13Z</time></trkpt>
<trkpt lat="45.557648940011859" lon="5.948491925373673"><ele></ele><time>2015-2-4T8:27:16Z</time></trkpt>
<trkpt lat="45.557387927547097" lon="5.949026942253113"><ele></ele><time>2015-2-4T8:27:19Z</time></trkpt>
<trkpt lat="45.556994983926415" lon="5.949554918333888"><ele></ele><time>2015-2-4T8:27:22Z</time></trkpt>
<trkpt lat="45.556353935971856" lon="5.950354970991612"><ele></ele><time>2015-2-4T8:27:25Z</time></trkpt>
<trkpt lat="45.555721940472722" lon="5.951164998114109"><ele></ele><time>2015-2-4T8:27:28Z</time></trkpt>
<trkpt lat="45.555325979366899" lon="5.95168199390173"><ele></ele><time>2015-2-4T8:27:31Z</time></trkpt>
<trkpt lat="45.55496396496892" lon="5.952113997191191"><ele></ele><time>2015-2-4T8:27:34Z</time></trkpt>
<trkpt lat="45.554567920044065" lon="5.952640967443585"><ele></ele><time>2015-2-4T8:27:37Z</time></trkpt>
<trkpt lat="45.55406391620636" lon="5.9532739687711"><ele></ele><time>2015-2-4T8:27:40Z</time></trkpt>
<trkpt lat="45.553539963439107" lon="5.953843938186765"><ele></ele><time>2015-2-4T8:27:43Z</time></trkpt>
<trkpt lat="45.553821930661798" lon="5.954257920384407"><ele></ele><time>2015-2-4T8:27:46Z</time></trkpt>
<trkpt lat="45.55412795394659" lon="5.954385995864868"><ele></ele><time>2015-2-4T8:27:49Z</time></trkpt>
<trkpt lat="45.553606934845448" lon="5.954883964732289"><ele></ele><time>2015-2-4T8:27:52Z</time></trkpt>
<trkpt lat="45.55300896987319" lon="5.955489976331592"><ele></ele><time>2015-2-4T8:27:55Z</time></trkpt>
<trkpt lat="45.55225795134902" lon="5.95626094378531"><ele></ele><time>2015-2-4T8:27:58Z</time></trkpt>
<trkpt lat="45.551834916695952" lon="5.956807946786284"><ele></ele><time>2015-2-4T8:28:1Z</time></trkpt>
<trkpt lat="45.551475919783115" lon="5.957360984757543"><ele></ele><time>2015-2-4T8:28:4Z</time></trkpt>
<trkpt lat="45.550728924572468" lon="5.958036985248327"><ele></ele><time>2015-2-4T8:28:7Z</time></trkpt>
<trkpt lat="45.550292981788516" lon="5.958237983286381"><ele></ele><time>2015-2-4T8:28:10Z</time></trkpt>
<trkpt lat="45.549368960782886" lon="5.958594968542457"><ele></ele><time>2015-2-4T8:28:13Z</time></trkpt>
<trkpt lat="45.548930922523141" lon="5.958778951317072"><ele></ele><time>2015-2-4T8:28:16Z</time></trkpt>
<trkpt lat="45.548391966149211" lon="5.958917923271656"><ele></ele><time>2015-2-4T8:28:19Z</time></trkpt>
<trkpt lat="45.547697944566607" lon="5.959317991510034"><ele></ele><time>2015-2-4T8:28:22Z</time></trkpt>
<trkpt lat="45.546980956569314" lon="5.959729962050915"><ele></ele><time>2015-2-4T8:28:25Z</time></trkpt>
<trkpt lat="45.546427918598056" lon="5.960048977285624"><ele></ele><time>2015-2-4T8:28:28Z</time></trkpt>
<trkpt lat="45.545982923358679" lon="5.960316946730018"><ele></ele><time>2015-2-4T8:28:31Z</time></trkpt>
<trkpt lat="45.545490989461541" lon="5.960609978064895"><ele></ele><time>2015-2-4T8:28:34Z</time></trkpt>
<trkpt lat="45.544735947623849" lon="5.961107946932316"><ele></ele><time>2015-2-4T8:28:37Z</time></trkpt>
<trkpt lat="45.54387697018683" lon="5.961413970217109"><ele></ele><time>2015-2-4T8:28:40Z</time></trkpt>
<trkpt lat="45.543328961357474" lon="5.961568951606751"><ele></ele><time>2015-2-4T8:28:43Z</time></trkpt>
<trkpt lat="45.542555982246995" lon="5.961904982104898"><ele></ele><time>2015-2-4T8:28:46Z</time></trkpt>
<trkpt lat="45.541996993124485" lon="5.962231960147619"><ele></ele><time>2015-2-4T8:28:49Z</time></trkpt>
<trkpt lat="45.54149592295289" lon="5.962537983432412"><ele></ele><time>2015-2-4T8:28:52Z</time></trkpt>
<trkpt lat="45.540625965222716" lon="5.96307098865509"><ele></ele><time>2015-2-4T8:28:55Z</time></trkpt>
<trkpt lat="45.540206953883171" lon="5.963478935882449"><ele></ele><time>2015-2-4T8:28:58Z</time></trkpt>
<trkpt lat="45.539339929819107" lon="5.964041948318481"><ele></ele><time>2015-2-4T8:29:1Z</time></trkpt>
<trkpt lat="45.53882896900177" lon="5.964355934411287"><ele></ele><time>2015-2-4T8:29:4Z</time></trkpt>
<trkpt lat="45.538385985419154" lon="5.964659946039319"><ele></ele><time>2015-2-4T8:29:7Z</time></trkpt>
<trkpt lat="45.53743195720017" lon="5.965000921860337"><ele></ele><time>2015-2-4T8:29:10Z</time></trkpt>
<trkpt lat="45.536836925894022" lon="5.965328989550471"><ele></ele><time>2015-2-4T8:29:13Z</time></trkpt>
<trkpt lat="45.53648597560823" lon="5.964892962947488"><ele></ele><time>2015-2-4T8:29:16Z</time></trkpt>
<trkpt lat="45.536420932039618" lon="5.964232971891761"><ele></ele><time>2015-2-4T8:29:19Z</time></trkpt>
<trkpt lat="45.536454962566495" lon="5.964785926043987"><ele></ele><time>2015-2-4T8:29:22Z</time></trkpt>
<trkpt lat="45.536107951775193" lon="5.965243997052312"><ele></ele><time>2015-2-4T8:29:25Z</time></trkpt>
<trkpt lat="45.535435974597931" lon="5.965719921514392"><ele></ele><time>2015-2-4T8:29:28Z</time></trkpt>
<trkpt lat="45.534770954400301" lon="5.966112948954105"><ele></ele><time>2015-2-4T8:29:31Z</time></trkpt>
<trkpt lat="45.53401599638164" lon="5.966560961678624"><ele></ele><time>2015-2-4T8:29:34Z</time></trkpt>
<trkpt lat="45.53356597200036" lon="5.966783920302987"><ele></ele><time>2015-2-4T8:29:37Z</time></trkpt>
<trkpt lat="45.533119970932603" lon="5.966907972469926"><ele></ele><time>2015-2-4T8:29:40Z</time></trkpt>
<trkpt lat="45.532595934346318" lon="5.967126991599798"><ele></ele><time>2015-2-4T8:29:43Z</time></trkpt>
<trkpt lat="45.531715918332338" lon="5.967522952705622"><ele></ele><time>2015-2-4T8:29:46Z</time></trkpt>
<trkpt lat="45.530899940058589" lon="5.967887984588742"><ele></ele><time>2015-2-4T8:29:49Z</time></trkpt>
<trkpt lat="45.530313961207867" lon="5.968155954033136"><ele></ele><time>2015-2-4T8:29:52Z</time></trkpt>
<trkpt lat="45.529792942106724" lon="5.968386959284544"><ele></ele><time>2015-2-4T8:29:55Z</time></trkpt>
<trkpt lat="45.529056927189231" lon="5.968686947599053"><ele></ele><time>2015-2-4T8:29:58Z</time></trkpt>
<trkpt lat="45.528227956965566" lon="5.969112999737263"><ele></ele><time>2015-2-4T8:30:1Z</time></trkpt>
<trkpt lat="45.527747925370932" lon="5.969350961968303"><ele></ele><time>2015-2-4T8:30:4Z</time></trkpt>
<trkpt lat="45.527215925976634" lon="5.969618931412697"><ele></ele><time>2015-2-4T8:30:7Z</time></trkpt>
<trkpt lat="45.526493992656469" lon="5.96999192610383"><ele></ele><time>2015-2-4T8:30:10Z</time></trkpt>
<trkpt lat="45.525937937200069" lon="5.970266936346889"><ele></ele><time>2015-2-4T8:30:13Z</time></trkpt>
<trkpt lat="45.525157917290926" lon="5.970670944079757"><ele></ele><time>2015-2-4T8:30:16Z</time></trkpt>
<trkpt lat="45.524727925658226" lon="5.970919970422983"><ele></ele><time>2015-2-4T8:30:19Z</time></trkpt>
<trkpt lat="45.524252923205495" lon="5.97123496234417"><ele></ele><time>2015-2-4T8:30:22Z</time></trkpt>
<trkpt lat="45.523739950731397" lon="5.971590941771865"><ele></ele><time>2015-2-4T8:30:25Z</time></trkpt>
<trkpt lat="45.523264948278666" lon="5.971913980320096"><ele></ele><time>2015-2-4T8:30:28Z</time></trkpt>
<trkpt lat="45.522597916424274" lon="5.972366938367486"><ele></ele><time>2015-2-4T8:30:31Z</time></trkpt>
<trkpt lat="45.522183934226632" lon="5.972738927230239"><ele></ele><time>2015-2-4T8:30:34Z</time></trkpt>
<trkpt lat="45.521582951769233" lon="5.973112927749753"><ele></ele><time>2015-2-4T8:30:37Z</time></trkpt>
<trkpt lat="45.521200988441706" lon="5.973623972386122"><ele></ele><time>2015-2-4T8:30:40Z</time></trkpt>
<trkpt lat="45.520929917693138" lon="5.974177932366729"><ele></ele><time>2015-2-4T8:30:43Z</time></trkpt>
<trkpt lat="45.520670916885138" lon="5.974745973944664"><ele></ele><time>2015-2-4T8:30:46Z</time></trkpt>
<trkpt lat="45.520327929407358" lon="5.975542925298214"><ele></ele><time>2015-2-4T8:30:49Z</time></trkpt>
<trkpt lat="45.520028946921229" lon="5.976231917738915"><ele></ele><time>2015-2-4T8:30:52Z</time></trkpt>
<trkpt lat="45.51966299302876" lon="5.97682393155992"><ele></ele><time>2015-2-4T8:30:55Z</time></trkpt>
<trkpt lat="45.51929896697402" lon="5.977284936234355"><ele></ele><time>2015-2-4T8:30:58Z</time></trkpt>
<trkpt lat="45.518955979496241" lon="5.97774694673717"><ele></ele><time>2015-2-4T8:31:1Z</time></trkpt>
<trkpt lat="45.518555995076895" lon="5.978308953344822"><ele></ele><time>2015-2-4T8:31:4Z</time></trkpt>
<trkpt lat="45.518167996779084" lon="5.979281924664974"><ele></ele><time>2015-2-4T8:31:7Z</time></trkpt>
<trkpt lat="45.517700957134366" lon="5.979739995673299"><ele></ele><time>2015-2-4T8:31:10Z</time></trkpt>
<trkpt lat="45.517185973003507" lon="5.980068985372782"><ele></ele><time>2015-2-4T8:31:13Z</time></trkpt>
<trkpt lat="45.51665497943759" lon="5.980464946478605"><ele></ele><time>2015-2-4T8:31:16Z</time></trkpt>
<trkpt lat="45.516336970031261" lon="5.980965932831168"><ele></ele><time>2015-2-4T8:31:19Z</time></trkpt>
<trkpt lat="45.51640092395246" lon="5.981965977698565"><ele></ele><time>2015-2-4T8:31:22Z</time></trkpt>
<trkpt lat="45.51588392816484" lon="5.98255799151957"><ele></ele><time>2015-2-4T8:31:25Z</time></trkpt>
<trkpt lat="45.515553932636976" lon="5.983274979516864"><ele></ele><time>2015-2-4T8:31:28Z</time></trkpt>
<trkpt lat="45.515227960422635" lon="5.983882918953896"><ele></ele><time>2015-2-4T8:31:31Z</time></trkpt>
<trkpt lat="45.51482898183167" lon="5.984753966331482"><ele></ele><time>2015-2-4T8:31:34Z</time></trkpt>
<trkpt lat="45.514430925250053" lon="5.985647980123758"><ele></ele><time>2015-2-4T8:31:37Z</time></trkpt>
<trkpt lat="45.514001939445734" lon="5.986378965899348"><ele></ele><time>2015-2-4T8:31:40Z</time></trkpt>
<trkpt lat="45.513496929779649" lon="5.987047925591469"><ele></ele><time>2015-2-4T8:31:43Z</time></trkpt>
<trkpt lat="45.513031985610723" lon="5.987348919734359"><ele></ele><time>2015-2-4T8:31:46Z</time></trkpt>
<trkpt lat="45.512321954593062" lon="5.987123949453235"><ele></ele><time>2015-2-4T8:31:49Z</time></trkpt>
<trkpt lat="45.511517962440848" lon="5.986865954473615"><ele></ele><time>2015-2-4T8:31:52Z</time></trkpt>
<trkpt lat="45.511073973029852" lon="5.986743997782469"><ele></ele><time>2015-2-4T8:31:55Z</time></trkpt>
<trkpt lat="45.510413981974125" lon="5.986246950924397"><ele></ele><time>2015-2-4T8:31:58Z</time></trkpt>
<trkpt lat="45.509982984513044" lon="5.985936988145113"><ele></ele><time>2015-2-4T8:32:1Z</time></trkpt>
<trkpt lat="45.509546957910061" lon="5.985491992905736"><ele></ele><time>2015-2-4T8:32:4Z</time></trkpt>
<trkpt lat="45.509098945185542" lon="5.985319996252656"><ele></ele><time>2015-2-4T8:32:7Z</time></trkpt>
<trkpt lat="45.508501986041665" lon="5.984848933294416"><ele></ele><time>2015-2-4T8:32:10Z</time></trkpt>
<trkpt lat="45.507866973057389" lon="5.983836986124516"><ele></ele><time>2015-2-4T8:32:13Z</time></trkpt>
<trkpt lat="45.507399933412671" lon="5.983118992298842"><ele></ele><time>2015-2-4T8:32:16Z</time></trkpt>
<trkpt lat="45.50670993514359" lon="5.982995945960283"><ele></ele><time>2015-2-4T8:32:19Z</time></trkpt>
<trkpt lat="45.506159998476505" lon="5.983112957328558"><ele></ele><time>2015-2-4T8:32:22Z</time></trkpt>
<trkpt lat="45.505468994379044" lon="5.982834929600358"><ele></ele><time>2015-2-4T8:32:25Z</time></trkpt>
<trkpt lat="45.504929954186082" lon="5.982832917943597"><ele></ele><time>2015-2-4T8:32:28Z</time></trkpt>
<trkpt lat="45.504422932863235" lon="5.98260392434895"><ele></ele><time>2015-2-4T8:32:31Z</time></trkpt>
<trkpt lat="45.503783980384469" lon="5.982789918780327"><ele></ele><time>2015-2-4T8:32:34Z</time></trkpt>
<trkpt lat="45.502886949107051" lon="5.98268891684711"><ele></ele><time>2015-2-4T8:32:37Z</time></trkpt>
<trkpt lat="45.502413958311081" lon="5.98256092518568"><ele></ele><time>2015-2-4T8:32:40Z</time></trkpt>
<trkpt lat="45.501519944518805" lon="5.982782961800695"><ele></ele><time>2015-2-4T8:32:43Z</time></trkpt>
<trkpt lat="45.500866994261742" lon="5.983097953721881"><ele></ele><time>2015-2-4T8:32:46Z</time></trkpt>
<trkpt lat="45.500287972390652" lon="5.98333197645843"><ele></ele><time>2015-2-4T8:32:49Z</time></trkpt>
<trkpt lat="45.499603925272822" lon="5.983130978420377"><ele></ele><time>2015-2-4T8:32:52Z</time></trkpt>
<trkpt lat="45.498922979459167" lon="5.983136929571629"><ele></ele><time>2015-2-4T8:32:55Z</time></trkpt>
<trkpt lat="45.498465998098254" lon="5.983162997290492"><ele></ele><time>2015-2-4T8:32:58Z</time></trkpt>
<trkpt lat="45.497751943767071" lon="5.983092924579978"><ele></ele><time>2015-2-4T8:33:1Z</time></trkpt>
<trkpt lat="45.497213993221521" lon="5.983473965898156"><ele></ele><time>2015-2-4T8:33:4Z</time></trkpt>
<trkpt lat="45.496430955827236" lon="5.983763979747891"><ele></ele><time>2015-2-4T8:33:7Z</time></trkpt>
<trkpt lat="45.495915971696377" lon="5.983876967802644"><ele></ele><time>2015-2-4T8:33:10Z</time></trkpt>
<trkpt lat="45.495177945122123" lon="5.983908986672759"><ele></ele><time>2015-2-4T8:33:13Z</time></trkpt>
<trkpt lat="45.494496999308467" lon="5.98391393199563"><ele></ele><time>2015-2-4T8:33:16Z</time></trkpt>
<trkpt lat="45.493944967165589" lon="5.983879985287786"><ele></ele><time>2015-2-4T8:33:19Z</time></trkpt>
<trkpt lat="45.493272989988327" lon="5.983824916183949"><ele></ele><time>2015-2-4T8:33:22Z</time></trkpt>
<trkpt lat="45.492715928703547" lon="5.983736990019679"><ele></ele><time>2015-2-4T8:33:25Z</time></trkpt>
<trkpt lat="45.492259953171015" lon="5.983596928417683"><ele></ele><time>2015-2-4T8:33:28Z</time></trkpt>
<trkpt lat="45.491581941023469" lon="5.98361293785274"><ele></ele><time>2015-2-4T8:33:31Z</time></trkpt>
<trkpt lat="45.491120936349034" lon="5.983860958367586"><ele></ele><time>2015-2-4T8:33:34Z</time></trkpt>
<trkpt lat="45.490403948351741" lon="5.98438298329711"><ele></ele><time>2015-2-4T8:33:37Z</time></trkpt>
<trkpt lat="45.490033971145749" lon="5.984764946624637"><ele></ele><time>2015-2-4T8:33:40Z</time></trkpt>
<trkpt lat="45.48956592567265" lon="5.984968962147832"><ele></ele><time>2015-2-4T8:33:43Z</time></trkpt>
<trkpt lat="45.489095952361822" lon="5.984907941892743"><ele></ele><time>2015-2-4T8:33:46Z</time></trkpt>
<trkpt lat="45.488339988514781" lon="5.984573923051357"><ele></ele><time>2015-2-4T8:33:49Z</time></trkpt>
<trkpt lat="45.48765292391181" lon="5.98455598577857"><ele></ele><time>2015-2-4T8:33:52Z</time></trkpt>
<trkpt lat="45.487090917304158" lon="5.984228923916817"><ele></ele><time>2015-2-4T8:33:55Z</time></trkpt>
<trkpt lat="45.486654974520206" lon="5.983657948672772"><ele></ele><time>2015-2-4T8:33:58Z</time></trkpt>
<trkpt lat="45.486046951264143" lon="5.983314961194992"><ele></ele><time>2015-2-4T8:34:1Z</time></trkpt>
<trkpt lat="45.485577983781695" lon="5.98296694457531"><ele></ele><time>2015-2-4T8:34:4Z</time></trkpt>
<trkpt lat="45.485049923881888" lon="5.982349952682853"><ele></ele><time>2015-2-4T8:34:7Z</time></trkpt>
<trkpt lat="45.484225982800126" lon="5.982524966821075"><ele></ele><time>2015-2-4T8:34:10Z</time></trkpt>
<trkpt lat="45.483142957091331" lon="5.982738956809044"><ele></ele><time>2015-2-4T8:34:13Z</time></trkpt>
<trkpt lat="45.482406942173839" lon="5.982663938775659"><ele></ele><time>2015-2-4T8:34:16Z</time></trkpt>
<trkpt lat="45.48183093778789" lon="5.982359927147627"><ele></ele><time>2015-2-4T8:34:19Z</time></trkpt>
<trkpt lat="45.48116197809577" lon="5.981789957731962"><ele></ele><time>2015-2-4T8:34:22Z</time></trkpt>
<trkpt lat="45.480151958763599" lon="5.98182993941009"><ele></ele><time>2015-2-4T8:34:25Z</time></trkpt>
<trkpt lat="45.479448968544602" lon="5.981879979372025"><ele></ele><time>2015-2-4T8:34:28Z</time></trkpt>
<trkpt lat="45.479007996618748" lon="5.981648974120617"><ele></ele><time>2015-2-4T8:34:31Z</time></trkpt>
<trkpt lat="45.477965958416462" lon="5.981465997174382"><ele></ele><time>2015-2-4T8:34:34Z</time></trkpt>
<trkpt lat="45.477455919608474" lon="5.981425931677222"><ele></ele><time>2015-2-4T8:34:37Z</time></trkpt>
<trkpt lat="45.476726945489645" lon="5.981620978564024"><ele></ele><time>2015-2-4T8:34:40Z</time></trkpt>
<trkpt lat="45.475839972496033" lon="5.981973940506578"><ele></ele><time>2015-2-4T8:34:43Z</time></trkpt>
<trkpt lat="45.475414926186204" lon="5.982366967946291"><ele></ele><time>2015-2-4T8:34:46Z</time></trkpt>
<trkpt lat="45.47495492734015" lon="5.982636949047446"><ele></ele><time>2015-2-4T8:34:49Z</time></trkpt>
<trkpt lat="45.474859960377216" lon="5.983314961194992"><ele></ele><time>2015-2-4T8:34:52Z</time></trkpt>
<trkpt lat="45.474283955991268" lon="5.98421199247241"><ele></ele><time>2015-2-4T8:34:55Z</time></trkpt>
<trkpt lat="45.473494967445731" lon="5.984947923570871"><ele></ele><time>2015-2-4T8:34:58Z</time></trkpt>
<trkpt lat="45.472991969436407" lon="5.985514959320426"><ele></ele><time>2015-2-4T8:35:1Z</time></trkpt>
<trkpt lat="45.472549991682172" lon="5.986007982864976"><ele></ele><time>2015-2-4T8:35:4Z</time></trkpt>
<trkpt lat="45.47190198674798" lon="5.986477956175804"><ele></ele><time>2015-2-4T8:35:7Z</time></trkpt>
<trkpt lat="45.471441987901926" lon="5.986485918983817"><ele></ele><time>2015-2-4T8:35:10Z</time></trkpt>
<trkpt lat="45.470959944650531" lon="5.986667973920703"><ele></ele><time>2015-2-4T8:35:13Z</time></trkpt>
<trkpt lat="45.470508998259902" lon="5.986879952251911"><ele></ele><time>2015-2-4T8:35:16Z</time></trkpt>
<trkpt lat="45.470036929473281" lon="5.987138953059912"><ele></ele><time>2015-2-4T8:35:19Z</time></trkpt>
<trkpt lat="45.46938699670136" lon="5.988089963793755"><ele></ele><time>2015-2-4T8:35:22Z</time></trkpt>
<trkpt lat="45.468897996470332" lon="5.988820949569345"><ele></ele><time>2015-2-4T8:35:25Z</time></trkpt>
<trkpt lat="45.468409918248653" lon="5.98922093398869"><ele></ele><time>2015-2-4T8:35:28Z</time></trkpt>
<trkpt lat="45.468018986284733" lon="5.989576997235417"><ele></ele><time>2015-2-4T8:35:31Z</time></trkpt>
<trkpt lat="45.467475922778249" lon="5.989672970026732"><ele></ele><time>2015-2-4T8:35:34Z</time></trkpt>
<trkpt lat="45.467015923932195" lon="5.989762991666794"><ele></ele><time>2015-2-4T8:35:37Z</time></trkpt>
<trkpt lat="45.46623095870018" lon="5.989946974441409"><ele></ele><time>2015-2-4T8:35:40Z</time></trkpt>
<trkpt lat="45.46569493599236" lon="5.990026937797666"><ele></ele><time>2015-2-4T8:35:43Z</time></trkpt>
<trkpt lat="45.465195961296558" lon="5.990147972479463"><ele></ele><time>2015-2-4T8:35:46Z</time></trkpt>
<trkpt lat="45.46438492834568" lon="5.990280993282795"><ele></ele><time>2015-2-4T8:35:49Z</time></trkpt>
<trkpt lat="45.463554952293634" lon="5.990326926112175"><ele></ele><time>2015-2-4T8:35:52Z</time></trkpt>
<trkpt lat="45.462777949869633" lon="5.990131963044405"><ele></ele><time>2015-2-4T8:35:55Z</time></trkpt>
<trkpt lat="45.462327925488353" lon="5.989737929776311"><ele></ele><time>2015-2-4T8:35:58Z</time></trkpt>
<trkpt lat="45.461793998256326" lon="5.989811941981316"><ele></ele><time>2015-2-4T8:36:1Z</time></trkpt>
<trkpt lat="45.461385967209935" lon="5.990138920024037"><ele></ele><time>2015-2-4T8:36:4Z</time></trkpt>
<trkpt lat="45.461193937808275" lon="5.990866972133517"><ele></ele><time>2015-2-4T8:36:7Z</time></trkpt>
<trkpt lat="45.460875928401947" lon="5.991800967603922"><ele></ele><time>2015-2-4T8:36:10Z</time></trkpt>
<trkpt lat="45.460525983944535" lon="5.992834959179163"><ele></ele><time>2015-2-4T8:36:13Z</time></trkpt>
<trkpt lat="45.460327919572592" lon="5.99342898465693"><ele></ele><time>2015-2-4T8:36:16Z</time></trkpt>
<trkpt lat="45.460071936249733" lon="5.994166927412152"><ele></ele><time>2015-2-4T8:36:19Z</time></trkpt>
<trkpt lat="45.459824921563268" lon="5.994752990081906"><ele></ele><time>2015-2-4T8:36:22Z</time></trkpt>
<trkpt lat="45.459383949637413" lon="5.996117983013392"><ele></ele><time>2015-2-4T8:36:25Z</time></trkpt>
<trkpt lat="45.459129977971315" lon="5.996893979609013"><ele></ele><time>2015-2-4T8:36:28Z</time></trkpt>
<trkpt lat="45.458374936133623" lon="5.997850941494107"><ele></ele><time>2015-2-4T8:36:31Z</time></trkpt>
<trkpt lat="45.457742940634489" lon="5.998430969193578"><ele></ele><time>2015-2-4T8:36:34Z</time></trkpt>
<trkpt lat="45.457071969285607" lon="5.999040920287371"><ele></ele><time>2015-2-4T8:36:37Z</time></trkpt>
<trkpt lat="45.456247944384813" lon="5.999762937426567"><ele></ele><time>2015-2-4T8:36:40Z</time></trkpt>
<trkpt lat="45.45572399161756" lon="6.00021799094975"><ele></ele><time>2015-2-4T8:36:43Z</time></trkpt>
<trkpt lat="45.454958975315094" lon="6.000890973955393"><ele></ele><time>2015-2-4T8:36:46Z</time></trkpt>
<trkpt lat="45.454311976209283" lon="6.00142196752131"><ele></ele><time>2015-2-4T8:36:49Z</time></trkpt>
<trkpt lat="45.453842924907804" lon="6.001595975831151"><ele></ele><time>2015-2-4T8:36:52Z</time></trkpt>
<trkpt lat="45.453142952173948" lon="6.001386931166053"><ele></ele><time>2015-2-4T8:36:55Z</time></trkpt>
<trkpt lat="45.452433926984668" lon="6.001025922596455"><ele></ele><time>2015-2-4T8:36:58Z</time></trkpt>
<trkpt lat="45.451651979237795" lon="6.000618981197476"><ele></ele><time>2015-2-4T8:37:1Z</time></trkpt>
<trkpt lat="45.450728964060545" lon="6.000138949602842"><ele></ele><time>2015-2-4T8:37:4Z</time></trkpt>
<trkpt lat="45.450176931917667" lon="5.999835943803191"><ele></ele><time>2015-2-4T8:37:7Z</time></trkpt>
<trkpt lat="45.449580978602171" lon="5.999525981023908"><ele></ele><time>2015-2-4T8:37:10Z</time></trkpt>
<trkpt lat="45.448990976437926" lon="5.999205959960818"><ele></ele><time>2015-2-4T8:37:13Z</time></trkpt>
<trkpt lat="45.448329979553819" lon="5.998911922797561"><ele></ele><time>2015-2-4T8:37:16Z</time></trkpt>
<trkpt lat="45.447512995451689" lon="5.999046955257654"><ele></ele><time>2015-2-4T8:37:19Z</time></trkpt>
<trkpt lat="45.446845963597298" lon="5.999270919710398"><ele></ele><time>2015-2-4T8:37:22Z</time></trkpt>
<trkpt lat="45.446278927847743" lon="6.000078935176134"><ele></ele><time>2015-2-4T8:37:25Z</time></trkpt>
<trkpt lat="45.445791939273477" lon="6.000646976754069"><ele></ele><time>2015-2-4T8:37:28Z</time></trkpt>
<trkpt lat="45.444949977099895" lon="6.000951994210482"><ele></ele><time>2015-2-4T8:37:31Z</time></trkpt>
<trkpt lat="45.444402974098921" lon="6.001245947554708"><ele></ele><time>2015-2-4T8:37:34Z</time></trkpt>
<trkpt lat="45.443976921960711" lon="6.00157393142581"><ele></ele><time>2015-2-4T8:37:37Z</time></trkpt>
<trkpt lat="45.44339194893837" lon="6.002483954653144"><ele></ele><time>2015-2-4T8:37:40Z</time></trkpt>
<trkpt lat="45.442757941782475" lon="6.003186944872141"><ele></ele><time>2015-2-4T8:37:43Z</time></trkpt>
<trkpt lat="45.441793939098716" lon="6.003360953181982"><ele></ele><time>2015-2-4T8:37:46Z</time></trkpt>
<trkpt lat="45.441285995766521" lon="6.00339992903173"><ele></ele><time>2015-2-4T8:37:49Z</time></trkpt>
<trkpt lat="45.440765982493758" lon="6.003415938466787"><ele></ele><time>2015-2-4T8:37:52Z</time></trkpt>
<trkpt lat="45.439785970374942" lon="6.003406969830394"><ele></ele><time>2015-2-4T8:37:55Z</time></trkpt>
<trkpt lat="45.439311973750591" lon="6.003392972052097"><ele></ele><time>2015-2-4T8:37:58Z</time></trkpt>
<trkpt lat="45.438598925247788" lon="6.00333396345377"><ele></ele><time>2015-2-4T8:38:1Z</time></trkpt>
<trkpt lat="45.43793298304081" lon="6.003231955692172"><ele></ele><time>2015-2-4T8:38:4Z</time></trkpt>
<trkpt lat="45.437197973951697" lon="6.00305694155395"><ele></ele><time>2015-2-4T8:38:7Z</time></trkpt>
<trkpt lat="45.436647953465581" lon="6.002888968214393"><ele></ele><time>2015-2-4T8:38:10Z</time></trkpt>
<trkpt lat="45.436202958226204" lon="6.002682941034436"><ele></ele><time>2015-2-4T8:38:13Z</time></trkpt>
<trkpt lat="45.435717981308699" lon="6.002313969656825"><ele></ele><time>2015-2-4T8:38:16Z</time></trkpt>
<trkpt lat="45.434946930035949" lon="6.001587929204106"><ele></ele><time>2015-2-4T8:38:19Z</time></trkpt>
<trkpt lat="45.434388946741819" lon="6.001083925366402"><ele></ele><time>2015-2-4T8:38:22Z</time></trkpt>
<trkpt lat="45.433867927640676" lon="6.000605989247561"><ele></ele><time>2015-2-4T8:38:25Z</time></trkpt>
<trkpt lat="45.433359984308481" lon="6.000144984573126"><ele></ele><time>2015-2-4T8:38:28Z</time></trkpt>
<trkpt lat="45.432741986587644" lon="5.999578954651952"><ele></ele><time>2015-2-4T8:38:31Z</time></trkpt>
<trkpt lat="45.43213396333158" lon="5.999020971357822"><ele></ele><time>2015-2-4T8:38:34Z</time></trkpt>
<trkpt lat="45.431569945067167" lon="5.998495928943157"><ele></ele><time>2015-2-4T8:38:37Z</time></trkpt>
<trkpt lat="45.431069964542985" lon="5.998004917055368"><ele></ele><time>2015-2-4T8:38:40Z</time></trkpt>
<trkpt lat="45.430516926571727" lon="5.9974679723382"><ele></ele><time>2015-2-4T8:38:43Z</time></trkpt>
<trkpt lat="45.429916949942708" lon="5.996917951852083"><ele></ele><time>2015-2-4T8:38:46Z</time></trkpt>
<trkpt lat="45.429310938343406" lon="5.996410930529237"><ele></ele><time>2015-2-4T8:38:49Z</time></trkpt>
<trkpt lat="45.428828978911042" lon="5.995967946946621"><ele></ele><time>2015-2-4T8:38:52Z</time></trkpt>
<trkpt lat="45.427946951240301" lon="5.99514995701611"><ele></ele><time>2015-2-4T8:38:55Z</time></trkpt>
<trkpt lat="45.427394919097424" lon="5.994646959006786"><ele></ele><time>2015-2-4T8:38:58Z</time></trkpt>
<trkpt lat="45.426723947748542" lon="5.994027955457568"><ele></ele><time>2015-2-4T8:39:1Z</time></trkpt>
<trkpt lat="45.426140986382961" lon="5.993498973548412"><ele></ele><time>2015-2-4T8:39:4Z</time></trkpt>
<trkpt lat="45.425604963675141" lon="5.993010979145765"><ele></ele><time>2015-2-4T8:39:7Z</time></trkpt>
<trkpt lat="45.425072964280844" lon="5.992521978914738"><ele></ele><time>2015-2-4T8:39:10Z</time></trkpt>
<trkpt lat="45.424572983756661" lon="5.992064997553825"><ele></ele><time>2015-2-4T8:39:13Z</time></trkpt>
<trkpt lat="45.42396797798574" lon="5.991514977067709"><ele></ele><time>2015-2-4T8:39:16Z</time></trkpt>
<trkpt lat="45.423376969993114" lon="5.990973925217986"><ele></ele><time>2015-2-4T8:39:19Z</time></trkpt>
<trkpt lat="45.422848993912339" lon="5.990485930815339"><ele></ele><time>2015-2-4T8:39:22Z</time></trkpt>
<trkpt lat="45.422373991459608" lon="5.990045964717865"><ele></ele><time>2015-2-4T8:39:25Z</time></trkpt>
<trkpt lat="45.421684999018908" lon="5.989414975047112"><ele></ele><time>2015-2-4T8:39:28Z</time></trkpt>
<trkpt lat="45.421054931357503" lon="5.988844921812415"><ele></ele><time>2015-2-4T8:39:31Z</time></trkpt>
<trkpt lat="45.420473981648684" lon="5.988312922418118"><ele></ele><time>2015-2-4T8:39:34Z</time></trkpt>
<trkpt lat="45.419957991689444" lon="5.987847978249192"><ele></ele><time>2015-2-4T8:39:37Z</time></trkpt>
<trkpt lat="45.419572927057743" lon="5.987486969679594"><ele></ele><time>2015-2-4T8:39:40Z</time></trkpt>
<trkpt lat="45.419029947370291" lon="5.986991934478283"><ele></ele><time>2015-2-4T8:39:43Z</time></trkpt>
<trkpt lat="45.418626945465803" lon="5.986640984192491"><ele></ele><time>2015-2-4T8:39:46Z</time></trkpt>
<trkpt lat="45.417936947196722" lon="5.986164975911379"><ele></ele><time>2015-2-4T8:39:49Z</time></trkpt>
<trkpt lat="45.417248960584402" lon="5.985809918493033"><ele></ele><time>2015-2-4T8:39:52Z</time></trkpt>
<trkpt lat="45.416629957035184" lon="5.985538931563497"><ele></ele><time>2015-2-4T8:39:55Z</time></trkpt>
<trkpt lat="45.415840968489647" lon="5.985192926600575"><ele></ele><time>2015-2-4T8:39:58Z</time></trkpt>
<trkpt lat="45.41509598493576" lon="5.984863936901093"><ele></ele><time>2015-2-4T8:40:1Z</time></trkpt>
<trkpt lat="45.414416966959834" lon="5.984569983556867"><ele></ele><time>2015-2-4T8:40:4Z</time></trkpt>
<trkpt lat="45.413778936490417" lon="5.984292961657047"><ele></ele><time>2015-2-4T8:40:7Z</time></trkpt>
<trkpt lat="45.413159932941198" lon="5.984024992212653"><ele></ele><time>2015-2-4T8:40:10Z</time></trkpt>
<trkpt lat="45.412682918831706" lon="5.983816953375936"><ele></ele><time>2015-2-4T8:40:13Z</time></trkpt>
<trkpt lat="45.412029968574643" lon="5.983540937304497"><ele></ele><time>2015-2-4T8:40:16Z</time></trkpt>
<trkpt lat="45.411440972238779" lon="5.983281936496496"><ele></ele><time>2015-2-4T8:40:19Z</time></trkpt>
<trkpt lat="45.410775952041149" lon="5.982993934303522"><ele></ele><time>2015-2-4T8:40:22Z</time></trkpt>
<trkpt lat="45.41028494015336" lon="5.982779944315553"><ele></ele><time>2015-2-4T8:40:25Z</time></trkpt>
<trkpt lat="45.409480948001146" lon="5.98242798820138"><ele></ele><time>2015-2-4T8:40:28Z</time></trkpt>
<trkpt lat="45.409007957205176" lon="5.982198994606733"><ele></ele><time>2015-2-4T8:40:31Z</time></trkpt>
<trkpt lat="45.408486938104033" lon="5.981969917193055"><ele></ele><time>2015-2-4T8:40:34Z</time></trkpt>
<trkpt lat="45.407757963985205" lon="5.981674958020449"><ele></ele><time>2015-2-4T8:40:37Z</time></trkpt>
<trkpt lat="45.407039970159531" lon="5.981362983584404"><ele></ele><time>2015-2-4T8:40:40Z</time></trkpt>
<trkpt lat="45.406247964128852" lon="5.981014966964722"><ele></ele><time>2015-2-4T8:40:43Z</time></trkpt>
<trkpt lat="45.405325954779983" lon="5.980597967281938"><ele></ele><time>2015-2-4T8:40:46Z</time></trkpt>
<trkpt lat="45.404482986778021" lon="5.98021793179214"><ele></ele><time>2015-2-4T8:40:49Z</time></trkpt>
<trkpt lat="45.40396892465651" lon="5.979995978996158"><ele></ele><time>2015-2-4T8:40:52Z</time></trkpt>
<trkpt lat="45.403340952470899" lon="5.979715939611197"><ele></ele><time>2015-2-4T8:40:55Z</time></trkpt>
<trkpt lat="45.402718931436539" lon="5.9794429410249"><ele></ele><time>2015-2-4T8:40:58Z</time></trkpt>
<trkpt lat="45.401997920125723" lon="5.979128954932094"><ele></ele><time>2015-2-4T8:41:1Z</time></trkpt>
<trkpt lat="45.401225946843624" lon="5.97879795357585"><ele></ele><time>2015-2-4T8:41:4Z</time></trkpt>
<trkpt lat="45.400443999096751" lon="5.97845496609807"><ele></ele><time>2015-2-4T8:41:7Z</time></trkpt>
<trkpt lat="45.399628942832351" lon="5.978092951700091"><ele></ele><time>2015-2-4T8:41:10Z</time></trkpt>
<trkpt lat="45.399028966203332" lon="5.977835962548852"><ele></ele><time>2015-2-4T8:41:13Z</time></trkpt>
<trkpt lat="45.398176945745945" lon="5.977451987564564"><ele></ele><time>2015-2-4T8:41:16Z</time></trkpt>
<trkpt lat="45.397492982447147" lon="5.977154932916164"><ele></ele><time>2015-2-4T8:41:19Z</time></trkpt>
<trkpt lat="45.396770965307951" lon="5.976839940994978"><ele></ele><time>2015-2-4T8:41:22Z</time></trkpt>
<trkpt lat="45.395989939570427" lon="5.976501982659102"><ele></ele><time>2015-2-4T8:41:25Z</time></trkpt>
<trkpt lat="45.395258953794837" lon="5.976183973252773"><ele></ele><time>2015-2-4T8:41:28Z</time></trkpt>
<trkpt lat="45.394773976877332" lon="5.975965959951282"><ele></ele><time>2015-2-4T8:41:31Z</time></trkpt>
<trkpt lat="45.394065957516432" lon="5.975655997171998"><ele></ele><time>2015-2-4T8:41:34Z</time></trkpt>
<trkpt lat="45.393439996987581" lon="5.97538199275732"><ele></ele><time>2015-2-4T8:41:37Z</time></trkpt>
<trkpt lat="45.392613960430026" lon="5.975023917853832"><ele></ele><time>2015-2-4T8:41:40Z</time></trkpt>
<trkpt lat="45.392009960487485" lon="5.97475896589458"><ele></ele><time>2015-2-4T8:41:43Z</time></trkpt>
<trkpt lat="45.390939926728606" lon="5.974290920421481"><ele></ele><time>2015-2-4T8:41:46Z</time></trkpt>
<trkpt lat="45.390305919572711" lon="5.974017921835184"><ele></ele><time>2015-2-4T8:41:49Z</time></trkpt>
<trkpt lat="45.38980795070529" lon="5.973800998181105"><ele></ele><time>2015-2-4T8:41:52Z</time></trkpt>
<trkpt lat="45.389157934114337" lon="5.973516935482621"><ele></ele><time>2015-2-4T8:41:55Z</time></trkpt>
<trkpt lat="45.388636998832226" lon="5.973289953544736"><ele></ele><time>2015-2-4T8:41:58Z</time></trkpt>
<trkpt lat="45.387677941471338" lon="5.97286993637681"><ele></ele><time>2015-2-4T8:42:1Z</time></trkpt>
<trkpt lat="45.386712932959199" lon="5.972453942522407"><ele></ele><time>2015-2-4T8:42:4Z</time></trkpt>
<trkpt lat="45.38609191775322" lon="5.972177926450968"><ele></ele><time>2015-2-4T8:42:7Z</time></trkpt>
<trkpt lat="45.385483978316188" lon="5.971914986148477"><ele></ele><time>2015-2-4T8:42:10Z</time></trkpt>
<trkpt lat="45.384776964783669" lon="5.971604939550161"><ele></ele><time>2015-2-4T8:42:13Z</time></trkpt>
<trkpt lat="45.384148992598057" lon="5.971327917650342"><ele></ele><time>2015-2-4T8:42:16Z</time></trkpt>
<trkpt lat="45.383334942162037" lon="5.970962969586253"><ele></ele><time>2015-2-4T8:42:19Z</time></trkpt>
<trkpt lat="45.382808977738023" lon="5.970446979627013"><ele></ele><time>2015-2-4T8:42:22Z</time></trkpt>
<trkpt lat="45.382328946143389" lon="5.969847925007343"><ele></ele><time>2015-2-4T8:42:25Z</time></trkpt>
<trkpt lat="45.381802981719375" lon="5.969196986407042"><ele></ele><time>2015-2-4T8:42:28Z</time></trkpt>
<trkpt lat="45.381395956501365" lon="5.968681918457151"><ele></ele><time>2015-2-4T8:42:31Z</time></trkpt>
<trkpt lat="45.380819952115417" lon="5.967958979308605"><ele></ele><time>2015-2-4T8:42:34Z</time></trkpt>
<trkpt lat="45.380319971591234" lon="5.967317931354046"><ele></ele><time>2015-2-4T8:42:37Z</time></trkpt>
<trkpt lat="45.37973097525537" lon="5.966619970276952"><ele></ele><time>2015-2-4T8:42:40Z</time></trkpt>
<trkpt lat="45.379321938380599" lon="5.96620598807931"><ele></ele><time>2015-2-4T8:42:43Z</time></trkpt>
<trkpt lat="45.378618948161602" lon="5.965547924861312"><ele></ele><time>2015-2-4T8:42:46Z</time></trkpt>
<trkpt lat="45.377858961001039" lon="5.964977955445647"><ele></ele><time>2015-2-4T8:42:49Z</time></trkpt>
<trkpt lat="45.377168962731957" lon="5.964463977143168"><ele></ele><time>2015-2-4T8:42:52Z</time></trkpt>
<trkpt lat="45.376475946977735" lon="5.963934995234013"><ele></ele><time>2015-2-4T8:42:55Z</time></trkpt>
<trkpt lat="45.37605794146657" lon="5.963605921715498"><ele></ele><time>2015-2-4T8:42:58Z</time></trkpt>
<trkpt lat="45.375147918239236" lon="5.962931932881475"><ele></ele><time>2015-2-4T8:43:1Z</time></trkpt>
<trkpt lat="45.374640980735421" lon="5.962552987039089"><ele></ele><time>2015-2-4T8:43:4Z</time></trkpt>
<trkpt lat="45.374084925279021" lon="5.962128946557641"><ele></ele><time>2015-2-4T8:43:7Z</time></trkpt>
<trkpt lat="45.373326949775219" lon="5.961569957435131"><ele></ele><time>2015-2-4T8:43:10Z</time></trkpt>
<trkpt lat="45.372881954535842" lon="5.961245996877551"><ele></ele><time>2015-2-4T8:43:13Z</time></trkpt>
<trkpt lat="45.372446933761239" lon="5.960918935015798"><ele></ele><time>2015-2-4T8:43:16Z</time></trkpt>
<trkpt lat="45.371973942965269" lon="5.960559938102961"><ele></ele><time>2015-2-4T8:43:19Z</time></trkpt>
<trkpt lat="45.371543951332569" lon="5.960235977545381"><ele></ele><time>2015-2-4T8:43:22Z</time></trkpt>
<trkpt lat="45.370867950841784" lon="5.959731973707676"><ele></ele><time>2015-2-4T8:43:25Z</time></trkpt>
<trkpt lat="45.370111986994743" lon="5.95915898680687"><ele></ele><time>2015-2-4T8:43:28Z</time></trkpt>
<trkpt lat="45.36939893849194" lon="5.958630926907063"><ele></ele><time>2015-2-4T8:43:31Z</time></trkpt>
<trkpt lat="45.368853947147727" lon="5.958262961357832"><ele></ele><time>2015-2-4T8:43:34Z</time></trkpt>
<trkpt lat="45.368401994928718" lon="5.957999937236309"><ele></ele><time>2015-2-4T8:43:37Z</time></trkpt>
<trkpt lat="45.367567995563149" lon="5.957501968368888"><ele></ele><time>2015-2-4T8:43:40Z</time></trkpt>
<trkpt lat="45.367152923718095" lon="5.957254953682423"><ele></ele><time>2015-2-4T8:43:43Z</time></trkpt>
<trkpt lat="45.366469966247678" lon="5.956841977313161"><ele></ele><time>2015-2-4T8:43:46Z</time></trkpt>
<trkpt lat="45.365800922736526" lon="5.956442998722196"><ele></ele><time>2015-2-4T8:43:49Z</time></trkpt>
<trkpt lat="45.365321980789304" lon="5.956159941852093"><ele></ele><time>2015-2-4T8:43:52Z</time></trkpt>
<trkpt lat="45.364470966160297" lon="5.955660967156291"><ele></ele><time>2015-2-4T8:43:55Z</time></trkpt>
<trkpt lat="45.363912982866168" lon="5.955418981611729"><ele></ele><time>2015-2-4T8:43:58Z</time></trkpt>
<trkpt lat="45.363393975421786" lon="5.955290989950299"><ele></ele><time>2015-2-4T8:44:1Z</time></trkpt>
<trkpt lat="45.362792992964387" lon="5.955257965251803"><ele></ele><time>2015-2-4T8:44:4Z</time></trkpt>
<trkpt lat="45.362109951674938" lon="5.955339940264821"><ele></ele><time>2015-2-4T8:44:7Z</time></trkpt>
<trkpt lat="45.360948974266648" lon="5.955544961616397"><ele></ele><time>2015-2-4T8:44:10Z</time></trkpt>
<trkpt lat="45.360195944085717" lon="5.955670941621065"><ele></ele><time>2015-2-4T8:44:13Z</time></trkpt>
<trkpt lat="45.359698981046677" lon="5.955694997683168"><ele></ele><time>2015-2-4T8:44:16Z</time></trkpt>
<trkpt lat="45.359016945585608" lon="5.95563699491322"><ele></ele><time>2015-2-4T8:44:19Z</time></trkpt>
<trkpt lat="45.358257964253426" lon="5.955439936369658"><ele></ele><time>2015-2-4T8:44:22Z</time></trkpt>
<trkpt lat="45.357740968465805" lon="5.955184958875179"><ele></ele><time>2015-2-4T8:44:25Z</time></trkpt>
<trkpt lat="45.356884924694896" lon="5.954555980861187"><ele></ele><time>2015-2-4T8:44:28Z</time></trkpt>
<trkpt lat="45.356228956952691" lon="5.953759951516986"><ele></ele><time>2015-2-4T8:44:31Z</time></trkpt>
<trkpt lat="45.355569971725345" lon="5.952795948833227"><ele></ele><time>2015-2-4T8:44:34Z</time></trkpt>
<trkpt lat="45.355023974552751" lon="5.951999919489026"><ele></ele><time>2015-2-4T8:44:37Z</time></trkpt>
<trkpt lat="45.354339927434921" lon="5.950995935127139"><ele></ele><time>2015-2-4T8:44:40Z</time></trkpt>
<trkpt lat="45.353823937475681" lon="5.950250951573253"><ele></ele><time>2015-2-4T8:44:43Z</time></trkpt>
<trkpt lat="45.353314988315105" lon="5.949495993554592"><ele></ele><time>2015-2-4T8:44:46Z</time></trkpt>
<trkpt lat="45.352823976427317" lon="5.948769953101873"><ele></ele><time>2015-2-4T8:44:49Z</time></trkpt>
<trkpt lat="45.35237998701632" lon="5.948139969259501"><ele></ele><time>2015-2-4T8:44:52Z</time></trkpt>
<trkpt lat="45.351938931271434" lon="5.947640994563699"><ele></ele><time>2015-2-4T8:44:55Z</time></trkpt>
<trkpt lat="45.351460995152593" lon="5.947216954082251"><ele></ele><time>2015-2-4T8:44:58Z</time></trkpt>
<trkpt lat="45.350430943071842" lon="5.946695934981108"><ele></ele><time>2015-2-4T8:45:1Z</time></trkpt>
<trkpt lat="45.349838929250836" lon="5.946443974971771"><ele></ele><time>2015-2-4T8:45:4Z</time></trkpt>
<trkpt lat="45.349232917651534" lon="5.946195954456925"><ele></ele><time>2015-2-4T8:45:7Z</time></trkpt>
<trkpt lat="45.348380981013179" lon="5.945835951715708"><ele></ele><time>2015-2-4T8:45:10Z</time></trkpt>
<trkpt lat="45.347773963585496" lon="5.945584997534752"><ele></ele><time>2015-2-4T8:45:13Z</time></trkpt>
<trkpt lat="45.347260991111398" lon="5.945368995890021"><ele></ele><time>2015-2-4T8:45:16Z</time></trkpt>
<trkpt lat="45.346796968951821" lon="5.945172943174839"><ele></ele><time>2015-2-4T8:45:19Z</time></trkpt>
<trkpt lat="45.346269998699427" lon="5.944972950965166"><ele></ele><time>2015-2-4T8:45:22Z</time></trkpt>
<trkpt lat="45.345574971288443" lon="5.944776982069016"><ele></ele><time>2015-2-4T8:45:25Z</time></trkpt>
<trkpt lat="45.34505495801568" lon="5.944640943780541"><ele></ele><time>2015-2-4T8:45:28Z</time></trkpt>
<trkpt lat="45.344585990533233" lon="5.944517981261015"><ele></ele><time>2015-2-4T8:45:31Z</time></trkpt>
<trkpt lat="45.344054996967316" lon="5.944377919659019"><ele></ele><time>2015-2-4T8:45:34Z</time></trkpt>
<trkpt lat="45.343514950945973" lon="5.944234924390912"><ele></ele><time>2015-2-4T8:45:37Z</time></trkpt>
<trkpt lat="45.342917991802096" lon="5.944073991850019"><ele></ele><time>2015-2-4T8:45:40Z</time></trkpt>
<trkpt lat="45.342362942174077" lon="5.943918926641345"><ele></ele><time>2015-2-4T8:45:43Z</time></trkpt>
<trkpt lat="45.341787943616509" lon="5.943646933883429"><ele></ele><time>2015-2-4T8:45:46Z</time></trkpt>
<trkpt lat="45.341188972815871" lon="5.943321967497468"><ele></ele><time>2015-2-4T8:45:49Z</time></trkpt>
<trkpt lat="45.340562928467989" lon="5.942986942827702"><ele></ele><time>2015-2-4T8:45:52Z</time></trkpt>
<trkpt lat="45.34009194932878" lon="5.942735988646746"><ele></ele><time>2015-2-4T8:45:55Z</time></trkpt>
<trkpt lat="45.33953296020627" lon="5.942449998110533"><ele></ele><time>2015-2-4T8:45:58Z</time></trkpt>
<trkpt lat="45.338711952790618" lon="5.942000979557633"><ele></ele><time>2015-2-4T8:46:1Z</time></trkpt>
<trkpt lat="45.337777957320213" lon="5.941503932699561"><ele></ele><time>2015-2-4T8:46:4Z</time></trkpt>
<trkpt lat="45.337119977921247" lon="5.941149964928627"><ele></ele><time>2015-2-4T8:46:7Z</time></trkpt>
<trkpt lat="45.336600970476866" lon="5.940884929150343"><ele></ele><time>2015-2-4T8:46:10Z</time></trkpt>
<trkpt lat="45.336044998839498" lon="5.940568931400776"><ele></ele><time>2015-2-4T8:46:13Z</time></trkpt>
<trkpt lat="45.3353869356215" lon="5.940215969458222"><ele></ele><time>2015-2-4T8:46:16Z</time></trkpt>
<trkpt lat="45.334676988422871" lon="5.939832916483283"><ele></ele><time>2015-2-4T8:46:19Z</time></trkpt>
<trkpt lat="45.33386193215847" lon="5.939398985356093"><ele></ele><time>2015-2-4T8:46:22Z</time></trkpt>
<trkpt lat="45.333245946094394" lon="5.939067983999848"><ele></ele><time>2015-2-4T8:46:25Z</time></trkpt>
<trkpt lat="45.332620991393924" lon="5.938738994300365"><ele></ele><time>2015-2-4T8:46:28Z</time></trkpt>
<trkpt lat="45.331920934841037" lon="5.938363987952471"><ele></ele><time>2015-2-4T8:46:31Z</time></trkpt>
<trkpt lat="45.331185925751925" lon="5.937970960512757"><ele></ele><time>2015-2-4T8:46:34Z</time></trkpt>
<trkpt lat="45.330643951892853" lon="5.937690921127796"><ele></ele><time>2015-2-4T8:46:37Z</time></trkpt>
<trkpt lat="45.330004999414086" lon="5.937422951683402"><ele></ele><time>2015-2-4T8:46:40Z</time></trkpt>
<trkpt lat="45.329209975898266" lon="5.93726696446538"><ele></ele><time>2015-2-4T8:46:43Z</time></trkpt>
<trkpt lat="45.328677976503968" lon="5.937184989452362"><ele></ele><time>2015-2-4T8:46:46Z</time></trkpt>
<trkpt lat="45.327856969088316" lon="5.937046939507127"><ele></ele><time>2015-2-4T8:46:49Z</time></trkpt>
<trkpt lat="45.326950969174504" lon="5.936727924272418"><ele></ele><time>2015-2-4T8:46:52Z</time></trkpt>
<trkpt lat="45.326183941215277" lon="5.936203971505165"><ele></ele><time>2015-2-4T8:46:55Z</time></trkpt>
<trkpt lat="45.325730983167887" lon="5.935756964609027"><ele></ele><time>2015-2-4T8:46:58Z</time></trkpt>
<trkpt lat="45.325184985995293" lon="5.935158999636769"><ele></ele><time>2015-2-4T8:47:1Z</time></trkpt>
<trkpt lat="45.324722975492477" lon="5.934649966657162"><ele></ele><time>2015-2-4T8:47:4Z</time></trkpt>
<trkpt lat="45.32414898276329" lon="5.93402492813766"><ele></ele><time>2015-2-4T8:47:7Z</time></trkpt>
<trkpt lat="45.323733994737267" lon="5.933556966483593"><ele></ele><time>2015-2-4T8:47:10Z</time></trkpt>
<trkpt lat="45.323378937318921" lon="5.933146923780441"><ele></ele><time>2015-2-4T8:47:13Z</time></trkpt>
<trkpt lat="45.322849955409765" lon="5.932553987950087"><ele></ele><time>2015-2-4T8:47:16Z</time></trkpt>
<trkpt lat="45.322187952697277" lon="5.931755946949124"><ele></ele><time>2015-2-4T8:47:19Z</time></trkpt>
<trkpt lat="45.321744969114661" lon="5.931145995855331"><ele></ele><time>2015-2-4T8:47:22Z</time></trkpt>
<trkpt lat="45.321230990812182" lon="5.930418949574232"><ele></ele><time>2015-2-4T8:47:25Z</time></trkpt>
<trkpt lat="45.320775937289" lon="5.929744960740209"><ele></ele><time>2015-2-4T8:47:28Z</time></trkpt>
<trkpt lat="45.320422975346446" lon="5.929219918325543"><ele></ele><time>2015-2-4T8:47:31Z</time></trkpt>
<trkpt lat="45.319859962910414" lon="5.928390948101878"><ele></ele><time>2015-2-4T8:47:34Z</time></trkpt>
<trkpt lat="45.319324946030974" lon="5.927612939849496"><ele></ele><time>2015-2-4T8:47:37Z</time></trkpt>
<trkpt lat="45.318757994100451" lon="5.926791932433844"><ele></ele><time>2015-2-4T8:47:40Z</time></trkpt>
<trkpt lat="45.318344933912158" lon="5.92620394192636"><ele></ele><time>2015-2-4T8:47:43Z</time></trkpt>
<trkpt lat="45.317781921476126" lon="5.925592985004187"><ele></ele><time>2015-2-4T8:47:46Z</time></trkpt>
<trkpt lat="45.317390989512205" lon="5.925275981426239"><ele></ele><time>2015-2-4T8:47:49Z</time></trkpt>
<trkpt lat="45.316506950184703" lon="5.92465597204864"><ele></ele><time>2015-2-4T8:47:52Z</time></trkpt>
<trkpt lat="45.316087938845158" lon="5.924375932663679"><ele></ele><time>2015-2-4T8:47:55Z</time></trkpt>
<trkpt lat="45.315401963889599" lon="5.923936972394586"><ele></ele><time>2015-2-4T8:47:58Z</time></trkpt>
<trkpt lat="45.314957974478602" lon="5.92366992495954"><ele></ele><time>2015-2-4T8:48:1Z</time></trkpt>
<trkpt lat="45.314339976757765" lon="5.923267928883433"><ele></ele><time>2015-2-4T8:48:4Z</time></trkpt>
<trkpt lat="45.313949966803193" lon="5.922878924757242"><ele></ele><time>2015-2-4T8:48:7Z</time></trkpt>
<trkpt lat="45.313565991818905" lon="5.922382967546582"><ele></ele><time>2015-2-4T8:48:10Z</time></trkpt>
<trkpt lat="45.313013959676027" lon="5.921278987079859"><ele></ele><time>2015-2-4T8:48:13Z</time></trkpt>
<trkpt lat="45.31274096108973" lon="5.920720919966698"><ele></ele><time>2015-2-4T8:48:16Z</time></trkpt>
<trkpt lat="45.312164956703782" lon="5.919575951993465"><ele></ele><time>2015-2-4T8:48:19Z</time></trkpt>
<trkpt lat="45.31123791821301" lon="5.918309949338436"><ele></ele><time>2015-2-4T8:48:22Z</time></trkpt>
<trkpt lat="45.310736931860447" lon="5.917679965496063"><ele></ele><time>2015-2-4T8:48:25Z</time></trkpt>
<trkpt lat="45.310356980189681" lon="5.917189959436655"><ele></ele><time>2015-2-4T8:48:28Z</time></trkpt>
<trkpt lat="45.309963952749968" lon="5.917185936123133"><ele></ele><time>2015-2-4T8:48:31Z</time></trkpt>
<trkpt lat="45.309697994962335" lon="5.917795971035957"><ele></ele><time>2015-2-4T8:48:34Z</time></trkpt>
<trkpt lat="45.309274960309267" lon="5.918705994263291"><ele></ele><time>2015-2-4T8:48:37Z</time></trkpt>
<trkpt lat="45.308832982555032" lon="5.91953999362886"><ele></ele><time>2015-2-4T8:48:40Z</time></trkpt>
<trkpt lat="45.308417994529009" lon="5.919522978365421"><ele></ele><time>2015-2-4T8:48:43Z</time></trkpt>
<trkpt lat="45.307825980708003" lon="5.918803978711367"><ele></ele><time>2015-2-4T8:48:46Z</time></trkpt>
<trkpt lat="45.307245953008533" lon="5.918301986530423"><ele></ele><time>2015-2-4T8:48:49Z</time></trkpt>
<trkpt lat="45.306570958346128" lon="5.917575946077704"><ele></ele><time>2015-2-4T8:48:52Z</time></trkpt>
<trkpt lat="45.306144990026951" lon="5.917310994118452"><ele></ele><time>2015-2-4T8:48:55Z</time></trkpt>
<trkpt lat="45.305767972022295" lon="5.916934981942177"><ele></ele><time>2015-2-4T8:48:58Z</time></trkpt>
<trkpt lat="45.305244941264391" lon="5.91623299755156"><ele></ele><time>2015-2-4T8:49:1Z</time></trkpt>
<trkpt lat="45.304386969655752" lon="5.9153519757092"><ele></ele><time>2015-2-4T8:49:4Z</time></trkpt>
<trkpt lat="45.303894951939583" lon="5.914876973256469"><ele></ele><time>2015-2-4T8:49:7Z</time></trkpt>
<trkpt lat="45.303086936473846" lon="5.914070969447494"><ele></ele><time>2015-2-4T8:49:10Z</time></trkpt>
<trkpt lat="45.302653927356005" lon="5.91365497559309"><ele></ele><time>2015-2-4T8:49:13Z</time></trkpt>
<trkpt lat="45.302130980417132" lon="5.913107972592115"><ele></ele><time>2015-2-4T8:49:16Z</time></trkpt>
<trkpt lat="45.301699982956052" lon="5.912681920453906"><ele></ele><time>2015-2-4T8:49:19Z</time></trkpt>
<trkpt lat="45.300909988582134" lon="5.91191497631371"><ele></ele><time>2015-2-4T8:49:22Z</time></trkpt>
<trkpt lat="45.30036399140954" lon="5.911373924463987"><ele></ele><time>2015-2-4T8:49:25Z</time></trkpt>
<trkpt lat="45.299625964835286" lon="5.910716950893402"><ele></ele><time>2015-2-4T8:49:28Z</time></trkpt>
<trkpt lat="45.299211982637644" lon="5.910393996164203"><ele></ele><time>2015-2-4T8:49:31Z</time></trkpt>
<trkpt lat="45.298714935779572" lon="5.910182939842343"><ele></ele><time>2015-2-4T8:49:34Z</time></trkpt>
<trkpt lat="45.298101967200637" lon="5.909948917105794"><ele></ele><time>2015-2-4T8:49:37Z</time></trkpt>
<trkpt lat="45.297376932576299" lon="5.909663932397962"><ele></ele><time>2015-2-4T8:49:40Z</time></trkpt>
<trkpt lat="45.296898996457458" lon="5.909452959895134"><ele></ele><time>2015-2-4T8:49:43Z</time></trkpt>
<trkpt lat="45.296370936557651" lon="5.909242993220687"><ele></ele><time>2015-2-4T8:49:46Z</time></trkpt>
<trkpt lat="45.295665934681892" lon="5.908964965492487"><ele></ele><time>2015-2-4T8:49:49Z</time></trkpt>
<trkpt lat="45.295017929747701" lon="5.908698923885822"><ele></ele><time>2015-2-4T8:49:52Z</time></trkpt>
<trkpt lat="45.294443937018514" lon="5.90843397192657"><ele></ele><time>2015-2-4T8:49:55Z</time></trkpt>
<trkpt lat="45.293796937912703" lon="5.908134989440441"><ele></ele><time>2015-2-4T8:49:58Z</time></trkpt>
<trkpt lat="45.293193943798542" lon="5.907867942005396"><ele></ele><time>2015-2-4T8:50:1Z</time></trkpt>
<trkpt lat="45.292571922764182" lon="5.907712960615754"><ele></ele><time>2015-2-4T8:50:4Z</time></trkpt>
<trkpt lat="45.292108990252018" lon="5.907925944775343"><ele></ele><time>2015-2-4T8:50:7Z</time></trkpt>
<trkpt lat="45.291571961715817" lon="5.908151920884848"><ele></ele><time>2015-2-4T8:50:10Z</time></trkpt>
<trkpt lat="45.290842987596989" lon="5.908455932512879"><ele></ele><time>2015-2-4T8:50:13Z</time></trkpt>
<trkpt lat="45.290310988202691" lon="5.908675957471132"><ele></ele><time>2015-2-4T8:50:16Z</time></trkpt>
<trkpt lat="45.289768930524588" lon="5.90884393081069"><ele></ele><time>2015-2-4T8:50:19Z</time></trkpt>
<trkpt lat="45.28910793364048" lon="5.908352918922901"><ele></ele><time>2015-2-4T8:50:22Z</time></trkpt>
<trkpt lat="45.288337972015142" lon="5.907782949507237"><ele></ele><time>2015-2-4T8:50:25Z</time></trkpt>
<trkpt lat="45.287396935746074" lon="5.907115917652845"><ele></ele><time>2015-2-4T8:50:28Z</time></trkpt>
<trkpt lat="45.286943977698684" lon="5.906796986237168"><ele></ele><time>2015-2-4T8:50:31Z</time></trkpt>
<trkpt lat="45.286376941949129" lon="5.906378980726004"><ele></ele><time>2015-2-4T8:50:34Z</time></trkpt>
<trkpt lat="45.285869920626283" lon="5.906017972156405"><ele></ele><time>2015-2-4T8:50:37Z</time></trkpt>
<trkpt lat="45.285336999222636" lon="5.905463928356767"><ele></ele><time>2015-2-4T8:50:40Z</time></trkpt>
<trkpt lat="45.284886974841356" lon="5.905576916411519"><ele></ele><time>2015-2-4T8:50:43Z</time></trkpt>
<trkpt lat="45.284279957413673" lon="5.906420974060893"><ele></ele><time>2015-2-4T8:50:46Z</time></trkpt>
<trkpt lat="45.283956918865442" lon="5.906991949304938"><ele></ele><time>2015-2-4T8:50:49Z</time></trkpt>
<trkpt lat="45.283552994951606" lon="5.907718995586038"><ele></ele><time>2015-2-4T8:50:52Z</time></trkpt>
<trkpt lat="45.283206989988685" lon="5.908318972215056"><ele></ele><time>2015-2-4T8:50:55Z</time></trkpt>
<trkpt lat="45.282818991690874" lon="5.908995978534222"><ele></ele><time>2015-2-4T8:50:58Z</time></trkpt>
<trkpt lat="45.282382965087891" lon="5.909774992614985"><ele></ele><time>2015-2-4T8:51:1Z</time></trkpt>
<trkpt lat="45.282097980380058" lon="5.910404976457357"><ele></ele><time>2015-2-4T8:51:4Z</time></trkpt>
<trkpt lat="45.281821964308619" lon="5.910987937822938"><ele></ele><time>2015-2-4T8:51:7Z</time></trkpt>
<trkpt lat="45.281540919095278" lon="5.91157391667366"><ele></ele><time>2015-2-4T8:51:10Z</time></trkpt>
<trkpt lat="45.281248977407813" lon="5.912112956866622"><ele></ele><time>2015-2-4T8:51:13Z</time></trkpt>
<trkpt lat="45.281272949650884" lon="5.911813974380493"><ele></ele><time>2015-2-4T8:51:16Z</time></trkpt>
<trkpt lat="45.281519964337349" lon="5.911267977207899"><ele></ele><time>2015-2-4T8:51:19Z</time></trkpt>
<trkpt lat="45.281754992902279" lon="5.91051897034049"><ele></ele><time>2015-2-4T8:51:22Z</time></trkpt>
<trkpt lat="45.280923927202821" lon="5.909678936004639"><ele></ele><time>2015-2-4T8:51:25Z</time></trkpt>
<trkpt lat="45.28042696416378" lon="5.909238969907165"><ele></ele><time>2015-2-4T8:51:28Z</time></trkpt>
<trkpt lat="45.28003896586597" lon="5.908901933580637"><ele></ele><time>2015-2-4T8:51:31Z</time></trkpt>
<trkpt lat="45.279598999768496" lon="5.908512929454446"><ele></ele><time>2015-2-4T8:51:34Z</time></trkpt>
<trkpt lat="45.27900799177587" lon="5.907970955595374"><ele></ele><time>2015-2-4T8:51:37Z</time></trkpt>
<trkpt lat="45.278282957151532" lon="5.907299984246492"><ele></ele><time>2015-2-4T8:51:40Z</time></trkpt>
<trkpt lat="45.277707958593965" lon="5.906774941831827"><ele></ele><time>2015-2-4T8:51:43Z</time></trkpt>
<trkpt lat="45.27731099165976" lon="5.906423991546035"><ele></ele><time>2015-2-4T8:51:46Z</time></trkpt>
<trkpt lat="45.276858955621719" lon="5.906007997691631"><ele></ele><time>2015-2-4T8:51:49Z</time></trkpt>
<trkpt lat="45.276293931528926" lon="5.90546895749867"><ele></ele><time>2015-2-4T8:51:52Z</time></trkpt>
<trkpt lat="45.275846924632788" lon="5.905036954209209"><ele></ele><time>2015-2-4T8:51:55Z</time></trkpt>
<trkpt lat="45.275401929393411" lon="5.904612997546792"><ele></ele><time>2015-2-4T8:51:58Z</time></trkpt>
<trkpt lat="45.274915946647525" lon="5.904160961508751"><ele></ele><time>2015-2-4T8:52:1Z</time></trkpt>
<trkpt lat="45.274532977491617" lon="5.903825936838985"><ele></ele><time>2015-2-4T8:52:4Z</time></trkpt>
<trkpt lat="45.274002989754081" lon="5.903311958536506"><ele></ele><time>2015-2-4T8:52:7Z</time></trkpt>
<trkpt lat="45.273251971229911" lon="5.903000989928842"><ele></ele><time>2015-2-4T8:52:10Z</time></trkpt>
<trkpt lat="45.272573959082365" lon="5.902724973857403"><ele></ele><time>2015-2-4T8:52:13Z</time></trkpt>
<trkpt lat="45.272079929709435" lon="5.902272937819362"><ele></ele><time>2015-2-4T8:52:16Z</time></trkpt>
<trkpt lat="45.271333940327168" lon="5.901568941771984"><ele></ele><time>2015-2-4T8:52:19Z</time></trkpt>
<trkpt lat="45.271022971719503" lon="5.901087988168001"><ele></ele><time>2015-2-4T8:52:22Z</time></trkpt>
<trkpt lat="45.270636985078454" lon="5.90022792108357"><ele></ele><time>2015-2-4T8:52:25Z</time></trkpt>
<trkpt lat="45.269837938249111" lon="5.899292919784784"><ele></ele><time>2015-2-4T8:52:28Z</time></trkpt>
<trkpt lat="45.269416999071836" lon="5.898825963959098"><ele></ele><time>2015-2-4T8:52:31Z</time></trkpt>
<trkpt lat="45.268982984125614" lon="5.898375939577818"><ele></ele><time>2015-2-4T8:52:34Z</time></trkpt>
<trkpt lat="45.268227942287922" lon="5.898081986233592"><ele></ele><time>2015-2-4T8:52:37Z</time></trkpt>
<trkpt lat="45.267394948750734" lon="5.898066982626915"><ele></ele><time>2015-2-4T8:52:40Z</time></trkpt>
<trkpt lat="45.266925981268287" lon="5.897915940731764"><ele></ele><time>2015-2-4T8:52:43Z</time></trkpt>
<trkpt lat="45.266446955502033" lon="5.897914934903383"><ele></ele><time>2015-2-4T8:52:46Z</time></trkpt>
<trkpt lat="45.266091981902719" lon="5.898295976221561"><ele></ele><time>2015-2-4T8:52:49Z</time></trkpt>
<trkpt lat="45.265637934207916" lon="5.898524969816208"><ele></ele><time>2015-2-4T8:52:52Z</time></trkpt>
<trkpt lat="45.265012979507446" lon="5.899433987215161"><ele></ele><time>2015-2-4T8:52:55Z</time></trkpt>
<trkpt lat="45.264530936256051" lon="5.89997093193233"><ele></ele><time>2015-2-4T8:52:58Z</time></trkpt>
<trkpt lat="45.26416196487844" lon="5.900236973538995"><ele></ele><time>2015-2-4T8:53:1Z</time></trkpt>
<trkpt lat="45.263598952442408" lon="5.90110894292593"><ele></ele><time>2015-2-4T8:53:4Z</time></trkpt>
<trkpt lat="45.263159992173314" lon="5.901618981733918"><ele></ele><time>2015-2-4T8:53:7Z</time></trkpt>
<trkpt lat="45.262700999155641" lon="5.9021379891783"><ele></ele><time>2015-2-4T8:53:10Z</time></trkpt>
<trkpt lat="45.262345941737294" lon="5.902557922527194"><ele></ele><time>2015-2-4T8:53:13Z</time></trkpt>
<trkpt lat="45.261831963434815" lon="5.903146918863058"><ele></ele><time>2015-2-4T8:53:16Z</time></trkpt>
<trkpt lat="45.261406917124987" lon="5.903637930750847"><ele></ele><time>2015-2-4T8:53:19Z</time></trkpt>
<trkpt lat="45.260871984064579" lon="5.904248971492052"><ele></ele><time>2015-2-4T8:53:22Z</time></trkpt>
<trkpt lat="45.260383989661932" lon="5.904808966442943"><ele></ele><time>2015-2-4T8:53:25Z</time></trkpt>
<trkpt lat="45.259951986372471" lon="5.905294949188829"><ele></ele><time>2015-2-4T8:53:28Z</time></trkpt>
<trkpt lat="45.259266933426261" lon="5.906079998239875"><ele></ele><time>2015-2-4T8:53:31Z</time></trkpt>
<trkpt lat="45.258740969002247" lon="5.906762955710292"><ele></ele><time>2015-2-4T8:53:34Z</time></trkpt>
<trkpt lat="45.258573917672038" lon="5.907393945381045"><ele></ele><time>2015-2-4T8:53:37Z</time></trkpt>
<trkpt lat="45.258438969030976" lon="5.908180922269821"><ele></ele><time>2015-2-4T8:53:40Z</time></trkpt>
<trkpt lat="45.258014928549528" lon="5.907979924231768"><ele></ele><time>2015-2-4T8:53:43Z</time></trkpt>
<trkpt lat="45.257884925231338" lon="5.907731987535954"><ele></ele><time>2015-2-4T8:53:46Z</time></trkpt>
<trkpt lat="45.257496926933527" lon="5.907428981736302"><ele></ele><time>2015-2-4T8:53:49Z</time></trkpt>
<trkpt lat="45.256858980283141" lon="5.906698917970061"><ele></ele><time>2015-2-4T8:53:52Z</time></trkpt>
<trkpt lat="45.256368974223733" lon="5.906151998788118"><ele></ele><time>2015-2-4T8:53:55Z</time></trkpt>
<trkpt lat="45.255830939859152" lon="5.905553949996829"><ele></ele><time>2015-2-4T8:53:58Z</time></trkpt>
<trkpt lat="45.255175977945328" lon="5.904839979484677"><ele></ele><time>2015-2-4T8:54:1Z</time></trkpt>
<trkpt lat="45.254574995487928" lon="5.904197925701737"><ele></ele><time>2015-2-4T8:54:4Z</time></trkpt>
<trkpt lat="45.254166964441538" lon="5.903730969876051"><ele></ele><time>2015-2-4T8:54:7Z</time></trkpt>
<trkpt lat="45.25367796421051" lon="5.903189918026328"><ele></ele><time>2015-2-4T8:54:10Z</time></trkpt>
<trkpt lat="45.253279991447926" lon="5.902776941657066"><ele></ele><time>2015-2-4T8:54:13Z</time></trkpt>
<trkpt lat="45.25281697511673" lon="5.902280984446406"><ele></ele><time>2015-2-4T8:54:16Z</time></trkpt>
<trkpt lat="45.252136951312423" lon="5.901474980637431"><ele></ele><time>2015-2-4T8:54:19Z</time></trkpt>
<trkpt lat="45.251493975520134" lon="5.900794956833124"><ele></ele><time>2015-2-4T8:54:22Z</time></trkpt>
<trkpt lat="45.2510139439255" lon="5.900312997400761"><ele></ele><time>2015-2-4T8:54:25Z</time></trkpt>
<trkpt lat="45.250645978376269" lon="5.899914940819144"><ele></ele><time>2015-2-4T8:54:28Z</time></trkpt>
<trkpt lat="45.250100987032056" lon="5.899185966700316"><ele></ele><time>2015-2-4T8:54:31Z</time></trkpt>
<trkpt lat="45.250000990927219" lon="5.898558916524053"><ele></ele><time>2015-2-4T8:54:34Z</time></trkpt>
<trkpt lat="45.249460944905877" lon="5.898561934009194"><ele></ele><time>2015-2-4T8:54:37Z</time></trkpt>
<trkpt lat="45.248974962159991" lon="5.898124985396862"><ele></ele><time>2015-2-4T8:54:40Z</time></trkpt>
<trkpt lat="45.248402981087565" lon="5.897507993504405"><ele></ele><time>2015-2-4T8:54:43Z</time></trkpt>
<trkpt lat="45.247799986973405" lon="5.896847918629646"><ele></ele><time>2015-2-4T8:54:46Z</time></trkpt>
<trkpt lat="45.247257929295301" lon="5.896286917850375"><ele></ele><time>2015-2-4T8:54:49Z</time></trkpt>
<trkpt lat="45.246585952118039" lon="5.895806970074773"><ele></ele><time>2015-2-4T8:54:52Z</time></trkpt>
<trkpt lat="45.245843986049294" lon="5.895293997600675"><ele></ele><time>2015-2-4T8:54:55Z</time></trkpt>
<trkpt lat="45.245410976931453" lon="5.894987974315882"><ele></ele><time>2015-2-4T8:54:58Z</time></trkpt>
<trkpt lat="45.244670938700438" lon="5.894352961331606"><ele></ele><time>2015-2-4T8:55:1Z</time></trkpt>
<trkpt lat="45.244178920984268" lon="5.894003938883543"><ele></ele><time>2015-2-4T8:55:4Z</time></trkpt>
<trkpt lat="45.243628984317183" lon="5.893515944480896"><ele></ele><time>2015-2-4T8:55:7Z</time></trkpt>
<trkpt lat="45.243240986019373" lon="5.893151918426156"><ele></ele><time>2015-2-4T8:55:10Z</time></trkpt>
<trkpt lat="45.242791967466474" lon="5.892650932073593"><ele></ele><time>2015-2-4T8:55:13Z</time></trkpt>
<trkpt lat="45.242309924215078" lon="5.891974931582809"><ele></ele><time>2015-2-4T8:55:16Z</time></trkpt>
<trkpt lat="45.241887979209423" lon="5.891619957983494"><ele></ele><time>2015-2-4T8:55:19Z</time></trkpt>
<trkpt lat="45.24136696010828" lon="5.891229948028922"><ele></ele><time>2015-2-4T8:55:22Z</time></trkpt>
<trkpt lat="45.240825992077589" lon="5.890880925580859"><ele></ele><time>2015-2-4T8:55:25Z</time></trkpt>
<trkpt lat="45.240366999059916" lon="5.890668947249651"><ele></ele><time>2015-2-4T8:55:28Z</time></trkpt>
<trkpt lat="45.239619920030236" lon="5.889927987009287"><ele></ele><time>2015-2-4T8:55:31Z</time></trkpt>
<trkpt lat="45.239134943112731" lon="5.889254920184612"><ele></ele><time>2015-2-4T8:55:34Z</time></trkpt>
<trkpt lat="45.238693971186876" lon="5.888671958819032"><ele></ele><time>2015-2-4T8:55:37Z</time></trkpt>
<trkpt lat="45.238347966223955" lon="5.888217994943261"><ele></ele><time>2015-2-4T8:55:40Z</time></trkpt>
<trkpt lat="45.238025933504105" lon="5.887733940035105"><ele></ele><time>2015-2-4T8:55:43Z</time></trkpt>
<trkpt lat="45.237391926348209" lon="5.886892983689904"><ele></ele><time>2015-2-4T8:55:46Z</time></trkpt>
<trkpt lat="45.236988924443722" lon="5.886355955153704"><ele></ele><time>2015-2-4T8:55:49Z</time></trkpt>
<trkpt lat="45.236496990546584" lon="5.885690934956074"><ele></ele><time>2015-2-4T8:55:52Z</time></trkpt>
<trkpt lat="45.235939929261804" lon="5.884919967502356"><ele></ele><time>2015-2-4T8:55:55Z</time></trkpt>
<trkpt lat="45.235353950411081" lon="5.884129973128438"><ele></ele><time>2015-2-4T8:55:58Z</time></trkpt>
<trkpt lat="45.234985984861851" lon="5.88359696790576"><ele></ele><time>2015-2-4T8:56:1Z</time></trkpt>
<trkpt lat="45.234313923865557" lon="5.882941922172904"><ele></ele><time>2015-2-4T8:56:4Z</time></trkpt>
<trkpt lat="45.233842944726348" lon="5.882287966087461"><ele></ele><time>2015-2-4T8:56:7Z</time></trkpt>
<trkpt lat="45.233297953382134" lon="5.881229918450117"><ele></ele><time>2015-2-4T8:56:10Z</time></trkpt>
<trkpt lat="45.232397988438606" lon="5.880281925201416"><ele></ele><time>2015-2-4T8:56:13Z</time></trkpt>
<trkpt lat="45.231951987370849" lon="5.879853945225477"><ele></ele><time>2015-2-4T8:56:16Z</time></trkpt>
<trkpt lat="45.231395931914449" lon="5.879247933626175"><ele></ele><time>2015-2-4T8:56:19Z</time></trkpt>
<trkpt lat="45.230917995795608" lon="5.87874292396009"><ele></ele><time>2015-2-4T8:56:22Z</time></trkpt>
<trkpt lat="45.230418937280774" lon="5.878229951485992"><ele></ele><time>2015-2-4T8:56:25Z</time></trkpt>
<trkpt lat="45.229948963969946" lon="5.87773198261857"><ele></ele><time>2015-2-4T8:56:28Z</time></trkpt>
<trkpt lat="45.229489970952272" lon="5.877201994881034"><ele></ele><time>2015-2-4T8:56:31Z</time></trkpt>
<trkpt lat="45.22894598543644" lon="5.876576956361532"><ele></ele><time>2015-2-4T8:56:34Z</time></trkpt>
<trkpt lat="45.228250958025455" lon="5.875828955322504"><ele></ele><time>2015-2-4T8:56:37Z</time></trkpt>
<trkpt lat="45.227670930325985" lon="5.87523995898664"><ele></ele><time>2015-2-4T8:56:40Z</time></trkpt>
<trkpt lat="45.227183941751719" lon="5.874721957370639"><ele></ele><time>2015-2-4T8:56:43Z</time></trkpt>
<trkpt lat="45.226467959582806" lon="5.873956941068173"><ele></ele><time>2015-2-4T8:56:46Z</time></trkpt>
<trkpt lat="45.225936966016889" lon="5.87338998913765"><ele></ele><time>2015-2-4T8:56:49Z</time></trkpt>
<trkpt lat="45.225372947752476" lon="5.87279194034636"><ele></ele><time>2015-2-4T8:56:52Z</time></trkpt>
<trkpt lat="45.224767941981554" lon="5.872131949290633"><ele></ele><time>2015-2-4T8:56:55Z</time></trkpt>
<trkpt lat="45.224146926775575" lon="5.871472964063287"><ele></ele><time>2015-2-4T8:56:58Z</time></trkpt>
<trkpt lat="45.223432956263423" lon="5.870703924447298"><ele></ele><time>2015-2-4T8:57:1Z</time></trkpt>
<trkpt lat="45.222933981567621" lon="5.870169997215271"><ele></ele><time>2015-2-4T8:57:4Z</time></trkpt>
<trkpt lat="45.222374992445111" lon="5.869576977565885"><ele></ele><time>2015-2-4T8:57:7Z</time></trkpt>
<trkpt lat="45.221713995561004" lon="5.868879938498139"><ele></ele><time>2015-2-4T8:57:10Z</time></trkpt>
<trkpt lat="45.221117958426476" lon="5.868204943835735"><ele></ele><time>2015-2-4T8:57:13Z</time></trkpt>
<trkpt lat="45.220281947404146" lon="5.867334986105561"><ele></ele><time>2015-2-4T8:57:16Z</time></trkpt>
<trkpt lat="45.219632936641574" lon="5.866636941209436"><ele></ele><time>2015-2-4T8:57:19Z</time></trkpt>
<trkpt lat="45.219183918088675" lon="5.866163950413466"><ele></ele><time>2015-2-4T8:57:22Z</time></trkpt>
<trkpt lat="45.218792986124754" lon="5.865735970437527"><ele></ele><time>2015-2-4T8:57:25Z</time></trkpt>
<trkpt lat="45.218330975621939" lon="5.865249987691641"><ele></ele><time>2015-2-4T8:57:28Z</time></trkpt>
<trkpt lat="45.217938954010606" lon="5.864838939160109"><ele></ele><time>2015-2-4T8:57:31Z</time></trkpt>
<trkpt lat="45.217591943219304" lon="5.864432919770479"><ele></ele><time>2015-2-4T8:57:34Z</time></trkpt>
<trkpt lat="45.217213919386268" lon="5.864021955057979"><ele></ele><time>2015-2-4T8:57:37Z</time></trkpt>
<trkpt lat="45.216539930552244" lon="5.863306978717446"><ele></ele><time>2015-2-4T8:57:40Z</time></trkpt>
<trkpt lat="45.216050930321217" lon="5.862800963222981"><ele></ele><time>2015-2-4T8:57:43Z</time></trkpt>
<trkpt lat="45.215706937015057" lon="5.862423945218325"><ele></ele><time>2015-2-4T8:57:46Z</time></trkpt>
<trkpt lat="45.215962920337915" lon="5.862563923001289"><ele></ele><time>2015-2-4T8:57:49Z</time></trkpt>
<trkpt lat="45.215510968118906" lon="5.862063942477107"><ele></ele><time>2015-2-4T8:57:52Z</time></trkpt>
<trkpt lat="45.215180972591043" lon="5.861550970003009"><ele></ele><time>2015-2-4T8:57:55Z</time></trkpt>
<trkpt lat="45.214480999857187" lon="5.860959962010384"><ele></ele><time>2015-2-4T8:57:58Z</time></trkpt>
<trkpt lat="45.213954951614141" lon="5.860509937629104"><ele></ele><time>2015-2-4T8:58:1Z</time></trkpt>
<trkpt lat="45.213634930551052" lon="5.859985984861851"><ele></ele><time>2015-2-4T8:58:4Z</time></trkpt>
<trkpt lat="45.213301917538047" lon="5.859391959384084"><ele></ele><time>2015-2-4T8:58:7Z</time></trkpt>
<trkpt lat="45.212851976975799" lon="5.85850297473371"><ele></ele><time>2015-2-4T8:58:10Z</time></trkpt>
<trkpt lat="45.21251292899251" lon="5.857961922883987"><ele></ele><time>2015-2-4T8:58:13Z</time></trkpt>
<trkpt lat="45.212160972878337" lon="5.857371920719743"><ele></ele><time>2015-2-4T8:58:16Z</time></trkpt>
<trkpt lat="45.21184497512877" lon="5.856839921325445"><ele></ele><time>2015-2-4T8:58:19Z</time></trkpt>
<trkpt lat="45.211427975445986" lon="5.856087980791926"><ele></ele><time>2015-2-4T8:58:22Z</time></trkpt>
<trkpt lat="45.211045928299427" lon="5.855421954765916"><ele></ele><time>2015-2-4T8:58:25Z</time></trkpt>
<trkpt lat="45.210676956921816" lon="5.854787947610021"><ele></ele><time>2015-2-4T8:58:28Z</time></trkpt>
<trkpt lat="45.210234979167581" lon="5.854017985984683"><ele></ele><time>2015-2-4T8:58:31Z</time></trkpt>
<trkpt lat="45.209832983091474" lon="5.853325976058841"><ele></ele><time>2015-2-4T8:58:34Z</time></trkpt>
<trkpt lat="45.209424952045083" lon="5.852630948647857"><ele></ele><time>2015-2-4T8:58:37Z</time></trkpt>
<trkpt lat="45.209018932655454" lon="5.851929970085621"><ele></ele><time>2015-2-4T8:58:40Z</time></trkpt>
<trkpt lat="45.208611991256475" lon="5.851245922967792"><ele></ele><time>2015-2-4T8:58:43Z</time></trkpt>
<trkpt lat="45.208308985456824" lon="5.850698919966817"><ele></ele><time>2015-2-4T8:58:46Z</time></trkpt>
<trkpt lat="45.207964992150664" lon="5.850111935287714"><ele></ele><time>2015-2-4T8:58:49Z</time></trkpt>
<trkpt lat="45.207607923075557" lon="5.849361922591925"><ele></ele><time>2015-2-4T8:58:52Z</time></trkpt>
<trkpt lat="45.2074209228158" lon="5.848708972334862"><ele></ele><time>2015-2-4T8:58:55Z</time></trkpt>
<trkpt lat="45.207253955304623" lon="5.84797396324575"><ele></ele><time>2015-2-4T8:58:58Z</time></trkpt>
<trkpt lat="45.206702928990126" lon="5.847905986011028"><ele></ele><time>2015-2-4T8:59:1Z</time></trkpt>
<trkpt lat="45.206184927374125" lon="5.847080955281854"><ele></ele><time>2015-2-4T8:59:4Z</time></trkpt>
<trkpt lat="45.20561495795846" lon="5.846056938171387"><ele></ele><time>2015-2-4T8:59:7Z</time></trkpt>
<trkpt lat="45.205217991024256" lon="5.84537398070097"><ele></ele><time>2015-2-4T8:59:10Z</time></trkpt>
<trkpt lat="45.204817922785878" lon="5.844714995473623"><ele></ele><time>2015-2-4T8:59:13Z</time></trkpt>
<trkpt lat="45.204344931989908" lon="5.843878984451294"><ele></ele><time>2015-2-4T8:59:16Z</time></trkpt>
<trkpt lat="45.203900942578912" lon="5.843108939006925"><ele></ele><time>2015-2-4T8:59:19Z</time></trkpt>
<trkpt lat="45.203503975644708" lon="5.842454982921481"><ele></ele><time>2015-2-4T8:59:22Z</time></trkpt>
<trkpt lat="45.203190995380282" lon="5.841941926628351"><ele></ele><time>2015-2-4T8:59:25Z</time></trkpt>
<trkpt lat="45.202767960727215" lon="5.841277996078134"><ele></ele><time>2015-2-4T8:59:28Z</time></trkpt>
<trkpt lat="45.202441988512874" lon="5.840824954211712"><ele></ele><time>2015-2-4T8:59:31Z</time></trkpt>
<trkpt lat="45.201901942491531" lon="5.84043494425714"><ele></ele><time>2015-2-4T8:59:34Z</time></trkpt>
<trkpt lat="45.201732963323593" lon="5.840230928733945"><ele></ele><time>2015-2-4T8:59:37Z</time></trkpt>
<trkpt lat="45.201654927805066" lon="5.840115929022431"><ele></ele><time>2015-2-4T8:59:40Z</time></trkpt>
<trkpt lat="45.201250920072198" lon="5.839856928214431"><ele></ele><time>2015-2-4T8:59:43Z</time></trkpt>
<trkpt lat="45.201089987531304" lon="5.839073974639177"><ele></ele><time>2015-2-4T8:59:46Z</time></trkpt>
<trkpt lat="45.200870968401432" lon="5.838486989960074"><ele></ele><time>2015-2-4T8:59:49Z</time></trkpt>
<trkpt lat="45.20024199038744" lon="5.838016932830215"><ele></ele><time>2015-2-4T8:59:52Z</time></trkpt>
<trkpt lat="45.199569929391146" lon="5.837401952594519"><ele></ele><time>2015-2-4T8:59:55Z</time></trkpt>
<trkpt lat="45.199224930256605" lon="5.836954945698381"><ele></ele><time>2015-2-4T8:59:58Z</time></trkpt>
<trkpt lat="45.198921924456954" lon="5.836368966847658"><ele></ele><time>2015-2-4T9:0:1Z</time></trkpt>
<trkpt lat="45.198656972497702" lon="5.835798997431994"><ele></ele><time>2015-2-4T9:0:4Z</time></trkpt>
<trkpt lat="45.19845899194479" lon="5.835109921172261"><ele></ele><time>2015-2-4T9:0:7Z</time></trkpt>
<trkpt lat="45.198265956714749" lon="5.834424952045083"><ele></ele><time>2015-2-4T9:0:10Z</time></trkpt>
<trkpt lat="45.198018942028284" lon="5.833637975156307"><ele></ele><time>2015-2-4T9:0:13Z</time></trkpt>
<trkpt lat="45.197721971198916" lon="5.832730969414115"><ele></ele><time>2015-2-4T9:0:16Z</time></trkpt>
<trkpt lat="45.197397926822305" lon="5.831770990043879"><ele></ele><time>2015-2-4T9:0:19Z</time></trkpt>
<trkpt lat="45.197140937671065" lon="5.830988958477974"><ele></ele><time>2015-2-4T9:0:22Z</time></trkpt>
<trkpt lat="45.196735924109817" lon="5.829856982454658"><ele></ele><time>2015-2-4T9:0:25Z</time></trkpt>
<trkpt lat="45.196316996589303" lon="5.828698938712478"><ele></ele><time>2015-2-4T9:0:28Z</time></trkpt>
<trkpt lat="45.195933943614364" lon="5.827640974894166"><ele></ele><time>2015-2-4T9:0:31Z</time></trkpt>
<trkpt lat="45.195527924224734" lon="5.826548980548978"><ele></ele><time>2015-2-4T9:0:34Z</time></trkpt>
<trkpt lat="45.1951739564538" lon="5.825576931238174"><ele></ele><time>2015-2-4T9:0:37Z</time></trkpt>
<trkpt lat="45.194897940382361" lon="5.824755923822522"><ele></ele><time>2015-2-4T9:0:40Z</time></trkpt>
<trkpt lat="45.194653943181038" lon="5.824123928323388"><ele></ele><time>2015-2-4T9:0:43Z</time></trkpt>
<trkpt lat="45.194283965975046" lon="5.823052972555161"><ele></ele><time>2015-2-4T9:0:46Z</time></trkpt>
<trkpt lat="45.193944917991757" lon="5.822058962658048"><ele></ele><time>2015-2-4T9:0:49Z</time></trkpt>
<trkpt lat="45.193551974371076" lon="5.82101097330451"><ele></ele><time>2015-2-4T9:0:52Z</time></trkpt>
<trkpt lat="45.193253997713327" lon="5.820131963118911"><ele></ele><time>2015-2-4T9:0:55Z</time></trkpt>
<trkpt lat="45.192868933081627" lon="5.819067964330316"><ele></ele><time>2015-2-4T9:0:58Z</time></trkpt>
<trkpt lat="45.192548995837569" lon="5.818168921396136"><ele></ele><time>2015-2-4T9:1:1Z</time></trkpt>
<trkpt lat="45.192155968397856" lon="5.817126967012882"><ele></ele><time>2015-2-4T9:1:4Z</time></trkpt>
<trkpt lat="45.191683983430266" lon="5.816041929647327"><ele></ele><time>2015-2-4T9:1:7Z</time></trkpt>
<trkpt lat="45.191318951547146" lon="5.815223939716816"><ele></ele><time>2015-2-4T9:1:10Z</time></trkpt>
<trkpt lat="45.190804973244667" lon="5.814063968136907"><ele></ele><time>2015-2-4T9:1:13Z</time></trkpt>
<trkpt lat="45.190377999097109" lon="5.813099965453148"><ele></ele><time>2015-2-4T9:1:16Z</time></trkpt>
<trkpt lat="45.189971979707479" lon="5.812191953882575"><ele></ele><time>2015-2-4T9:1:19Z</time></trkpt>
<trkpt lat="45.189624968916178" lon="5.81140992231667"><ele></ele><time>2015-2-4T9:1:22Z</time></trkpt>
<trkpt lat="45.189308971166611" lon="5.810703998431563"><ele></ele><time>2015-2-4T9:1:25Z</time></trkpt>
<trkpt lat="45.188937988132238" lon="5.809873938560486"><ele></ele><time>2015-2-4T9:1:28Z</time></trkpt>
<trkpt lat="45.18857597373426" lon="5.80906592309475"><ele></ele><time>2015-2-4T9:1:31Z</time></trkpt>
<trkpt lat="45.18814698792994" lon="5.808116924017668"><ele></ele><time>2015-2-4T9:1:34Z</time></trkpt>
<trkpt lat="45.187838952988386" lon="5.807635970413685"><ele></ele><time>2015-2-4T9:1:37Z</time></trkpt>
<trkpt lat="45.18741499632597" lon="5.806954940780997"><ele></ele><time>2015-2-4T9:1:40Z</time></trkpt>
<trkpt lat="45.187130933627486" lon="5.80644397996366"><ele></ele><time>2015-2-4T9:1:43Z</time></trkpt>
<trkpt lat="45.186877967789769" lon="5.805889936164022"><ele></ele><time>2015-2-4T9:1:46Z</time></trkpt>
<trkpt lat="45.186607986688614" lon="5.805254923179746"><ele></ele><time>2015-2-4T9:1:49Z</time></trkpt>
<trkpt lat="45.186368934810162" lon="5.804599961265922"><ele></ele><time>2015-2-4T9:1:52Z</time></trkpt>
<trkpt lat="45.186145976185799" lon="5.80395195633173"><ele></ele><time>2015-2-4T9:1:55Z</time></trkpt>
<trkpt lat="45.185947995632887" lon="5.803296994417906"><ele></ele><time>2015-2-4T9:1:58Z</time></trkpt>
<trkpt lat="45.185696957632899" lon="5.8025789167732"><ele></ele><time>2015-2-4T9:2:1Z</time></trkpt>
<trkpt lat="45.185365956276655" lon="5.80182395875454"><ele></ele><time>2015-2-4T9:2:4Z</time></trkpt>
<trkpt lat="45.185058927163482" lon="5.801175953820348"><ele></ele><time>2015-2-4T9:2:7Z</time></trkpt>
<trkpt lat="45.184795986860991" lon="5.800601961091161"><ele></ele><time>2015-2-4T9:2:10Z</time></trkpt>
<trkpt lat="45.184549978002906" lon="5.800012964755297"><ele></ele><time>2015-2-4T9:2:13Z</time></trkpt>
<trkpt lat="45.184180922806263" lon="5.799208972603083"><ele></ele><time>2015-2-4T9:2:16Z</time></trkpt>
<trkpt lat="45.183938937261701" lon="5.798637997359037"><ele></ele><time>2015-2-4T9:2:19Z</time></trkpt>
<trkpt lat="45.183654958382249" lon="5.7980199996382"><ele></ele><time>2015-2-4T9:2:22Z</time></trkpt>
<trkpt lat="45.183046935126185" lon="5.797046944499016"><ele></ele><time>2015-2-4T9:2:25Z</time></trkpt>
<trkpt lat="45.1825419254601" lon="5.796059975400567"><ele></ele><time>2015-2-4T9:2:28Z</time></trkpt>
<trkpt lat="45.182362971827388" lon="5.79471392557025"><ele></ele><time>2015-2-4T9:2:31Z</time></trkpt>
<trkpt lat="45.182287953794003" lon="5.793956955894828"><ele></ele><time>2015-2-4T9:2:34Z</time></trkpt>
<trkpt lat="45.18219793215394" lon="5.793176935985684"><ele></ele><time>2015-2-4T9:2:37Z</time></trkpt>
<trkpt lat="45.182003974914551" lon="5.792277976870537"><ele></ele><time>2015-2-4T9:2:40Z</time></trkpt>
<trkpt lat="45.181771963834763" lon="5.791384968906641"><ele></ele><time>2015-2-4T9:2:43Z</time></trkpt>
<trkpt lat="45.181674985215068" lon="5.790476957336068"><ele></ele><time>2015-2-4T9:2:46Z</time></trkpt>
<trkpt lat="45.181635925546288" lon="5.789838926866651"><ele></ele><time>2015-2-4T9:2:49Z</time></trkpt>
<trkpt lat="45.181538946926594" lon="5.788646936416626"><ele></ele><time>2015-2-4T9:2:52Z</time></trkpt>
<trkpt lat="45.181495947763324" lon="5.78788292594254"><ele></ele><time>2015-2-4T9:2:55Z</time></trkpt>
<trkpt lat="45.181436939164996" lon="5.787010956555605"><ele></ele><time>2015-2-4T9:2:58Z</time></trkpt>
<trkpt lat="45.181144997477531" lon="5.786639973521233"><ele></ele><time>2015-2-4T9:3:1Z</time></trkpt>
<trkpt lat="45.180717939510942" lon="5.78554093837738"><ele></ele><time>2015-2-4T9:3:4Z</time></trkpt>
<trkpt lat="45.18045793287456" lon="5.784820932894945"><ele></ele><time>2015-2-4T9:3:7Z</time></trkpt>
<trkpt lat="45.180162973701954" lon="5.784048959612846"><ele></ele><time>2015-2-4T9:3:10Z</time></trkpt>
<trkpt lat="45.17978997901082" lon="5.783101972192526"><ele></ele><time>2015-2-4T9:3:13Z</time></trkpt>
<trkpt lat="45.17946895211935" lon="5.782222962006927"><ele></ele><time>2015-2-4T9:3:16Z</time></trkpt>
<trkpt lat="45.179140968248248" lon="5.781334983184934"><ele></ele><time>2015-2-4T9:3:19Z</time></trkpt>
<trkpt lat="45.178918931633234" lon="5.780758978798986"><ele></ele><time>2015-2-4T9:3:22Z</time></trkpt>
<trkpt lat="45.178479971364141" lon="5.779590960592032"><ele></ele><time>2015-2-4T9:3:25Z</time></trkpt>
<trkpt lat="45.178169924765825" lon="5.778772970661521"><ele></ele><time>2015-2-4T9:3:28Z</time></trkpt>
<trkpt lat="45.177865996956825" lon="5.778004936873913"><ele></ele><time>2015-2-4T9:3:31Z</time></trkpt>
<trkpt lat="45.177585957571864" lon="5.777181917801499"><ele></ele><time>2015-2-4T9:3:34Z</time></trkpt>
<trkpt lat="45.177237940952182" lon="5.776523938402534"><ele></ele><time>2015-2-4T9:3:37Z</time></trkpt>
<trkpt lat="45.176941975951195" lon="5.775916920974851"><ele></ele><time>2015-2-4T9:3:40Z</time></trkpt>
<trkpt lat="45.176684986799955" lon="5.775373941287398"><ele></ele><time>2015-2-4T9:3:43Z</time></trkpt>
<trkpt lat="45.176513995975256" lon="5.774571960791946"><ele></ele><time>2015-2-4T9:3:46Z</time></trkpt>
<trkpt lat="45.176232950761914" lon="5.773854972794652"><ele></ele><time>2015-2-4T9:3:49Z</time></trkpt>
<trkpt lat="45.175737999379635" lon="5.77301393263042"><ele></ele><time>2015-2-4T9:3:52Z</time></trkpt>
<trkpt lat="45.17531898804009" lon="5.772553933784366"><ele></ele><time>2015-2-4T9:3:55Z</time></trkpt>
<trkpt lat="45.17484893091023" lon="5.771712977439165"><ele></ele><time>2015-2-4T9:3:58Z</time></trkpt>
<trkpt lat="45.174416927620769" lon="5.771077964454889"><ele></ele><time>2015-2-4T9:4:1Z</time></trkpt>
<trkpt lat="45.173978973180056" lon="5.770544959232211"><ele></ele><time>2015-2-4T9:4:4Z</time></trkpt>
<trkpt lat="45.1735829282552" lon="5.770067945122719"><ele></ele><time>2015-2-4T9:4:7Z</time></trkpt>
<trkpt lat="45.173181938007474" lon="5.769491940736771"><ele></ele><time>2015-2-4T9:4:10Z</time></trkpt>
<trkpt lat="45.172497974708676" lon="5.768873943015933"><ele></ele><time>2015-2-4T9:4:13Z</time></trkpt>
<trkpt lat="45.171682918444276" lon="5.768671939149499"><ele></ele><time>2015-2-4T9:4:16Z</time></trkpt>
<trkpt lat="45.170592935755849" lon="5.768589964136481"><ele></ele><time>2015-2-4T9:4:19Z</time></trkpt>
<trkpt lat="45.170031934976578" lon="5.768574960529804"><ele></ele><time>2015-2-4T9:4:22Z</time></trkpt>
<trkpt lat="45.169555926695466" lon="5.768548976629973"><ele></ele><time>2015-2-4T9:4:25Z</time></trkpt>
<trkpt lat="45.16904597170651" lon="5.76852492056787"><ele></ele><time>2015-2-4T9:4:28Z</time></trkpt>
<trkpt lat="45.168029917404056" lon="5.767994932830334"><ele></ele><time>2015-2-4T9:4:31Z</time></trkpt>
<trkpt lat="45.167511999607086" lon="5.767689999192953"><ele></ele><time>2015-2-4T9:4:34Z</time></trkpt>
<trkpt lat="45.167073961347342" lon="5.767375929281116"><ele></ele><time>2015-2-4T9:4:37Z</time></trkpt>
<trkpt lat="45.166611950844526" lon="5.766931939870119"><ele></ele><time>2015-2-4T9:4:40Z</time></trkpt>
<trkpt lat="45.166196962818503" lon="5.766532961279154"><ele></ele><time>2015-2-4T9:4:43Z</time></trkpt>
<trkpt lat="45.165654988959432" lon="5.765980929136276"><ele></ele><time>2015-2-4T9:4:46Z</time></trkpt>
<trkpt lat="45.165211921557784" lon="5.76553794555366"><ele></ele><time>2015-2-4T9:4:49Z</time></trkpt>
<trkpt lat="45.164651926606894" lon="5.764964958652854"><ele></ele><time>2015-2-4T9:4:52Z</time></trkpt>
<trkpt lat="45.164246996864676" lon="5.764560950919986"><ele></ele><time>2015-2-4T9:4:55Z</time></trkpt>
<trkpt lat="45.163670992478728" lon="5.764047978445888"><ele></ele><time>2015-2-4T9:4:58Z</time></trkpt>
<trkpt lat="45.163283916190267" lon="5.763705996796489"><ele></ele><time>2015-2-4T9:5:1Z</time></trkpt>
<trkpt lat="45.162863982841372" lon="5.763396956026554"><ele></ele><time>2015-2-4T9:5:4Z</time></trkpt>
<trkpt lat="45.162221929058433" lon="5.762739982455969"><ele></ele><time>2015-2-4T9:5:7Z</time></trkpt>
<trkpt lat="45.161767965182662" lon="5.762297920882702"><ele></ele><time>2015-2-4T9:5:10Z</time></trkpt>
<trkpt lat="45.161263961344957" lon="5.761955939233303"><ele></ele><time>2015-2-4T9:5:13Z</time></trkpt>
<trkpt lat="45.16086095944047" lon="5.761597948148847"><ele></ele><time>2015-2-4T9:5:16Z</time></trkpt>
<trkpt lat="45.160418981686234" lon="5.761145995929837"><ele></ele><time>2015-2-4T9:5:19Z</time></trkpt>
<trkpt lat="45.160005921497941" lon="5.76072296127677"><ele></ele><time>2015-2-4T9:5:22Z</time></trkpt>
<trkpt lat="45.15948791988194" lon="5.760141927748919"><ele></ele><time>2015-2-4T9:5:25Z</time></trkpt>
<trkpt lat="45.159102939069271" lon="5.759678995236754"><ele></ele><time>2015-2-4T9:5:28Z</time></trkpt>
<trkpt lat="45.158659955486655" lon="5.759040964767337"><ele></ele><time>2015-2-4T9:5:31Z</time></trkpt>
<trkpt lat="45.158229963853955" lon="5.758400922641158"><ele></ele><time>2015-2-4T9:5:34Z</time></trkpt>
<trkpt lat="45.15793995000422" lon="5.757885938510299"><ele></ele><time>2015-2-4T9:5:37Z</time></trkpt>
<trkpt lat="45.157201923429966" lon="5.756574925035238"><ele></ele><time>2015-2-4T9:5:40Z</time></trkpt>
<trkpt lat="45.156860947608948" lon="5.755979977548122"><ele></ele><time>2015-2-4T9:5:43Z</time></trkpt>
<trkpt lat="45.156481917947531" lon="5.755303977057338"><ele></ele><time>2015-2-4T9:5:46Z</time></trkpt>
<trkpt lat="45.156153934076428" lon="5.75472797267139"><ele></ele><time>2015-2-4T9:5:49Z</time></trkpt>
<trkpt lat="45.155784962698817" lon="5.754132941365242"><ele></ele><time>2015-2-4T9:5:52Z</time></trkpt>
<trkpt lat="45.15533896163106" lon="5.753491977229714"><ele></ele><time>2015-2-4T9:5:55Z</time></trkpt>
<trkpt lat="45.15473697334528" lon="5.752683961763978"><ele></ele><time>2015-2-4T9:5:58Z</time></trkpt>
<trkpt lat="45.1543939858675" lon="5.75221792794764"><ele></ele><time>2015-2-4T9:6:1Z</time></trkpt>
<trkpt lat="45.153964916244149" lon="5.751590961590409"><ele></ele><time>2015-2-4T9:6:4Z</time></trkpt>
<trkpt lat="45.153312971815467" lon="5.75120497494936"><ele></ele><time>2015-2-4T9:6:7Z</time></trkpt>
<trkpt lat="45.152724981307983" lon="5.750891994684935"><ele></ele><time>2015-2-4T9:6:10Z</time></trkpt>
<trkpt lat="45.152224916964769" lon="5.750712957233191"><ele></ele><time>2015-2-4T9:6:13Z</time></trkpt>
<trkpt lat="45.151726948097348" lon="5.750563926994801"><ele></ele><time>2015-2-4T9:6:16Z</time></trkpt>
<trkpt lat="45.151066957041621" lon="5.750533919781447"><ele></ele><time>2015-2-4T9:6:19Z</time></trkpt>
<trkpt lat="45.150633947923779" lon="5.750349937006831"><ele></ele><time>2015-2-4T9:6:22Z</time></trkpt>
<trkpt lat="45.150083927437663" lon="5.750254970043898"><ele></ele><time>2015-2-4T9:6:25Z</time></trkpt>
<trkpt lat="45.149759966880083" lon="5.749709978699684"><ele></ele><time>2015-2-4T9:6:28Z</time></trkpt>
<trkpt lat="45.149467941373587" lon="5.749209998175502"><ele></ele><time>2015-2-4T9:6:31Z</time></trkpt>
<trkpt lat="45.149130988866091" lon="5.74847892858088"><ele></ele><time>2015-2-4T9:6:34Z</time></trkpt>
<trkpt lat="45.148734943941236" lon="5.74780996888876"><ele></ele><time>2015-2-4T9:6:37Z</time></trkpt>
<trkpt lat="45.14813999645412" lon="5.747631937265396"><ele></ele><time>2015-2-4T9:6:40Z</time></trkpt>
<trkpt lat="45.147642949596047" lon="5.746706994250417"><ele></ele><time>2015-2-4T9:6:43Z</time></trkpt>
<trkpt lat="45.14738998375833" lon="5.745967961847782"><ele></ele><time>2015-2-4T9:6:46Z</time></trkpt>
<trkpt lat="45.147168952971697" lon="5.745406961068511"><ele></ele><time>2015-2-4T9:6:49Z</time></trkpt>
<trkpt lat="45.146654974669218" lon="5.7448669988662"><ele></ele><time>2015-2-4T9:6:52Z</time></trkpt>
<trkpt lat="45.146228922531009" lon="5.744339944794774"><ele></ele><time>2015-2-4T9:6:55Z</time></trkpt>
<trkpt lat="45.145709998905659" lon="5.74364198371768"><ele></ele><time>2015-2-4T9:6:58Z</time></trkpt>
<trkpt lat="45.145377991721034" lon="5.743112917989492"><ele></ele><time>2015-2-4T9:7:1Z</time></trkpt>
<trkpt lat="45.145021928474307" lon="5.742536997422576"><ele></ele><time>2015-2-4T9:7:4Z</time></trkpt>
<trkpt lat="45.144727975130081" lon="5.741965938359499"><ele></ele><time>2015-2-4T9:7:7Z</time></trkpt>
<trkpt lat="45.144300917163491" lon="5.740890959277749"><ele></ele><time>2015-2-4T9:7:10Z</time></trkpt>
<trkpt lat="45.143922977149487" lon="5.739804999902844"><ele></ele><time>2015-2-4T9:7:13Z</time></trkpt>
<trkpt lat="45.143662970513105" lon="5.738972928375006"><ele></ele><time>2015-2-4T9:7:16Z</time></trkpt>
<trkpt lat="45.143459960818291" lon="5.73829491622746"><ele></ele><time>2015-2-4T9:7:19Z</time></trkpt>
<trkpt lat="45.143272960558534" lon="5.737608941271901"><ele></ele><time>2015-2-4T9:7:22Z</time></trkpt>
<trkpt lat="45.143056958913803" lon="5.736819952726364"><ele></ele><time>2015-2-4T9:7:25Z</time></trkpt>
<trkpt lat="45.142846992239356" lon="5.736049991101027"><ele></ele><time>2015-2-4T9:7:28Z</time></trkpt>
<trkpt lat="45.142659991979599" lon="5.735274916514754"><ele></ele><time>2015-2-4T9:7:31Z</time></trkpt>
<trkpt lat="45.142515990883112" lon="5.73446698486805"><ele></ele><time>2015-2-4T9:7:34Z</time></trkpt>
<trkpt lat="45.142435943707824" lon="5.733691994100809"><ele></ele><time>2015-2-4T9:7:37Z</time></trkpt>
<trkpt lat="45.142484977841377" lon="5.732875932008028"><ele></ele><time>2015-2-4T9:7:40Z</time></trkpt>
<trkpt lat="45.142514985054731" lon="5.732144946232438"><ele></ele><time>2015-2-4T9:7:43Z</time></trkpt>
<trkpt lat="45.142485983669758" lon="5.731501970440149"><ele></ele><time>2015-2-4T9:7:46Z</time></trkpt>
<trkpt lat="45.142395962029696" lon="5.730715999379754"><ele></ele><time>2015-2-4T9:7:49Z</time></trkpt>
<trkpt lat="45.142582962289453" lon="5.729950983077288"><ele></ele><time>2015-2-4T9:7:52Z</time></trkpt>
<trkpt lat="45.143006918951869" lon="5.729379924014211"><ele></ele><time>2015-2-4T9:7:55Z</time></trkpt>
<trkpt lat="45.14324295334518" lon="5.728758992627263"><ele></ele><time>2015-2-4T9:7:58Z</time></trkpt>
<trkpt lat="45.142990993335843" lon="5.727843940258026"><ele></ele><time>2015-2-4T9:8:1Z</time></trkpt>
<trkpt lat="45.142818996682763" lon="5.727200964465737"><ele></ele><time>2015-2-4T9:8:4Z</time></trkpt>
<trkpt lat="45.142645994201303" lon="5.726460926234722"><ele></ele><time>2015-2-4T9:8:7Z</time></trkpt>
<trkpt lat="45.142430998384953" lon="5.725697921589017"><ele></ele><time>2015-2-4T9:8:10Z</time></trkpt>
<trkpt lat="45.141955995932221" lon="5.724613973870874"><ele></ele><time>2015-2-4T9:8:13Z</time></trkpt>
<trkpt lat="45.141573948785663" lon="5.72381098754704"><ele></ele><time>2015-2-4T9:8:16Z</time></trkpt>
<trkpt lat="45.14111596159637" lon="5.723113948479295"><ele></ele><time>2015-2-4T9:8:19Z</time></trkpt>
<trkpt lat="45.140759982168674" lon="5.722638946026564"><ele></ele><time>2015-2-4T9:8:22Z</time></trkpt>
<trkpt lat="45.140424957498908" lon="5.722206942737103"><ele></ele><time>2015-2-4T9:8:25Z</time></trkpt>
<trkpt lat="45.140097979456186" lon="5.721753984689713"><ele></ele><time>2015-2-4T9:8:28Z</time></trkpt>
<trkpt lat="45.139745939522982" lon="5.721300942823291"><ele></ele><time>2015-2-4T9:8:31Z</time></trkpt>
<trkpt lat="45.139354923740029" lon="5.720788976177573"><ele></ele><time>2015-2-4T9:8:34Z</time></trkpt>
<trkpt lat="45.138918980956078" lon="5.719747943803668"><ele></ele><time>2015-2-4T9:8:37Z</time></trkpt>
<trkpt lat="45.138574987649918" lon="5.718819983303547"><ele></ele><time>2015-2-4T9:8:40Z</time></trkpt>
<trkpt lat="45.138295954093337" lon="5.718223946169019"><ele></ele><time>2015-2-4T9:8:43Z</time></trkpt>
<trkpt lat="45.137958917766809" lon="5.717589939013124"><ele></ele><time>2015-2-4T9:8:46Z</time></trkpt>
<trkpt lat="45.137309990823269" lon="5.716896923258901"><ele></ele><time>2015-2-4T9:8:49Z</time></trkpt>
<trkpt lat="45.136639941483736" lon="5.716049931943417"><ele></ele><time>2015-2-4T9:8:52Z</time></trkpt>
<trkpt lat="45.136122945696115" lon="5.71541097946465"><ele></ele><time>2015-2-4T9:8:55Z</time></trkpt>
<trkpt lat="45.135560939088464" lon="5.715139992535114"><ele></ele><time>2015-2-4T9:8:58Z</time></trkpt>
<trkpt lat="45.135052995756269" lon="5.714422920718789"><ele></ele><time>2015-2-4T9:9:1Z</time></trkpt>
<trkpt lat="45.134806986898184" lon="5.713757984340191"><ele></ele><time>2015-2-4T9:9:4Z</time></trkpt>
<trkpt lat="45.134348999708891" lon="5.713315922766924"><ele></ele><time>2015-2-4T9:9:7Z</time></trkpt>
<trkpt lat="45.133739970624447" lon="5.712433978915215"><ele></ele><time>2015-2-4T9:9:10Z</time></trkpt>
<trkpt lat="45.133335962891579" lon="5.711763929575682"><ele></ele><time>2015-2-4T9:9:13Z</time></trkpt>
<trkpt lat="45.132519984617829" lon="5.711202928796411"><ele></ele><time>2015-2-4T9:9:16Z</time></trkpt>
<trkpt lat="45.131795955821872" lon="5.710921967402101"><ele></ele><time>2015-2-4T9:9:19Z</time></trkpt>
<trkpt lat="45.130957933142781" lon="5.711079966276884"><ele></ele><time>2015-2-4T9:9:22Z</time></trkpt>
<trkpt lat="45.130521990358829" lon="5.711254980415106"><ele></ele><time>2015-2-4T9:9:25Z</time></trkpt>
<trkpt lat="45.129604926332831" lon="5.711454972624779"><ele></ele><time>2015-2-4T9:9:28Z</time></trkpt>
<trkpt lat="45.129046943038702" lon="5.711474921554327"><ele></ele><time>2015-2-4T9:9:31Z</time></trkpt>
<trkpt lat="45.128507986664772" lon="5.711461929604411"><ele></ele><time>2015-2-4T9:9:34Z</time></trkpt>
<trkpt lat="45.127915972843766" lon="5.711461929604411"><ele></ele><time>2015-2-4T9:9:37Z</time></trkpt>
<trkpt lat="45.127375926822424" lon="5.711458995938301"><ele></ele><time>2015-2-4T9:9:40Z</time></trkpt>
<trkpt lat="45.126828923821449" lon="5.711453966796398"><ele></ele><time>2015-2-4T9:9:43Z</time></trkpt>
<trkpt lat="45.126289967447519" lon="5.711411973461509"><ele></ele><time>2015-2-4T9:9:46Z</time></trkpt>
<trkpt lat="45.125459991395473" lon="5.711353970691562"><ele></ele><time>2015-2-4T9:9:49Z</time></trkpt>
<trkpt lat="45.124925980344415" lon="5.711267972365022"><ele></ele><time>2015-2-4T9:9:52Z</time></trkpt>
<trkpt lat="45.124270934611559" lon="5.711194965988398"><ele></ele><time>2015-2-4T9:9:55Z</time></trkpt>
<trkpt lat="45.123621923848987" lon="5.711119947955012"><ele></ele><time>2015-2-4T9:9:58Z</time></trkpt>
<trkpt lat="45.123023958876729" lon="5.711051970720291"><ele></ele><time>2015-2-4T9:10:1Z</time></trkpt>
<trkpt lat="45.122491959482431" lon="5.711008971557021"><ele></ele><time>2015-2-4T9:10:4Z</time></trkpt>
<trkpt lat="45.121537931263447" lon="5.710952980443835"><ele></ele><time>2015-2-4T9:10:7Z</time></trkpt>
<trkpt lat="45.121004926040769" lon="5.710923979058862"><ele></ele><time>2015-2-4T9:10:10Z</time></trkpt>
<trkpt lat="45.120352981612086" lon="5.710901934653521"><ele></ele><time>2015-2-4T9:10:13Z</time></trkpt>
<trkpt lat="45.119827939197421" lon="5.710836974903941"><ele></ele><time>2015-2-4T9:10:16Z</time></trkpt>
<trkpt lat="45.119384955614805" lon="5.710678976029158"><ele></ele><time>2015-2-4T9:10:19Z</time></trkpt>
<trkpt lat="45.118442997336388" lon="5.710035916417837"><ele></ele><time>2015-2-4T9:10:22Z</time></trkpt>
<trkpt lat="45.118012921884656" lon="5.709568960592151"><ele></ele><time>2015-2-4T9:10:25Z</time></trkpt>
<trkpt lat="45.117595922201872" lon="5.709016928449273"><ele></ele><time>2015-2-4T9:10:28Z</time></trkpt>
<trkpt lat="45.117228962481022" lon="5.708607975393534"><ele></ele><time>2015-2-4T9:10:31Z</time></trkpt>
<trkpt lat="45.116562936455011" lon="5.708245960995555"><ele></ele><time>2015-2-4T9:10:34Z</time></trkpt>
<trkpt lat="45.116097992286086" lon="5.708028953522444"><ele></ele><time>2015-2-4T9:10:37Z</time></trkpt>
<trkpt lat="45.115362983196974" lon="5.707901967689395"><ele></ele><time>2015-2-4T9:10:40Z</time></trkpt>
<trkpt lat="45.114427981898189" lon="5.707942955195904"><ele></ele><time>2015-2-4T9:10:43Z</time></trkpt>
<trkpt lat="45.11359297670424" lon="5.708034988492727"><ele></ele><time>2015-2-4T9:10:46Z</time></trkpt>
<trkpt lat="45.1134879514575" lon="5.707457978278399"><ele></ele><time>2015-2-4T9:10:49Z</time></trkpt>
<trkpt lat="45.11395993642509" lon="5.706956991925836"><ele></ele><time>2015-2-4T9:10:52Z</time></trkpt>
<trkpt lat="45.114463940262794" lon="5.706174960359931"><ele></ele><time>2015-2-4T9:10:55Z</time></trkpt>
<trkpt lat="45.114520937204361" lon="5.705488985404372"><ele></ele><time>2015-2-4T9:10:58Z</time></trkpt>
<trkpt lat="45.114197982475162" lon="5.705372979864478"><ele></ele><time>2015-2-4T9:11:1Z</time></trkpt>
<trkpt lat="45.11353095062077" lon="5.706053925678134"><ele></ele><time>2015-2-4T9:11:4Z</time></trkpt>
<trkpt lat="45.113001968711615" lon="5.706482995301485"><ele></ele><time>2015-2-4T9:11:7Z</time></trkpt>
<trkpt lat="45.112317921593785" lon="5.707039972767234"><ele></ele><time>2015-2-4T9:11:10Z</time></trkpt>
<trkpt lat="45.11174694634974" lon="5.707501983270049"><ele></ele><time>2015-2-4T9:11:13Z</time></trkpt>
<trkpt lat="45.111204972490668" lon="5.707941949367523"><ele></ele><time>2015-2-4T9:11:16Z</time></trkpt>
<trkpt lat="45.110742961987853" lon="5.708298934623599"><ele></ele><time>2015-2-4T9:11:19Z</time></trkpt>
<trkpt lat="45.110231917351484" lon="5.708679975941777"><ele></ele><time>2015-2-4T9:11:22Z</time></trkpt>
<trkpt lat="45.109659936279058" lon="5.709165958687663"><ele></ele><time>2015-2-4T9:11:25Z</time></trkpt>
<trkpt lat="45.109171941876411" lon="5.709595950320363"><ele></ele><time>2015-2-4T9:11:28Z</time></trkpt>
<trkpt lat="45.108607923611999" lon="5.710070952773094"><ele></ele><time>2015-2-4T9:11:31Z</time></trkpt>
<trkpt lat="45.107853971421719" lon="5.710678976029158"><ele></ele><time>2015-2-4T9:11:34Z</time></trkpt>
<trkpt lat="45.107215940952301" lon="5.711189936846495"><ele></ele><time>2015-2-4T9:11:37Z</time></trkpt>
<trkpt lat="45.106462994590402" lon="5.711798965930939"><ele></ele><time>2015-2-4T9:11:40Z</time></trkpt>
<trkpt lat="45.106053957715631" lon="5.712103983387351"><ele></ele><time>2015-2-4T9:11:43Z</time></trkpt>
<trkpt lat="45.105521958321333" lon="5.712471948936582"><ele></ele><time>2015-2-4T9:11:46Z</time></trkpt>
<trkpt lat="45.105016948655248" lon="5.712799932807684"><ele></ele><time>2015-2-4T9:11:49Z</time></trkpt>
<trkpt lat="45.104693993926048" lon="5.713376943022013"><ele></ele><time>2015-2-4T9:11:52Z</time></trkpt>
<trkpt lat="45.104235922917724" lon="5.713742980733514"><ele></ele><time>2015-2-4T9:11:55Z</time></trkpt>
<trkpt lat="45.103787994012237" lon="5.714051937684417"><ele></ele><time>2015-2-4T9:11:58Z</time></trkpt>
<trkpt lat="45.103382980450988" lon="5.714372964575887"><ele></ele><time>2015-2-4T9:12:1Z</time></trkpt>
<trkpt lat="45.102852992713451" lon="5.714805973693728"><ele></ele><time>2015-2-4T9:12:4Z</time></trkpt>
<trkpt lat="45.102317975834012" lon="5.715239988639951"><ele></ele><time>2015-2-4T9:12:7Z</time></trkpt>
<trkpt lat="45.10177792981267" lon="5.715673919767141"><ele></ele><time>2015-2-4T9:12:10Z</time></trkpt>
<trkpt lat="45.101283984258771" lon="5.716071976348758"><ele></ele><time>2015-2-4T9:12:13Z</time></trkpt>
<trkpt lat="45.100687947124243" lon="5.716552929952741"><ele></ele><time>2015-2-4T9:12:16Z</time></trkpt>
<trkpt lat="45.099880937486887" lon="5.717223985120654"><ele></ele><time>2015-2-4T9:12:19Z</time></trkpt>
<trkpt lat="45.099322954192758" lon="5.717662945389748"><ele></ele><time>2015-2-4T9:12:22Z</time></trkpt>
<trkpt lat="45.098773939535022" lon="5.718104923143983"><ele></ele><time>2015-2-4T9:12:25Z</time></trkpt>
<trkpt lat="45.098225930705667" lon="5.71854698471725"><ele></ele><time>2015-2-4T9:12:28Z</time></trkpt>
<trkpt lat="45.097683956846595" lon="5.718983933329582"><ele></ele><time>2015-2-4T9:12:31Z</time></trkpt>
<trkpt lat="45.097233932465315" lon="5.719340918585658"><ele></ele><time>2015-2-4T9:12:34Z</time></trkpt>
<trkpt lat="45.096628926694393" lon="5.719827990978956"><ele></ele><time>2015-2-4T9:12:37Z</time></trkpt>
<trkpt lat="45.095994919538498" lon="5.72024499066174"><ele></ele><time>2015-2-4T9:12:40Z</time></trkpt>
<trkpt lat="45.095003927126527" lon="5.72095493786037"><ele></ele><time>2015-2-4T9:12:43Z</time></trkpt>
<trkpt lat="45.094413924962282" lon="5.721422983333468"><ele></ele><time>2015-2-4T9:12:46Z</time></trkpt>
<trkpt lat="45.093835992738605" lon="5.721932938322425"><ele></ele><time>2015-2-4T9:12:49Z</time></trkpt>
<trkpt lat="45.093345986679196" lon="5.722339963540435"><ele></ele><time>2015-2-4T9:12:52Z</time></trkpt>
<trkpt lat="45.092839971184731" lon="5.722787976264954"><ele></ele><time>2015-2-4T9:12:55Z</time></trkpt>
<trkpt lat="45.0923459418118" lon="5.723226936534047"><ele></ele><time>2015-2-4T9:12:58Z</time></trkpt>
<trkpt lat="45.091772954910994" lon="5.723743932321668"><ele></ele><time>2015-2-4T9:13:1Z</time></trkpt>
<trkpt lat="45.09133692830801" lon="5.724224969744682"><ele></ele><time>2015-2-4T9:13:4Z</time></trkpt>
<trkpt lat="45.090975919738412" lon="5.724811954423785"><ele></ele><time>2015-2-4T9:13:7Z</time></trkpt>
<trkpt lat="45.090574929490685" lon="5.725623993203044"><ele></ele><time>2015-2-4T9:13:10Z</time></trkpt>
<trkpt lat="45.090193971991539" lon="5.72636897675693"><ele></ele><time>2015-2-4T9:13:13Z</time></trkpt>
<trkpt lat="45.089923990890384" lon="5.726959984749556"><ele></ele><time>2015-2-4T9:13:16Z</time></trkpt>
<trkpt lat="45.089597934857011" lon="5.727747967466712"><ele></ele><time>2015-2-4T9:13:19Z</time></trkpt>
<trkpt lat="45.089232986792922" lon="5.728592947125435"><ele></ele><time>2015-2-4T9:13:22Z</time></trkpt>
<trkpt lat="45.088843982666731" lon="5.729488972574472"><ele></ele><time>2015-2-4T9:13:25Z</time></trkpt>
<trkpt lat="45.088630998507142" lon="5.730313919484615"><ele></ele><time>2015-2-4T9:13:28Z</time></trkpt>
<trkpt lat="45.088362945243716" lon="5.731005929410458"><ele></ele><time>2015-2-4T9:13:31Z</time></trkpt>
<trkpt lat="45.08780999109149" lon="5.730597982183099"><ele></ele><time>2015-2-4T9:13:34Z</time></trkpt>
<trkpt lat="45.087350998073816" lon="5.730200931429863"><ele></ele><time>2015-2-4T9:13:37Z</time></trkpt>
<trkpt lat="45.086490930989385" lon="5.729746967554092"><ele></ele><time>2015-2-4T9:13:40Z</time></trkpt>
<trkpt lat="45.085866982117295" lon="5.729469945654273"><ele></ele><time>2015-2-4T9:13:43Z</time></trkpt>
<trkpt lat="45.085351997986436" lon="5.729238940402865"><ele></ele><time>2015-2-4T9:13:46Z</time></trkpt>
<trkpt lat="45.084820920601487" lon="5.7290109526366"><ele></ele><time>2015-2-4T9:13:49Z</time></trkpt>
<trkpt lat="45.084101920947433" lon="5.728683974593878"><ele></ele><time>2015-2-4T9:13:52Z</time></trkpt>
<trkpt lat="45.083436984568834" lon="5.728380968794227"><ele></ele><time>2015-2-4T9:13:55Z</time></trkpt>
<trkpt lat="45.083005987107754" lon="5.728137977421284"><ele></ele><time>2015-2-4T9:13:58Z</time></trkpt>
<trkpt lat="45.082547999918461" lon="5.727987941354513"><ele></ele><time>2015-2-4T9:14:1Z</time></trkpt>
<trkpt lat="45.081876944750547" lon="5.727687953040004"><ele></ele><time>2015-2-4T9:14:4Z</time></trkpt>
<trkpt lat="45.08108695037663" lon="5.727332979440689"><ele></ele><time>2015-2-4T9:14:7Z</time></trkpt>
<trkpt lat="45.080411955714226" lon="5.727029973641038"><ele></ele><time>2015-2-4T9:14:10Z</time></trkpt>
<trkpt lat="45.079701924696565" lon="5.72671196423471"><ele></ele><time>2015-2-4T9:14:13Z</time></trkpt>
<trkpt lat="45.079016955569386" lon="5.726403929293156"><ele></ele><time>2015-2-4T9:14:16Z</time></trkpt>
<trkpt lat="45.078461989760399" lon="5.726157920435071"><ele></ele><time>2015-2-4T9:14:19Z</time></trkpt>
<trkpt lat="45.077985981479287" lon="5.725942924618721"><ele></ele><time>2015-2-4T9:14:22Z</time></trkpt>
<trkpt lat="45.077246949076653" lon="5.725610917434096"><ele></ele><time>2015-2-4T9:14:25Z</time></trkpt>
<trkpt lat="45.076606990769506" lon="5.725316964089871"><ele></ele><time>2015-2-4T9:14:28Z</time></trkpt>
<trkpt lat="45.075969966128469" lon="5.725055951625109"><ele></ele><time>2015-2-4T9:14:31Z</time></trkpt>
<trkpt lat="45.075199920684099" lon="5.724702989682555"><ele></ele><time>2015-2-4T9:14:34Z</time></trkpt>
<trkpt lat="45.074614947661757" lon="5.724438959732652"><ele></ele><time>2015-2-4T9:14:37Z</time></trkpt>
<trkpt lat="45.074032992124557" lon="5.724183982238174"><ele></ele><time>2015-2-4T9:14:40Z</time></trkpt>
<trkpt lat="45.073118945583701" lon="5.723778968676925"><ele></ele><time>2015-2-4T9:14:43Z</time></trkpt>
<trkpt lat="45.072390977293253" lon="5.723453918471932"><ele></ele><time>2015-2-4T9:14:46Z</time></trkpt>
<trkpt lat="45.071828970685601" lon="5.723199946805835"><ele></ele><time>2015-2-4T9:14:49Z</time></trkpt>
<trkpt lat="45.071017937734723" lon="5.722842961549759"><ele></ele><time>2015-2-4T9:14:52Z</time></trkpt>
<trkpt lat="45.070454925298691" lon="5.722592929378152"><ele></ele><time>2015-2-4T9:14:55Z</time></trkpt>
<trkpt lat="45.069681946188211" lon="5.72224197909236"><ele></ele><time>2015-2-4T9:14:58Z</time></trkpt>
<trkpt lat="45.068939980119467" lon="5.721908966079354"><ele></ele><time>2015-2-4T9:15:1Z</time></trkpt>
<trkpt lat="45.068069938570261" lon="5.721515938639641"><ele></ele><time>2015-2-4T9:15:4Z</time></trkpt>
<trkpt lat="45.067386981099844" lon="5.721207987517119"><ele></ele><time>2015-2-4T9:15:7Z</time></trkpt>
<trkpt lat="45.066643925383687" lon="5.720880925655365"><ele></ele><time>2015-2-4T9:15:10Z</time></trkpt>
<trkpt lat="45.066192978993058" lon="5.720707923173904"><ele></ele><time>2015-2-4T9:15:13Z</time></trkpt>
<trkpt lat="45.065357973799109" lon="5.720980921760202"><ele></ele><time>2015-2-4T9:15:16Z</time></trkpt>
<trkpt lat="45.064771994948387" lon="5.721251992508769"><ele></ele><time>2015-2-4T9:15:19Z</time></trkpt>
<trkpt lat="45.064069926738739" lon="5.721578970551491"><ele></ele><time>2015-2-4T9:15:22Z</time></trkpt>
<trkpt lat="45.063626943156123" lon="5.721475956961513"><ele></ele><time>2015-2-4T9:15:25Z</time></trkpt>
<trkpt lat="45.063035935163498" lon="5.720885954797268"><ele></ele><time>2015-2-4T9:15:28Z</time></trkpt>
<trkpt lat="45.062357923015952" lon="5.7202039193362"><ele></ele><time>2015-2-4T9:15:31Z</time></trkpt>
<trkpt lat="45.061841933056712" lon="5.719742998480797"><ele></ele><time>2015-2-4T9:15:34Z</time></trkpt>
<trkpt lat="45.061186971142888" lon="5.719285933300853"><ele></ele><time>2015-2-4T9:15:37Z</time></trkpt>
<trkpt lat="45.060651954263449" lon="5.718911932781339"><ele></ele><time>2015-2-4T9:15:40Z</time></trkpt>
<trkpt lat="45.060177957639098" lon="5.718554947525263"><ele></ele><time>2015-2-4T9:15:43Z</time></trkpt>
<trkpt lat="45.059353932738304" lon="5.717933932319284"><ele></ele><time>2015-2-4T9:15:46Z</time></trkpt>
<trkpt lat="45.058780945837498" lon="5.717480974271894"><ele></ele><time>2015-2-4T9:15:49Z</time></trkpt>
<trkpt lat="45.058227991685271" lon="5.717016952112317"><ele></ele><time>2015-2-4T9:15:52Z</time></trkpt>
<trkpt lat="45.057680988684297" lon="5.716559970751405"><ele></ele><time>2015-2-4T9:15:55Z</time></trkpt>
<trkpt lat="45.057127950713038" lon="5.716104917228222"><ele></ele><time>2015-2-4T9:15:58Z</time></trkpt>
<trkpt lat="45.056575918570161" lon="5.715652965009213"><ele></ele><time>2015-2-4T9:16:1Z</time></trkpt>
<trkpt lat="45.055931936949492" lon="5.715110991150141"><ele></ele><time>2015-2-4T9:16:4Z</time></trkpt>
<trkpt lat="45.055485935881734" lon="5.714686950668693"><ele></ele><time>2015-2-4T9:16:7Z</time></trkpt>
<trkpt lat="45.054944967851043" lon="5.714156962931156"><ele></ele><time>2015-2-4T9:16:10Z</time></trkpt>
<trkpt lat="45.054500978440046" lon="5.713733928278089"><ele></ele><time>2015-2-4T9:16:13Z</time></trkpt>
<trkpt lat="45.053955987095833" lon="5.713204946368933"><ele></ele><time>2015-2-4T9:16:16Z</time></trkpt>
<trkpt lat="45.053471932187676" lon="5.712735978886485"><ele></ele><time>2015-2-4T9:16:19Z</time></trkpt>
<trkpt lat="45.053089968860149" lon="5.712337922304869"><ele></ele><time>2015-2-4T9:16:22Z</time></trkpt>
<trkpt lat="45.052669951692224" lon="5.711787985637784"><ele></ele><time>2015-2-4T9:16:25Z</time></trkpt>
<trkpt lat="45.052403993904591" lon="5.711259925737977"><ele></ele><time>2015-2-4T9:16:28Z</time></trkpt>
<trkpt lat="45.051851961761713" lon="5.711059933528304"><ele></ele><time>2015-2-4T9:16:31Z</time></trkpt>
<trkpt lat="45.051327925175428" lon="5.710650980472565"><ele></ele><time>2015-2-4T9:16:34Z</time></trkpt>
<trkpt lat="45.050898939371109" lon="5.710285948589444"><ele></ele><time>2015-2-4T9:16:37Z</time></trkpt>
<trkpt lat="45.050483951345086" lon="5.709899961948395"><ele></ele><time>2015-2-4T9:16:40Z</time></trkpt>
<trkpt lat="45.050035938620567" lon="5.709431916475296"><ele></ele><time>2015-2-4T9:16:43Z</time></trkpt>
<trkpt lat="45.049599995836616" lon="5.709043918177486"><ele></ele><time>2015-2-4T9:16:46Z</time></trkpt>
<trkpt lat="45.048981998115778" lon="5.709092952311039"><ele></ele><time>2015-2-4T9:16:49Z</time></trkpt>
<trkpt lat="45.048327958211303" lon="5.709224967285991"><ele></ele><time>2015-2-4T9:16:52Z</time></trkpt>
<trkpt lat="45.047852955758572" lon="5.70918096229434"><ele></ele><time>2015-2-4T9:16:55Z</time></trkpt>
<trkpt lat="45.047520948573947" lon="5.708724986761808"><ele></ele><time>2015-2-4T9:16:58Z</time></trkpt>
<trkpt lat="45.04709598608315" lon="5.708103971555829"><ele></ele><time>2015-2-4T9:17:1Z</time></trkpt>
<trkpt lat="45.046549988910556" lon="5.707978997379541"><ele></ele><time>2015-2-4T9:17:4Z</time></trkpt>
<trkpt lat="45.0458949431777" lon="5.707921916618943"><ele></ele><time>2015-2-4T9:17:7Z</time></trkpt>
<trkpt lat="45.045325979590416" lon="5.707620922476053"><ele></ele><time>2015-2-4T9:17:10Z</time></trkpt>
<trkpt lat="45.04479699768126" lon="5.707269972190261"><ele></ele><time>2015-2-4T9:17:13Z</time></trkpt>
<trkpt lat="45.044319983571768" lon="5.706925978884101"><ele></ele><time>2015-2-4T9:17:16Z</time></trkpt>
<trkpt lat="45.043902983888984" lon="5.706620961427689"><ele></ele><time>2015-2-4T9:17:19Z</time></trkpt>
<trkpt lat="45.043353969231248" lon="5.70623598061502"><ele></ele><time>2015-2-4T9:17:22Z</time></trkpt>
<trkpt lat="45.042933952063322" lon="5.705994917079806"><ele></ele><time>2015-2-4T9:17:25Z</time></trkpt>
<trkpt lat="45.04241393879056" lon="5.705721918493509"><ele></ele><time>2015-2-4T9:17:28Z</time></trkpt>
<trkpt lat="45.041933991014957" lon="5.705487979575992"><ele></ele><time>2015-2-4T9:17:31Z</time></trkpt>
<trkpt lat="45.041257990524173" lon="5.705327969044447"><ele></ele><time>2015-2-4T9:17:34Z</time></trkpt>
<trkpt lat="45.040826993063092" lon="5.7055479940027"><ele></ele><time>2015-2-4T9:17:37Z</time></trkpt>
<trkpt lat="45.040328940376639" lon="5.705485967919231"><ele></ele><time>2015-2-4T9:17:40Z</time></trkpt>
<trkpt lat="45.039802975952625" lon="5.705338949337602"><ele></ele><time>2015-2-4T9:17:43Z</time></trkpt>
<trkpt lat="45.039182966575027" lon="5.70529293268919"><ele></ele><time>2015-2-4T9:17:46Z</time></trkpt>
<trkpt lat="45.038613919168711" lon="5.705659976229072"><ele></ele><time>2015-2-4T9:17:49Z</time></trkpt>
<trkpt lat="45.03813598304987" lon="5.705878995358944"><ele></ele><time>2015-2-4T9:17:52Z</time></trkpt>
<trkpt lat="45.038177976384759" lon="5.705159995704889"><ele></ele><time>2015-2-4T9:17:55Z</time></trkpt>
<trkpt lat="45.038248971104622" lon="5.704271933063865"><ele></ele><time>2015-2-4T9:17:58Z</time></trkpt>
<trkpt lat="45.037701968103647" lon="5.703780921176076"><ele></ele><time>2015-2-4T9:18:1Z</time></trkpt>
<trkpt lat="45.037186983972788" lon="5.703365933150053"><ele></ele><time>2015-2-4T9:18:4Z</time></trkpt>
<trkpt lat="45.036775935441256" lon="5.702756987884641"><ele></ele><time>2015-2-4T9:18:7Z</time></trkpt>
<trkpt lat="45.036170929670334" lon="5.702518941834569"><ele></ele><time>2015-2-4T9:18:10Z</time></trkpt>
<trkpt lat="45.036120973527431" lon="5.703181950375438"><ele></ele><time>2015-2-4T9:18:13Z</time></trkpt>
<trkpt lat="45.035770945250988" lon="5.703694922849536"><ele></ele><time>2015-2-4T9:18:16Z</time></trkpt>
<trkpt lat="45.035328967496753" lon="5.704030953347683"><ele></ele><time>2015-2-4T9:18:19Z</time></trkpt>
<trkpt lat="45.034931916743517" lon="5.704686921089888"><ele></ele><time>2015-2-4T9:18:22Z</time></trkpt>
<trkpt lat="45.034528998658061" lon="5.705084977671504"><ele></ele><time>2015-2-4T9:18:25Z</time></trkpt>
<trkpt lat="45.033913934603333" lon="5.705060921609402"><ele></ele><time>2015-2-4T9:18:28Z</time></trkpt>
<trkpt lat="45.033376989886165" lon="5.704838968813419"><ele></ele><time>2015-2-4T9:18:31Z</time></trkpt>
<trkpt lat="45.032851947471499" lon="5.7049919385463"><ele></ele><time>2015-2-4T9:18:34Z</time></trkpt>
<trkpt lat="45.032349955290556" lon="5.705049941316247"><ele></ele><time>2015-2-4T9:18:37Z</time></trkpt>
<trkpt lat="45.031814938411117" lon="5.70471097715199"><ele></ele><time>2015-2-4T9:18:40Z</time></trkpt>
<trkpt lat="45.031248992308974" lon="5.704579968005419"><ele></ele><time>2015-2-4T9:18:43Z</time></trkpt>
<trkpt lat="45.03091698512435" lon="5.705315982922912"><ele></ele><time>2015-2-4T9:18:46Z</time></trkpt>
<trkpt lat="45.030540972948074" lon="5.705674979835749"><ele></ele><time>2015-2-4T9:18:49Z</time></trkpt>
<trkpt lat="45.029998999089003" lon="5.705811940133572"><ele></ele><time>2015-2-4T9:18:52Z</time></trkpt>
<trkpt lat="45.029532965272665" lon="5.705740945413709"><ele></ele><time>2015-2-4T9:18:55Z</time></trkpt>
<trkpt lat="45.029006917029619" lon="5.705748992040753"><ele></ele><time>2015-2-4T9:18:58Z</time></trkpt>
<trkpt lat="45.028379950672388" lon="5.705930963158608"><ele></ele><time>2015-2-4T9:19:1Z</time></trkpt>
<trkpt lat="45.027666985988617" lon="5.705901961773634"><ele></ele><time>2015-2-4T9:19:4Z</time></trkpt>
<trkpt lat="45.027172956615686" lon="5.705913947895169"><ele></ele><time>2015-2-4T9:19:7Z</time></trkpt>
<trkpt lat="45.026663923636079" lon="5.706641916185617"><ele></ele><time>2015-2-4T9:19:10Z</time></trkpt>
<trkpt lat="45.026164948940277" lon="5.706850960850716"><ele></ele><time>2015-2-4T9:19:13Z</time></trkpt>
<trkpt lat="45.025631943717599" lon="5.706788934767246"><ele></ele><time>2015-2-4T9:19:16Z</time></trkpt>
<trkpt lat="45.024983938783407" lon="5.706578968092799"><ele></ele><time>2015-2-4T9:19:19Z</time></trkpt>
<trkpt lat="45.024526957422495" lon="5.706514930352569"><ele></ele><time>2015-2-4T9:19:22Z</time></trkpt>
<trkpt lat="45.023960927501321" lon="5.706486934795976"><ele></ele><time>2015-2-4T9:19:25Z</time></trkpt>
<trkpt lat="45.023285932838917" lon="5.706264981999993"><ele></ele><time>2015-2-4T9:19:28Z</time></trkpt>
<trkpt lat="45.022749993950129" lon="5.70604495704174"><ele></ele><time>2015-2-4T9:19:31Z</time></trkpt>
<trkpt lat="45.022123949602246" lon="5.705832978710532"><ele></ele><time>2015-2-4T9:19:34Z</time></trkpt>
<trkpt lat="45.021473933011293" lon="5.705592921003699"><ele></ele><time>2015-2-4T9:19:37Z</time></trkpt>
<trkpt lat="45.02086297608912" lon="5.705528967082501"><ele></ele><time>2015-2-4T9:19:40Z</time></trkpt>
<trkpt lat="45.020301975309849" lon="5.705559980124235"><ele></ele><time>2015-2-4T9:19:43Z</time></trkpt>
<trkpt lat="45.019838958978653" lon="5.705459984019399"><ele></ele><time>2015-2-4T9:19:46Z</time></trkpt>
<trkpt lat="45.019060950726271" lon="5.705401981249452"><ele></ele><time>2015-2-4T9:19:49Z</time></trkpt>
<trkpt lat="45.018601957708597" lon="5.705030998215079"><ele></ele><time>2015-2-4T9:19:52Z</time></trkpt>
<trkpt lat="45.017972979694605" lon="5.70441291667521"><ele></ele><time>2015-2-4T9:19:55Z</time></trkpt>
<trkpt lat="45.017367973923683" lon="5.703997928649187"><ele></ele><time>2015-2-4T9:19:58Z</time></trkpt>
<trkpt lat="45.01669398508966" lon="5.703828949481249"><ele></ele><time>2015-2-4T9:20:1Z</time></trkpt>
<trkpt lat="45.016014967113733" lon="5.704017961397767"><ele></ele><time>2015-2-4T9:20:4Z</time></trkpt>
<trkpt lat="45.015587992966175" lon="5.704250978305936"><ele></ele><time>2015-2-4T9:20:7Z</time></trkpt>
<trkpt lat="45.015141991898417" lon="5.704387938603759"><ele></ele><time>2015-2-4T9:20:10Z</time></trkpt>
<trkpt lat="45.01469699665904" lon="5.703954929485917"><ele></ele><time>2015-2-4T9:20:13Z</time></trkpt>
<trkpt lat="45.014314949512482" lon="5.703555950894952"><ele></ele><time>2015-2-4T9:20:16Z</time></trkpt>
<trkpt lat="45.013842964544892" lon="5.702947927638888"><ele></ele><time>2015-2-4T9:20:19Z</time></trkpt>
<trkpt lat="45.013775993138552" lon="5.702054919674993"><ele></ele><time>2015-2-4T9:20:22Z</time></trkpt>
<trkpt lat="45.013350946828723" lon="5.701796924695373"><ele></ele><time>2015-2-4T9:20:25Z</time></trkpt>
<trkpt lat="45.012776954099536" lon="5.70202399045229"><ele></ele><time>2015-2-4T9:20:28Z</time></trkpt>
<trkpt lat="45.01226993277669" lon="5.702207973226905"><ele></ele><time>2015-2-4T9:20:31Z</time></trkpt>
<trkpt lat="45.011771963909268" lon="5.701880995184183"><ele></ele><time>2015-2-4T9:20:34Z</time></trkpt>
<trkpt lat="45.011209957301617" lon="5.701276995241642"><ele></ele><time>2015-2-4T9:20:37Z</time></trkpt>
<trkpt lat="45.010796980932355" lon="5.700707947835326"><ele></ele><time>2015-2-4T9:20:40Z</time></trkpt>
<trkpt lat="45.010367995128036" lon="5.700347945094109"><ele></ele><time>2015-2-4T9:20:43Z</time></trkpt>
<trkpt lat="45.009687971323729" lon="5.700212996453047"><ele></ele><time>2015-2-4T9:20:46Z</time></trkpt>
<trkpt lat="45.009226966649294" lon="5.700256917625666"><ele></ele><time>2015-2-4T9:20:49Z</time></trkpt>
<trkpt lat="45.008711982518435" lon="5.700311986729503"><ele></ele><time>2015-2-4T9:20:52Z</time></trkpt>
<trkpt lat="45.00818895176053" lon="5.700343921780586"><ele></ele><time>2015-2-4T9:20:55Z</time></trkpt>
<trkpt lat="45.00771495513618" lon="5.700387926772237"><ele></ele><time>2015-2-4T9:20:58Z</time></trkpt>
<trkpt lat="45.007136939093471" lon="5.700505943968892"><ele></ele><time>2015-2-4T9:21:1Z</time></trkpt>
<trkpt lat="45.006503937765956" lon="5.700741978362203"><ele></ele><time>2015-2-4T9:21:4Z</time></trkpt>
<trkpt lat="45.006022984161973" lon="5.700775925070047"><ele></ele><time>2015-2-4T9:21:7Z</time></trkpt>
<trkpt lat="45.005535995587707" lon="5.700749941170216"><ele></ele><time>2015-2-4T9:21:10Z</time></trkpt>
<trkpt lat="45.004975916817784" lon="5.700899977236986"><ele></ele><time>2015-2-4T9:21:13Z</time></trkpt>
<trkpt lat="45.004498986527324" lon="5.701264925301075"><ele></ele><time>2015-2-4T9:21:16Z</time></trkpt>
<trkpt lat="45.003749979659915" lon="5.701430970802903"><ele></ele><time>2015-2-4T9:21:19Z</time></trkpt>
<trkpt lat="45.003395928069949" lon="5.701073985546827"><ele></ele><time>2015-2-4T9:21:22Z</time></trkpt>
<trkpt lat="45.003216974437237" lon="5.700385998934507"><ele></ele><time>2015-2-4T9:21:25Z</time></trkpt>
<trkpt lat="45.002903994172812" lon="5.699758948758245"><ele></ele><time>2015-2-4T9:21:28Z</time></trkpt>
<trkpt lat="45.002391943708062" lon="5.699324933812022"><ele></ele><time>2015-2-4T9:21:31Z</time></trkpt>
<trkpt lat="45.001876959577203" lon="5.699182944372296"><ele></ele><time>2015-2-4T9:21:34Z</time></trkpt>
<trkpt lat="45.001325933262706" lon="5.699233990162611"><ele></ele><time>2015-2-4T9:21:37Z</time></trkpt>
<trkpt lat="45.000872975215316" lon="5.699210939928889"><ele></ele><time>2015-2-4T9:21:40Z</time></trkpt>
<trkpt lat="45.000407947227359" lon="5.699117984622717"><ele></ele><time>2015-2-4T9:21:43Z</time></trkpt>
<trkpt lat="44.999881982803345" lon="5.699196942150593"><ele></ele><time>2015-2-4T9:21:46Z</time></trkpt>
<trkpt lat="44.999299943447113" lon="5.699455942958593"><ele></ele><time>2015-2-4T9:21:49Z</time></trkpt>
<trkpt lat="44.998694937676191" lon="5.699483938515186"><ele></ele><time>2015-2-4T9:21:52Z</time></trkpt>
<trkpt lat="44.998241979628801" lon="5.699265925213695"><ele></ele><time>2015-2-4T9:21:55Z</time></trkpt>
<trkpt lat="44.997754991054535" lon="5.69884498603642"><ele></ele><time>2015-2-4T9:21:58Z</time></trkpt>
<trkpt lat="44.997271941974759" lon="5.698478948324919"><ele></ele><time>2015-2-4T9:22:1Z</time></trkpt>
<trkpt lat="44.996752934530377" lon="5.698162950575352"><ele></ele><time>2015-2-4T9:22:4Z</time></trkpt>
<trkpt lat="44.996255971491337" lon="5.698005957528949"><ele></ele><time>2015-2-4T9:22:7Z</time></trkpt>
<trkpt lat="44.995763953775167" lon="5.697838990017772"><ele></ele><time>2015-2-4T9:22:10Z</time></trkpt>
<trkpt lat="44.99520898796618" lon="5.697647966444492"><ele></ele><time>2015-2-4T9:22:13Z</time></trkpt>
<trkpt lat="44.994696937501431" lon="5.697601949796081"><ele></ele><time>2015-2-4T9:22:16Z</time></trkpt>
<trkpt lat="44.994202991947532" lon="5.697548976168037"><ele></ele><time>2015-2-4T9:22:19Z</time></trkpt>
<trkpt lat="44.993736958131194" lon="5.697522992268205"><ele></ele><time>2015-2-4T9:22:22Z</time></trkpt>
<trkpt lat="44.993209987878799" lon="5.697509916499257"><ele></ele><time>2015-2-4T9:22:25Z</time></trkpt>
<trkpt lat="44.992731967940927" lon="5.697392988950014"><ele></ele><time>2015-2-4T9:22:28Z</time></trkpt>
<trkpt lat="44.992207931354642" lon="5.697396928444505"><ele></ele><time>2015-2-4T9:22:31Z</time></trkpt>
<trkpt lat="44.991654977202415" lon="5.697527937591076"><ele></ele><time>2015-2-4T9:22:34Z</time></trkpt>
<trkpt lat="44.991280976682901" lon="5.698106959462166"><ele></ele><time>2015-2-4T9:22:37Z</time></trkpt>
<trkpt lat="44.990873951464891" lon="5.698822941631079"><ele></ele><time>2015-2-4T9:22:40Z</time></trkpt>
<trkpt lat="44.99046097509563" lon="5.699328957125545"><ele></ele><time>2015-2-4T9:22:43Z</time></trkpt>
<trkpt lat="44.989970969036222" lon="5.699572954326868"><ele></ele><time>2015-2-4T9:22:46Z</time></trkpt>
<trkpt lat="44.989741975441575" lon="5.699038943275809"><ele></ele><time>2015-2-4T9:22:49Z</time></trkpt>
<trkpt lat="44.989521950483322" lon="5.698499986901879"><ele></ele><time>2015-2-4T9:22:52Z</time></trkpt>
<trkpt lat="44.988917950540781" lon="5.698484983295202"><ele></ele><time>2015-2-4T9:22:55Z</time></trkpt>
<trkpt lat="44.988386956974864" lon="5.698674917221069"><ele></ele><time>2015-2-4T9:22:58Z</time></trkpt>
<trkpt lat="44.987985966727138" lon="5.698984963819385"><ele></ele><time>2015-2-4T9:23:1Z</time></trkpt>
<trkpt lat="44.987739957869053" lon="5.699611930176616"><ele></ele><time>2015-2-4T9:23:4Z</time></trkpt>
<trkpt lat="44.987301919609308" lon="5.699821980670095"><ele></ele><time>2015-2-4T9:23:7Z</time></trkpt>
<trkpt lat="44.986825995147228" lon="5.699875960126519"><ele></ele><time>2015-2-4T9:23:10Z</time></trkpt>
<trkpt lat="44.986551990732551" lon="5.700438972562552"><ele></ele><time>2015-2-4T9:23:13Z</time></trkpt>
<trkpt lat="44.986182935535908" lon="5.700974995270371"><ele></ele><time>2015-2-4T9:23:16Z</time></trkpt>
<trkpt lat="44.985671974718571" lon="5.701368944719434"><ele></ele><time>2015-2-4T9:23:19Z</time></trkpt>
<trkpt lat="44.985156990587711" lon="5.701576983556151"><ele></ele><time>2015-2-4T9:23:22Z</time></trkpt>
<trkpt lat="44.984663967043161" lon="5.70181192830205"><ele></ele><time>2015-2-4T9:23:25Z</time></trkpt>
<trkpt lat="44.98408192768693" lon="5.702035976573825"><ele></ele><time>2015-2-4T9:23:28Z</time></trkpt>
<trkpt lat="44.983667945489287" lon="5.702506955713034"><ele></ele><time>2015-2-4T9:23:31Z</time></trkpt>
<trkpt lat="44.983175927773118" lon="5.702804932370782"><ele></ele><time>2015-2-4T9:23:34Z</time></trkpt>
<trkpt lat="44.982678964734077" lon="5.702869975939393"><ele></ele><time>2015-2-4T9:23:37Z</time></trkpt>
<trkpt lat="44.982043951749802" lon="5.702904928475618"><ele></ele><time>2015-2-4T9:23:40Z</time></trkpt>
<trkpt lat="44.981538942083716" lon="5.703105926513672"><ele></ele><time>2015-2-4T9:23:43Z</time></trkpt>
<trkpt lat="44.981085984036326" lon="5.703283958137035"><ele></ele><time>2015-2-4T9:23:46Z</time></trkpt>
<trkpt lat="44.980633947998285" lon="5.703454948961735"><ele></ele><time>2015-2-4T9:23:49Z</time></trkpt>
<trkpt lat="44.980125920847058" lon="5.70339996367693"><ele></ele><time>2015-2-4T9:23:52Z</time></trkpt>
<trkpt lat="44.979617977514863" lon="5.703531978651881"><ele></ele><time>2015-2-4T9:23:55Z</time></trkpt>
<trkpt lat="44.979040967300534" lon="5.7037019636482"><ele></ele><time>2015-2-4T9:23:58Z</time></trkpt>
<trkpt lat="44.978446941822767" lon="5.703656952828169"><ele></ele><time>2015-2-4T9:24:1Z</time></trkpt>
<trkpt lat="44.977994989603758" lon="5.703698946163058"><ele></ele><time>2015-2-4T9:24:4Z</time></trkpt>
<trkpt lat="44.977362994104624" lon="5.703779999166727"><ele></ele><time>2015-2-4T9:24:7Z</time></trkpt>
<trkpt lat="44.976812973618507" lon="5.703836996108294"><ele></ele><time>2015-2-4T9:24:10Z</time></trkpt>
<trkpt lat="44.97611291706562" lon="5.703906984999776"><ele></ele><time>2015-2-4T9:24:13Z</time></trkpt>
<trkpt lat="44.975647972896695" lon="5.703912936151028"><ele></ele><time>2015-2-4T9:24:16Z</time></trkpt>
<trkpt lat="44.975104993209243" lon="5.703890975564718"><ele></ele><time>2015-2-4T9:24:19Z</time></trkpt>
<trkpt lat="44.974588919430971" lon="5.703892987221479"><ele></ele><time>2015-2-4T9:24:22Z</time></trkpt>
<trkpt lat="44.974023979157209" lon="5.703865997493267"><ele></ele><time>2015-2-4T9:24:25Z</time></trkpt>
<trkpt lat="44.973532967269421" lon="5.703855939209461"><ele></ele><time>2015-2-4T9:24:28Z</time></trkpt>
<trkpt lat="44.973025945946574" lon="5.703844958916307"><ele></ele><time>2015-2-4T9:24:31Z</time></trkpt>
<trkpt lat="44.972454970702529" lon="5.703844958916307"><ele></ele><time>2015-2-4T9:24:34Z</time></trkpt>
<trkpt lat="44.972003940492868" lon="5.703847976401448"><ele></ele><time>2015-2-4T9:24:37Z</time></trkpt>
<trkpt lat="44.971506977453828" lon="5.703829955309629"><ele></ele><time>2015-2-4T9:24:40Z</time></trkpt>
<trkpt lat="44.971053935587406" lon="5.703805983066559"><ele></ele><time>2015-2-4T9:24:43Z</time></trkpt>
<trkpt lat="44.970459993928671" lon="5.703778993338347"><ele></ele><time>2015-2-4T9:24:46Z</time></trkpt>
<trkpt lat="44.96998893097043" lon="5.703797936439514"><ele></ele><time>2015-2-4T9:24:49Z</time></trkpt>
<trkpt lat="44.96942893601954" lon="5.703645972535014"><ele></ele><time>2015-2-4T9:24:52Z</time></trkpt>
<trkpt lat="44.968954939395189" lon="5.703252945095301"><ele></ele><time>2015-2-4T9:24:55Z</time></trkpt>
<trkpt lat="44.968507932499051" lon="5.702856983989477"><ele></ele><time>2015-2-4T9:24:58Z</time></trkpt>
<trkpt lat="44.967927988618612" lon="5.702335964888334"><ele></ele><time>2015-2-4T9:25:1Z</time></trkpt>
<trkpt lat="44.967474946752191" lon="5.701932962983847"><ele></ele><time>2015-2-4T9:25:4Z</time></trkpt>
<trkpt lat="44.967027939856052" lon="5.701526943594217"><ele></ele><time>2015-2-4T9:25:7Z</time></trkpt>
<trkpt lat="44.966573975980282" lon="5.701134921982884"><ele></ele><time>2015-2-4T9:25:10Z</time></trkpt>
<trkpt lat="44.966186983510852" lon="5.700789922848344"><ele></ele><time>2015-2-4T9:25:13Z</time></trkpt>
<trkpt lat="44.965677950531244" lon="5.700525976717472"><ele></ele><time>2015-2-4T9:25:16Z</time></trkpt>
<trkpt lat="44.965210994705558" lon="5.700489934533835"><ele></ele><time>2015-2-4T9:25:19Z</time></trkpt>
<trkpt lat="44.964881921187043" lon="5.701192924752832"><ele></ele><time>2015-2-4T9:25:22Z</time></trkpt>
<trkpt lat="44.964711936190724" lon="5.701791979372501"><ele></ele><time>2015-2-4T9:25:25Z</time></trkpt>
<trkpt lat="44.96446299366653" lon="5.702627990394831"><ele></ele><time>2015-2-4T9:25:28Z</time></trkpt>
<trkpt lat="44.964005928486586" lon="5.703500965610147"><ele></ele><time>2015-2-4T9:25:31Z</time></trkpt>
<trkpt lat="44.963257927447557" lon="5.70402299053967"><ele></ele><time>2015-2-4T9:25:34Z</time></trkpt>
<trkpt lat="44.962814943864942" lon="5.704176966100931"><ele></ele><time>2015-2-4T9:25:37Z</time></trkpt>
<trkpt lat="44.9619519431144" lon="5.704285930842161"><ele></ele><time>2015-2-4T9:25:40Z</time></trkpt>
<trkpt lat="44.961487920954823" lon="5.704331947490573"><ele></ele><time>2015-2-4T9:25:43Z</time></trkpt>
<trkpt lat="44.961178964003921" lon="5.704878950491548"><ele></ele><time>2015-2-4T9:25:46Z</time></trkpt>
<trkpt lat="44.961211988702416" lon="5.705710938200355"><ele></ele><time>2015-2-4T9:25:49Z</time></trkpt>
<trkpt lat="44.961308967322111" lon="5.706767980009317"><ele></ele><time>2015-2-4T9:25:52Z</time></trkpt>
<trkpt lat="44.96139295399189" lon="5.707414979115129"><ele></ele><time>2015-2-4T9:25:55Z</time></trkpt>
<trkpt lat="44.961582971736789" lon="5.70834394544363"><ele></ele><time>2015-2-4T9:25:58Z</time></trkpt>
<trkpt lat="44.961880948394537" lon="5.709279952570796"><ele></ele><time>2015-2-4T9:26:1Z</time></trkpt>
<trkpt lat="44.96201497502625" lon="5.710620973259211"><ele></ele><time>2015-2-4T9:26:4Z</time></trkpt>
<trkpt lat="44.962034923955798" lon="5.711341984570026"><ele></ele><time>2015-2-4T9:26:7Z</time></trkpt>
<trkpt lat="44.962045988067985" lon="5.711984960362315"><ele></ele><time>2015-2-4T9:26:10Z</time></trkpt>
<trkpt lat="44.961989996954799" lon="5.712959943339229"><ele></ele><time>2015-2-4T9:26:13Z</time></trkpt>
<trkpt lat="44.96184398420155" lon="5.714110946282744"><ele></ele><time>2015-2-4T9:26:16Z</time></trkpt>
<trkpt lat="44.961872985586524" lon="5.715163964778185"><ele></ele><time>2015-2-4T9:26:19Z</time></trkpt>
<trkpt lat="44.962622998282313" lon="5.716110952198505"><ele></ele><time>2015-2-4T9:26:22Z</time></trkpt>
<trkpt lat="44.963061958551407" lon="5.716573968529701"><ele></ele><time>2015-2-4T9:26:25Z</time></trkpt>
<trkpt lat="44.963889922946692" lon="5.717456918209791"><ele></ele><time>2015-2-4T9:26:28Z</time></trkpt>
<trkpt lat="44.964283956214786" lon="5.718025965616107"><ele></ele><time>2015-2-4T9:26:31Z</time></trkpt>
<trkpt lat="44.96455192565918" lon="5.718624936416745"><ele></ele><time>2015-2-4T9:26:34Z</time></trkpt>
<trkpt lat="44.964627949520946" lon="5.719609977677465"><ele></ele><time>2015-2-4T9:26:37Z</time></trkpt>
<trkpt lat="44.964371966198087" lon="5.720504997298122"><ele></ele><time>2015-2-4T9:26:40Z</time></trkpt>
<trkpt lat="44.964004922658205" lon="5.721088964492083"><ele></ele><time>2015-2-4T9:26:43Z</time></trkpt>
<trkpt lat="44.963813982903957" lon="5.721761947497726"><ele></ele><time>2015-2-4T9:26:46Z</time></trkpt>
<trkpt lat="44.96444296091795" lon="5.722373994067311"><ele></ele><time>2015-2-4T9:26:49Z</time></trkpt>
<trkpt lat="44.96495995670557" lon="5.722975982353091"><ele></ele><time>2015-2-4T9:26:52Z</time></trkpt>
<trkpt lat="44.965511988848448" lon="5.723157953470945"><ele></ele><time>2015-2-4T9:26:55Z</time></trkpt>
<trkpt lat="44.96620299294591" lon="5.723098944872618"><ele></ele><time>2015-2-4T9:26:58Z</time></trkpt>
<trkpt lat="44.966688975691795" lon="5.723582999780774"><ele></ele><time>2015-2-4T9:27:1Z</time></trkpt>
<trkpt lat="44.966803975403309" lon="5.724859982728958"><ele></ele><time>2015-2-4T9:27:4Z</time></trkpt>
<trkpt lat="44.967326922342181" lon="5.725716948509216"><ele></ele><time>2015-2-4T9:27:7Z</time></trkpt>
<trkpt lat="44.968091938644648" lon="5.726340981200337"><ele></ele><time>2015-2-4T9:27:10Z</time></trkpt>
<trkpt lat="44.96854598633945" lon="5.72669293731451"><ele></ele><time>2015-2-4T9:27:13Z</time></trkpt>
<trkpt lat="44.969016965478659" lon="5.727714942768216"><ele></ele><time>2015-2-4T9:27:16Z</time></trkpt>
<trkpt lat="44.969648960977793" lon="5.728142922744155"><ele></ele><time>2015-2-4T9:27:19Z</time></trkpt>
<trkpt lat="44.969989936798811" lon="5.728788999840617"><ele></ele><time>2015-2-4T9:27:22Z</time></trkpt>
<trkpt lat="44.969846941530704" lon="5.729465922340751"><ele></ele><time>2015-2-4T9:27:25Z</time></trkpt>
<trkpt lat="44.969111932441592" lon="5.729587962850928"><ele></ele><time>2015-2-4T9:27:28Z</time></trkpt>
<trkpt lat="44.968385975807905" lon="5.729670943692327"><ele></ele><time>2015-2-4T9:27:31Z</time></trkpt>
<trkpt lat="44.967759931460023" lon="5.72974193841219"><ele></ele><time>2015-2-4T9:27:34Z</time></trkpt>
<trkpt lat="44.967283923178911" lon="5.729653928428888"><ele></ele><time>2015-2-4T9:27:37Z</time></trkpt>
<trkpt lat="44.966769944876432" lon="5.729725928977132"><ele></ele><time>2015-2-4T9:27:40Z</time></trkpt>
<trkpt lat="44.966216990724206" lon="5.729985935613513"><ele></ele><time>2015-2-4T9:27:43Z</time></trkpt>
<trkpt lat="44.965673927217722" lon="5.729650994762778"><ele></ele><time>2015-2-4T9:27:46Z</time></trkpt>
<trkpt lat="44.965228931978345" lon="5.729500958696008"><ele></ele><time>2015-2-4T9:27:49Z</time></trkpt>
<trkpt lat="44.964583944529295" lon="5.729789966717362"><ele></ele><time>2015-2-4T9:27:52Z</time></trkpt>
<trkpt lat="44.964089998975396" lon="5.730250971391797"><ele></ele><time>2015-2-4T9:27:55Z</time></trkpt>
<trkpt lat="44.963574931025505" lon="5.730698984116316"><ele></ele><time>2015-2-4T9:27:58Z</time></trkpt>
<trkpt lat="44.963171929121017" lon="5.731067955493927"><ele></ele><time>2015-2-4T9:28:1Z</time></trkpt>
<trkpt lat="44.962615957483649" lon="5.731477998197079"><ele></ele><time>2015-2-4T9:28:4Z</time></trkpt>
<trkpt lat="44.96212494559586" lon="5.731659969314933"><ele></ele><time>2015-2-4T9:28:7Z</time></trkpt>
<trkpt lat="44.961987985298038" lon="5.732310991734266"><ele></ele><time>2015-2-4T9:28:10Z</time></trkpt>
<trkpt lat="44.961870973929763" lon="5.733241969719529"><ele></ele><time>2015-2-4T9:28:13Z</time></trkpt>
<trkpt lat="44.961941968649626" lon="5.73386893607676"><ele></ele><time>2015-2-4T9:28:16Z</time></trkpt>
<trkpt lat="44.961866950616241" lon="5.734566980972886"><ele></ele><time>2015-2-4T9:28:19Z</time></trkpt>
<trkpt lat="44.961730996146798" lon="5.735246920958161"><ele></ele><time>2015-2-4T9:28:22Z</time></trkpt>
<trkpt lat="44.961777934804559" lon="5.736208995804191"><ele></ele><time>2015-2-4T9:28:25Z</time></trkpt>
<trkpt lat="44.961640974506736" lon="5.736947944387794"><ele></ele><time>2015-2-4T9:28:28Z</time></trkpt>
<trkpt lat="44.961511977016926" lon="5.737693933770061"><ele></ele><time>2015-2-4T9:28:31Z</time></trkpt>
<trkpt lat="44.961841972544789" lon="5.738418968394399"><ele></ele><time>2015-2-4T9:28:34Z</time></trkpt>
<trkpt lat="44.961728984490037" lon="5.739298984408379"><ele></ele><time>2015-2-4T9:28:37Z</time></trkpt>
<trkpt lat="44.961411980912089" lon="5.739987976849079"><ele></ele><time>2015-2-4T9:28:40Z</time></trkpt>
<trkpt lat="44.961340986192226" lon="5.740665988996625"><ele></ele><time>2015-2-4T9:28:43Z</time></trkpt>
<trkpt lat="44.961748933419585" lon="5.74110796675086"><ele></ele><time>2015-2-4T9:28:46Z</time></trkpt>
<trkpt lat="44.962182948365808" lon="5.741268983110786"><ele></ele><time>2015-2-4T9:28:49Z</time></trkpt>
<trkpt lat="44.962430968880653" lon="5.741849932819605"><ele></ele><time>2015-2-4T9:28:52Z</time></trkpt>
<trkpt lat="44.962117988616228" lon="5.742500955238938"><ele></ele><time>2015-2-4T9:28:55Z</time></trkpt>
<trkpt lat="44.961986979469657" lon="5.743427993729711"><ele></ele><time>2015-2-4T9:28:58Z</time></trkpt>
<trkpt lat="44.961960995569825" lon="5.744218993932009"><ele></ele><time>2015-2-4T9:29:1Z</time></trkpt>
<trkpt lat="44.961882960051298" lon="5.744981998577714"><ele></ele><time>2015-2-4T9:29:4Z</time></trkpt>
<trkpt lat="44.961469983682036" lon="5.745710972696543"><ele></ele><time>2015-2-4T9:29:7Z</time></trkpt>
<trkpt lat="44.961080979555845" lon="5.74609394185245"><ele></ele><time>2015-2-4T9:29:10Z</time></trkpt>
<trkpt lat="44.960495922714472" lon="5.746194943785667"><ele></ele><time>2015-2-4T9:29:13Z</time></trkpt>
<trkpt lat="44.959902986884117" lon="5.746422931551933"><ele></ele><time>2015-2-4T9:29:16Z</time></trkpt>
<trkpt lat="44.959359923377633" lon="5.746644968166947"><ele></ele><time>2015-2-4T9:29:19Z</time></trkpt>
<trkpt lat="44.958928925916553" lon="5.746991978958249"><ele></ele><time>2015-2-4T9:29:22Z</time></trkpt>
<trkpt lat="44.958630949258804" lon="5.747644929215312"><ele></ele><time>2015-2-4T9:29:25Z</time></trkpt>
<trkpt lat="44.958198945969343" lon="5.748155973851681"><ele></ele><time>2015-2-4T9:29:28Z</time></trkpt>
<trkpt lat="44.957681950181723" lon="5.748574985191226"><ele></ele><time>2015-2-4T9:29:31Z</time></trkpt>
<trkpt lat="44.957166966050863" lon="5.749121988192201"><ele></ele><time>2015-2-4T9:29:34Z</time></trkpt>
<trkpt lat="44.95677494443953" lon="5.749555919319391"><ele></ele><time>2015-2-4T9:29:37Z</time></trkpt>
<trkpt lat="44.956303965300322" lon="5.749860936775804"><ele></ele><time>2015-2-4T9:29:40Z</time></trkpt>
<trkpt lat="44.955787975341082" lon="5.750479940325022"><ele></ele><time>2015-2-4T9:29:43Z</time></trkpt>
<trkpt lat="44.955494944006205" lon="5.751022920012474"><ele></ele><time>2015-2-4T9:29:46Z</time></trkpt>
<trkpt lat="44.955018935725093" lon="5.751828923821449"><ele></ele><time>2015-2-4T9:29:49Z</time></trkpt>
<trkpt lat="44.954645941033959" lon="5.752489920705557"><ele></ele><time>2015-2-4T9:29:52Z</time></trkpt>
<trkpt lat="44.954233970493078" lon="5.753192994743586"><ele></ele><time>2015-2-4T9:29:55Z</time></trkpt>
<trkpt lat="44.953916966915131" lon="5.753746954724193"><ele></ele><time>2015-2-4T9:29:58Z</time></trkpt>
<trkpt lat="44.953597951680422" lon="5.754304938018322"><ele></ele><time>2015-2-4T9:30:1Z</time></trkpt>
<trkpt lat="44.953346997499466" lon="5.754740964621306"><ele></ele><time>2015-2-4T9:30:4Z</time></trkpt>
<trkpt lat="44.953029993921518" lon="5.755413947626948"><ele></ele><time>2015-2-4T9:30:7Z</time></trkpt>
<trkpt lat="44.9524559173733" lon="5.756268985569477"><ele></ele><time>2015-2-4T9:30:10Z</time></trkpt>
<trkpt lat="44.951757956296206" lon="5.75709099881351"><ele></ele><time>2015-2-4T9:30:13Z</time></trkpt>
<trkpt lat="44.950948935002089" lon="5.757861966267228"><ele></ele><time>2015-2-4T9:30:16Z</time></trkpt>
<trkpt lat="44.950362956151366" lon="5.758101940155029"><ele></ele><time>2015-2-4T9:30:19Z</time></trkpt>
<trkpt lat="44.949304992333055" lon="5.757719976827502"><ele></ele><time>2015-2-4T9:30:22Z</time></trkpt>
<trkpt lat="44.948805933818221" lon="5.757780997082591"><ele></ele><time>2015-2-4T9:30:25Z</time></trkpt>
<trkpt lat="44.948094980791211" lon="5.758230937644839"><ele></ele><time>2015-2-4T9:30:28Z</time></trkpt>
<trkpt lat="44.947500955313444" lon="5.758498990908265"><ele></ele><time>2015-2-4T9:30:31Z</time></trkpt>
<trkpt lat="44.946591937914491" lon="5.758809959515929"><ele></ele><time>2015-2-4T9:30:34Z</time></trkpt>
<trkpt lat="44.945893976837397" lon="5.75928496196866"><ele></ele><time>2015-2-4T9:30:37Z</time></trkpt>
<trkpt lat="44.945532968267798" lon="5.760255921632052"><ele></ele><time>2015-2-4T9:30:40Z</time></trkpt>
<trkpt lat="44.94474096223712" lon="5.761413965374231"><ele></ele><time>2015-2-4T9:30:43Z</time></trkpt>
<trkpt lat="44.944275934249163" lon="5.76205593533814"><ele></ele><time>2015-2-4T9:30:46Z</time></trkpt>
<trkpt lat="44.943891959264874" lon="5.762455919757485"><ele></ele><time>2015-2-4T9:30:49Z</time></trkpt>
<trkpt lat="44.943438917398453" lon="5.76270192861557"><ele></ele><time>2015-2-4T9:30:52Z</time></trkpt>
<trkpt lat="44.94287297129631" lon="5.762838972732425"><ele></ele><time>2015-2-4T9:30:55Z</time></trkpt>
<trkpt lat="44.942373996600509" lon="5.763035947456956"><ele></ele><time>2015-2-4T9:30:58Z</time></trkpt>
<trkpt lat="44.942043917253613" lon="5.763463927432895"><ele></ele><time>2015-2-4T9:31:1Z</time></trkpt>
<trkpt lat="44.941415945068002" lon="5.764257945120335"><ele></ele><time>2015-2-4T9:31:4Z</time></trkpt>
<trkpt lat="44.940833989530802" lon="5.764992954209447"><ele></ele><time>2015-2-4T9:31:7Z</time></trkpt>
<trkpt lat="44.940471975132823" lon="5.765502993017435"><ele></ele><time>2015-2-4T9:31:10Z</time></trkpt>
<trkpt lat="44.9400569871068" lon="5.766012948006392"><ele></ele><time>2015-2-4T9:31:13Z</time></trkpt>
<trkpt lat="44.939365983009338" lon="5.766883995383978"><ele></ele><time>2015-2-4T9:31:16Z</time></trkpt>
<trkpt lat="44.938849993050098" lon="5.767542980611324"><ele></ele><time>2015-2-4T9:31:19Z</time></trkpt>
<trkpt lat="44.938249932602048" lon="5.768304979428649"><ele></ele><time>2015-2-4T9:31:22Z</time></trkpt>
<trkpt lat="44.93771499954164" lon="5.768976956605911"><ele></ele><time>2015-2-4T9:31:25Z</time></trkpt>
<trkpt lat="44.937224993482232" lon="5.769608952105045"><ele></ele><time>2015-2-4T9:31:28Z</time></trkpt>
<trkpt lat="44.93683397769928" lon="5.770028969272971"><ele></ele><time>2015-2-4T9:31:31Z</time></trkpt>
<trkpt lat="44.936385964974761" lon="5.770294927060604"><ele></ele><time>2015-2-4T9:31:34Z</time></trkpt>
<trkpt lat="44.935878943651915" lon="5.770529955625534"><ele></ele><time>2015-2-4T9:31:37Z</time></trkpt>
<trkpt lat="44.935286929830909" lon="5.770730953663588"><ele></ele><time>2015-2-4T9:31:40Z</time></trkpt>
<trkpt lat="44.934609923511744" lon="5.771152982488275"><ele></ele><time>2015-2-4T9:31:43Z</time></trkpt>
<trkpt lat="44.934131987392902" lon="5.771367978304625"><ele></ele><time>2015-2-4T9:31:46Z</time></trkpt>
<trkpt lat="44.933632928878069" lon="5.771610969677568"><ele></ele><time>2015-2-4T9:31:49Z</time></trkpt>
<trkpt lat="44.93307595141232" lon="5.771885979920626"><ele></ele><time>2015-2-4T9:31:52Z</time></trkpt>
<trkpt lat="44.93251696228981" lon="5.772165935486555"><ele></ele><time>2015-2-4T9:31:55Z</time></trkpt>
<trkpt lat="44.932072972878814" lon="5.772463995963335"><ele></ele><time>2015-2-4T9:31:58Z</time></trkpt>
<trkpt lat="44.931518929079175" lon="5.772969927638769"><ele></ele><time>2015-2-4T9:32:1Z</time></trkpt>
<trkpt lat="44.931012997403741" lon="5.773445935919881"><ele></ele><time>2015-2-4T9:32:4Z</time></trkpt>
<trkpt lat="44.930589962750673" lon="5.773832928389311"><ele></ele><time>2015-2-4T9:32:7Z</time></trkpt>
<trkpt lat="44.929838944226503" lon="5.774519992992282"><ele></ele><time>2015-2-4T9:32:10Z</time></trkpt>
<trkpt lat="44.929415993392467" lon="5.774914948269725"><ele></ele><time>2015-2-4T9:32:13Z</time></trkpt>
<trkpt lat="44.92901399731636" lon="5.775300934910774"><ele></ele><time>2015-2-4T9:32:16Z</time></trkpt>
<trkpt lat="44.928421983495355" lon="5.775744924321771"><ele></ele><time>2015-2-4T9:32:19Z</time></trkpt>
<trkpt lat="44.927795939147472" lon="5.776422936469317"><ele></ele><time>2015-2-4T9:32:22Z</time></trkpt>
<trkpt lat="44.927384974434972" lon="5.776817975565791"><ele></ele><time>2015-2-4T9:32:25Z</time></trkpt>
<trkpt lat="44.926991946995258" lon="5.777168925851584"><ele></ele><time>2015-2-4T9:32:28Z</time></trkpt>
<trkpt lat="44.926545945927501" lon="5.777553990483284"><ele></ele><time>2015-2-4T9:32:31Z</time></trkpt>
<trkpt lat="44.926053928211331" lon="5.777986999601126"><ele></ele><time>2015-2-4T9:32:34Z</time></trkpt>
<trkpt lat="44.925484964624047" lon="5.778519921004772"><ele></ele><time>2015-2-4T9:32:37Z</time></trkpt>
<trkpt lat="44.924528924748302" lon="5.778908925130963"><ele></ele><time>2015-2-4T9:32:40Z</time></trkpt>
<trkpt lat="44.923824928700924" lon="5.779100954532623"><ele></ele><time>2015-2-4T9:32:43Z</time></trkpt>
<trkpt lat="44.923121938481927" lon="5.779303964227438"><ele></ele><time>2015-2-4T9:32:46Z</time></trkpt>
<trkpt lat="44.922427916899323" lon="5.779488952830434"><ele></ele><time>2015-2-4T9:32:49Z</time></trkpt>
<trkpt lat="44.92175099439919" lon="5.779678970575333"><ele></ele><time>2015-2-4T9:32:52Z</time></trkpt>
<trkpt lat="44.920957982540131" lon="5.779902935028076"><ele></ele><time>2015-2-4T9:32:55Z</time></trkpt>
<trkpt lat="44.920424977317452" lon="5.780065963044763"><ele></ele><time>2015-2-4T9:32:58Z</time></trkpt>
<trkpt lat="44.919873951002955" lon="5.780224967747927"><ele></ele><time>2015-2-4T9:33:1Z</time></trkpt>
<trkpt lat="44.919346980750561" lon="5.780380954965949"><ele></ele><time>2015-2-4T9:33:4Z</time></trkpt>
<trkpt lat="44.918762929737568" lon="5.780550939962268"><ele></ele><time>2015-2-4T9:33:7Z</time></trkpt>
<trkpt lat="44.918195977807045" lon="5.780711956322193"><ele></ele><time>2015-2-4T9:33:10Z</time></trkpt>
<trkpt lat="44.917665990069509" lon="5.780848916620016"><ele></ele><time>2015-2-4T9:33:13Z</time></trkpt>
<trkpt lat="44.916737945750356" lon="5.781124932691455"><ele></ele><time>2015-2-4T9:33:16Z</time></trkpt>
<trkpt lat="44.916233941912651" lon="5.781290978193283"><ele></ele><time>2015-2-4T9:33:19Z</time></trkpt>
<trkpt lat="44.915341939777136" lon="5.781862959265709"><ele></ele><time>2015-2-4T9:33:22Z</time></trkpt>
<trkpt lat="44.914691923186183" lon="5.782310971990228"><ele></ele><time>2015-2-4T9:33:25Z</time></trkpt>
<trkpt lat="44.914148943498731" lon="5.7826819550246"><ele></ele><time>2015-2-4T9:33:28Z</time></trkpt>
<trkpt lat="44.913690956309438" lon="5.783036928623915"><ele></ele><time>2015-2-4T9:33:31Z</time></trkpt>
<trkpt lat="44.913070946931839" lon="5.783454934135079"><ele></ele><time>2015-2-4T9:33:34Z</time></trkpt>
<trkpt lat="44.912528973072767" lon="5.783762969076634"><ele></ele><time>2015-2-4T9:33:37Z</time></trkpt>
<trkpt lat="44.912060927599669" lon="5.784024987369776"><ele></ele><time>2015-2-4T9:33:40Z</time></trkpt>
<trkpt lat="44.911588942632079" lon="5.784103944897652"><ele></ele><time>2015-2-4T9:33:43Z</time></trkpt>
<trkpt lat="44.910813951864839" lon="5.784045942127705"><ele></ele><time>2015-2-4T9:33:46Z</time></trkpt>
<trkpt lat="44.910227973014116" lon="5.783881992101669"><ele></ele><time>2015-2-4T9:33:49Z</time></trkpt>
<trkpt lat="44.909939970821142" lon="5.783276986330748"><ele></ele><time>2015-2-4T9:33:52Z</time></trkpt>
<trkpt lat="44.909883979707956" lon="5.782637950032949"><ele></ele><time>2015-2-4T9:33:55Z</time></trkpt>
<trkpt lat="44.908973956480622" lon="5.782495960593224"><ele></ele><time>2015-2-4T9:33:58Z</time></trkpt>
<trkpt lat="44.908352941274643" lon="5.782505935057998"><ele></ele><time>2015-2-4T9:34:1Z</time></trkpt>
<trkpt lat="44.907848937436938" lon="5.782579947263002"><ele></ele><time>2015-2-4T9:34:4Z</time></trkpt>
<trkpt lat="44.907192969694734" lon="5.782905919477344"><ele></ele><time>2015-2-4T9:34:7Z</time></trkpt>
<trkpt lat="44.906509928405285" lon="5.782918995246291"><ele></ele><time>2015-2-4T9:34:10Z</time></trkpt>
<trkpt lat="44.90645494312048" lon="5.782376937568188"><ele></ele><time>2015-2-4T9:34:13Z</time></trkpt>
<trkpt lat="44.906720984727144" lon="5.78274792060256"><ele></ele><time>2015-2-4T9:34:16Z</time></trkpt>
<trkpt lat="44.906246988102794" lon="5.78283098526299"><ele></ele><time>2015-2-4T9:34:19Z</time></trkpt>
<trkpt lat="44.905476942658424" lon="5.782558992505074"><ele></ele><time>2015-2-4T9:34:22Z</time></trkpt>
<trkpt lat="44.904986936599016" lon="5.782389929518104"><ele></ele><time>2015-2-4T9:34:25Z</time></trkpt>
<trkpt lat="44.904194930568337" lon="5.781958932057023"><ele></ele><time>2015-2-4T9:34:28Z</time></trkpt>
<trkpt lat="44.903354980051517" lon="5.781509997323155"><ele></ele><time>2015-2-4T9:34:31Z</time></trkpt>
<trkpt lat="44.902901938185096" lon="5.781315956264734"><ele></ele><time>2015-2-4T9:34:34Z</time></trkpt>
<trkpt lat="44.902217974886298" lon="5.781238926574588"><ele></ele><time>2015-2-4T9:34:37Z</time></trkpt>
<trkpt lat="44.901730986312032" lon="5.78126298263669"><ele></ele><time>2015-2-4T9:34:40Z</time></trkpt>
<trkpt lat="44.901333935558796" lon="5.781569927930832"><ele></ele><time>2015-2-4T9:34:43Z</time></trkpt>
<trkpt lat="44.901033947244287" lon="5.782053982838988"><ele></ele><time>2015-2-4T9:34:46Z</time></trkpt>
<trkpt lat="44.901177948340774" lon="5.782746998593211"><ele></ele><time>2015-2-4T9:34:49Z</time></trkpt>
<trkpt lat="44.900861950591207" lon="5.783267933875322"><ele></ele><time>2015-2-4T9:34:52Z</time></trkpt>
<trkpt lat="44.90056992508471" lon="5.783766992390156"><ele></ele><time>2015-2-4T9:34:55Z</time></trkpt>
<trkpt lat="44.899950921535492" lon="5.784775922074914"><ele></ele><time>2015-2-4T9:34:58Z</time></trkpt>
<trkpt lat="44.899648921564221" lon="5.785285960882902"><ele></ele><time>2015-2-4T9:35:1Z</time></trkpt>
<trkpt lat="44.899428980425" lon="5.786120966076851"><ele></ele><time>2015-2-4T9:35:4Z</time></trkpt>
<trkpt lat="44.899657974019647" lon="5.786970974877477"><ele></ele><time>2015-2-4T9:35:7Z</time></trkpt>
<trkpt lat="44.899767944589257" lon="5.787564916536212"><ele></ele><time>2015-2-4T9:35:10Z</time></trkpt>
<trkpt lat="44.899117927998304" lon="5.787831963971257"><ele></ele><time>2015-2-4T9:35:13Z</time></trkpt>
<trkpt lat="44.898330951109529" lon="5.788161959499121"><ele></ele><time>2015-2-4T9:35:16Z</time></trkpt>
<trkpt lat="44.897874975576997" lon="5.788404950872064"><ele></ele><time>2015-2-4T9:35:19Z</time></trkpt>
<trkpt lat="44.897097973152995" lon="5.789264934137464"><ele></ele><time>2015-2-4T9:35:22Z</time></trkpt>
<trkpt lat="44.896691953763366" lon="5.789703978225589"><ele></ele><time>2015-2-4T9:35:25Z</time></trkpt>
<trkpt lat="44.896123996004462" lon="5.790441920980811"><ele></ele><time>2015-2-4T9:35:28Z</time></trkpt>
<trkpt lat="44.895649999380112" lon="5.790957994759083"><ele></ele><time>2015-2-4T9:35:31Z</time></trkpt>
<trkpt lat="44.895210955291986" lon="5.791283966973424"><ele></ele><time>2015-2-4T9:35:34Z</time></trkpt>
<trkpt lat="44.894471922889352" lon="5.79170398414135"><ele></ele><time>2015-2-4T9:35:37Z</time></trkpt>
<trkpt lat="44.893857948482037" lon="5.792097933590412"><ele></ele><time>2015-2-4T9:35:40Z</time></trkpt>
<trkpt lat="44.893510937690735" lon="5.792525997385383"><ele></ele><time>2015-2-4T9:35:43Z</time></trkpt>
<trkpt lat="44.893138948827982" lon="5.792943919077516"><ele></ele><time>2015-2-4T9:35:46Z</time></trkpt>
<trkpt lat="44.892893945798278" lon="5.793432919308543"><ele></ele><time>2015-2-4T9:35:49Z</time></trkpt>
<trkpt lat="44.892529919743538" lon="5.793978916481137"><ele></ele><time>2015-2-4T9:35:52Z</time></trkpt>
<trkpt lat="44.892187938094139" lon="5.794447967782617"><ele></ele><time>2015-2-4T9:35:55Z</time></trkpt>
<trkpt lat="44.891568934544921" lon="5.795358996838331"><ele></ele><time>2015-2-4T9:35:58Z</time></trkpt>
<trkpt lat="44.891063924878836" lon="5.796009935438633"><ele></ele><time>2015-2-4T9:36:1Z</time></trkpt>
<trkpt lat="44.890344925224781" lon="5.796628938987851"><ele></ele><time>2015-2-4T9:36:4Z</time></trkpt>
<trkpt lat="44.889989951625466" lon="5.797039987519383"><ele></ele><time>2015-2-4T9:36:7Z</time></trkpt>
<trkpt lat="44.889967991039157" lon="5.797691931948066"><ele></ele><time>2015-2-4T9:36:10Z</time></trkpt>
<trkpt lat="44.89019094966352" lon="5.798131981864572"><ele></ele><time>2015-2-4T9:36:13Z</time></trkpt>
<trkpt lat="44.89072697237134" lon="5.798317976295948"><ele></ele><time>2015-2-4T9:36:16Z</time></trkpt>
<trkpt lat="44.891217984259129" lon="5.798552921041846"><ele></ele><time>2015-2-4T9:36:19Z</time></trkpt>
<trkpt lat="44.891643952578306" lon="5.798887945711613"><ele></ele><time>2015-2-4T9:36:22Z</time></trkpt>
<trkpt lat="44.891196945682168" lon="5.798555938526988"><ele></ele><time>2015-2-4T9:36:25Z</time></trkpt>
<trkpt lat="44.890713980421424" lon="5.798302972689271"><ele></ele><time>2015-2-4T9:36:28Z</time></trkpt>
<trkpt lat="44.890130935236812" lon="5.798063920810819"><ele></ele><time>2015-2-4T9:36:31Z</time></trkpt>
<trkpt lat="44.890078967437148" lon="5.797383980825543"><ele></ele><time>2015-2-4T9:36:34Z</time></trkpt>
<trkpt lat="44.889704966917634" lon="5.797307956963778"><ele></ele><time>2015-2-4T9:36:37Z</time></trkpt>
<trkpt lat="44.889099961146712" lon="5.79705398529768"><ele></ele><time>2015-2-4T9:36:40Z</time></trkpt>
<trkpt lat="44.888949925079942" lon="5.79756997525692"><ele></ele><time>2015-2-4T9:36:43Z</time></trkpt>
<trkpt lat="44.88931093364954" lon="5.798328956589103"><ele></ele><time>2015-2-4T9:36:46Z</time></trkpt>
<trkpt lat="44.88974193111062" lon="5.798784932121635"><ele></ele><time>2015-2-4T9:36:49Z</time></trkpt>
<trkpt lat="44.890003949403763" lon="5.79946294426918"><ele></ele><time>2015-2-4T9:36:52Z</time></trkpt>
<trkpt lat="44.8903439193964" lon="5.800047917291522"><ele></ele><time>2015-2-4T9:36:55Z</time></trkpt>
<trkpt lat="44.890887988731265" lon="5.800395933911204"><ele></ele><time>2015-2-4T9:36:58Z</time></trkpt>
<trkpt lat="44.891459969803691" lon="5.800799941644073"><ele></ele><time>2015-2-4T9:37:1Z</time></trkpt>
<trkpt lat="44.891862971708179" lon="5.801112921908498"><ele></ele><time>2015-2-4T9:37:4Z</time></trkpt>
<trkpt lat="44.892358928918839" lon="5.801576944068074"><ele></ele><time>2015-2-4T9:37:7Z</time></trkpt>
<trkpt lat="44.892832925543189" lon="5.802299967035651"><ele></ele><time>2015-2-4T9:37:10Z</time></trkpt>
<trkpt lat="44.893214972689748" lon="5.802972950041294"><ele></ele><time>2015-2-4T9:37:13Z</time></trkpt>
<trkpt lat="44.89339292049408" lon="5.803769985213876"><ele></ele><time>2015-2-4T9:37:16Z</time></trkpt>
<trkpt lat="44.893511943519115" lon="5.804532989859581"><ele></ele><time>2015-2-4T9:37:19Z</time></trkpt>
<trkpt lat="44.893749989569187" lon="5.80528593622148"><ele></ele><time>2015-2-4T9:37:22Z</time></trkpt>
<trkpt lat="44.89403497427702" lon="5.805909968912602"><ele></ele><time>2015-2-4T9:37:25Z</time></trkpt>
<trkpt lat="44.894762942567468" lon="5.805964954197407"><ele></ele><time>2015-2-4T9:37:28Z</time></trkpt>
<trkpt lat="44.895221935585141" lon="5.806288998574019"><ele></ele><time>2015-2-4T9:37:31Z</time></trkpt>
<trkpt lat="44.895459981635213" lon="5.806674985215068"><ele></ele><time>2015-2-4T9:37:34Z</time></trkpt>
<trkpt lat="44.8948959633708" lon="5.806503994390369"><ele></ele><time>2015-2-4T9:37:37Z</time></trkpt>
<trkpt lat="44.894394977018237" lon="5.806641960516572"><ele></ele><time>2015-2-4T9:37:40Z</time></trkpt>
<trkpt lat="44.893851997330785" lon="5.80691596493125"><ele></ele><time>2015-2-4T9:37:43Z</time></trkpt>
<trkpt lat="44.893170967698097" lon="5.806739944964647"><ele></ele><time>2015-2-4T9:37:46Z</time></trkpt>
<trkpt lat="44.892457919195294" lon="5.806019939482212"><ele></ele><time>2015-2-4T9:37:49Z</time></trkpt>
<trkpt lat="44.89212297834456" lon="5.805245954543352"><ele></ele><time>2015-2-4T9:37:52Z</time></trkpt>
<trkpt lat="44.891798933967948" lon="5.80466098152101"><ele></ele><time>2015-2-4T9:37:55Z</time></trkpt>
<trkpt lat="44.891168950125575" lon="5.804447997361422"><ele></ele><time>2015-2-4T9:37:58Z</time></trkpt>
<trkpt lat="44.890498984605074" lon="5.805050991475582"><ele></ele><time>2015-2-4T9:38:1Z</time></trkpt>
<trkpt lat="44.889959944412112" lon="5.805354919284582"><ele></ele><time>2015-2-4T9:38:4Z</time></trkpt>
<trkpt lat="44.888815982267261" lon="5.8047029748559"><ele></ele><time>2015-2-4T9:38:7Z</time></trkpt>
<trkpt lat="44.888368975371122" lon="5.804498959332705"><ele></ele><time>2015-2-4T9:38:10Z</time></trkpt>
<trkpt lat="44.887799927964807" lon="5.804249932989478"><ele></ele><time>2015-2-4T9:38:13Z</time></trkpt>
<trkpt lat="44.887453923001885" lon="5.803669989109039"><ele></ele><time>2015-2-4T9:38:16Z</time></trkpt>
<trkpt lat="44.887043964117765" lon="5.802784943953157"><ele></ele><time>2015-2-4T9:38:19Z</time></trkpt>
<trkpt lat="44.88612899556756" lon="5.802017999812961"><ele></ele><time>2015-2-4T9:38:22Z</time></trkpt>
<trkpt lat="44.885694980621338" lon="5.801562946289778"><ele></ele><time>2015-2-4T9:38:25Z</time></trkpt>
<trkpt lat="44.885254930704832" lon="5.801295982673764"><ele></ele><time>2015-2-4T9:38:28Z</time></trkpt>
<trkpt lat="44.884739946573973" lon="5.801582979038358"><ele></ele><time>2015-2-4T9:38:31Z</time></trkpt>
<trkpt lat="44.884579936042428" lon="5.801066989079118"><ele></ele><time>2015-2-4T9:38:34Z</time></trkpt>
<trkpt lat="44.884695941582322" lon="5.80040599219501"><ele></ele><time>2015-2-4T9:38:37Z</time></trkpt>
<trkpt lat="44.884556969627738" lon="5.799528993666172"><ele></ele><time>2015-2-4T9:38:40Z</time></trkpt>
<trkpt lat="44.884135946631432" lon="5.799044938758016"><ele></ele><time>2015-2-4T9:38:43Z</time></trkpt>
<trkpt lat="44.884080961346626" lon="5.798205994069576"><ele></ele><time>2015-2-4T9:38:46Z</time></trkpt>
<trkpt lat="44.8839579988271" lon="5.797492945566773"><ele></ele><time>2015-2-4T9:38:49Z</time></trkpt>
<trkpt lat="44.883903935551643" lon="5.796472951769829"><ele></ele><time>2015-2-4T9:38:52Z</time></trkpt>
<trkpt lat="44.884031927213073" lon="5.795658985152841"><ele></ele><time>2015-2-4T9:38:55Z</time></trkpt>
<trkpt lat="44.883674941956997" lon="5.794684924185276"><ele></ele><time>2015-2-4T9:38:58Z</time></trkpt>
<trkpt lat="44.883251991122961" lon="5.794788943603635"><ele></ele><time>2015-2-4T9:39:1Z</time></trkpt>
<trkpt lat="44.88226099871099" lon="5.794573947787285"><ele></ele><time>2015-2-4T9:39:4Z</time></trkpt>
<trkpt lat="44.881401937454939" lon="5.793904988095164"><ele></ele><time>2015-2-4T9:39:7Z</time></trkpt>
<trkpt lat="44.880985943600535" lon="5.793543979525566"><ele></ele><time>2015-2-4T9:39:10Z</time></trkpt>
<trkpt lat="44.880504989996552" lon="5.793138965964317"><ele></ele><time>2015-2-4T9:39:13Z</time></trkpt>
<trkpt lat="44.880381943657994" lon="5.793416993692517"><ele></ele><time>2015-2-4T9:39:16Z</time></trkpt>
<trkpt lat="44.880174994468689" lon="5.79408897086978"><ele></ele><time>2015-2-4T9:39:19Z</time></trkpt>
<trkpt lat="44.879913982003927" lon="5.794705962762237"><ele></ele><time>2015-2-4T9:39:22Z</time></trkpt>
<trkpt lat="44.879627991467714" lon="5.794908972457051"><ele></ele><time>2015-2-4T9:39:25Z</time></trkpt>
<trkpt lat="44.879664955660701" lon="5.794092994183302"><ele></ele><time>2015-2-4T9:39:28Z</time></trkpt>
<trkpt lat="44.879657998681068" lon="5.793378939852119"><ele></ele><time>2015-2-4T9:39:31Z</time></trkpt>
<trkpt lat="44.879680965095758" lon="5.79297099262476"><ele></ele><time>2015-2-4T9:39:34Z</time></trkpt>
<trkpt lat="44.879372930154204" lon="5.793685968965292"><ele></ele><time>2015-2-4T9:39:37Z</time></trkpt>
<trkpt lat="44.879152989014983" lon="5.79436993226409"><ele></ele><time>2015-2-4T9:39:40Z</time></trkpt>
<trkpt lat="44.878939921036363" lon="5.795056996867061"><ele></ele><time>2015-2-4T9:39:43Z</time></trkpt>
<trkpt lat="44.878757949918509" lon="5.795672982931137"><ele></ele><time>2015-2-4T9:39:46Z</time></trkpt>
<trkpt lat="44.878841936588287" lon="5.795047944411635"><ele></ele><time>2015-2-4T9:39:49Z</time></trkpt>
<trkpt lat="44.878906980156898" lon="5.794374961405993"><ele></ele><time>2015-2-4T9:39:52Z</time></trkpt>
<trkpt lat="44.878982920199633" lon="5.793694937601686"><ele></ele><time>2015-2-4T9:39:55Z</time></trkpt>
<trkpt lat="44.879195988178253" lon="5.792926987633109"><ele></ele><time>2015-2-4T9:39:58Z</time></trkpt>
<trkpt lat="44.879140919074416" lon="5.792850963771343"><ele></ele><time>2015-2-4T9:40:1Z</time></trkpt>
<trkpt lat="44.878880996257067" lon="5.793399978429079"><ele></ele><time>2015-2-4T9:40:4Z</time></trkpt>
<trkpt lat="44.878659965470433" lon="5.794011941179633"><ele></ele><time>2015-2-4T9:40:7Z</time></trkpt>
<trkpt lat="44.878463996574283" lon="5.794611917808652"><ele></ele><time>2015-2-4T9:40:10Z</time></trkpt>
<trkpt lat="44.878250928595662" lon="5.79518691636622"><ele></ele><time>2015-2-4T9:40:13Z</time></trkpt>
<trkpt lat="44.878069963306189" lon="5.795927960425615"><ele></ele><time>2015-2-4T9:40:16Z</time></trkpt>
<trkpt lat="44.877806939184666" lon="5.796640925109386"><ele></ele><time>2015-2-4T9:40:19Z</time></trkpt>
<trkpt lat="44.877919927239418" lon="5.795957967638969"><ele></ele><time>2015-2-4T9:40:22Z</time></trkpt>
<trkpt lat="44.877973990514874" lon="5.795223964378238"><ele></ele><time>2015-2-4T9:40:25Z</time></trkpt>
<trkpt lat="44.878078931942582" lon="5.794537989422679"><ele></ele><time>2015-2-4T9:40:28Z</time></trkpt>
<trkpt lat="44.878148920834064" lon="5.793792922049761"><ele></ele><time>2015-2-4T9:40:31Z</time></trkpt>
<trkpt lat="44.878265932202339" lon="5.793148940429092"><ele></ele><time>2015-2-4T9:40:34Z</time></trkpt>
<trkpt lat="44.878173982724547" lon="5.793286990374327"><ele></ele><time>2015-2-4T9:40:37Z</time></trkpt>
<trkpt lat="44.877950940281153" lon="5.794076984748244"><ele></ele><time>2015-2-4T9:40:40Z</time></trkpt>
<trkpt lat="44.877652963623405" lon="5.794838983565569"><ele></ele><time>2015-2-4T9:40:43Z</time></trkpt>
<trkpt lat="44.877494964748621" lon="5.795452957972884"><ele></ele><time>2015-2-4T9:40:46Z</time></trkpt>
<trkpt lat="44.877335960045457" lon="5.796073973178864"><ele></ele><time>2015-2-4T9:40:49Z</time></trkpt>
<trkpt lat="44.87667697481811" lon="5.797523958608508"><ele></ele><time>2015-2-4T9:40:52Z</time></trkpt>
<trkpt lat="44.876269949600101" lon="5.7981529366225"><ele></ele><time>2015-2-4T9:40:55Z</time></trkpt>
<trkpt lat="44.875620938837528" lon="5.798223931342363"><ele></ele><time>2015-2-4T9:40:58Z</time></trkpt>
<trkpt lat="44.87510796636343" lon="5.798038942739368"><ele></ele><time>2015-2-4T9:41:1Z</time></trkpt>
<trkpt lat="44.874879978597164" lon="5.797357996925712"><ele></ele><time>2015-2-4T9:41:4Z</time></trkpt>
<trkpt lat="44.874624917283654" lon="5.796794984489679"><ele></ele><time>2015-2-4T9:41:7Z</time></trkpt>
<trkpt lat="44.874302968382835" lon="5.796109931543469"><ele></ele><time>2015-2-4T9:41:10Z</time></trkpt>
<trkpt lat="44.873721934854984" lon="5.79585294239223"><ele></ele><time>2015-2-4T9:41:13Z</time></trkpt>
<trkpt lat="44.873548932373524" lon="5.796552998945117"><ele></ele><time>2015-2-4T9:41:16Z</time></trkpt>
<trkpt lat="44.873169986531138" lon="5.797124980017543"><ele></ele><time>2015-2-4T9:41:19Z</time></trkpt>
<trkpt lat="44.872503960505128" lon="5.797718921676278"><ele></ele><time>2015-2-4T9:41:22Z</time></trkpt>
<trkpt lat="44.87188495695591" lon="5.797832999378443"><ele></ele><time>2015-2-4T9:41:25Z</time></trkpt>
<trkpt lat="44.871340971440077" lon="5.79756997525692"><ele></ele><time>2015-2-4T9:41:28Z</time></trkpt>
<trkpt lat="44.870802937075496" lon="5.797624960541725"><ele></ele><time>2015-2-4T9:41:31Z</time></trkpt>
<trkpt lat="44.870315948501229" lon="5.797486994415522"><ele></ele><time>2015-2-4T9:41:34Z</time></trkpt>
<trkpt lat="44.869862990453839" lon="5.797244925051928"><ele></ele><time>2015-2-4T9:41:37Z</time></trkpt>
<trkpt lat="44.869311964139342" lon="5.796943930909038"><ele></ele><time>2015-2-4T9:41:40Z</time></trkpt>
<trkpt lat="44.868813995271921" lon="5.796856926754117"><ele></ele><time>2015-2-4T9:41:43Z</time></trkpt>
<trkpt lat="44.868362965062261" lon="5.796833960339427"><ele></ele><time>2015-2-4T9:41:46Z</time></trkpt>
<trkpt lat="44.867841945961118" lon="5.796566996723414"><ele></ele><time>2015-2-4T9:41:49Z</time></trkpt>
<trkpt lat="44.867489989846945" lon="5.795799968764186"><ele></ele><time>2015-2-4T9:41:52Z</time></trkpt>
<trkpt lat="44.867277927696705" lon="5.796343954280019"><ele></ele><time>2015-2-4T9:41:55Z</time></trkpt>
<trkpt lat="44.866989925503731" lon="5.796846952289343"><ele></ele><time>2015-2-4T9:41:58Z</time></trkpt>
<trkpt lat="44.866529926657677" lon="5.796645954251289"><ele></ele><time>2015-2-4T9:42:1Z</time></trkpt>
<trkpt lat="44.865977978333831" lon="5.796395922079682"><ele></ele><time>2015-2-4T9:42:4Z</time></trkpt>
<trkpt lat="44.86541798338294" lon="5.796570936217904"><ele></ele><time>2015-2-4T9:42:7Z</time></trkpt>
<trkpt lat="44.865014981478453" lon="5.796889951452613"><ele></ele><time>2015-2-4T9:42:10Z</time></trkpt>
<trkpt lat="44.864386925473809" lon="5.796998916193843"><ele></ele><time>2015-2-4T9:42:13Z</time></trkpt>
<trkpt lat="44.863732969388366" lon="5.797172924503684"><ele></ele><time>2015-2-4T9:42:16Z</time></trkpt>
<trkpt lat="44.86320398747921" lon="5.797140989452601"><ele></ele><time>2015-2-4T9:42:19Z</time></trkpt>
<trkpt lat="44.862534943968058" lon="5.79705398529768"><ele></ele><time>2015-2-4T9:42:22Z</time></trkpt>
<trkpt lat="44.862069999799132" lon="5.796852987259626"><ele></ele><time>2015-2-4T9:42:25Z</time></trkpt>
<trkpt lat="44.861641936004162" lon="5.796214956790209"><ele></ele><time>2015-2-4T9:42:28Z</time></trkpt>
<trkpt lat="44.861222924664617" lon="5.795628977939487"><ele></ele><time>2015-2-4T9:42:31Z</time></trkpt>
<trkpt lat="44.860637951642275" lon="5.795298982411623"><ele></ele><time>2015-2-4T9:42:34Z</time></trkpt>
<trkpt lat="44.860178958624601" lon="5.795051967725158"><ele></ele><time>2015-2-4T9:42:37Z</time></trkpt>
<trkpt lat="44.859742932021618" lon="5.794881982728839"><ele></ele><time>2015-2-4T9:42:40Z</time></trkpt>
<trkpt lat="44.859161982312799" lon="5.794791961088777"><ele></ele><time>2015-2-4T9:42:43Z</time></trkpt>
<trkpt lat="44.858763925731182" lon="5.794285945594311"><ele></ele><time>2015-2-4T9:42:46Z</time></trkpt>
<trkpt lat="44.858654960989952" lon="5.793644981458783"><ele></ele><time>2015-2-4T9:42:49Z</time></trkpt>
<trkpt lat="44.858162943273783" lon="5.793579937890172"><ele></ele><time>2015-2-4T9:42:52Z</time></trkpt>
<trkpt lat="44.857668997719884" lon="5.793892918154597"><ele></ele><time>2015-2-4T9:42:55Z</time></trkpt>
<trkpt lat="44.857191983610392" lon="5.793867940083146"><ele></ele><time>2015-2-4T9:42:58Z</time></trkpt>
<trkpt lat="44.856444988399744" lon="5.794170945882797"><ele></ele><time>2015-2-4T9:43:1Z</time></trkpt>
<trkpt lat="44.855865966528654" lon="5.794396921992302"><ele></ele><time>2015-2-4T9:43:4Z</time></trkpt>
<trkpt lat="44.855117965489626" lon="5.794634968042374"><ele></ele><time>2015-2-4T9:43:7Z</time></trkpt>
<trkpt lat="44.85429092310369" lon="5.794933950528503"><ele></ele><time>2015-2-4T9:43:10Z</time></trkpt>
<trkpt lat="44.853818938136101" lon="5.795114999637008"><ele></ele><time>2015-2-4T9:43:13Z</time></trkpt>
<trkpt lat="44.853176968172193" lon="5.795327983796597"><ele></ele><time>2015-2-4T9:43:16Z</time></trkpt>
<trkpt lat="44.852524939924479" lon="5.795453963801265"><ele></ele><time>2015-2-4T9:43:19Z</time></trkpt>
<trkpt lat="44.852052954956889" lon="5.795530993491411"><ele></ele><time>2015-2-4T9:43:22Z</time></trkpt>
<trkpt lat="44.851416936144233" lon="5.795622942969203"><ele></ele><time>2015-2-4T9:43:25Z</time></trkpt>
<trkpt lat="44.85074395313859" lon="5.795737942680717"><ele></ele><time>2015-2-4T9:43:28Z</time></trkpt>
<trkpt lat="44.850012967363" lon="5.795841962099075"><ele></ele><time>2015-2-4T9:43:31Z</time></trkpt>
<trkpt lat="44.849578952416778" lon="5.795983951538801"><ele></ele><time>2015-2-4T9:43:34Z</time></trkpt>
<trkpt lat="44.848860958591104" lon="5.796383935958147"><ele></ele><time>2015-2-4T9:43:37Z</time></trkpt>
<trkpt lat="44.848299957811832" lon="5.796640925109386"><ele></ele><time>2015-2-4T9:43:40Z</time></trkpt>
<trkpt lat="44.848130978643894" lon="5.797349950298667"><ele></ele><time>2015-2-4T9:43:43Z</time></trkpt>
<trkpt lat="44.847984965890646" lon="5.798415960744023"><ele></ele><time>2015-2-4T9:43:46Z</time></trkpt>
<trkpt lat="44.848082950338721" lon="5.799131942912936"><ele></ele><time>2015-2-4T9:43:49Z</time></trkpt>
<trkpt lat="44.847763935104012" lon="5.79954894259572"><ele></ele><time>2015-2-4T9:43:52Z</time></trkpt>
<trkpt lat="44.847275940701365" lon="5.799421956762672"><ele></ele><time>2015-2-4T9:43:55Z</time></trkpt>
<trkpt lat="44.846784928813577" lon="5.800392916426063"><ele></ele><time>2015-2-4T9:43:58Z</time></trkpt>
<trkpt lat="44.846501955762506" lon="5.801174947991967"><ele></ele><time>2015-2-4T9:44:1Z</time></trkpt>
<trkpt lat="44.846151927486062" lon="5.802287980914116"><ele></ele><time>2015-2-4T9:44:4Z</time></trkpt>
<trkpt lat="44.846147987991571" lon="5.803260952234268"><ele></ele><time>2015-2-4T9:44:7Z</time></trkpt>
<trkpt lat="44.846185958012938" lon="5.803975928574801"><ele></ele><time>2015-2-4T9:44:10Z</time></trkpt>
<trkpt lat="44.846095936372876" lon="5.804801965132356"><ele></ele><time>2015-2-4T9:44:13Z</time></trkpt>
<trkpt lat="44.84597297385335" lon="5.805749958381057"><ele></ele><time>2015-2-4T9:44:16Z</time></trkpt>
<trkpt lat="44.845890998840332" lon="5.806898949667811"><ele></ele><time>2015-2-4T9:44:19Z</time></trkpt>
<trkpt lat="44.845906924456358" lon="5.807963954284787"><ele></ele><time>2015-2-4T9:44:22Z</time></trkpt>
<trkpt lat="44.845899967476726" lon="5.808599973097444"><ele></ele><time>2015-2-4T9:44:25Z</time></trkpt>
<trkpt lat="44.845787985250354" lon="5.809463979676366"><ele></ele><time>2015-2-4T9:44:28Z</time></trkpt>
<trkpt lat="44.845579946413636" lon="5.810322957113385"><ele></ele><time>2015-2-4T9:44:31Z</time></trkpt>
<trkpt lat="44.8454609233886" lon="5.811208924278617"><ele></ele><time>2015-2-4T9:44:34Z</time></trkpt>
<trkpt lat="44.845139980316162" lon="5.811756933107972"><ele></ele><time>2015-2-4T9:44:37Z</time></trkpt>
<trkpt lat="44.844522988423705" lon="5.811708988621831"><ele></ele><time>2015-2-4T9:44:40Z</time></trkpt>
<trkpt lat="44.844284942373633" lon="5.812283987179399"><ele></ele><time>2015-2-4T9:44:43Z</time></trkpt>
<trkpt lat="44.84412694349885" lon="5.813456950709224"><ele></ele><time>2015-2-4T9:44:46Z</time></trkpt>
<trkpt lat="44.844014961272478" lon="5.814302936196327"><ele></ele><time>2015-2-4T9:44:49Z</time></trkpt>
<trkpt lat="44.843894932419062" lon="5.815162919461727"><ele></ele><time>2015-2-4T9:44:52Z</time></trkpt>
<trkpt lat="44.843777921050787" lon="5.816086940467358"><ele></ele><time>2015-2-4T9:44:55Z</time></trkpt>
<trkpt lat="44.843910941854119" lon="5.817238949239254"><ele></ele><time>2015-2-4T9:44:58Z</time></trkpt>
<trkpt lat="44.84401797875762" lon="5.817955937236548"><ele></ele><time>2015-2-4T9:45:1Z</time></trkpt>
<trkpt lat="44.843848999589682" lon="5.819517988711596"><ele></ele><time>2015-2-4T9:45:4Z</time></trkpt>
<trkpt lat="44.843726959079504" lon="5.820423988625407"><ele></ele><time>2015-2-4T9:45:7Z</time></trkpt>
<trkpt lat="44.843602990731597" lon="5.821220939978957"><ele></ele><time>2015-2-4T9:45:10Z</time></trkpt>
<trkpt lat="44.843412972986698" lon="5.82199995405972"><ele></ele><time>2015-2-4T9:45:13Z</time></trkpt>
<trkpt lat="44.843140980228782" lon="5.822976948693395"><ele></ele><time>2015-2-4T9:45:16Z</time></trkpt>
<trkpt lat="44.842897988855839" lon="5.823557982221246"><ele></ele><time>2015-2-4T9:45:19Z</time></trkpt>
<trkpt lat="44.842533962801099" lon="5.824142955243588"><ele></ele><time>2015-2-4T9:45:22Z</time></trkpt>
<trkpt lat="44.842162979766726" lon="5.824697921052575"><ele></ele><time>2015-2-4T9:45:25Z</time></trkpt>
<trkpt lat="44.841713961213827" lon="5.825299993157387"><ele></ele><time>2015-2-4T9:45:28Z</time></trkpt>
<trkpt lat="44.841144997626543" lon="5.82621093839407"><ele></ele><time>2015-2-4T9:45:31Z</time></trkpt>
<trkpt lat="44.840728919953108" lon="5.826801946386695"><ele></ele><time>2015-2-4T9:45:34Z</time></trkpt>
<trkpt lat="44.840026935562491" lon="5.827440982684493"><ele></ele><time>2015-2-4T9:45:37Z</time></trkpt>
<trkpt lat="44.839712949469686" lon="5.827945992350578"><ele></ele><time>2015-2-4T9:45:40Z</time></trkpt>
<trkpt lat="44.839486973360181" lon="5.828515961766243"><ele></ele><time>2015-2-4T9:45:43Z</time></trkpt>
<trkpt lat="44.839203916490078" lon="5.829233955591917"><ele></ele><time>2015-2-4T9:45:46Z</time></trkpt>
<trkpt lat="44.838913986459374" lon="5.829884978011251"><ele></ele><time>2015-2-4T9:45:49Z</time></trkpt>
<trkpt lat="44.838316943496466" lon="5.830765999853611"><ele></ele><time>2015-2-4T9:45:52Z</time></trkpt>
<trkpt lat="44.8374879732728" lon="5.831255922093988"><ele></ele><time>2015-2-4T9:45:55Z</time></trkpt>
<trkpt lat="44.836957985535264" lon="5.831557922065258"><ele></ele><time>2015-2-4T9:45:58Z</time></trkpt>
<trkpt lat="44.836379969492555" lon="5.832327967509627"><ele></ele><time>2015-2-4T9:46:1Z</time></trkpt>
<trkpt lat="44.836011920124292" lon="5.832865918055177"><ele></ele><time>2015-2-4T9:46:4Z</time></trkpt>
<trkpt lat="44.835441950708628" lon="5.833698995411396"><ele></ele><time>2015-2-4T9:46:7Z</time></trkpt>
<trkpt lat="44.834953956305981" lon="5.834337947890163"><ele></ele><time>2015-2-4T9:46:10Z</time></trkpt>
<trkpt lat="44.834354985505342" lon="5.834951922297478"><ele></ele><time>2015-2-4T9:46:13Z</time></trkpt>
<trkpt lat="44.83374796807766" lon="5.835570925846696"><ele></ele><time>2015-2-4T9:46:16Z</time></trkpt>
<trkpt lat="44.833112955093384" lon="5.836210967972875"><ele></ele><time>2015-2-4T9:46:19Z</time></trkpt>
<trkpt lat="44.832619931548834" lon="5.836719917133451"><ele></ele><time>2015-2-4T9:46:22Z</time></trkpt>
<trkpt lat="44.832015931606293" lon="5.837083943188191"><ele></ele><time>2015-2-4T9:46:25Z</time></trkpt>
<trkpt lat="44.831537995487452" lon="5.837011942639947"><ele></ele><time>2015-2-4T9:46:28Z</time></trkpt>
<trkpt lat="44.831093922257423" lon="5.836794935166836"><ele></ele><time>2015-2-4T9:46:31Z</time></trkpt>
<trkpt lat="44.830492939800024" lon="5.83643794991076"><ele></ele><time>2015-2-4T9:46:34Z</time></trkpt>
<trkpt lat="44.830010980367661" lon="5.836569964885712"><ele></ele><time>2015-2-4T9:46:37Z</time></trkpt>
<trkpt lat="44.830013997852802" lon="5.837408993393183"><ele></ele><time>2015-2-4T9:46:40Z</time></trkpt>
<trkpt lat="44.829553999006748" lon="5.838101925328374"><ele></ele><time>2015-2-4T9:46:43Z</time></trkpt>
<trkpt lat="44.82902392745018" lon="5.838489923626185"><ele></ele><time>2015-2-4T9:46:46Z</time></trkpt>
<trkpt lat="44.828414982184768" lon="5.838953945785761"><ele></ele><time>2015-2-4T9:46:49Z</time></trkpt>
<trkpt lat="44.828100996091962" lon="5.839448980987072"><ele></ele><time>2015-2-4T9:46:52Z</time></trkpt>
<trkpt lat="44.827821962535381" lon="5.839998917654157"><ele></ele><time>2015-2-4T9:46:55Z</time></trkpt>
<trkpt lat="44.827463971450925" lon="5.840666955336928"><ele></ele><time>2015-2-4T9:46:58Z</time></trkpt>
<trkpt lat="44.827033979818225" lon="5.841487962752581"><ele></ele><time>2015-2-4T9:47:1Z</time></trkpt>
<trkpt lat="44.826996931806207" lon="5.842558918520808"><ele></ele><time>2015-2-4T9:47:4Z</time></trkpt>
<trkpt lat="44.82723799534142" lon="5.843255957588553"><ele></ele><time>2015-2-4T9:47:7Z</time></trkpt>
<trkpt lat="44.82736598700285" lon="5.844169920310378"><ele></ele><time>2015-2-4T9:47:10Z</time></trkpt>
<trkpt lat="44.827403957024217" lon="5.845021940767765"><ele></ele><time>2015-2-4T9:47:13Z</time></trkpt>
<trkpt lat="44.827118972316384" lon="5.845666928216815"><ele></ele><time>2015-2-4T9:47:16Z</time></trkpt>
<trkpt lat="44.826624942943454" lon="5.846365978941321"><ele></ele><time>2015-2-4T9:47:19Z</time></trkpt>
<trkpt lat="44.826117921620607" lon="5.846947934478521"><ele></ele><time>2015-2-4T9:47:22Z</time></trkpt>
<trkpt lat="44.825847940519452" lon="5.847551934421063"><ele></ele><time>2015-2-4T9:47:25Z</time></trkpt>
<trkpt lat="44.825587933883071" lon="5.848185941576958"><ele></ele><time>2015-2-4T9:47:28Z</time></trkpt>
<trkpt lat="44.825213933363557" lon="5.848842998966575"><ele></ele><time>2015-2-4T9:47:31Z</time></trkpt>
<trkpt lat="44.824920985847712" lon="5.849328981712461"><ele></ele><time>2015-2-4T9:47:34Z</time></trkpt>
<trkpt lat="44.824469955638051" lon="5.850043958052993"><ele></ele><time>2015-2-4T9:47:37Z</time></trkpt>
<trkpt lat="44.824091931805015" lon="5.85070394910872"><ele></ele><time>2015-2-4T9:47:40Z</time></trkpt>
<trkpt lat="44.823724972084165" lon="5.851156990975142"><ele></ele><time>2015-2-4T9:47:43Z</time></trkpt>
<trkpt lat="44.823281988501549" lon="5.851234942674637"><ele></ele><time>2015-2-4T9:47:46Z</time></trkpt>
<trkpt lat="44.822837999090552" lon="5.851617995649576"><ele></ele><time>2015-2-4T9:47:49Z</time></trkpt>
<trkpt lat="44.822587966918945" lon="5.852250996977091"><ele></ele><time>2015-2-4T9:47:52Z</time></trkpt>
<trkpt lat="44.822359979152679" lon="5.852800933644176"><ele></ele><time>2015-2-4T9:47:55Z</time></trkpt>
<trkpt lat="44.821747932583094" lon="5.853616995736957"><ele></ele><time>2015-2-4T9:47:58Z</time></trkpt>
<trkpt lat="44.821290951222181" lon="5.854093926027417"><ele></ele><time>2015-2-4T9:48:1Z</time></trkpt>
<trkpt lat="44.821002949029207" lon="5.854995986446738"><ele></ele><time>2015-2-4T9:48:4Z</time></trkpt>
<trkpt lat="44.820527946576476" lon="5.855857981368899"><ele></ele><time>2015-2-4T9:48:7Z</time></trkpt>
<trkpt lat="44.820046992972493" lon="5.856250924989581"><ele></ele><time>2015-2-4T9:48:10Z</time></trkpt>
<trkpt lat="44.819808946922421" lon="5.856790971010923"><ele></ele><time>2015-2-4T9:48:13Z</time></trkpt>
<trkpt lat="44.819579953327775" lon="5.857822950929403"><ele></ele><time>2015-2-4T9:48:16Z</time></trkpt>
<trkpt lat="44.819286921992898" lon="5.858664996922016"><ele></ele><time>2015-2-4T9:48:19Z</time></trkpt>
<trkpt lat="44.819198995828629" lon="5.859344936907291"><ele></ele><time>2015-2-4T9:48:22Z</time></trkpt>
<trkpt lat="44.819115931168199" lon="5.860240962356329"><ele></ele><time>2015-2-4T9:48:25Z</time></trkpt>
<trkpt lat="44.81875198893249" lon="5.860689980909228"><ele></ele><time>2015-2-4T9:48:28Z</time></trkpt>
<trkpt lat="44.818239938467741" lon="5.860291924327612"><ele></ele><time>2015-2-4T9:48:31Z</time></trkpt>
<trkpt lat="44.817761918529868" lon="5.860091932117939"><ele></ele><time>2015-2-4T9:48:34Z</time></trkpt>
<trkpt lat="44.817298986017704" lon="5.85955792106688"><ele></ele><time>2015-2-4T9:48:37Z</time></trkpt>
<trkpt lat="44.816827923059464" lon="5.859027933329344"><ele></ele><time>2015-2-4T9:48:40Z</time></trkpt>
<trkpt lat="44.816572945564985" lon="5.859831925481558"><ele></ele><time>2015-2-4T9:48:43Z</time></trkpt>
<trkpt lat="44.816235993057489" lon="5.86043399758637"><ele></ele><time>2015-2-4T9:48:46Z</time></trkpt>
<trkpt lat="44.815731989219785" lon="5.86099592037499"><ele></ele><time>2015-2-4T9:48:49Z</time></trkpt>
<trkpt lat="44.814970996230841" lon="5.861198930069804"><ele></ele><time>2015-2-4T9:48:52Z</time></trkpt>
<trkpt lat="44.814254930242896" lon="5.861361958086491"><ele></ele><time>2015-2-4T9:48:55Z</time></trkpt>
<trkpt lat="44.813538948073983" lon="5.861851964145899"><ele></ele><time>2015-2-4T9:48:58Z</time></trkpt>
<trkpt lat="44.813117925077677" lon="5.862360997125506"><ele></ele><time>2015-2-4T9:49:1Z</time></trkpt>
<trkpt lat="44.812834952026606" lon="5.86312391795218"><ele></ele><time>2015-2-4T9:49:4Z</time></trkpt>
<trkpt lat="44.812472937628627" lon="5.863740993663669"><ele></ele><time>2015-2-4T9:49:7Z</time></trkpt>
<trkpt lat="44.812079994007945" lon="5.864240974187851"><ele></ele><time>2015-2-4T9:49:10Z</time></trkpt>
<trkpt lat="44.81220094487071" lon="5.864851931110025"><ele></ele><time>2015-2-4T9:49:13Z</time></trkpt>
<trkpt lat="44.812720958143473" lon="5.865168934687972"><ele></ele><time>2015-2-4T9:49:16Z</time></trkpt>
<trkpt lat="44.81327299028635" lon="5.865503959357739"><ele></ele><time>2015-2-4T9:49:19Z</time></trkpt>
<trkpt lat="44.813761990517378" lon="5.865547964349389"><ele></ele><time>2015-2-4T9:49:22Z</time></trkpt>
<trkpt lat="44.814274962991476" lon="5.865488955751061"><ele></ele><time>2015-2-4T9:49:25Z</time></trkpt>
<trkpt lat="44.814855996519327" lon="5.865344954654574"><ele></ele><time>2015-2-4T9:49:28Z</time></trkpt>
<trkpt lat="44.815426971763372" lon="5.865190979093313"><ele></ele><time>2015-2-4T9:49:31Z</time></trkpt>
<trkpt lat="44.815851934254169" lon="5.865449979901314"><ele></ele><time>2015-2-4T9:49:34Z</time></trkpt>
<trkpt lat="44.816358955577016" lon="5.865736976265907"><ele></ele><time>2015-2-4T9:49:37Z</time></trkpt>
<trkpt lat="44.81688492000103" lon="5.866051968187094"><ele></ele><time>2015-2-4T9:49:40Z</time></trkpt>
<trkpt lat="44.817300997674465" lon="5.8663659542799"><ele></ele><time>2015-2-4T9:49:43Z</time></trkpt>
<trkpt lat="44.817174933850765" lon="5.86718293838203"><ele></ele><time>2015-2-4T9:49:46Z</time></trkpt>
<trkpt lat="44.81675298884511" lon="5.867494996637106"><ele></ele><time>2015-2-4T9:49:49Z</time></trkpt>
<trkpt lat="44.816208919510245" lon="5.867754919454455"><ele></ele><time>2015-2-4T9:49:52Z</time></trkpt>
<trkpt lat="44.815776916220784" lon="5.867968993261457"><ele></ele><time>2015-2-4T9:49:55Z</time></trkpt>
<trkpt lat="44.815257992595434" lon="5.868239980190992"><ele></ele><time>2015-2-4T9:49:58Z</time></trkpt>
<trkpt lat="44.814602946862578" lon="5.868551954627037"><ele></ele><time>2015-2-4T9:50:1Z</time></trkpt>
<trkpt lat="44.814000958576798" lon="5.868840962648392"><ele></ele><time>2015-2-4T9:50:4Z</time></trkpt>
<trkpt lat="44.813505923375487" lon="5.869087977334857"><ele></ele><time>2015-2-4T9:50:7Z</time></trkpt>
<trkpt lat="44.812700925394893" lon="5.869474969804287"><ele></ele><time>2015-2-4T9:50:10Z</time></trkpt>
<trkpt lat="44.812042945995927" lon="5.869673956185579"><ele></ele><time>2015-2-4T9:50:13Z</time></trkpt>
<trkpt lat="44.811479933559895" lon="5.868961997330189"><ele></ele><time>2015-2-4T9:50:16Z</time></trkpt>
<trkpt lat="44.810765963047743" lon="5.868753958493471"><ele></ele><time>2015-2-4T9:50:19Z</time></trkpt>
<trkpt lat="44.810034977272153" lon="5.868583973497152"><ele></ele><time>2015-2-4T9:50:22Z</time></trkpt>
<trkpt lat="44.809448998421431" lon="5.868435949087143"><ele></ele><time>2015-2-4T9:50:25Z</time></trkpt>
<trkpt lat="44.808984976261854" lon="5.868737949058414"><ele></ele><time>2015-2-4T9:50:28Z</time></trkpt>
<trkpt lat="44.808252984657884" lon="5.868924949318171"><ele></ele><time>2015-2-4T9:50:31Z</time></trkpt>
<trkpt lat="44.807831961661577" lon="5.869273971766233"><ele></ele><time>2015-2-4T9:50:34Z</time></trkpt>
<trkpt lat="44.80740699917078" lon="5.869487961754203"><ele></ele><time>2015-2-4T9:50:37Z</time></trkpt>
<trkpt lat="44.806773997843266" lon="5.869645960628986"><ele></ele><time>2015-2-4T9:50:40Z</time></trkpt>
<trkpt lat="44.807160990312696" lon="5.870271921157837"><ele></ele><time>2015-2-4T9:50:43Z</time></trkpt>
<trkpt lat="44.807775970548391" lon="5.870294971391559"><ele></ele><time>2015-2-4T9:50:46Z</time></trkpt>
<trkpt lat="44.808233957737684" lon="5.870307963341475"><ele></ele><time>2015-2-4T9:50:49Z</time></trkpt>
<trkpt lat="44.808746930211782" lon="5.870446935296059"><ele></ele><time>2015-2-4T9:50:52Z</time></trkpt>
<trkpt lat="44.809244982898235" lon="5.8708989713341"><ele></ele><time>2015-2-4T9:50:55Z</time></trkpt>
<trkpt lat="44.809636920690536" lon="5.871418984606862"><ele></ele><time>2015-2-4T9:50:58Z</time></trkpt>
<trkpt lat="44.809993989765644" lon="5.871959952637553"><ele></ele><time>2015-2-4T9:51:1Z</time></trkpt>
<trkpt lat="44.810519954189658" lon="5.872427998110652"><ele></ele><time>2015-2-4T9:51:4Z</time></trkpt>
<trkpt lat="44.810802927240729" lon="5.872929990291596"><ele></ele><time>2015-2-4T9:51:7Z</time></trkpt>
<trkpt lat="44.810852967202663" lon="5.873587969690561"><ele></ele><time>2015-2-4T9:51:10Z</time></trkpt>
<trkpt lat="44.810887919738889" lon="5.874483995139599"><ele></ele><time>2015-2-4T9:51:13Z</time></trkpt>
<trkpt lat="44.810880962759256" lon="5.875324951484799"><ele></ele><time>2015-2-4T9:51:16Z</time></trkpt>
<trkpt lat="44.810935948044062" lon="5.876128943637013"><ele></ele><time>2015-2-4T9:51:19Z</time></trkpt>
<trkpt lat="44.810881968587637" lon="5.876839980483055"><ele></ele><time>2015-2-4T9:51:22Z</time></trkpt>
<trkpt lat="44.810836957767606" lon="5.877505922690034"><ele></ele><time>2015-2-4T9:51:25Z</time></trkpt>
<trkpt lat="44.81089093722403" lon="5.878267921507359"><ele></ele><time>2015-2-4T9:51:28Z</time></trkpt>
<trkpt lat="44.81136099435389" lon="5.879316916689277"><ele></ele><time>2015-2-4T9:51:31Z</time></trkpt>
<trkpt lat="44.811772964894772" lon="5.880155945196748"><ele></ele><time>2015-2-4T9:51:34Z</time></trkpt>
<trkpt lat="44.812196921557188" lon="5.881091952323914"><ele></ele><time>2015-2-4T9:51:37Z</time></trkpt>
<trkpt lat="44.812235981225967" lon="5.881797960028052"><ele></ele><time>2015-2-4T9:51:40Z</time></trkpt>
<trkpt lat="44.81200598180294" lon="5.882687950506806"><ele></ele><time>2015-2-4T9:51:43Z</time></trkpt>
<trkpt lat="44.811728959903121" lon="5.883720936253667"><ele></ele><time>2015-2-4T9:51:46Z</time></trkpt>
<trkpt lat="44.811155973002315" lon="5.884946957230568"><ele></ele><time>2015-2-4T9:51:49Z</time></trkpt>
<trkpt lat="44.810833940282464" lon="5.885516926646233"><ele></ele><time>2015-2-4T9:51:52Z</time></trkpt>
<trkpt lat="44.81047997251153" lon="5.886108940467238"><ele></ele><time>2015-2-4T9:51:55Z</time></trkpt>
<trkpt lat="44.810170931741595" lon="5.88671294040978"><ele></ele><time>2015-2-4T9:51:58Z</time></trkpt>
<trkpt lat="44.809876978397369" lon="5.887505952268839"><ele></ele><time>2015-2-4T9:52:1Z</time></trkpt>
<trkpt lat="44.809523932635784" lon="5.888504991307855"><ele></ele><time>2015-2-4T9:52:4Z</time></trkpt>
<trkpt lat="44.809236936271191" lon="5.889320969581604"><ele></ele><time>2015-2-4T9:52:7Z</time></trkpt>
<trkpt lat="44.808958992362022" lon="5.890117920935154"><ele></ele><time>2015-2-4T9:52:10Z</time></trkpt>
<trkpt lat="44.808595972135663" lon="5.891146967187524"><ele></ele><time>2015-2-4T9:52:13Z</time></trkpt>
<trkpt lat="44.808198921382427" lon="5.892273997887969"><ele></ele><time>2015-2-4T9:52:16Z</time></trkpt>
<trkpt lat="44.807802960276604" lon="5.893395999446511"><ele></ele><time>2015-2-4T9:52:19Z</time></trkpt>
<trkpt lat="44.807549994438887" lon="5.894132936373353"><ele></ele><time>2015-2-4T9:52:22Z</time></trkpt>
<trkpt lat="44.80736299417913" lon="5.894809942692518"><ele></ele><time>2015-2-4T9:52:25Z</time></trkpt>
<trkpt lat="44.80717096477747" lon="5.895786937326193"><ele></ele><time>2015-2-4T9:52:28Z</time></trkpt>
<trkpt lat="44.80699896812439" lon="5.896672988310456"><ele></ele><time>2015-2-4T9:52:31Z</time></trkpt>
<trkpt lat="44.806845998391509" lon="5.897591980174184"><ele></ele><time>2015-2-4T9:52:34Z</time></trkpt>
<trkpt lat="44.806643994525075" lon="5.898610968142748"><ele></ele><time>2015-2-4T9:52:37Z</time></trkpt>
<trkpt lat="44.806474931538105" lon="5.899483943358064"><ele></ele><time>2015-2-4T9:52:40Z</time></trkpt>
<trkpt lat="44.806315926834941" lon="5.900337975472212"><ele></ele><time>2015-2-4T9:52:43Z</time></trkpt>
<trkpt lat="44.806199921295047" lon="5.900952955707908"><ele></ele><time>2015-2-4T9:52:46Z</time></trkpt>
<trkpt lat="44.805984925478697" lon="5.901702968403697"><ele></ele><time>2015-2-4T9:52:49Z</time></trkpt>
<trkpt lat="44.805650990456343" lon="5.902387937530875"><ele></ele><time>2015-2-4T9:52:52Z</time></trkpt>
<trkpt lat="44.805272966623306" lon="5.902886996045709"><ele></ele><time>2015-2-4T9:52:55Z</time></trkpt>
<trkpt lat="44.804705930873752" lon="5.90344799682498"><ele></ele><time>2015-2-4T9:52:58Z</time></trkpt>
<trkpt lat="44.804276945069432" lon="5.903852926567197"><ele></ele><time>2015-2-4T9:53:1Z</time></trkpt>
<trkpt lat="44.803789956495166" lon="5.904319966211915"><ele></ele><time>2015-2-4T9:53:4Z</time></trkpt>
<trkpt lat="44.803244965150952" lon="5.90484794229269"><ele></ele><time>2015-2-4T9:53:7Z</time></trkpt>
<trkpt lat="44.802707936614752" lon="5.905361920595169"><ele></ele><time>2015-2-4T9:53:10Z</time></trkpt>
<trkpt lat="44.802199993282557" lon="5.905860979110003"><ele></ele><time>2015-2-4T9:53:13Z</time></trkpt>
<trkpt lat="44.801663970574737" lon="5.906363977119327"><ele></ele><time>2015-2-4T9:53:16Z</time></trkpt>
<trkpt lat="44.801019988954067" lon="5.907008964568377"><ele></ele><time>2015-2-4T9:53:19Z</time></trkpt>
<trkpt lat="44.80036293156445" lon="5.90761698782444"><ele></ele><time>2015-2-4T9:53:22Z</time></trkpt>
<trkpt lat="44.799792962148786" lon="5.90791798196733"><ele></ele><time>2015-2-4T9:53:25Z</time></trkpt>
<trkpt lat="44.799397923052311" lon="5.907333930954337"><ele></ele><time>2015-2-4T9:53:28Z</time></trkpt>
<trkpt lat="44.79898695833981" lon="5.906790951266885"><ele></ele><time>2015-2-4T9:53:31Z</time></trkpt>
<trkpt lat="44.798391927033663" lon="5.906584924086928"><ele></ele><time>2015-2-4T9:53:34Z</time></trkpt>
<trkpt lat="44.797774935141206" lon="5.90667293407023"><ele></ele><time>2015-2-4T9:53:37Z</time></trkpt>
<trkpt lat="44.797279983758926" lon="5.907944971695542"><ele></ele><time>2015-2-4T9:53:40Z</time></trkpt>
<trkpt lat="44.797003967687488" lon="5.908823981881142"><ele></ele><time>2015-2-4T9:53:43Z</time></trkpt>
<trkpt lat="44.796769944950938" lon="5.909579945728183"><ele></ele><time>2015-2-4T9:53:46Z</time></trkpt>
<trkpt lat="44.796568946912885" lon="5.910267932340503"><ele></ele><time>2015-2-4T9:53:49Z</time></trkpt>
<trkpt lat="44.795930916443467" lon="5.910438923165202"><ele></ele><time>2015-2-4T9:53:52Z</time></trkpt>
<trkpt lat="44.795222980901599" lon="5.910339932888746"><ele></ele><time>2015-2-4T9:53:55Z</time></trkpt>
<trkpt lat="44.794724928215146" lon="5.910277990624309"><ele></ele><time>2015-2-4T9:53:58Z</time></trkpt>
<trkpt lat="44.794047921895981" lon="5.910214958712459"><ele></ele><time>2015-2-4T9:54:1Z</time></trkpt>
<trkpt lat="44.793578954413533" lon="5.910144969820976"><ele></ele><time>2015-2-4T9:54:4Z</time></trkpt>
<trkpt lat="44.792892979457974" lon="5.910054948180914"><ele></ele><time>2015-2-4T9:54:7Z</time></trkpt>
<trkpt lat="44.792343964800239" lon="5.909988982602954"><ele></ele><time>2015-2-4T9:54:10Z</time></trkpt>
<trkpt lat="44.79170492850244" lon="5.909908935427666"><ele></ele><time>2015-2-4T9:54:13Z</time></trkpt>
<trkpt lat="44.791097994893789" lon="5.909831989556551"><ele></ele><time>2015-2-4T9:54:16Z</time></trkpt>
<trkpt lat="44.790616957470775" lon="5.909749930724502"><ele></ele><time>2015-2-4T9:54:19Z</time></trkpt>
<trkpt lat="44.790058974176645" lon="5.909643983468413"><ele></ele><time>2015-2-4T9:54:22Z</time></trkpt>
<trkpt lat="44.789386996999383" lon="5.909516997635365"><ele></ele><time>2015-2-4T9:54:25Z</time></trkpt>
<trkpt lat="44.788800934329629" lon="5.909407949075103"><ele></ele><time>2015-2-4T9:54:28Z</time></trkpt>
<trkpt lat="44.788166927173734" lon="5.909287920221686"><ele></ele><time>2015-2-4T9:54:31Z</time></trkpt>
<trkpt lat="44.787088930606842" lon="5.909087928012013"><ele></ele><time>2015-2-4T9:54:34Z</time></trkpt>
<trkpt lat="44.786035995930433" lon="5.908889947459102"><ele></ele><time>2015-2-4T9:54:37Z</time></trkpt>
<trkpt lat="44.785313978791237" lon="5.908753992989659"><ele></ele><time>2015-2-4T9:54:40Z</time></trkpt>
<trkpt lat="44.784734956920147" lon="5.908647961914539"><ele></ele><time>2015-2-4T9:54:43Z</time></trkpt>
<trkpt lat="44.784075971692801" lon="5.908535979688168"><ele></ele><time>2015-2-4T9:54:46Z</time></trkpt>
<trkpt lat="44.783543972298503" lon="5.908442940562964"><ele></ele><time>2015-2-4T9:54:49Z</time></trkpt>
<trkpt lat="44.782914994284511" lon="5.90832794085145"><ele></ele><time>2015-2-4T9:54:52Z</time></trkpt>
<trkpt lat="44.781879996880889" lon="5.908136917278171"><ele></ele><time>2015-2-4T9:54:55Z</time></trkpt>
<trkpt lat="44.780998975038528" lon="5.907970955595374"><ele></ele><time>2015-2-4T9:54:58Z</time></trkpt>
<trkpt lat="44.780525984242558" lon="5.907885963097215"><ele></ele><time>2015-2-4T9:55:1Z</time></trkpt>
<trkpt lat="44.779837997630239" lon="5.907753948122263"><ele></ele><time>2015-2-4T9:55:4Z</time></trkpt>
<trkpt lat="44.779365928843617" lon="5.907667949795723"><ele></ele><time>2015-2-4T9:55:7Z</time></trkpt>
<trkpt lat="44.778736950829625" lon="5.907545993104577"><ele></ele><time>2015-2-4T9:55:10Z</time></trkpt>
<trkpt lat="44.778210986405611" lon="5.907452953979373"><ele></ele><time>2015-2-4T9:55:13Z</time></trkpt>
<trkpt lat="44.777584942057729" lon="5.907336948439479"><ele></ele><time>2015-2-4T9:55:16Z</time></trkpt>
<trkpt lat="44.777013966813684" lon="5.907225972041488"><ele></ele><time>2015-2-4T9:55:19Z</time></trkpt>
<trkpt lat="44.776551956310868" lon="5.907134944573045"><ele></ele><time>2015-2-4T9:55:22Z</time></trkpt>
<trkpt lat="44.775624917820096" lon="5.906955990940332"><ele></ele><time>2015-2-4T9:55:25Z</time></trkpt>
<trkpt lat="44.775174977257848" lon="5.906808972358704"><ele></ele><time>2015-2-4T9:55:28Z</time></trkpt>
<trkpt lat="44.774479949846864" lon="5.906938975676894"><ele></ele><time>2015-2-4T9:55:31Z</time></trkpt>
<trkpt lat="44.774348940700293" lon="5.906284935772419"><ele></ele><time>2015-2-4T9:55:34Z</time></trkpt>
<trkpt lat="44.774200916290283" lon="5.90531699359417"><ele></ele><time>2015-2-4T9:55:37Z</time></trkpt>
<trkpt lat="44.774069990962744" lon="5.904634958133102"><ele></ele><time>2015-2-4T9:55:40Z</time></trkpt>
<trkpt lat="44.773966977372766" lon="5.90398695319891"><ele></ele><time>2015-2-4T9:55:43Z</time></trkpt>
<trkpt lat="44.774156995117664" lon="5.903350934386253"><ele></ele><time>2015-2-4T9:55:46Z</time></trkpt>
<trkpt lat="44.774352964013815" lon="5.902559934183955"><ele></ele><time>2015-2-4T9:55:49Z</time></trkpt>
<trkpt lat="44.774609953165054" lon="5.901590986177325"><ele></ele><time>2015-2-4T9:55:52Z</time></trkpt>
<trkpt lat="44.774723947048187" lon="5.900871986523271"><ele></ele><time>2015-2-4T9:55:55Z</time></trkpt>
<trkpt lat="44.774921927601099" lon="5.900283996015787"><ele></ele><time>2015-2-4T9:55:58Z</time></trkpt>
<trkpt lat="44.775213953107595" lon="5.8997549302876"><ele></ele><time>2015-2-4T9:56:1Z</time></trkpt>
<trkpt lat="44.77556498721242" lon="5.899039953947067"><ele></ele><time>2015-2-4T9:56:4Z</time></trkpt>
<trkpt lat="44.776105955243111" lon="5.898941969498992"><ele></ele><time>2015-2-4T9:56:7Z</time></trkpt>
<trkpt lat="44.775971928611398" lon="5.898130936548114"><ele></ele><time>2015-2-4T9:56:10Z</time></trkpt>
<trkpt lat="44.775560963898897" lon="5.897853998467326"><ele></ele><time>2015-2-4T9:56:13Z</time></trkpt>
<trkpt lat="44.775068946182728" lon="5.898007974028587"><ele></ele><time>2015-2-4T9:56:16Z</time></trkpt>
<trkpt lat="44.774596961215138" lon="5.898022977635264"><ele></ele><time>2015-2-4T9:56:19Z</time></trkpt>
<trkpt lat="44.774311976507306" lon="5.898649943992496"><ele></ele><time>2015-2-4T9:56:22Z</time></trkpt>
<trkpt lat="44.773783916607499" lon="5.898692943155766"><ele></ele><time>2015-2-4T9:56:25Z</time></trkpt>
<trkpt lat="44.773197937756777" lon="5.898577943444252"><ele></ele><time>2015-2-4T9:56:28Z</time></trkpt>
<trkpt lat="44.772563930600882" lon="5.898790927603841"><ele></ele><time>2015-2-4T9:56:31Z</time></trkpt>
<trkpt lat="44.772037966176867" lon="5.899327956140041"><ele></ele><time>2015-2-4T9:56:34Z</time></trkpt>
<trkpt lat="44.771503955125809" lon="5.899599948897958"><ele></ele><time>2015-2-4T9:56:37Z</time></trkpt>
<trkpt lat="44.771045967936516" lon="5.899309935048223"><ele></ele><time>2015-2-4T9:56:40Z</time></trkpt>
<trkpt lat="44.770375918596983" lon="5.898669976741076"><ele></ele><time>2015-2-4T9:56:43Z</time></trkpt>
<trkpt lat="44.770322944968939" lon="5.89807896874845"><ele></ele><time>2015-2-4T9:56:46Z</time></trkpt>
<trkpt lat="44.770475998520851" lon="5.897208927199245"><ele></ele><time>2015-2-4T9:56:49Z</time></trkpt>
<trkpt lat="44.770144997164607" lon="5.896236961707473"><ele></ele><time>2015-2-4T9:56:52Z</time></trkpt>
<trkpt lat="44.769571926444769" lon="5.895711919292808"><ele></ele><time>2015-2-4T9:56:55Z</time></trkpt>
<trkpt lat="44.769301945343614" lon="5.894656972959638"><ele></ele><time>2015-2-4T9:56:58Z</time></trkpt>
<trkpt lat="44.769110921770334" lon="5.894027994945645"><ele></ele><time>2015-2-4T9:57:1Z</time></trkpt>
<trkpt lat="44.768625944852829" lon="5.894165961071849"><ele></ele><time>2015-2-4T9:57:4Z</time></trkpt>
<trkpt lat="44.767905939370394" lon="5.894008968025446"><ele></ele><time>2015-2-4T9:57:7Z</time></trkpt>
<trkpt lat="44.767181994393468" lon="5.893776956945658"><ele></ele><time>2015-2-4T9:57:10Z</time></trkpt>
<trkpt lat="44.766772957518697" lon="5.893302960321307"><ele></ele><time>2015-2-4T9:57:13Z</time></trkpt>
<trkpt lat="44.766106931492686" lon="5.892809936776757"><ele></ele><time>2015-2-4T9:57:16Z</time></trkpt>
<trkpt lat="44.765294976532459" lon="5.891830930486321"><ele></ele><time>2015-2-4T9:57:19Z</time></trkpt>
<trkpt lat="44.764828942716122" lon="5.89126699604094"><ele></ele><time>2015-2-4T9:57:22Z</time></trkpt>
<trkpt lat="44.764341954141855" lon="5.890826946124435"><ele></ele><time>2015-2-4T9:57:25Z</time></trkpt>
<trkpt lat="44.763801991939545" lon="5.889855986461043"><ele></ele><time>2015-2-4T9:57:28Z</time></trkpt>
<trkpt lat="44.763417933136225" lon="5.889403950423002"><ele></ele><time>2015-2-4T9:57:31Z</time></trkpt>
<trkpt lat="44.762942930683494" lon="5.889097927138209"><ele></ele><time>2015-2-4T9:57:34Z</time></trkpt>
<trkpt lat="44.762420989573002" lon="5.888588977977634"><ele></ele><time>2015-2-4T9:57:37Z</time></trkpt>
<trkpt lat="44.762221919372678" lon="5.88776595890522"><ele></ele><time>2015-2-4T9:57:40Z</time></trkpt>
<trkpt lat="44.761911956593394" lon="5.8869709353894"><ele></ele><time>2015-2-4T9:57:43Z</time></trkpt>
<trkpt lat="44.761189939454198" lon="5.886136936023831"><ele></ele><time>2015-2-4T9:57:46Z</time></trkpt>
<trkpt lat="44.76091492921114" lon="5.88539999909699"><ele></ele><time>2015-2-4T9:57:49Z</time></trkpt>
<trkpt lat="44.760517962276936" lon="5.885167988017201"><ele></ele><time>2015-2-4T9:57:52Z</time></trkpt>
<trkpt lat="44.759936928749084" lon="5.884990962222219"><ele></ele><time>2015-2-4T9:57:55Z</time></trkpt>
<trkpt lat="44.759416999295354" lon="5.884780995547772"><ele></ele><time>2015-2-4T9:57:58Z</time></trkpt>
<trkpt lat="44.758785925805569" lon="5.884473966434598"><ele></ele><time>2015-2-4T9:58:1Z</time></trkpt>
<trkpt lat="44.758309917524457" lon="5.88441395200789"><ele></ele><time>2015-2-4T9:58:4Z</time></trkpt>
<trkpt lat="44.757552947849035" lon="5.884791975840926"><ele></ele><time>2015-2-4T9:58:7Z</time></trkpt>
<trkpt lat="44.757191939279437" lon="5.885252980515361"><ele></ele><time>2015-2-4T9:58:10Z</time></trkpt>
<trkpt lat="44.756783992052078" lon="5.885504940524697"><ele></ele><time>2015-2-4T9:58:13Z</time></trkpt>
<trkpt lat="44.756177980452776" lon="5.885383989661932"><ele></ele><time>2015-2-4T9:58:16Z</time></trkpt>
<trkpt lat="44.755704989656806" lon="5.885134963318706"><ele></ele><time>2015-2-4T9:58:19Z</time></trkpt>
<trkpt lat="44.755262928083539" lon="5.884244972839952"><ele></ele><time>2015-2-4T9:58:22Z</time></trkpt>
<trkpt lat="44.754679966717958" lon="5.883754966780543"><ele></ele><time>2015-2-4T9:58:25Z</time></trkpt>
<trkpt lat="44.753688974305987" lon="5.883736945688725"><ele></ele><time>2015-2-4T9:58:28Z</time></trkpt>
<trkpt lat="44.752955976873636" lon="5.883756978437305"><ele></ele><time>2015-2-4T9:58:31Z</time></trkpt>
<trkpt lat="44.752488937228918" lon="5.883668968454003"><ele></ele><time>2015-2-4T9:58:34Z</time></trkpt>
<trkpt lat="44.75180497393012" lon="5.8835119754076"><ele></ele><time>2015-2-4T9:58:37Z</time></trkpt>
<trkpt lat="44.751179935410619" lon="5.883568972349167"><ele></ele><time>2015-2-4T9:58:40Z</time></trkpt>
<trkpt lat="44.750975919887424" lon="5.884675970301032"><ele></ele><time>2015-2-4T9:58:43Z</time></trkpt>
<trkpt lat="44.75055699236691" lon="5.885252980515361"><ele></ele><time>2015-2-4T9:58:46Z</time></trkpt>
<trkpt lat="44.749964978545904" lon="5.885097999125719"><ele></ele><time>2015-2-4T9:58:49Z</time></trkpt>
<trkpt lat="44.749480923637748" lon="5.885031949728727"><ele></ele><time>2015-2-4T9:58:52Z</time></trkpt>
<trkpt lat="44.74905394949019" lon="5.885240994393826"><ele></ele><time>2015-2-4T9:58:55Z</time></trkpt>
<trkpt lat="44.748575929552317" lon="5.88533797301352"><ele></ele><time>2015-2-4T9:58:58Z</time></trkpt>
<trkpt lat="44.74813194014132" lon="5.885221967473626"><ele></ele><time>2015-2-4T9:59:1Z</time></trkpt>
<trkpt lat="44.74770094268024" lon="5.88537996634841"><ele></ele><time>2015-2-4T9:59:4Z</time></trkpt>
<trkpt lat="44.747231975197792" lon="5.885558919981122"><ele></ele><time>2015-2-4T9:59:7Z</time></trkpt>
<trkpt lat="44.74664993584156" lon="5.885394969955087"><ele></ele><time>2015-2-4T9:59:10Z</time></trkpt>
<trkpt lat="44.746183985844254" lon="5.885239988565445"><ele></ele><time>2015-2-4T9:59:13Z</time></trkpt>
<trkpt lat="44.745750976726413" lon="5.885567972436547"><ele></ele><time>2015-2-4T9:59:16Z</time></trkpt>
<trkpt lat="44.745352920144796" lon="5.885719936341047"><ele></ele><time>2015-2-4T9:59:19Z</time></trkpt>
<trkpt lat="44.74492996931076" lon="5.886020930483937"><ele></ele><time>2015-2-4T9:59:22Z</time></trkpt>
<trkpt lat="44.744461923837662" lon="5.886229975149036"><ele></ele><time>2015-2-4T9:59:25Z</time></trkpt>
<trkpt lat="44.744140980765224" lon="5.886666923761368"><ele></ele><time>2015-2-4T9:59:28Z</time></trkpt>
<trkpt lat="44.743821965530515" lon="5.887416936457157"><ele></ele><time>2015-2-4T9:59:31Z</time></trkpt>
<trkpt lat="44.743525916710496" lon="5.888074999675155"><ele></ele><time>2015-2-4T9:59:34Z</time></trkpt>
<trkpt lat="44.742990983650088" lon="5.888272980228066"><ele></ele><time>2015-2-4T9:59:37Z</time></trkpt>
<trkpt lat="44.742519920691848" lon="5.888715963810682"><ele></ele><time>2015-2-4T9:59:40Z</time></trkpt>
<trkpt lat="44.742659982293844" lon="5.889547951519489"><ele></ele><time>2015-2-4T9:59:43Z</time></trkpt>
<trkpt lat="44.742873972281814" lon="5.890200985595584"><ele></ele><time>2015-2-4T9:59:46Z</time></trkpt>
<trkpt lat="44.742706920951605" lon="5.890541961416602"><ele></ele><time>2015-2-4T9:59:49Z</time></trkpt>
<trkpt lat="44.742261925712228" lon="5.890808925032616"><ele></ele><time>2015-2-4T9:59:52Z</time></trkpt>
<trkpt lat="44.741871999576688" lon="5.89118393138051"><ele></ele><time>2015-2-4T9:59:55Z</time></trkpt>
<trkpt lat="44.741306975483894" lon="5.891479980200529"><ele></ele><time>2015-2-4T9:59:58Z</time></trkpt>
<trkpt lat="44.740769946947694" lon="5.891641918569803"><ele></ele><time>2015-2-4T10:0:1Z</time></trkpt>
<trkpt lat="44.740066956728697" lon="5.891790948808193"><ele></ele><time>2015-2-4T10:0:4Z</time></trkpt>
<trkpt lat="44.739517942070961" lon="5.892025977373123"><ele></ele><time>2015-2-4T10:0:7Z</time></trkpt>
<trkpt lat="44.738872954621911" lon="5.891944924369454"><ele></ele><time>2015-2-4T10:0:10Z</time></trkpt>
<trkpt lat="44.738395940512419" lon="5.89141795411706"><ele></ele><time>2015-2-4T10:0:13Z</time></trkpt>
<trkpt lat="44.737731926143169" lon="5.891300942748785"><ele></ele><time>2015-2-4T10:0:16Z</time></trkpt>
<trkpt lat="44.737352980300784" lon="5.891814921051264"><ele></ele><time>2015-2-4T10:0:19Z</time></trkpt>
<trkpt lat="44.736954923719168" lon="5.892644980922341"><ele></ele><time>2015-2-4T10:0:22Z</time></trkpt>
<trkpt lat="44.736599950119853" lon="5.893383929505944"><ele></ele><time>2015-2-4T10:0:25Z</time></trkpt>
<trkpt lat="44.736427953466773" lon="5.894289929419756"><ele></ele><time>2015-2-4T10:0:28Z</time></trkpt>
<trkpt lat="44.736146992072463" lon="5.894777923822403"><ele></ele><time>2015-2-4T10:0:31Z</time></trkpt>
<trkpt lat="44.735610969364643" lon="5.894393948838115"><ele></ele><time>2015-2-4T10:0:34Z</time></trkpt>
<trkpt lat="44.734914936125278" lon="5.894625959917903"><ele></ele><time>2015-2-4T10:0:37Z</time></trkpt>
<trkpt lat="44.734457954764366" lon="5.894934916868806"><ele></ele><time>2015-2-4T10:0:40Z</time></trkpt>
<trkpt lat="44.734176993370056" lon="5.895623993128538"><ele></ele><time>2015-2-4T10:0:43Z</time></trkpt>
<trkpt lat="44.733518930152059" lon="5.895493989810348"><ele></ele><time>2015-2-4T10:0:46Z</time></trkpt>
<trkpt lat="44.732889952138066" lon="5.895474962890148"><ele></ele><time>2015-2-4T10:0:49Z</time></trkpt>
<trkpt lat="44.732411932200193" lon="5.896050967276096"><ele></ele><time>2015-2-4T10:0:52Z</time></trkpt>
<trkpt lat="44.731951933354139" lon="5.896321954205632"><ele></ele><time>2015-2-4T10:0:55Z</time></trkpt>
<trkpt lat="44.731310969218612" lon="5.896643986925483"><ele></ele><time>2015-2-4T10:0:58Z</time></trkpt>
<trkpt lat="44.730688948184252" lon="5.897181937471032"><ele></ele><time>2015-2-4T10:1:1Z</time></trkpt>
<trkpt lat="44.730516951531172" lon="5.897897919639945"><ele></ele><time>2015-2-4T10:1:4Z</time></trkpt>
<trkpt lat="44.730134988203645" lon="5.898135965690017"><ele></ele><time>2015-2-4T10:1:7Z</time></trkpt>
<trkpt lat="44.730265997350216" lon="5.898149963468313"><ele></ele><time>2015-2-4T10:1:10Z</time></trkpt>
<trkpt lat="44.730552993714809" lon="5.897523919120431"><ele></ele><time>2015-2-4T10:1:13Z</time></trkpt>
<trkpt lat="44.731061942875385" lon="5.896906927227974"><ele></ele><time>2015-2-4T10:1:16Z</time></trkpt>
<trkpt lat="44.731511967256665" lon="5.896563939750195"><ele></ele><time>2015-2-4T10:1:19Z</time></trkpt>
<trkpt lat="44.731922931969166" lon="5.896248947829008"><ele></ele><time>2015-2-4T10:1:22Z</time></trkpt>
<trkpt lat="44.731469973921776" lon="5.8962959703058"><ele></ele><time>2015-2-4T10:1:25Z</time></trkpt>
<trkpt lat="44.730898998677731" lon="5.896393954753876"><ele></ele><time>2015-2-4T10:1:28Z</time></trkpt>
<trkpt lat="44.730454925447702" lon="5.896493950858712"><ele></ele><time>2015-2-4T10:1:31Z</time></trkpt>
<trkpt lat="44.729948993772268" lon="5.896822940558195"><ele></ele><time>2015-2-4T10:1:34Z</time></trkpt>
<trkpt lat="44.729400984942913" lon="5.897177997976542"><ele></ele><time>2015-2-4T10:1:37Z</time></trkpt>
<trkpt lat="44.728736970573664" lon="5.897230971604586"><ele></ele><time>2015-2-4T10:1:40Z</time></trkpt>
<trkpt lat="44.728235984221101" lon="5.897297943010926"><ele></ele><time>2015-2-4T10:1:43Z</time></trkpt>
<trkpt lat="44.727614969015121" lon="5.89728394523263"><ele></ele><time>2015-2-4T10:1:46Z</time></trkpt>
<trkpt lat="44.727152958512306" lon="5.897375978529453"><ele></ele><time>2015-2-4T10:1:49Z</time></trkpt>
<trkpt lat="44.726677956059575" lon="5.897280927747488"><ele></ele><time>2015-2-4T10:1:52Z</time></trkpt>
<trkpt lat="44.726116955280304" lon="5.897071966901422"><ele></ele><time>2015-2-4T10:1:55Z</time></trkpt>
<trkpt lat="44.725492922589183" lon="5.896755969151855"><ele></ele><time>2015-2-4T10:1:58Z</time></trkpt>
<trkpt lat="44.724972993135452" lon="5.896632922813296"><ele></ele><time>2015-2-4T10:2:1Z</time></trkpt>
<trkpt lat="44.724315935745835" lon="5.896290941163898"><ele></ele><time>2015-2-4T10:2:4Z</time></trkpt>
<trkpt lat="44.723623925819993" lon="5.895879976451397"><ele></ele><time>2015-2-4T10:2:7Z</time></trkpt>
<trkpt lat="44.723009951412678" lon="5.895389970391989"><ele></ele><time>2015-2-4T10:2:10Z</time></trkpt>
<trkpt lat="44.72247694619" lon="5.894415993243456"><ele></ele><time>2015-2-4T10:2:13Z</time></trkpt>
<trkpt lat="44.722037985920906" lon="5.893505970016122"><ele></ele><time>2015-2-4T10:2:16Z</time></trkpt>
<trkpt lat="44.721309933811426" lon="5.892743971198797"><ele></ele><time>2015-2-4T10:2:19Z</time></trkpt>
<trkpt lat="44.7209089435637" lon="5.892318924888969"><ele></ele><time>2015-2-4T10:2:22Z</time></trkpt>
<trkpt lat="44.720422960817814" lon="5.891728922724724"><ele></ele><time>2015-2-4T10:2:25Z</time></trkpt>
<trkpt lat="44.719906970858574" lon="5.890975976362824"><ele></ele><time>2015-2-4T10:2:28Z</time></trkpt>
<trkpt lat="44.719422999769449" lon="5.890149939805269"><ele></ele><time>2015-2-4T10:2:31Z</time></trkpt>
<trkpt lat="44.71910398453474" lon="5.889622969552875"><ele></ele><time>2015-2-4T10:2:34Z</time></trkpt>
<trkpt lat="44.718756973743439" lon="5.88881797157228"><ele></ele><time>2015-2-4T10:2:37Z</time></trkpt>
<trkpt lat="44.718530997633934" lon="5.888251941651106"><ele></ele><time>2015-2-4T10:2:40Z</time></trkpt>
<trkpt lat="44.718004949390888" lon="5.888269962742925"><ele></ele><time>2015-2-4T10:2:43Z</time></trkpt>
<trkpt lat="44.717576969414949" lon="5.887820944190025"><ele></ele><time>2015-2-4T10:2:46Z</time></trkpt>
<trkpt lat="44.717109929770231" lon="5.887516932561994"><ele></ele><time>2015-2-4T10:2:49Z</time></trkpt>
<trkpt lat="44.716584971174598" lon="5.887242928147316"><ele></ele><time>2015-2-4T10:2:52Z</time></trkpt>
<trkpt lat="44.715993963181973" lon="5.887301936745644"><ele></ele><time>2015-2-4T10:2:55Z</time></trkpt>
<trkpt lat="44.715533964335918" lon="5.887217950075865"><ele></ele><time>2015-2-4T10:2:58Z</time></trkpt>
<trkpt lat="44.715021997690201" lon="5.886683939024806"><ele></ele><time>2015-2-4T10:3:1Z</time></trkpt>
<trkpt lat="44.714415986090899" lon="5.886508924886584"><ele></ele><time>2015-2-4T10:3:4Z</time></trkpt>
<trkpt lat="44.713864959776402" lon="5.885966951027513"><ele></ele><time>2015-2-4T10:3:7Z</time></trkpt>
<trkpt lat="44.713738979771733" lon="5.886261994019151"><ele></ele><time>2015-2-4T10:3:10Z</time></trkpt>
<trkpt lat="44.714051960036159" lon="5.886988956481218"><ele></ele><time>2015-2-4T10:3:13Z</time></trkpt>
<trkpt lat="44.714338956400752" lon="5.887591950595379"><ele></ele><time>2015-2-4T10:3:16Z</time></trkpt>
<trkpt lat="44.714567949995399" lon="5.888243978843093"><ele></ele><time>2015-2-4T10:3:19Z</time></trkpt>
<trkpt lat="44.71452696248889" lon="5.888918973505497"><ele></ele><time>2015-2-4T10:3:22Z</time></trkpt>
<trkpt lat="44.714262932538986" lon="5.889646941795945"><ele></ele><time>2015-2-4T10:3:25Z</time></trkpt>
<trkpt lat="44.713994963094592" lon="5.890248930081725"><ele></ele><time>2015-2-4T10:3:28Z</time></trkpt>
<trkpt lat="44.713556924834847" lon="5.890555959194899"><ele></ele><time>2015-2-4T10:3:31Z</time></trkpt>
<trkpt lat="44.712917972356081" lon="5.890670958906412"><ele></ele><time>2015-2-4T10:3:34Z</time></trkpt>
<trkpt lat="44.71246593631804" lon="5.891037918627262"><ele></ele><time>2015-2-4T10:3:37Z</time></trkpt>
<trkpt lat="44.712005937471986" lon="5.891076978296042"><ele></ele><time>2015-2-4T10:3:40Z</time></trkpt>
<trkpt lat="44.711400931701064" lon="5.891247969120741"><ele></ele><time>2015-2-4T10:3:43Z</time></trkpt>
<trkpt lat="44.710926935076714" lon="5.891423989087343"><ele></ele><time>2015-2-4T10:3:46Z</time></trkpt>
<trkpt lat="44.710433995351195" lon="5.891316952183843"><ele></ele><time>2015-2-4T10:3:49Z</time></trkpt>
<trkpt lat="44.709854973480105" lon="5.891263978555799"><ele></ele><time>2015-2-4T10:3:52Z</time></trkpt>
<trkpt lat="44.709318950772285" lon="5.891105979681015"><ele></ele><time>2015-2-4T10:3:55Z</time></trkpt>
<trkpt lat="44.708809917792678" lon="5.890975976362824"><ele></ele><time>2015-2-4T10:3:58Z</time></trkpt>
<trkpt lat="44.708375986665487" lon="5.890629971399903"><ele></ele><time>2015-2-4T10:4:1Z</time></trkpt>
<trkpt lat="44.707955969497561" lon="5.890049943700433"><ele></ele><time>2015-2-4T10:4:4Z</time></trkpt>
<trkpt lat="44.707485996186733" lon="5.889687929302454"><ele></ele><time>2015-2-4T10:4:7Z</time></trkpt>
<trkpt lat="44.706988949328661" lon="5.889509981498122"><ele></ele><time>2015-2-4T10:4:10Z</time></trkpt>
<trkpt lat="44.706618972122669" lon="5.889050988480449"><ele></ele><time>2015-2-4T10:4:13Z</time></trkpt>
<trkpt lat="44.706390984356403" lon="5.888436930254102"><ele></ele><time>2015-2-4T10:4:16Z</time></trkpt>
<trkpt lat="44.706148998811841" lon="5.887862937524915"><ele></ele><time>2015-2-4T10:4:19Z</time></trkpt>
<trkpt lat="44.705698974430561" lon="5.887497989460826"><ele></ele><time>2015-2-4T10:4:22Z</time></trkpt>
<trkpt lat="44.705449948087335" lon="5.886938916519284"><ele></ele><time>2015-2-4T10:4:25Z</time></trkpt>
<trkpt lat="44.704989949241281" lon="5.886185970157385"><ele></ele><time>2015-2-4T10:4:28Z</time></trkpt>
<trkpt lat="44.704661965370178" lon="5.885604936629534"><ele></ele><time>2015-2-4T10:4:31Z</time></trkpt>
<trkpt lat="44.704371951520443" lon="5.884897923097014"><ele></ele><time>2015-2-4T10:4:34Z</time></trkpt>
<trkpt lat="44.703942965716124" lon="5.884430967271328"><ele></ele><time>2015-2-4T10:4:37Z</time></trkpt>
<trkpt lat="44.703120952472091" lon="5.88400399312377"><ele></ele><time>2015-2-4T10:4:40Z</time></trkpt>
<trkpt lat="44.70253799110651" lon="5.883718924596906"><ele></ele><time>2015-2-4T10:4:43Z</time></trkpt>
<trkpt lat="44.702074974775314" lon="5.883531924337149"><ele></ele><time>2015-2-4T10:4:46Z</time></trkpt>
<trkpt lat="44.701530989259481" lon="5.883419942110777"><ele></ele><time>2015-2-4T10:4:49Z</time></trkpt>
<trkpt lat="44.700639992952347" lon="5.883137974888086"><ele></ele><time>2015-2-4T10:4:52Z</time></trkpt>
<trkpt lat="44.699895931407809" lon="5.882632965222001"><ele></ele><time>2015-2-4T10:4:55Z</time></trkpt>
<trkpt lat="44.699019938707352" lon="5.88209199719131"><ele></ele><time>2015-2-4T10:4:58Z</time></trkpt>
<trkpt lat="44.698486933484674" lon="5.881696958094835"><ele></ele><time>2015-2-4T10:5:1Z</time></trkpt>
<trkpt lat="44.697718983516097" lon="5.881161941215396"><ele></ele><time>2015-2-4T10:5:4Z</time></trkpt>
<trkpt lat="44.697065949440002" lon="5.88095691986382"><ele></ele><time>2015-2-4T10:5:7Z</time></trkpt>
<trkpt lat="44.696215940639377" lon="5.880821971222758"><ele></ele><time>2015-2-4T10:5:10Z</time></trkpt>
<trkpt lat="44.695511944591999" lon="5.880865976214409"><ele></ele><time>2015-2-4T10:5:13Z</time></trkpt>
<trkpt lat="44.694936946034431" lon="5.880850972607732"><ele></ele><time>2015-2-4T10:5:16Z</time></trkpt>
<trkpt lat="44.695252943783998" lon="5.881797960028052"><ele></ele><time>2015-2-4T10:5:19Z</time></trkpt>
<trkpt lat="44.695573970675468" lon="5.882242955267429"><ele></ele><time>2015-2-4T10:5:22Z</time></trkpt>
<trkpt lat="44.695032918825746" lon="5.882156956940889"><ele></ele><time>2015-2-4T10:5:25Z</time></trkpt>
<trkpt lat="44.694464961066842" lon="5.881977919489145"><ele></ele><time>2015-2-4T10:5:28Z</time></trkpt>
<trkpt lat="44.693942936137319" lon="5.881538959220052"><ele></ele><time>2015-2-4T10:5:31Z</time></trkpt>
<trkpt lat="44.693473968654871" lon="5.881226984784007"><ele></ele><time>2015-2-4T10:5:34Z</time></trkpt>
<trkpt lat="44.692790927365422" lon="5.880678975954652"><ele></ele><time>2015-2-4T10:5:37Z</time></trkpt>
<trkpt lat="44.691985929384828" lon="5.879851933568716"><ele></ele><time>2015-2-4T10:5:40Z</time></trkpt>
<trkpt lat="44.691598936915398" lon="5.879453960806131"><ele></ele><time>2015-2-4T10:5:43Z</time></trkpt>
<trkpt lat="44.690954955294728" lon="5.878929924219847"><ele></ele><time>2015-2-4T10:5:46Z</time></trkpt>
<trkpt lat="44.690509960055351" lon="5.878623984754086"><ele></ele><time>2015-2-4T10:5:49Z</time></trkpt>
<trkpt lat="44.690074939280748" lon="5.878275968134403"><ele></ele><time>2015-2-4T10:5:52Z</time></trkpt>
<trkpt lat="44.689677972346544" lon="5.87796893902123"><ele></ele><time>2015-2-4T10:5:55Z</time></trkpt>
<trkpt lat="44.689257955178618" lon="5.87764497846365"><ele></ele><time>2015-2-4T10:5:58Z</time></trkpt>
<trkpt lat="44.688816983252764" lon="5.877442974597216"><ele></ele><time>2015-2-4T10:6:1Z</time></trkpt>
<trkpt lat="44.688344998285174" lon="5.877356976270676"><ele></ele><time>2015-2-4T10:6:4Z</time></trkpt>
<trkpt lat="44.687939984723926" lon="5.877060927450657"><ele></ele><time>2015-2-4T10:6:7Z</time></trkpt>
<trkpt lat="44.687547963112593" lon="5.876696985214949"><ele></ele><time>2015-2-4T10:6:10Z</time></trkpt>
<trkpt lat="44.686880931258202" lon="5.876200944185257"><ele></ele><time>2015-2-4T10:6:13Z</time></trkpt>
<trkpt lat="44.686286989599466" lon="5.875861980021"><ele></ele><time>2015-2-4T10:6:16Z</time></trkpt>
<trkpt lat="44.685848951339722" lon="5.875397957861424"><ele></ele><time>2015-2-4T10:6:19Z</time></trkpt>
<trkpt lat="44.685165993869305" lon="5.874985987320542"><ele></ele><time>2015-2-4T10:6:22Z</time></trkpt>
<trkpt lat="44.684392930939794" lon="5.874593965709209"><ele></ele><time>2015-2-4T10:6:25Z</time></trkpt>
<trkpt lat="44.683822961524129" lon="5.874328929930925"><ele></ele><time>2015-2-4T10:6:28Z</time></trkpt>
<trkpt lat="44.683336978778243" lon="5.873932968825102"><ele></ele><time>2015-2-4T10:6:31Z</time></trkpt>
<trkpt lat="44.682832974940538" lon="5.873778993263841"><ele></ele><time>2015-2-4T10:6:34Z</time></trkpt>
<trkpt lat="44.682473978027701" lon="5.873324945569038"><ele></ele><time>2015-2-4T10:6:37Z</time></trkpt>
<trkpt lat="44.682100983336568" lon="5.872855978086591"><ele></ele><time>2015-2-4T10:6:40Z</time></trkpt>
<trkpt lat="44.681280981749296" lon="5.872323978692293"><ele></ele><time>2015-2-4T10:6:43Z</time></trkpt>
<trkpt lat="44.680888960137963" lon="5.872009992599487"><ele></ele><time>2015-2-4T10:6:46Z</time></trkpt>
<trkpt lat="44.680458968505263" lon="5.871671950444579"><ele></ele><time>2015-2-4T10:6:49Z</time></trkpt>
<trkpt lat="44.679922945797443" lon="5.871229972690344"><ele></ele><time>2015-2-4T10:6:52Z</time></trkpt>
<trkpt lat="44.679450960829854" lon="5.870705936104059"><ele></ele><time>2015-2-4T10:6:55Z</time></trkpt>
<trkpt lat="44.679071931168437" lon="5.87025691755116"><ele></ele><time>2015-2-4T10:6:58Z</time></trkpt>
<trkpt lat="44.678634982556105" lon="5.870453976094723"><ele></ele><time>2015-2-4T10:7:1Z</time></trkpt>
<trkpt lat="44.678131984546781" lon="5.870010992512107"><ele></ele><time>2015-2-4T10:7:4Z</time></trkpt>
<trkpt lat="44.677734933793545" lon="5.869630957022309"><ele></ele><time>2015-2-4T10:7:7Z</time></trkpt>
<trkpt lat="44.677318939939141" lon="5.86918193846941"><ele></ele><time>2015-2-4T10:7:10Z</time></trkpt>
<trkpt lat="44.676918955519795" lon="5.868348944932222"><ele></ele><time>2015-2-4T10:7:13Z</time></trkpt>
<trkpt lat="44.676598934456706" lon="5.867624999955297"><ele></ele><time>2015-2-4T10:7:16Z</time></trkpt>
<trkpt lat="44.67613197863102" lon="5.867143962532282"><ele></ele><time>2015-2-4T10:7:19Z</time></trkpt>
<trkpt lat="44.675525967031717" lon="5.867421990260482"><ele></ele><time>2015-2-4T10:7:22Z</time></trkpt>
<trkpt lat="44.674911992624402" lon="5.867554927244782"><ele></ele><time>2015-2-4T10:7:25Z</time></trkpt>
<trkpt lat="44.674439923837781" lon="5.867534978315234"><ele></ele><time>2015-2-4T10:7:28Z</time></trkpt>
<trkpt lat="44.673839947208762" lon="5.86735594086349"><ele></ele><time>2015-2-4T10:7:31Z</time></trkpt>
<trkpt lat="44.673367962241173" lon="5.867114961147308"><ele></ele><time>2015-2-4T10:7:34Z</time></trkpt>
<trkpt lat="44.672884996980429" lon="5.866989986971021"><ele></ele><time>2015-2-4T10:7:37Z</time></trkpt>
<trkpt lat="44.672427931800485" lon="5.866911951452494"><ele></ele><time>2015-2-4T10:7:40Z</time></trkpt>
<trkpt lat="44.671830972656608" lon="5.866577932611108"><ele></ele><time>2015-2-4T10:7:43Z</time></trkpt>
<trkpt lat="44.671352952718735" lon="5.866175936535001"><ele></ele><time>2015-2-4T10:7:46Z</time></trkpt>
<trkpt lat="44.671135945245624" lon="5.865576965734363"><ele></ele><time>2015-2-4T10:7:49Z</time></trkpt>
<trkpt lat="44.670715928077698" lon="5.865229954943061"><ele></ele><time>2015-2-4T10:7:52Z</time></trkpt>
<trkpt lat="44.670236986130476" lon="5.864874981343746"><ele></ele><time>2015-2-4T10:7:55Z</time></trkpt>
<trkpt lat="44.669734993949533" lon="5.864249942824245"><ele></ele><time>2015-2-4T10:7:58Z</time></trkpt>
<trkpt lat="44.669013982638717" lon="5.864080963656306"><ele></ele><time>2015-2-4T10:8:1Z</time></trkpt>
<trkpt lat="44.668555995449424" lon="5.863826991990209"><ele></ele><time>2015-2-4T10:8:4Z</time></trkpt>
<trkpt lat="44.668149976059794" lon="5.863137999549508"><ele></ele><time>2015-2-4T10:8:7Z</time></trkpt>
<trkpt lat="44.667936991900206" lon="5.862556966021657"><ele></ele><time>2015-2-4T10:8:10Z</time></trkpt>
<trkpt lat="44.667815957218409" lon="5.86187694221735"><ele></ele><time>2015-2-4T10:8:13Z</time></trkpt>
<trkpt lat="44.668147964403033" lon="5.861402945593"><ele></ele><time>2015-2-4T10:8:16Z</time></trkpt>
<trkpt lat="44.668288948014379" lon="5.860627954825759"><ele></ele><time>2015-2-4T10:8:19Z</time></trkpt>
<trkpt lat="44.668433954939246" lon="5.85987794212997"><ele></ele><time>2015-2-4T10:8:22Z</time></trkpt>
<trkpt lat="44.668090967461467" lon="5.85920998826623"><ele></ele><time>2015-2-4T10:8:25Z</time></trkpt>
<trkpt lat="44.667665921151638" lon="5.858345981687307"><ele></ele><time>2015-2-4T10:8:28Z</time></trkpt>
<trkpt lat="44.667329974472523" lon="5.857924958691001"><ele></ele><time>2015-2-4T10:8:31Z</time></trkpt>
<trkpt lat="44.666735948994756" lon="5.857757991179824"><ele></ele><time>2015-2-4T10:8:34Z</time></trkpt>
<trkpt lat="44.666313920170069" lon="5.857540983706713"><ele></ele><time>2015-2-4T10:8:37Z</time></trkpt>
<trkpt lat="44.666092973202467" lon="5.857037985697389"><ele></ele><time>2015-2-4T10:8:40Z</time></trkpt>
<trkpt lat="44.666062965989113" lon="5.856041964143515"><ele></ele><time>2015-2-4T10:8:43Z</time></trkpt>
<trkpt lat="44.665536917746067" lon="5.855463948100805"><ele></ele><time>2015-2-4T10:8:46Z</time></trkpt>
<trkpt lat="44.664840968325734" lon="5.854985928162932"><ele></ele><time>2015-2-4T10:8:49Z</time></trkpt>
<trkpt lat="44.663884928449988" lon="5.854351921007037"><ele></ele><time>2015-2-4T10:8:52Z</time></trkpt>
<trkpt lat="44.662750940769911" lon="5.854344964027405"><ele></ele><time>2015-2-4T10:8:55Z</time></trkpt>
<trkpt lat="44.661996988579631" lon="5.854382934048772"><ele></ele><time>2015-2-4T10:8:58Z</time></trkpt>
<trkpt lat="44.661147985607386" lon="5.854383939877152"><ele></ele><time>2015-2-4T10:9:1Z</time></trkpt>
<trkpt lat="44.660452958196402" lon="5.854405984282494"><ele></ele><time>2015-2-4T10:9:4Z</time></trkpt>
<trkpt lat="44.659924982115626" lon="5.854654926806688"><ele></ele><time>2015-2-4T10:9:7Z</time></trkpt>
<trkpt lat="44.659428941085935" lon="5.854913927614689"><ele></ele><time>2015-2-4T10:9:10Z</time></trkpt>
<trkpt lat="44.658897947520018" lon="5.854974947869778"><ele></ele><time>2015-2-4T10:9:13Z</time></trkpt>
<trkpt lat="44.658336946740746" lon="5.854862965643406"><ele></ele><time>2015-2-4T10:9:16Z</time></trkpt>
<trkpt lat="44.657445950433612" lon="5.854679988697171"><ele></ele><time>2015-2-4T10:9:19Z</time></trkpt>
<trkpt lat="44.656848991289735" lon="5.854675965383649"><ele></ele><time>2015-2-4T10:9:22Z</time></trkpt>
<trkpt lat="44.65630492195487" lon="5.854976959526539"><ele></ele><time>2015-2-4T10:9:25Z</time></trkpt>
<trkpt lat="44.655618946999311" lon="5.855810958892107"><ele></ele><time>2015-2-4T10:9:28Z</time></trkpt>
<trkpt lat="44.655039925128222" lon="5.856117988005281"><ele></ele><time>2015-2-4T10:9:31Z</time></trkpt>
<trkpt lat="44.653901997953653" lon="5.856293924152851"><ele></ele><time>2015-2-4T10:9:34Z</time></trkpt>
<trkpt lat="44.653276959434152" lon="5.856400961056352"><ele></ele><time>2015-2-4T10:9:37Z</time></trkpt>
<trkpt lat="44.652685951441526" lon="5.856295935809612"><ele></ele><time>2015-2-4T10:9:40Z</time></trkpt>
<trkpt lat="44.652145989239216" lon="5.856014974415302"><ele></ele><time>2015-2-4T10:9:43Z</time></trkpt>
<trkpt lat="44.651547940447927" lon="5.855531925335527"><ele></ele><time>2015-2-4T10:9:46Z</time></trkpt>
<trkpt lat="44.65073699131608" lon="5.854882998391986"><ele></ele><time>2015-2-4T10:9:49Z</time></trkpt>
<trkpt lat="44.649982955306768" lon="5.854295929893851"><ele></ele><time>2015-2-4T10:9:52Z</time></trkpt>
<trkpt lat="44.649284994229674" lon="5.853780945762992"><ele></ele><time>2015-2-4T10:9:55Z</time></trkpt>
<trkpt lat="44.648808985948563" lon="5.853580953553319"><ele></ele><time>2015-2-4T10:9:58Z</time></trkpt>
<trkpt lat="44.647939950227737" lon="5.853378949686885"><ele></ele><time>2015-2-4T10:10:1Z</time></trkpt>
<trkpt lat="44.646456940099597" lon="5.853007966652513"><ele></ele><time>2015-2-4T10:10:4Z</time></trkpt>
<trkpt lat="44.645189931616187" lon="5.852556936442852"><ele></ele><time>2015-2-4T10:10:7Z</time></trkpt>
<trkpt lat="44.644591966643929" lon="5.85233598947525"><ele></ele><time>2015-2-4T10:10:10Z</time></trkpt>
<trkpt lat="44.644074970856309" lon="5.851967940106988"><ele></ele><time>2015-2-4T10:10:13Z</time></trkpt>
<trkpt lat="44.643514975905418" lon="5.851615983992815"><ele></ele><time>2015-2-4T10:10:16Z</time></trkpt>
<trkpt lat="44.642958920449018" lon="5.851375926285982"><ele></ele><time>2015-2-4T10:10:19Z</time></trkpt>
<trkpt lat="44.642506968230009" lon="5.850943922996521"><ele></ele><time>2015-2-4T10:10:22Z</time></trkpt>
<trkpt lat="44.642165992408991" lon="5.850462969392538"><ele></ele><time>2015-2-4T10:10:25Z</time></trkpt>
<trkpt lat="44.642130956053734" lon="5.851122960448265"><ele></ele><time>2015-2-4T10:10:28Z</time></trkpt>
<trkpt lat="44.642609981819987" lon="5.851527974009514"><ele></ele><time>2015-2-4T10:10:31Z</time></trkpt>
<trkpt lat="44.64287493377924" lon="5.852019991725683"><ele></ele><time>2015-2-4T10:10:34Z</time></trkpt>
<trkpt lat="44.642435973510146" lon="5.852260971441865"><ele></ele><time>2015-2-4T10:10:37Z</time></trkpt>
<trkpt lat="44.641864998266101" lon="5.852078916504979"><ele></ele><time>2015-2-4T10:10:40Z</time></trkpt>
<trkpt lat="44.64139393530786" lon="5.851758979260922"><ele></ele><time>2015-2-4T10:10:43Z</time></trkpt>
<trkpt lat="44.640837963670492" lon="5.850635971873999"><ele></ele><time>2015-2-4T10:10:46Z</time></trkpt>
<trkpt lat="44.640418952330947" lon="5.850115958601236"><ele></ele><time>2015-2-4T10:10:49Z</time></trkpt>
<trkpt lat="44.639251939952374" lon="5.849520927295089"><ele></ele><time>2015-2-4T10:10:52Z</time></trkpt>
<trkpt lat="44.638518942520022" lon="5.849201995879412"><ele></ele><time>2015-2-4T10:10:55Z</time></trkpt>
<trkpt lat="44.638036983087659" lon="5.849257986992598"><ele></ele><time>2015-2-4T10:10:58Z</time></trkpt>
<trkpt lat="44.637058982625604" lon="5.850537987425923"><ele></ele><time>2015-2-4T10:11:1Z</time></trkpt>
<trkpt lat="44.636299917474389" lon="5.851023970171809"><ele></ele><time>2015-2-4T10:11:4Z</time></trkpt>
<trkpt lat="44.635282941162586" lon="5.850902935490012"><ele></ele><time>2015-2-4T10:11:7Z</time></trkpt>
<trkpt lat="44.634627979248762" lon="5.850481996312738"><ele></ele><time>2015-2-4T10:11:10Z</time></trkpt>
<trkpt lat="44.634162951260805" lon="5.850313939154148"><ele></ele><time>2015-2-4T10:11:13Z</time></trkpt>
<trkpt lat="44.633651990443468" lon="5.850451989099383"><ele></ele><time>2015-2-4T10:11:16Z</time></trkpt>
<trkpt lat="44.63316299021244" lon="5.850345958024263"><ele></ele><time>2015-2-4T10:11:19Z</time></trkpt>
<trkpt lat="44.632471986114979" lon="5.850277980789542"><ele></ele><time>2015-2-4T10:11:22Z</time></trkpt>
<trkpt lat="44.631555927917361" lon="5.850529940798879"><ele></ele><time>2015-2-4T10:11:25Z</time></trkpt>
<trkpt lat="44.63058496825397" lon="5.850587943568826"><ele></ele><time>2015-2-4T10:11:28Z</time></trkpt>
<trkpt lat="44.629792962223291" lon="5.850619962438941"><ele></ele><time>2015-2-4T10:11:31Z</time></trkpt>
<trkpt lat="44.629032975062728" lon="5.8508569188416"><ele></ele><time>2015-2-4T10:11:34Z</time></trkpt>
<trkpt lat="44.628441967070103" lon="5.851188926026225"><ele></ele><time>2015-2-4T10:11:37Z</time></trkpt>
<trkpt lat="44.627583995461464" lon="5.851726960390806"><ele></ele><time>2015-2-4T10:11:40Z</time></trkpt>
<trkpt lat="44.627114944159985" lon="5.85186299867928"><ele></ele><time>2015-2-4T10:11:43Z</time></trkpt>
<trkpt lat="44.626305922865868" lon="5.851963916793466"><ele></ele><time>2015-2-4T10:11:46Z</time></trkpt>
<trkpt lat="44.625451974570751" lon="5.852386951446533"><ele></ele><time>2015-2-4T10:11:49Z</time></trkpt>
<trkpt lat="44.624191923066974" lon="5.852915933355689"><ele></ele><time>2015-2-4T10:11:52Z</time></trkpt>
<trkpt lat="44.623633939772844" lon="5.853158924728632"><ele></ele><time>2015-2-4T10:11:55Z</time></trkpt>
<trkpt lat="44.622813938185573" lon="5.853623952716589"><ele></ele><time>2015-2-4T10:11:58Z</time></trkpt>
<trkpt lat="44.621560927480459" lon="5.85422795265913"><ele></ele><time>2015-2-4T10:12:1Z</time></trkpt>
<trkpt lat="44.620502963662148" lon="5.854667918756604"><ele></ele><time>2015-2-4T10:12:4Z</time></trkpt>
<trkpt lat="44.619469977915287" lon="5.855075949802995"><ele></ele><time>2015-2-4T10:12:7Z</time></trkpt>
<trkpt lat="44.618823984637856" lon="5.855324976146221"><ele></ele><time>2015-2-4T10:12:10Z</time></trkpt>
<trkpt lat="44.617661917582154" lon="5.855810958892107"><ele></ele><time>2015-2-4T10:12:13Z</time></trkpt>
<trkpt lat="44.617157997563481" lon="5.856092926114798"><ele></ele><time>2015-2-4T10:12:16Z</time></trkpt>
<trkpt lat="44.616171950474381" lon="5.85652694106102"><ele></ele><time>2015-2-4T10:12:19Z</time></trkpt>
<trkpt lat="44.615381956100464" lon="5.856692986562848"><ele></ele><time>2015-2-4T10:12:22Z</time></trkpt>
<trkpt lat="44.614533958956599" lon="5.856631966307759"><ele></ele><time>2015-2-4T10:12:25Z</time></trkpt>
<trkpt lat="44.613967929035425" lon="5.856645964086056"><ele></ele><time>2015-2-4T10:12:28Z</time></trkpt>
<trkpt lat="44.613513965159655" lon="5.856993980705738"><ele></ele><time>2015-2-4T10:12:31Z</time></trkpt>
<trkpt lat="44.613189920783043" lon="5.857486920431256"><ele></ele><time>2015-2-4T10:12:34Z</time></trkpt>
<trkpt lat="44.612166993319988" lon="5.858006933704019"><ele></ele><time>2015-2-4T10:12:37Z</time></trkpt>
<trkpt lat="44.611284965649247" lon="5.858320919796825"><ele></ele><time>2015-2-4T10:12:40Z</time></trkpt>
<trkpt lat="44.610814992338419" lon="5.858426950871944"><ele></ele><time>2015-2-4T10:12:43Z</time></trkpt>
<trkpt lat="44.610273940488696" lon="5.858148923143745"><ele></ele><time>2015-2-4T10:12:46Z</time></trkpt>
<trkpt lat="44.608312994241714" lon="5.85719196125865"><ele></ele><time>2015-2-4T10:12:49Z</time></trkpt>
<trkpt lat="44.607945950701833" lon="5.857337974011898"><ele></ele><time>2015-2-4T10:12:52Z</time></trkpt>
<trkpt lat="44.607420992106199" lon="5.857526985928416"><ele></ele><time>2015-2-4T10:12:55Z</time></trkpt>
<trkpt lat="44.606793941929936" lon="5.857442999258637"><ele></ele><time>2015-2-4T10:12:58Z</time></trkpt>
<trkpt lat="44.606175944209099" lon="5.857670987024903"><ele></ele><time>2015-2-4T10:13:1Z</time></trkpt>
<trkpt lat="44.605635982006788" lon="5.857864944264293"><ele></ele><time>2015-2-4T10:13:4Z</time></trkpt>
<trkpt lat="44.605149999260902" lon="5.857905931770802"><ele></ele><time>2015-2-4T10:13:7Z</time></trkpt>
<trkpt lat="44.603861952200532" lon="5.857910960912705"><ele></ele><time>2015-2-4T10:13:10Z</time></trkpt>
<trkpt lat="44.603098947554827" lon="5.857918923720717"><ele></ele><time>2015-2-4T10:13:13Z</time></trkpt>
<trkpt lat="44.601739989593625" lon="5.857929987832904"><ele></ele><time>2015-2-4T10:13:16Z</time></trkpt>
<trkpt lat="44.600370973348618" lon="5.857917917892337"><ele></ele><time>2015-2-4T10:13:19Z</time></trkpt>
<trkpt lat="44.59925995208323" lon="5.857915990054607"><ele></ele><time>2015-2-4T10:13:22Z</time></trkpt>
<trkpt lat="44.598108949139714" lon="5.857958989217877"><ele></ele><time>2015-2-4T10:13:25Z</time></trkpt>
<trkpt lat="44.597076969221234" lon="5.858003916218877"><ele></ele><time>2015-2-4T10:13:28Z</time></trkpt>
<trkpt lat="44.596010958775878" lon="5.858044987544417"><ele></ele><time>2015-2-4T10:13:31Z</time></trkpt>
<trkpt lat="44.59509196691215" lon="5.858026966452599"><ele></ele><time>2015-2-4T10:13:34Z</time></trkpt>
<trkpt lat="44.594293925911188" lon="5.857517933472991"><ele></ele><time>2015-2-4T10:13:37Z</time></trkpt>
<trkpt lat="44.593828981742263" lon="5.856930948793888"><ele></ele><time>2015-2-4T10:13:40Z</time></trkpt>
<trkpt lat="44.593051979318261" lon="5.855864938348532"><ele></ele><time>2015-2-4T10:13:43Z</time></trkpt>
<trkpt lat="44.592655934393406" lon="5.855469983071089"><ele></ele><time>2015-2-4T10:13:46Z</time></trkpt>
<trkpt lat="44.592201970517635" lon="5.85523696616292"><ele></ele><time>2015-2-4T10:13:49Z</time></trkpt>
<trkpt lat="44.591348944231868" lon="5.855254987254739"><ele></ele><time>2015-2-4T10:13:52Z</time></trkpt>
<trkpt lat="44.59023498930037" lon="5.855468977242708"><ele></ele><time>2015-2-4T10:13:55Z</time></trkpt>
<trkpt lat="44.58931096829474" lon="5.855654971674085"><ele></ele><time>2015-2-4T10:13:58Z</time></trkpt>
<trkpt lat="44.588124928995967" lon="5.855902992188931"><ele></ele><time>2015-2-4T10:14:1Z</time></trkpt>
<trkpt lat="44.587195962667465" lon="5.856027966365218"><ele></ele><time>2015-2-4T10:14:4Z</time></trkpt>
<trkpt lat="44.586428934708238" lon="5.855964934453368"><ele></ele><time>2015-2-4T10:14:7Z</time></trkpt>
<trkpt lat="44.585538944229484" lon="5.855789920315146"><ele></ele><time>2015-2-4T10:14:10Z</time></trkpt>
<trkpt lat="44.584473939612508" lon="5.855582971125841"><ele></ele><time>2015-2-4T10:14:13Z</time></trkpt>
<trkpt lat="44.583270968869328" lon="5.855363951995969"><ele></ele><time>2015-2-4T10:14:16Z</time></trkpt>
<trkpt lat="44.582056934013963" lon="5.855140993371606"><ele></ele><time>2015-2-4T10:14:19Z</time></trkpt>
<trkpt lat="44.580710968002677" lon="5.854881992563605"><ele></ele><time>2015-2-4T10:14:22Z</time></trkpt>
<trkpt lat="44.579759957268834" lon="5.854620980098844"><ele></ele><time>2015-2-4T10:14:25Z</time></trkpt>
<trkpt lat="44.579220917075872" lon="5.854248991236091"><ele></ele><time>2015-2-4T10:14:28Z</time></trkpt>
<trkpt lat="44.578769970685244" lon="5.853998959064484"><ele></ele><time>2015-2-4T10:14:31Z</time></trkpt>
<trkpt lat="44.578273929655552" lon="5.853981943801045"><ele></ele><time>2015-2-4T10:14:34Z</time></trkpt>
<trkpt lat="44.577434984967113" lon="5.854427944868803"><ele></ele><time>2015-2-4T10:14:37Z</time></trkpt>
<trkpt lat="44.576648930087686" lon="5.854998920112848"><ele></ele><time>2015-2-4T10:14:40Z</time></trkpt>
<trkpt lat="44.576145932078362" lon="5.855478951707482"><ele></ele><time>2015-2-4T10:14:43Z</time></trkpt>
<trkpt lat="44.575645951554179" lon="5.855094976723194"><ele></ele><time>2015-2-4T10:14:46Z</time></trkpt>
<trkpt lat="44.575039939954877" lon="5.855185920372605"><ele></ele><time>2015-2-4T10:14:49Z</time></trkpt>
<trkpt lat="44.574510958045721" lon="5.855362946167588"><ele></ele><time>2015-2-4T10:14:52Z</time></trkpt>
<trkpt lat="44.573826994746923" lon="5.855583976954222"><ele></ele><time>2015-2-4T10:14:55Z</time></trkpt>
<trkpt lat="44.573075976222754" lon="5.855946997180581"><ele></ele><time>2015-2-4T10:14:58Z</time></trkpt>
<trkpt lat="44.572683954611421" lon="5.856304988265038"><ele></ele><time>2015-2-4T10:15:1Z</time></trkpt>
<trkpt lat="44.572290927171707" lon="5.856687957420945"><ele></ele><time>2015-2-4T10:15:4Z</time></trkpt>
<trkpt lat="44.571729926392436" lon="5.856978977099061"><ele></ele><time>2015-2-4T10:15:7Z</time></trkpt>
<trkpt lat="44.570778999477625" lon="5.856898929923773"><ele></ele><time>2015-2-4T10:15:10Z</time></trkpt>
<trkpt lat="44.570119930431247" lon="5.856971936300397"><ele></ele><time>2015-2-4T10:15:13Z</time></trkpt>
<trkpt lat="44.569347957149148" lon="5.857034968212247"><ele></ele><time>2015-2-4T10:15:16Z</time></trkpt>
<trkpt lat="44.568550921976566" lon="5.857131946831942"><ele></ele><time>2015-2-4T10:15:19Z</time></trkpt>
<trkpt lat="44.567708959802985" lon="5.857193972915411"><ele></ele><time>2015-2-4T10:15:22Z</time></trkpt>
<trkpt lat="44.566958947107196" lon="5.857483986765146"><ele></ele><time>2015-2-4T10:15:25Z</time></trkpt>
<trkpt lat="44.566563991829753" lon="5.857806941494346"><ele></ele><time>2015-2-4T10:15:28Z</time></trkpt>
<trkpt lat="44.566117990761995" lon="5.857823956757784"><ele></ele><time>2015-2-4T10:15:31Z</time></trkpt>
<trkpt lat="44.565492952242494" lon="5.857589934021235"><ele></ele><time>2015-2-4T10:15:34Z</time></trkpt>
<trkpt lat="44.564940920099616" lon="5.857421960681677"><ele></ele><time>2015-2-4T10:15:37Z</time></trkpt>
<trkpt lat="44.564488967880607" lon="5.857380973175168"><ele></ele><time>2015-2-4T10:15:40Z</time></trkpt>
<trkpt lat="44.563960991799831" lon="5.85734099149704"><ele></ele><time>2015-2-4T10:15:43Z</time></trkpt>
<trkpt lat="44.563342994078994" lon="5.857167989015579"><ele></ele><time>2015-2-4T10:15:46Z</time></trkpt>
<trkpt lat="44.562511928379536" lon="5.857265973463655"><ele></ele><time>2015-2-4T10:15:49Z</time></trkpt>
<trkpt lat="44.561731992289424" lon="5.857506953179836"><ele></ele><time>2015-2-4T10:15:52Z</time></trkpt>
<trkpt lat="44.560771929100156" lon="5.857585994526744"><ele></ele><time>2015-2-4T10:15:55Z</time></trkpt>
<trkpt lat="44.560097940266132" lon="5.857505947351456"><ele></ele><time>2015-2-4T10:15:58Z</time></trkpt>
<trkpt lat="44.559084987267852" lon="5.85734099149704"><ele></ele><time>2015-2-4T10:16:1Z</time></trkpt>
<trkpt lat="44.558124924078584" lon="5.857194978743792"><ele></ele><time>2015-2-4T10:16:4Z</time></trkpt>
<trkpt lat="44.557128986343741" lon="5.857046954333782"><ele></ele><time>2015-2-4T10:16:7Z</time></trkpt>
<trkpt lat="44.556270930916071" lon="5.856923991814256"><ele></ele><time>2015-2-4T10:16:10Z</time></trkpt>
<trkpt lat="44.554878948256373" lon="5.85671997629106"><ele></ele><time>2015-2-4T10:16:13Z</time></trkpt>
<trkpt lat="44.554037991911173" lon="5.856601959094405"><ele></ele><time>2015-2-4T10:16:16Z</time></trkpt>
<trkpt lat="44.553162921220064" lon="5.856474973261356"><ele></ele><time>2015-2-4T10:16:19Z</time></trkpt>
<trkpt lat="44.552390947937965" lon="5.856361985206604"><ele></ele><time>2015-2-4T10:16:22Z</time></trkpt>
<trkpt lat="44.551661973819137" lon="5.856269951909781"><ele></ele><time>2015-2-4T10:16:25Z</time></trkpt>
<trkpt lat="44.551109941676259" lon="5.856271963566542"><ele></ele><time>2015-2-4T10:16:28Z</time></trkpt>
<trkpt lat="44.550651954486966" lon="5.856045987457037"><ele></ele><time>2015-2-4T10:16:31Z</time></trkpt>
<trkpt lat="44.550177957862616" lon="5.855750944465399"><ele></ele><time>2015-2-4T10:16:34Z</time></trkpt>
<trkpt lat="44.549739919602871" lon="5.855518933385611"><ele></ele><time>2015-2-4T10:16:37Z</time></trkpt>
<trkpt lat="44.548895945772529" lon="5.855258926749229"><ele></ele><time>2015-2-4T10:16:40Z</time></trkpt>
<trkpt lat="44.548348942771554" lon="5.855272924527526"><ele></ele><time>2015-2-4T10:16:43Z</time></trkpt>
<trkpt lat="44.54786597751081" lon="5.854894984513521"><ele></ele><time>2015-2-4T10:16:46Z</time></trkpt>
<trkpt lat="44.547426933422685" lon="5.854046987369657"><ele></ele><time>2015-2-4T10:16:49Z</time></trkpt>
<trkpt lat="44.546803990378976" lon="5.852813925594091"><ele></ele><time>2015-2-4T10:16:52Z</time></trkpt>
<trkpt lat="44.546349942684174" lon="5.851944973692298"><ele></ele><time>2015-2-4T10:16:55Z</time></trkpt>
<trkpt lat="44.54597694799304" lon="5.851225974038243"><ele></ele><time>2015-2-4T10:16:58Z</time></trkpt>
<trkpt lat="44.5456129219383" lon="5.85053195245564"><ele></ele><time>2015-2-4T10:17:1Z</time></trkpt>
<trkpt lat="44.545284938067198" lon="5.849897945299745"><ele></ele><time>2015-2-4T10:17:4Z</time></trkpt>
<trkpt lat="44.544964917004108" lon="5.849280953407288"><ele></ele><time>2015-2-4T10:17:7Z</time></trkpt>
<trkpt lat="44.544476922601461" lon="5.848343940451741"><ele></ele><time>2015-2-4T10:17:10Z</time></trkpt>
<trkpt lat="44.544132929295301" lon="5.847686966881156"><ele></ele><time>2015-2-4T10:17:13Z</time></trkpt>
<trkpt lat="44.543846938759089" lon="5.847102999687195"><ele></ele><time>2015-2-4T10:17:16Z</time></trkpt>
<trkpt lat="44.543589949607849" lon="5.846569994464517"><ele></ele><time>2015-2-4T10:17:19Z</time></trkpt>
<trkpt lat="44.543040934950113" lon="5.845524938777089"><ele></ele><time>2015-2-4T10:17:22Z</time></trkpt>
<trkpt lat="44.542540954425931" lon="5.844606952741742"><ele></ele><time>2015-2-4T10:17:25Z</time></trkpt>
<trkpt lat="44.541814997792244" lon="5.843194937333465"><ele></ele><time>2015-2-4T10:17:28Z</time></trkpt>
<trkpt lat="44.54142096452415" lon="5.842425981536508"><ele></ele><time>2015-2-4T10:17:31Z</time></trkpt>
<trkpt lat="44.541108990088105" lon="5.841826926916838"><ele></ele><time>2015-2-4T10:17:34Z</time></trkpt>
<trkpt lat="44.540706994011998" lon="5.841058976948261"><ele></ele><time>2015-2-4T10:17:37Z</time></trkpt>
<trkpt lat="44.540338944643736" lon="5.840352969244123"><ele></ele><time>2015-2-4T10:17:40Z</time></trkpt>
<trkpt lat="44.539824966341257" lon="5.839353930205107"><ele></ele><time>2015-2-4T10:17:43Z</time></trkpt>
<trkpt lat="44.539219960570335" lon="5.838215919211507"><ele></ele><time>2015-2-4T10:17:46Z</time></trkpt>
<trkpt lat="44.538775971159339" lon="5.837364988401532"><ele></ele><time>2015-2-4T10:17:49Z</time></trkpt>
<trkpt lat="44.538416974246502" lon="5.836671972647309"><ele></ele><time>2015-2-4T10:17:52Z</time></trkpt>
<trkpt lat="44.538083961233497" lon="5.836026985198259"><ele></ele><time>2015-2-4T10:17:55Z</time></trkpt>
<trkpt lat="44.537739967927337" lon="5.835366994142532"><ele></ele><time>2015-2-4T10:17:58Z</time></trkpt>
<trkpt lat="44.537500999867916" lon="5.834814961999655"><ele></ele><time>2015-2-4T10:18:1Z</time></trkpt>
<trkpt lat="44.537154994904995" lon="5.833554994314909"><ele></ele><time>2015-2-4T10:18:4Z</time></trkpt>
<trkpt lat="44.536904962733388" lon="5.832577999681234"><ele></ele><time>2015-2-4T10:18:7Z</time></trkpt>
<trkpt lat="44.536636993288994" lon="5.83153797313571"><ele></ele><time>2015-2-4T10:18:10Z</time></trkpt>
<trkpt lat="44.536456950008869" lon="5.830859960988164"><ele></ele><time>2015-2-4T10:18:13Z</time></trkpt>
<trkpt lat="44.536267938092351" lon="5.830119922757149"><ele></ele><time>2015-2-4T10:18:16Z</time></trkpt>
<trkpt lat="44.536079932004213" lon="5.829527992755175"><ele></ele><time>2015-2-4T10:18:19Z</time></trkpt>
<trkpt lat="44.536131983622909" lon="5.828660968691111"><ele></ele><time>2015-2-4T10:18:22Z</time></trkpt>
<trkpt lat="44.536240948364139" lon="5.827851947396994"><ele></ele><time>2015-2-4T10:18:25Z</time></trkpt>
<trkpt lat="44.536095941439271" lon="5.827127918601036"><ele></ele><time>2015-2-4T10:18:28Z</time></trkpt>
<trkpt lat="44.535694951191545" lon="5.826454935595393"><ele></ele><time>2015-2-4T10:18:31Z</time></trkpt>
<trkpt lat="44.535287925973535" lon="5.826023938134313"><ele></ele><time>2015-2-4T10:18:34Z</time></trkpt>
<trkpt lat="44.53497595153749" lon="5.825438965111971"><ele></ele><time>2015-2-4T10:18:37Z</time></trkpt>
<trkpt lat="44.534752992913127" lon="5.824884921312332"><ele></ele><time>2015-2-4T10:18:40Z</time></trkpt>
<trkpt lat="44.534464990720153" lon="5.824288967996836"><ele></ele><time>2015-2-4T10:18:43Z</time></trkpt>
<trkpt lat="44.534594994038343" lon="5.824489966034889"><ele></ele><time>2015-2-4T10:18:46Z</time></trkpt>
<trkpt lat="44.534793980419636" lon="5.825056917965412"><ele></ele><time>2015-2-4T10:18:49Z</time></trkpt>
<trkpt lat="44.535088939592242" lon="5.825768960639834"><ele></ele><time>2015-2-4T10:18:52Z</time></trkpt>
<trkpt lat="44.535091957077384" lon="5.826404979452491"><ele></ele><time>2015-2-4T10:18:55Z</time></trkpt>
<trkpt lat="44.534615948796272" lon="5.826435992494226"><ele></ele><time>2015-2-4T10:18:58Z</time></trkpt>
<trkpt lat="44.534160979092121" lon="5.826604971662164"><ele></ele><time>2015-2-4T10:19:1Z</time></trkpt>
<trkpt lat="44.533697962760925" lon="5.826732963323593"><ele></ele><time>2015-2-4T10:19:4Z</time></trkpt>
<trkpt lat="44.533112989738584" lon="5.826873946934938"><ele></ele><time>2015-2-4T10:19:7Z</time></trkpt>
<trkpt lat="44.53226893208921" lon="5.827333945780993"><ele></ele><time>2015-2-4T10:19:10Z</time></trkpt>
<trkpt lat="44.531837934628129" lon="5.8278429787606"><ele></ele><time>2015-2-4T10:19:13Z</time></trkpt>
<trkpt lat="44.531315993517637" lon="5.828065937384963"><ele></ele><time>2015-2-4T10:19:16Z</time></trkpt>
<trkpt lat="44.530712999403477" lon="5.828177919611335"><ele></ele><time>2015-2-4T10:19:19Z</time></trkpt>
<trkpt lat="44.530188962817192" lon="5.828240951523185"><ele></ele><time>2015-2-4T10:19:22Z</time></trkpt>
<trkpt lat="44.529654951766133" lon="5.82820993848145"><ele></ele><time>2015-2-4T10:19:25Z</time></trkpt>
<trkpt lat="44.529186990112066" lon="5.827857982367277"><ele></ele><time>2015-2-4T10:19:28Z</time></trkpt>
<trkpt lat="44.52898196876049" lon="5.82711392082274"><ele></ele><time>2015-2-4T10:19:31Z</time></trkpt>
<trkpt lat="44.528630934655666" lon="5.825919918715954"><ele></ele><time>2015-2-4T10:19:34Z</time></trkpt>
<trkpt lat="44.528196919709444" lon="5.825012996792793"><ele></ele><time>2015-2-4T10:19:37Z</time></trkpt>
<trkpt lat="44.527769945561886" lon="5.824195928871632"><ele></ele><time>2015-2-4T10:19:40Z</time></trkpt>
<trkpt lat="44.527168963104486" lon="5.823102928698063"><ele></ele><time>2015-2-4T10:19:43Z</time></trkpt>
<trkpt lat="44.526673927903175" lon="5.822331961244345"><ele></ele><time>2015-2-4T10:19:46Z</time></trkpt>
<trkpt lat="44.526244942098856" lon="5.82165596075356"><ele></ele><time>2015-2-4T10:19:49Z</time></trkpt>
<trkpt lat="44.52582492493093" lon="5.820979960262775"><ele></ele><time>2015-2-4T10:19:52Z</time></trkpt>
<trkpt lat="44.52537196688354" lon="5.820234976708889"><ele></ele><time>2015-2-4T10:19:55Z</time></trkpt>
<trkpt lat="44.525083964690566" lon="5.819645980373025"><ele></ele><time>2015-2-4T10:19:58Z</time></trkpt>
<trkpt lat="44.524824963882565" lon="5.818871995434165"><ele></ele><time>2015-2-4T10:20:1Z</time></trkpt>
<trkpt lat="44.524546936154366" lon="5.81804696470499"><ele></ele><time>2015-2-4T10:20:4Z</time></trkpt>
<trkpt lat="44.5242999214679" lon="5.817311955615878"><ele></ele><time>2015-2-4T10:20:7Z</time></trkpt>
<trkpt lat="44.52397596091032" lon="5.816349964588881"><ele></ele><time>2015-2-4T10:20:10Z</time></trkpt>
<trkpt lat="44.523617969825864" lon="5.815319996327162"><ele></ele><time>2015-2-4T10:20:13Z</time></trkpt>
<trkpt lat="44.523277999833226" lon="5.814321963116527"><ele></ele><time>2015-2-4T10:20:16Z</time></trkpt>
<trkpt lat="44.522847924381495" lon="5.813218988478184"><ele></ele><time>2015-2-4T10:20:19Z</time></trkpt>
<trkpt lat="44.522482976317406" lon="5.812261942774057"><ele></ele><time>2015-2-4T10:20:22Z</time></trkpt>
<trkpt lat="44.522160943597555" lon="5.81136398948729"><ele></ele><time>2015-2-4T10:20:25Z</time></trkpt>
<trkpt lat="44.521884927526116" lon="5.810606935992837"><ele></ele><time>2015-2-4T10:20:28Z</time></trkpt>
<trkpt lat="44.521629950031638" lon="5.809887936338782"><ele></ele><time>2015-2-4T10:20:31Z</time></trkpt>
<trkpt lat="44.521138938143849" lon="5.810132939368486"><ele></ele><time>2015-2-4T10:20:34Z</time></trkpt>
<trkpt lat="44.520615991204977" lon="5.809564981609583"><ele></ele><time>2015-2-4T10:20:37Z</time></trkpt>
<trkpt lat="44.52008793130517" lon="5.809455933049321"><ele></ele><time>2015-2-4T10:20:40Z</time></trkpt>
<trkpt lat="44.520234949886799" lon="5.810081977397203"><ele></ele><time>2015-2-4T10:20:43Z</time></trkpt>
<trkpt lat="44.520025989040732" lon="5.810480955988169"><ele></ele><time>2015-2-4T10:20:46Z</time></trkpt>
<trkpt lat="44.519470939412713" lon="5.810169987380505"><ele></ele><time>2015-2-4T10:20:49Z</time></trkpt>
<trkpt lat="44.519088976085186" lon="5.809827921912074"><ele></ele><time>2015-2-4T10:20:52Z</time></trkpt>
<trkpt lat="44.518848918378353" lon="5.809194920584559"><ele></ele><time>2015-2-4T10:20:55Z</time></trkpt>
<trkpt lat="44.518609950318933" lon="5.808502994477749"><ele></ele><time>2015-2-4T10:20:58Z</time></trkpt>
<trkpt lat="44.518153974786401" lon="5.808131927624345"><ele></ele><time>2015-2-4T10:21:1Z</time></trkpt>
<trkpt lat="44.517517955973744" lon="5.80835497006774"><ele></ele><time>2015-2-4T10:21:4Z</time></trkpt>
<trkpt lat="44.517083941027522" lon="5.808743974193931"><ele></ele><time>2015-2-4T10:21:7Z</time></trkpt>
<trkpt lat="44.516800967976451" lon="5.809255940839648"><ele></ele><time>2015-2-4T10:21:10Z</time></trkpt>
<trkpt lat="44.516394948586822" lon="5.809734966605902"><ele></ele><time>2015-2-4T10:21:13Z</time></trkpt>
<trkpt lat="44.516159920021892" lon="5.808913959190249"><ele></ele><time>2015-2-4T10:21:16Z</time></trkpt>
<trkpt lat="44.515346959233284" lon="5.808020951226354"><ele></ele><time>2015-2-4T10:21:19Z</time></trkpt>
<trkpt lat="44.515000954270363" lon="5.807616943493486"><ele></ele><time>2015-2-4T10:21:22Z</time></trkpt>
<trkpt lat="44.514363929629326" lon="5.8075609523803"><ele></ele><time>2015-2-4T10:21:25Z</time></trkpt>
<trkpt lat="44.513825979083776" lon="5.806998945772648"><ele></ele><time>2015-2-4T10:21:28Z</time></trkpt>
<trkpt lat="44.513364974409342" lon="5.807308992370963"><ele></ele><time>2015-2-4T10:21:31Z</time></trkpt>
<trkpt lat="44.512790981680155" lon="5.807725992053747"><ele></ele><time>2015-2-4T10:21:34Z</time></trkpt>
<trkpt lat="44.512298963963985" lon="5.808160929009318"><ele></ele><time>2015-2-4T10:21:37Z</time></trkpt>
<trkpt lat="44.511938961222768" lon="5.80790595151484"><ele></ele><time>2015-2-4T10:21:40Z</time></trkpt>
<trkpt lat="44.51155498623848" lon="5.807156944647431"><ele></ele><time>2015-2-4T10:21:43Z</time></trkpt>
<trkpt lat="44.510924918577075" lon="5.807061977684498"><ele></ele><time>2015-2-4T10:21:46Z</time></trkpt>
<trkpt lat="44.510426949709654" lon="5.806747991591692"><ele></ele><time>2015-2-4T10:21:49Z</time></trkpt>
<trkpt lat="44.510020930320024" lon="5.806100992485881"><ele></ele><time>2015-2-4T10:21:52Z</time></trkpt>
<trkpt lat="44.509578952565789" lon="5.805509984493256"><ele></ele><time>2015-2-4T10:21:55Z</time></trkpt>
<trkpt lat="44.509155917912722" lon="5.8049619756639"><ele></ele><time>2015-2-4T10:21:58Z</time></trkpt>
<trkpt lat="44.508703965693712" lon="5.804419917985797"><ele></ele><time>2015-2-4T10:22:1Z</time></trkpt>
<trkpt lat="44.508199961856008" lon="5.804140968248248"><ele></ele><time>2015-2-4T10:22:4Z</time></trkpt>
<trkpt lat="44.507585987448692" lon="5.804600967094302"><ele></ele><time>2015-2-4T10:22:7Z</time></trkpt>
<trkpt lat="44.506992967799306" lon="5.804578922688961"><ele></ele><time>2015-2-4T10:22:10Z</time></trkpt>
<trkpt lat="44.506450993940234" lon="5.804034937173128"><ele></ele><time>2015-2-4T10:22:13Z</time></trkpt>
<trkpt lat="44.505892926827073" lon="5.804018927738071"><ele></ele><time>2015-2-4T10:22:16Z</time></trkpt>
<trkpt lat="44.505314994603395" lon="5.804447997361422"><ele></ele><time>2015-2-4T10:22:19Z</time></trkpt>
<trkpt lat="44.504823982715607" lon="5.804524943232536"><ele></ele><time>2015-2-4T10:22:22Z</time></trkpt>
<trkpt lat="44.504480995237827" lon="5.803434960544109"><ele></ele><time>2015-2-4T10:22:25Z</time></trkpt>
<trkpt lat="44.504298940300941" lon="5.802805982530117"><ele></ele><time>2015-2-4T10:22:28Z</time></trkpt>
<trkpt lat="44.504179917275906" lon="5.80201699398458"><ele></ele><time>2015-2-4T10:22:31Z</time></trkpt>
<trkpt lat="44.504024935886264" lon="5.801440989598632"><ele></ele><time>2015-2-4T10:22:34Z</time></trkpt>
<trkpt lat="44.50378093868494" lon="5.800786949694157"><ele></ele><time>2015-2-4T10:22:37Z</time></trkpt>
<trkpt lat="44.503791918978095" lon="5.799530921503902"><ele></ele><time>2015-2-4T10:22:40Z</time></trkpt>
<trkpt lat="44.50369393453002" lon="5.798810999840498"><ele></ele><time>2015-2-4T10:22:43Z</time></trkpt>
<trkpt lat="44.503717990592122" lon="5.798157965764403"><ele></ele><time>2015-2-4T10:22:46Z</time></trkpt>
<trkpt lat="44.503970956429839" lon="5.797125985845923"><ele></ele><time>2015-2-4T10:22:49Z</time></trkpt>
<trkpt lat="44.504041951149702" lon="5.796340936794877"><ele></ele><time>2015-2-4T10:22:52Z</time></trkpt>
<trkpt lat="44.503668956458569" lon="5.79505892470479"><ele></ele><time>2015-2-4T10:22:55Z</time></trkpt>
<trkpt lat="44.503404926508665" lon="5.794410919770598"><ele></ele><time>2015-2-4T10:22:58Z</time></trkpt>
<trkpt lat="44.502977952361107" lon="5.793695943430066"><ele></ele><time>2015-2-4T10:23:1Z</time></trkpt>
<trkpt lat="44.502481995150447" lon="5.792764965444803"><ele></ele><time>2015-2-4T10:23:4Z</time></trkpt>
<trkpt lat="44.502130961045623" lon="5.792293986305594"><ele></ele><time>2015-2-4T10:23:7Z</time></trkpt>
<trkpt lat="44.501507934182882" lon="5.791088920086622"><ele></ele><time>2015-2-4T10:23:10Z</time></trkpt>
<trkpt lat="44.501053970307112" lon="5.790557926520705"><ele></ele><time>2015-2-4T10:23:13Z</time></trkpt>
<trkpt lat="44.50070695951581" lon="5.790143944323063"><ele></ele><time>2015-2-4T10:23:16Z</time></trkpt>
<trkpt lat="44.500257940962911" lon="5.789541956037283"><ele></ele><time>2015-2-4T10:23:19Z</time></trkpt>
<trkpt lat="44.499802971258759" lon="5.789553942158818"><ele></ele><time>2015-2-4T10:23:22Z</time></trkpt>
<trkpt lat="44.49920492246747" lon="5.789066953584552"><ele></ele><time>2015-2-4T10:23:25Z</time></trkpt>
<trkpt lat="44.498550966382027" lon="5.788530930876732"><ele></ele><time>2015-2-4T10:23:28Z</time></trkpt>
<trkpt lat="44.49797797948122" lon="5.788194984197617"><ele></ele><time>2015-2-4T10:23:31Z</time></trkpt>
<trkpt lat="44.497147919610143" lon="5.787788964807987"><ele></ele><time>2015-2-4T10:23:34Z</time></trkpt>
<trkpt lat="44.496169919148088" lon="5.786867961287499"><ele></ele><time>2015-2-4T10:23:37Z</time></trkpt>
<trkpt lat="44.495694916695356" lon="5.786346942186356"><ele></ele><time>2015-2-4T10:23:40Z</time></trkpt>
<trkpt lat="44.495300967246294" lon="5.78603396192193"><ele></ele><time>2015-2-4T10:23:43Z</time></trkpt>
<trkpt lat="44.494858989492059" lon="5.785803962498903"><ele></ele><time>2015-2-4T10:23:46Z</time></trkpt>
<trkpt lat="44.494146946817636" lon="5.785432979464531"><ele></ele><time>2015-2-4T10:23:49Z</time></trkpt>
<trkpt lat="44.493326945230365" lon="5.784710962325335"><ele></ele><time>2015-2-4T10:23:52Z</time></trkpt>
<trkpt lat="44.492777930572629" lon="5.784216932952404"><ele></ele><time>2015-2-4T10:23:55Z</time></trkpt>
<trkpt lat="44.492231933400035" lon="5.783667918294668"><ele></ele><time>2015-2-4T10:23:58Z</time></trkpt>
<trkpt lat="44.491927921772003" lon="5.783134996891022"><ele></ele><time>2015-2-4T10:24:1Z</time></trkpt>
<trkpt lat="44.491541935130954" lon="5.78248992562294"><ele></ele><time>2015-2-4T10:24:4Z</time></trkpt>
<trkpt lat="44.491051929071546" lon="5.78192993067205"><ele></ele><time>2015-2-4T10:24:7Z</time></trkpt>
<trkpt lat="44.490177948027849" lon="5.781754916533828"><ele></ele><time>2015-2-4T10:24:10Z</time></trkpt>
<trkpt lat="44.489563973620534" lon="5.78167193569243"><ele></ele><time>2015-2-4T10:24:13Z</time></trkpt>
<trkpt lat="44.488858971744776" lon="5.781545955687761"><ele></ele><time>2015-2-4T10:24:16Z</time></trkpt>
<trkpt lat="44.488343987613916" lon="5.781460963189602"><ele></ele><time>2015-2-4T10:24:19Z</time></trkpt>
<trkpt lat="44.487708974629641" lon="5.781376976519823"><ele></ele><time>2015-2-4T10:24:22Z</time></trkpt>
<trkpt lat="44.486941946670413" lon="5.781447971239686"><ele></ele><time>2015-2-4T10:24:25Z</time></trkpt>
<trkpt lat="44.48620299808681" lon="5.781567916274071"><ele></ele><time>2015-2-4T10:24:28Z</time></trkpt>
<trkpt lat="44.485719949007034" lon="5.781538998708129"><ele></ele><time>2015-2-4T10:24:31Z</time></trkpt>
<trkpt lat="44.485184932127595" lon="5.781135996803641"><ele></ele><time>2015-2-4T10:24:34Z</time></trkpt>
<trkpt lat="44.484576992690563" lon="5.780988978222013"><ele></ele><time>2015-2-4T10:24:37Z</time></trkpt>
<trkpt lat="44.484005933627486" lon="5.781103977933526"><ele></ele><time>2015-2-4T10:24:40Z</time></trkpt>
<trkpt lat="44.483587928116322" lon="5.781751982867718"><ele></ele><time>2015-2-4T10:24:43Z</time></trkpt>
<trkpt lat="44.483256926760077" lon="5.782383978366852"><ele></ele><time>2015-2-4T10:24:46Z</time></trkpt>
<trkpt lat="44.482821989804506" lon="5.782699976116419"><ele></ele><time>2015-2-4T10:24:49Z</time></trkpt>
<trkpt lat="44.482382945716381" lon="5.782865937799215"><ele></ele><time>2015-2-4T10:24:52Z</time></trkpt>
<trkpt lat="44.481313917785883" lon="5.783311938866973"><ele></ele><time>2015-2-4T10:24:55Z</time></trkpt>
<trkpt lat="44.480880992487073" lon="5.783517966046929"><ele></ele><time>2015-2-4T10:24:58Z</time></trkpt>
<trkpt lat="44.480169955641031" lon="5.783638916909695"><ele></ele><time>2015-2-4T10:25:1Z</time></trkpt>
<trkpt lat="44.479681961238384" lon="5.78369096852839"><ele></ele><time>2015-2-4T10:25:4Z</time></trkpt>
<trkpt lat="44.479222968220711" lon="5.784002942964435"><ele></ele><time>2015-2-4T10:25:7Z</time></trkpt>
<trkpt lat="44.478626931086183" lon="5.783942928537726"><ele></ele><time>2015-2-4T10:25:10Z</time></trkpt>
<trkpt lat="44.477929975837469" lon="5.783883919939399"><ele></ele><time>2015-2-4T10:25:13Z</time></trkpt>
<trkpt lat="44.477393953129649" lon="5.783912921324372"><ele></ele><time>2015-2-4T10:25:16Z</time></trkpt>
<trkpt lat="44.476930936798453" lon="5.783861959353089"><ele></ele><time>2015-2-4T10:25:19Z</time></trkpt>
<trkpt lat="44.476193999871612" lon="5.783220995217562"><ele></ele><time>2015-2-4T10:25:22Z</time></trkpt>
<trkpt lat="44.475528979673982" lon="5.78261598944664"><ele></ele><time>2015-2-4T10:25:25Z</time></trkpt>
<trkpt lat="44.475022964179516" lon="5.782006960362196"><ele></ele><time>2015-2-4T10:25:28Z</time></trkpt>
<trkpt lat="44.474166920408607" lon="5.781645951792598"><ele></ele><time>2015-2-4T10:25:31Z</time></trkpt>
<trkpt lat="44.473697952926159" lon="5.781694985926151"><ele></ele><time>2015-2-4T10:25:34Z</time></trkpt>
<trkpt lat="44.473390923812985" lon="5.782218938693404"><ele></ele><time>2015-2-4T10:25:37Z</time></trkpt>
<trkpt lat="44.472986999899149" lon="5.782940955832601"><ele></ele><time>2015-2-4T10:25:40Z</time></trkpt>
<trkpt lat="44.472397919744253" lon="5.783978970721364"><ele></ele><time>2015-2-4T10:25:43Z</time></trkpt>
<trkpt lat="44.471971951425076" lon="5.784724960103631"><ele></ele><time>2015-2-4T10:25:46Z</time></trkpt>
<trkpt lat="44.471550928428769" lon="5.785450916737318"><ele></ele><time>2015-2-4T10:25:49Z</time></trkpt>
<trkpt lat="44.471223950386047" lon="5.786019964143634"><ele></ele><time>2015-2-4T10:25:52Z</time></trkpt>
<trkpt lat="44.470850955694914" lon="5.786664951592684"><ele></ele><time>2015-2-4T10:25:55Z</time></trkpt>
<trkpt lat="44.470412917435169" lon="5.787410940974951"><ele></ele><time>2015-2-4T10:25:58Z</time></trkpt>
<trkpt lat="44.469916960224509" lon="5.78751596622169"><ele></ele><time>2015-2-4T10:26:1Z</time></trkpt>
<trkpt lat="44.469450926408172" lon="5.786969969049096"><ele></ele><time>2015-2-4T10:26:4Z</time></trkpt>
<trkpt lat="44.468840975314379" lon="5.78650594688952"><ele></ele><time>2015-2-4T10:26:7Z</time></trkpt>
<trkpt lat="44.468446942046285" lon="5.786179974675179"><ele></ele><time>2015-2-4T10:26:10Z</time></trkpt>
<trkpt lat="44.468032959848642" lon="5.785807985812426"><ele></ele><time>2015-2-4T10:26:13Z</time></trkpt>
<trkpt lat="44.467590982094407" lon="5.785390986129642"><ele></ele><time>2015-2-4T10:26:16Z</time></trkpt>
<trkpt lat="44.466989999637008" lon="5.784833924844861"><ele></ele><time>2015-2-4T10:26:19Z</time></trkpt>
<trkpt lat="44.46671792306006" lon="5.784241994842887"><ele></ele><time>2015-2-4T10:26:22Z</time></trkpt>
<trkpt lat="44.465972939506173" lon="5.783558953553438"><ele></ele><time>2015-2-4T10:26:25Z</time></trkpt>
<trkpt lat="44.4651909917593" lon="5.783156957477331"><ele></ele><time>2015-2-4T10:26:28Z</time></trkpt>
<trkpt lat="44.46465496905148" lon="5.782992923632264"><ele></ele><time>2015-2-4T10:26:31Z</time></trkpt>
<trkpt lat="44.46411794051528" lon="5.783204985782504"><ele></ele><time>2015-2-4T10:26:34Z</time></trkpt>
<trkpt lat="44.463248988613486" lon="5.783192999660969"><ele></ele><time>2015-2-4T10:26:37Z</time></trkpt>
<trkpt lat="44.462558990344405" lon="5.782898962497711"><ele></ele><time>2015-2-4T10:26:40Z</time></trkpt>
<trkpt lat="44.462102930992842" lon="5.78257299028337"><ele></ele><time>2015-2-4T10:26:43Z</time></trkpt>
<trkpt lat="44.46134596131742" lon="5.782518927007914"><ele></ele><time>2015-2-4T10:26:46Z</time></trkpt>
<trkpt lat="44.460811950266361" lon="5.782745992764831"><ele></ele><time>2015-2-4T10:26:49Z</time></trkpt>
<trkpt lat="44.460191940888762" lon="5.783300958573818"><ele></ele><time>2015-2-4T10:26:52Z</time></trkpt>
<trkpt lat="44.459707969799638" lon="5.783278997987509"><ele></ele><time>2015-2-4T10:26:55Z</time></trkpt>
<trkpt lat="44.459340926259756" lon="5.782878929749131"><ele></ele><time>2015-2-4T10:26:58Z</time></trkpt>
<trkpt lat="44.458855949342251" lon="5.782785974442959"><ele></ele><time>2015-2-4T10:27:1Z</time></trkpt>
<trkpt lat="44.458438949659467" lon="5.783011950552464"><ele></ele><time>2015-2-4T10:27:4Z</time></trkpt>
<trkpt lat="44.457980962470174" lon="5.783551996573806"><ele></ele><time>2015-2-4T10:27:7Z</time></trkpt>
<trkpt lat="44.457539990544319" lon="5.784040996804833"><ele></ele><time>2015-2-4T10:27:10Z</time></trkpt>
<trkpt lat="44.457049984484911" lon="5.784016940742731"><ele></ele><time>2015-2-4T10:27:13Z</time></trkpt>
<trkpt lat="44.456689981743693" lon="5.783397937193513"><ele></ele><time>2015-2-4T10:27:16Z</time></trkpt>
<trkpt lat="44.45644992403686" lon="5.78272495418787"><ele></ele><time>2015-2-4T10:27:19Z</time></trkpt>
<trkpt lat="44.455928988754749" lon="5.782901979982853"><ele></ele><time>2015-2-4T10:27:22Z</time></trkpt>
<trkpt lat="44.455512994900346" lon="5.78319794498384"><ele></ele><time>2015-2-4T10:27:25Z</time></trkpt>
<trkpt lat="44.454821990802884" lon="5.783151928335428"><ele></ele><time>2015-2-4T10:27:28Z</time></trkpt>
<trkpt lat="44.454248920083046" lon="5.783269945532084"><ele></ele><time>2015-2-4T10:27:31Z</time></trkpt>
<trkpt lat="44.453711975365877" lon="5.783916944637895"><ele></ele><time>2015-2-4T10:27:34Z</time></trkpt>
<trkpt lat="44.453356917947531" lon="5.784372920170426"><ele></ele><time>2015-2-4T10:27:37Z</time></trkpt>
<trkpt lat="44.452883927151561" lon="5.784992929548025"><ele></ele><time>2015-2-4T10:27:40Z</time></trkpt>
<trkpt lat="44.452373972162604" lon="5.784857980906963"><ele></ele><time>2015-2-4T10:27:43Z</time></trkpt>
<trkpt lat="44.451897963881493" lon="5.784252975136042"><ele></ele><time>2015-2-4T10:27:46Z</time></trkpt>
<trkpt lat="44.451367976143956" lon="5.784453973174095"><ele></ele><time>2015-2-4T10:27:49Z</time></trkpt>
<trkpt lat="44.45079498924315" lon="5.784228919073939"><ele></ele><time>2015-2-4T10:27:52Z</time></trkpt>
<trkpt lat="44.450162993744016" lon="5.784456990659237"><ele></ele><time>2015-2-4T10:27:55Z</time></trkpt>
<trkpt lat="44.450227953493595" lon="5.783638916909695"><ele></ele><time>2015-2-4T10:27:58Z</time></trkpt>
<trkpt lat="44.449573997408152" lon="5.782676925882697"><ele></ele><time>2015-2-4T10:28:1Z</time></trkpt>
<trkpt lat="44.449101928621531" lon="5.782232936471701"><ele></ele><time>2015-2-4T10:28:4Z</time></trkpt>
<trkpt lat="44.448457947000861" lon="5.781971924006939"><ele></ele><time>2015-2-4T10:28:7Z</time></trkpt>
<trkpt lat="44.44789694622159" lon="5.781905958428979"><ele></ele><time>2015-2-4T10:28:10Z</time></trkpt>
<trkpt lat="44.447445999830961" lon="5.782094970345497"><ele></ele><time>2015-2-4T10:28:13Z</time></trkpt>
<trkpt lat="44.44682096131146" lon="5.782683966681361"><ele></ele><time>2015-2-4T10:28:16Z</time></trkpt>
<trkpt lat="44.446405973285437" lon="5.783074982464314"><ele></ele><time>2015-2-4T10:28:19Z</time></trkpt>
<trkpt lat="44.445869950577617" lon="5.783337922766805"><ele></ele><time>2015-2-4T10:28:22Z</time></trkpt>
<trkpt lat="44.445322947576642" lon="5.783092919737101"><ele></ele><time>2015-2-4T10:28:25Z</time></trkpt>
<trkpt lat="44.444914916530252" lon="5.78383999876678"><ele></ele><time>2015-2-4T10:28:28Z</time></trkpt>
<trkpt lat="44.444593973457813" lon="5.784608954563737"><ele></ele><time>2015-2-4T10:28:31Z</time></trkpt>
<trkpt lat="44.444355927407742" lon="5.785223934799433"><ele></ele><time>2015-2-4T10:28:34Z</time></trkpt>
<trkpt lat="44.444246962666512" lon="5.785921979695559"><ele></ele><time>2015-2-4T10:28:37Z</time></trkpt>
<trkpt lat="44.444078989326954" lon="5.786517933011055"><ele></ele><time>2015-2-4T10:28:40Z</time></trkpt>
<trkpt lat="44.443906992673874" lon="5.787146994844079"><ele></ele><time>2015-2-4T10:28:43Z</time></trkpt>
<trkpt lat="44.443765925243497" lon="5.788005972281098"><ele></ele><time>2015-2-4T10:28:46Z</time></trkpt>
<trkpt lat="44.443522933870554" lon="5.788797978311777"><ele></ele><time>2015-2-4T10:28:49Z</time></trkpt>
<trkpt lat="44.443034939467907" lon="5.789210954681039"><ele></ele><time>2015-2-4T10:28:52Z</time></trkpt>
<trkpt lat="44.442401938140392" lon="5.789608927443624"><ele></ele><time>2015-2-4T10:28:55Z</time></trkpt>
<trkpt lat="44.441874967887998" lon="5.789957949891686"><ele></ele><time>2015-2-4T10:28:58Z</time></trkpt>
<trkpt lat="44.441469954326749" lon="5.790864955633879"><ele></ele><time>2015-2-4T10:29:1Z</time></trkpt>
<trkpt lat="44.441208941861987" lon="5.791440960019827"><ele></ele><time>2015-2-4T10:29:4Z</time></trkpt>
<trkpt lat="44.440713990479708" lon="5.792304966598749"><ele></ele><time>2015-2-4T10:29:7Z</time></trkpt>
<trkpt lat="44.440131951123476" lon="5.792760942131281"><ele></ele><time>2015-2-4T10:29:10Z</time></trkpt>
<trkpt lat="44.439635993912816" lon="5.79295095987618"><ele></ele><time>2015-2-4T10:29:13Z</time></trkpt>
<trkpt lat="44.438951946794987" lon="5.793066965416074"><ele></ele><time>2015-2-4T10:29:16Z</time></trkpt>
<trkpt lat="44.437960954383016" lon="5.793476924300194"><ele></ele><time>2015-2-4T10:29:19Z</time></trkpt>
<trkpt lat="44.437489975243807" lon="5.793718993663788"><ele></ele><time>2015-2-4T10:29:22Z</time></trkpt>
<trkpt lat="44.436779944226146" lon="5.794005990028381"><ele></ele><time>2015-2-4T10:29:25Z</time></trkpt>
<trkpt lat="44.436287926509976" lon="5.794110931456089"><ele></ele><time>2015-2-4T10:29:28Z</time></trkpt>
<trkpt lat="44.435713933780789" lon="5.794253926724196"><ele></ele><time>2015-2-4T10:29:31Z</time></trkpt>
<trkpt lat="44.43492092192173" lon="5.794424917548895"><ele></ele><time>2015-2-4T10:29:34Z</time></trkpt>
<trkpt lat="44.434309964999557" lon="5.793984951451421"><ele></ele><time>2015-2-4T10:29:37Z</time></trkpt>
<trkpt lat="44.433560958132148" lon="5.793437948450446"><ele></ele><time>2015-2-4T10:29:40Z</time></trkpt>
<trkpt lat="44.433110933750868" lon="5.793179953470826"><ele></ele><time>2015-2-4T10:29:43Z</time></trkpt>
<trkpt lat="44.432681947946548" lon="5.793398972600699"><ele></ele><time>2015-2-4T10:29:46Z</time></trkpt>
<trkpt lat="44.432228989899158" lon="5.793964918702841"><ele></ele><time>2015-2-4T10:29:49Z</time></trkpt>
<trkpt lat="44.431841997429729" lon="5.794504964724183"><ele></ele><time>2015-2-4T10:29:52Z</time></trkpt>
<trkpt lat="44.431536979973316" lon="5.795031934976578"><ele></ele><time>2015-2-4T10:29:55Z</time></trkpt>
<trkpt lat="44.431409994140267" lon="5.794661957770586"><ele></ele><time>2015-2-4T10:29:58Z</time></trkpt>
<trkpt lat="44.431335981935263" lon="5.793848996981978"><ele></ele><time>2015-2-4T10:30:1Z</time></trkpt>
<trkpt lat="44.430909929797053" lon="5.793372988700867"><ele></ele><time>2015-2-4T10:30:4Z</time></trkpt>
<trkpt lat="44.43036493845284" lon="5.793184982612729"><ele></ele><time>2015-2-4T10:30:7Z</time></trkpt>
<trkpt lat="44.430499970912933" lon="5.793770961463451"><ele></ele><time>2015-2-4T10:30:10Z</time></trkpt>
<trkpt lat="44.430103925988078" lon="5.794274965301156"><ele></ele><time>2015-2-4T10:30:13Z</time></trkpt>
<trkpt lat="44.429820952937007" lon="5.794982984662056"><ele></ele><time>2015-2-4T10:30:16Z</time></trkpt>
<trkpt lat="44.429455921053886" lon="5.795339969918132"><ele></ele><time>2015-2-4T10:30:19Z</time></trkpt>
<trkpt lat="44.428879916667938" lon="5.794692970812321"><ele></ele><time>2015-2-4T10:30:22Z</time></trkpt>
<trkpt lat="44.428426958620548" lon="5.794723983854055"><ele></ele><time>2015-2-4T10:30:25Z</time></trkpt>
<trkpt lat="44.42791398614645" lon="5.794962951913476"><ele></ele><time>2015-2-4T10:30:28Z</time></trkpt>
<trkpt lat="44.427344938740134" lon="5.795063953846693"><ele></ele><time>2015-2-4T10:30:31Z</time></trkpt>
<trkpt lat="44.4269909709692" lon="5.795772979035974"><ele></ele><time>2015-2-4T10:30:34Z</time></trkpt>
<trkpt lat="44.426401974633336" lon="5.796096939593554"><ele></ele><time>2015-2-4T10:30:37Z</time></trkpt>
<trkpt lat="44.42570392973721" lon="5.795986969023943"><ele></ele><time>2015-2-4T10:30:40Z</time></trkpt>
<trkpt lat="44.424831960350275" lon="5.795444995164871"><ele></ele><time>2015-2-4T10:30:43Z</time></trkpt>
<trkpt lat="44.42421798594296" lon="5.795080969110131"><ele></ele><time>2015-2-4T10:30:46Z</time></trkpt>
<trkpt lat="44.423278961330652" lon="5.794761953875423"><ele></ele><time>2015-2-4T10:30:49Z</time></trkpt>
<trkpt lat="44.422812927514315" lon="5.794697999954224"><ele></ele><time>2015-2-4T10:30:52Z</time></trkpt>
<trkpt lat="44.422302972525358" lon="5.79473395831883"><ele></ele><time>2015-2-4T10:30:55Z</time></trkpt>
<trkpt lat="44.421870969235897" lon="5.794813921675086"><ele></ele><time>2015-2-4T10:30:58Z</time></trkpt>
<trkpt lat="44.421416921541095" lon="5.795584972947836"><ele></ele><time>2015-2-4T10:31:1Z</time></trkpt>
<trkpt lat="44.421172924339771" lon="5.796135999262333"><ele></ele><time>2015-2-4T10:31:4Z</time></trkpt>
<trkpt lat="44.420868996530771" lon="5.79688492231071"><ele></ele><time>2015-2-4T10:31:7Z</time></trkpt>
<trkpt lat="44.420511927455664" lon="5.797461932525039"><ele></ele><time>2015-2-4T10:31:10Z</time></trkpt>
<trkpt lat="44.420302966609597" lon="5.798017987981439"><ele></ele><time>2015-2-4T10:31:13Z</time></trkpt>
<trkpt lat="44.420144967734814" lon="5.79864596016705"><ele></ele><time>2015-2-4T10:31:16Z</time></trkpt>
<trkpt lat="44.419657979160547" lon="5.798736987635493"><ele></ele><time>2015-2-4T10:31:19Z</time></trkpt>
<trkpt lat="44.418930932879448" lon="5.79943897202611"><ele></ele><time>2015-2-4T10:31:22Z</time></trkpt>
<trkpt lat="44.418598925694823" lon="5.799990920349956"><ele></ele><time>2015-2-4T10:31:25Z</time></trkpt>
<trkpt lat="44.418301954865456" lon="5.800501964986324"><ele></ele><time>2015-2-4T10:31:28Z</time></trkpt>
<trkpt lat="44.417936922982335" lon="5.801028935238719"><ele></ele><time>2015-2-4T10:31:31Z</time></trkpt>
<trkpt lat="44.417282966896892" lon="5.801662942394614"><ele></ele><time>2015-2-4T10:31:34Z</time></trkpt>
<trkpt lat="44.417025977745652" lon="5.802215980365872"><ele></ele><time>2015-2-4T10:31:37Z</time></trkpt>
<trkpt lat="44.416811987757683" lon="5.802796930074692"><ele></ele><time>2015-2-4T10:31:40Z</time></trkpt>
<trkpt lat="44.416305972263217" lon="5.803363965824246"><ele></ele><time>2015-2-4T10:31:43Z</time></trkpt>
<trkpt lat="44.415876986458898" lon="5.80395195633173"><ele></ele><time>2015-2-4T10:31:46Z</time></trkpt>
<trkpt lat="44.415462920442224" lon="5.804562997072935"><ele></ele><time>2015-2-4T10:31:49Z</time></trkpt>
<trkpt lat="44.414963945746422" lon="5.805215947329998"><ele></ele><time>2015-2-4T10:31:52Z</time></trkpt>
<trkpt lat="44.414734952151775" lon="5.805765967816114"><ele></ele><time>2015-2-4T10:31:55Z</time></trkpt>
<trkpt lat="44.414800917729735" lon="5.806515980511904"><ele></ele><time>2015-2-4T10:31:58Z</time></trkpt>
<trkpt lat="44.414982972666621" lon="5.80719692632556"><ele></ele><time>2015-2-4T10:32:1Z</time></trkpt>
<trkpt lat="44.414987917989492" lon="5.808149948716164"><ele></ele><time>2015-2-4T10:32:4Z</time></trkpt>
<trkpt lat="44.414977943524718" lon="5.809225933626294"><ele></ele><time>2015-2-4T10:32:7Z</time></trkpt>
<trkpt lat="44.414897980168462" lon="5.810369979590178"><ele></ele><time>2015-2-4T10:32:10Z</time></trkpt>
<trkpt lat="44.414763953536749" lon="5.811488963663578"><ele></ele><time>2015-2-4T10:32:13Z</time></trkpt>
<trkpt lat="44.414624981582165" lon="5.812619933858514"><ele></ele><time>2015-2-4T10:32:16Z</time></trkpt>
<trkpt lat="44.414258943870664" lon="5.813730955123901"><ele></ele><time>2015-2-4T10:32:19Z</time></trkpt>
<trkpt lat="44.413880920037627" lon="5.814721947535873"><ele></ele><time>2015-2-4T10:32:22Z</time></trkpt>
<trkpt lat="44.413566933944821" lon="5.815591989085078"><ele></ele><time>2015-2-4T10:32:25Z</time></trkpt>
<trkpt lat="44.413304999470711" lon="5.816469993442297"><ele></ele><time>2015-2-4T10:32:28Z</time></trkpt>
<trkpt lat="44.413113975897431" lon="5.817084973677993"><ele></ele><time>2015-2-4T10:32:31Z</time></trkpt>
<trkpt lat="44.412925969809294" lon="5.817700959742069"><ele></ele><time>2015-2-4T10:32:34Z</time></trkpt>
<trkpt lat="44.41278699785471" lon="5.81847595050931"><ele></ele><time>2015-2-4T10:32:37Z</time></trkpt>
<trkpt lat="44.412643918767571" lon="5.819492926821113"><ele></ele><time>2015-2-4T10:32:40Z</time></trkpt>
<trkpt lat="44.41276696510613" lon="5.820105979219079"><ele></ele><time>2015-2-4T10:32:43Z</time></trkpt>
<trkpt lat="44.41317499615252" lon="5.820857919752598"><ele></ele><time>2015-2-4T10:32:46Z</time></trkpt>
<trkpt lat="44.41347599029541" lon="5.821425961330533"><ele></ele><time>2015-2-4T10:32:49Z</time></trkpt>
<trkpt lat="44.413808919489384" lon="5.822030967101455"><ele></ele><time>2015-2-4T10:32:52Z</time></trkpt>
<trkpt lat="44.414105974137783" lon="5.822577970102429"><ele></ele><time>2015-2-4T10:32:55Z</time></trkpt>
<trkpt lat="44.414369920268655" lon="5.823241984471679"><ele></ele><time>2015-2-4T10:32:58Z</time></trkpt>
<trkpt lat="44.414535965770483" lon="5.824090987443924"><ele></ele><time>2015-2-4T10:33:1Z</time></trkpt>
<trkpt lat="44.414657922461629" lon="5.824777968227863"><ele></ele><time>2015-2-4T10:33:4Z</time></trkpt>
<trkpt lat="44.414775939658284" lon="5.825412981212139"><ele></ele><time>2015-2-4T10:33:7Z</time></trkpt>
<trkpt lat="44.414879959076643" lon="5.826034918427467"><ele></ele><time>2015-2-4T10:33:10Z</time></trkpt>
<trkpt lat="44.415054973214865" lon="5.826933961361647"><ele></ele><time>2015-2-4T10:33:13Z</time></trkpt>
<trkpt lat="44.415210960432887" lon="5.827722949907184"><ele></ele><time>2015-2-4T10:33:16Z</time></trkpt>
<trkpt lat="44.415346998721361" lon="5.828449996188283"><ele></ele><time>2015-2-4T10:33:19Z</time></trkpt>
<trkpt lat="44.415498962625861" lon="5.829269997775555"><ele></ele><time>2015-2-4T10:33:22Z</time></trkpt>
<trkpt lat="44.415664924308658" lon="5.830170968547463"><ele></ele><time>2015-2-4T10:33:25Z</time></trkpt>
<trkpt lat="44.415702978149056" lon="5.830926932394505"><ele></ele><time>2015-2-4T10:33:28Z</time></trkpt>
<trkpt lat="44.415214983746409" lon="5.831447951495647"><ele></ele><time>2015-2-4T10:33:31Z</time></trkpt>
<trkpt lat="44.414826985448599" lon="5.832092938944697"><ele></ele><time>2015-2-4T10:33:34Z</time></trkpt>
<trkpt lat="44.414730928838253" lon="5.832897936925292"><ele></ele><time>2015-2-4T10:33:37Z</time></trkpt>
<trkpt lat="44.414893956854939" lon="5.833476958796382"><ele></ele><time>2015-2-4T10:33:40Z</time></trkpt>
<trkpt lat="44.415240967646241" lon="5.83413795568049"><ele></ele><time>2015-2-4T10:33:43Z</time></trkpt>
<trkpt lat="44.415472978726029" lon="5.835081925615668"><ele></ele><time>2015-2-4T10:33:46Z</time></trkpt>
<trkpt lat="44.415216995403171" lon="5.835273955017328"><ele></ele><time>2015-2-4T10:33:49Z</time></trkpt>
<trkpt lat="44.414716931059957" lon="5.835165996104479"><ele></ele><time>2015-2-4T10:33:52Z</time></trkpt>
<trkpt lat="44.414260955527425" lon="5.835248976945877"><ele></ele><time>2015-2-4T10:33:55Z</time></trkpt>
<trkpt lat="44.4137769844383" lon="5.835283929482102"><ele></ele><time>2015-2-4T10:33:58Z</time></trkpt>
<trkpt lat="44.41364798694849" lon="5.836065961048007"><ele></ele><time>2015-2-4T10:34:1Z</time></trkpt>
<trkpt lat="44.413290917873383" lon="5.836772974580526"><ele></ele><time>2015-2-4T10:34:4Z</time></trkpt>
<trkpt lat="44.413381945341825" lon="5.83742399699986"><ele></ele><time>2015-2-4T10:34:7Z</time></trkpt>
<trkpt lat="44.413172984495759" lon="5.83796295337379"><ele></ele><time>2015-2-4T10:34:10Z</time></trkpt>
<trkpt lat="44.412889927625656" lon="5.838517919182777"><ele></ele><time>2015-2-4T10:34:13Z</time></trkpt>
<trkpt lat="44.41261793486774" lon="5.839083949103952"><ele></ele><time>2015-2-4T10:34:16Z</time></trkpt>
<trkpt lat="44.41216891631484" lon="5.83920699544251"><ele></ele><time>2015-2-4T10:34:19Z</time></trkpt>
<trkpt lat="44.411634989082813" lon="5.839263992384076"><ele></ele><time>2015-2-4T10:34:22Z</time></trkpt>
<trkpt lat="44.41115596331656" lon="5.839236918836832"><ele></ele><time>2015-2-4T10:34:25Z</time></trkpt>
<trkpt lat="44.41070694476366" lon="5.83948795683682"><ele></ele><time>2015-2-4T10:34:28Z</time></trkpt>
<trkpt lat="44.410267984494567" lon="5.839773947373033"><ele></ele><time>2015-2-4T10:34:31Z</time></trkpt>
<trkpt lat="44.409783929586411" lon="5.839935969561338"><ele></ele><time>2015-2-4T10:34:34Z</time></trkpt>
<trkpt lat="44.409367935732007" lon="5.840228917077184"><ele></ele><time>2015-2-4T10:34:37Z</time></trkpt>
<trkpt lat="44.40864197909832" lon="5.840406948700547"><ele></ele><time>2015-2-4T10:34:40Z</time></trkpt>
<trkpt lat="44.408190948888659" lon="5.840509962290525"><ele></ele><time>2015-2-4T10:34:43Z</time></trkpt>
<trkpt lat="44.407433979213238" lon="5.840676929801703"><ele></ele><time>2015-2-4T10:34:46Z</time></trkpt>
<trkpt lat="44.406932992860675" lon="5.840980941429734"><ele></ele><time>2015-2-4T10:34:49Z</time></trkpt>
<trkpt lat="44.406423959881067" lon="5.841656941920519"><ele></ele><time>2015-2-4T10:34:52Z</time></trkpt>
<trkpt lat="44.405956920236349" lon="5.842190952971578"><ele></ele><time>2015-2-4T10:34:55Z</time></trkpt>
<trkpt lat="44.40550597384572" lon="5.842223977670074"><ele></ele><time>2015-2-4T10:34:58Z</time></trkpt>
<trkpt lat="44.405024936422706" lon="5.841789962723851"><ele></ele><time>2015-2-4T10:35:1Z</time></trkpt>
<trkpt lat="44.40456192009151" lon="5.841429959982634"><ele></ele><time>2015-2-4T10:35:4Z</time></trkpt>
<trkpt lat="44.404107956215739" lon="5.841229967772961"><ele></ele><time>2015-2-4T10:35:7Z</time></trkpt>
<trkpt lat="44.403538992628455" lon="5.841089989989996"><ele></ele><time>2015-2-4T10:35:10Z</time></trkpt>
<trkpt lat="44.403090979903936" lon="5.841244971379638"><ele></ele><time>2015-2-4T10:35:13Z</time></trkpt>
<trkpt lat="44.402819992974401" lon="5.841834973543882"><ele></ele><time>2015-2-4T10:35:16Z</time></trkpt>
<trkpt lat="44.40277892164886" lon="5.842586997896433"><ele></ele><time>2015-2-4T10:35:19Z</time></trkpt>
<trkpt lat="44.402726953849196" lon="5.843304991722107"><ele></ele><time>2015-2-4T10:35:22Z</time></trkpt>
<trkpt lat="44.402463929727674" lon="5.843971939757466"><ele></ele><time>2015-2-4T10:35:25Z</time></trkpt>
<trkpt lat="44.402098981663585" lon="5.844724969938397"><ele></ele><time>2015-2-4T10:35:28Z</time></trkpt>
<trkpt lat="44.401862947270274" lon="5.845455955713987"><ele></ele><time>2015-2-4T10:35:31Z</time></trkpt>
<trkpt lat="44.401542926207185" lon="5.846244944259524"><ele></ele><time>2015-2-4T10:35:34Z</time></trkpt>
<trkpt lat="44.40094898454845" lon="5.846473937854171"><ele></ele><time>2015-2-4T10:35:37Z</time></trkpt>
<trkpt lat="44.400536930188537" lon="5.846788929775357"><ele></ele><time>2015-2-4T10:35:40Z</time></trkpt>
<trkpt lat="44.400249933823943" lon="5.84756794385612"><ele></ele><time>2015-2-4T10:35:43Z</time></trkpt>
<trkpt lat="44.400361999869347" lon="5.848369924351573"><ele></ele><time>2015-2-4T10:35:46Z</time></trkpt>
<trkpt lat="44.400311959907413" lon="5.849001919850707"><ele></ele><time>2015-2-4T10:35:49Z</time></trkpt>
<trkpt lat="44.400078942999244" lon="5.849709939211607"><ele></ele><time>2015-2-4T10:35:52Z</time></trkpt>
<trkpt lat="44.399573933333158" lon="5.850256942212582"><ele></ele><time>2015-2-4T10:35:55Z</time></trkpt>
<trkpt lat="44.39886792562902" lon="5.85055592469871"><ele></ele><time>2015-2-4T10:35:58Z</time></trkpt>
<trkpt lat="44.39841597341001" lon="5.850564977154136"><ele></ele><time>2015-2-4T10:36:1Z</time></trkpt>
<trkpt lat="44.397778948768973" lon="5.850983988493681"><ele></ele><time>2015-2-4T10:36:4Z</time></trkpt>
<trkpt lat="44.397814990952611" lon="5.851731989532709"><ele></ele><time>2015-2-4T10:36:7Z</time></trkpt>
<trkpt lat="44.397971983999014" lon="5.852395920082927"><ele></ele><time>2015-2-4T10:36:10Z</time></trkpt>
<trkpt lat="44.398089917376637" lon="5.853183986619115"><ele></ele><time>2015-2-4T10:36:13Z</time></trkpt>
<trkpt lat="44.398163929581642" lon="5.853944979608059"><ele></ele><time>2015-2-4T10:36:16Z</time></trkpt>
<trkpt lat="44.398000985383987" lon="5.854728939011693"><ele></ele><time>2015-2-4T10:36:19Z</time></trkpt>
<trkpt lat="44.397060954943299" lon="5.854701949283481"><ele></ele><time>2015-2-4T10:36:22Z</time></trkpt>
<trkpt lat="44.396379925310612" lon="5.854542944580317"><ele></ele><time>2015-2-4T10:36:25Z</time></trkpt>
<trkpt lat="44.395616920664907" lon="5.854369942098856"><ele></ele><time>2015-2-4T10:36:28Z</time></trkpt>
<trkpt lat="44.395091962069273" lon="5.854605976492167"><ele></ele><time>2015-2-4T10:36:31Z</time></trkpt>
<trkpt lat="44.394692983478308" lon="5.855128923431039"><ele></ele><time>2015-2-4T10:36:34Z</time></trkpt>
<trkpt lat="44.394325939938426" lon="5.855647930875421"><ele></ele><time>2015-2-4T10:36:37Z</time></trkpt>
<trkpt lat="44.393917992711067" lon="5.856070965528488"><ele></ele><time>2015-2-4T10:36:40Z</time></trkpt>
<trkpt lat="44.393627978861332" lon="5.856703966856003"><ele></ele><time>2015-2-4T10:36:43Z</time></trkpt>
<trkpt lat="44.393417928367853" lon="5.857388935983181"><ele></ele><time>2015-2-4T10:36:46Z</time></trkpt>
<trkpt lat="44.393142918124795" lon="5.85798991844058"><ele></ele><time>2015-2-4T10:36:49Z</time></trkpt>
<trkpt lat="44.392812922596931" lon="5.858659967780113"><ele></ele><time>2015-2-4T10:36:52Z</time></trkpt>
<trkpt lat="44.392595998942852" lon="5.859404951334"><ele></ele><time>2015-2-4T10:36:55Z</time></trkpt>
<trkpt lat="44.392150919884443" lon="5.860453946515918"><ele></ele><time>2015-2-4T10:36:58Z</time></trkpt>
<trkpt lat="44.391936929896474" lon="5.861253999173641"><ele></ele><time>2015-2-4T10:37:1Z</time></trkpt>
<trkpt lat="44.391613975167274" lon="5.861797984689474"><ele></ele><time>2015-2-4T10:37:4Z</time></trkpt>
<trkpt lat="44.391127992421389" lon="5.862368959933519"><ele></ele><time>2015-2-4T10:37:7Z</time></trkpt>
<trkpt lat="44.390602950006723" lon="5.862941946834326"><ele></ele><time>2015-2-4T10:37:10Z</time></trkpt>
<trkpt lat="44.390168935060501" lon="5.863552987575531"><ele></ele><time>2015-2-4T10:37:13Z</time></trkpt>
<trkpt lat="44.389777919277549" lon="5.863941991701722"><ele></ele><time>2015-2-4T10:37:16Z</time></trkpt>
<trkpt lat="44.389164950698614" lon="5.864269975572825"><ele></ele><time>2015-2-4T10:37:19Z</time></trkpt>
<trkpt lat="44.388352995738387" lon="5.865166923031211"><ele></ele><time>2015-2-4T10:37:22Z</time></trkpt>
<trkpt lat="44.387314980849624" lon="5.865927999839187"><ele></ele><time>2015-2-4T10:37:25Z</time></trkpt>
<trkpt lat="44.386497996747494" lon="5.866325972601771"><ele></ele><time>2015-2-4T10:37:28Z</time></trkpt>
<trkpt lat="44.385411953553557" lon="5.86681991815567"><ele></ele><time>2015-2-4T10:37:31Z</time></trkpt>
<trkpt lat="44.384850952774286" lon="5.867132982239127"><ele></ele><time>2015-2-4T10:37:34Z</time></trkpt>
<trkpt lat="44.384281989187002" lon="5.867598932236433"><ele></ele><time>2015-2-4T10:37:37Z</time></trkpt>
<trkpt lat="44.383616968989372" lon="5.868141995742917"><ele></ele><time>2015-2-4T10:37:40Z</time></trkpt>
<trkpt lat="44.383178930729628" lon="5.86838792078197"><ele></ele><time>2015-2-4T10:37:43Z</time></trkpt>
<trkpt lat="44.382637962698936" lon="5.868655974045396"><ele></ele><time>2015-2-4T10:37:46Z</time></trkpt>
<trkpt lat="44.382067993283272" lon="5.868853954598308"><ele></ele><time>2015-2-4T10:37:49Z</time></trkpt>
<trkpt lat="44.381526941433549" lon="5.868929978460074"><ele></ele><time>2015-2-4T10:37:52Z</time></trkpt>
<trkpt lat="44.38077692873776" lon="5.868913969025016"><ele></ele><time>2015-2-4T10:37:55Z</time></trkpt>
<trkpt lat="44.380187932401896" lon="5.869441945105791"><ele></ele><time>2015-2-4T10:37:58Z</time></trkpt>
<trkpt lat="44.379408918321133" lon="5.869431970641017"><ele></ele><time>2015-2-4T10:38:1Z</time></trkpt>
<trkpt lat="44.378954954445362" lon="5.86924497038126"><ele></ele><time>2015-2-4T10:38:4Z</time></trkpt>
<trkpt lat="44.378429995849729" lon="5.869000973179936"><ele></ele><time>2015-2-4T10:38:7Z</time></trkpt>
<trkpt lat="44.377639917656779" lon="5.868727974593639"><ele></ele><time>2015-2-4T10:38:10Z</time></trkpt>
<trkpt lat="44.37708193436265" lon="5.868902988731861"><ele></ele><time>2015-2-4T10:38:13Z</time></trkpt>
<trkpt lat="44.376579942181706" lon="5.869319988414645"><ele></ele><time>2015-2-4T10:38:16Z</time></trkpt>
<trkpt lat="44.375999998301268" lon="5.869509922340512"><ele></ele><time>2015-2-4T10:38:19Z</time></trkpt>
<trkpt lat="44.376547923311591" lon="5.870000934228301"><ele></ele><time>2015-2-4T10:38:22Z</time></trkpt>
<trkpt lat="44.376762919127941" lon="5.870679952204227"><ele></ele><time>2015-2-4T10:38:25Z</time></trkpt>
<trkpt lat="44.377026949077845" lon="5.871221926063299"><ele></ele><time>2015-2-4T10:38:28Z</time></trkpt>
<trkpt lat="44.377111941576004" lon="5.871939919888973"><ele></ele><time>2015-2-4T10:38:31Z</time></trkpt>
<trkpt lat="44.377576969563961" lon="5.872648945078254"><ele></ele><time>2015-2-4T10:38:34Z</time></trkpt>
<trkpt lat="44.377627931535244" lon="5.873044990003109"><ele></ele><time>2015-2-4T10:38:37Z</time></trkpt>
<trkpt lat="44.376932987943292" lon="5.873558968305588"><ele></ele><time>2015-2-4T10:38:40Z</time></trkpt>
<trkpt lat="44.376508947461843" lon="5.874018967151642"><ele></ele><time>2015-2-4T10:38:43Z</time></trkpt>
<trkpt lat="44.37602992169559" lon="5.874613998457789"><ele></ele><time>2015-2-4T10:38:46Z</time></trkpt>
<trkpt lat="44.376012990251184" lon="5.875313971191645"><ele></ele><time>2015-2-4T10:38:49Z</time></trkpt>
<trkpt lat="44.376040985807776" lon="5.875994917005301"><ele></ele><time>2015-2-4T10:38:52Z</time></trkpt>
<trkpt lat="44.376233937218785" lon="5.877126976847649"><ele></ele><time>2015-2-4T10:38:55Z</time></trkpt>
<trkpt lat="44.37626495026052" lon="5.87792593985796"><ele></ele><time>2015-2-4T10:38:58Z</time></trkpt>
<trkpt lat="44.376460919156671" lon="5.878723980858922"><ele></ele><time>2015-2-4T10:39:1Z</time></trkpt>
<trkpt lat="44.376559993252158" lon="5.879939943552017"><ele></ele><time>2015-2-4T10:39:4Z</time></trkpt>
<trkpt lat="44.376460919156671" lon="5.881425971165299"><ele></ele><time>2015-2-4T10:39:7Z</time></trkpt>
<trkpt lat="44.376409957185388" lon="5.882225940003991"><ele></ele><time>2015-2-4T10:39:10Z</time></trkpt>
<trkpt lat="44.376546917483211" lon="5.883270995691419"><ele></ele><time>2015-2-4T10:39:13Z</time></trkpt>
<trkpt lat="44.376775994896889" lon="5.884170960634947"><ele></ele><time>2015-2-4T10:39:16Z</time></trkpt>
<trkpt lat="44.376987973228097" lon="5.884756939485669"><ele></ele><time>2015-2-4T10:39:19Z</time></trkpt>
<trkpt lat="44.376659989356995" lon="5.885930992662907"><ele></ele><time>2015-2-4T10:39:22Z</time></trkpt>
<trkpt lat="44.376386990770698" lon="5.886565921828151"><ele></ele><time>2015-2-4T10:39:25Z</time></trkpt>
<trkpt lat="44.376146933063865" lon="5.887129940092564"><ele></ele><time>2015-2-4T10:39:28Z</time></trkpt>
<trkpt lat="44.375822972506285" lon="5.887867966666818"><ele></ele><time>2015-2-4T10:39:31Z</time></trkpt>
<trkpt lat="44.375359956175089" lon="5.888427961617708"><ele></ele><time>2015-2-4T10:39:34Z</time></trkpt>
<trkpt lat="44.374690996482968" lon="5.889077978208661"><ele></ele><time>2015-2-4T10:39:37Z</time></trkpt>
<trkpt lat="44.374292939901352" lon="5.889633949846029"><ele></ele><time>2015-2-4T10:39:40Z</time></trkpt>
<trkpt lat="44.374143993481994" lon="5.890352949500084"><ele></ele><time>2015-2-4T10:39:43Z</time></trkpt>
<trkpt lat="44.3742869887501" lon="5.891138920560479"><ele></ele><time>2015-2-4T10:39:46Z</time></trkpt>
<trkpt lat="44.374598963186145" lon="5.892059924080968"><ele></ele><time>2015-2-4T10:39:49Z</time></trkpt>
<trkpt lat="44.374560993164778" lon="5.892733996734023"><ele></ele><time>2015-2-4T10:39:52Z</time></trkpt>
<trkpt lat="44.374452950432897" lon="5.893384935334325"><ele></ele><time>2015-2-4T10:39:55Z</time></trkpt>
<trkpt lat="44.374392936006188" lon="5.894248941913247"><ele></ele><time>2015-2-4T10:39:58Z</time></trkpt>
<trkpt lat="44.374185986816883" lon="5.894925948232412"><ele></ele><time>2015-2-4T10:40:1Z</time></trkpt>
<trkpt lat="44.373930925503373" lon="5.895569929853082"><ele></ele><time>2015-2-4T10:40:4Z</time></trkpt>
<trkpt lat="44.373632948845625" lon="5.896238973364234"><ele></ele><time>2015-2-4T10:40:7Z</time></trkpt>
<trkpt lat="44.373179990798235" lon="5.897202976047993"><ele></ele><time>2015-2-4T10:40:10Z</time></trkpt>
<trkpt lat="44.372757961973548" lon="5.897702956572175"><ele></ele><time>2015-2-4T10:40:13Z</time></trkpt>
<trkpt lat="44.37229092232883" lon="5.898374933749437"><ele></ele><time>2015-2-4T10:40:16Z</time></trkpt>
<trkpt lat="44.372122948989272" lon="5.898967953398824"><ele></ele><time>2015-2-4T10:40:19Z</time></trkpt>
<trkpt lat="44.371892949566245" lon="5.89966893196106"><ele></ele><time>2015-2-4T10:40:22Z</time></trkpt>
<trkpt lat="44.372289916500449" lon="5.900303944945335"><ele></ele><time>2015-2-4T10:40:25Z</time></trkpt>
<trkpt lat="44.372814958915114" lon="5.901018921285868"><ele></ele><time>2015-2-4T10:40:28Z</time></trkpt>
<trkpt lat="44.373367996886373" lon="5.90175099670887"><ele></ele><time>2015-2-4T10:40:31Z</time></trkpt>
<trkpt lat="44.373928997665644" lon="5.902486927807331"><ele></ele><time>2015-2-4T10:40:34Z</time></trkpt>
<trkpt lat="44.374462924897671" lon="5.903138956055045"><ele></ele><time>2015-2-4T10:40:37Z</time></trkpt>
<trkpt lat="44.374827956780791" lon="5.903615970164537"><ele></ele><time>2015-2-4T10:40:40Z</time></trkpt>
<trkpt lat="44.375347970053554" lon="5.904261963441968"><ele></ele><time>2015-2-4T10:40:43Z</time></trkpt>
<trkpt lat="44.37542793340981" lon="5.904903933405876"><ele></ele><time>2015-2-4T10:40:46Z</time></trkpt>
<trkpt lat="44.375334978103638" lon="5.905784955248237"><ele></ele><time>2015-2-4T10:40:49Z</time></trkpt>
<trkpt lat="44.375317962840199" lon="5.906568998470902"><ele></ele><time>2015-2-4T10:40:52Z</time></trkpt>
<trkpt lat="44.375239927321672" lon="5.907605923712254"><ele></ele><time>2015-2-4T10:40:55Z</time></trkpt>
<trkpt lat="44.37521293759346" lon="5.908356942236424"><ele></ele><time>2015-2-4T10:40:58Z</time></trkpt>
<trkpt lat="44.375413935631514" lon="5.909104943275452"><ele></ele><time>2015-2-4T10:41:1Z</time></trkpt>
<trkpt lat="44.375696992501616" lon="5.910034999251366"><ele></ele><time>2015-2-4T10:41:4Z</time></trkpt>
<trkpt lat="44.375977953895926" lon="5.910744946449995"><ele></ele><time>2015-2-4T10:41:7Z</time></trkpt>
<trkpt lat="44.376154979690909" lon="5.911866948008537"><ele></ele><time>2015-2-4T10:41:10Z</time></trkpt>
<trkpt lat="44.376185992732644" lon="5.912532974034548"><ele></ele><time>2015-2-4T10:41:13Z</time></trkpt>
<trkpt lat="44.37574896030128" lon="5.912337927147746"><ele></ele><time>2015-2-4T10:41:16Z</time></trkpt>
<trkpt lat="44.375266917049885" lon="5.911927968263626"><ele></ele><time>2015-2-4T10:41:19Z</time></trkpt>
<trkpt lat="44.374647997319698" lon="5.911994939669967"><ele></ele><time>2015-2-4T10:41:22Z</time></trkpt>
<trkpt lat="44.374101916328073" lon="5.912613943219185"><ele></ele><time>2015-2-4T10:41:25Z</time></trkpt>
<trkpt lat="44.373710984364152" lon="5.912728942930698"><ele></ele><time>2015-2-4T10:41:28Z</time></trkpt>
<trkpt lat="44.373298930004239" lon="5.911989994347096"><ele></ele><time>2015-2-4T10:41:31Z</time></trkpt>
<trkpt lat="44.372990978881717" lon="5.911485990509391"><ele></ele><time>2015-2-4T10:41:34Z</time></trkpt>
<trkpt lat="44.372797943651676" lon="5.912068951874971"><ele></ele><time>2015-2-4T10:41:37Z</time></trkpt>
<trkpt lat="44.372445987537503" lon="5.912680998444557"><ele></ele><time>2015-2-4T10:41:40Z</time></trkpt>
<trkpt lat="44.371963944286108" lon="5.9130949806422"><ele></ele><time>2015-2-4T10:41:43Z</time></trkpt>
<trkpt lat="44.371620956808329" lon="5.913990922272205"><ele></ele><time>2015-2-4T10:41:46Z</time></trkpt>
<trkpt lat="44.371374947950244" lon="5.914989961311221"><ele></ele><time>2015-2-4T10:41:49Z</time></trkpt>
<trkpt lat="44.371093986555934" lon="5.915639977902174"><ele></ele><time>2015-2-4T10:41:52Z</time></trkpt>
<trkpt lat="44.369872994720936" lon="5.916455956175923"><ele></ele><time>2015-2-4T10:41:55Z</time></trkpt>
<trkpt lat="44.369525983929634" lon="5.916967922821641"><ele></ele><time>2015-2-4T10:41:58Z</time></trkpt>
<trkpt lat="44.369397992268205" lon="5.917632943019271"><ele></ele><time>2015-2-4T10:42:1Z</time></trkpt>
<trkpt lat="44.36926094815135" lon="5.918622929602861"><ele></ele><time>2015-2-4T10:42:4Z</time></trkpt>
<trkpt lat="44.369232952594757" lon="5.919368918985128"><ele></ele><time>2015-2-4T10:42:7Z</time></trkpt>
<trkpt lat="44.369206968694925" lon="5.920125972479582"><ele></ele><time>2015-2-4T10:42:10Z</time></trkpt>
<trkpt lat="44.368732972070575" lon="5.921293990686536"><ele></ele><time>2015-2-4T10:42:13Z</time></trkpt>
<trkpt lat="44.368460979312658" lon="5.921795982867479"><ele></ele><time>2015-2-4T10:42:16Z</time></trkpt>
<trkpt lat="44.368144981563091" lon="5.922336950898171"><ele></ele><time>2015-2-4T10:42:19Z</time></trkpt>
<trkpt lat="44.367800988256931" lon="5.922859981656075"><ele></ele><time>2015-2-4T10:42:22Z</time></trkpt>
<trkpt lat="44.367228923365474" lon="5.922856964170933"><ele></ele><time>2015-2-4T10:42:25Z</time></trkpt>
<trkpt lat="44.366776971146464" lon="5.923771932721138"><ele></ele><time>2015-2-4T10:42:28Z</time></trkpt>
<trkpt lat="44.366275984793901" lon="5.924070999026299"><ele></ele><time>2015-2-4T10:42:31Z</time></trkpt>
<trkpt lat="44.365791929885745" lon="5.923764975741506"><ele></ele><time>2015-2-4T10:42:34Z</time></trkpt>
<trkpt lat="44.365614987909794" lon="5.923116970807314"><ele></ele><time>2015-2-4T10:42:37Z</time></trkpt>
<trkpt lat="44.364889953285456" lon="5.922708939760923"><ele></ele><time>2015-2-4T10:42:40Z</time></trkpt>
<trkpt lat="44.364359965547919" lon="5.922519927844405"><ele></ele><time>2015-2-4T10:42:43Z</time></trkpt>
<trkpt lat="44.363869959488511" lon="5.922321947291493"><ele></ele><time>2015-2-4T10:42:46Z</time></trkpt>
<trkpt lat="44.363198988139629" lon="5.921752983704209"><ele></ele><time>2015-2-4T10:42:49Z</time></trkpt>
<trkpt lat="44.362796992063522" lon="5.921228947117925"><ele></ele><time>2015-2-4T10:42:52Z</time></trkpt>
<trkpt lat="44.362308997660875" lon="5.920711951330304"><ele></ele><time>2015-2-4T10:42:55Z</time></trkpt>
<trkpt lat="44.361423952504992" lon="5.920076938346028"><ele></ele><time>2015-2-4T10:42:58Z</time></trkpt>
<trkpt lat="44.360894970595837" lon="5.919710984453559"><ele></ele><time>2015-2-4T10:43:1Z</time></trkpt>
<trkpt lat="44.360310919582844" lon="5.919309994205833"><ele></ele><time>2015-2-4T10:43:4Z</time></trkpt>
<trkpt lat="44.359831977635622" lon="5.91898494400084"><ele></ele><time>2015-2-4T10:43:7Z</time></trkpt>
<trkpt lat="44.359368961304426" lon="5.91866098344326"><ele></ele><time>2015-2-4T10:43:10Z</time></trkpt>
<trkpt lat="44.358726991340518" lon="5.918214982375503"><ele></ele><time>2015-2-4T10:43:13Z</time></trkpt>
<trkpt lat="44.358144951984286" lon="5.917812986299396"><ele></ele><time>2015-2-4T10:43:16Z</time></trkpt>
<trkpt lat="44.357344983145595" lon="5.917258942499757"><ele></ele><time>2015-2-4T10:43:19Z</time></trkpt>
<trkpt lat="44.356771996244788" lon="5.916863987222314"><ele></ele><time>2015-2-4T10:43:22Z</time></trkpt>
<trkpt lat="44.355964986607432" lon="5.916303992271423"><ele></ele><time>2015-2-4T10:43:25Z</time></trkpt>
<trkpt lat="44.355300972238183" lon="5.915851956233382"><ele></ele><time>2015-2-4T10:43:28Z</time></trkpt>
<trkpt lat="44.354516929015517" lon="5.915307970717549"><ele></ele><time>2015-2-4T10:43:31Z</time></trkpt>
<trkpt lat="44.353860961273313" lon="5.914809918031097"><ele></ele><time>2015-2-4T10:43:34Z</time></trkpt>
<trkpt lat="44.353222930803895" lon="5.914310943335295"><ele></ele><time>2015-2-4T10:43:37Z</time></trkpt>
<trkpt lat="44.352582972496748" lon="5.913811968639493"><ele></ele><time>2015-2-4T10:43:40Z</time></trkpt>
<trkpt lat="44.35205097310245" lon="5.913382982835174"><ele></ele><time>2015-2-4T10:43:43Z</time></trkpt>
<trkpt lat="44.351499946787953" lon="5.912920972332358"><ele></ele><time>2015-2-4T10:43:46Z</time></trkpt>
<trkpt lat="44.350664941594005" lon="5.912263998761773"><ele></ele><time>2015-2-4T10:43:49Z</time></trkpt>
<trkpt lat="44.350083991885185" lon="5.911836940795183"><ele></ele><time>2015-2-4T10:43:52Z</time></trkpt>
<trkpt lat="44.349482925608754" lon="5.91140192002058"><ele></ele><time>2015-2-4T10:43:55Z</time></trkpt>
<trkpt lat="44.34891396202147" lon="5.911103943362832"><ele></ele><time>2015-2-4T10:43:58Z</time></trkpt>
<trkpt lat="44.348227987065911" lon="5.91090495698154"><ele></ele><time>2015-2-4T10:44:1Z</time></trkpt>
<trkpt lat="44.347394993528724" lon="5.910747963935137"><ele></ele><time>2015-2-4T10:44:4Z</time></trkpt>
<trkpt lat="44.346877997741103" lon="5.910524921491742"><ele></ele><time>2015-2-4T10:44:7Z</time></trkpt>
<trkpt lat="44.346407940611243" lon="5.910198949277401"><ele></ele><time>2015-2-4T10:44:10Z</time></trkpt>
<trkpt lat="44.345932938158512" lon="5.909802988171578"><ele></ele><time>2015-2-4T10:44:13Z</time></trkpt>
<trkpt lat="44.345288956537843" lon="5.909255985170603"><ele></ele><time>2015-2-4T10:44:16Z</time></trkpt>
<trkpt lat="44.344825940206647" lon="5.908831944689155"><ele></ele><time>2015-2-4T10:44:19Z</time></trkpt>
<trkpt lat="44.344491921365261" lon="5.908395918086171"><ele></ele><time>2015-2-4T10:44:22Z</time></trkpt>
<trkpt lat="44.344081962481141" lon="5.907781943678856"><ele></ele><time>2015-2-4T10:44:25Z</time></trkpt>
<trkpt lat="44.343731934204698" lon="5.907254973426461"><ele></ele><time>2015-2-4T10:44:28Z</time></trkpt>
<trkpt lat="44.343310995027423" lon="5.906622977927327"><ele></ele><time>2015-2-4T10:44:31Z</time></trkpt>
<trkpt lat="44.342786958441138" lon="5.905847987160087"><ele></ele><time>2015-2-4T10:44:34Z</time></trkpt>
<trkpt lat="44.342388985678554" lon="5.905262930318713"><ele></ele><time>2015-2-4T10:44:37Z</time></trkpt>
<trkpt lat="44.341926975175738" lon="5.904682986438274"><ele></ele><time>2015-2-4T10:44:40Z</time></trkpt>
<trkpt lat="44.341484997421503" lon="5.904176970943809"><ele></ele><time>2015-2-4T10:44:43Z</time></trkpt>
<trkpt lat="44.341060956940055" lon="5.903690988197923"><ele></ele><time>2015-2-4T10:44:46Z</time></trkpt>
<trkpt lat="44.340582937002182" lon="5.903139961883426"><ele></ele><time>2015-2-4T10:44:49Z</time></trkpt>
<trkpt lat="44.340196950361133" lon="5.902700917795301"><ele></ele><time>2015-2-4T10:44:52Z</time></trkpt>
<trkpt lat="44.339750949293375" lon="5.902192974463105"><ele></ele><time>2015-2-4T10:44:55Z</time></trkpt>
<trkpt lat="44.339205957949162" lon="5.901586962863803"><ele></ele><time>2015-2-4T10:44:58Z</time></trkpt>
<trkpt lat="44.338721986860037" lon="5.901093939319253"><ele></ele><time>2015-2-4T10:45:1Z</time></trkpt>
<trkpt lat="44.338175989687443" lon="5.90059295296669"><ele></ele><time>2015-2-4T10:45:4Z</time></trkpt>
<trkpt lat="44.337473921477795" lon="5.900027928873897"><ele></ele><time>2015-2-4T10:45:7Z</time></trkpt>
<trkpt lat="44.336601952090859" lon="5.899425940588117"><ele></ele><time>2015-2-4T10:45:10Z</time></trkpt>
<trkpt lat="44.335726965218782" lon="5.898926965892315"><ele></ele><time>2015-2-4T10:45:13Z</time></trkpt>
<trkpt lat="44.33486195281148" lon="5.89852798730135"><ele></ele><time>2015-2-4T10:45:16Z</time></trkpt>
<trkpt lat="44.333719918504357" lon="5.89807896874845"><ele></ele><time>2015-2-4T10:45:19Z</time></trkpt>
<trkpt lat="44.332733955234289" lon="5.897695999592543"><ele></ele><time>2015-2-4T10:45:22Z</time></trkpt>
<trkpt lat="44.331675991415977" lon="5.897287968546152"><ele></ele><time>2015-2-4T10:45:25Z</time></trkpt>
<trkpt lat="44.330894965678453" lon="5.896987980231643"><ele></ele><time>2015-2-4T10:45:28Z</time></trkpt>
<trkpt lat="44.330182923004031" lon="5.896713975816965"><ele></ele><time>2015-2-4T10:45:31Z</time></trkpt>
<trkpt lat="44.329625945538282" lon="5.896463943645358"><ele></ele><time>2015-2-4T10:45:34Z</time></trkpt>
<trkpt lat="44.329085983335972" lon="5.896176947280765"><ele></ele><time>2015-2-4T10:45:37Z</time></trkpt>
<trkpt lat="44.328620955348015" lon="5.895888945087791"><ele></ele><time>2015-2-4T10:45:40Z</time></trkpt>
<trkpt lat="44.327797936275601" lon="5.895276982337236"><ele></ele><time>2015-2-4T10:45:43Z</time></trkpt>
<trkpt lat="44.327379930764437" lon="5.89494195766747"><ele></ele><time>2015-2-4T10:45:46Z</time></trkpt>
<trkpt lat="44.326687920838594" lon="5.894391937181354"><ele></ele><time>2015-2-4T10:45:49Z</time></trkpt>
<trkpt lat="44.326255917549133" lon="5.894067976623774"><ele></ele><time>2015-2-4T10:45:52Z</time></trkpt>
<trkpt lat="44.325628951191902" lon="5.89369498193264"><ele></ele><time>2015-2-4T10:45:55Z</time></trkpt>
<trkpt lat="44.324875921010971" lon="5.893324920907617"><ele></ele><time>2015-2-4T10:45:58Z</time></trkpt>
<trkpt lat="44.324128925800323" lon="5.893068937584758"><ele></ele><time>2015-2-4T10:46:1Z</time></trkpt>
<trkpt lat="44.323391988873482" lon="5.892847990617156"><ele></ele><time>2015-2-4T10:46:4Z</time></trkpt>
<trkpt lat="44.322441983968019" lon="5.892562922090292"><ele></ele><time>2015-2-4T10:46:7Z</time></trkpt>
<trkpt lat="44.321945942938328" lon="5.892413975670934"><ele></ele><time>2015-2-4T10:46:10Z</time></trkpt>
<trkpt lat="44.321428947150707" lon="5.892250947654247"><ele></ele><time>2015-2-4T10:46:13Z</time></trkpt>
<trkpt lat="44.320844979956746" lon="5.891979960724711"><ele></ele><time>2015-2-4T10:46:16Z</time></trkpt>
<trkpt lat="44.320441978052258" lon="5.89113799855113"><ele></ele><time>2015-2-4T10:46:19Z</time></trkpt>
<trkpt lat="44.320100918412209" lon="5.890512960031629"><ele></ele><time>2015-2-4T10:46:22Z</time></trkpt>
<trkpt lat="44.319590963423252" lon="5.889994958415628"><ele></ele><time>2015-2-4T10:46:25Z</time></trkpt>
<trkpt lat="44.31883399374783" lon="5.88986998423934"><ele></ele><time>2015-2-4T10:46:28Z</time></trkpt>
<trkpt lat="44.318136954680085" lon="5.890261922031641"><ele></ele><time>2015-2-4T10:46:31Z</time></trkpt>
<trkpt lat="44.317380990833044" lon="5.890763998031616"><ele></ele><time>2015-2-4T10:46:34Z</time></trkpt>
<trkpt lat="44.31657699868083" lon="5.890948986634612"><ele></ele><time>2015-2-4T10:46:37Z</time></trkpt>
<trkpt lat="44.315682984888554" lon="5.890933983027935"><ele></ele><time>2015-2-4T10:46:40Z</time></trkpt>
<trkpt lat="44.31485996581614" lon="5.890953931957483"><ele></ele><time>2015-2-4T10:46:43Z</time></trkpt>
<trkpt lat="44.313990930095315" lon="5.891090976074338"><ele></ele><time>2015-2-4T10:46:46Z</time></trkpt>
<trkpt lat="44.312941934913397" lon="5.891254926100373"><ele></ele><time>2015-2-4T10:46:49Z</time></trkpt>
<trkpt lat="44.311978938058019" lon="5.891401944682002"><ele></ele><time>2015-2-4T10:46:52Z</time></trkpt>
<trkpt lat="44.311242923140526" lon="5.89150495827198"><ele></ele><time>2015-2-4T10:46:55Z</time></trkpt>
<trkpt lat="44.310596929863095" lon="5.891596991568804"><ele></ele><time>2015-2-4T10:46:58Z</time></trkpt>
<trkpt lat="44.310078928247094" lon="5.891682989895344"><ele></ele><time>2015-2-4T10:47:1Z</time></trkpt>
<trkpt lat="44.309478951618075" lon="5.89184794574976"><ele></ele><time>2015-2-4T10:47:4Z</time></trkpt>
<trkpt lat="44.308931948617101" lon="5.892017930746079"><ele></ele><time>2015-2-4T10:47:7Z</time></trkpt>
<trkpt lat="44.30804992094636" lon="5.892284978181124"><ele></ele><time>2015-2-4T10:47:10Z</time></trkpt>
<trkpt lat="44.306784924119711" lon="5.89266593568027"><ele></ele><time>2015-2-4T10:47:13Z</time></trkpt>
<trkpt lat="44.3059859611094" lon="5.892905993387103"><ele></ele><time>2015-2-4T10:47:16Z</time></trkpt>
<trkpt lat="44.305146932601929" lon="5.893156947568059"><ele></ele><time>2015-2-4T10:47:19Z</time></trkpt>
<trkpt lat="44.304453916847706" lon="5.893364986404777"><ele></ele><time>2015-2-4T10:47:22Z</time></trkpt>
<trkpt lat="44.303690996021032" lon="5.893593979999423"><ele></ele><time>2015-2-4T10:47:25Z</time></trkpt>
<trkpt lat="44.302974930033088" lon="5.893807969987392"><ele></ele><time>2015-2-4T10:47:28Z</time></trkpt>
<trkpt lat="44.301778916269541" lon="5.894170990213752"><ele></ele><time>2015-2-4T10:47:31Z</time></trkpt>
<trkpt lat="44.300625985488296" lon="5.894518923014402"><ele></ele><time>2015-2-4T10:47:34Z</time></trkpt>
<trkpt lat="44.29986197501421" lon="5.894742971286178"><ele></ele><time>2015-2-4T10:47:37Z</time></trkpt>
<trkpt lat="44.299072986468673" lon="5.894980933517218"><ele></ele><time>2015-2-4T10:47:40Z</time></trkpt>
<trkpt lat="44.298430932685733" lon="5.8951769862324"><ele></ele><time>2015-2-4T10:47:43Z</time></trkpt>
<trkpt lat="44.297892982140183" lon="5.895220991224051"><ele></ele><time>2015-2-4T10:47:46Z</time></trkpt>
<trkpt lat="44.297368945553899" lon="5.895197940990329"><ele></ele><time>2015-2-4T10:47:49Z</time></trkpt>
<trkpt lat="44.296593954786658" lon="5.895170951262116"><ele></ele><time>2015-2-4T10:47:52Z</time></trkpt>
<trkpt lat="44.295859951525927" lon="5.895203975960612"><ele></ele><time>2015-2-4T10:47:55Z</time></trkpt>
<trkpt lat="44.295302974060178" lon="5.895454930141568"><ele></ele><time>2015-2-4T10:47:58Z</time></trkpt>
<trkpt lat="44.294723952189088" lon="5.895680990070105"><ele></ele><time>2015-2-4T10:48:1Z</time></trkpt>
<trkpt lat="44.294132944196463" lon="5.895743938162923"><ele></ele><time>2015-2-4T10:48:4Z</time></trkpt>
<trkpt lat="44.293683925643563" lon="5.895781992003322"><ele></ele><time>2015-2-4T10:48:7Z</time></trkpt>
<trkpt lat="44.293091995641589" lon="5.895927920937538"><ele></ele><time>2015-2-4T10:48:10Z</time></trkpt>
<trkpt lat="44.292541975155473" lon="5.896279960870743"><ele></ele><time>2015-2-4T10:48:13Z</time></trkpt>
<trkpt lat="44.292066972702742" lon="5.897050928324461"><ele></ele><time>2015-2-4T10:48:16Z</time></trkpt>
<trkpt lat="44.291746951639652" lon="5.897497935220599"><ele></ele><time>2015-2-4T10:48:19Z</time></trkpt>
<trkpt lat="44.290501987561584" lon="5.897510927170515"><ele></ele><time>2015-2-4T10:48:22Z</time></trkpt>
<trkpt lat="44.289771923795342" lon="5.897486954927445"><ele></ele><time>2015-2-4T10:48:25Z</time></trkpt>
<trkpt lat="44.289080919697881" lon="5.897582927718759"><ele></ele><time>2015-2-4T10:48:28Z</time></trkpt>
<trkpt lat="44.288309952244163" lon="5.897712931036949"><ele></ele><time>2015-2-4T10:48:31Z</time></trkpt>
<trkpt lat="44.287713998928666" lon="5.897807981818914"><ele></ele><time>2015-2-4T10:48:34Z</time></trkpt>
<trkpt lat="44.2872079834342" lon="5.897887945175171"><ele></ele><time>2015-2-4T10:48:37Z</time></trkpt>
<trkpt lat="44.287156937643886" lon="5.897054951637983"><ele></ele><time>2015-2-4T10:48:40Z</time></trkpt>
<trkpt lat="44.287126930430532" lon="5.895807975903153"><ele></ele><time>2015-2-4T10:48:43Z</time></trkpt>
<trkpt lat="44.287113938480616" lon="5.894993925467134"><ele></ele><time>2015-2-4T10:48:46Z</time></trkpt>
<trkpt lat="44.286625944077969" lon="5.894396966323257"><ele></ele><time>2015-2-4T10:48:49Z</time></trkpt>
<trkpt lat="44.286165945231915" lon="5.893961945548654"><ele></ele><time>2015-2-4T10:48:52Z</time></trkpt>
<trkpt lat="44.285393971949816" lon="5.893410919234157"><ele></ele><time>2015-2-4T10:48:55Z</time></trkpt>
<trkpt lat="44.284888962283731" lon="5.892918985337019"><ele></ele><time>2015-2-4T10:48:58Z</time></trkpt>
<trkpt lat="44.284424940124154" lon="5.892647998407483"><ele></ele><time>2015-2-4T10:49:1Z</time></trkpt>
<trkpt lat="44.283705940470099" lon="5.892151957377791"><ele></ele><time>2015-2-4T10:49:4Z</time></trkpt>
<trkpt lat="44.283086936920881" lon="5.891714924946427"><ele></ele><time>2015-2-4T10:49:7Z</time></trkpt>
<trkpt lat="44.282527947798371" lon="5.891121989116073"><ele></ele><time>2015-2-4T10:49:10Z</time></trkpt>
<trkpt lat="44.28224396891892" lon="5.890655955299735"><ele></ele><time>2015-2-4T10:49:13Z</time></trkpt>
<trkpt lat="44.28164592012763" lon="5.890748994424939"><ele></ele><time>2015-2-4T10:49:16Z</time></trkpt>
<trkpt lat="44.281501919031143" lon="5.89010895229876"><ele></ele><time>2015-2-4T10:49:19Z</time></trkpt>
<trkpt lat="44.280712930485606" lon="5.890264939516783"><ele></ele><time>2015-2-4T10:49:22Z</time></trkpt>
<trkpt lat="44.279691930860281" lon="5.890199979767203"><ele></ele><time>2015-2-4T10:49:25Z</time></trkpt>
<trkpt lat="44.279033951461315" lon="5.890145916491747"><ele></ele><time>2015-2-4T10:49:28Z</time></trkpt>
<trkpt lat="44.278788948431611" lon="5.889581982046366"><ele></ele><time>2015-2-4T10:49:31Z</time></trkpt>
<trkpt lat="44.278300954028964" lon="5.888900952413678"><ele></ele><time>2015-2-4T10:49:34Z</time></trkpt>
<trkpt lat="44.277890995144844" lon="5.888333916664124"><ele></ele><time>2015-2-4T10:49:37Z</time></trkpt>
<trkpt lat="44.277330916374922" lon="5.888138953596354"><ele></ele><time>2015-2-4T10:49:40Z</time></trkpt>
<trkpt lat="44.276926992461085" lon="5.887786997482181"><ele></ele><time>2015-2-4T10:49:43Z</time></trkpt>
<trkpt lat="44.276438998058438" lon="5.88755096308887"><ele></ele><time>2015-2-4T10:49:46Z</time></trkpt>
<trkpt lat="44.275844972580671" lon="5.886634988710284"><ele></ele><time>2015-2-4T10:49:49Z</time></trkpt>
<trkpt lat="44.275430990383029" lon="5.885964939370751"><ele></ele><time>2015-2-4T10:49:52Z</time></trkpt>
<trkpt lat="44.274854985997081" lon="5.885965945199132"><ele></ele><time>2015-2-4T10:49:55Z</time></trkpt>
<trkpt lat="44.273997936397791" lon="5.88574399240315"><ele></ele><time>2015-2-4T10:49:58Z</time></trkpt>
<trkpt lat="44.273435929790139" lon="5.88544299826026"><ele></ele><time>2015-2-4T10:50:1Z</time></trkpt>
<trkpt lat="44.27294491790235" lon="5.885256920009852"><ele></ele><time>2015-2-4T10:50:4Z</time></trkpt>
<trkpt lat="44.272488942369819" lon="5.88514493778348"><ele></ele><time>2015-2-4T10:50:7Z</time></trkpt>
<trkpt lat="44.27184697240591" lon="5.885066986083984"><ele></ele><time>2015-2-4T10:50:10Z</time></trkpt>
<trkpt lat="44.27132997661829" lon="5.884985933080316"><ele></ele><time>2015-2-4T10:50:13Z</time></trkpt>
<trkpt lat="44.270858997479081" lon="5.884762974455953"><ele></ele><time>2015-2-4T10:50:16Z</time></trkpt>
<trkpt lat="44.27017193287611" lon="5.884528951719403"><ele></ele><time>2015-2-4T10:50:19Z</time></trkpt>
<trkpt lat="44.269670946523547" lon="5.884465919807553"><ele></ele><time>2015-2-4T10:50:22Z</time></trkpt>
<trkpt lat="44.268928980454803" lon="5.884071970358491"><ele></ele><time>2015-2-4T10:50:25Z</time></trkpt>
<trkpt lat="44.268379965797067" lon="5.88366293348372"><ele></ele><time>2015-2-4T10:50:28Z</time></trkpt>
<trkpt lat="44.267729949206114" lon="5.883170999586582"><ele></ele><time>2015-2-4T10:50:31Z</time></trkpt>
<trkpt lat="44.26698999479413" lon="5.882774954661727"><ele></ele><time>2015-2-4T10:50:34Z</time></trkpt>
<trkpt lat="44.266572995111346" lon="5.88243892416358"><ele></ele><time>2015-2-4T10:50:37Z</time></trkpt>
<trkpt lat="44.266230929642916" lon="5.882006920874119"><ele></ele><time>2015-2-4T10:50:40Z</time></trkpt>
<trkpt lat="44.265843937173486" lon="5.881477938964963"><ele></ele><time>2015-2-4T10:50:43Z</time></trkpt>
<trkpt lat="44.26542392000556" lon="5.880922973155975"><ele></ele><time>2015-2-4T10:50:46Z</time></trkpt>
<trkpt lat="44.264867948368192" lon="5.880471942946315"><ele></ele><time>2015-2-4T10:50:49Z</time></trkpt>
<trkpt lat="44.264397975057364" lon="5.880320984870195"><ele></ele><time>2015-2-4T10:50:52Z</time></trkpt>
<trkpt lat="44.263932947069407" lon="5.880189975723624"><ele></ele><time>2015-2-4T10:50:55Z</time></trkpt>
<trkpt lat="44.263496920466423" lon="5.879611959680915"><ele></ele><time>2015-2-4T10:50:58Z</time></trkpt>
<trkpt lat="44.263481916859746" lon="5.878823976963759"><ele></ele><time>2015-2-4T10:51:1Z</time></trkpt>
<trkpt lat="44.263317966833711" lon="5.87814093567431"><ele></ele><time>2015-2-4T10:51:4Z</time></trkpt>
<trkpt lat="44.262810945510864" lon="5.87769191712141"><ele></ele><time>2015-2-4T10:51:7Z</time></trkpt>
<trkpt lat="44.262301996350288" lon="5.877310959622264"><ele></ele><time>2015-2-4T10:51:10Z</time></trkpt>
<trkpt lat="44.26176899112761" lon="5.877034943550825"><ele></ele><time>2015-2-4T10:51:13Z</time></trkpt>
<trkpt lat="44.261303963139653" lon="5.876802932471037"><ele></ele><time>2015-2-4T10:51:16Z</time></trkpt>
<trkpt lat="44.260795935988426" lon="5.876900916919112"><ele></ele><time>2015-2-4T10:51:19Z</time></trkpt>
<trkpt lat="44.260313976556063" lon="5.876920949667692"><ele></ele><time>2015-2-4T10:51:22Z</time></trkpt>
<trkpt lat="44.259536974132061" lon="5.877082971855998"><ele></ele><time>2015-2-4T10:51:25Z</time></trkpt>
<trkpt lat="44.258637931197882" lon="5.877510951831937"><ele></ele><time>2015-2-4T10:51:28Z</time></trkpt>
<trkpt lat="44.258259991183877" lon="5.87786098010838"><ele></ele><time>2015-2-4T10:51:31Z</time></trkpt>
<trkpt lat="44.257599916309118" lon="5.878791958093643"><ele></ele><time>2015-2-4T10:51:34Z</time></trkpt>
<trkpt lat="44.257219964638352" lon="5.879300991073251"><ele></ele><time>2015-2-4T10:51:37Z</time></trkpt>
<trkpt lat="44.256462994962931" lon="5.880162985995412"><ele></ele><time>2015-2-4T10:51:40Z</time></trkpt>
<trkpt lat="44.256072985008359" lon="5.880638994276524"><ele></ele><time>2015-2-4T10:51:43Z</time></trkpt>
<trkpt lat="44.255740977823734" lon="5.881077954545617"><ele></ele><time>2015-2-4T10:51:46Z</time></trkpt>
<trkpt lat="44.255515923723578" lon="5.881669968366623"><ele></ele><time>2015-2-4T10:51:49Z</time></trkpt>
<trkpt lat="44.254908990114927" lon="5.881831990554929"><ele></ele><time>2015-2-4T10:51:52Z</time></trkpt>
<trkpt lat="44.254321921616793" lon="5.881939949467778"><ele></ele><time>2015-2-4T10:51:55Z</time></trkpt>
<trkpt lat="44.253718927502632" lon="5.882260976359248"><ele></ele><time>2015-2-4T10:51:58Z</time></trkpt>
<trkpt lat="44.253354985266924" lon="5.882894983515143"><ele></ele><time>2015-2-4T10:52:1Z</time></trkpt>
<trkpt lat="44.252858944237232" lon="5.883391946554184"><ele></ele><time>2015-2-4T10:52:4Z</time></trkpt>
<trkpt lat="44.252285957336426" lon="5.883860997855663"><ele></ele><time>2015-2-4T10:52:7Z</time></trkpt>
<trkpt lat="44.251605933532119" lon="5.884271962568164"><ele></ele><time>2015-2-4T10:52:10Z</time></trkpt>
<trkpt lat="44.251064965501428" lon="5.884535992518067"><ele></ele><time>2015-2-4T10:52:13Z</time></trkpt>
<trkpt lat="44.250643942505121" lon="5.885067991912365"><ele></ele><time>2015-2-4T10:52:16Z</time></trkpt>
<trkpt lat="44.250311935320497" lon="5.88553293608129"><ele></ele><time>2015-2-4T10:52:19Z</time></trkpt>
<trkpt lat="44.249923937022686" lon="5.886072982102633"><ele></ele><time>2015-2-4T10:52:22Z</time></trkpt>
<trkpt lat="44.249434936791658" lon="5.886623924598098"><ele></ele><time>2015-2-4T10:52:25Z</time></trkpt>
<trkpt lat="44.248818950727582" lon="5.887107979506254"><ele></ele><time>2015-2-4T10:52:28Z</time></trkpt>
<trkpt lat="44.248114954680204" lon="5.887494971975684"><ele></ele><time>2015-2-4T10:52:31Z</time></trkpt>
<trkpt lat="44.246992953121662" lon="5.888226963579655"><ele></ele><time>2015-2-4T10:52:34Z</time></trkpt>
<trkpt lat="44.24589492380619" lon="5.888976976275444"><ele></ele><time>2015-2-4T10:52:37Z</time></trkpt>
<trkpt lat="44.245252953842282" lon="5.889796977862716"><ele></ele><time>2015-2-4T10:52:40Z</time></trkpt>
<trkpt lat="44.244865961372852" lon="5.890668947249651"><ele></ele><time>2015-2-4T10:52:43Z</time></trkpt>
<trkpt lat="44.244418954476714" lon="5.891276970505714"><ele></ele><time>2015-2-4T10:52:46Z</time></trkpt>
<trkpt lat="44.243658967316151" lon="5.89210594072938"><ele></ele><time>2015-2-4T10:52:49Z</time></trkpt>
<trkpt lat="44.242795966565609" lon="5.89304999448359"><ele></ele><time>2015-2-4T10:52:52Z</time></trkpt>
<trkpt lat="44.241902958601713" lon="5.894028916954994"><ele></ele><time>2015-2-4T10:52:55Z</time></trkpt>
<trkpt lat="44.241385962814093" lon="5.894604921340942"><ele></ele><time>2015-2-4T10:52:58Z</time></trkpt>
<trkpt lat="44.240229930728674" lon="5.895877964794636"><ele></ele><time>2015-2-4T10:53:1Z</time></trkpt>
<trkpt lat="44.239219995215535" lon="5.896999966353178"><ele></ele><time>2015-2-4T10:53:4Z</time></trkpt>
<trkpt lat="44.238482974469662" lon="5.897821979597211"><ele></ele><time>2015-2-4T10:53:7Z</time></trkpt>
<trkpt lat="44.237510925158858" lon="5.898883966729045"><ele></ele><time>2015-2-4T10:53:10Z</time></trkpt>
<trkpt lat="44.236640967428684" lon="5.899848975241184"><ele></ele><time>2015-2-4T10:53:13Z</time></trkpt>
<trkpt lat="44.23585893586278" lon="5.900715999305248"><ele></ele><time>2015-2-4T10:53:16Z</time></trkpt>
<trkpt lat="44.235367923974991" lon="5.901266941800714"><ele></ele><time>2015-2-4T10:53:19Z</time></trkpt>
<trkpt lat="44.234623946249485" lon="5.902104964479804"><ele></ele><time>2015-2-4T10:53:22Z</time></trkpt>
<trkpt lat="44.233826994895935" lon="5.903012976050377"><ele></ele><time>2015-2-4T10:53:25Z</time></trkpt>
<trkpt lat="44.233290972188115" lon="5.903616975992918"><ele></ele><time>2015-2-4T10:53:28Z</time></trkpt>
<trkpt lat="44.232365945354104" lon="5.904649961739779"><ele></ele><time>2015-2-4T10:53:31Z</time></trkpt>
<trkpt lat="44.231747947633266" lon="5.905346916988492"><ele></ele><time>2015-2-4T10:53:34Z</time></trkpt>
<trkpt lat="44.231190970167518" lon="5.905969943851233"><ele></ele><time>2015-2-4T10:53:37Z</time></trkpt>
<trkpt lat="44.230384966358542" lon="5.906872926279903"><ele></ele><time>2015-2-4T10:53:40Z</time></trkpt>
<trkpt lat="44.229561947286129" lon="5.907804993912578"><ele></ele><time>2015-2-4T10:53:43Z</time></trkpt>
<trkpt lat="44.229097925126553" lon="5.908332969993353"><ele></ele><time>2015-2-4T10:53:46Z</time></trkpt>
<trkpt lat="44.228565925732255" lon="5.90890696272254"><ele></ele><time>2015-2-4T10:53:49Z</time></trkpt>
<trkpt lat="44.227832928299904" lon="5.909702992066741"><ele></ele><time>2015-2-4T10:53:52Z</time></trkpt>
<trkpt lat="44.22730696387589" lon="5.91028394177556"><ele></ele><time>2015-2-4T10:53:55Z</time></trkpt>
<trkpt lat="44.226746968924999" lon="5.910909986123443"><ele></ele><time>2015-2-4T10:53:58Z</time></trkpt>
<trkpt lat="44.226157972589135" lon="5.911562936380506"><ele></ele><time>2015-2-4T10:54:1Z</time></trkpt>
<trkpt lat="44.225741978734732" lon="5.912029976025224"><ele></ele><time>2015-2-4T10:54:4Z</time></trkpt>
<trkpt lat="44.225329924374819" lon="5.912514952942729"><ele></ele><time>2015-2-4T10:54:7Z</time></trkpt>
<trkpt lat="44.224977968260646" lon="5.913145942613483"><ele></ele><time>2015-2-4T10:54:10Z</time></trkpt>
<trkpt lat="44.224375979974866" lon="5.913744997233152"><ele></ele><time>2015-2-4T10:54:13Z</time></trkpt>
<trkpt lat="44.22395596280694" lon="5.914072981104255"><ele></ele><time>2015-2-4T10:54:16Z</time></trkpt>
<trkpt lat="44.223403930664063" lon="5.914687961339951"><ele></ele><time>2015-2-4T10:54:19Z</time></trkpt>
<trkpt lat="44.222615947946906" lon="5.915564959868789"><ele></ele><time>2015-2-4T10:54:22Z</time></trkpt>
<trkpt lat="44.221813967451453" lon="5.91644698753953"><ele></ele><time>2015-2-4T10:54:25Z</time></trkpt>
<trkpt lat="44.221048951148987" lon="5.917280986905098"><ele></ele><time>2015-2-4T10:54:28Z</time></trkpt>
<trkpt lat="44.220360964536667" lon="5.918010966852307"><ele></ele><time>2015-2-4T10:54:31Z</time></trkpt>
<trkpt lat="44.219779931008816" lon="5.918486975133419"><ele></ele><time>2015-2-4T10:54:34Z</time></trkpt>
<trkpt lat="44.219242986291647" lon="5.918969940394163"><ele></ele><time>2015-2-4T10:54:37Z</time></trkpt>
<trkpt lat="44.218659941107035" lon="5.9196069650352"><ele></ele><time>2015-2-4T10:54:40Z</time></trkpt>
<trkpt lat="44.218012942001224" lon="5.920352954417467"><ele></ele><time>2015-2-4T10:54:43Z</time></trkpt>
<trkpt lat="44.217541962862015" lon="5.920993918552995"><ele></ele><time>2015-2-4T10:54:46Z</time></trkpt>
<trkpt lat="44.217125969007611" lon="5.921563971787691"><ele></ele><time>2015-2-4T10:54:49Z</time></trkpt>
<trkpt lat="44.216537978500128" lon="5.922252964228392"><ele></ele><time>2015-2-4T10:54:52Z</time></trkpt>
<trkpt lat="44.216095916926861" lon="5.922756968066096"><ele></ele><time>2015-2-4T10:54:55Z</time></trkpt>
<trkpt lat="44.21559794805944" lon="5.92332299798727"><ele></ele><time>2015-2-4T10:54:58Z</time></trkpt>
<trkpt lat="44.215408936142921" lon="5.923814931884408"><ele></ele><time>2015-2-4T10:55:1Z</time></trkpt>
<trkpt lat="44.213218996301293" lon="5.925825918093324"><ele></ele><time>2015-2-4T10:55:4Z</time></trkpt>
<trkpt lat="44.212101940065622" lon="5.926995947957039"><ele></ele><time>2015-2-4T10:55:7Z</time></trkpt>
<trkpt lat="44.211382940411568" lon="5.927753923460841"><ele></ele><time>2015-2-4T10:55:10Z</time></trkpt>
<trkpt lat="44.210657989606261" lon="5.928518939763308"><ele></ele><time>2015-2-4T10:55:13Z</time></trkpt>
<trkpt lat="44.209985928609967" lon="5.929232994094491"><ele></ele><time>2015-2-4T10:55:16Z</time></trkpt>
<trkpt lat="44.209360973909497" lon="5.929903965443373"><ele></ele><time>2015-2-4T10:55:19Z</time></trkpt>
<trkpt lat="44.208558993414044" lon="5.930750956758857"><ele></ele><time>2015-2-4T10:55:22Z</time></trkpt>
<trkpt lat="44.207946946844459" lon="5.93138194642961"><ele></ele><time>2015-2-4T10:55:25Z</time></trkpt>
<trkpt lat="44.207158964127302" lon="5.932219969108701"><ele></ele><time>2015-2-4T10:55:28Z</time></trkpt>
<trkpt lat="44.206674993038177" lon="5.932719949632883"><ele></ele><time>2015-2-4T10:55:31Z</time></trkpt>
<trkpt lat="44.205986922606826" lon="5.933477925136685"><ele></ele><time>2015-2-4T10:55:34Z</time></trkpt>
<trkpt lat="44.205423993989825" lon="5.934080919250846"><ele></ele><time>2015-2-4T10:55:37Z</time></trkpt>
<trkpt lat="44.204838937148452" lon="5.934694977477193"><ele></ele><time>2015-2-4T10:55:40Z</time></trkpt>
<trkpt lat="44.204148938879371" lon="5.935423951596022"><ele></ele><time>2015-2-4T10:55:43Z</time></trkpt>
<trkpt lat="44.203328937292099" lon="5.936296926811338"><ele></ele><time>2015-2-4T10:55:46Z</time></trkpt>
<trkpt lat="44.202842954546213" lon="5.936805959790945"><ele></ele><time>2015-2-4T10:55:49Z</time></trkpt>
<trkpt lat="44.202319923788309" lon="5.937664937227964"><ele></ele><time>2015-2-4T10:55:52Z</time></trkpt>
<trkpt lat="44.202025970444083" lon="5.938592981547117"><ele></ele><time>2015-2-4T10:55:55Z</time></trkpt>
<trkpt lat="44.201776944100857" lon="5.939334947615862"><ele></ele><time>2015-2-4T10:55:58Z</time></trkpt>
<trkpt lat="44.201000947505236" lon="5.939831994473934"><ele></ele><time>2015-2-4T10:56:1Z</time></trkpt>
<trkpt lat="44.20077396556735" lon="5.940777976065874"><ele></ele><time>2015-2-4T10:56:4Z</time></trkpt>
<trkpt lat="44.200791986659169" lon="5.941809955984354"><ele></ele><time>2015-2-4T10:56:7Z</time></trkpt>
<trkpt lat="44.200684949755669" lon="5.94242594204843"><ele></ele><time>2015-2-4T10:56:10Z</time></trkpt>
<trkpt lat="44.200462996959686" lon="5.943120969459415"><ele></ele><time>2015-2-4T10:56:13Z</time></trkpt>
<trkpt lat="44.200251940637827" lon="5.943753970786929"><ele></ele><time>2015-2-4T10:56:16Z</time></trkpt>
<trkpt lat="44.199867965653539" lon="5.944315977394581"><ele></ele><time>2015-2-4T10:56:19Z</time></trkpt>
<trkpt lat="44.199384916573763" lon="5.944902962073684"><ele></ele><time>2015-2-4T10:56:22Z</time></trkpt>
<trkpt lat="44.198872949928045" lon="5.944983931258321"><ele></ele><time>2015-2-4T10:56:25Z</time></trkpt>
<trkpt lat="44.19841093942523" lon="5.945040928199887"><ele></ele><time>2015-2-4T10:56:28Z</time></trkpt>
<trkpt lat="44.197860918939114" lon="5.944920983165503"><ele></ele><time>2015-2-4T10:56:31Z</time></trkpt>
<trkpt lat="44.19735498726368" lon="5.944805983453989"><ele></ele><time>2015-2-4T10:56:34Z</time></trkpt>
<trkpt lat="44.196917954832315" lon="5.94470095820725"><ele></ele><time>2015-2-4T10:56:37Z</time></trkpt>
<trkpt lat="44.196836985647678" lon="5.944030992686749"><ele></ele><time>2015-2-4T10:56:40Z</time></trkpt>
<trkpt lat="44.196566920727491" lon="5.943291960284114"><ele></ele><time>2015-2-4T10:56:43Z</time></trkpt>
<trkpt lat="44.196207923814654" lon="5.942676980048418"><ele></ele><time>2015-2-4T10:56:46Z</time></trkpt>
<trkpt lat="44.195631919428706" lon="5.942736994475126"><ele></ele><time>2015-2-4T10:56:49Z</time></trkpt>
<trkpt lat="44.195383982732892" lon="5.942397946491838"><ele></ele><time>2015-2-4T10:56:52Z</time></trkpt>
<trkpt lat="44.19523193500936" lon="5.941717922687531"><ele></ele><time>2015-2-4T10:56:55Z</time></trkpt>
<trkpt lat="44.194710999727249" lon="5.941604934632778"><ele></ele><time>2015-2-4T10:56:58Z</time></trkpt>
<trkpt lat="44.194256952032447" lon="5.941806938499212"><ele></ele><time>2015-2-4T10:57:1Z</time></trkpt>
<trkpt lat="44.193721935153008" lon="5.942015983164311"><ele></ele><time>2015-2-4T10:57:4Z</time></trkpt>
<trkpt lat="44.193200999870896" lon="5.942284958437085"><ele></ele><time>2015-2-4T10:57:7Z</time></trkpt>
<trkpt lat="44.192617954686284" lon="5.942552927881479"><ele></ele><time>2015-2-4T10:57:10Z</time></trkpt>
<trkpt lat="44.192120991647243" lon="5.942826932296157"><ele></ele><time>2015-2-4T10:57:13Z</time></trkpt>
<trkpt lat="44.191590920090675" lon="5.943492958322167"><ele></ele><time>2015-2-4T10:57:16Z</time></trkpt>
<trkpt lat="44.190961942076683" lon="5.943444930016995"><ele></ele><time>2015-2-4T10:57:19Z</time></trkpt>
<trkpt lat="44.190402952954173" lon="5.943498993292451"><ele></ele><time>2015-2-4T10:57:22Z</time></trkpt>
<trkpt lat="44.190002968534827" lon="5.943111917003989"><ele></ele><time>2015-2-4T10:57:25Z</time></trkpt>
<trkpt lat="44.189601978287101" lon="5.942562986165285"><ele></ele><time>2015-2-4T10:57:28Z</time></trkpt>
<trkpt lat="44.189308946952224" lon="5.941998967900872"><ele></ele><time>2015-2-4T10:57:31Z</time></trkpt>
<trkpt lat="44.188788933679461" lon="5.941848931834102"><ele></ele><time>2015-2-4T10:57:34Z</time></trkpt>
<trkpt lat="44.188182922080159" lon="5.941622955724597"><ele></ele><time>2015-2-4T10:57:37Z</time></trkpt>
<trkpt lat="44.187643965706229" lon="5.941178966313601"><ele></ele><time>2015-2-4T10:57:40Z</time></trkpt>
<trkpt lat="44.18693695217371" lon="5.940466923639178"><ele></ele><time>2015-2-4T10:57:43Z</time></trkpt>
<trkpt lat="44.186524981632829" lon="5.93997691757977"><ele></ele><time>2015-2-4T10:57:46Z</time></trkpt>
<trkpt lat="44.185896925628185" lon="5.939339976757765"><ele></ele><time>2015-2-4T10:57:49Z</time></trkpt>
<trkpt lat="44.18519695289433" lon="5.938351918011904"><ele></ele><time>2015-2-4T10:57:52Z</time></trkpt>
<trkpt lat="44.184910962358117" lon="5.937867946922779"><ele></ele><time>2015-2-4T10:57:55Z</time></trkpt>
<trkpt lat="44.184589935466647" lon="5.937347933650017"><ele></ele><time>2015-2-4T10:57:58Z</time></trkpt>
<trkpt lat="44.184243930503726" lon="5.936758937314153"><ele></ele><time>2015-2-4T10:58:1Z</time></trkpt>
<trkpt lat="44.183692988008261" lon="5.935887973755598"><ele></ele><time>2015-2-4T10:58:4Z</time></trkpt>
<trkpt lat="44.183374978601933" lon="5.935349939391017"><ele></ele><time>2015-2-4T10:58:7Z</time></trkpt>
<trkpt lat="44.183119917288423" lon="5.934771923348308"><ele></ele><time>2015-2-4T10:58:10Z</time></trkpt>
<trkpt lat="44.182900981977582" lon="5.934181921184063"><ele></ele><time>2015-2-4T10:58:13Z</time></trkpt>
<trkpt lat="44.182617925107479" lon="5.933203920722008"><ele></ele><time>2015-2-4T10:58:16Z</time></trkpt>
<trkpt lat="44.182426985353231" lon="5.932619953528047"><ele></ele><time>2015-2-4T10:58:19Z</time></trkpt>
<trkpt lat="44.181793984025717" lon="5.932118967175484"><ele></ele><time>2015-2-4T10:58:22Z</time></trkpt>
<trkpt lat="44.181320993229747" lon="5.932039925828576"><ele></ele><time>2015-2-4T10:58:25Z</time></trkpt>
<trkpt lat="44.180797962471843" lon="5.931913945823908"><ele></ele><time>2015-2-4T10:58:28Z</time></trkpt>
<trkpt lat="44.180252971127629" lon="5.93183096498251"><ele></ele><time>2015-2-4T10:58:31Z</time></trkpt>
<trkpt lat="44.179520979523659" lon="5.93159593641758"><ele></ele><time>2015-2-4T10:58:34Z</time></trkpt>
<trkpt lat="44.178987974300981" lon="5.931148929521442"><ele></ele><time>2015-2-4T10:58:37Z</time></trkpt>
<trkpt lat="44.178671976551414" lon="5.930293975397945"><ele></ele><time>2015-2-4T10:58:40Z</time></trkpt>
<trkpt lat="44.178592935204506" lon="5.929587967693806"><ele></ele><time>2015-2-4T10:58:43Z</time></trkpt>
<trkpt lat="44.178478941321373" lon="5.928408969193697"><ele></ele><time>2015-2-4T10:58:46Z</time></trkpt>
<trkpt lat="44.178584972396493" lon="5.927614951506257"><ele></ele><time>2015-2-4T10:58:49Z</time></trkpt>
<trkpt lat="44.178511966019869" lon="5.926623959094286"><ele></ele><time>2015-2-4T10:58:52Z</time></trkpt>
<trkpt lat="44.178406940773129" lon="5.925951981917024"><ele></ele><time>2015-2-4T10:58:55Z</time></trkpt>
<trkpt lat="44.178171996027231" lon="5.925417970865965"><ele></ele><time>2015-2-4T10:58:58Z</time></trkpt>
<trkpt lat="44.177648965269327" lon="5.925141954794526"><ele></ele><time>2015-2-4T10:59:1Z</time></trkpt>
<trkpt lat="44.176784958690405" lon="5.925573958083987"><ele></ele><time>2015-2-4T10:59:4Z</time></trkpt>
<trkpt lat="44.175986917689443" lon="5.92547295615077"><ele></ele><time>2015-2-4T10:59:7Z</time></trkpt>
<trkpt lat="44.175186948850751" lon="5.92525695450604"><ele></ele><time>2015-2-4T10:59:10Z</time></trkpt>
<trkpt lat="44.17464992031455" lon="5.925048999488354"><ele></ele><time>2015-2-4T10:59:13Z</time></trkpt>
<trkpt lat="44.17408699169755" lon="5.924432929605246"><ele></ele><time>2015-2-4T10:59:16Z</time></trkpt>
<trkpt lat="44.173818938434124" lon="5.92390495352447"><ele></ele><time>2015-2-4T10:59:19Z</time></trkpt>
<trkpt lat="44.173468993976712" lon="5.923099955543876"><ele></ele><time>2015-2-4T10:59:22Z</time></trkpt>
<trkpt lat="44.173219967633486" lon="5.922457985579968"><ele></ele><time>2015-2-4T10:59:25Z</time></trkpt>
<trkpt lat="44.172820989042521" lon="5.92128099873662"><ele></ele><time>2015-2-4T10:59:28Z</time></trkpt>
<trkpt lat="44.17256492190063" lon="5.920628970488906"><ele></ele><time>2015-2-4T10:59:31Z</time></trkpt>
<trkpt lat="44.172228975221515" lon="5.919792959466577"><ele></ele><time>2015-2-4T10:59:34Z</time></trkpt>
<trkpt lat="44.17204599827528" lon="5.918931970372796"><ele></ele><time>2015-2-4T10:59:37Z</time></trkpt>
<trkpt lat="44.171786997467279" lon="5.918255969882011"><ele></ele><time>2015-2-4T10:59:40Z</time></trkpt>
<trkpt lat="44.171931920573115" lon="5.917009999975562"><ele></ele><time>2015-2-4T10:59:43Z</time></trkpt>
<trkpt lat="44.172081956639886" lon="5.916257975623012"><ele></ele><time>2015-2-4T10:59:46Z</time></trkpt>
<trkpt lat="44.172251941636205" lon="5.915392963215709"><ele></ele><time>2015-2-4T10:59:49Z</time></trkpt>
<trkpt lat="44.172375993803144" lon="5.914674969390035"><ele></ele><time>2015-2-4T10:59:52Z</time></trkpt>
<trkpt lat="44.172503985464573" lon="5.913923950865865"><ele></ele><time>2015-2-4T10:59:55Z</time></trkpt>
<trkpt lat="44.172675982117653" lon="5.913252979516983"><ele></ele><time>2015-2-4T10:59:58Z</time></trkpt>
<trkpt lat="44.172899946570396" lon="5.912670940160751"><ele></ele><time>2015-2-4T11:0:1Z</time></trkpt>
<trkpt lat="44.173235977068543" lon="5.911984965205193"><ele></ele><time>2015-2-4T11:0:4Z</time></trkpt>
<trkpt lat="44.173498917371035" lon="5.911170998588204"><ele></ele><time>2015-2-4T11:0:7Z</time></trkpt>
<trkpt lat="44.173598997294903" lon="5.909999962896109"><ele></ele><time>2015-2-4T11:0:10Z</time></trkpt>
<trkpt lat="44.173706956207752" lon="5.909048952162266"><ele></ele><time>2015-2-4T11:0:13Z</time></trkpt>
<trkpt lat="44.173814998939633" lon="5.908073969185352"><ele></ele><time>2015-2-4T11:0:16Z</time></trkpt>
<trkpt lat="44.173845928162336" lon="5.906863957643509"><ele></ele><time>2015-2-4T11:0:19Z</time></trkpt>
<trkpt lat="44.173855986446142" lon="5.906208995729685"><ele></ele><time>2015-2-4T11:0:22Z</time></trkpt>
<trkpt lat="44.173860931769013" lon="5.905111972242594"><ele></ele><time>2015-2-4T11:0:25Z</time></trkpt>
<trkpt lat="44.173873923718929" lon="5.903887962922454"><ele></ele><time>2015-2-4T11:0:28Z</time></trkpt>
<trkpt lat="44.173994958400726" lon="5.902893953025341"><ele></ele><time>2015-2-4T11:0:31Z</time></trkpt>
<trkpt lat="44.174025971442461" lon="5.902024917304516"><ele></ele><time>2015-2-4T11:0:34Z</time></trkpt>
<trkpt lat="44.173995964229107" lon="5.90097994543612"><ele></ele><time>2015-2-4T11:0:37Z</time></trkpt>
<trkpt lat="44.173743920400739" lon="5.899907983839512"><ele></ele><time>2015-2-4T11:0:40Z</time></trkpt>
<trkpt lat="44.173438986763358" lon="5.898875920102"><ele></ele><time>2015-2-4T11:0:43Z</time></trkpt>
<trkpt lat="44.173200940713286" lon="5.897530959919095"><ele></ele><time>2015-2-4T11:0:46Z</time></trkpt>
<trkpt lat="44.17305794544518" lon="5.896694948896766"><ele></ele><time>2015-2-4T11:0:49Z</time></trkpt>
<trkpt lat="44.172893995419145" lon="5.895367925986648"><ele></ele><time>2015-2-4T11:0:52Z</time></trkpt>
<trkpt lat="44.172738930210471" lon="5.894143916666508"><ele></ele><time>2015-2-4T11:0:55Z</time></trkpt>
<trkpt lat="44.172612950205803" lon="5.893013952299953"><ele></ele><time>2015-2-4T11:0:58Z</time></trkpt>
<trkpt lat="44.172491999343038" lon="5.892337951809168"><ele></ele><time>2015-2-4T11:1:1Z</time></trkpt>
<trkpt lat="44.172198968008161" lon="5.891563966870308"><ele></ele><time>2015-2-4T11:1:4Z</time></trkpt>
<trkpt lat="44.171898979693651" lon="5.890728961676359"><ele></ele><time>2015-2-4T11:1:7Z</time></trkpt>
<trkpt lat="44.171662945300341" lon="5.889596985653043"><ele></ele><time>2015-2-4T11:1:10Z</time></trkpt>
<trkpt lat="44.171330938115716" lon="5.888627953827381"><ele></ele><time>2015-2-4T11:1:13Z</time></trkpt>
<trkpt lat="44.171075960621238" lon="5.887938961386681"><ele></ele><time>2015-2-4T11:1:16Z</time></trkpt>
<trkpt lat="44.170716963708401" lon="5.886881919577718"><ele></ele><time>2015-2-4T11:1:19Z</time></trkpt>
<trkpt lat="44.170546978712082" lon="5.886275991797447"><ele></ele><time>2015-2-4T11:1:22Z</time></trkpt>
<trkpt lat="44.170183958485723" lon="5.885240994393826"><ele></ele><time>2015-2-4T11:1:25Z</time></trkpt>
<trkpt lat="44.169743992388248" lon="5.884196944534779"><ele></ele><time>2015-2-4T11:1:28Z</time></trkpt>
<trkpt lat="44.169561937451363" lon="5.88290898129344"><ele></ele><time>2015-2-4T11:1:31Z</time></trkpt>
<trkpt lat="44.169306959956884" lon="5.881872978061438"><ele></ele><time>2015-2-4T11:1:34Z</time></trkpt>
<trkpt lat="44.169079978018999" lon="5.881241988390684"><ele></ele><time>2015-2-4T11:1:37Z</time></trkpt>
<trkpt lat="44.168967995792627" lon="5.880595995113254"><ele></ele><time>2015-2-4T11:1:40Z</time></trkpt>
<trkpt lat="44.168778983876109" lon="5.879418924450874"><ele></ele><time>2015-2-4T11:1:43Z</time></trkpt>
<trkpt lat="44.168671946972609" lon="5.87878592312336"><ele></ele><time>2015-2-4T11:1:46Z</time></trkpt>
<trkpt lat="44.168541943654418" lon="5.878007998690009"><ele></ele><time>2015-2-4T11:1:49Z</time></trkpt>
<trkpt lat="44.168380927294493" lon="5.87704592384398"><ele></ele><time>2015-2-4T11:1:52Z</time></trkpt>
<trkpt lat="44.168262993916869" lon="5.876326924189925"><ele></ele><time>2015-2-4T11:1:55Z</time></trkpt>
<trkpt lat="44.16815796867013" lon="5.875631980597973"><ele></ele><time>2015-2-4T11:1:58Z</time></trkpt>
<trkpt lat="44.167925957590342" lon="5.874554989859462"><ele></ele><time>2015-2-4T11:2:1Z</time></trkpt>
<trkpt lat="44.167808946222067" lon="5.87354295887053"><ele></ele><time>2015-2-4T11:2:4Z</time></trkpt>
<trkpt lat="44.167626975104213" lon="5.87212692014873"><ele></ele><time>2015-2-4T11:2:7Z</time></trkpt>
<trkpt lat="44.167521949857473" lon="5.87128596380353"><ele></ele><time>2015-2-4T11:2:10Z</time></trkpt>
<trkpt lat="44.167345929890871" lon="5.870373928919435"><ele></ele><time>2015-2-4T11:2:13Z</time></trkpt>
<trkpt lat="44.167293962091208" lon="5.869552921503782"><ele></ele><time>2015-2-4T11:2:16Z</time></trkpt>
<trkpt lat="44.167266972362995" lon="5.868727974593639"><ele></ele><time>2015-2-4T11:2:19Z</time></trkpt>
<trkpt lat="44.167167982086539" lon="5.867614941671491"><ele></ele><time>2015-2-4T11:2:22Z</time></trkpt>
<trkpt lat="44.167146943509579" lon="5.86647491902113"><ele></ele><time>2015-2-4T11:2:25Z</time></trkpt>
<trkpt lat="44.167133951559663" lon="5.865636980161071"><ele></ele><time>2015-2-4T11:2:28Z</time></trkpt>
<trkpt lat="44.167120959609747" lon="5.864868946373463"><ele></ele><time>2015-2-4T11:2:31Z</time></trkpt>
<trkpt lat="44.167155995965004" lon="5.863674944266677"><ele></ele><time>2015-2-4T11:2:34Z</time></trkpt>
<trkpt lat="44.167092964053154" lon="5.862935995683074"><ele></ele><time>2015-2-4T11:2:37Z</time></trkpt>
<trkpt lat="44.167021969333291" lon="5.862257983535528"><ele></ele><time>2015-2-4T11:2:40Z</time></trkpt>
<trkpt lat="44.16695399209857" lon="5.861503947526217"><ele></ele><time>2015-2-4T11:2:43Z</time></trkpt>
<trkpt lat="44.166871933266521" lon="5.860383957624435"><ele></ele><time>2015-2-4T11:2:46Z</time></trkpt>
<trkpt lat="44.166864976286888" lon="5.858984934166074"><ele></ele><time>2015-2-4T11:2:49Z</time></trkpt>
<trkpt lat="44.166883919388056" lon="5.858331983909011"><ele></ele><time>2015-2-4T11:2:52Z</time></trkpt>
<trkpt lat="44.166905963793397" lon="5.857495972886682"><ele></ele><time>2015-2-4T11:2:55Z</time></trkpt>
<trkpt lat="44.166966984048486" lon="5.856793988496065"><ele></ele><time>2015-2-4T11:2:58Z</time></trkpt>
<trkpt lat="44.16710595600307" lon="5.856129974126816"><ele></ele><time>2015-2-4T11:3:1Z</time></trkpt>
<trkpt lat="44.167109979316592" lon="5.855233948677778"><ele></ele><time>2015-2-4T11:3:4Z</time></trkpt>
<trkpt lat="44.167244927957654" lon="5.85407498292625"><ele></ele><time>2015-2-4T11:3:7Z</time></trkpt>
<trkpt lat="44.1673219576478" lon="5.853413986042142"><ele></ele><time>2015-2-4T11:3:10Z</time></trkpt>
<trkpt lat="44.167587999254465" lon="5.85253095254302"><ele></ele><time>2015-2-4T11:3:13Z</time></trkpt>
<trkpt lat="44.167891927063465" lon="5.851794937625527"><ele></ele><time>2015-2-4T11:3:16Z</time></trkpt>
<trkpt lat="44.168086973950267" lon="5.850750971585512"><ele></ele><time>2015-2-4T11:3:19Z</time></trkpt>
<trkpt lat="44.168109940364957" lon="5.850048987194896"><ele></ele><time>2015-2-4T11:3:22Z</time></trkpt>
<trkpt lat="44.167993934825063" lon="5.848697992041707"><ele></ele><time>2015-2-4T11:3:25Z</time></trkpt>
<trkpt lat="44.168221922591329" lon="5.847512958571315"><ele></ele><time>2015-2-4T11:3:28Z</time></trkpt>
<trkpt lat="44.168507996946573" lon="5.846662949770689"><ele></ele><time>2015-2-4T11:3:31Z</time></trkpt>
<trkpt lat="44.16865199804306" lon="5.846003964543343"><ele></ele><time>2015-2-4T11:3:34Z</time></trkpt>
<trkpt lat="44.168801950290799" lon="5.845189997926354"><ele></ele><time>2015-2-4T11:3:37Z</time></trkpt>
<trkpt lat="44.168937988579273" lon="5.844307970255613"><ele></ele><time>2015-2-4T11:3:40Z</time></trkpt>
<trkpt lat="44.169026920571923" lon="5.843236930668354"><ele></ele><time>2015-2-4T11:3:43Z</time></trkpt>
<trkpt lat="44.169106967747211" lon="5.842419946566224"><ele></ele><time>2015-2-4T11:3:46Z</time></trkpt>
<trkpt lat="44.169176956638694" lon="5.841500954702497"><ele></ele><time>2015-2-4T11:3:49Z</time></trkpt>
<trkpt lat="44.169220961630344" lon="5.840830989181995"><ele></ele><time>2015-2-4T11:3:52Z</time></trkpt>
<trkpt lat="44.169227918609977" lon="5.840146942064166"><ele></ele><time>2015-2-4T11:3:55Z</time></trkpt>
<trkpt lat="44.169228924438357" lon="5.839242953807116"><ele></ele><time>2015-2-4T11:3:58Z</time></trkpt>
<trkpt lat="44.169226996600628" lon="5.83789799362421"><ele></ele><time>2015-2-4T11:4:1Z</time></trkpt>
<trkpt lat="44.169200928881764" lon="5.837194919586182"><ele></ele><time>2015-2-4T11:4:4Z</time></trkpt>
<trkpt lat="44.169141920283437" lon="5.836262935772538"><ele></ele><time>2015-2-4T11:4:7Z</time></trkpt>
<trkpt lat="44.169062962755561" lon="5.834896937012672"><ele></ele><time>2015-2-4T11:4:10Z</time></trkpt>
<trkpt lat="44.169028932228684" lon="5.83422395400703"><ele></ele><time>2015-2-4T11:4:13Z</time></trkpt>
<trkpt lat="44.168962966650724" lon="5.832929955795407"><ele></ele><time>2015-2-4T11:4:16Z</time></trkpt>
<trkpt lat="44.168867999687791" lon="5.831927983090282"><ele></ele><time>2015-2-4T11:4:19Z</time></trkpt>
<trkpt lat="44.168514953926206" lon="5.830951994284987"><ele></ele><time>2015-2-4T11:4:22Z</time></trkpt>
<trkpt lat="44.168462986126542" lon="5.830254955217242"><ele></ele><time>2015-2-4T11:4:25Z</time></trkpt>
<trkpt lat="44.168500956147909" lon="5.829267986118794"><ele></ele><time>2015-2-4T11:4:28Z</time></trkpt>
<trkpt lat="44.168430967256427" lon="5.828409930691123"><ele></ele><time>2015-2-4T11:4:31Z</time></trkpt>
<trkpt lat="44.168621990829706" lon="5.827722949907184"><ele></ele><time>2015-2-4T11:4:34Z</time></trkpt>
<trkpt lat="44.168885936960578" lon="5.82691996358335"><ele></ele><time>2015-2-4T11:4:37Z</time></trkpt>
<trkpt lat="44.169093975797296" lon="5.826318981125951"><ele></ele><time>2015-2-4T11:4:40Z</time></trkpt>
<trkpt lat="44.169234959408641" lon="5.825292952358723"><ele></ele><time>2015-2-4T11:4:43Z</time></trkpt>
<trkpt lat="44.16929698549211" lon="5.824202969670296"><ele></ele><time>2015-2-4T11:4:46Z</time></trkpt>
<trkpt lat="44.169394969940186" lon="5.823213988915086"><ele></ele><time>2015-2-4T11:4:49Z</time></trkpt>
<trkpt lat="44.169476944953203" lon="5.822087964043021"><ele></ele><time>2015-2-4T11:4:52Z</time></trkpt>
<trkpt lat="44.16944894939661" lon="5.821026982739568"><ele></ele><time>2015-2-4T11:4:55Z</time></trkpt>
<trkpt lat="44.169408967718482" lon="5.82036598585546"><ele></ele><time>2015-2-4T11:4:58Z</time></trkpt>
<trkpt lat="44.169349959120154" lon="5.819557970389724"><ele></ele><time>2015-2-4T11:5:1Z</time></trkpt>
<trkpt lat="44.169022981077433" lon="5.819006944075227"><ele></ele><time>2015-2-4T11:5:4Z</time></trkpt>
<trkpt lat="44.168657949194312" lon="5.818349970504642"><ele></ele><time>2015-2-4T11:5:7Z</time></trkpt>
<trkpt lat="44.168360978364944" lon="5.817675981670618"><ele></ele><time>2015-2-4T11:5:10Z</time></trkpt>
<trkpt lat="44.167955964803696" lon="5.816768975928426"><ele></ele><time>2015-2-4T11:5:13Z</time></trkpt>
<trkpt lat="44.167827973142266" lon="5.815926929935813"><ele></ele><time>2015-2-4T11:5:16Z</time></trkpt>
<trkpt lat="44.167858986184001" lon="5.814883969724178"><ele></ele><time>2015-2-4T11:5:19Z</time></trkpt>
<trkpt lat="44.167709955945611" lon="5.814036978408694"><ele></ele><time>2015-2-4T11:5:22Z</time></trkpt>
<trkpt lat="44.16729899123311" lon="5.813779989257455"><ele></ele><time>2015-2-4T11:5:25Z</time></trkpt>
<trkpt lat="44.167071925476193" lon="5.813253941014409"><ele></ele><time>2015-2-4T11:5:28Z</time></trkpt>
<trkpt lat="44.167195977643132" lon="5.812169993296266"><ele></ele><time>2015-2-4T11:5:31Z</time></trkpt>
<trkpt lat="44.167136969044805" lon="5.811141952872276"><ele></ele><time>2015-2-4T11:5:34Z</time></trkpt>
<trkpt lat="44.167244927957654" lon="5.810318933799863"><ele></ele><time>2015-2-4T11:5:37Z</time></trkpt>
<trkpt lat="44.1672149207443" lon="5.809448976069689"><ele></ele><time>2015-2-4T11:5:40Z</time></trkpt>
<trkpt lat="44.167370991781354" lon="5.808491930365562"><ele></ele><time>2015-2-4T11:5:43Z</time></trkpt>
<trkpt lat="44.167573917657137" lon="5.80762499012053"><ele></ele><time>2015-2-4T11:5:46Z</time></trkpt>
<trkpt lat="44.167694952338934" lon="5.806811945512891"><ele></ele><time>2015-2-4T11:5:49Z</time></trkpt>
<trkpt lat="44.167742980644107" lon="5.805389955639839"><ele></ele><time>2015-2-4T11:5:52Z</time></trkpt>
<trkpt lat="44.167725965380669" lon="5.804615970700979"><ele></ele><time>2015-2-4T11:5:55Z</time></trkpt>
<trkpt lat="44.167700987309217" lon="5.80388599075377"><ele></ele><time>2015-2-4T11:5:58Z</time></trkpt>
<trkpt lat="44.167807940393686" lon="5.803041933104396"><ele></ele><time>2015-2-4T11:6:1Z</time></trkpt>
<trkpt lat="44.167785979807377" lon="5.802343972027302"><ele></ele><time>2015-2-4T11:6:4Z</time></trkpt>
<trkpt lat="44.167764941230416" lon="5.801551965996623"><ele></ele><time>2015-2-4T11:6:7Z</time></trkpt>
<trkpt lat="44.167714985087514" lon="5.80077194608748"><ele></ele><time>2015-2-4T11:6:10Z</time></trkpt>
<trkpt lat="44.167605936527252" lon="5.800075996667147"><ele></ele><time>2015-2-4T11:6:13Z</time></trkpt>
<trkpt lat="44.16759897954762" lon="5.798906972631812"><ele></ele><time>2015-2-4T11:6:16Z</time></trkpt>
<trkpt lat="44.167414996773005" lon="5.797820929437876"><ele></ele><time>2015-2-4T11:6:19Z</time></trkpt>
<trkpt lat="44.167359927669168" lon="5.797043927013874"><ele></ele><time>2015-2-4T11:6:22Z</time></trkpt>
<trkpt lat="44.167371997609735" lon="5.796225937083364"><ele></ele><time>2015-2-4T11:6:25Z</time></trkpt>
<trkpt lat="44.167538965120912" lon="5.79525095410645"><ele></ele><time>2015-2-4T11:6:28Z</time></trkpt>
<trkpt lat="44.167410973459482" lon="5.794231966137886"><ele></ele><time>2015-2-4T11:6:31Z</time></trkpt>
<trkpt lat="44.167238976806402" lon="5.793249942362309"><ele></ele><time>2015-2-4T11:6:34Z</time></trkpt>
<trkpt lat="44.167154990136623" lon="5.792620964348316"><ele></ele><time>2015-2-4T11:6:37Z</time></trkpt>
<trkpt lat="44.167069997638464" lon="5.791785959154367"><ele></ele><time>2015-2-4T11:6:40Z</time></trkpt>
<trkpt lat="44.166850978508592" lon="5.791175924241543"><ele></ele><time>2015-2-4T11:6:43Z</time></trkpt>
<trkpt lat="44.166494999080896" lon="5.79041694290936"><ele></ele><time>2015-2-4T11:6:46Z</time></trkpt>
<trkpt lat="44.166388968005776" lon="5.789490994066"><ele></ele><time>2015-2-4T11:6:49Z</time></trkpt>
<trkpt lat="44.166174978017807" lon="5.788901997730136"><ele></ele><time>2015-2-4T11:6:52Z</time></trkpt>
<trkpt lat="44.165780944749713" lon="5.788466976955533"><ele></ele><time>2015-2-4T11:6:55Z</time></trkpt>
<trkpt lat="44.165368974208832" lon="5.787512948736548"><ele></ele><time>2015-2-4T11:6:58Z</time></trkpt>
<trkpt lat="44.165229918435216" lon="5.786889921873808"><ele></ele><time>2015-2-4T11:7:1Z</time></trkpt>
<trkpt lat="44.165079966187477" lon="5.785843944177032"><ele></ele><time>2015-2-4T11:7:4Z</time></trkpt>
<trkpt lat="44.165206952020526" lon="5.78461691737175"><ele></ele><time>2015-2-4T11:7:7Z</time></trkpt>
<trkpt lat="44.165186919271946" lon="5.783985927700996"><ele></ele><time>2015-2-4T11:7:10Z</time></trkpt>
<trkpt lat="44.165237965062261" lon="5.783318979665637"><ele></ele><time>2015-2-4T11:7:13Z</time></trkpt>
<trkpt lat="44.165481962263584" lon="5.781902940943837"><ele></ele><time>2015-2-4T11:7:16Z</time></trkpt>
<trkpt lat="44.165663933381438" lon="5.780773982405663"><ele></ele><time>2015-2-4T11:7:19Z</time></trkpt>
<trkpt lat="44.165491936728358" lon="5.779545949772"><ele></ele><time>2015-2-4T11:7:22Z</time></trkpt>
<trkpt lat="44.165255986154079" lon="5.778251951560378"><ele></ele><time>2015-2-4T11:7:25Z</time></trkpt>
<trkpt lat="44.165115924552083" lon="5.777447959408164"><ele></ele><time>2015-2-4T11:7:28Z</time></trkpt>
<trkpt lat="44.165210975334048" lon="5.776349930092692"><ele></ele><time>2015-2-4T11:7:31Z</time></trkpt>
<trkpt lat="44.165245927870274" lon="5.774971945211291"><ele></ele><time>2015-2-4T11:7:34Z</time></trkpt>
<trkpt lat="44.165168981999159" lon="5.77434497885406"><ele></ele><time>2015-2-4T11:7:37Z</time></trkpt>
<trkpt lat="44.164939988404512" lon="5.773522965610027"><ele></ele><time>2015-2-4T11:7:40Z</time></trkpt>
<trkpt lat="44.164784923195839" lon="5.772637920454145"><ele></ele><time>2015-2-4T11:7:43Z</time></trkpt>
<trkpt lat="44.164698924869299" lon="5.772011959925294"><ele></ele><time>2015-2-4T11:7:46Z</time></trkpt>
<trkpt lat="44.164716945961118" lon="5.771248955279589"><ele></ele><time>2015-2-4T11:7:49Z</time></trkpt>
<trkpt lat="44.164751982316375" lon="5.770451920107007"><ele></ele><time>2015-2-4T11:7:52Z</time></trkpt>
<trkpt lat="44.164845943450928" lon="5.769646922126412"><ele></ele><time>2015-2-4T11:7:55Z</time></trkpt>
<trkpt lat="44.164964966475964" lon="5.769019955769181"><ele></ele><time>2015-2-4T11:7:58Z</time></trkpt>
<trkpt lat="44.165267972275615" lon="5.76826399192214"><ele></ele><time>2015-2-4T11:8:1Z</time></trkpt>
<trkpt lat="44.165675919502974" lon="5.767701985314488"><ele></ele><time>2015-2-4T11:8:4Z</time></trkpt>
<trkpt lat="44.166002981364727" lon="5.767182977870107"><ele></ele><time>2015-2-4T11:8:7Z</time></trkpt>
<trkpt lat="44.166333982720971" lon="5.766025939956307"><ele></ele><time>2015-2-4T11:8:10Z</time></trkpt>
<trkpt lat="44.166539926081896" lon="5.765396961942315"><ele></ele><time>2015-2-4T11:8:13Z</time></trkpt>
<trkpt lat="44.167050970718265" lon="5.764942998066545"><ele></ele><time>2015-2-4T11:8:16Z</time></trkpt>
<trkpt lat="44.167370991781354" lon="5.764420973137021"><ele></ele><time>2015-2-4T11:8:19Z</time></trkpt>
<trkpt lat="44.167537959292531" lon="5.763646988198161"><ele></ele><time>2015-2-4T11:8:22Z</time></trkpt>
<trkpt lat="44.167827973142266" lon="5.762772923335433"><ele></ele><time>2015-2-4T11:8:25Z</time></trkpt>
<trkpt lat="44.167968956753612" lon="5.761773968115449"><ele></ele><time>2015-2-4T11:8:28Z</time></trkpt>
<trkpt lat="44.168455945327878" lon="5.760876936838031"><ele></ele><time>2015-2-4T11:8:31Z</time></trkpt>
<trkpt lat="44.168903958052397" lon="5.760070933029056"><ele></ele><time>2015-2-4T11:8:34Z</time></trkpt>
<trkpt lat="44.169122977182269" lon="5.759344976395369"><ele></ele><time>2015-2-4T11:8:37Z</time></trkpt>
<trkpt lat="44.16944894939661" lon="5.758458925411105"><ele></ele><time>2015-2-4T11:8:40Z</time></trkpt>
<trkpt lat="44.169621951878071" lon="5.757590979337692"><ele></ele><time>2015-2-4T11:8:43Z</time></trkpt>
<trkpt lat="44.169531930238008" lon="5.756527986377478"><ele></ele><time>2015-2-4T11:8:46Z</time></trkpt>
<trkpt lat="44.169188942760229" lon="5.755404978990555"><ele></ele><time>2015-2-4T11:8:49Z</time></trkpt>
<trkpt lat="44.16899498552084" lon="5.75417191721499"><ele></ele><time>2015-2-4T11:8:52Z</time></trkpt>
<trkpt lat="44.168963972479105" lon="5.753092998638749"><ele></ele><time>2015-2-4T11:8:55Z</time></trkpt>
<trkpt lat="44.168791975826025" lon="5.751975942403078"><ele></ele><time>2015-2-4T11:8:58Z</time></trkpt>
<trkpt lat="44.168279925361276" lon="5.75077791698277"><ele></ele><time>2015-2-4T11:9:1Z</time></trkpt>
<trkpt lat="44.167784973978996" lon="5.750206941738725"><ele></ele><time>2015-2-4T11:9:4Z</time></trkpt>
<trkpt lat="44.167522955685854" lon="5.749382916837931"><ele></ele><time>2015-2-4T11:9:7Z</time></trkpt>
<trkpt lat="44.167649941518903" lon="5.748456967994571"><ele></ele><time>2015-2-4T11:9:10Z</time></trkpt>
<trkpt lat="44.16788094677031" lon="5.747655993327498"><ele></ele><time>2015-2-4T11:9:13Z</time></trkpt>
<trkpt lat="44.168032994493842" lon="5.746895922347903"><ele></ele><time>2015-2-4T11:9:16Z</time></trkpt>
<trkpt lat="44.168083956465125" lon="5.745970979332924"><ele></ele><time>2015-2-4T11:9:19Z</time></trkpt>
<trkpt lat="44.168303981423378" lon="5.745164975523949"><ele></ele><time>2015-2-4T11:9:22Z</time></trkpt>
<trkpt lat="44.168670941144228" lon="5.744341956451535"><ele></ele><time>2015-2-4T11:9:25Z</time></trkpt>
<trkpt lat="44.169008983299136" lon="5.743786990642548"><ele></ele><time>2015-2-4T11:9:28Z</time></trkpt>
<trkpt lat="44.169548945501447" lon="5.743193970993161"><ele></ele><time>2015-2-4T11:9:31Z</time></trkpt>
<trkpt lat="44.169982960447669" lon="5.742738917469978"><ele></ele><time>2015-2-4T11:9:34Z</time></trkpt>
<trkpt lat="44.170557959005237" lon="5.742235919460654"><ele></ele><time>2015-2-4T11:9:37Z</time></trkpt>
<trkpt lat="44.170924918726087" lon="5.741787990555167"><ele></ele><time>2015-2-4T11:9:40Z</time></trkpt>
<trkpt lat="44.171263966709375" lon="5.74134299531579"><ele></ele><time>2015-2-4T11:9:43Z</time></trkpt>
<trkpt lat="44.171531936153769" lon="5.740530956536531"><ele></ele><time>2015-2-4T11:9:46Z</time></trkpt>
<trkpt lat="44.171559931710362" lon="5.739845987409353"><ele></ele><time>2015-2-4T11:9:49Z</time></trkpt>
<trkpt lat="44.171635955572128" lon="5.739104943349958"><ele></ele><time>2015-2-4T11:9:52Z</time></trkpt>
<trkpt lat="44.171812981367111" lon="5.738215958699584"><ele></ele><time>2015-2-4T11:9:55Z</time></trkpt>
<trkpt lat="44.172015991061926" lon="5.737625956535339"><ele></ele><time>2015-2-4T11:9:58Z</time></trkpt>
<trkpt lat="44.172360990196466" lon="5.736607974395156"><ele></ele><time>2015-2-4T11:10:1Z</time></trkpt>
<trkpt lat="44.172559976577759" lon="5.735468957573175"><ele></ele><time>2015-2-4T11:10:4Z</time></trkpt>
<trkpt lat="44.172838926315308" lon="5.734522975981236"><ele></ele><time>2015-2-4T11:10:7Z</time></trkpt>
<trkpt lat="44.172937916591763" lon="5.733865918591619"><ele></ele><time>2015-2-4T11:10:10Z</time></trkpt>
<trkpt lat="44.173031961545348" lon="5.732639981433749"><ele></ele><time>2015-2-4T11:10:13Z</time></trkpt>
<trkpt lat="44.17316498234868" lon="5.731555949896574"><ele></ele><time>2015-2-4T11:10:16Z</time></trkpt>
<trkpt lat="44.173339996486902" lon="5.730677945539355"><ele></ele><time>2015-2-4T11:10:19Z</time></trkpt>
<trkpt lat="44.173579970374703" lon="5.729965986683965"><ele></ele><time>2015-2-4T11:10:22Z</time></trkpt>
<trkpt lat="44.173560943454504" lon="5.729338936507702"><ele></ele><time>2015-2-4T11:10:25Z</time></trkpt>
<trkpt lat="44.173541916534305" lon="5.728460932150483"><ele></ele><time>2015-2-4T11:10:28Z</time></trkpt>
<trkpt lat="44.173473939299583" lon="5.727843940258026"><ele></ele><time>2015-2-4T11:10:31Z</time></trkpt>
<trkpt lat="44.173277970403433" lon="5.727063920348883"><ele></ele><time>2015-2-4T11:10:34Z</time></trkpt>
<trkpt lat="44.173102956265211" lon="5.726128919050098"><ele></ele><time>2015-2-4T11:10:37Z</time></trkpt>
<trkpt lat="44.173083929345012" lon="5.72546599432826"><ele></ele><time>2015-2-4T11:10:40Z</time></trkpt>
<trkpt lat="44.173271935433149" lon="5.724423956125975"><ele></ele><time>2015-2-4T11:10:43Z</time></trkpt>
<trkpt lat="44.173300936818123" lon="5.723514938727021"><ele></ele><time>2015-2-4T11:10:46Z</time></trkpt>
<trkpt lat="44.173211921006441" lon="5.722687980160117"><ele></ele><time>2015-2-4T11:10:49Z</time></trkpt>
<trkpt lat="44.173337984830141" lon="5.721358945593238"><ele></ele><time>2015-2-4T11:10:52Z</time></trkpt>
<trkpt lat="44.173473939299583" lon="5.720557970926166"><ele></ele><time>2015-2-4T11:10:55Z</time></trkpt>
<trkpt lat="44.173607965931296" lon="5.719811981543899"><ele></ele><time>2015-2-4T11:10:58Z</time></trkpt>
<trkpt lat="44.173721959814429" lon="5.719146961346269"><ele></ele><time>2015-2-4T11:11:1Z</time></trkpt>
<trkpt lat="44.173863949254155" lon="5.718527957797051"><ele></ele><time>2015-2-4T11:11:4Z</time></trkpt>
<trkpt lat="44.174074921756983" lon="5.717598991468549"><ele></ele><time>2015-2-4T11:11:7Z</time></trkpt>
<trkpt lat="44.174165949225426" lon="5.716936988756061"><ele></ele><time>2015-2-4T11:11:10Z</time></trkpt>
<trkpt lat="44.174523940309882" lon="5.715993940830231"><ele></ele><time>2015-2-4T11:11:13Z</time></trkpt>
<trkpt lat="44.174846978858113" lon="5.714999930933118"><ele></ele><time>2015-2-4T11:11:16Z</time></trkpt>
<trkpt lat="44.175043953582644" lon="5.713810957968235"><ele></ele><time>2015-2-4T11:11:19Z</time></trkpt>
<trkpt lat="44.175208993256092" lon="5.712904958054423"><ele></ele><time>2015-2-4T11:11:22Z</time></trkpt>
<trkpt lat="44.175407979637384" lon="5.712079927325249"><ele></ele><time>2015-2-4T11:11:25Z</time></trkpt>
<trkpt lat="44.17557192966342" lon="5.711466958746314"><ele></ele><time>2015-2-4T11:11:28Z</time></trkpt>
<trkpt lat="44.175796983763576" lon="5.710863964632154"><ele></ele><time>2015-2-4T11:11:31Z</time></trkpt>
<trkpt lat="44.176050955429673" lon="5.71010297164321"><ele></ele><time>2015-2-4T11:11:34Z</time></trkpt>
<trkpt lat="44.176166960969567" lon="5.708955992013216"><ele></ele><time>2015-2-4T11:11:37Z</time></trkpt>
<trkpt lat="44.176276931539178" lon="5.707946978509426"><ele></ele><time>2015-2-4T11:11:40Z</time></trkpt>
<trkpt lat="44.175898991525173" lon="5.707228984683752"><ele></ele><time>2015-2-4T11:11:43Z</time></trkpt>
<trkpt lat="44.175324998795986" lon="5.706778960302472"><ele></ele><time>2015-2-4T11:11:46Z</time></trkpt>
<trkpt lat="44.174886960536242" lon="5.705949990078807"><ele></ele><time>2015-2-4T11:11:49Z</time></trkpt>
<trkpt lat="44.174699960276484" lon="5.705314977094531"><ele></ele><time>2015-2-4T11:11:52Z</time></trkpt>
<trkpt lat="44.174745976924896" lon="5.7045619469136"><ele></ele><time>2015-2-4T11:11:55Z</time></trkpt>
<trkpt lat="44.174902969971299" lon="5.703435922041535"><ele></ele><time>2015-2-4T11:11:58Z</time></trkpt>
<trkpt lat="44.175024926662445" lon="5.702250972390175"><ele></ele><time>2015-2-4T11:12:1Z</time></trkpt>
<trkpt lat="44.175134981051087" lon="5.701300967484713"><ele></ele><time>2015-2-4T11:12:4Z</time></trkpt>
<trkpt lat="44.174953931942582" lon="5.700314920395613"><ele></ele><time>2015-2-4T11:12:7Z</time></trkpt>
<trkpt lat="44.174384968355298" lon="5.69961997680366"><ele></ele><time>2015-2-4T11:12:10Z</time></trkpt>
<trkpt lat="44.173986995592713" lon="5.699070962145925"><ele></ele><time>2015-2-4T11:12:13Z</time></trkpt>
<trkpt lat="44.17389496229589" lon="5.698441984131932"><ele></ele><time>2015-2-4T11:12:16Z</time></trkpt>
<trkpt lat="44.173946930095553" lon="5.697665987536311"><ele></ele><time>2015-2-4T11:12:19Z</time></trkpt>
<trkpt lat="44.174002921208739" lon="5.69684891961515"><ele></ele><time>2015-2-4T11:12:22Z</time></trkpt>
<trkpt lat="44.17391792871058" lon="5.695881983265281"><ele></ele><time>2015-2-4T11:12:25Z</time></trkpt>
<trkpt lat="44.173971991986036" lon="5.695077991113067"><ele></ele><time>2015-2-4T11:12:28Z</time></trkpt>
<trkpt lat="44.174248930066824" lon="5.694121951237321"><ele></ele><time>2015-2-4T11:12:31Z</time></trkpt>
<trkpt lat="44.174436936154962" lon="5.693123918026686"><ele></ele><time>2015-2-4T11:12:34Z</time></trkpt>
<trkpt lat="44.174506925046444" lon="5.692214984446764"><ele></ele><time>2015-2-4T11:12:37Z</time></trkpt>
<trkpt lat="44.174557970836759" lon="5.69111293181777"><ele></ele><time>2015-2-4T11:12:40Z</time></trkpt>
<trkpt lat="44.174638940021396" lon="5.69020894356072"><ele></ele><time>2015-2-4T11:12:43Z</time></trkpt>
<trkpt lat="44.174730973318219" lon="5.689155925065279"><ele></ele><time>2015-2-4T11:12:46Z</time></trkpt>
<trkpt lat="44.174807919189334" lon="5.687859999015927"><ele></ele><time>2015-2-4T11:12:49Z</time></trkpt>
<trkpt lat="44.174875980243087" lon="5.686991969123483"><ele></ele><time>2015-2-4T11:12:52Z</time></trkpt>
<trkpt lat="44.174930965527892" lon="5.686026960611343"><ele></ele><time>2015-2-4T11:12:55Z</time></trkpt>
<trkpt lat="44.17501394636929" lon="5.684846956282854"><ele></ele><time>2015-2-4T11:12:58Z</time></trkpt>
<trkpt lat="44.174906993284822" lon="5.684186965227127"><ele></ele><time>2015-2-4T11:13:1Z</time></trkpt>
<trkpt lat="44.174780929461122" lon="5.682991957291961"><ele></ele><time>2015-2-4T11:13:4Z</time></trkpt>
<trkpt lat="44.174759974703193" lon="5.682148989289999"><ele></ele><time>2015-2-4T11:13:7Z</time></trkpt>
<trkpt lat="44.174721920862794" lon="5.681228991597891"><ele></ele><time>2015-2-4T11:13:10Z</time></trkpt>
<trkpt lat="44.174706917256117" lon="5.68023799918592"><ele></ele><time>2015-2-4T11:13:13Z</time></trkpt>
<trkpt lat="44.174686968326569" lon="5.679298974573612"><ele></ele><time>2015-2-4T11:13:16Z</time></trkpt>
<trkpt lat="44.174475995823741" lon="5.678630936890841"><ele></ele><time>2015-2-4T11:13:19Z</time></trkpt>
<trkpt lat="44.174071988090873" lon="5.677828956395388"><ele></ele><time>2015-2-4T11:13:22Z</time></trkpt>
<trkpt lat="44.173922957852483" lon="5.677070980891585"><ele></ele><time>2015-2-4T11:13:25Z</time></trkpt>
<trkpt lat="44.174300981685519" lon="5.676289955154061"><ele></ele><time>2015-2-4T11:13:28Z</time></trkpt>
<trkpt lat="44.17469291947782" lon="5.675694923847914"><ele></ele><time>2015-2-4T11:13:31Z</time></trkpt>
<trkpt lat="44.17531494051218" lon="5.674998974427581"><ele></ele><time>2015-2-4T11:13:34Z</time></trkpt>
<trkpt lat="44.17563496157527" lon="5.674126921221614"><ele></ele><time>2015-2-4T11:13:37Z</time></trkpt>
<trkpt lat="44.17582799680531" lon="5.67331999540329"><ele></ele><time>2015-2-4T11:13:40Z</time></trkpt>
<trkpt lat="44.176141982898116" lon="5.672209979966283"><ele></ele><time>2015-2-4T11:13:43Z</time></trkpt>
<trkpt lat="44.17651891708374" lon="5.671376986429095"><ele></ele><time>2015-2-4T11:13:46Z</time></trkpt>
<trkpt lat="44.177028955891728" lon="5.670848926529288"><ele></ele><time>2015-2-4T11:13:49Z</time></trkpt>
<trkpt lat="44.177212938666344" lon="5.670176949352026"><ele></ele><time>2015-2-4T11:13:52Z</time></trkpt>
<trkpt lat="44.177280999720097" lon="5.669477982446551"><ele></ele><time>2015-2-4T11:13:55Z</time></trkpt>
<trkpt lat="44.17754695750773" lon="5.668619927018881"><ele></ele><time>2015-2-4T11:13:58Z</time></trkpt>
<trkpt lat="44.177624993026257" lon="5.667841918766499"><ele></ele><time>2015-2-4T11:14:1Z</time></trkpt>
<trkpt lat="44.17765592224896" lon="5.667104981839657"><ele></ele><time>2015-2-4T11:14:4Z</time></trkpt>
<trkpt lat="44.177620969712734" lon="5.666151959449053"><ele></ele><time>2015-2-4T11:14:7Z</time></trkpt>
<trkpt lat="44.177640918642282" lon="5.66532994620502"><ele></ele><time>2015-2-4T11:14:10Z</time></trkpt>
<trkpt lat="44.177807969972491" lon="5.664602983742952"><ele></ele><time>2015-2-4T11:14:13Z</time></trkpt>
<trkpt lat="44.177730940282345" lon="5.664013987407088"><ele></ele><time>2015-2-4T11:14:16Z</time></trkpt>
<trkpt lat="44.177531953901052" lon="5.663290964439511"><ele></ele><time>2015-2-4T11:14:19Z</time></trkpt>
<trkpt lat="44.177707973867655" lon="5.662651928141713"><ele></ele><time>2015-2-4T11:14:22Z</time></trkpt>
<trkpt lat="44.177187960594893" lon="5.662222942337394"><ele></ele><time>2015-2-4T11:14:25Z</time></trkpt>
<trkpt lat="44.17709399946034" lon="5.66137595102191"><ele></ele><time>2015-2-4T11:14:28Z</time></trkpt>
<trkpt lat="44.17679694481194" lon="5.660703973844647"><ele></ele><time>2015-2-4T11:14:31Z</time></trkpt>
<trkpt lat="44.176690997555852" lon="5.659906938672066"><ele></ele><time>2015-2-4T11:14:34Z</time></trkpt>
<trkpt lat="44.176530987024307" lon="5.65901393070817"><ele></ele><time>2015-2-4T11:14:37Z</time></trkpt>
<trkpt lat="44.176138965412974" lon="5.658323932439089"><ele></ele><time>2015-2-4T11:14:40Z</time></trkpt>
<trkpt lat="44.17612798511982" lon="5.657630916684866"><ele></ele><time>2015-2-4T11:14:43Z</time></trkpt>
<trkpt lat="44.176133936271071" lon="5.656988946720958"><ele></ele><time>2015-2-4T11:14:46Z</time></trkpt>
<trkpt lat="44.176048943772912" lon="5.656087975949049"><ele></ele><time>2015-2-4T11:14:49Z</time></trkpt>
<trkpt lat="44.175874935463071" lon="5.654898919165134"><ele></ele><time>2015-2-4T11:14:52Z</time></trkpt>
<trkpt lat="44.175785919651389" lon="5.653949920088053"><ele></ele><time>2015-2-4T11:14:55Z</time></trkpt>
<trkpt lat="44.175814921036363" lon="5.653239972889423"><ele></ele><time>2015-2-4T11:14:58Z</time></trkpt>
<trkpt lat="44.175861943513155" lon="5.652282927185297"><ele></ele><time>2015-2-4T11:15:1Z</time></trkpt>
<trkpt lat="44.176136953756213" lon="5.651480946689844"><ele></ele><time>2015-2-4T11:15:4Z</time></trkpt>
<trkpt lat="44.175886921584606" lon="5.65056698396802"><ele></ele><time>2015-2-4T11:15:7Z</time></trkpt>
<trkpt lat="44.175976943224669" lon="5.649737929925323"><ele></ele><time>2015-2-4T11:15:10Z</time></trkpt>
<trkpt lat="44.176266957074404" lon="5.649184975773096"><ele></ele><time>2015-2-4T11:15:13Z</time></trkpt>
<trkpt lat="44.17621398344636" lon="5.647912938147783"><ele></ele><time>2015-2-4T11:15:16Z</time></trkpt>
<trkpt lat="44.176218928769231" lon="5.647155968472362"><ele></ele><time>2015-2-4T11:15:19Z</time></trkpt>
<trkpt lat="44.17597895488143" lon="5.645894994959235"><ele></ele><time>2015-2-4T11:15:22Z</time></trkpt>
<trkpt lat="44.175753984600306" lon="5.645304992794991"><ele></ele><time>2015-2-4T11:15:25Z</time></trkpt>
<trkpt lat="44.175587939098477" lon="5.644252980127931"><ele></ele><time>2015-2-4T11:15:28Z</time></trkpt>
<trkpt lat="44.175524991005659" lon="5.643490981310606"><ele></ele><time>2015-2-4T11:15:31Z</time></trkpt>
<trkpt lat="44.175472939386964" lon="5.642816992476583"><ele></ele><time>2015-2-4T11:15:34Z</time></trkpt>
<trkpt lat="44.175428934395313" lon="5.64214694313705"><ele></ele><time>2015-2-4T11:15:37Z</time></trkpt>
<trkpt lat="44.175381995737553" lon="5.641462979838252"><ele></ele><time>2015-2-4T11:15:40Z</time></trkpt>
<trkpt lat="44.175344947725534" lon="5.640739956870675"><ele></ele><time>2015-2-4T11:15:43Z</time></trkpt>
<trkpt lat="44.175437986850739" lon="5.6399339530617"><ele></ele><time>2015-2-4T11:15:46Z</time></trkpt>
<trkpt lat="44.175526918843389" lon="5.639300951734185"><ele></ele><time>2015-2-4T11:15:49Z</time></trkpt>
<trkpt lat="44.175630938261747" lon="5.638490924611688"><ele></ele><time>2015-2-4T11:15:52Z</time></trkpt>
<trkpt lat="44.175566984340549" lon="5.637831939384341"><ele></ele><time>2015-2-4T11:15:55Z</time></trkpt>
<trkpt lat="44.175066919997334" lon="5.638266960158944"><ele></ele><time>2015-2-4T11:15:58Z</time></trkpt>
<trkpt lat="44.174634916707873" lon="5.638331919908524"><ele></ele><time>2015-2-4T11:16:1Z</time></trkpt>
<trkpt lat="44.174201991409063" lon="5.638148942962289"><ele></ele><time>2015-2-4T11:16:4Z</time></trkpt>
<trkpt lat="44.173694970086217" lon="5.637809978798032"><ele></ele><time>2015-2-4T11:16:7Z</time></trkpt>
<trkpt lat="44.173147967085242" lon="5.637382920831442"><ele></ele><time>2015-2-4T11:16:10Z</time></trkpt>
<trkpt lat="44.172616973519325" lon="5.636932980269194"><ele></ele><time>2015-2-4T11:16:13Z</time></trkpt>
<trkpt lat="44.172238949686289" lon="5.636222949251533"><ele></ele><time>2015-2-4T11:16:16Z</time></trkpt>
<trkpt lat="44.171999981626868" lon="5.635676952078939"><ele></ele><time>2015-2-4T11:16:19Z</time></trkpt>
<trkpt lat="44.171602930873632" lon="5.635260958224535"><ele></ele><time>2015-2-4T11:16:22Z</time></trkpt>
<trkpt lat="44.171385923400521" lon="5.634482949972153"><ele></ele><time>2015-2-4T11:16:25Z</time></trkpt>
<trkpt lat="44.171161958947778" lon="5.633932929486036"><ele></ele><time>2015-2-4T11:16:28Z</time></trkpt>
<trkpt lat="44.171586921438575" lon="5.633687926456332"><ele></ele><time>2015-2-4T11:16:31Z</time></trkpt>
<trkpt lat="44.172041974961758" lon="5.633284924551845"><ele></ele><time>2015-2-4T11:16:34Z</time></trkpt>
<trkpt lat="44.172136941924691" lon="5.632348917424679"><ele></ele><time>2015-2-4T11:16:37Z</time></trkpt>
<trkpt lat="44.171948935836554" lon="5.631686998531222"><ele></ele><time>2015-2-4T11:16:40Z</time></trkpt>
<trkpt lat="44.171911971643567" lon="5.631065983325243"><ele></ele><time>2015-2-4T11:16:43Z</time></trkpt>
<trkpt lat="44.172324948012829" lon="5.630013970658183"><ele></ele><time>2015-2-4T11:16:46Z</time></trkpt>
<trkpt lat="44.172452939674258" lon="5.629287930205464"><ele></ele><time>2015-2-4T11:16:49Z</time></trkpt>
<trkpt lat="44.172507924959064" lon="5.628496930003166"><ele></ele><time>2015-2-4T11:16:52Z</time></trkpt>
<trkpt lat="44.172716969624162" lon="5.627783965319395"><ele></ele><time>2015-2-4T11:16:55Z</time></trkpt>
<trkpt lat="44.172585960477591" lon="5.626718960702419"><ele></ele><time>2015-2-4T11:16:58Z</time></trkpt>
<trkpt lat="44.172677993774414" lon="5.625813966616988"><ele></ele><time>2015-2-4T11:17:1Z</time></trkpt>
<trkpt lat="44.173115948215127" lon="5.625259922817349"><ele></ele><time>2015-2-4T11:17:4Z</time></trkpt>
<trkpt lat="44.173221979290247" lon="5.62418594956398"><ele></ele><time>2015-2-4T11:17:7Z</time></trkpt>
<trkpt lat="44.173064986243844" lon="5.623026983812451"><ele></ele><time>2015-2-4T11:17:10Z</time></trkpt>
<trkpt lat="44.172956943511963" lon="5.62190699391067"><ele></ele><time>2015-2-4T11:17:13Z</time></trkpt>
<trkpt lat="44.172923918813467" lon="5.621204925701022"><ele></ele><time>2015-2-4T11:17:16Z</time></trkpt>
<trkpt lat="44.1728859487921" lon="5.620109997689724"><ele></ele><time>2015-2-4T11:17:19Z</time></trkpt>
<trkpt lat="44.172929953783751" lon="5.619420921429992"><ele></ele><time>2015-2-4T11:17:22Z</time></trkpt>
<trkpt lat="44.173012934625149" lon="5.618493966758251"><ele></ele><time>2015-2-4T11:17:25Z</time></trkpt>
<trkpt lat="44.172983933240175" lon="5.617629960179329"><ele></ele><time>2015-2-4T11:17:28Z</time></trkpt>
<trkpt lat="44.172893995419145" lon="5.616948930546641"><ele></ele><time>2015-2-4T11:17:31Z</time></trkpt>
<trkpt lat="44.172768937423825" lon="5.61617192812264"><ele></ele><time>2015-2-4T11:17:34Z</time></trkpt>
<trkpt lat="44.172580931335688" lon="5.615224940702319"><ele></ele><time>2015-2-4T11:17:37Z</time></trkpt>
<trkpt lat="44.172501973807812" lon="5.614575929939747"><ele></ele><time>2015-2-4T11:17:40Z</time></trkpt>
<trkpt lat="44.172737924382091" lon="5.613706978037953"><ele></ele><time>2015-2-4T11:17:43Z</time></trkpt>
<trkpt lat="44.172662990167737" lon="5.612557986751199"><ele></ele><time>2015-2-4T11:17:46Z</time></trkpt>
<trkpt lat="44.172512954100966" lon="5.611649975180626"><ele></ele><time>2015-2-4T11:17:49Z</time></trkpt>
<trkpt lat="44.172360990196466" lon="5.610554963350296"><ele></ele><time>2015-2-4T11:17:52Z</time></trkpt>
<trkpt lat="44.172248924151063" lon="5.609819954261184"><ele></ele><time>2015-2-4T11:17:55Z</time></trkpt>
<trkpt lat="44.172126967459917" lon="5.609041946008802"><ele></ele><time>2015-2-4T11:17:58Z</time></trkpt>
<trkpt lat="44.172021942213178" lon="5.608588987961412"><ele></ele><time>2015-2-4T11:18:1Z</time></trkpt>
<trkpt lat="44.172032922506332" lon="5.607810979709029"><ele></ele><time>2015-2-4T11:18:4Z</time></trkpt>
<trkpt lat="44.172232998535037" lon="5.607186947017908"><ele></ele><time>2015-2-4T11:18:7Z</time></trkpt>
<trkpt lat="44.172465931624174" lon="5.606476999819279"><ele></ele><time>2015-2-4T11:18:10Z</time></trkpt>
<trkpt lat="44.172780923545361" lon="5.605553984642029"><ele></ele><time>2015-2-4T11:18:13Z</time></trkpt>
<trkpt lat="44.173060962930322" lon="5.6046989466995"><ele></ele><time>2015-2-4T11:18:16Z</time></trkpt>
<trkpt lat="44.173113936558366" lon="5.603777943179011"><ele></ele><time>2015-2-4T11:18:19Z</time></trkpt>
<trkpt lat="44.173104967921972" lon="5.602751998230815"><ele></ele><time>2015-2-4T11:18:22Z</time></trkpt>
<trkpt lat="44.173075966536999" lon="5.601766956970096"><ele></ele><time>2015-2-4T11:18:25Z</time></trkpt>
<trkpt lat="44.173038918524981" lon="5.600935975089669"><ele></ele><time>2015-2-4T11:18:28Z</time></trkpt>
<trkpt lat="44.173168921843171" lon="5.600110944360495"><ele></ele><time>2015-2-4T11:18:31Z</time></trkpt>
<trkpt lat="44.173153918236494" lon="5.599181978031993"><ele></ele><time>2015-2-4T11:18:34Z</time></trkpt>
<trkpt lat="44.173103962093592" lon="5.598405981436372"><ele></ele><time>2015-2-4T11:18:37Z</time></trkpt>
<trkpt lat="44.17273691855371" lon="5.597634930163622"><ele></ele><time>2015-2-4T11:18:40Z</time></trkpt>
<trkpt lat="44.172340957447886" lon="5.596999917179346"><ele></ele><time>2015-2-4T11:18:43Z</time></trkpt>
<trkpt lat="44.172003921121359" lon="5.596348978579044"><ele></ele><time>2015-2-4T11:18:46Z</time></trkpt>
<trkpt lat="44.172339951619506" lon="5.595706924796104"><ele></ele><time>2015-2-4T11:18:49Z</time></trkpt>
<trkpt lat="44.172752927988768" lon="5.594955990090966"><ele></ele><time>2015-2-4T11:18:52Z</time></trkpt>
<trkpt lat="44.172979993745685" lon="5.594378979876638"><ele></ele><time>2015-2-4T11:18:55Z</time></trkpt>
<trkpt lat="44.173395987600088" lon="5.593638941645622"><ele></ele><time>2015-2-4T11:18:58Z</time></trkpt>
<trkpt lat="44.17385196313262" lon="5.593036953359842"><ele></ele><time>2015-2-4T11:19:1Z</time></trkpt>
<trkpt lat="44.174223951995373" lon="5.592300938442349"><ele></ele><time>2015-2-4T11:19:4Z</time></trkpt>
<trkpt lat="44.174547996371984" lon="5.591782936826348"><ele></ele><time>2015-2-4T11:19:7Z</time></trkpt>
<trkpt lat="44.174975976347923" lon="5.591106936335564"><ele></ele><time>2015-2-4T11:19:10Z</time></trkpt>
<trkpt lat="44.175384929403663" lon="5.590359941124916"><ele></ele><time>2015-2-4T11:19:13Z</time></trkpt>
<trkpt lat="44.175843922421336" lon="5.589583944529295"><ele></ele><time>2015-2-4T11:19:16Z</time></trkpt>
<trkpt lat="44.176081968471408" lon="5.588960917666555"><ele></ele><time>2015-2-4T11:19:19Z</time></trkpt>
<trkpt lat="44.17623694986105" lon="5.588192967697978"><ele></ele><time>2015-2-4T11:19:22Z</time></trkpt>
<trkpt lat="44.176414981484413" lon="5.587477991357446"><ele></ele><time>2015-2-4T11:19:25Z</time></trkpt>
<trkpt lat="44.176658978685737" lon="5.586721943691373"><ele></ele><time>2015-2-4T11:19:28Z</time></trkpt>
<trkpt lat="44.176863916218281" lon="5.586002944037318"><ele></ele><time>2015-2-4T11:19:31Z</time></trkpt>
<trkpt lat="44.177151918411255" lon="5.585457952693105"><ele></ele><time>2015-2-4T11:19:34Z</time></trkpt>
<trkpt lat="44.177284939214587" lon="5.584793938323855"><ele></ele><time>2015-2-4T11:19:37Z</time></trkpt>
<trkpt lat="44.177467999979854" lon="5.584047948941588"><ele></ele><time>2015-2-4T11:19:40Z</time></trkpt>
<trkpt lat="44.177638990804553" lon="5.583368930965662"><ele></ele><time>2015-2-4T11:19:43Z</time></trkpt>
<trkpt lat="44.177860943600535" lon="5.582821927964687"><ele></ele><time>2015-2-4T11:19:46Z</time></trkpt>
<trkpt lat="44.178228992968798" lon="5.582356983795762"><ele></ele><time>2015-2-4T11:19:49Z</time></trkpt>
<trkpt lat="44.178457986563444" lon="5.581591967493296"><ele></ele><time>2015-2-4T11:19:52Z</time></trkpt>
<trkpt lat="44.178817989304662" lon="5.581189971417189"><ele></ele><time>2015-2-4T11:19:55Z</time></trkpt>
<trkpt lat="44.17931092903018" lon="5.581061979755759"><ele></ele><time>2015-2-4T11:19:58Z</time></trkpt>
<trkpt lat="44.179304977878928" lon="5.580542972311378"><ele></ele><time>2015-2-4T11:20:1Z</time></trkpt>
<trkpt lat="44.178769960999489" lon="5.580313978716731"><ele></ele><time>2015-2-4T11:20:4Z</time></trkpt>
<trkpt lat="44.178562927991152" lon="5.579503951594234"><ele></ele><time>2015-2-4T11:20:7Z</time></trkpt>
<trkpt lat="44.178462931886315" lon="5.578780928626657"><ele></ele><time>2015-2-4T11:20:10Z</time></trkpt>
<trkpt lat="44.178373999893665" lon="5.577997975051403"><ele></ele><time>2015-2-4T11:20:13Z</time></trkpt>
<trkpt lat="44.178529987111688" lon="5.577164981514216"><ele></ele><time>2015-2-4T11:20:16Z</time></trkpt>
<trkpt lat="44.178566951304674" lon="5.576284965500236"><ele></ele><time>2015-2-4T11:20:19Z</time></trkpt>
<trkpt lat="44.178733918815851" lon="5.575353987514973"><ele></ele><time>2015-2-4T11:20:22Z</time></trkpt>
<trkpt lat="44.178832992911339" lon="5.57468494400382"><ele></ele><time>2015-2-4T11:20:25Z</time></trkpt>
<trkpt lat="44.1792649962008" lon="5.574334999546409"><ele></ele><time>2015-2-4T11:20:28Z</time></trkpt>
<trkpt lat="44.179091993719339" lon="5.573727982118726"><ele></ele><time>2015-2-4T11:20:31Z</time></trkpt>
<trkpt lat="44.17915896512568" lon="5.573170920833945"><ele></ele><time>2015-2-4T11:20:34Z</time></trkpt>
<trkpt lat="44.179159970954061" lon="5.572577985003591"><ele></ele><time>2015-2-4T11:20:37Z</time></trkpt>
<trkpt lat="44.179099956527352" lon="5.571581963449717"><ele></ele><time>2015-2-4T11:20:40Z</time></trkpt>
<trkpt lat="44.179185954853892" lon="5.570867992937565"><ele></ele><time>2015-2-4T11:20:43Z</time></trkpt>
<trkpt lat="44.179283939301968" lon="5.569954952225089"><ele></ele><time>2015-2-4T11:20:46Z</time></trkpt>
<trkpt lat="44.179419977590442" lon="5.569143919274211"><ele></ele><time>2015-2-4T11:20:49Z</time></trkpt>
<trkpt lat="44.179527936503291" lon="5.568460961803794"><ele></ele><time>2015-2-4T11:20:52Z</time></trkpt>
<trkpt lat="44.179478986188769" lon="5.568269938230515"><ele></ele><time>2015-2-4T11:20:55Z</time></trkpt>
<trkpt lat="44.179638996720314" lon="5.567588992416859"><ele></ele><time>2015-2-4T11:20:58Z</time></trkpt>
<trkpt lat="44.179552998393774" lon="5.566888935863972"><ele></ele><time>2015-2-4T11:21:1Z</time></trkpt>
<trkpt lat="44.179404973983765" lon="5.566271943971515"><ele></ele><time>2015-2-4T11:21:4Z</time></trkpt>
<trkpt lat="44.179043965414166" lon="5.565641960129142"><ele></ele><time>2015-2-4T11:21:7Z</time></trkpt>
<trkpt lat="44.178760992363095" lon="5.566048985347152"><ele></ele><time>2015-2-4T11:21:10Z</time></trkpt>
<trkpt lat="44.178383974358439" lon="5.566507978364825"><ele></ele><time>2015-2-4T11:21:13Z</time></trkpt>
<trkpt lat="44.177962951362133" lon="5.56619793176651"><ele></ele><time>2015-2-4T11:21:16Z</time></trkpt>
<trkpt lat="44.177657933905721" lon="5.565690994262695"><ele></ele><time>2015-2-4T11:21:19Z</time></trkpt>
<trkpt lat="44.17750395834446" lon="5.566252917051315"><ele></ele><time>2015-2-4T11:21:22Z</time></trkpt>
<trkpt lat="44.177025938406587" lon="5.566673940047622"><ele></ele><time>2015-2-4T11:21:25Z</time></trkpt>
<trkpt lat="44.176977993920445" lon="5.567394951358438"><ele></ele><time>2015-2-4T11:21:28Z</time></trkpt>
<trkpt lat="44.176826952025294" lon="5.568166924640536"><ele></ele><time>2015-2-4T11:21:31Z</time></trkpt>
<trkpt lat="44.176546996459365" lon="5.568829933181405"><ele></ele><time>2015-2-4T11:21:34Z</time></trkpt>
<trkpt lat="44.1760219540447" lon="5.568986926227808"><ele></ele><time>2015-2-4T11:21:37Z</time></trkpt>
<trkpt lat="44.175473945215344" lon="5.5687559209764"><ele></ele><time>2015-2-4T11:21:40Z</time></trkpt>
<trkpt lat="44.175078989937901" lon="5.568941999226809"><ele></ele><time>2015-2-4T11:21:43Z</time></trkpt>
<trkpt lat="44.175084941089153" lon="5.56954993866384"><ele></ele><time>2015-2-4T11:21:46Z</time></trkpt>
<trkpt lat="44.174959966912866" lon="5.570120997726917"><ele></ele><time>2015-2-4T11:21:49Z</time></trkpt>
<trkpt lat="44.174666935577989" lon="5.570809990167618"><ele></ele><time>2015-2-4T11:21:52Z</time></trkpt>
<trkpt lat="44.174187993630767" lon="5.570803955197334"><ele></ele><time>2015-2-4T11:21:55Z</time></trkpt>
<trkpt lat="44.173661945387721" lon="5.570646962150931"><ele></ele><time>2015-2-4T11:21:58Z</time></trkpt>
<trkpt lat="44.173310995101929" lon="5.571154989302158"><ele></ele><time>2015-2-4T11:22:1Z</time></trkpt>
<trkpt lat="44.173228936269879" lon="5.571963926777244"><ele></ele><time>2015-2-4T11:22:4Z</time></trkpt>
<trkpt lat="44.173131957650185" lon="5.571526978164911"><ele></ele><time>2015-2-4T11:22:7Z</time></trkpt>
<trkpt lat="44.173074960708618" lon="5.570903951302171"><ele></ele><time>2015-2-4T11:22:10Z</time></trkpt>
<trkpt lat="44.173327926546335" lon="5.57023691944778"><ele></ele><time>2015-2-4T11:22:13Z</time></trkpt>
<trkpt lat="44.173899991437793" lon="5.570028964430094"><ele></ele><time>2015-2-4T11:22:16Z</time></trkpt>
<trkpt lat="44.173892950639129" lon="5.569347934797406"><ele></ele><time>2015-2-4T11:22:19Z</time></trkpt>
<trkpt lat="44.173685917630792" lon="5.56866992264986"><ele></ele><time>2015-2-4T11:22:22Z</time></trkpt>
<trkpt lat="44.173969980329275" lon="5.568202966824174"><ele></ele><time>2015-2-4T11:22:25Z</time></trkpt>
<trkpt lat="44.17415396310389" lon="5.567525960505009"><ele></ele><time>2015-2-4T11:22:28Z</time></trkpt>
<trkpt lat="44.174420926719904" lon="5.566949956119061"><ele></ele><time>2015-2-4T11:22:31Z</time></trkpt>
<trkpt lat="44.17460398748517" lon="5.566504960879684"><ele></ele><time>2015-2-4T11:22:34Z</time></trkpt>
<trkpt lat="44.174736924469471" lon="5.565879922360182"><ele></ele><time>2015-2-4T11:22:37Z</time></trkpt>
<trkpt lat="44.174705995246768" lon="5.565259996801615"><ele></ele><time>2015-2-4T11:22:40Z</time></trkpt>
<trkpt lat="44.174438947811723" lon="5.56471198797226"><ele></ele><time>2015-2-4T11:22:43Z</time></trkpt>
<trkpt lat="44.174355966970325" lon="5.564161967486143"><ele></ele><time>2015-2-4T11:22:46Z</time></trkpt>
<trkpt lat="44.174586972221732" lon="5.563630973920226"><ele></ele><time>2015-2-4T11:22:49Z</time></trkpt>
<trkpt lat="44.175036996603012" lon="5.563435927033424"><ele></ele><time>2015-2-4T11:22:52Z</time></trkpt>
<trkpt lat="44.174909926950932" lon="5.562804937362671"><ele></ele><time>2015-2-4T11:22:55Z</time></trkpt>
<trkpt lat="44.174581943079829" lon="5.562175959348679"><ele></ele><time>2015-2-4T11:22:58Z</time></trkpt>
<trkpt lat="44.17425898835063" lon="5.561467939987779"><ele></ele><time>2015-2-4T11:23:1Z</time></trkpt>
<trkpt lat="44.173944918438792" lon="5.560756986960769"><ele></ele><time>2015-2-4T11:23:4Z</time></trkpt>
<trkpt lat="44.173610983416438" lon="5.560158938169479"><ele></ele><time>2015-2-4T11:23:7Z</time></trkpt>
<trkpt lat="44.173156935721636" lon="5.559699945151806"><ele></ele><time>2015-2-4T11:23:10Z</time></trkpt>
<trkpt lat="44.172714957967401" lon="5.559523925185204"><ele></ele><time>2015-2-4T11:23:13Z</time></trkpt>
<trkpt lat="44.17224096134305" lon="5.559584945440292"><ele></ele><time>2015-2-4T11:23:16Z</time></trkpt>
<trkpt lat="44.171700999140739" lon="5.559422923251987"><ele></ele><time>2015-2-4T11:23:19Z</time></trkpt>
<trkpt lat="44.171237982809544" lon="5.559395933523774"><ele></ele><time>2015-2-4T11:23:22Z</time></trkpt>
<trkpt lat="44.170688968151808" lon="5.559476986527443"><ele></ele><time>2015-2-4T11:23:25Z</time></trkpt>
<trkpt lat="44.170224945992231" lon="5.559223936870694"><ele></ele><time>2015-2-4T11:23:28Z</time></trkpt>
<trkpt lat="44.169774921610951" lon="5.55906392633915"><ele></ele><time>2015-2-4T11:23:31Z</time></trkpt>
<trkpt lat="44.169317940250039" lon="5.559024950489402"><ele></ele><time>2015-2-4T11:23:34Z</time></trkpt>
<trkpt lat="44.168809996917844" lon="5.558971976861358"><ele></ele><time>2015-2-4T11:23:37Z</time></trkpt>
<trkpt lat="44.168274980038404" lon="5.558764943853021"><ele></ele><time>2015-2-4T11:23:40Z</time></trkpt>
<trkpt lat="44.167779944837093" lon="5.558445928618312"><ele></ele><time>2015-2-4T11:23:43Z</time></trkpt>
<trkpt lat="44.167508957907557" lon="5.557948965579271"><ele></ele><time>2015-2-4T11:23:46Z</time></trkpt>
<trkpt lat="44.167483979836106" lon="5.557462982833386"><ele></ele><time>2015-2-4T11:23:49Z</time></trkpt>
<trkpt lat="44.167200922966003" lon="5.558049967512488"><ele></ele><time>2015-2-4T11:23:52Z</time></trkpt>
<trkpt lat="44.166807979345322" lon="5.558468978852034"><ele></ele><time>2015-2-4T11:23:55Z</time></trkpt>
<trkpt lat="44.166266927495599" lon="5.558917997404933"><ele></ele><time>2015-2-4T11:23:58Z</time></trkpt>
<trkpt lat="44.165392946451902" lon="5.559250926598907"><ele></ele><time>2015-2-4T11:24:1Z</time></trkpt>
<trkpt lat="44.164731949567795" lon="5.559418983757496"><ele></ele><time>2015-2-4T11:24:4Z</time></trkpt>
<trkpt lat="44.164171954616904" lon="5.559674967080355"><ele></ele><time>2015-2-4T11:24:7Z</time></trkpt>
<trkpt lat="44.163692928850651" lon="5.559697933495045"><ele></ele><time>2015-2-4T11:24:10Z</time></trkpt>
<trkpt lat="44.163079960271716" lon="5.559898931533098"><ele></ele><time>2015-2-4T11:24:13Z</time></trkpt>
<trkpt lat="44.162692967802286" lon="5.560221970081329"><ele></ele><time>2015-2-4T11:24:16Z</time></trkpt>
<trkpt lat="44.162297928705812" lon="5.560681968927383"><ele></ele><time>2015-2-4T11:24:19Z</time></trkpt>
<trkpt lat="44.16233598254621" lon="5.560013931244612"><ele></ele><time>2015-2-4T11:24:22Z</time></trkpt>
<trkpt lat="44.16197195649147" lon="5.560181988403201"><ele></ele><time>2015-2-4T11:24:25Z</time></trkpt>
<trkpt lat="44.161676997318864" lon="5.560707952827215"><ele></ele><time>2015-2-4T11:24:28Z</time></trkpt>
<trkpt lat="44.161597955971956" lon="5.561491996049881"><ele></ele><time>2015-2-4T11:24:31Z</time></trkpt>
<trkpt lat="44.161378936842084" lon="5.562348961830139"><ele></ele><time>2015-2-4T11:24:34Z</time></trkpt>
<trkpt lat="44.160784995183349" lon="5.563092939555645"><ele></ele><time>2015-2-4T11:24:37Z</time></trkpt>
<trkpt lat="44.160089967772365" lon="5.563592920079827"><ele></ele><time>2015-2-4T11:24:40Z</time></trkpt>
<trkpt lat="44.159560985863209" lon="5.563713954761624"><ele></ele><time>2015-2-4T11:24:43Z</time></trkpt>
<trkpt lat="44.158901916816831" lon="5.563802970573306"><ele></ele><time>2015-2-4T11:24:46Z</time></trkpt>
<trkpt lat="44.158393973484635" lon="5.564193986356258"><ele></ele><time>2015-2-4T11:24:49Z</time></trkpt>
<trkpt lat="44.157992983236909" lon="5.564524987712503"><ele></ele><time>2015-2-4T11:24:52Z</time></trkpt>
<trkpt lat="44.157509934157133" lon="5.564119974151254"><ele></ele><time>2015-2-4T11:24:55Z</time></trkpt>
<trkpt lat="44.157014982774854" lon="5.564039926975966"><ele></ele><time>2015-2-4T11:24:58Z</time></trkpt>
<trkpt lat="44.1562579292804" lon="5.564871998503804"><ele></ele><time>2015-2-4T11:25:1Z</time></trkpt>
<trkpt lat="44.155753925442696" lon="5.565033936873078"><ele></ele><time>2015-2-4T11:25:4Z</time></trkpt>
<trkpt lat="44.155215974897146" lon="5.565116917714477"><ele></ele><time>2015-2-4T11:25:7Z</time></trkpt>
<trkpt lat="44.154366971924901" lon="5.564790945500135"><ele></ele><time>2015-2-4T11:25:10Z</time></trkpt>
<trkpt lat="44.153840923681855" lon="5.56475892663002"><ele></ele><time>2015-2-4T11:25:13Z</time></trkpt>
<trkpt lat="44.152763932943344" lon="5.56516494601965"><ele></ele><time>2015-2-4T11:25:16Z</time></trkpt>
<trkpt lat="44.152252972126007" lon="5.56527491658926"><ele></ele><time>2015-2-4T11:25:19Z</time></trkpt>
<trkpt lat="44.151802947744727" lon="5.565566942095757"><ele></ele><time>2015-2-4T11:25:22Z</time></trkpt>
<trkpt lat="44.151203976944089" lon="5.566403958946466"><ele></ele><time>2015-2-4T11:25:25Z</time></trkpt>
<trkpt lat="44.150586985051632" lon="5.567576922476292"><ele></ele><time>2015-2-4T11:25:28Z</time></trkpt>
<trkpt lat="44.150043921545148" lon="5.568275973200798"><ele></ele><time>2015-2-4T11:25:31Z</time></trkpt>
<trkpt lat="44.149409998208284" lon="5.568890953436494"><ele></ele><time>2015-2-4T11:25:34Z</time></trkpt>
<trkpt lat="44.14869493804872" lon="5.569372996687889"><ele></ele><time>2015-2-4T11:25:37Z</time></trkpt>
<trkpt lat="44.148226976394653" lon="5.569475926458836"><ele></ele><time>2015-2-4T11:25:40Z</time></trkpt>
<trkpt lat="44.14699693210423" lon="5.569630991667509"><ele></ele><time>2015-2-4T11:25:43Z</time></trkpt>
<trkpt lat="44.14598498493433" lon="5.569687988609076"><ele></ele><time>2015-2-4T11:25:46Z</time></trkpt>
<trkpt lat="44.145371932536364" lon="5.56967793032527"><ele></ele><time>2015-2-4T11:25:49Z</time></trkpt>
<trkpt lat="44.144771955907345" lon="5.569646917283535"><ele></ele><time>2015-2-4T11:25:52Z</time></trkpt>
<trkpt lat="44.143672920763493" lon="5.569543987512589"><ele></ele><time>2015-2-4T11:25:55Z</time></trkpt>
<trkpt lat="44.142574975267053" lon="5.569418929517269"><ele></ele><time>2015-2-4T11:25:58Z</time></trkpt>
<trkpt lat="44.141740975901484" lon="5.569215919822455"><ele></ele><time>2015-2-4T11:26:1Z</time></trkpt>
<trkpt lat="44.140718970447779" lon="5.56870898231864"><ele></ele><time>2015-2-4T11:26:4Z</time></trkpt>
<trkpt lat="44.139612978324294" lon="5.56857998482883"><ele></ele><time>2015-2-4T11:26:7Z</time></trkpt>
<trkpt lat="44.138130974024534" lon="5.568577973172069"><ele></ele><time>2015-2-4T11:26:10Z</time></trkpt>
<trkpt lat="44.137002937495708" lon="5.568573949858546"><ele></ele><time>2015-2-4T11:26:13Z</time></trkpt>
<trkpt lat="44.136386951431632" lon="5.568487951532006"><ele></ele><time>2015-2-4T11:26:16Z</time></trkpt>
<trkpt lat="44.135811952874064" lon="5.568249989300966"><ele></ele><time>2015-2-4T11:26:19Z</time></trkpt>
<trkpt lat="44.135277941823006" lon="5.567923933267593"><ele></ele><time>2015-2-4T11:26:22Z</time></trkpt>
<trkpt lat="44.134722976014018" lon="5.567766940221191"><ele></ele><time>2015-2-4T11:26:25Z</time></trkpt>
<trkpt lat="44.133568955585361" lon="5.56804496794939"><ele></ele><time>2015-2-4T11:26:28Z</time></trkpt>
<trkpt lat="44.132695980370045" lon="5.56836498901248"><ele></ele><time>2015-2-4T11:26:31Z</time></trkpt>
<trkpt lat="44.131977986544371" lon="5.56862692348659"><ele></ele><time>2015-2-4T11:26:34Z</time></trkpt>
<trkpt lat="44.131222944706678" lon="5.568894976750016"><ele></ele><time>2015-2-4T11:26:37Z</time></trkpt>
<trkpt lat="44.130589943379164" lon="5.569126987829804"><ele></ele><time>2015-2-4T11:26:40Z</time></trkpt>
<trkpt lat="44.129842948168516" lon="5.569429993629456"><ele></ele><time>2015-2-4T11:26:43Z</time></trkpt>
<trkpt lat="44.129414968192577" lon="5.569742973893881"><ele></ele><time>2015-2-4T11:26:46Z</time></trkpt>
<trkpt lat="44.128808956593275" lon="5.570183945819736"><ele></ele><time>2015-2-4T11:26:49Z</time></trkpt>
<trkpt lat="44.128226917237043" lon="5.570451999083161"><ele></ele><time>2015-2-4T11:26:52Z</time></trkpt>
<trkpt lat="44.12753096781671" lon="5.570649979636073"><ele></ele><time>2015-2-4T11:26:55Z</time></trkpt>
<trkpt lat="44.126853961497545" lon="5.570896994322538"><ele></ele><time>2015-2-4T11:26:58Z</time></trkpt>
<trkpt lat="44.126195982098579" lon="5.571144931018353"><ele></ele><time>2015-2-4T11:27:1Z</time></trkpt>
<trkpt lat="44.125718967989087" lon="5.571406949311495"><ele></ele><time>2015-2-4T11:27:4Z</time></trkpt>
<trkpt lat="44.125213958323002" lon="5.571839958429337"><ele></ele><time>2015-2-4T11:27:7Z</time></trkpt>
<trkpt lat="44.124768963083625" lon="5.572365922853351"><ele></ele><time>2015-2-4T11:27:10Z</time></trkpt>
<trkpt lat="44.124280968680978" lon="5.573011999949813"><ele></ele><time>2015-2-4T11:27:13Z</time></trkpt>
<trkpt lat="44.123654924333096" lon="5.573633937165141"><ele></ele><time>2015-2-4T11:27:16Z</time></trkpt>
<trkpt lat="44.123156955465674" lon="5.574275990948081"><ele></ele><time>2015-2-4T11:27:19Z</time></trkpt>
<trkpt lat="44.122678935527802" lon="5.574967917054892"><ele></ele><time>2015-2-4T11:27:22Z</time></trkpt>
<trkpt lat="44.122150959447026" lon="5.576190920546651"><ele></ele><time>2015-2-4T11:27:25Z</time></trkpt>
<trkpt lat="44.121608985587955" lon="5.576687967404723"><ele></ele><time>2015-2-4T11:27:28Z</time></trkpt>
<trkpt lat="44.120951928198338" lon="5.576737923547626"><ele></ele><time>2015-2-4T11:27:31Z</time></trkpt>
<trkpt lat="44.120349939912558" lon="5.576427960768342"><ele></ele><time>2015-2-4T11:27:34Z</time></trkpt>
<trkpt lat="44.119913997128606" lon="5.575991934165359"><ele></ele><time>2015-2-4T11:27:37Z</time></trkpt>
<trkpt lat="44.119309997186065" lon="5.57567099109292"><ele></ele><time>2015-2-4T11:27:40Z</time></trkpt>
<trkpt lat="44.118788978084922" lon="5.575727988034487"><ele></ele><time>2015-2-4T11:27:43Z</time></trkpt>
<trkpt lat="44.117982974275947" lon="5.57635897770524"><ele></ele><time>2015-2-4T11:27:46Z</time></trkpt>
<trkpt lat="44.117534961551428" lon="5.576668940484524"><ele></ele><time>2015-2-4T11:27:49Z</time></trkpt>
<trkpt lat="44.116944959387183" lon="5.576892988756299"><ele></ele><time>2015-2-4T11:27:52Z</time></trkpt>
<trkpt lat="44.11644397303462" lon="5.576852923259139"><ele></ele><time>2015-2-4T11:27:55Z</time></trkpt>
<trkpt lat="44.115600921213627" lon="5.576385967433453"><ele></ele><time>2015-2-4T11:27:58Z</time></trkpt>
<trkpt lat="44.11483196541667" lon="5.576081955805421"><ele></ele><time>2015-2-4T11:28:1Z</time></trkpt>
<trkpt lat="44.113785987719893" lon="5.575049975886941"><ele></ele><time>2015-2-4T11:28:4Z</time></trkpt>
<trkpt lat="44.113228926435113" lon="5.574548989534378"><ele></ele><time>2015-2-4T11:28:7Z</time></trkpt>
<trkpt lat="44.112219996750355" lon="5.574254952371121"><ele></ele><time>2015-2-4T11:28:10Z</time></trkpt>
<trkpt lat="44.111775923520327" lon="5.573993939906359"><ele></ele><time>2015-2-4T11:28:13Z</time></trkpt>
<trkpt lat="44.111194973811507" lon="5.573539976030588"><ele></ele><time>2015-2-4T11:28:16Z</time></trkpt>
<trkpt lat="44.110712930560112" lon="5.573261948302388"><ele></ele><time>2015-2-4T11:28:19Z</time></trkpt>
<trkpt lat="44.110218985006213" lon="5.573145942762494"><ele></ele><time>2015-2-4T11:28:22Z</time></trkpt>
<trkpt lat="44.109489927068353" lon="5.573054999113083"><ele></ele><time>2015-2-4T11:28:25Z</time></trkpt>
<trkpt lat="44.108862960711122" lon="5.573118953034282"><ele></ele><time>2015-2-4T11:28:28Z</time></trkpt>
<trkpt lat="44.108239933848381" lon="5.57332799769938"><ele></ele><time>2015-2-4T11:28:31Z</time></trkpt>
<trkpt lat="44.107729978859425" lon="5.573483984917402"><ele></ele><time>2015-2-4T11:28:34Z</time></trkpt>
<trkpt lat="44.107001926749945" lon="5.573294973000884"><ele></ele><time>2015-2-4T11:28:37Z</time></trkpt>
<trkpt lat="44.106189971789718" lon="5.572325941175222"><ele></ele><time>2015-2-4T11:28:40Z</time></trkpt>
<trkpt lat="44.105692924931645" lon="5.571772987022996"><ele></ele><time>2015-2-4T11:28:43Z</time></trkpt>
<trkpt lat="44.105236949399114" lon="5.571333942934871"><ele></ele><time>2015-2-4T11:28:46Z</time></trkpt>
<trkpt lat="44.104567989706993" lon="5.571172926574945"><ele></ele><time>2015-2-4T11:28:49Z</time></trkpt>
<trkpt lat="44.104099944233894" lon="5.571382977068424"><ele></ele><time>2015-2-4T11:28:52Z</time></trkpt>
<trkpt lat="44.103225963190198" lon="5.571608953177929"><ele></ele><time>2015-2-4T11:28:55Z</time></trkpt>
<trkpt lat="44.102676948532462" lon="5.571698974817991"><ele></ele><time>2015-2-4T11:28:58Z</time></trkpt>
<trkpt lat="44.102041935548186" lon="5.571810957044363"><ele></ele><time>2015-2-4T11:29:1Z</time></trkpt>
<trkpt lat="44.101491998881102" lon="5.57195495814085"><ele></ele><time>2015-2-4T11:29:4Z</time></trkpt>
<trkpt lat="44.100967962294817" lon="5.572280930355191"><ele></ele><time>2015-2-4T11:29:7Z</time></trkpt>
<trkpt lat="44.100438980385661" lon="5.572593994438648"><ele></ele><time>2015-2-4T11:29:10Z</time></trkpt>
<trkpt lat="44.099928941577673" lon="5.572679992765188"><ele></ele><time>2015-2-4T11:29:13Z</time></trkpt>
<trkpt lat="44.099500961601734" lon="5.572506990283728"><ele></ele><time>2015-2-4T11:29:16Z</time></trkpt>
<trkpt lat="44.099013973027468" lon="5.571219949051738"><ele></ele><time>2015-2-4T11:29:19Z</time></trkpt>
<trkpt lat="44.098677942529321" lon="5.570573955774307"><ele></ele><time>2015-2-4T11:29:22Z</time></trkpt>
<trkpt lat="44.097970928996801" lon="5.56995696388185"><ele></ele><time>2015-2-4T11:29:25Z</time></trkpt>
<trkpt lat="44.09755895845592" lon="5.569285992532969"><ele></ele><time>2015-2-4T11:29:28Z</time></trkpt>
<trkpt lat="44.097189987078309" lon="5.567751936614513"><ele></ele><time>2015-2-4T11:29:31Z</time></trkpt>
<trkpt lat="44.096961999312043" lon="5.5672069452703"><ele></ele><time>2015-2-4T11:29:34Z</time></trkpt>
<trkpt lat="44.09633494913578" lon="5.566085949540138"><ele></ele><time>2015-2-4T11:29:37Z</time></trkpt>
<trkpt lat="44.095887942239642" lon="5.56559493765235"><ele></ele><time>2015-2-4T11:29:40Z</time></trkpt>
<trkpt lat="44.094917988404632" lon="5.564716933295131"><ele></ele><time>2015-2-4T11:29:43Z</time></trkpt>
<trkpt lat="44.094070997089148" lon="5.563957951962948"><ele></ele><time>2015-2-4T11:29:46Z</time></trkpt>
<trkpt lat="44.093728931620717" lon="5.563369961455464"><ele></ele><time>2015-2-4T11:29:49Z</time></trkpt>
<trkpt lat="44.093253929167986" lon="5.562063977122307"><ele></ele><time>2015-2-4T11:29:52Z</time></trkpt>
<trkpt lat="44.092992916703224" lon="5.561389988288283"><ele></ele><time>2015-2-4T11:29:55Z</time></trkpt>
<trkpt lat="44.092686977237463" lon="5.560850948095322"><ele></ele><time>2015-2-4T11:29:58Z</time></trkpt>
<trkpt lat="44.091963954269886" lon="5.559719977900386"><ele></ele><time>2015-2-4T11:30:1Z</time></trkpt>
<trkpt lat="44.091554917395115" lon="5.559261990711093"><ele></ele><time>2015-2-4T11:30:4Z</time></trkpt>
<trkpt lat="44.091039933264256" lon="5.558880949392915"><ele></ele><time>2015-2-4T11:30:7Z</time></trkpt>
<trkpt lat="44.090201994404197" lon="5.558401923626661"><ele></ele><time>2015-2-4T11:30:10Z</time></trkpt>
<trkpt lat="44.089718945324421" lon="5.558069916442037"><ele></ele><time>2015-2-4T11:30:13Z</time></trkpt>
<trkpt lat="44.088960969820619" lon="5.55719492956996"><ele></ele><time>2015-2-4T11:30:16Z</time></trkpt>
<trkpt lat="44.088523937389255" lon="5.556677933782339"><ele></ele><time>2015-2-4T11:30:19Z</time></trkpt>
<trkpt lat="44.087985986843705" lon="5.556035963818431"><ele></ele><time>2015-2-4T11:30:22Z</time></trkpt>
<trkpt lat="44.087156932801008" lon="5.555048994719982"><ele></ele><time>2015-2-4T11:30:25Z</time></trkpt>
<trkpt lat="44.08668695949018" lon="5.554391937330365"><ele></ele><time>2015-2-4T11:30:28Z</time></trkpt>
<trkpt lat="44.086314970627427" lon="5.55366899818182"><ele></ele><time>2015-2-4T11:30:31Z</time></trkpt>
<trkpt lat="44.085854971781373" lon="5.552679933607578"><ele></ele><time>2015-2-4T11:30:34Z</time></trkpt>
<trkpt lat="44.085150975733995" lon="5.551667986437678"><ele></ele><time>2015-2-4T11:30:37Z</time></trkpt>
<trkpt lat="44.084727941080928" lon="5.551144955679774"><ele></ele><time>2015-2-4T11:30:40Z</time></trkpt>
<trkpt lat="44.084382941946387" lon="5.550725944340229"><ele></ele><time>2015-2-4T11:30:43Z</time></trkpt>
<trkpt lat="44.084087982773781" lon="5.55021096020937"><ele></ele><time>2015-2-4T11:30:46Z</time></trkpt>
<trkpt lat="44.083887990564108" lon="5.549563961103559"><ele></ele><time>2015-2-4T11:30:49Z</time></trkpt>
<trkpt lat="44.08404297195375" lon="5.548774972558022"><ele></ele><time>2015-2-4T11:30:52Z</time></trkpt>
<trkpt lat="44.083688920363784" lon="5.548511948436499"><ele></ele><time>2015-2-4T11:30:55Z</time></trkpt>
<trkpt lat="44.083455987274647" lon="5.548121938481927"><ele></ele><time>2015-2-4T11:30:58Z</time></trkpt>
<trkpt lat="44.083109982311726" lon="5.547828990966082"><ele></ele><time>2015-2-4T11:31:1Z</time></trkpt>
<trkpt lat="44.082661969587207" lon="5.547830918803811"><ele></ele><time>2015-2-4T11:31:4Z</time></trkpt>
<trkpt lat="44.081957973539829" lon="5.547536965459585"><ele></ele><time>2015-2-4T11:31:7Z</time></trkpt>
<trkpt lat="44.082315964624286" lon="5.547240916639566"><ele></ele><time>2015-2-4T11:31:10Z</time></trkpt>
<trkpt lat="44.08249894157052" lon="5.546447988599539"><ele></ele><time>2015-2-4T11:31:13Z</time></trkpt>
<trkpt lat="44.082747967913747" lon="5.545385917648673"><ele></ele><time>2015-2-4T11:31:16Z</time></trkpt>
<trkpt lat="44.082481926307082" lon="5.544273974373937"><ele></ele><time>2015-2-4T11:31:19Z</time></trkpt>
<trkpt lat="44.082152936607599" lon="5.543777933344245"><ele></ele><time>2015-2-4T11:31:22Z</time></trkpt>
<trkpt lat="44.081353973597288" lon="5.543363951146603"><ele></ele><time>2015-2-4T11:31:25Z</time></trkpt>
<trkpt lat="44.080686941742897" lon="5.543040996417403"><ele></ele><time>2015-2-4T11:31:28Z</time></trkpt>
<trkpt lat="44.080229960381985" lon="5.542729943990707"><ele></ele><time>2015-2-4T11:31:31Z</time></trkpt>
<trkpt lat="44.079649932682514" lon="5.542141953483224"><ele></ele><time>2015-2-4T11:31:34Z</time></trkpt>
<trkpt lat="44.079061942175031" lon="5.541457990184426"><ele></ele><time>2015-2-4T11:31:37Z</time></trkpt>
<trkpt lat="44.078455930575728" lon="5.540668917819858"><ele></ele><time>2015-2-4T11:31:40Z</time></trkpt>
<trkpt lat="44.077914962545037" lon="5.539972968399525"><ele></ele><time>2015-2-4T11:31:43Z</time></trkpt>
<trkpt lat="44.077464938163757" lon="5.539526967331767"><ele></ele><time>2015-2-4T11:31:46Z</time></trkpt>
<trkpt lat="44.076752979308367" lon="5.538913998752832"><ele></ele><time>2015-2-4T11:31:49Z</time></trkpt>
<trkpt lat="44.07620295882225" lon="5.538447964936495"><ele></ele><time>2015-2-4T11:31:52Z</time></trkpt>
<trkpt lat="44.075797945261002" lon="5.538103971630335"><ele></ele><time>2015-2-4T11:31:55Z</time></trkpt>
<trkpt lat="44.075378933921456" lon="5.537732988595963"><ele></ele><time>2015-2-4T11:31:58Z</time></trkpt>
<trkpt lat="44.075011974200606" lon="5.537306936457753"><ele></ele><time>2015-2-4T11:32:1Z</time></trkpt>
<trkpt lat="44.074679967015982" lon="5.536753982305527"><ele></ele><time>2015-2-4T11:32:4Z</time></trkpt>
<trkpt lat="44.073978988453746" lon="5.535723930224776"><ele></ele><time>2015-2-4T11:32:7Z</time></trkpt>
<trkpt lat="44.073544973507524" lon="5.535156978294253"><ele></ele><time>2015-2-4T11:32:10Z</time></trkpt>
<trkpt lat="44.0727449208498" lon="5.534114940091968"><ele></ele><time>2015-2-4T11:32:13Z</time></trkpt>
<trkpt lat="44.072030950337648" lon="5.533227967098355"><ele></ele><time>2015-2-4T11:32:16Z</time></trkpt>
<trkpt lat="44.071464920416474" lon="5.532705942168832"><ele></ele><time>2015-2-4T11:32:19Z</time></trkpt>
<trkpt lat="44.07089595682919" lon="5.532313920557499"><ele></ele><time>2015-2-4T11:32:22Z</time></trkpt>
<trkpt lat="44.070365969091654" lon="5.532052991911769"><ele></ele><time>2015-2-4T11:32:25Z</time></trkpt>
<trkpt lat="44.069657949730754" lon="5.531707992777228"><ele></ele><time>2015-2-4T11:32:28Z</time></trkpt>
<trkpt lat="44.069167943671346" lon="5.53136894479394"><ele></ele><time>2015-2-4T11:32:31Z</time></trkpt>
<trkpt lat="44.067947957664728" lon="5.530519941821694"><ele></ele><time>2015-2-4T11:32:34Z</time></trkpt>
<trkpt lat="44.066958976909518" lon="5.529856933280826"><ele></ele><time>2015-2-4T11:32:37Z</time></trkpt>
<trkpt lat="44.066171916201711" lon="5.529769929125905"><ele></ele><time>2015-2-4T11:32:40Z</time></trkpt>
<trkpt lat="44.0652019623667" lon="5.52988694049418"><ele></ele><time>2015-2-4T11:32:43Z</time></trkpt>
<trkpt lat="44.064596956595778" lon="5.529746962711215"><ele></ele><time>2015-2-4T11:32:46Z</time></trkpt>
<trkpt lat="44.063860941678286" lon="5.529277995228767"><ele></ele><time>2015-2-4T11:32:49Z</time></trkpt>
<trkpt lat="44.063066923990846" lon="5.528797963634133"><ele></ele><time>2015-2-4T11:32:52Z</time></trkpt>
<trkpt lat="44.062611954286695" lon="5.528482971712947"><ele></ele><time>2015-2-4T11:32:55Z</time></trkpt>
<trkpt lat="44.062255974858999" lon="5.528000928461552"><ele></ele><time>2015-2-4T11:32:58Z</time></trkpt>
<trkpt lat="44.061842998489738" lon="5.526957968249917"><ele></ele><time>2015-2-4T11:33:1Z</time></trkpt>
<trkpt lat="44.061561953276396" lon="5.526244919747114"><ele></ele><time>2015-2-4T11:33:4Z</time></trkpt>
<trkpt lat="44.061045963317156" lon="5.525509994477034"><ele></ele><time>2015-2-4T11:33:7Z</time></trkpt>
<trkpt lat="44.060716973617673" lon="5.524845980107784"><ele></ele><time>2015-2-4T11:33:10Z</time></trkpt>
<trkpt lat="44.060660982504487" lon="5.524146929383278"><ele></ele><time>2015-2-4T11:33:13Z</time></trkpt>
<trkpt lat="44.060464929789305" lon="5.522790988907218"><ele></ele><time>2015-2-4T11:33:16Z</time></trkpt>
<trkpt lat="44.060283964499831" lon="5.522034941241145"><ele></ele><time>2015-2-4T11:33:19Z</time></trkpt>
<trkpt lat="44.060088917613029" lon="5.521362964063883"><ele></ele><time>2015-2-4T11:33:22Z</time></trkpt>
<trkpt lat="44.059502938762307" lon="5.520677994936705"><ele></ele><time>2015-2-4T11:33:25Z</time></trkpt>
<trkpt lat="44.058717973530293" lon="5.520653938874602"><ele></ele><time>2015-2-4T11:33:28Z</time></trkpt>
<trkpt lat="44.05821698717773" lon="5.520815961062908"><ele></ele><time>2015-2-4T11:33:31Z</time></trkpt>
<trkpt lat="44.057710971683264" lon="5.520644970238209"><ele></ele><time>2015-2-4T11:33:34Z</time></trkpt>
<trkpt lat="44.057019967585802" lon="5.520016998052597"><ele></ele><time>2015-2-4T11:33:37Z</time></trkpt>
<trkpt lat="44.056536918506026" lon="5.519566973671317"><ele></ele><time>2015-2-4T11:33:40Z</time></trkpt>
<trkpt lat="44.056037943810225" lon="5.51910194568336"><ele></ele><time>2015-2-4T11:33:43Z</time></trkpt>
<trkpt lat="44.055617926642299" lon="5.518755940720439"><ele></ele><time>2015-2-4T11:33:46Z</time></trkpt>
<trkpt lat="44.055039994418621" lon="5.518652927130461"><ele></ele><time>2015-2-4T11:33:49Z</time></trkpt>
<trkpt lat="44.054479999467731" lon="5.518860965967178"><ele></ele><time>2015-2-4T11:33:52Z</time></trkpt>
<trkpt lat="44.053982952609658" lon="5.518880998715758"><ele></ele><time>2015-2-4T11:33:55Z</time></trkpt>
<trkpt lat="44.053502921015024" lon="5.51847598515451"><ele></ele><time>2015-2-4T11:33:58Z</time></trkpt>
<trkpt lat="44.052813928574324" lon="5.517067993059754"><ele></ele><time>2015-2-4T11:34:1Z</time></trkpt>
<trkpt lat="44.052403969690204" lon="5.516207925975323"><ele></ele><time>2015-2-4T11:34:4Z</time></trkpt>
<trkpt lat="44.052099958062172" lon="5.515579953789711"><ele></ele><time>2015-2-4T11:34:7Z</time></trkpt>
<trkpt lat="44.051846992224455" lon="5.515049966052175"><ele></ele><time>2015-2-4T11:34:10Z</time></trkpt>
<trkpt lat="44.0515579842031" lon="5.514562977477908"><ele></ele><time>2015-2-4T11:34:13Z</time></trkpt>
<trkpt lat="44.05119295231998" lon="5.514118988066912"><ele></ele><time>2015-2-4T11:34:16Z</time></trkpt>
<trkpt lat="44.050767989829183" lon="5.513696959242225"><ele></ele><time>2015-2-4T11:34:19Z</time></trkpt>
<trkpt lat="44.050379991531372" lon="5.513337962329388"><ele></ele><time>2015-2-4T11:34:22Z</time></trkpt>
<trkpt lat="44.049852937459946" lon="5.512904953211546"><ele></ele><time>2015-2-4T11:34:25Z</time></trkpt>
<trkpt lat="44.049269976094365" lon="5.512436991557479"><ele></ele><time>2015-2-4T11:34:28Z</time></trkpt>
<trkpt lat="44.048667987808585" lon="5.511936927214265"><ele></ele><time>2015-2-4T11:34:31Z</time></trkpt>
<trkpt lat="44.047906994819641" lon="5.511267967522144"><ele></ele><time>2015-2-4T11:34:34Z</time></trkpt>
<trkpt lat="44.047301989048719" lon="5.51069799810648"><ele></ele><time>2015-2-4T11:34:37Z</time></trkpt>
<trkpt lat="44.046868979930878" lon="5.510254930704832"><ele></ele><time>2015-2-4T11:34:40Z</time></trkpt>
<trkpt lat="44.046485926955938" lon="5.50986198708415"><ele></ele><time>2015-2-4T11:34:43Z</time></trkpt>
<trkpt lat="44.045970942825079" lon="5.509330993518233"><ele></ele><time>2015-2-4T11:34:46Z</time></trkpt>
<trkpt lat="44.045328972861171" lon="5.508671924471855"><ele></ele><time>2015-2-4T11:34:49Z</time></trkpt>
<trkpt lat="44.04479093849659" lon="5.508118970319629"><ele></ele><time>2015-2-4T11:34:52Z</time></trkpt>
<trkpt lat="44.044154919683933" lon="5.507467947900295"><ele></ele><time>2015-2-4T11:34:55Z</time></trkpt>
<trkpt lat="44.043707996606827" lon="5.507000992074609"><ele></ele><time>2015-2-4T11:34:58Z</time></trkpt>
<trkpt lat="44.043072983622551" lon="5.506345946341753"><ele></ele><time>2015-2-4T11:35:1Z</time></trkpt>
<trkpt lat="44.042652966454625" lon="5.505914948880673"><ele></ele><time>2015-2-4T11:35:4Z</time></trkpt>
<trkpt lat="44.042145945131779" lon="5.505389990285039"><ele></ele><time>2015-2-4T11:35:7Z</time></trkpt>
<trkpt lat="44.041731962934136" lon="5.504954969510436"><ele></ele><time>2015-2-4T11:35:10Z</time></trkpt>
<trkpt lat="44.041293924674392" lon="5.50453495234251"><ele></ele><time>2015-2-4T11:35:13Z</time></trkpt>
<trkpt lat="44.040783969685435" lon="5.5041469540447"><ele></ele><time>2015-2-4T11:35:16Z</time></trkpt>
<trkpt lat="44.040283989161253" lon="5.503800949081779"><ele></ele><time>2015-2-4T11:35:19Z</time></trkpt>
<trkpt lat="44.039705973118544" lon="5.503463996574283"><ele></ele><time>2015-2-4T11:35:22Z</time></trkpt>
<trkpt lat="44.039129968732595" lon="5.503164930269122"><ele></ele><time>2015-2-4T11:35:25Z</time></trkpt>
<trkpt lat="44.038413986563683" lon="5.502564953640103"><ele></ele><time>2015-2-4T11:35:28Z</time></trkpt>
<trkpt lat="44.038011990487576" lon="5.50217192620039"><ele></ele><time>2015-2-4T11:35:31Z</time></trkpt>
<trkpt lat="44.037550985813141" lon="5.501717962324619"><ele></ele><time>2015-2-4T11:35:34Z</time></trkpt>
<trkpt lat="44.036936927586794" lon="5.501127960160375"><ele></ele><time>2015-2-4T11:35:37Z</time></trkpt>
<trkpt lat="44.036518922075629" lon="5.500714983791113"><ele></ele><time>2015-2-4T11:35:40Z</time></trkpt>
<trkpt lat="44.035782990977168" lon="5.499981986358762"><ele></ele><time>2015-2-4T11:35:43Z</time></trkpt>
<trkpt lat="44.03533598408103" lon="5.499546965584159"><ele></ele><time>2015-2-4T11:35:46Z</time></trkpt>
<trkpt lat="44.034841954708099" lon="5.49907498061657"><ele></ele><time>2015-2-4T11:35:49Z</time></trkpt>
<trkpt lat="44.034105939790606" lon="5.498362937942147"><ele></ele><time>2015-2-4T11:35:52Z</time></trkpt>
<trkpt lat="44.033675948157907" lon="5.497669922187924"><ele></ele><time>2015-2-4T11:35:55Z</time></trkpt>
<trkpt lat="44.033405967056751" lon="5.497155943885446"><ele></ele><time>2015-2-4T11:35:58Z</time></trkpt>
<trkpt lat="44.032882936298847" lon="5.49617794342339"><ele></ele><time>2015-2-4T11:36:1Z</time></trkpt>
<trkpt lat="44.032326964661479" lon="5.495142946019769"><ele></ele><time>2015-2-4T11:36:4Z</time></trkpt>
<trkpt lat="44.032042985782027" lon="5.494615975767374"><ele></ele><time>2015-2-4T11:36:7Z</time></trkpt>
<trkpt lat="44.031723970547318" lon="5.494012981653214"><ele></ele><time>2015-2-4T11:36:10Z</time></trkpt>
<trkpt lat="44.031283920630813" lon="5.493175964802504"><ele></ele><time>2015-2-4T11:36:13Z</time></trkpt>
<trkpt lat="44.030979992821813" lon="5.492491917684674"><ele></ele><time>2015-2-4T11:36:16Z</time></trkpt>
<trkpt lat="44.030517982318997" lon="5.492001995444298"><ele></ele><time>2015-2-4T11:36:19Z</time></trkpt>
<trkpt lat="44.030061922967434" lon="5.491975927725434"><ele></ele><time>2015-2-4T11:36:22Z</time></trkpt>
<trkpt lat="44.029757995158434" lon="5.491752969101071"><ele></ele><time>2015-2-4T11:36:25Z</time></trkpt>
<trkpt lat="44.029404949396849" lon="5.491216946393251"><ele></ele><time>2015-2-4T11:36:28Z</time></trkpt>
<trkpt lat="44.029036983847618" lon="5.490831965580583"><ele></ele><time>2015-2-4T11:36:31Z</time></trkpt>
<trkpt lat="44.028544966131449" lon="5.490906983613968"><ele></ele><time>2015-2-4T11:36:34Z</time></trkpt>
<trkpt lat="44.027968961745501" lon="5.49091293476522"><ele></ele><time>2015-2-4T11:36:37Z</time></trkpt>
<trkpt lat="44.028062922880054" lon="5.491452980786562"><ele></ele><time>2015-2-4T11:36:40Z</time></trkpt>
<trkpt lat="44.027962926775217" lon="5.491115944460034"><ele></ele><time>2015-2-4T11:36:43Z</time></trkpt>
<trkpt lat="44.028289988636971" lon="5.491063976660371"><ele></ele><time>2015-2-4T11:36:46Z</time></trkpt>
<trkpt lat="44.02859098277986" lon="5.49136396497488"><ele></ele><time>2015-2-4T11:36:49Z</time></trkpt>
<trkpt lat="44.028797931969166" lon="5.491788927465677"><ele></ele><time>2015-2-4T11:36:52Z</time></trkpt>
<trkpt lat="44.028697935864329" lon="5.492268959060311"><ele></ele><time>2015-2-4T11:36:55Z</time></trkpt>
<trkpt lat="44.028276996687055" lon="5.492490995675325"><ele></ele><time>2015-2-4T11:36:58Z</time></trkpt>
<trkpt lat="44.027680959552526" lon="5.492849992588162"><ele></ele><time>2015-2-4T11:37:1Z</time></trkpt>
<trkpt lat="44.027415923774242" lon="5.493794968351722"><ele></ele><time>2015-2-4T11:37:4Z</time></trkpt>
<trkpt lat="44.027399998158216" lon="5.494582951068878"><ele></ele><time>2015-2-4T11:37:7Z</time></trkpt>
<trkpt lat="44.027462946251035" lon="5.49548995681107"><ele></ele><time>2015-2-4T11:37:10Z</time></trkpt>
<trkpt lat="44.027453977614641" lon="5.496561918407679"><ele></ele><time>2015-2-4T11:37:13Z</time></trkpt>
<trkpt lat="44.027235964313149" lon="5.497733959928155"><ele></ele><time>2015-2-4T11:37:16Z</time></trkpt>
<trkpt lat="44.027055921033025" lon="5.498631997033954"><ele></ele><time>2015-2-4T11:37:19Z</time></trkpt>
<trkpt lat="44.026918960735202" lon="5.499299950897694"><ele></ele><time>2015-2-4T11:37:22Z</time></trkpt>
<trkpt lat="44.02633298188448" lon="5.500373924151063"><ele></ele><time>2015-2-4T11:37:25Z</time></trkpt>
<trkpt lat="44.026129972189665" lon="5.501000974327326"><ele></ele><time>2015-2-4T11:37:28Z</time></trkpt>
<trkpt lat="44.025858985260129" lon="5.501711927354336"><ele></ele><time>2015-2-4T11:37:31Z</time></trkpt>
<trkpt lat="44.02549697086215" lon="5.502346940338612"><ele></ele><time>2015-2-4T11:37:34Z</time></trkpt>
<trkpt lat="44.025177955627441" lon="5.502904923632741"><ele></ele><time>2015-2-4T11:37:37Z</time></trkpt>
<trkpt lat="44.024700941517949" lon="5.503698941320181"><ele></ele><time>2015-2-4T11:37:40Z</time></trkpt>
<trkpt lat="44.024382932111621" lon="5.504273939877749"><ele></ele><time>2015-2-4T11:37:43Z</time></trkpt>
<trkpt lat="44.023859985172749" lon="5.505191925913096"><ele></ele><time>2015-2-4T11:37:46Z</time></trkpt>
<trkpt lat="44.023465951904655" lon="5.505896927788854"><ele></ele><time>2015-2-4T11:37:49Z</time></trkpt>
<trkpt lat="44.022990949451923" lon="5.506828995421529"><ele></ele><time>2015-2-4T11:37:52Z</time></trkpt>
<trkpt lat="44.022694984450936" lon="5.507483957335353"><ele></ele><time>2015-2-4T11:37:55Z</time></trkpt>
<trkpt lat="44.02201596647501" lon="5.508185941725969"><ele></ele><time>2015-2-4T11:37:58Z</time></trkpt>
<trkpt lat="44.021643977612257" lon="5.508584920316935"><ele></ele><time>2015-2-4T11:38:1Z</time></trkpt>
<trkpt lat="44.021304929628968" lon="5.509028993546963"><ele></ele><time>2015-2-4T11:38:4Z</time></trkpt>
<trkpt lat="44.020942999050021" lon="5.509550934657455"><ele></ele><time>2015-2-4T11:38:7Z</time></trkpt>
<trkpt lat="44.020587941631675" lon="5.510130962356925"><ele></ele><time>2015-2-4T11:38:10Z</time></trkpt>
<trkpt lat="44.020246965810657" lon="5.510828923434019"><ele></ele><time>2015-2-4T11:38:13Z</time></trkpt>
<trkpt lat="44.019765928387642" lon="5.511883953586221"><ele></ele><time>2015-2-4T11:38:16Z</time></trkpt>
<trkpt lat="44.019410954788327" lon="5.512532964348793"><ele></ele><time>2015-2-4T11:38:19Z</time></trkpt>
<trkpt lat="44.01907098479569" lon="5.512944934889674"><ele></ele><time>2015-2-4T11:38:22Z</time></trkpt>
<trkpt lat="44.018245954066515" lon="5.513838948681951"><ele></ele><time>2015-2-4T11:38:25Z</time></trkpt>
<trkpt lat="44.01750692166388" lon="5.514640929177404"><ele></ele><time>2015-2-4T11:38:28Z</time></trkpt>
<trkpt lat="44.016660936176777" lon="5.51555497571826"><ele></ele><time>2015-2-4T11:38:31Z</time></trkpt>
<trkpt lat="44.015779998153448" lon="5.516507998108864"><ele></ele><time>2015-2-4T11:38:34Z</time></trkpt>
<trkpt lat="44.01526995934546" lon="5.51706095226109"><ele></ele><time>2015-2-4T11:38:37Z</time></trkpt>
<trkpt lat="44.014729997143149" lon="5.517652966082096"><ele></ele><time>2015-2-4T11:38:40Z</time></trkpt>
<trkpt lat="44.014113927260041" lon="5.518344976007938"><ele></ele><time>2015-2-4T11:38:43Z</time></trkpt>
<trkpt lat="44.013600954785943" lon="5.51890698261559"><ele></ele><time>2015-2-4T11:38:46Z</time></trkpt>
<trkpt lat="44.013008940964937" lon="5.519554987549782"><ele></ele><time>2015-2-4T11:38:49Z</time></trkpt>
<trkpt lat="44.012592947110534" lon="5.51995899528265"><ele></ele><time>2015-2-4T11:38:52Z</time></trkpt>
<trkpt lat="44.011922981590033" lon="5.520496945828199"><ele></ele><time>2015-2-4T11:38:55Z</time></trkpt>
<trkpt lat="44.011088982224464" lon="5.521148974075913"><ele></ele><time>2015-2-4T11:38:58Z</time></trkpt>
<trkpt lat="44.010314997285604" lon="5.521762948483229"><ele></ele><time>2015-2-4T11:39:1Z</time></trkpt>
<trkpt lat="44.009617958217859" lon="5.522342976182699"><ele></ele><time>2015-2-4T11:39:4Z</time></trkpt>
<trkpt lat="44.009163994342089" lon="5.522833988070488"><ele></ele><time>2015-2-4T11:39:7Z</time></trkpt>
<trkpt lat="44.008721932768822" lon="5.523381996899843"><ele></ele><time>2015-2-4T11:39:10Z</time></trkpt>
<trkpt lat="44.007908971980214" lon="5.524422945454717"><ele></ele><time>2015-2-4T11:39:13Z</time></trkpt>
<trkpt lat="44.007395999506116" lon="5.525074973702431"><ele></ele><time>2015-2-4T11:39:16Z</time></trkpt>
<trkpt lat="44.006807925179601" lon="5.525815933942795"><ele></ele><time>2015-2-4T11:39:19Z</time></trkpt>
<trkpt lat="44.006351949647069" lon="5.526327984407544"><ele></ele><time>2015-2-4T11:39:22Z</time></trkpt>
<trkpt lat="44.005936961621046" lon="5.526580950245261"><ele></ele><time>2015-2-4T11:39:25Z</time></trkpt>
<trkpt lat="44.005127940326929" lon="5.526967942714691"><ele></ele><time>2015-2-4T11:39:28Z</time></trkpt>
<trkpt lat="44.004319924861193" lon="5.527356946840882"><ele></ele><time>2015-2-4T11:39:31Z</time></trkpt>
<trkpt lat="44.003629926592112" lon="5.527686942368746"><ele></ele><time>2015-2-4T11:39:34Z</time></trkpt>
<trkpt lat="44.003156935796142" lon="5.527913924306631"><ele></ele><time>2015-2-4T11:39:37Z</time></trkpt>
<trkpt lat="44.002625942230225" lon="5.528180971741676"><ele></ele><time>2015-2-4T11:39:40Z</time></trkpt>
<trkpt lat="44.002080950886011" lon="5.528450952842832"><ele></ele><time>2015-2-4T11:39:43Z</time></trkpt>
<trkpt lat="44.001509975641966" lon="5.528730992227793"><ele></ele><time>2015-2-4T11:39:46Z</time></trkpt>
<trkpt lat="44.000542955473065" lon="5.529205994680524"><ele></ele><time>2015-2-4T11:39:49Z</time></trkpt>
<trkpt lat="43.999596973881125" lon="5.52967194467783"><ele></ele><time>2015-2-4T11:39:52Z</time></trkpt>
<trkpt lat="43.998948968946934" lon="5.5299929715693"><ele></ele><time>2015-2-4T11:39:55Z</time></trkpt>
<trkpt lat="43.998204991221428" lon="5.530367977917194"><ele></ele><time>2015-2-4T11:39:58Z</time></trkpt>
<trkpt lat="43.997515998780727" lon="5.53070199675858"><ele></ele><time>2015-2-4T11:40:1Z</time></trkpt>
<trkpt lat="43.99698793888092" lon="5.530894948169589"><ele></ele><time>2015-2-4T11:40:4Z</time></trkpt>
<trkpt lat="43.99638494476676" lon="5.530626978725195"><ele></ele><time>2015-2-4T11:40:7Z</time></trkpt>
<trkpt lat="43.996048998087645" lon="5.529870931059122"><ele></ele><time>2015-2-4T11:40:10Z</time></trkpt>
<trkpt lat="43.995861997827888" lon="5.528981946408749"><ele></ele><time>2015-2-4T11:40:13Z</time></trkpt>
<trkpt lat="43.995564943179488" lon="5.528084998950362"><ele></ele><time>2015-2-4T11:40:16Z</time></trkpt>
<trkpt lat="43.995082983747125" lon="5.52838196977973"><ele></ele><time>2015-2-4T11:40:19Z</time></trkpt>
<trkpt lat="43.994943927973509" lon="5.529196942225099"><ele></ele><time>2015-2-4T11:40:22Z</time></trkpt>
<trkpt lat="43.994781989604235" lon="5.529858944937587"><ele></ele><time>2015-2-4T11:40:25Z</time></trkpt>
<trkpt lat="43.994465991854668" lon="5.530967954546213"><ele></ele><time>2015-2-4T11:40:28Z</time></trkpt>
<trkpt lat="43.993638949468732" lon="5.531202983111143"><ele></ele><time>2015-2-4T11:40:31Z</time></trkpt>
<trkpt lat="43.992887930944562" lon="5.53119795396924"><ele></ele><time>2015-2-4T11:40:34Z</time></trkpt>
<trkpt lat="43.992058960720897" lon="5.531180938705802"><ele></ele><time>2015-2-4T11:40:37Z</time></trkpt>
<trkpt lat="43.991366950795054" lon="5.531168952584267"><ele></ele><time>2015-2-4T11:40:40Z</time></trkpt>
<trkpt lat="43.990685921162367" lon="5.53115394897759"><ele></ele><time>2015-2-4T11:40:43Z</time></trkpt>
<trkpt lat="43.989962982013822" lon="5.531136933714151"><ele></ele><time>2015-2-4T11:40:46Z</time></trkpt>
<trkpt lat="43.989288993179798" lon="5.5311119556427"><ele></ele><time>2015-2-4T11:40:49Z</time></trkpt>
<trkpt lat="43.988840980455279" lon="5.531018916517496"><ele></ele><time>2015-2-4T11:40:52Z</time></trkpt>
<trkpt lat="43.98817696608603" lon="5.530444923788309"><ele></ele><time>2015-2-4T11:40:55Z</time></trkpt>
<trkpt lat="43.987756948918104" lon="5.53001694381237"><ele></ele><time>2015-2-4T11:40:58Z</time></trkpt>
<trkpt lat="43.987310947850347" lon="5.529615953564644"><ele></ele><time>2015-2-4T11:41:1Z</time></trkpt>
<trkpt lat="43.986485917121172" lon="5.529592987149954"><ele></ele><time>2015-2-4T11:41:4Z</time></trkpt>
<trkpt lat="43.985980991274118" lon="5.529745956882834"><ele></ele><time>2015-2-4T11:41:7Z</time></trkpt>
<trkpt lat="43.985385959967971" lon="5.529923988506198"><ele></ele><time>2015-2-4T11:41:10Z</time></trkpt>
<trkpt lat="43.984918920323253" lon="5.530061954632402"><ele></ele><time>2015-2-4T11:41:13Z</time></trkpt>
<trkpt lat="43.984473925083876" lon="5.530205955728889"><ele></ele><time>2015-2-4T11:41:16Z</time></trkpt>
<trkpt lat="43.983783926814795" lon="5.530665954574943"><ele></ele><time>2015-2-4T11:41:19Z</time></trkpt>
<trkpt lat="43.983102981001139" lon="5.531046995893121"><ele></ele><time>2015-2-4T11:41:22Z</time></trkpt>
<trkpt lat="43.982648933306336" lon="5.531057976186276"><ele></ele><time>2015-2-4T11:41:25Z</time></trkpt>
<trkpt lat="43.982086926698685" lon="5.530728986486793"><ele></ele><time>2015-2-4T11:41:28Z</time></trkpt>
<trkpt lat="43.981414949521422" lon="5.529948966577649"><ele></ele><time>2015-2-4T11:41:31Z</time></trkpt>
<trkpt lat="43.980910945683718" lon="5.529818963259459"><ele></ele><time>2015-2-4T11:41:34Z</time></trkpt>
<trkpt lat="43.980296971276402" lon="5.531084965914488"><ele></ele><time>2015-2-4T11:41:37Z</time></trkpt>
<trkpt lat="43.980021961033344" lon="5.531711932271719"><ele></ele><time>2015-2-4T11:41:40Z</time></trkpt>
<trkpt lat="43.979229955002666" lon="5.532494969666004"><ele></ele><time>2015-2-4T11:41:43Z</time></trkpt>
<trkpt lat="43.978753946721554" lon="5.532898977398872"><ele></ele><time>2015-2-4T11:41:46Z</time></trkpt>
<trkpt lat="43.978328984230757" lon="5.533305918797851"><ele></ele><time>2015-2-4T11:41:49Z</time></trkpt>
<trkpt lat="43.977826992049813" lon="5.534322978928685"><ele></ele><time>2015-2-4T11:41:52Z</time></trkpt>
<trkpt lat="43.977062981575727" lon="5.535134933888912"><ele></ele><time>2015-2-4T11:41:55Z</time></trkpt>
<trkpt lat="43.976607928052545" lon="5.535302991047502"><ele></ele><time>2015-2-4T11:41:58Z</time></trkpt>
<trkpt lat="43.975806953385472" lon="5.535222943872213"><ele></ele><time>2015-2-4T11:42:1Z</time></trkpt>
<trkpt lat="43.975193984806538" lon="5.53504197858274"><ele></ele><time>2015-2-4T11:42:4Z</time></trkpt>
<trkpt lat="43.974313968792558" lon="5.535177933052182"><ele></ele><time>2015-2-4T11:42:7Z</time></trkpt>
<trkpt lat="43.973790938034654" lon="5.535264937207103"><ele></ele><time>2015-2-4T11:42:10Z</time></trkpt>
<trkpt lat="43.972953921183944" lon="5.5351079441607"><ele></ele><time>2015-2-4T11:42:13Z</time></trkpt>
<trkpt lat="43.972488977015018" lon="5.534911975264549"><ele></ele><time>2015-2-4T11:42:16Z</time></trkpt>
<trkpt lat="43.971959995105863" lon="5.534699996933341"><ele></ele><time>2015-2-4T11:42:19Z</time></trkpt>
<trkpt lat="43.971406957134604" lon="5.534500926733017"><ele></ele><time>2015-2-4T11:42:22Z</time></trkpt>
<trkpt lat="43.970547979697585" lon="5.534241925925016"><ele></ele><time>2015-2-4T11:42:25Z</time></trkpt>
<trkpt lat="43.969732923433185" lon="5.53400999866426"><ele></ele><time>2015-2-4T11:42:28Z</time></trkpt>
<trkpt lat="43.96927191875875" lon="5.533872954547405"><ele></ele><time>2015-2-4T11:42:31Z</time></trkpt>
<trkpt lat="43.968813931569457" lon="5.533752925693989"><ele></ele><time>2015-2-4T11:42:34Z</time></trkpt>
<trkpt lat="43.968291990458965" lon="5.533575983718038"><ele></ele><time>2015-2-4T11:42:37Z</time></trkpt>
<trkpt lat="43.967666951939464" lon="5.533362999558449"><ele></ele><time>2015-2-4T11:42:40Z</time></trkpt>
<trkpt lat="43.967217933386564" lon="5.533197959885001"><ele></ele><time>2015-2-4T11:42:43Z</time></trkpt>
<trkpt lat="43.966596918180585" lon="5.532963937148452"><ele></ele><time>2015-2-4T11:42:46Z</time></trkpt>
<trkpt lat="43.965925946831703" lon="5.532732931897044"><ele></ele><time>2015-2-4T11:42:49Z</time></trkpt>
<trkpt lat="43.96544692106545" lon="5.532505949959159"><ele></ele><time>2015-2-4T11:42:52Z</time></trkpt>
<trkpt lat="43.964675953611732" lon="5.532068917527795"><ele></ele><time>2015-2-4T11:42:55Z</time></trkpt>
<trkpt lat="43.964110929518938" lon="5.531636998057365"><ele></ele><time>2015-2-4T11:42:58Z</time></trkpt>
<trkpt lat="43.963299980387092" lon="5.530889919027686"><ele></ele><time>2015-2-4T11:43:1Z</time></trkpt>
<trkpt lat="43.962795976549387" lon="5.530650950968266"><ele></ele><time>2015-2-4T11:43:4Z</time></trkpt>
<trkpt lat="43.96196692250669" lon="5.530538968741894"><ele></ele><time>2015-2-4T11:43:7Z</time></trkpt>
<trkpt lat="43.961329981684685" lon="5.53033696487546"><ele></ele><time>2015-2-4T11:43:10Z</time></trkpt>
<trkpt lat="43.960564965382218" lon="5.529945949092507"><ele></ele><time>2015-2-4T11:43:13Z</time></trkpt>
<trkpt lat="43.959887959063053" lon="5.529625928029418"><ele></ele><time>2015-2-4T11:43:16Z</time></trkpt>
<trkpt lat="43.9594089332968" lon="5.529589969664812"><ele></ele><time>2015-2-4T11:43:19Z</time></trkpt>
<trkpt lat="43.958600917831063" lon="5.529738999903202"><ele></ele><time>2015-2-4T11:43:22Z</time></trkpt>
<trkpt lat="43.957609925419092" lon="5.529908984899521"><ele></ele><time>2015-2-4T11:43:25Z</time></trkpt>
<trkpt lat="43.956803921610117" lon="5.530046951025724"><ele></ele><time>2015-2-4T11:43:28Z</time></trkpt>
<trkpt lat="43.955736989155412" lon="5.530240992084146"><ele></ele><time>2015-2-4T11:43:31Z</time></trkpt>
<trkpt lat="43.954632924869657" lon="5.530426986515522"><ele></ele><time>2015-2-4T11:43:34Z</time></trkpt>
<trkpt lat="43.954050969332457" lon="5.530425980687141"><ele></ele><time>2015-2-4T11:43:37Z</time></trkpt>
<trkpt lat="43.953502960503101" lon="5.530311986804009"><ele></ele><time>2015-2-4T11:43:40Z</time></trkpt>
<trkpt lat="43.95281195640564" lon="5.530123980715871"><ele></ele><time>2015-2-4T11:43:43Z</time></trkpt>
<trkpt lat="43.951970916241407" lon="5.529919965192676"><ele></ele><time>2015-2-4T11:43:46Z</time></trkpt>
<trkpt lat="43.951166924089193" lon="5.529705975204706"><ele></ele><time>2015-2-4T11:43:49Z</time></trkpt>
<trkpt lat="43.950263941660523" lon="5.529064927250147"><ele></ele><time>2015-2-4T11:43:52Z</time></trkpt>
<trkpt lat="43.949720961973071" lon="5.528734931722283"><ele></ele><time>2015-2-4T11:43:55Z</time></trkpt>
<trkpt lat="43.948832983151078" lon="5.528760999441147"><ele></ele><time>2015-2-4T11:43:58Z</time></trkpt>
<trkpt lat="43.948088921606541" lon="5.528585985302925"><ele></ele><time>2015-2-4T11:44:1Z</time></trkpt>
<trkpt lat="43.947713999077678" lon="5.528211984783411"><ele></ele><time>2015-2-4T11:44:4Z</time></trkpt>
<trkpt lat="43.947112932801247" lon="5.528111988678575"><ele></ele><time>2015-2-4T11:44:7Z</time></trkpt>
<trkpt lat="43.946255967020988" lon="5.52842597477138"><ele></ele><time>2015-2-4T11:44:10Z</time></trkpt>
<trkpt lat="43.945812983438373" lon="5.528234951198101"><ele></ele><time>2015-2-4T11:44:13Z</time></trkpt>
<trkpt lat="43.945028940215707" lon="5.527285952121019"><ele></ele><time>2015-2-4T11:44:16Z</time></trkpt>
<trkpt lat="43.944516973569989" lon="5.526915974915028"><ele></ele><time>2015-2-4T11:44:19Z</time></trkpt>
<trkpt lat="43.943892940878868" lon="5.526397973299027"><ele></ele><time>2015-2-4T11:44:22Z</time></trkpt>
<trkpt lat="43.943842984735966" lon="5.525699928402901"><ele></ele><time>2015-2-4T11:44:25Z</time></trkpt>
<trkpt lat="43.943984974175692" lon="5.52483893930912"><ele></ele><time>2015-2-4T11:44:28Z</time></trkpt>
<trkpt lat="43.943784981966019" lon="5.524136954918504"><ele></ele><time>2015-2-4T11:44:31Z</time></trkpt>
<trkpt lat="43.943226998671889" lon="5.524199986830354"><ele></ele><time>2015-2-4T11:44:34Z</time></trkpt>
<trkpt lat="43.943073945119977" lon="5.52496399730444"><ele></ele><time>2015-2-4T11:44:37Z</time></trkpt>
<trkpt lat="43.9426289498806" lon="5.526343993842602"><ele></ele><time>2015-2-4T11:44:40Z</time></trkpt>
<trkpt lat="43.942271964624524" lon="5.526733919978142"><ele></ele><time>2015-2-4T11:44:43Z</time></trkpt>
<trkpt lat="43.941377950832248" lon="5.527090989053249"><ele></ele><time>2015-2-4T11:44:46Z</time></trkpt>
<trkpt lat="43.940427945926785" lon="5.527394916862249"><ele></ele><time>2015-2-4T11:44:49Z</time></trkpt>
<trkpt lat="43.939614985138178" lon="5.527669927105308"><ele></ele><time>2015-2-4T11:44:52Z</time></trkpt>
<trkpt lat="43.939114920794964" lon="5.528165968134999"><ele></ele><time>2015-2-4T11:44:55Z</time></trkpt>
<trkpt lat="43.938745949417353" lon="5.528658991679549"><ele></ele><time>2015-2-4T11:44:58Z</time></trkpt>
<trkpt lat="43.93831092864275" lon="5.529001979157329"><ele></ele><time>2015-2-4T11:45:1Z</time></trkpt>
<trkpt lat="43.936857925727963" lon="5.529299955815077"><ele></ele><time>2015-2-4T11:45:4Z</time></trkpt>
<trkpt lat="43.935726955533028" lon="5.529463989660144"><ele></ele><time>2015-2-4T11:45:7Z</time></trkpt>
<trkpt lat="43.935172995552421" lon="5.529494918882847"><ele></ele><time>2015-2-4T11:45:10Z</time></trkpt>
<trkpt lat="43.934823973104358" lon="5.529031986370683"><ele></ele><time>2015-2-4T11:45:13Z</time></trkpt>
<trkpt lat="43.934840988367796" lon="5.527910990640521"><ele></ele><time>2015-2-4T11:45:16Z</time></trkpt>
<trkpt lat="43.934711990877986" lon="5.526948999613524"><ele></ele><time>2015-2-4T11:45:19Z</time></trkpt>
<trkpt lat="43.93439993262291" lon="5.526003940030932"><ele></ele><time>2015-2-4T11:45:22Z</time></trkpt>
<trkpt lat="43.933830969035625" lon="5.524411965161562"><ele></ele><time>2015-2-4T11:45:25Z</time></trkpt>
<trkpt lat="43.933596946299076" lon="5.523609984666109"><ele></ele><time>2015-2-4T11:45:28Z</time></trkpt>
<trkpt lat="43.933353954926133" lon="5.522966925054789"><ele></ele><time>2015-2-4T11:45:31Z</time></trkpt>
<trkpt lat="43.932763952761889" lon="5.522049944847822"><ele></ele><time>2015-2-4T11:45:34Z</time></trkpt>
<trkpt lat="43.932331949472427" lon="5.521694971248508"><ele></ele><time>2015-2-4T11:45:37Z</time></trkpt>
<trkpt lat="43.931171977892518" lon="5.52140093408525"><ele></ele><time>2015-2-4T11:45:40Z</time></trkpt>
<trkpt lat="43.930504946038127" lon="5.521221980452538"><ele></ele><time>2015-2-4T11:45:43Z</time></trkpt>
<trkpt lat="43.929745964705944" lon="5.520766926929355"><ele></ele><time>2015-2-4T11:45:46Z</time></trkpt>
<trkpt lat="43.928989917039871" lon="5.520191928371787"><ele></ele><time>2015-2-4T11:45:49Z</time></trkpt>
<trkpt lat="43.928280975669622" lon="5.519664958119392"><ele></ele><time>2015-2-4T11:45:52Z</time></trkpt>
<trkpt lat="43.927830951288342" lon="5.519565967842937"><ele></ele><time>2015-2-4T11:45:55Z</time></trkpt>
<trkpt lat="43.926991922780871" lon="5.519542917609215"><ele></ele><time>2015-2-4T11:45:58Z</time></trkpt>
<trkpt lat="43.926674919202924" lon="5.518959956243634"><ele></ele><time>2015-2-4T11:46:1Z</time></trkpt>
<trkpt lat="43.926451960578561" lon="5.517922947183251"><ele></ele><time>2015-2-4T11:46:4Z</time></trkpt>
<trkpt lat="43.926153983920813" lon="5.516553930938244"><ele></ele><time>2015-2-4T11:46:7Z</time></trkpt>
<trkpt lat="43.926027920097113" lon="5.515928976237774"><ele></ele><time>2015-2-4T11:46:10Z</time></trkpt>
<trkpt lat="43.925767997279763" lon="5.514716953039169"><ele></ele><time>2015-2-4T11:46:13Z</time></trkpt>
<trkpt lat="43.925584936514497" lon="5.513645997270942"><ele></ele><time>2015-2-4T11:46:16Z</time></trkpt>
<trkpt lat="43.925552917644382" lon="5.512478984892368"><ele></ele><time>2015-2-4T11:46:19Z</time></trkpt>
<trkpt lat="43.925552917644382" lon="5.511540966108441"><ele></ele><time>2015-2-4T11:46:22Z</time></trkpt>
<trkpt lat="43.925555935129523" lon="5.510511919856072"><ele></ele><time>2015-2-4T11:46:25Z</time></trkpt>
<trkpt lat="43.925157962366939" lon="5.5095399543643"><ele></ele><time>2015-2-4T11:46:28Z</time></trkpt>
<trkpt lat="43.924654964357615" lon="5.508964955806732"><ele></ele><time>2015-2-4T11:46:31Z</time></trkpt>
<trkpt lat="43.924327986314893" lon="5.508216954767704"><ele></ele><time>2015-2-4T11:46:34Z</time></trkpt>
<trkpt lat="43.924283981323242" lon="5.506632942706347"><ele></ele><time>2015-2-4T11:46:37Z</time></trkpt>
<trkpt lat="43.924308959394693" lon="5.505467941984534"><ele></ele><time>2015-2-4T11:46:40Z</time></trkpt>
<trkpt lat="43.924393951892853" lon="5.503753926604986"><ele></ele><time>2015-2-4T11:46:43Z</time></trkpt>
<trkpt lat="43.924401998519897" lon="5.503000980243087"><ele></ele><time>2015-2-4T11:46:46Z</time></trkpt>
<trkpt lat="43.924698969349265" lon="5.502371918410063"><ele></ele><time>2015-2-4T11:46:49Z</time></trkpt>
<trkpt lat="43.925145976245403" lon="5.502683976665139"><ele></ele><time>2015-2-4T11:46:52Z</time></trkpt>
<trkpt lat="43.925915937870741" lon="5.503236930817366"><ele></ele><time>2015-2-4T11:46:55Z</time></trkpt>
<trkpt lat="43.926420947536826" lon="5.502948928624392"><ele></ele><time>2015-2-4T11:46:58Z</time></trkpt>
<trkpt lat="43.926538964733481" lon="5.502196988090873"><ele></ele><time>2015-2-4T11:47:1Z</time></trkpt>
<trkpt lat="43.926978930830956" lon="5.501336921006441"><ele></ele><time>2015-2-4T11:47:4Z</time></trkpt>
<trkpt lat="43.927045986056328" lon="5.500050969421864"><ele></ele><time>2015-2-4T11:47:7Z</time></trkpt>
<trkpt lat="43.926893938332796" lon="5.49845295958221"><ele></ele><time>2015-2-4T11:47:10Z</time></trkpt>
<trkpt lat="43.926742980256677" lon="5.49746791832149"><ele></ele><time>2015-2-4T11:47:13Z</time></trkpt>
<trkpt lat="43.926733927801251" lon="5.496809938922525"><ele></ele><time>2015-2-4T11:47:16Z</time></trkpt>
<trkpt lat="43.926785979419947" lon="5.495348973199725"><ele></ele><time>2015-2-4T11:47:19Z</time></trkpt>
<trkpt lat="43.926759995520115" lon="5.494545986875892"><ele></ele><time>2015-2-4T11:47:22Z</time></trkpt>
<trkpt lat="43.926592944189906" lon="5.493440916761756"><ele></ele><time>2015-2-4T11:47:25Z</time></trkpt>
<trkpt lat="43.926368979737163" lon="5.492865918204188"><ele></ele><time>2015-2-4T11:47:28Z</time></trkpt>
<trkpt lat="43.926061950623989" lon="5.491978945210576"><ele></ele><time>2015-2-4T11:47:31Z</time></trkpt>
<trkpt lat="43.926078965887427" lon="5.490363920107484"><ele></ele><time>2015-2-4T11:47:34Z</time></trkpt>
<trkpt lat="43.926088940352201" lon="5.489212917163968"><ele></ele><time>2015-2-4T11:47:37Z</time></trkpt>
<trkpt lat="43.925947956740856" lon="5.488553931936622"><ele></ele><time>2015-2-4T11:47:40Z</time></trkpt>
<trkpt lat="43.925513941794634" lon="5.487417932599783"><ele></ele><time>2015-2-4T11:47:43Z</time></trkpt>
<trkpt lat="43.925188975408673" lon="5.486596925184131"><ele></ele><time>2015-2-4T11:47:46Z</time></trkpt>
<trkpt lat="43.924800977110863" lon="5.486256955191493"><ele></ele><time>2015-2-4T11:47:49Z</time></trkpt>
<trkpt lat="43.924319939687848" lon="5.486067943274975"><ele></ele><time>2015-2-4T11:47:52Z</time></trkpt>
<trkpt lat="43.924120953306556" lon="5.485512977465987"><ele></ele><time>2015-2-4T11:47:55Z</time></trkpt>
<trkpt lat="43.92434298992157" lon="5.484696999192238"><ele></ele><time>2015-2-4T11:47:58Z</time></trkpt>
<trkpt lat="43.924057921394706" lon="5.484319981187582"><ele></ele><time>2015-2-4T11:48:1Z</time></trkpt>
<trkpt lat="43.923565987497568" lon="5.483844978734851"><ele></ele><time>2015-2-4T11:48:4Z</time></trkpt>
<trkpt lat="43.922739950940013" lon="5.483101923018694"><ele></ele><time>2015-2-4T11:48:7Z</time></trkpt>
<trkpt lat="43.922140980139375" lon="5.482541928067803"><ele></ele><time>2015-2-4T11:48:10Z</time></trkpt>
<trkpt lat="43.921457938849926" lon="5.481911944225431"><ele></ele><time>2015-2-4T11:48:13Z</time></trkpt>
<trkpt lat="43.920781938359141" lon="5.481284977868199"><ele></ele><time>2015-2-4T11:48:16Z</time></trkpt>
<trkpt lat="43.920327974483371" lon="5.480638984590769"><ele></ele><time>2015-2-4T11:48:19Z</time></trkpt>
<trkpt lat="43.92009194009006" lon="5.47967498190701"><ele></ele><time>2015-2-4T11:48:22Z</time></trkpt>
<trkpt lat="43.920439956709743" lon="5.478627998381853"><ele></ele><time>2015-2-4T11:48:25Z</time></trkpt>
<trkpt lat="43.920784955844283" lon="5.477724932134152"><ele></ele><time>2015-2-4T11:48:28Z</time></trkpt>
<trkpt lat="43.921181922778487" lon="5.476665962487459"><ele></ele><time>2015-2-4T11:48:31Z</time></trkpt>
<trkpt lat="43.921366995200515" lon="5.475797932595015"><ele></ele><time>2015-2-4T11:48:34Z</time></trkpt>
<trkpt lat="43.92129197716713" lon="5.475046997889876"><ele></ele><time>2015-2-4T11:48:37Z</time></trkpt>
<trkpt lat="43.92112098634243" lon="5.474308971315622"><ele></ele><time>2015-2-4T11:48:40Z</time></trkpt>
<trkpt lat="43.921146970242262" lon="5.473532974720001"><ele></ele><time>2015-2-4T11:48:43Z</time></trkpt>
<trkpt lat="43.921342939138412" lon="5.472632925957441"><ele></ele><time>2015-2-4T11:48:46Z</time></trkpt>
<trkpt lat="43.921591965481639" lon="5.471523916348815"><ele></ele><time>2015-2-4T11:48:49Z</time></trkpt>
<trkpt lat="43.921795981004834" lon="5.470657981932163"><ele></ele><time>2015-2-4T11:48:52Z</time></trkpt>
<trkpt lat="43.922029919922352" lon="5.470005953684449"><ele></ele><time>2015-2-4T11:48:55Z</time></trkpt>
<trkpt lat="43.922313982620835" lon="5.469288965687156"><ele></ele><time>2015-2-4T11:48:58Z</time></trkpt>
<trkpt lat="43.922598967328668" lon="5.468595949932933"><ele></ele><time>2015-2-4T11:49:1Z</time></trkpt>
<trkpt lat="43.923070952296257" lon="5.467351991683245"><ele></ele><time>2015-2-4T11:49:4Z</time></trkpt>
<trkpt lat="43.923223922029138" lon="5.466578928753734"><ele></ele><time>2015-2-4T11:49:7Z</time></trkpt>
<trkpt lat="43.923276979476213" lon="5.465453993529081"><ele></ele><time>2015-2-4T11:49:10Z</time></trkpt>
<trkpt lat="43.923293994739652" lon="5.464776987209916"><ele></ele><time>2015-2-4T11:49:13Z</time></trkpt>
<trkpt lat="43.923309920355678" lon="5.463935947045684"><ele></ele><time>2015-2-4T11:49:16Z</time></trkpt>
<trkpt lat="43.923325929790735" lon="5.463171936571598"><ele></ele><time>2015-2-4T11:49:19Z</time></trkpt>
<trkpt lat="43.923334982246161" lon="5.462480932474136"><ele></ele><time>2015-2-4T11:49:22Z</time></trkpt>
<trkpt lat="43.923351997509599" lon="5.461838962510228"><ele></ele><time>2015-2-4T11:49:25Z</time></trkpt>
<trkpt lat="43.923363983631134" lon="5.461080987006426"><ele></ele><time>2015-2-4T11:49:28Z</time></trkpt>
<trkpt lat="43.923410922288895" lon="5.460349917411804"><ele></ele><time>2015-2-4T11:49:31Z</time></trkpt>
<trkpt lat="43.923779977485538" lon="5.459041921421886"><ele></ele><time>2015-2-4T11:49:34Z</time></trkpt>
<trkpt lat="43.924026992172003" lon="5.45831898227334"><ele></ele><time>2015-2-4T11:49:37Z</time></trkpt>
<trkpt lat="43.924297979101539" lon="5.457217935472727"><ele></ele><time>2015-2-4T11:49:40Z</time></trkpt>
<trkpt lat="43.924330919981003" lon="5.456523997709155"><ele></ele><time>2015-2-4T11:49:43Z</time></trkpt>
<trkpt lat="43.924336954951286" lon="5.455599976703525"><ele></ele><time>2015-2-4T11:49:46Z</time></trkpt>
<trkpt lat="43.924355981871486" lon="5.454482920467854"><ele></ele><time>2015-2-4T11:49:49Z</time></trkpt>
<trkpt lat="43.924473999068141" lon="5.453498968854547"><ele></ele><time>2015-2-4T11:49:52Z</time></trkpt>
<trkpt lat="43.924576928839087" lon="5.452645942568779"><ele></ele><time>2015-2-4T11:49:55Z</time></trkpt>
<trkpt lat="43.924606936052442" lon="5.451874975115061"><ele></ele><time>2015-2-4T11:49:58Z</time></trkpt>
<trkpt lat="43.924355981871486" lon="5.451350938528776"><ele></ele><time>2015-2-4T11:50:1Z</time></trkpt>
<trkpt lat="43.923938982188702" lon="5.450810976326466"><ele></ele><time>2015-2-4T11:50:4Z</time></trkpt>
<trkpt lat="43.92410796135664" lon="5.45008996501565"><ele></ele><time>2015-2-4T11:50:7Z</time></trkpt>
<trkpt lat="43.924563936889172" lon="5.44970297254622"><ele></ele><time>2015-2-4T11:50:10Z</time></trkpt>
<trkpt lat="43.925149999558926" lon="5.449195951223373"><ele></ele><time>2015-2-4T11:50:13Z</time></trkpt>
<trkpt lat="43.925711922347546" lon="5.44871692545712"><ele></ele><time>2015-2-4T11:50:16Z</time></trkpt>
<trkpt lat="43.92614996060729" lon="5.448325993493199"><ele></ele><time>2015-2-4T11:50:19Z</time></trkpt>
<trkpt lat="43.926671985536814" lon="5.447614956647158"><ele></ele><time>2015-2-4T11:50:22Z</time></trkpt>
<trkpt lat="43.927211947739124" lon="5.446711974218488"><ele></ele><time>2015-2-4T11:50:25Z</time></trkpt>
<trkpt lat="43.927751993760467" lon="5.445808991789818"><ele></ele><time>2015-2-4T11:50:28Z</time></trkpt>
<trkpt lat="43.928151978179812" lon="5.44484599493444"><ele></ele><time>2015-2-4T11:50:31Z</time></trkpt>
<trkpt lat="43.928413996472955" lon="5.444084918126464"><ele></ele><time>2015-2-4T11:50:34Z</time></trkpt>
<trkpt lat="43.928729994222522" lon="5.443178918212652"><ele></ele><time>2015-2-4T11:50:37Z</time></trkpt>
<trkpt lat="43.929068958386779" lon="5.442214999347925"><ele></ele><time>2015-2-4T11:50:40Z</time></trkpt>
<trkpt lat="43.929594922810793" lon="5.441323919221759"><ele></ele><time>2015-2-4T11:50:43Z</time></trkpt>
<trkpt lat="43.930191965773702" lon="5.440899962559342"><ele></ele><time>2015-2-4T11:50:46Z</time></trkpt>
<trkpt lat="43.930645929649472" lon="5.440629981458187"><ele></ele><time>2015-2-4T11:50:49Z</time></trkpt>
<trkpt lat="43.931096959859133" lon="5.439872927963734"><ele></ele><time>2015-2-4T11:50:52Z</time></trkpt>
<trkpt lat="43.931318996474147" lon="5.439120987430215"><ele></ele><time>2015-2-4T11:50:55Z</time></trkpt>
<trkpt lat="43.931581936776638" lon="5.43818891979754"><ele></ele><time>2015-2-4T11:50:58Z</time></trkpt>
<trkpt lat="43.931835992261767" lon="5.437266994267702"><ele></ele><time>2015-2-4T11:51:1Z</time></trkpt>
<trkpt lat="43.93201494589448" lon="5.43659895658493"><ele></ele><time>2015-2-4T11:51:4Z</time></trkpt>
<trkpt lat="43.932218961417675" lon="5.435815919190645"><ele></ele><time>2015-2-4T11:51:7Z</time></trkpt>
<trkpt lat="43.932498916983604" lon="5.434788968414068"><ele></ele><time>2015-2-4T11:51:10Z</time></trkpt>
<trkpt lat="43.932658927515149" lon="5.433789929375053"><ele></ele><time>2015-2-4T11:51:13Z</time></trkpt>
<trkpt lat="43.932769987732172" lon="5.43253499083221"><ele></ele><time>2015-2-4T11:51:16Z</time></trkpt>
<trkpt lat="43.932884987443686" lon="5.431821942329407"><ele></ele><time>2015-2-4T11:51:19Z</time></trkpt>
<trkpt lat="43.933232920244336" lon="5.430219992995262"><ele></ele><time>2015-2-4T11:51:22Z</time></trkpt>
<trkpt lat="43.933443976566195" lon="5.429619932547212"><ele></ele><time>2015-2-4T11:51:25Z</time></trkpt>
<trkpt lat="43.933697948232293" lon="5.428964970633388"><ele></ele><time>2015-2-4T11:51:28Z</time></trkpt>
<trkpt lat="43.934167921543121" lon="5.42768094688654"><ele></ele><time>2015-2-4T11:51:31Z</time></trkpt>
<trkpt lat="43.93424796871841" lon="5.427020955830813"><ele></ele><time>2015-2-4T11:51:34Z</time></trkpt>
<trkpt lat="43.934260960668325" lon="5.426160972565413"><ele></ele><time>2015-2-4T11:51:37Z</time></trkpt>
<trkpt lat="43.934280993416905" lon="5.425202921032906"><ele></ele><time>2015-2-4T11:51:40Z</time></trkpt>
<trkpt lat="43.934273952618241" lon="5.424407981336117"><ele></ele><time>2015-2-4T11:51:43Z</time></trkpt>
<trkpt lat="43.934021992608905" lon="5.42359996587038"><ele></ele><time>2015-2-4T11:51:46Z</time></trkpt>
<trkpt lat="43.93371194601059" lon="5.422907955944538"><ele></ele><time>2015-2-4T11:51:49Z</time></trkpt>
<trkpt lat="43.933338951319456" lon="5.421888967975974"><ele></ele><time>2015-2-4T11:51:52Z</time></trkpt>
<trkpt lat="43.933249935507774" lon="5.421008951961994"><ele></ele><time>2015-2-4T11:51:55Z</time></trkpt>
<trkpt lat="43.933413969352841" lon="5.419802963733673"><ele></ele><time>2015-2-4T11:51:58Z</time></trkpt>
<trkpt lat="43.933598957955837" lon="5.419031996279955"><ele></ele><time>2015-2-4T11:52:1Z</time></trkpt>
<trkpt lat="43.933851923793554" lon="5.418112920597196"><ele></ele><time>2015-2-4T11:52:4Z</time></trkpt>
<trkpt lat="43.934063985943794" lon="5.417501963675022"><ele></ele><time>2015-2-4T11:52:7Z</time></trkpt>
<trkpt lat="43.934326926246285" lon="5.416748933494091"><ele></ele><time>2015-2-4T11:52:10Z</time></trkpt>
<trkpt lat="43.934602942317724" lon="5.415962962433696"><ele></ele><time>2015-2-4T11:52:13Z</time></trkpt>
<trkpt lat="43.934852974489331" lon="5.415189983323216"><ele></ele><time>2015-2-4T11:52:16Z</time></trkpt>
<trkpt lat="43.935048943385482" lon="5.413910988718271"><ele></ele><time>2015-2-4T11:52:19Z</time></trkpt>
<trkpt lat="43.935173917561769" lon="5.412901975214481"><ele></ele><time>2015-2-4T11:52:22Z</time></trkpt>
<trkpt lat="43.935320936143398" lon="5.411788942292333"><ele></ele><time>2015-2-4T11:52:25Z</time></trkpt>
<trkpt lat="43.93542998470366" lon="5.410753944888711"><ele></ele><time>2015-2-4T11:52:28Z</time></trkpt>
<trkpt lat="43.935401989147067" lon="5.409862948581576"><ele></ele><time>2015-2-4T11:52:31Z</time></trkpt>
<trkpt lat="43.935362929478288" lon="5.409211926162243"><ele></ele><time>2015-2-4T11:52:34Z</time></trkpt>
<trkpt lat="43.935325965285301" lon="5.408512959256768"><ele></ele><time>2015-2-4T11:52:37Z</time></trkpt>
<trkpt lat="43.935286989435554" lon="5.407795971259475"><ele></ele><time>2015-2-4T11:52:40Z</time></trkpt>
<trkpt lat="43.935246923938394" lon="5.407023997977376"><ele></ele><time>2015-2-4T11:52:43Z</time></trkpt>
<trkpt lat="43.935349937528372" lon="5.406312961131334"><ele></ele><time>2015-2-4T11:52:46Z</time></trkpt>
<trkpt lat="43.935663923621178" lon="5.405615922063589"><ele></ele><time>2015-2-4T11:52:49Z</time></trkpt>
<trkpt lat="43.936070948839188" lon="5.404741941019893"><ele></ele><time>2015-2-4T11:52:52Z</time></trkpt>
<trkpt lat="43.936354927718639" lon="5.404124949127436"><ele></ele><time>2015-2-4T11:52:55Z</time></trkpt>
<trkpt lat="43.936616946011782" lon="5.403605941683054"><ele></ele><time>2015-2-4T11:52:58Z</time></trkpt>
<trkpt lat="43.936864966526628" lon="5.403019962832332"><ele></ele><time>2015-2-4T11:53:1Z</time></trkpt>
<trkpt lat="43.9370839856565" lon="5.402129972353578"><ele></ele><time>2015-2-4T11:53:4Z</time></trkpt>
<trkpt lat="43.937354972586036" lon="5.400914931669831"><ele></ele><time>2015-2-4T11:53:7Z</time></trkpt>
<trkpt lat="43.937409957870841" lon="5.399743979796767"><ele></ele><time>2015-2-4T11:53:10Z</time></trkpt>
<trkpt lat="43.937430996447802" lon="5.399059932678938"><ele></ele><time>2015-2-4T11:53:13Z</time></trkpt>
<trkpt lat="43.937592934817076" lon="5.397866936400533"><ele></ele><time>2015-2-4T11:53:16Z</time></trkpt>
<trkpt lat="43.93768597394228" lon="5.397103931754828"><ele></ele><time>2015-2-4T11:53:19Z</time></trkpt>
<trkpt lat="43.937608944252133" lon="5.396378980949521"><ele></ele><time>2015-2-4T11:53:22Z</time></trkpt>
<trkpt lat="43.937706928700209" lon="5.395768946036696"><ele></ele><time>2015-2-4T11:53:25Z</time></trkpt>
<trkpt lat="43.938039941713214" lon="5.394949950277805"><ele></ele><time>2015-2-4T11:53:28Z</time></trkpt>
<trkpt lat="43.938328949734569" lon="5.394050991162658"><ele></ele><time>2015-2-4T11:53:31Z</time></trkpt>
<trkpt lat="43.9386329613626" lon="5.392892947420478"><ele></ele><time>2015-2-4T11:53:34Z</time></trkpt>
<trkpt lat="43.938747961074114" lon="5.392260951921344"><ele></ele><time>2015-2-4T11:53:37Z</time></trkpt>
<trkpt lat="43.938947953283787" lon="5.391100980341435"><ele></ele><time>2015-2-4T11:53:40Z</time></trkpt>
<trkpt lat="43.93895298242569" lon="5.390307968482375"><ele></ele><time>2015-2-4T11:53:43Z</time></trkpt>
<trkpt lat="43.938622986897826" lon="5.389877976849675"><ele></ele><time>2015-2-4T11:53:46Z</time></trkpt>
<trkpt lat="43.938792971894145" lon="5.388958984985948"><ele></ele><time>2015-2-4T11:53:49Z</time></trkpt>
<trkpt lat="43.938853992149234" lon="5.388266975060105"><ele></ele><time>2015-2-4T11:53:52Z</time></trkpt>
<trkpt lat="43.938874946907163" lon="5.38756599649787"><ele></ele><time>2015-2-4T11:53:55Z</time></trkpt>
<trkpt lat="43.939060941338539" lon="5.387064926326275"><ele></ele><time>2015-2-4T11:53:58Z</time></trkpt>
<trkpt lat="43.939508954063058" lon="5.387170957401395"><ele></ele><time>2015-2-4T11:54:1Z</time></trkpt>
<trkpt lat="43.940082946792245" lon="5.387273970991373"><ele></ele><time>2015-2-4T11:54:4Z</time></trkpt>
<trkpt lat="43.940637996420264" lon="5.387357957661152"><ele></ele><time>2015-2-4T11:54:7Z</time></trkpt>
<trkpt lat="43.941088942810893" lon="5.387429958209395"><ele></ele><time>2015-2-4T11:54:10Z</time></trkpt>
<trkpt lat="43.94172596745193" lon="5.387339936569333"><ele></ele><time>2015-2-4T11:54:13Z</time></trkpt>
<trkpt lat="43.942188983783126" lon="5.38690097630024"><ele></ele><time>2015-2-4T11:54:16Z</time></trkpt>
<trkpt lat="43.94269198179245" lon="5.386404935270548"><ele></ele><time>2015-2-4T11:54:19Z</time></trkpt>
<trkpt lat="43.943305956199765" lon="5.386186921969056"><ele></ele><time>2015-2-4T11:54:22Z</time></trkpt>
<trkpt lat="43.943734942004085" lon="5.386441983282566"><ele></ele><time>2015-2-4T11:54:25Z</time></trkpt>
<trkpt lat="43.944076923653483" lon="5.386013919487596"><ele></ele><time>2015-2-4T11:54:28Z</time></trkpt>
<trkpt lat="43.943629916757345" lon="5.385451996698976"><ele></ele><time>2015-2-4T11:54:31Z</time></trkpt>
<trkpt lat="43.94344593398273" lon="5.384852942079306"><ele></ele><time>2015-2-4T11:54:34Z</time></trkpt>
<trkpt lat="43.943247953429818" lon="5.384158920496702"><ele></ele><time>2015-2-4T11:54:37Z</time></trkpt>
<trkpt lat="43.942830953747034" lon="5.383555926382542"><ele></ele><time>2015-2-4T11:54:40Z</time></trkpt>
<trkpt lat="43.942615957930684" lon="5.382989980280399"><ele></ele><time>2015-2-4T11:54:43Z</time></trkpt>
<trkpt lat="43.942378917708993" lon="5.382210966199637"><ele></ele><time>2015-2-4T11:54:46Z</time></trkpt>
</trkseg></trk></gpx>